<?xml version="1.0" encoding="UTF-8" standalone="no" ?>
<gpx xmlns="http://www.topografix.com/GPX/1/1" xmlns:xsi="http://www.w3.org/2001/XMLSchema-instance" xsi:schemaLocation="http://www.topografix.com/GPX/1/1 http://www.topografix.com/GPX/1/1/gpx.xsd" version="1.1" creator="VisuGPX - https://www.visugpx.com">
  <metadata>
    <name>Montenois et caetera</name>
    <desc><![CDATA[Montenois et caetera, Montenois et caetera]]></desc>
  </metadata>
  <wpt lat="47.50197" lon="6.76603">
    <ele>403</ele>
    <name><![CDATA[Point de cheminement 1]]></name>
    <desc><![CDATA[]]></desc>
  </wpt>
  <wpt lat="47.49226" lon="6.75639">
    <ele>336</ele>
    <name><![CDATA[Point de cheminement 2]]></name>
    <desc><![CDATA[]]></desc>
  </wpt>
  <wpt lat="47.49016" lon="6.73647">
    <ele>374</ele>
    <name><![CDATA[Point de cheminement 3]]></name>
    <desc><![CDATA[]]></desc>
  </wpt>
  <wpt lat="47.49385" lon="6.71156">
    <ele>461</ele>
    <name><![CDATA[Point de cheminement 4]]></name>
    <desc><![CDATA[]]></desc>
  </wpt>
  <wpt lat="47.48386" lon="6.6826">
    <ele>394</ele>
    <name><![CDATA[Point de cheminement 5]]></name>
    <desc><![CDATA[]]></desc>
  </wpt>
  <wpt lat="47.47878" lon="6.67992">
    <ele>407</ele>
    <name><![CDATA[Point de cheminement 6]]></name>
    <desc><![CDATA[]]></desc>
  </wpt>
  <wpt lat="47.4863" lon="6.65841">
    <ele>418</ele>
    <name><![CDATA[Point de cheminement 7]]></name>
    <desc><![CDATA[]]></desc>
  </wpt>
  <wpt lat="47.50772" lon="6.66543">
    <ele>378</ele>
    <name><![CDATA[Point de cheminement 8]]></name>
    <desc><![CDATA[]]></desc>
  </wpt>
  <wpt lat="47.52592" lon="6.69365">
    <ele>350</ele>
    <name><![CDATA[Point de cheminement 9]]></name>
    <desc><![CDATA[]]></desc>
  </wpt>
  <wpt lat="47.53587" lon="6.73835">
    <ele>385</ele>
    <name><![CDATA[Point de cheminement 10]]></name>
    <desc><![CDATA[]]></desc>
  </wpt>
  <wpt lat="47.53025" lon="6.77208">
    <ele>372</ele>
    <name><![CDATA[Point de cheminement 11]]></name>
    <desc><![CDATA[]]></desc>
  </wpt>
  <trk>
    <name><![CDATA[Rue Antoine Coysevox]]></name>
    <desc><![CDATA[]]></desc>
    <trkseg>
      <trkpt lat="47.51821" lon="6.77463">
        <ele>387</ele>
        <time>2016-09-25T07:07:40.000Z</time>
      </trkpt>
      <trkpt lat="47.5182" lon="6.77457">
        <ele>387</ele>
        <time>2016-09-25T07:07:41.000Z</time>
      </trkpt>
      <trkpt lat="47.51815" lon="6.77452">
        <ele>387</ele>
        <time>2016-09-25T07:07:42.000Z</time>
      </trkpt>
      <trkpt lat="47.51814" lon="6.77459">
        <ele>387</ele>
        <time>2016-09-25T07:07:43.000Z</time>
      </trkpt>
      <trkpt lat="47.51813" lon="6.7747">
        <ele>388</ele>
        <time>2016-09-25T07:07:44.000Z</time>
      </trkpt>
      <trkpt lat="47.51811" lon="6.77466">
        <ele>388</ele>
        <time>2016-09-25T07:07:48.000Z</time>
      </trkpt>
      <trkpt lat="47.51818" lon="6.77471">
        <ele>387</ele>
        <time>2016-09-25T07:07:49.000Z</time>
      </trkpt>
      <trkpt lat="47.51819" lon="6.77473">
        <ele>387</ele>
        <time>2016-09-25T07:07:51.000Z</time>
      </trkpt>
      <trkpt lat="47.51821" lon="6.77466">
        <ele>387</ele>
        <time>2016-09-25T07:07:52.000Z</time>
      </trkpt>
      <trkpt lat="47.5182" lon="6.77466">
        <ele>387</ele>
        <time>2016-09-25T07:08:25.000Z</time>
      </trkpt>
      <trkpt lat="47.51809" lon="6.77482">
        <ele>388</ele>
        <time>2016-09-25T07:08:26.000Z</time>
      </trkpt>
      <trkpt lat="47.51812" lon="6.77479">
        <ele>388</ele>
        <time>2016-09-25T07:13:16.000Z</time>
      </trkpt>
      <trkpt lat="47.51812" lon="6.77478">
        <ele>388</ele>
        <time>2016-09-25T07:13:17.000Z</time>
      </trkpt>
      <trkpt lat="47.51816" lon="6.77482">
        <ele>387</ele>
        <time>2016-09-25T07:14:15.000Z</time>
      </trkpt>
      <trkpt lat="47.51817" lon="6.77483">
        <ele>387</ele>
        <time>2016-09-25T07:14:16.000Z</time>
      </trkpt>
      <trkpt lat="47.51816" lon="6.77489">
        <ele>387</ele>
        <time>2016-09-25T07:14:19.000Z</time>
      </trkpt>
      <trkpt lat="47.51813" lon="6.7749">
        <ele>388</ele>
        <time>2016-09-25T07:14:20.000Z</time>
      </trkpt>
      <trkpt lat="47.5181" lon="6.77491">
        <ele>388</ele>
        <time>2016-09-25T07:14:21.000Z</time>
      </trkpt>
      <trkpt lat="47.51807" lon="6.77491">
        <ele>388</ele>
        <time>2016-09-25T07:14:22.000Z</time>
      </trkpt>
      <trkpt lat="47.51803" lon="6.77491">
        <ele>388</ele>
        <time>2016-09-25T07:14:23.000Z</time>
      </trkpt>
      <trkpt lat="47.51799" lon="6.7749">
        <ele>388</ele>
        <time>2016-09-25T07:14:24.000Z</time>
      </trkpt>
      <trkpt lat="47.51797" lon="6.77489">
        <ele>388</ele>
        <time>2016-09-25T07:14:25.000Z</time>
      </trkpt>
      <trkpt lat="47.51795" lon="6.77488">
        <ele>388</ele>
        <time>2016-09-25T07:14:26.000Z</time>
      </trkpt>
      <trkpt lat="47.51793" lon="6.77486">
        <ele>388</ele>
        <time>2016-09-25T07:14:27.000Z</time>
      </trkpt>
      <trkpt lat="47.5179" lon="6.77484">
        <ele>388</ele>
        <time>2016-09-25T07:14:28.000Z</time>
      </trkpt>
      <trkpt lat="47.51787" lon="6.77483">
        <ele>388</ele>
        <time>2016-09-25T07:14:29.000Z</time>
      </trkpt>
      <trkpt lat="47.51784" lon="6.77481">
        <ele>388</ele>
        <time>2016-09-25T07:14:30.000Z</time>
      </trkpt>
      <trkpt lat="47.51781" lon="6.7748">
        <ele>388</ele>
        <time>2016-09-25T07:14:31.000Z</time>
      </trkpt>
      <trkpt lat="47.51778" lon="6.7748">
        <ele>388</ele>
        <time>2016-09-25T07:14:32.000Z</time>
      </trkpt>
      <trkpt lat="47.51775" lon="6.7748">
        <ele>388</ele>
        <time>2016-09-25T07:14:33.000Z</time>
      </trkpt>
      <trkpt lat="47.51771" lon="6.7748">
        <ele>388</ele>
        <time>2016-09-25T07:14:34.000Z</time>
      </trkpt>
      <trkpt lat="47.51767" lon="6.77479">
        <ele>388</ele>
        <time>2016-09-25T07:14:35.000Z</time>
      </trkpt>
      <trkpt lat="47.51763" lon="6.77479">
        <ele>389</ele>
        <time>2016-09-25T07:14:36.000Z</time>
      </trkpt>
      <trkpt lat="47.5176" lon="6.77478">
        <ele>389</ele>
        <time>2016-09-25T07:14:37.000Z</time>
      </trkpt>
      <trkpt lat="47.51756" lon="6.77477">
        <ele>389</ele>
        <time>2016-09-25T07:14:38.000Z</time>
      </trkpt>
      <trkpt lat="47.51753" lon="6.77475">
        <ele>389</ele>
        <time>2016-09-25T07:14:39.000Z</time>
      </trkpt>
      <trkpt lat="47.5175" lon="6.77474">
        <ele>389</ele>
        <time>2016-09-25T07:14:40.000Z</time>
      </trkpt>
      <trkpt lat="47.51747" lon="6.77472">
        <ele>389</ele>
        <time>2016-09-25T07:14:41.000Z</time>
      </trkpt>
      <trkpt lat="47.51745" lon="6.77472">
        <ele>389</ele>
        <time>2016-09-25T07:14:42.000Z</time>
      </trkpt>
      <trkpt lat="47.51741" lon="6.77475">
        <ele>389</ele>
        <time>2016-09-25T07:14:44.000Z</time>
      </trkpt>
      <trkpt lat="47.5174" lon="6.77479">
        <ele>389</ele>
        <time>2016-09-25T07:14:45.000Z</time>
      </trkpt>
      <trkpt lat="47.51739" lon="6.77484">
        <ele>389</ele>
        <time>2016-09-25T07:14:46.000Z</time>
      </trkpt>
      <trkpt lat="47.51737" lon="6.77488">
        <ele>389</ele>
        <time>2016-09-25T07:14:47.000Z</time>
      </trkpt>
      <trkpt lat="47.51735" lon="6.77493">
        <ele>389</ele>
        <time>2016-09-25T07:14:48.000Z</time>
      </trkpt>
      <trkpt lat="47.51733" lon="6.77499">
        <ele>389</ele>
        <time>2016-09-25T07:14:49.000Z</time>
      </trkpt>
      <trkpt lat="47.51731" lon="6.77513">
        <ele>390</ele>
        <time>2016-09-25T07:14:50.000Z</time>
      </trkpt>
      <trkpt lat="47.5173" lon="6.77518">
        <ele>390</ele>
        <time>2016-09-25T07:14:51.000Z</time>
      </trkpt>
      <trkpt lat="47.51728" lon="6.77523">
        <ele>390</ele>
        <time>2016-09-25T07:14:52.000Z</time>
      </trkpt>
      <trkpt lat="47.51727" lon="6.7753">
        <ele>390</ele>
        <time>2016-09-25T07:14:53.000Z</time>
      </trkpt>
      <trkpt lat="47.51725" lon="6.77537">
        <ele>390</ele>
        <time>2016-09-25T07:14:54.000Z</time>
      </trkpt>
      <trkpt lat="47.51725" lon="6.77542">
        <ele>390</ele>
        <time>2016-09-25T07:14:55.000Z</time>
      </trkpt>
      <trkpt lat="47.51724" lon="6.77547">
        <ele>390</ele>
        <time>2016-09-25T07:14:56.000Z</time>
      </trkpt>
      <trkpt lat="47.5172" lon="6.77551">
        <ele>390</ele>
        <time>2016-09-25T07:14:57.000Z</time>
      </trkpt>
      <trkpt lat="47.51717" lon="6.77551">
        <ele>390</ele>
        <time>2016-09-25T07:14:58.000Z</time>
      </trkpt>
      <trkpt lat="47.51715" lon="6.77552">
        <ele>390</ele>
        <time>2016-09-25T07:14:59.000Z</time>
      </trkpt>
      <trkpt lat="47.5171" lon="6.77553">
        <ele>390</ele>
        <time>2016-09-25T07:15:00.000Z</time>
      </trkpt>
      <trkpt lat="47.51705" lon="6.77545">
        <ele>390</ele>
        <time>2016-09-25T07:15:01.000Z</time>
      </trkpt>
      <trkpt lat="47.51701" lon="6.77541">
        <ele>390</ele>
        <time>2016-09-25T07:15:02.000Z</time>
      </trkpt>
      <trkpt lat="47.51696" lon="6.77536">
        <ele>390</ele>
        <time>2016-09-25T07:15:03.000Z</time>
      </trkpt>
      <trkpt lat="47.51691" lon="6.7753">
        <ele>390</ele>
        <time>2016-09-25T07:15:04.000Z</time>
      </trkpt>
      <trkpt lat="47.51687" lon="6.77524">
        <ele>390</ele>
        <time>2016-09-25T07:15:05.000Z</time>
      </trkpt>
      <trkpt lat="47.51682" lon="6.77518">
        <ele>390</ele>
        <time>2016-09-25T07:15:06.000Z</time>
      </trkpt>
      <trkpt lat="47.51677" lon="6.77511">
        <ele>389</ele>
        <time>2016-09-25T07:15:07.000Z</time>
      </trkpt>
      <trkpt lat="47.51672" lon="6.77505">
        <ele>389</ele>
        <time>2016-09-25T07:15:08.000Z</time>
      </trkpt>
      <trkpt lat="47.51667" lon="6.77498">
        <ele>389</ele>
        <time>2016-09-25T07:15:09.000Z</time>
      </trkpt>
      <trkpt lat="47.51662" lon="6.77491">
        <ele>388</ele>
        <time>2016-09-25T07:15:10.000Z</time>
      </trkpt>
      <trkpt lat="47.51656" lon="6.77484">
        <ele>387</ele>
        <time>2016-09-25T07:15:11.000Z</time>
      </trkpt>
      <trkpt lat="47.5165" lon="6.77478">
        <ele>387</ele>
        <time>2016-09-25T07:15:12.000Z</time>
      </trkpt>
      <trkpt lat="47.51644" lon="6.77471">
        <ele>386</ele>
        <time>2016-09-25T07:15:13.000Z</time>
      </trkpt>
      <trkpt lat="47.51639" lon="6.77465">
        <ele>386</ele>
        <time>2016-09-25T07:15:14.000Z</time>
      </trkpt>
      <trkpt lat="47.51633" lon="6.77458">
        <ele>386</ele>
        <time>2016-09-25T07:15:15.000Z</time>
      </trkpt>
      <trkpt lat="47.51628" lon="6.7745">
        <ele>386</ele>
        <time>2016-09-25T07:15:16.000Z</time>
      </trkpt>
      <trkpt lat="47.51622" lon="6.77443">
        <ele>385</ele>
        <time>2016-09-25T07:15:17.000Z</time>
      </trkpt>
      <trkpt lat="47.51616" lon="6.77435">
        <ele>385</ele>
        <time>2016-09-25T07:15:18.000Z</time>
      </trkpt>
      <trkpt lat="47.51609" lon="6.77428">
        <ele>385</ele>
        <time>2016-09-25T07:15:19.000Z</time>
      </trkpt>
      <trkpt lat="47.51604" lon="6.77421">
        <ele>385</ele>
        <time>2016-09-25T07:15:20.000Z</time>
      </trkpt>
      <trkpt lat="47.51601" lon="6.77412">
        <ele>383</ele>
        <time>2016-09-25T07:15:21.000Z</time>
      </trkpt>
      <trkpt lat="47.51594" lon="6.77404">
        <ele>383</ele>
        <time>2016-09-25T07:15:22.000Z</time>
      </trkpt>
      <trkpt lat="47.51587" lon="6.77396">
        <ele>383</ele>
        <time>2016-09-25T07:15:23.000Z</time>
      </trkpt>
      <trkpt lat="47.5158" lon="6.77389">
        <ele>381</ele>
        <time>2016-09-25T07:15:24.000Z</time>
      </trkpt>
      <trkpt lat="47.51574" lon="6.77382">
        <ele>381</ele>
        <time>2016-09-25T07:15:25.000Z</time>
      </trkpt>
      <trkpt lat="47.51567" lon="6.77373">
        <ele>381</ele>
        <time>2016-09-25T07:15:26.000Z</time>
      </trkpt>
      <trkpt lat="47.5156" lon="6.77366">
        <ele>381</ele>
        <time>2016-09-25T07:15:27.000Z</time>
      </trkpt>
      <trkpt lat="47.51553" lon="6.77358">
        <ele>381</ele>
        <time>2016-09-25T07:15:28.000Z</time>
      </trkpt>
      <trkpt lat="47.51545" lon="6.7735">
        <ele>380</ele>
        <time>2016-09-25T07:15:29.000Z</time>
      </trkpt>
      <trkpt lat="47.51538" lon="6.77343">
        <ele>380</ele>
        <time>2016-09-25T07:15:30.000Z</time>
      </trkpt>
      <trkpt lat="47.51531" lon="6.77334">
        <ele>380</ele>
        <time>2016-09-25T07:15:31.000Z</time>
      </trkpt>
      <trkpt lat="47.51523" lon="6.77326">
        <ele>378</ele>
        <time>2016-09-25T07:15:32.000Z</time>
      </trkpt>
      <trkpt lat="47.51516" lon="6.77318">
        <ele>378</ele>
        <time>2016-09-25T07:15:33.000Z</time>
      </trkpt>
      <trkpt lat="47.51509" lon="6.77308">
        <ele>378</ele>
        <time>2016-09-25T07:15:34.000Z</time>
      </trkpt>
      <trkpt lat="47.51502" lon="6.77297">
        <ele>378</ele>
        <time>2016-09-25T07:15:35.000Z</time>
      </trkpt>
      <trkpt lat="47.51498" lon="6.77284">
        <ele>377</ele>
        <time>2016-09-25T07:15:36.000Z</time>
      </trkpt>
      <trkpt lat="47.51496" lon="6.77272">
        <ele>377</ele>
        <time>2016-09-25T07:15:37.000Z</time>
      </trkpt>
      <trkpt lat="47.51494" lon="6.7726">
        <ele>376</ele>
        <time>2016-09-25T07:15:38.000Z</time>
      </trkpt>
      <trkpt lat="47.51494" lon="6.77248">
        <ele>376</ele>
        <time>2016-09-25T07:15:39.000Z</time>
      </trkpt>
      <trkpt lat="47.51493" lon="6.77235">
        <ele>376</ele>
        <time>2016-09-25T07:15:40.000Z</time>
      </trkpt>
      <trkpt lat="47.51493" lon="6.77225">
        <ele>375</ele>
        <time>2016-09-25T07:15:41.000Z</time>
      </trkpt>
      <trkpt lat="47.51491" lon="6.77214">
        <ele>375</ele>
        <time>2016-09-25T07:15:42.000Z</time>
      </trkpt>
      <trkpt lat="47.51488" lon="6.77205">
        <ele>375</ele>
        <time>2016-09-25T07:15:43.000Z</time>
      </trkpt>
      <trkpt lat="47.51482" lon="6.77199">
        <ele>375</ele>
        <time>2016-09-25T07:15:44.000Z</time>
      </trkpt>
      <trkpt lat="47.51475" lon="6.77198">
        <ele>375</ele>
        <time>2016-09-25T07:15:45.000Z</time>
      </trkpt>
      <trkpt lat="47.51468" lon="6.77199">
        <ele>375</ele>
        <time>2016-09-25T07:15:46.000Z</time>
      </trkpt>
      <trkpt lat="47.5146" lon="6.77203">
        <ele>375</ele>
        <time>2016-09-25T07:15:47.000Z</time>
      </trkpt>
      <trkpt lat="47.51452" lon="6.77207">
        <ele>375</ele>
        <time>2016-09-25T07:15:48.000Z</time>
      </trkpt>
      <trkpt lat="47.51445" lon="6.77211">
        <ele>375</ele>
        <time>2016-09-25T07:15:49.000Z</time>
      </trkpt>
      <trkpt lat="47.51437" lon="6.77215">
        <ele>375</ele>
        <time>2016-09-25T07:15:50.000Z</time>
      </trkpt>
      <trkpt lat="47.51431" lon="6.77219">
        <ele>375</ele>
        <time>2016-09-25T07:15:51.000Z</time>
      </trkpt>
      <trkpt lat="47.51423" lon="6.77222">
        <ele>375</ele>
        <time>2016-09-25T07:15:52.000Z</time>
      </trkpt>
      <trkpt lat="47.51418" lon="6.77225">
        <ele>375</ele>
        <time>2016-09-25T07:15:53.000Z</time>
      </trkpt>
      <trkpt lat="47.51412" lon="6.77229">
        <ele>376</ele>
        <time>2016-09-25T07:15:54.000Z</time>
      </trkpt>
      <trkpt lat="47.51407" lon="6.77232">
        <ele>376</ele>
        <time>2016-09-25T07:15:55.000Z</time>
      </trkpt>
      <trkpt lat="47.51401" lon="6.77236">
        <ele>376</ele>
        <time>2016-09-25T07:15:56.000Z</time>
      </trkpt>
      <trkpt lat="47.51397" lon="6.77239">
        <ele>376</ele>
        <time>2016-09-25T07:15:57.000Z</time>
      </trkpt>
      <trkpt lat="47.51393" lon="6.77242">
        <ele>376</ele>
        <time>2016-09-25T07:15:58.000Z</time>
      </trkpt>
      <trkpt lat="47.51388" lon="6.77245">
        <ele>376</ele>
        <time>2016-09-25T07:15:59.000Z</time>
      </trkpt>
      <trkpt lat="47.51384" lon="6.77246">
        <ele>376</ele>
        <time>2016-09-25T07:16:00.000Z</time>
      </trkpt>
      <trkpt lat="47.5138" lon="6.77248">
        <ele>376</ele>
        <time>2016-09-25T07:16:01.000Z</time>
      </trkpt>
      <trkpt lat="47.51376" lon="6.77251">
        <ele>377</ele>
        <time>2016-09-25T07:16:02.000Z</time>
      </trkpt>
      <trkpt lat="47.51373" lon="6.77253">
        <ele>377</ele>
        <time>2016-09-25T07:16:03.000Z</time>
      </trkpt>
      <trkpt lat="47.51369" lon="6.77255">
        <ele>378</ele>
        <time>2016-09-25T07:16:04.000Z</time>
      </trkpt>
      <trkpt lat="47.51366" lon="6.77257">
        <ele>378</ele>
        <time>2016-09-25T07:16:05.000Z</time>
      </trkpt>
      <trkpt lat="47.51362" lon="6.7726">
        <ele>378</ele>
        <time>2016-09-25T07:16:06.000Z</time>
      </trkpt>
      <trkpt lat="47.51359" lon="6.77263">
        <ele>378</ele>
        <time>2016-09-25T07:16:07.000Z</time>
      </trkpt>
      <trkpt lat="47.51356" lon="6.77265">
        <ele>378</ele>
        <time>2016-09-25T07:16:08.000Z</time>
      </trkpt>
      <trkpt lat="47.51353" lon="6.77268">
        <ele>378</ele>
        <time>2016-09-25T07:16:09.000Z</time>
      </trkpt>
      <trkpt lat="47.5135" lon="6.7727">
        <ele>378</ele>
        <time>2016-09-25T07:16:10.000Z</time>
      </trkpt>
      <trkpt lat="47.51347" lon="6.77272">
        <ele>378</ele>
        <time>2016-09-25T07:16:11.000Z</time>
      </trkpt>
      <trkpt lat="47.51344" lon="6.77274">
        <ele>378</ele>
        <time>2016-09-25T07:16:12.000Z</time>
      </trkpt>
      <trkpt lat="47.51341" lon="6.77276">
        <ele>378</ele>
        <time>2016-09-25T07:16:13.000Z</time>
      </trkpt>
      <trkpt lat="47.51338" lon="6.77277">
        <ele>378</ele>
        <time>2016-09-25T07:16:14.000Z</time>
      </trkpt>
      <trkpt lat="47.51335" lon="6.77278">
        <ele>378</ele>
        <time>2016-09-25T07:16:15.000Z</time>
      </trkpt>
      <trkpt lat="47.51332" lon="6.77279">
        <ele>377</ele>
        <time>2016-09-25T07:16:16.000Z</time>
      </trkpt>
      <trkpt lat="47.51328" lon="6.77279">
        <ele>377</ele>
        <time>2016-09-25T07:16:17.000Z</time>
      </trkpt>
      <trkpt lat="47.51325" lon="6.77279">
        <ele>377</ele>
        <time>2016-09-25T07:16:18.000Z</time>
      </trkpt>
      <trkpt lat="47.51322" lon="6.77279">
        <ele>377</ele>
        <time>2016-09-25T07:16:19.000Z</time>
      </trkpt>
      <trkpt lat="47.51318" lon="6.77278">
        <ele>377</ele>
        <time>2016-09-25T07:16:20.000Z</time>
      </trkpt>
      <trkpt lat="47.51315" lon="6.77277">
        <ele>377</ele>
        <time>2016-09-25T07:16:21.000Z</time>
      </trkpt>
      <trkpt lat="47.51312" lon="6.77275">
        <ele>377</ele>
        <time>2016-09-25T07:16:22.000Z</time>
      </trkpt>
      <trkpt lat="47.51308" lon="6.77274">
        <ele>377</ele>
        <time>2016-09-25T07:16:23.000Z</time>
      </trkpt>
      <trkpt lat="47.51304" lon="6.77272">
        <ele>377</ele>
        <time>2016-09-25T07:16:24.000Z</time>
      </trkpt>
      <trkpt lat="47.513" lon="6.7727">
        <ele>377</ele>
        <time>2016-09-25T07:16:25.000Z</time>
      </trkpt>
      <trkpt lat="47.51297" lon="6.77267">
        <ele>377</ele>
        <time>2016-09-25T07:16:26.000Z</time>
      </trkpt>
      <trkpt lat="47.51293" lon="6.77265">
        <ele>377</ele>
        <time>2016-09-25T07:16:27.000Z</time>
      </trkpt>
      <trkpt lat="47.5129" lon="6.77263">
        <ele>377</ele>
        <time>2016-09-25T07:16:28.000Z</time>
      </trkpt>
      <trkpt lat="47.51286" lon="6.77261">
        <ele>377</ele>
        <time>2016-09-25T07:16:29.000Z</time>
      </trkpt>
      <trkpt lat="47.51282" lon="6.77258">
        <ele>377</ele>
        <time>2016-09-25T07:16:30.000Z</time>
      </trkpt>
      <trkpt lat="47.51279" lon="6.77256">
        <ele>377</ele>
        <time>2016-09-25T07:16:31.000Z</time>
      </trkpt>
      <trkpt lat="47.51275" lon="6.77254">
        <ele>377</ele>
        <time>2016-09-25T07:16:32.000Z</time>
      </trkpt>
      <trkpt lat="47.51272" lon="6.77251">
        <ele>378</ele>
        <time>2016-09-25T07:16:33.000Z</time>
      </trkpt>
      <trkpt lat="47.51269" lon="6.77249">
        <ele>378</ele>
        <time>2016-09-25T07:16:34.000Z</time>
      </trkpt>
      <trkpt lat="47.51267" lon="6.77241">
        <ele>378</ele>
        <time>2016-09-25T07:16:35.000Z</time>
      </trkpt>
      <trkpt lat="47.51264" lon="6.77236">
        <ele>378</ele>
        <time>2016-09-25T07:16:36.000Z</time>
      </trkpt>
      <trkpt lat="47.5126" lon="6.7723">
        <ele>378</ele>
        <time>2016-09-25T07:16:37.000Z</time>
      </trkpt>
      <trkpt lat="47.51256" lon="6.77225">
        <ele>378</ele>
        <time>2016-09-25T07:16:38.000Z</time>
      </trkpt>
      <trkpt lat="47.51252" lon="6.77219">
        <ele>378</ele>
        <time>2016-09-25T07:16:39.000Z</time>
      </trkpt>
      <trkpt lat="47.51248" lon="6.77214">
        <ele>376</ele>
        <time>2016-09-25T07:16:40.000Z</time>
      </trkpt>
      <trkpt lat="47.51243" lon="6.77207">
        <ele>376</ele>
        <time>2016-09-25T07:16:41.000Z</time>
      </trkpt>
      <trkpt lat="47.51239" lon="6.77202">
        <ele>376</ele>
        <time>2016-09-25T07:16:42.000Z</time>
      </trkpt>
      <trkpt lat="47.51238" lon="6.77197">
        <ele>376</ele>
        <time>2016-09-25T07:16:43.000Z</time>
      </trkpt>
      <trkpt lat="47.51235" lon="6.7719">
        <ele>377</ele>
        <time>2016-09-25T07:16:44.000Z</time>
      </trkpt>
      <trkpt lat="47.51233" lon="6.77184">
        <ele>377</ele>
        <time>2016-09-25T07:16:45.000Z</time>
      </trkpt>
      <trkpt lat="47.51231" lon="6.77178">
        <ele>377</ele>
        <time>2016-09-25T07:16:46.000Z</time>
      </trkpt>
      <trkpt lat="47.51227" lon="6.77171">
        <ele>377</ele>
        <time>2016-09-25T07:16:47.000Z</time>
      </trkpt>
      <trkpt lat="47.51224" lon="6.77163">
        <ele>378</ele>
        <time>2016-09-25T07:16:48.000Z</time>
      </trkpt>
      <trkpt lat="47.5122" lon="6.77156">
        <ele>378</ele>
        <time>2016-09-25T07:16:49.000Z</time>
      </trkpt>
      <trkpt lat="47.51216" lon="6.7715">
        <ele>378</ele>
        <time>2016-09-25T07:16:50.000Z</time>
      </trkpt>
      <trkpt lat="47.51212" lon="6.77142">
        <ele>378</ele>
        <time>2016-09-25T07:16:51.000Z</time>
      </trkpt>
      <trkpt lat="47.51208" lon="6.77134">
        <ele>378</ele>
        <time>2016-09-25T07:16:52.000Z</time>
      </trkpt>
      <trkpt lat="47.51203" lon="6.77126">
        <ele>378</ele>
        <time>2016-09-25T07:16:53.000Z</time>
      </trkpt>
      <trkpt lat="47.51199" lon="6.77118">
        <ele>377</ele>
        <time>2016-09-25T07:16:54.000Z</time>
      </trkpt>
      <trkpt lat="47.51194" lon="6.7711">
        <ele>377</ele>
        <time>2016-09-25T07:16:55.000Z</time>
      </trkpt>
      <trkpt lat="47.51189" lon="6.77103">
        <ele>378</ele>
        <time>2016-09-25T07:16:56.000Z</time>
      </trkpt>
      <trkpt lat="47.51185" lon="6.77094">
        <ele>378</ele>
        <time>2016-09-25T07:16:57.000Z</time>
      </trkpt>
      <trkpt lat="47.51181" lon="6.77086">
        <ele>378</ele>
        <time>2016-09-25T07:16:58.000Z</time>
      </trkpt>
      <trkpt lat="47.51176" lon="6.77077">
        <ele>377</ele>
        <time>2016-09-25T07:16:59.000Z</time>
      </trkpt>
      <trkpt lat="47.5117" lon="6.7707">
        <ele>377</ele>
        <time>2016-09-25T07:17:00.000Z</time>
      </trkpt>
      <trkpt lat="47.51164" lon="6.77063">
        <ele>376</ele>
        <time>2016-09-25T07:17:01.000Z</time>
      </trkpt>
      <trkpt lat="47.51158" lon="6.77056">
        <ele>376</ele>
        <time>2016-09-25T07:17:02.000Z</time>
      </trkpt>
      <trkpt lat="47.51152" lon="6.77051">
        <ele>376</ele>
        <time>2016-09-25T07:17:03.000Z</time>
      </trkpt>
      <trkpt lat="47.51147" lon="6.77046">
        <ele>376</ele>
        <time>2016-09-25T07:17:04.000Z</time>
      </trkpt>
      <trkpt lat="47.51141" lon="6.7704">
        <ele>375</ele>
        <time>2016-09-25T07:17:05.000Z</time>
      </trkpt>
      <trkpt lat="47.51136" lon="6.77034">
        <ele>375</ele>
        <time>2016-09-25T07:17:06.000Z</time>
      </trkpt>
      <trkpt lat="47.5113" lon="6.77029">
        <ele>375</ele>
        <time>2016-09-25T07:17:07.000Z</time>
      </trkpt>
      <trkpt lat="47.51126" lon="6.77024">
        <ele>375</ele>
        <time>2016-09-25T07:17:08.000Z</time>
      </trkpt>
      <trkpt lat="47.51119" lon="6.77019">
        <ele>375</ele>
        <time>2016-09-25T07:17:09.000Z</time>
      </trkpt>
      <trkpt lat="47.51113" lon="6.77014">
        <ele>375</ele>
        <time>2016-09-25T07:17:10.000Z</time>
      </trkpt>
      <trkpt lat="47.51108" lon="6.77009">
        <ele>375</ele>
        <time>2016-09-25T07:17:11.000Z</time>
      </trkpt>
      <trkpt lat="47.51101" lon="6.77005">
        <ele>375</ele>
        <time>2016-09-25T07:17:12.000Z</time>
      </trkpt>
      <trkpt lat="47.51095" lon="6.77">
        <ele>375</ele>
        <time>2016-09-25T07:17:13.000Z</time>
      </trkpt>
      <trkpt lat="47.5109" lon="6.76994">
        <ele>375</ele>
        <time>2016-09-25T07:17:14.000Z</time>
      </trkpt>
      <trkpt lat="47.51085" lon="6.76989">
        <ele>375</ele>
        <time>2016-09-25T07:17:15.000Z</time>
      </trkpt>
      <trkpt lat="47.5108" lon="6.76984">
        <ele>375</ele>
        <time>2016-09-25T07:17:16.000Z</time>
      </trkpt>
      <trkpt lat="47.51075" lon="6.76979">
        <ele>375</ele>
        <time>2016-09-25T07:17:17.000Z</time>
      </trkpt>
      <trkpt lat="47.51069" lon="6.76974">
        <ele>375</ele>
        <time>2016-09-25T07:17:18.000Z</time>
      </trkpt>
      <trkpt lat="47.51064" lon="6.76969">
        <ele>375</ele>
        <time>2016-09-25T07:17:19.000Z</time>
      </trkpt>
      <trkpt lat="47.51058" lon="6.76964">
        <ele>375</ele>
        <time>2016-09-25T07:17:20.000Z</time>
      </trkpt>
      <trkpt lat="47.51054" lon="6.7696">
        <ele>375</ele>
        <time>2016-09-25T07:17:21.000Z</time>
      </trkpt>
      <trkpt lat="47.51049" lon="6.76955">
        <ele>375</ele>
        <time>2016-09-25T07:17:22.000Z</time>
      </trkpt>
      <trkpt lat="47.51043" lon="6.76951">
        <ele>375</ele>
        <time>2016-09-25T07:17:23.000Z</time>
      </trkpt>
      <trkpt lat="47.51039" lon="6.76946">
        <ele>375</ele>
        <time>2016-09-25T07:17:24.000Z</time>
      </trkpt>
      <trkpt lat="47.51035" lon="6.76942">
        <ele>375</ele>
        <time>2016-09-25T07:17:25.000Z</time>
      </trkpt>
      <trkpt lat="47.5103" lon="6.76936">
        <ele>375</ele>
        <time>2016-09-25T07:17:26.000Z</time>
      </trkpt>
      <trkpt lat="47.51026" lon="6.76931">
        <ele>375</ele>
        <time>2016-09-25T07:17:27.000Z</time>
      </trkpt>
      <trkpt lat="47.51022" lon="6.76928">
        <ele>375</ele>
        <time>2016-09-25T07:17:28.000Z</time>
      </trkpt>
      <trkpt lat="47.51019" lon="6.76924">
        <ele>375</ele>
        <time>2016-09-25T07:17:29.000Z</time>
      </trkpt>
      <trkpt lat="47.51016" lon="6.76921">
        <ele>375</ele>
        <time>2016-09-25T07:17:30.000Z</time>
      </trkpt>
      <trkpt lat="47.5101" lon="6.76918">
        <ele>376</ele>
        <time>2016-09-25T07:17:31.000Z</time>
      </trkpt>
      <trkpt lat="47.51008" lon="6.76911">
        <ele>376</ele>
        <time>2016-09-25T07:17:32.000Z</time>
      </trkpt>
      <trkpt lat="47.51006" lon="6.76905">
        <ele>376</ele>
        <time>2016-09-25T07:17:33.000Z</time>
      </trkpt>
      <trkpt lat="47.51001" lon="6.769">
        <ele>376</ele>
        <time>2016-09-25T07:17:34.000Z</time>
      </trkpt>
      <trkpt lat="47.50996" lon="6.76898">
        <ele>377</ele>
        <time>2016-09-25T07:17:35.000Z</time>
      </trkpt>
      <trkpt lat="47.50991" lon="6.76897">
        <ele>377</ele>
        <time>2016-09-25T07:17:36.000Z</time>
      </trkpt>
      <trkpt lat="47.50986" lon="6.76897">
        <ele>377</ele>
        <time>2016-09-25T07:17:37.000Z</time>
      </trkpt>
      <trkpt lat="47.50981" lon="6.76895">
        <ele>377</ele>
        <time>2016-09-25T07:17:38.000Z</time>
      </trkpt>
      <trkpt lat="47.5098" lon="6.76893">
        <ele>377</ele>
        <time>2016-09-25T07:17:39.000Z</time>
      </trkpt>
      <trkpt lat="47.50976" lon="6.7689">
        <ele>377</ele>
        <time>2016-09-25T07:17:40.000Z</time>
      </trkpt>
      <trkpt lat="47.50972" lon="6.76887">
        <ele>377</ele>
        <time>2016-09-25T07:17:41.000Z</time>
      </trkpt>
      <trkpt lat="47.50968" lon="6.76884">
        <ele>377</ele>
        <time>2016-09-25T07:17:42.000Z</time>
      </trkpt>
      <trkpt lat="47.50963" lon="6.76882">
        <ele>377</ele>
        <time>2016-09-25T07:17:43.000Z</time>
      </trkpt>
      <trkpt lat="47.50958" lon="6.76879">
        <ele>377</ele>
        <time>2016-09-25T07:17:44.000Z</time>
      </trkpt>
      <trkpt lat="47.50953" lon="6.76875">
        <ele>378</ele>
        <time>2016-09-25T07:17:45.000Z</time>
      </trkpt>
      <trkpt lat="47.5095" lon="6.76872">
        <ele>378</ele>
        <time>2016-09-25T07:17:46.000Z</time>
      </trkpt>
      <trkpt lat="47.50947" lon="6.76868">
        <ele>378</ele>
        <time>2016-09-25T07:17:47.000Z</time>
      </trkpt>
      <trkpt lat="47.50944" lon="6.76863">
        <ele>378</ele>
        <time>2016-09-25T07:17:48.000Z</time>
      </trkpt>
      <trkpt lat="47.50939" lon="6.76858">
        <ele>378</ele>
        <time>2016-09-25T07:17:49.000Z</time>
      </trkpt>
      <trkpt lat="47.50936" lon="6.76853">
        <ele>378</ele>
        <time>2016-09-25T07:17:50.000Z</time>
      </trkpt>
      <trkpt lat="47.50934" lon="6.76848">
        <ele>378</ele>
        <time>2016-09-25T07:17:51.000Z</time>
      </trkpt>
      <trkpt lat="47.5093" lon="6.76842">
        <ele>379</ele>
        <time>2016-09-25T07:17:52.000Z</time>
      </trkpt>
      <trkpt lat="47.50927" lon="6.76836">
        <ele>379</ele>
        <time>2016-09-25T07:17:53.000Z</time>
      </trkpt>
      <trkpt lat="47.50924" lon="6.76832">
        <ele>379</ele>
        <time>2016-09-25T07:17:54.000Z</time>
      </trkpt>
      <trkpt lat="47.50921" lon="6.76829">
        <ele>379</ele>
        <time>2016-09-25T07:17:55.000Z</time>
      </trkpt>
      <trkpt lat="47.50919" lon="6.76823">
        <ele>379</ele>
        <time>2016-09-25T07:17:56.000Z</time>
      </trkpt>
      <trkpt lat="47.50916" lon="6.76815">
        <ele>381</ele>
        <time>2016-09-25T07:17:57.000Z</time>
      </trkpt>
      <trkpt lat="47.50915" lon="6.76811">
        <ele>381</ele>
        <time>2016-09-25T07:17:58.000Z</time>
      </trkpt>
      <trkpt lat="47.50913" lon="6.76805">
        <ele>381</ele>
        <time>2016-09-25T07:17:59.000Z</time>
      </trkpt>
      <trkpt lat="47.50911" lon="6.76799">
        <ele>381</ele>
        <time>2016-09-25T07:18:00.000Z</time>
      </trkpt>
      <trkpt lat="47.50907" lon="6.76794">
        <ele>381</ele>
        <time>2016-09-25T07:18:01.000Z</time>
      </trkpt>
      <trkpt lat="47.50905" lon="6.76788">
        <ele>381</ele>
        <time>2016-09-25T07:18:02.000Z</time>
      </trkpt>
      <trkpt lat="47.50903" lon="6.76784">
        <ele>381</ele>
        <time>2016-09-25T07:18:03.000Z</time>
      </trkpt>
      <trkpt lat="47.509" lon="6.76778">
        <ele>381</ele>
        <time>2016-09-25T07:18:04.000Z</time>
      </trkpt>
      <trkpt lat="47.50898" lon="6.76772">
        <ele>381</ele>
        <time>2016-09-25T07:18:05.000Z</time>
      </trkpt>
      <trkpt lat="47.50896" lon="6.76767">
        <ele>381</ele>
        <time>2016-09-25T07:18:06.000Z</time>
      </trkpt>
      <trkpt lat="47.50894" lon="6.76761">
        <ele>381</ele>
        <time>2016-09-25T07:18:07.000Z</time>
      </trkpt>
      <trkpt lat="47.50892" lon="6.76755">
        <ele>381</ele>
        <time>2016-09-25T07:18:08.000Z</time>
      </trkpt>
      <trkpt lat="47.5089" lon="6.7675">
        <ele>382</ele>
        <time>2016-09-25T07:18:09.000Z</time>
      </trkpt>
      <trkpt lat="47.50888" lon="6.76745">
        <ele>382</ele>
        <time>2016-09-25T07:18:10.000Z</time>
      </trkpt>
      <trkpt lat="47.50887" lon="6.7674">
        <ele>382</ele>
        <time>2016-09-25T07:18:11.000Z</time>
      </trkpt>
      <trkpt lat="47.50884" lon="6.76734">
        <ele>382</ele>
        <time>2016-09-25T07:18:12.000Z</time>
      </trkpt>
      <trkpt lat="47.50884" lon="6.76729">
        <ele>382</ele>
        <time>2016-09-25T07:18:13.000Z</time>
      </trkpt>
      <trkpt lat="47.50882" lon="6.76724">
        <ele>383</ele>
        <time>2016-09-25T07:18:14.000Z</time>
      </trkpt>
      <trkpt lat="47.50881" lon="6.76719">
        <ele>383</ele>
        <time>2016-09-25T07:18:15.000Z</time>
      </trkpt>
      <trkpt lat="47.50879" lon="6.76715">
        <ele>383</ele>
        <time>2016-09-25T07:18:16.000Z</time>
      </trkpt>
      <trkpt lat="47.50878" lon="6.7671">
        <ele>383</ele>
        <time>2016-09-25T07:18:17.000Z</time>
      </trkpt>
      <trkpt lat="47.50876" lon="6.76706">
        <ele>383</ele>
        <time>2016-09-25T07:18:18.000Z</time>
      </trkpt>
      <trkpt lat="47.50874" lon="6.76701">
        <ele>383</ele>
        <time>2016-09-25T07:18:19.000Z</time>
      </trkpt>
      <trkpt lat="47.50872" lon="6.76697">
        <ele>384</ele>
        <time>2016-09-25T07:18:20.000Z</time>
      </trkpt>
      <trkpt lat="47.50871" lon="6.76693">
        <ele>384</ele>
        <time>2016-09-25T07:18:21.000Z</time>
      </trkpt>
      <trkpt lat="47.50869" lon="6.76689">
        <ele>384</ele>
        <time>2016-09-25T07:18:22.000Z</time>
      </trkpt>
      <trkpt lat="47.50867" lon="6.76684">
        <ele>384</ele>
        <time>2016-09-25T07:18:23.000Z</time>
      </trkpt>
      <trkpt lat="47.50865" lon="6.7668">
        <ele>384</ele>
        <time>2016-09-25T07:18:24.000Z</time>
      </trkpt>
      <trkpt lat="47.50863" lon="6.76675">
        <ele>385</ele>
        <time>2016-09-25T07:18:25.000Z</time>
      </trkpt>
      <trkpt lat="47.50861" lon="6.7667">
        <ele>385</ele>
        <time>2016-09-25T07:18:26.000Z</time>
      </trkpt>
      <trkpt lat="47.50859" lon="6.76666">
        <ele>387</ele>
        <time>2016-09-25T07:18:27.000Z</time>
      </trkpt>
      <trkpt lat="47.50857" lon="6.76661">
        <ele>387</ele>
        <time>2016-09-25T07:18:28.000Z</time>
      </trkpt>
      <trkpt lat="47.50855" lon="6.76656">
        <ele>387</ele>
        <time>2016-09-25T07:18:29.000Z</time>
      </trkpt>
      <trkpt lat="47.50853" lon="6.76652">
        <ele>387</ele>
        <time>2016-09-25T07:18:30.000Z</time>
      </trkpt>
      <trkpt lat="47.50851" lon="6.76648">
        <ele>387</ele>
        <time>2016-09-25T07:18:31.000Z</time>
      </trkpt>
      <trkpt lat="47.50849" lon="6.76644">
        <ele>387</ele>
        <time>2016-09-25T07:18:32.000Z</time>
      </trkpt>
      <trkpt lat="47.50848" lon="6.7664">
        <ele>387</ele>
        <time>2016-09-25T07:18:33.000Z</time>
      </trkpt>
      <trkpt lat="47.50846" lon="6.76636">
        <ele>387</ele>
        <time>2016-09-25T07:18:34.000Z</time>
      </trkpt>
      <trkpt lat="47.50844" lon="6.76632">
        <ele>387</ele>
        <time>2016-09-25T07:18:35.000Z</time>
      </trkpt>
      <trkpt lat="47.50842" lon="6.76629">
        <ele>387</ele>
        <time>2016-09-25T07:18:36.000Z</time>
      </trkpt>
      <trkpt lat="47.5084" lon="6.76625">
        <ele>387</ele>
        <time>2016-09-25T07:18:37.000Z</time>
      </trkpt>
      <trkpt lat="47.50839" lon="6.76621">
        <ele>387</ele>
        <time>2016-09-25T07:18:38.000Z</time>
      </trkpt>
      <trkpt lat="47.50837" lon="6.76617">
        <ele>387</ele>
        <time>2016-09-25T07:18:39.000Z</time>
      </trkpt>
      <trkpt lat="47.50835" lon="6.76613">
        <ele>387</ele>
        <time>2016-09-25T07:18:40.000Z</time>
      </trkpt>
      <trkpt lat="47.50834" lon="6.76609">
        <ele>387</ele>
        <time>2016-09-25T07:18:41.000Z</time>
      </trkpt>
      <trkpt lat="47.50832" lon="6.76605">
        <ele>390</ele>
        <time>2016-09-25T07:18:42.000Z</time>
      </trkpt>
      <trkpt lat="47.50831" lon="6.76601">
        <ele>390</ele>
        <time>2016-09-25T07:18:43.000Z</time>
      </trkpt>
      <trkpt lat="47.50829" lon="6.76597">
        <ele>390</ele>
        <time>2016-09-25T07:18:44.000Z</time>
      </trkpt>
      <trkpt lat="47.50828" lon="6.76593">
        <ele>390</ele>
        <time>2016-09-25T07:18:45.000Z</time>
      </trkpt>
      <trkpt lat="47.50824" lon="6.76592">
        <ele>390</ele>
        <time>2016-09-25T07:18:47.000Z</time>
      </trkpt>
      <trkpt lat="47.50821" lon="6.76593">
        <ele>390</ele>
        <time>2016-09-25T07:18:48.000Z</time>
      </trkpt>
      <trkpt lat="47.50818" lon="6.76595">
        <ele>390</ele>
        <time>2016-09-25T07:18:49.000Z</time>
      </trkpt>
      <trkpt lat="47.50815" lon="6.76595">
        <ele>390</ele>
        <time>2016-09-25T07:18:50.000Z</time>
      </trkpt>
      <trkpt lat="47.50812" lon="6.76593">
        <ele>390</ele>
        <time>2016-09-25T07:18:51.000Z</time>
      </trkpt>
      <trkpt lat="47.50809" lon="6.7659">
        <ele>390</ele>
        <time>2016-09-25T07:18:52.000Z</time>
      </trkpt>
      <trkpt lat="47.50807" lon="6.76587">
        <ele>390</ele>
        <time>2016-09-25T07:18:53.000Z</time>
      </trkpt>
      <trkpt lat="47.50805" lon="6.76585">
        <ele>390</ele>
        <time>2016-09-25T07:18:54.000Z</time>
      </trkpt>
      <trkpt lat="47.50801" lon="6.76585">
        <ele>391</ele>
        <time>2016-09-25T07:18:56.000Z</time>
      </trkpt>
      <trkpt lat="47.50798" lon="6.76586">
        <ele>391</ele>
        <time>2016-09-25T07:18:57.000Z</time>
      </trkpt>
      <trkpt lat="47.50795" lon="6.76589">
        <ele>391</ele>
        <time>2016-09-25T07:19:08.000Z</time>
      </trkpt>
      <trkpt lat="47.50793" lon="6.7659">
        <ele>391</ele>
        <time>2016-09-25T07:19:09.000Z</time>
      </trkpt>
      <trkpt lat="47.50789" lon="6.7659">
        <ele>391</ele>
        <time>2016-09-25T07:19:19.000Z</time>
      </trkpt>
      <trkpt lat="47.50788" lon="6.76591">
        <ele>391</ele>
        <time>2016-09-25T07:19:20.000Z</time>
      </trkpt>
      <trkpt lat="47.50785" lon="6.76592">
        <ele>391</ele>
        <time>2016-09-25T07:19:24.000Z</time>
      </trkpt>
      <trkpt lat="47.50783" lon="6.76592">
        <ele>391</ele>
        <time>2016-09-25T07:19:25.000Z</time>
      </trkpt>
      <trkpt lat="47.50779" lon="6.76592">
        <ele>392</ele>
        <time>2016-09-25T07:19:27.000Z</time>
      </trkpt>
      <trkpt lat="47.50777" lon="6.76592">
        <ele>392</ele>
        <time>2016-09-25T07:19:28.000Z</time>
      </trkpt>
      <trkpt lat="47.50774" lon="6.76592">
        <ele>392</ele>
        <time>2016-09-25T07:19:29.000Z</time>
      </trkpt>
      <trkpt lat="47.50771" lon="6.76593">
        <ele>392</ele>
        <time>2016-09-25T07:19:30.000Z</time>
      </trkpt>
      <trkpt lat="47.50767" lon="6.76592">
        <ele>392</ele>
        <time>2016-09-25T07:19:31.000Z</time>
      </trkpt>
      <trkpt lat="47.50764" lon="6.76592">
        <ele>392</ele>
        <time>2016-09-25T07:19:32.000Z</time>
      </trkpt>
      <trkpt lat="47.5076" lon="6.7659">
        <ele>393</ele>
        <time>2016-09-25T07:19:33.000Z</time>
      </trkpt>
      <trkpt lat="47.50756" lon="6.76588">
        <ele>393</ele>
        <time>2016-09-25T07:19:34.000Z</time>
      </trkpt>
      <trkpt lat="47.50752" lon="6.76587">
        <ele>393</ele>
        <time>2016-09-25T07:19:35.000Z</time>
      </trkpt>
      <trkpt lat="47.50749" lon="6.76586">
        <ele>394</ele>
        <time>2016-09-25T07:19:36.000Z</time>
      </trkpt>
      <trkpt lat="47.50745" lon="6.76585">
        <ele>394</ele>
        <time>2016-09-25T07:19:37.000Z</time>
      </trkpt>
      <trkpt lat="47.50741" lon="6.76585">
        <ele>394</ele>
        <time>2016-09-25T07:19:38.000Z</time>
      </trkpt>
      <trkpt lat="47.50737" lon="6.76584">
        <ele>394</ele>
        <time>2016-09-25T07:19:39.000Z</time>
      </trkpt>
      <trkpt lat="47.50733" lon="6.76584">
        <ele>394</ele>
        <time>2016-09-25T07:19:40.000Z</time>
      </trkpt>
      <trkpt lat="47.50729" lon="6.76583">
        <ele>395</ele>
        <time>2016-09-25T07:19:41.000Z</time>
      </trkpt>
      <trkpt lat="47.50726" lon="6.76581">
        <ele>395</ele>
        <time>2016-09-25T07:19:42.000Z</time>
      </trkpt>
      <trkpt lat="47.50722" lon="6.7658">
        <ele>395</ele>
        <time>2016-09-25T07:19:43.000Z</time>
      </trkpt>
      <trkpt lat="47.50718" lon="6.76579">
        <ele>395</ele>
        <time>2016-09-25T07:19:44.000Z</time>
      </trkpt>
      <trkpt lat="47.50714" lon="6.76577">
        <ele>395</ele>
        <time>2016-09-25T07:19:45.000Z</time>
      </trkpt>
      <trkpt lat="47.50711" lon="6.76577">
        <ele>395</ele>
        <time>2016-09-25T07:19:46.000Z</time>
      </trkpt>
      <trkpt lat="47.50707" lon="6.76578">
        <ele>395</ele>
        <time>2016-09-25T07:19:47.000Z</time>
      </trkpt>
      <trkpt lat="47.50703" lon="6.76578">
        <ele>395</ele>
        <time>2016-09-25T07:19:48.000Z</time>
      </trkpt>
      <trkpt lat="47.50699" lon="6.76579">
        <ele>395</ele>
        <time>2016-09-25T07:19:49.000Z</time>
      </trkpt>
      <trkpt lat="47.50696" lon="6.7658">
        <ele>396</ele>
        <time>2016-09-25T07:19:50.000Z</time>
      </trkpt>
      <trkpt lat="47.50692" lon="6.7658">
        <ele>396</ele>
        <time>2016-09-25T07:19:51.000Z</time>
      </trkpt>
      <trkpt lat="47.50689" lon="6.7658">
        <ele>396</ele>
        <time>2016-09-25T07:19:52.000Z</time>
      </trkpt>
      <trkpt lat="47.50685" lon="6.76581">
        <ele>396</ele>
        <time>2016-09-25T07:19:53.000Z</time>
      </trkpt>
      <trkpt lat="47.50681" lon="6.76582">
        <ele>396</ele>
        <time>2016-09-25T07:19:54.000Z</time>
      </trkpt>
      <trkpt lat="47.50677" lon="6.76583">
        <ele>396</ele>
        <time>2016-09-25T07:19:55.000Z</time>
      </trkpt>
      <trkpt lat="47.50674" lon="6.76584">
        <ele>396</ele>
        <time>2016-09-25T07:19:56.000Z</time>
      </trkpt>
      <trkpt lat="47.5067" lon="6.76585">
        <ele>397</ele>
        <time>2016-09-25T07:19:57.000Z</time>
      </trkpt>
      <trkpt lat="47.50666" lon="6.76587">
        <ele>397</ele>
        <time>2016-09-25T07:19:58.000Z</time>
      </trkpt>
      <trkpt lat="47.50663" lon="6.76589">
        <ele>397</ele>
        <time>2016-09-25T07:19:59.000Z</time>
      </trkpt>
      <trkpt lat="47.50659" lon="6.76591">
        <ele>397</ele>
        <time>2016-09-25T07:20:00.000Z</time>
      </trkpt>
      <trkpt lat="47.50657" lon="6.76592">
        <ele>397</ele>
        <time>2016-09-25T07:20:01.000Z</time>
      </trkpt>
      <trkpt lat="47.50654" lon="6.76593">
        <ele>397</ele>
        <time>2016-09-25T07:20:02.000Z</time>
      </trkpt>
      <trkpt lat="47.5065" lon="6.76594">
        <ele>397</ele>
        <time>2016-09-25T07:20:03.000Z</time>
      </trkpt>
      <trkpt lat="47.50647" lon="6.76595">
        <ele>397</ele>
        <time>2016-09-25T07:20:04.000Z</time>
      </trkpt>
      <trkpt lat="47.50643" lon="6.76597">
        <ele>397</ele>
        <time>2016-09-25T07:20:05.000Z</time>
      </trkpt>
      <trkpt lat="47.50639" lon="6.76599">
        <ele>397</ele>
        <time>2016-09-25T07:20:06.000Z</time>
      </trkpt>
      <trkpt lat="47.50636" lon="6.76601">
        <ele>397</ele>
        <time>2016-09-25T07:20:07.000Z</time>
      </trkpt>
      <trkpt lat="47.50632" lon="6.76603">
        <ele>397</ele>
        <time>2016-09-25T07:20:08.000Z</time>
      </trkpt>
      <trkpt lat="47.50629" lon="6.76606">
        <ele>397</ele>
        <time>2016-09-25T07:20:09.000Z</time>
      </trkpt>
      <trkpt lat="47.50625" lon="6.76608">
        <ele>397</ele>
        <time>2016-09-25T07:20:10.000Z</time>
      </trkpt>
      <trkpt lat="47.50622" lon="6.76611">
        <ele>397</ele>
        <time>2016-09-25T07:20:11.000Z</time>
      </trkpt>
      <trkpt lat="47.50619" lon="6.76613">
        <ele>397</ele>
        <time>2016-09-25T07:20:12.000Z</time>
      </trkpt>
      <trkpt lat="47.50615" lon="6.76615">
        <ele>397</ele>
        <time>2016-09-25T07:20:13.000Z</time>
      </trkpt>
      <trkpt lat="47.50612" lon="6.76617">
        <ele>398</ele>
        <time>2016-09-25T07:20:14.000Z</time>
      </trkpt>
      <trkpt lat="47.50608" lon="6.76618">
        <ele>398</ele>
        <time>2016-09-25T07:20:15.000Z</time>
      </trkpt>
      <trkpt lat="47.50604" lon="6.7662">
        <ele>398</ele>
        <time>2016-09-25T07:20:16.000Z</time>
      </trkpt>
      <trkpt lat="47.50601" lon="6.76621">
        <ele>398</ele>
        <time>2016-09-25T07:20:17.000Z</time>
      </trkpt>
      <trkpt lat="47.50597" lon="6.76622">
        <ele>398</ele>
        <time>2016-09-25T07:20:18.000Z</time>
      </trkpt>
      <trkpt lat="47.50594" lon="6.76622">
        <ele>398</ele>
        <time>2016-09-25T07:20:19.000Z</time>
      </trkpt>
      <trkpt lat="47.50591" lon="6.76623">
        <ele>398</ele>
        <time>2016-09-25T07:20:20.000Z</time>
      </trkpt>
      <trkpt lat="47.50587" lon="6.76624">
        <ele>398</ele>
        <time>2016-09-25T07:20:21.000Z</time>
      </trkpt>
      <trkpt lat="47.50583" lon="6.76625">
        <ele>398</ele>
        <time>2016-09-25T07:20:22.000Z</time>
      </trkpt>
      <trkpt lat="47.5058" lon="6.76626">
        <ele>399</ele>
        <time>2016-09-25T07:20:23.000Z</time>
      </trkpt>
      <trkpt lat="47.50576" lon="6.76627">
        <ele>399</ele>
        <time>2016-09-25T07:20:24.000Z</time>
      </trkpt>
      <trkpt lat="47.50572" lon="6.76628">
        <ele>399</ele>
        <time>2016-09-25T07:20:25.000Z</time>
      </trkpt>
      <trkpt lat="47.50569" lon="6.76629">
        <ele>399</ele>
        <time>2016-09-25T07:20:26.000Z</time>
      </trkpt>
      <trkpt lat="47.50566" lon="6.7663">
        <ele>399</ele>
        <time>2016-09-25T07:20:27.000Z</time>
      </trkpt>
      <trkpt lat="47.50562" lon="6.76631">
        <ele>399</ele>
        <time>2016-09-25T07:20:28.000Z</time>
      </trkpt>
      <trkpt lat="47.50559" lon="6.76632">
        <ele>399</ele>
        <time>2016-09-25T07:20:29.000Z</time>
      </trkpt>
      <trkpt lat="47.50555" lon="6.76632">
        <ele>399</ele>
        <time>2016-09-25T07:20:30.000Z</time>
      </trkpt>
      <trkpt lat="47.50551" lon="6.76633">
        <ele>399</ele>
        <time>2016-09-25T07:20:31.000Z</time>
      </trkpt>
      <trkpt lat="47.50548" lon="6.76633">
        <ele>399</ele>
        <time>2016-09-25T07:20:32.000Z</time>
      </trkpt>
      <trkpt lat="47.50544" lon="6.76634">
        <ele>399</ele>
        <time>2016-09-25T07:20:33.000Z</time>
      </trkpt>
      <trkpt lat="47.5054" lon="6.76634">
        <ele>399</ele>
        <time>2016-09-25T07:20:34.000Z</time>
      </trkpt>
      <trkpt lat="47.50536" lon="6.76635">
        <ele>399</ele>
        <time>2016-09-25T07:20:35.000Z</time>
      </trkpt>
      <trkpt lat="47.50532" lon="6.76636">
        <ele>399</ele>
        <time>2016-09-25T07:20:36.000Z</time>
      </trkpt>
      <trkpt lat="47.50528" lon="6.76637">
        <ele>399</ele>
        <time>2016-09-25T07:20:37.000Z</time>
      </trkpt>
      <trkpt lat="47.50523" lon="6.76637">
        <ele>399</ele>
        <time>2016-09-25T07:20:38.000Z</time>
      </trkpt>
      <trkpt lat="47.50518" lon="6.76638">
        <ele>399</ele>
        <time>2016-09-25T07:20:39.000Z</time>
      </trkpt>
      <trkpt lat="47.50514" lon="6.76639">
        <ele>399</ele>
        <time>2016-09-25T07:20:40.000Z</time>
      </trkpt>
      <trkpt lat="47.50508" lon="6.76641">
        <ele>399</ele>
        <time>2016-09-25T07:20:41.000Z</time>
      </trkpt>
      <trkpt lat="47.50504" lon="6.76643">
        <ele>399</ele>
        <time>2016-09-25T07:20:42.000Z</time>
      </trkpt>
      <trkpt lat="47.50499" lon="6.76644">
        <ele>399</ele>
        <time>2016-09-25T07:20:43.000Z</time>
      </trkpt>
      <trkpt lat="47.50494" lon="6.76643">
        <ele>399</ele>
        <time>2016-09-25T07:20:44.000Z</time>
      </trkpt>
      <trkpt lat="47.50489" lon="6.76644">
        <ele>399</ele>
        <time>2016-09-25T07:20:45.000Z</time>
      </trkpt>
      <trkpt lat="47.50483" lon="6.76648">
        <ele>399</ele>
        <time>2016-09-25T07:20:46.000Z</time>
      </trkpt>
      <trkpt lat="47.50478" lon="6.76649">
        <ele>398</ele>
        <time>2016-09-25T07:20:47.000Z</time>
      </trkpt>
      <trkpt lat="47.50473" lon="6.76652">
        <ele>398</ele>
        <time>2016-09-25T07:20:48.000Z</time>
      </trkpt>
      <trkpt lat="47.50468" lon="6.76663">
        <ele>398</ele>
        <time>2016-09-25T07:20:49.000Z</time>
      </trkpt>
      <trkpt lat="47.50463" lon="6.76664">
        <ele>398</ele>
        <time>2016-09-25T07:20:50.000Z</time>
      </trkpt>
      <trkpt lat="47.50457" lon="6.76665">
        <ele>398</ele>
        <time>2016-09-25T07:20:51.000Z</time>
      </trkpt>
      <trkpt lat="47.50452" lon="6.76667">
        <ele>397</ele>
        <time>2016-09-25T07:20:52.000Z</time>
      </trkpt>
      <trkpt lat="47.50447" lon="6.76669">
        <ele>397</ele>
        <time>2016-09-25T07:20:53.000Z</time>
      </trkpt>
      <trkpt lat="47.50442" lon="6.76672">
        <ele>397</ele>
        <time>2016-09-25T07:20:54.000Z</time>
      </trkpt>
      <trkpt lat="47.50437" lon="6.76674">
        <ele>397</ele>
        <time>2016-09-25T07:20:55.000Z</time>
      </trkpt>
      <trkpt lat="47.50432" lon="6.76676">
        <ele>397</ele>
        <time>2016-09-25T07:20:56.000Z</time>
      </trkpt>
      <trkpt lat="47.50428" lon="6.76676">
        <ele>397</ele>
        <time>2016-09-25T07:20:57.000Z</time>
      </trkpt>
      <trkpt lat="47.50423" lon="6.76678">
        <ele>397</ele>
        <time>2016-09-25T07:20:58.000Z</time>
      </trkpt>
      <trkpt lat="47.50419" lon="6.76677">
        <ele>397</ele>
        <time>2016-09-25T07:20:59.000Z</time>
      </trkpt>
      <trkpt lat="47.50414" lon="6.7668">
        <ele>397</ele>
        <time>2016-09-25T07:21:00.000Z</time>
      </trkpt>
      <trkpt lat="47.50409" lon="6.76683">
        <ele>397</ele>
        <time>2016-09-25T07:21:01.000Z</time>
      </trkpt>
      <trkpt lat="47.50404" lon="6.76685">
        <ele>397</ele>
        <time>2016-09-25T07:21:02.000Z</time>
      </trkpt>
      <trkpt lat="47.50399" lon="6.76686">
        <ele>397</ele>
        <time>2016-09-25T07:21:03.000Z</time>
      </trkpt>
      <trkpt lat="47.50395" lon="6.76688">
        <ele>397</ele>
        <time>2016-09-25T07:21:04.000Z</time>
      </trkpt>
      <trkpt lat="47.5039" lon="6.76691">
        <ele>397</ele>
        <time>2016-09-25T07:21:05.000Z</time>
      </trkpt>
      <trkpt lat="47.50385" lon="6.76693">
        <ele>397</ele>
        <time>2016-09-25T07:21:06.000Z</time>
      </trkpt>
      <trkpt lat="47.50381" lon="6.76695">
        <ele>397</ele>
        <time>2016-09-25T07:21:07.000Z</time>
      </trkpt>
      <trkpt lat="47.50376" lon="6.76697">
        <ele>397</ele>
        <time>2016-09-25T07:21:08.000Z</time>
      </trkpt>
      <trkpt lat="47.50371" lon="6.76699">
        <ele>397</ele>
        <time>2016-09-25T07:21:09.000Z</time>
      </trkpt>
      <trkpt lat="47.50367" lon="6.76701">
        <ele>397</ele>
        <time>2016-09-25T07:21:10.000Z</time>
      </trkpt>
      <trkpt lat="47.50363" lon="6.76703">
        <ele>397</ele>
        <time>2016-09-25T07:21:11.000Z</time>
      </trkpt>
      <trkpt lat="47.50358" lon="6.76705">
        <ele>397</ele>
        <time>2016-09-25T07:21:12.000Z</time>
      </trkpt>
      <trkpt lat="47.50354" lon="6.76709">
        <ele>398</ele>
        <time>2016-09-25T07:21:13.000Z</time>
      </trkpt>
      <trkpt lat="47.5035" lon="6.76709">
        <ele>398</ele>
        <time>2016-09-25T07:21:14.000Z</time>
      </trkpt>
      <trkpt lat="47.50345" lon="6.76711">
        <ele>398</ele>
        <time>2016-09-25T07:21:15.000Z</time>
      </trkpt>
      <trkpt lat="47.5034" lon="6.76713">
        <ele>398</ele>
        <time>2016-09-25T07:21:16.000Z</time>
      </trkpt>
      <trkpt lat="47.50336" lon="6.76715">
        <ele>398</ele>
        <time>2016-09-25T07:21:17.000Z</time>
      </trkpt>
      <trkpt lat="47.50331" lon="6.76717">
        <ele>398</ele>
        <time>2016-09-25T07:21:18.000Z</time>
      </trkpt>
      <trkpt lat="47.50326" lon="6.76719">
        <ele>398</ele>
        <time>2016-09-25T07:21:19.000Z</time>
      </trkpt>
      <trkpt lat="47.50322" lon="6.7672">
        <ele>398</ele>
        <time>2016-09-25T07:21:20.000Z</time>
      </trkpt>
      <trkpt lat="47.50318" lon="6.76722">
        <ele>398</ele>
        <time>2016-09-25T07:21:21.000Z</time>
      </trkpt>
      <trkpt lat="47.50314" lon="6.76724">
        <ele>398</ele>
        <time>2016-09-25T07:21:22.000Z</time>
      </trkpt>
      <trkpt lat="47.5031" lon="6.76726">
        <ele>398</ele>
        <time>2016-09-25T07:21:23.000Z</time>
      </trkpt>
      <trkpt lat="47.50307" lon="6.76727">
        <ele>398</ele>
        <time>2016-09-25T07:21:24.000Z</time>
      </trkpt>
      <trkpt lat="47.50305" lon="6.76728">
        <ele>398</ele>
        <time>2016-09-25T07:21:25.000Z</time>
      </trkpt>
      <trkpt lat="47.50302" lon="6.76729">
        <ele>398</ele>
        <time>2016-09-25T07:21:26.000Z</time>
      </trkpt>
      <trkpt lat="47.50299" lon="6.76729">
        <ele>399</ele>
        <time>2016-09-25T07:21:27.000Z</time>
      </trkpt>
      <trkpt lat="47.50293" lon="6.76729">
        <ele>399</ele>
        <time>2016-09-25T07:21:28.000Z</time>
      </trkpt>
      <trkpt lat="47.50288" lon="6.76733">
        <ele>399</ele>
        <time>2016-09-25T07:21:29.000Z</time>
      </trkpt>
      <trkpt lat="47.50284" lon="6.76734">
        <ele>399</ele>
        <time>2016-09-25T07:21:30.000Z</time>
      </trkpt>
      <trkpt lat="47.50279" lon="6.76735">
        <ele>399</ele>
        <time>2016-09-25T07:21:31.000Z</time>
      </trkpt>
      <trkpt lat="47.50275" lon="6.76736">
        <ele>399</ele>
        <time>2016-09-25T07:21:32.000Z</time>
      </trkpt>
      <trkpt lat="47.50271" lon="6.76738">
        <ele>399</ele>
        <time>2016-09-25T07:21:33.000Z</time>
      </trkpt>
      <trkpt lat="47.50267" lon="6.76739">
        <ele>399</ele>
        <time>2016-09-25T07:21:34.000Z</time>
      </trkpt>
      <trkpt lat="47.50263" lon="6.7674">
        <ele>399</ele>
        <time>2016-09-25T07:21:35.000Z</time>
      </trkpt>
      <trkpt lat="47.50259" lon="6.76742">
        <ele>399</ele>
        <time>2016-09-25T07:21:36.000Z</time>
      </trkpt>
      <trkpt lat="47.50255" lon="6.76742">
        <ele>400</ele>
        <time>2016-09-25T07:21:37.000Z</time>
      </trkpt>
      <trkpt lat="47.50251" lon="6.76742">
        <ele>400</ele>
        <time>2016-09-25T07:21:38.000Z</time>
      </trkpt>
      <trkpt lat="47.50248" lon="6.7674">
        <ele>401</ele>
        <time>2016-09-25T07:21:39.000Z</time>
      </trkpt>
      <trkpt lat="47.50244" lon="6.76736">
        <ele>401</ele>
        <time>2016-09-25T07:21:40.000Z</time>
      </trkpt>
      <trkpt lat="47.50241" lon="6.76732">
        <ele>401</ele>
        <time>2016-09-25T07:21:41.000Z</time>
      </trkpt>
      <trkpt lat="47.50239" lon="6.76727">
        <ele>401</ele>
        <time>2016-09-25T07:21:42.000Z</time>
      </trkpt>
      <trkpt lat="47.50236" lon="6.76722">
        <ele>401</ele>
        <time>2016-09-25T07:21:43.000Z</time>
      </trkpt>
      <trkpt lat="47.50234" lon="6.76717">
        <ele>402</ele>
        <time>2016-09-25T07:21:44.000Z</time>
      </trkpt>
      <trkpt lat="47.50232" lon="6.76711">
        <ele>402</ele>
        <time>2016-09-25T07:21:45.000Z</time>
      </trkpt>
      <trkpt lat="47.5023" lon="6.76706">
        <ele>402</ele>
        <time>2016-09-25T07:21:46.000Z</time>
      </trkpt>
      <trkpt lat="47.50228" lon="6.76701">
        <ele>402</ele>
        <time>2016-09-25T07:21:47.000Z</time>
      </trkpt>
      <trkpt lat="47.50227" lon="6.76695">
        <ele>402</ele>
        <time>2016-09-25T07:21:48.000Z</time>
      </trkpt>
      <trkpt lat="47.50225" lon="6.7669">
        <ele>401</ele>
        <time>2016-09-25T07:21:49.000Z</time>
      </trkpt>
      <trkpt lat="47.50223" lon="6.76685">
        <ele>401</ele>
        <time>2016-09-25T07:21:50.000Z</time>
      </trkpt>
      <trkpt lat="47.50221" lon="6.76679">
        <ele>401</ele>
        <time>2016-09-25T07:21:51.000Z</time>
      </trkpt>
      <trkpt lat="47.5022" lon="6.76674">
        <ele>401</ele>
        <time>2016-09-25T07:21:52.000Z</time>
      </trkpt>
      <trkpt lat="47.50218" lon="6.76668">
        <ele>402</ele>
        <time>2016-09-25T07:21:53.000Z</time>
      </trkpt>
      <trkpt lat="47.50216" lon="6.76662">
        <ele>401</ele>
        <time>2016-09-25T07:21:54.000Z</time>
      </trkpt>
      <trkpt lat="47.50215" lon="6.76656">
        <ele>402</ele>
        <time>2016-09-25T07:21:55.000Z</time>
      </trkpt>
      <trkpt lat="47.50212" lon="6.76649">
        <ele>402</ele>
        <time>2016-09-25T07:21:56.000Z</time>
      </trkpt>
      <trkpt lat="47.5021" lon="6.76643">
        <ele>402</ele>
        <time>2016-09-25T07:21:57.000Z</time>
      </trkpt>
      <trkpt lat="47.50208" lon="6.76637">
        <ele>402</ele>
        <time>2016-09-25T07:21:58.000Z</time>
      </trkpt>
      <trkpt lat="47.50205" lon="6.76631">
        <ele>402</ele>
        <time>2016-09-25T07:21:59.000Z</time>
      </trkpt>
      <trkpt lat="47.50204" lon="6.76624">
        <ele>402</ele>
        <time>2016-09-25T07:22:00.000Z</time>
      </trkpt>
      <trkpt lat="47.50202" lon="6.76618">
        <ele>402</ele>
        <time>2016-09-25T07:22:01.000Z</time>
      </trkpt>
      <trkpt lat="47.502" lon="6.76611">
        <ele>403</ele>
        <time>2016-09-25T07:22:02.000Z</time>
      </trkpt>
      <trkpt lat="47.50198" lon="6.76607">
        <ele>403</ele>
        <time>2016-09-25T07:22:03.000Z</time>
      </trkpt>
      <trkpt lat="47.50197" lon="6.76603">
        <ele>403</ele>
        <time>2016-09-25T07:22:04.000Z</time>
      </trkpt>
      <trkpt lat="47.50197" lon="6.76598">
        <ele>403</ele>
        <time>2016-09-25T07:22:09.000Z</time>
      </trkpt>
      <trkpt lat="47.50197" lon="6.76596">
        <ele>403</ele>
        <time>2016-09-25T07:22:10.000Z</time>
      </trkpt>
      <trkpt lat="47.50196" lon="6.7659">
        <ele>403</ele>
        <time>2016-09-25T07:22:12.000Z</time>
      </trkpt>
      <trkpt lat="47.50196" lon="6.76588">
        <ele>403</ele>
        <time>2016-09-25T07:22:13.000Z</time>
      </trkpt>
      <trkpt lat="47.50197" lon="6.76582">
        <ele>402</ele>
        <time>2016-09-25T07:22:15.000Z</time>
      </trkpt>
      <trkpt lat="47.50198" lon="6.7658">
        <ele>402</ele>
        <time>2016-09-25T07:22:16.000Z</time>
      </trkpt>
      <trkpt lat="47.502" lon="6.76578">
        <ele>402</ele>
        <time>2016-09-25T07:22:17.000Z</time>
      </trkpt>
      <trkpt lat="47.50202" lon="6.76576">
        <ele>402</ele>
        <time>2016-09-25T07:22:18.000Z</time>
      </trkpt>
      <trkpt lat="47.50205" lon="6.76574">
        <ele>402</ele>
        <time>2016-09-25T07:22:19.000Z</time>
      </trkpt>
      <trkpt lat="47.50207" lon="6.76574">
        <ele>401</ele>
        <time>2016-09-25T07:22:20.000Z</time>
      </trkpt>
      <trkpt lat="47.5021" lon="6.76573">
        <ele>401</ele>
        <time>2016-09-25T07:22:21.000Z</time>
      </trkpt>
      <trkpt lat="47.50212" lon="6.76573">
        <ele>401</ele>
        <time>2016-09-25T07:22:22.000Z</time>
      </trkpt>
      <trkpt lat="47.50215" lon="6.76571">
        <ele>401</ele>
        <time>2016-09-25T07:22:23.000Z</time>
      </trkpt>
      <trkpt lat="47.50218" lon="6.76568">
        <ele>401</ele>
        <time>2016-09-25T07:22:24.000Z</time>
      </trkpt>
      <trkpt lat="47.50221" lon="6.76563">
        <ele>400</ele>
        <time>2016-09-25T07:22:25.000Z</time>
      </trkpt>
      <trkpt lat="47.50222" lon="6.76558">
        <ele>400</ele>
        <time>2016-09-25T07:22:26.000Z</time>
      </trkpt>
      <trkpt lat="47.50223" lon="6.76552">
        <ele>400</ele>
        <time>2016-09-25T07:22:27.000Z</time>
      </trkpt>
      <trkpt lat="47.50223" lon="6.76547">
        <ele>400</ele>
        <time>2016-09-25T07:22:28.000Z</time>
      </trkpt>
      <trkpt lat="47.50222" lon="6.76541">
        <ele>400</ele>
        <time>2016-09-25T07:22:29.000Z</time>
      </trkpt>
      <trkpt lat="47.50222" lon="6.76534">
        <ele>400</ele>
        <time>2016-09-25T07:22:30.000Z</time>
      </trkpt>
      <trkpt lat="47.50221" lon="6.76527">
        <ele>399</ele>
        <time>2016-09-25T07:22:31.000Z</time>
      </trkpt>
      <trkpt lat="47.50221" lon="6.7652">
        <ele>399</ele>
        <time>2016-09-25T07:22:32.000Z</time>
      </trkpt>
      <trkpt lat="47.50221" lon="6.76513">
        <ele>399</ele>
        <time>2016-09-25T07:22:33.000Z</time>
      </trkpt>
      <trkpt lat="47.5022" lon="6.76506">
        <ele>399</ele>
        <time>2016-09-25T07:22:34.000Z</time>
      </trkpt>
      <trkpt lat="47.5022" lon="6.76498">
        <ele>395</ele>
        <time>2016-09-25T07:22:35.000Z</time>
      </trkpt>
      <trkpt lat="47.50219" lon="6.76491">
        <ele>395</ele>
        <time>2016-09-25T07:22:36.000Z</time>
      </trkpt>
      <trkpt lat="47.50218" lon="6.76483">
        <ele>395</ele>
        <time>2016-09-25T07:22:37.000Z</time>
      </trkpt>
      <trkpt lat="47.50215" lon="6.76461">
        <ele>395</ele>
        <time>2016-09-25T07:22:38.000Z</time>
      </trkpt>
      <trkpt lat="47.50215" lon="6.76448">
        <ele>394</ele>
        <time>2016-09-25T07:22:39.000Z</time>
      </trkpt>
      <trkpt lat="47.50215" lon="6.76434">
        <ele>393</ele>
        <time>2016-09-25T07:22:40.000Z</time>
      </trkpt>
      <trkpt lat="47.50212" lon="6.76428">
        <ele>394</ele>
        <time>2016-09-25T07:22:41.000Z</time>
      </trkpt>
      <trkpt lat="47.50208" lon="6.76422">
        <ele>394</ele>
        <time>2016-09-25T07:22:42.000Z</time>
      </trkpt>
      <trkpt lat="47.50206" lon="6.76412">
        <ele>390</ele>
        <time>2016-09-25T07:22:43.000Z</time>
      </trkpt>
      <trkpt lat="47.50205" lon="6.76404">
        <ele>390</ele>
        <time>2016-09-25T07:22:44.000Z</time>
      </trkpt>
      <trkpt lat="47.50203" lon="6.76398">
        <ele>390</ele>
        <time>2016-09-25T07:22:45.000Z</time>
      </trkpt>
      <trkpt lat="47.50204" lon="6.76389">
        <ele>390</ele>
        <time>2016-09-25T07:22:46.000Z</time>
      </trkpt>
      <trkpt lat="47.50206" lon="6.76378">
        <ele>389</ele>
        <time>2016-09-25T07:22:47.000Z</time>
      </trkpt>
      <trkpt lat="47.50201" lon="6.76371">
        <ele>389</ele>
        <time>2016-09-25T07:22:48.000Z</time>
      </trkpt>
      <trkpt lat="47.50197" lon="6.76366">
        <ele>390</ele>
        <time>2016-09-25T07:22:49.000Z</time>
      </trkpt>
      <trkpt lat="47.50196" lon="6.7636">
        <ele>389</ele>
        <time>2016-09-25T07:22:50.000Z</time>
      </trkpt>
      <trkpt lat="47.50195" lon="6.76353">
        <ele>389</ele>
        <time>2016-09-25T07:22:51.000Z</time>
      </trkpt>
      <trkpt lat="47.50193" lon="6.76347">
        <ele>389</ele>
        <time>2016-09-25T07:22:52.000Z</time>
      </trkpt>
      <trkpt lat="47.50192" lon="6.7634">
        <ele>389</ele>
        <time>2016-09-25T07:22:53.000Z</time>
      </trkpt>
      <trkpt lat="47.5019" lon="6.76333">
        <ele>387</ele>
        <time>2016-09-25T07:22:54.000Z</time>
      </trkpt>
      <trkpt lat="47.50189" lon="6.76325">
        <ele>387</ele>
        <time>2016-09-25T07:22:55.000Z</time>
      </trkpt>
      <trkpt lat="47.50187" lon="6.76318">
        <ele>387</ele>
        <time>2016-09-25T07:22:56.000Z</time>
      </trkpt>
      <trkpt lat="47.50185" lon="6.76311">
        <ele>387</ele>
        <time>2016-09-25T07:22:57.000Z</time>
      </trkpt>
      <trkpt lat="47.50184" lon="6.76303">
        <ele>386</ele>
        <time>2016-09-25T07:22:58.000Z</time>
      </trkpt>
      <trkpt lat="47.50178" lon="6.7628">
        <ele>386</ele>
        <time>2016-09-25T07:22:59.000Z</time>
      </trkpt>
      <trkpt lat="47.50174" lon="6.7627">
        <ele>386</ele>
        <time>2016-09-25T07:23:00.000Z</time>
      </trkpt>
      <trkpt lat="47.5017" lon="6.76262">
        <ele>386</ele>
        <time>2016-09-25T07:23:01.000Z</time>
      </trkpt>
      <trkpt lat="47.50167" lon="6.76252">
        <ele>386</ele>
        <time>2016-09-25T07:23:02.000Z</time>
      </trkpt>
      <trkpt lat="47.50164" lon="6.76245">
        <ele>387</ele>
        <time>2016-09-25T07:23:03.000Z</time>
      </trkpt>
      <trkpt lat="47.50163" lon="6.7624">
        <ele>387</ele>
        <time>2016-09-25T07:23:04.000Z</time>
      </trkpt>
      <trkpt lat="47.50163" lon="6.76231">
        <ele>388</ele>
        <time>2016-09-25T07:23:05.000Z</time>
      </trkpt>
      <trkpt lat="47.5016" lon="6.76221">
        <ele>388</ele>
        <time>2016-09-25T07:23:06.000Z</time>
      </trkpt>
      <trkpt lat="47.50158" lon="6.7621">
        <ele>388</ele>
        <time>2016-09-25T07:23:07.000Z</time>
      </trkpt>
      <trkpt lat="47.50156" lon="6.76199">
        <ele>387</ele>
        <time>2016-09-25T07:23:08.000Z</time>
      </trkpt>
      <trkpt lat="47.50154" lon="6.7619">
        <ele>386</ele>
        <time>2016-09-25T07:23:09.000Z</time>
      </trkpt>
      <trkpt lat="47.50152" lon="6.76181">
        <ele>385</ele>
        <time>2016-09-25T07:23:10.000Z</time>
      </trkpt>
      <trkpt lat="47.50151" lon="6.76172">
        <ele>384</ele>
        <time>2016-09-25T07:23:11.000Z</time>
      </trkpt>
      <trkpt lat="47.50146" lon="6.76152">
        <ele>382</ele>
        <time>2016-09-25T07:23:12.000Z</time>
      </trkpt>
      <trkpt lat="47.50146" lon="6.76141">
        <ele>382</ele>
        <time>2016-09-25T07:23:13.000Z</time>
      </trkpt>
      <trkpt lat="47.50143" lon="6.76129">
        <ele>382</ele>
        <time>2016-09-25T07:23:14.000Z</time>
      </trkpt>
      <trkpt lat="47.5014" lon="6.76116">
        <ele>382</ele>
        <time>2016-09-25T07:23:15.000Z</time>
      </trkpt>
      <trkpt lat="47.50139" lon="6.76101">
        <ele>382</ele>
        <time>2016-09-25T07:23:16.000Z</time>
      </trkpt>
      <trkpt lat="47.50136" lon="6.76086">
        <ele>381</ele>
        <time>2016-09-25T07:23:17.000Z</time>
      </trkpt>
      <trkpt lat="47.50135" lon="6.7607">
        <ele>378</ele>
        <time>2016-09-25T07:23:18.000Z</time>
      </trkpt>
      <trkpt lat="47.50134" lon="6.76049">
        <ele>378</ele>
        <time>2016-09-25T07:23:19.000Z</time>
      </trkpt>
      <trkpt lat="47.50132" lon="6.76033">
        <ele>378</ele>
        <time>2016-09-25T07:23:20.000Z</time>
      </trkpt>
      <trkpt lat="47.50133" lon="6.76013">
        <ele>377</ele>
        <time>2016-09-25T07:23:21.000Z</time>
      </trkpt>
      <trkpt lat="47.5013" lon="6.76002">
        <ele>377</ele>
        <time>2016-09-25T07:23:22.000Z</time>
      </trkpt>
      <trkpt lat="47.50127" lon="6.7599">
        <ele>373</ele>
        <time>2016-09-25T07:23:23.000Z</time>
      </trkpt>
      <trkpt lat="47.50122" lon="6.75984">
        <ele>373</ele>
        <time>2016-09-25T07:23:24.000Z</time>
      </trkpt>
      <trkpt lat="47.50117" lon="6.75975">
        <ele>373</ele>
        <time>2016-09-25T07:23:25.000Z</time>
      </trkpt>
      <trkpt lat="47.50111" lon="6.75964">
        <ele>373</ele>
        <time>2016-09-25T07:23:26.000Z</time>
      </trkpt>
      <trkpt lat="47.50109" lon="6.75953">
        <ele>373</ele>
        <time>2016-09-25T07:23:27.000Z</time>
      </trkpt>
      <trkpt lat="47.50102" lon="6.75942">
        <ele>373</ele>
        <time>2016-09-25T07:23:28.000Z</time>
      </trkpt>
      <trkpt lat="47.50099" lon="6.75936">
        <ele>373</ele>
        <time>2016-09-25T07:23:29.000Z</time>
      </trkpt>
      <trkpt lat="47.50096" lon="6.75929">
        <ele>373</ele>
        <time>2016-09-25T07:23:30.000Z</time>
      </trkpt>
      <trkpt lat="47.50095" lon="6.75921">
        <ele>373</ele>
        <time>2016-09-25T07:23:31.000Z</time>
      </trkpt>
      <trkpt lat="47.5009" lon="6.75911">
        <ele>372</ele>
        <time>2016-09-25T07:23:32.000Z</time>
      </trkpt>
      <trkpt lat="47.50086" lon="6.75902">
        <ele>371</ele>
        <time>2016-09-25T07:23:33.000Z</time>
      </trkpt>
      <trkpt lat="47.50083" lon="6.75895">
        <ele>375</ele>
        <time>2016-09-25T07:23:34.000Z</time>
      </trkpt>
      <trkpt lat="47.50077" lon="6.75885">
        <ele>375</ele>
        <time>2016-09-25T07:23:35.000Z</time>
      </trkpt>
      <trkpt lat="47.50073" lon="6.75878">
        <ele>375</ele>
        <time>2016-09-25T07:23:36.000Z</time>
      </trkpt>
      <trkpt lat="47.50069" lon="6.75869">
        <ele>375</ele>
        <time>2016-09-25T07:23:37.000Z</time>
      </trkpt>
      <trkpt lat="47.50066" lon="6.75861">
        <ele>375</ele>
        <time>2016-09-25T07:23:38.000Z</time>
      </trkpt>
      <trkpt lat="47.50063" lon="6.75849">
        <ele>375</ele>
        <time>2016-09-25T07:23:39.000Z</time>
      </trkpt>
      <trkpt lat="47.50054" lon="6.75836">
        <ele>375</ele>
        <time>2016-09-25T07:23:40.000Z</time>
      </trkpt>
      <trkpt lat="47.5005" lon="6.7583">
        <ele>374</ele>
        <time>2016-09-25T07:23:41.000Z</time>
      </trkpt>
      <trkpt lat="47.50046" lon="6.7582">
        <ele>374</ele>
        <time>2016-09-25T07:23:42.000Z</time>
      </trkpt>
      <trkpt lat="47.50044" lon="6.75814">
        <ele>374</ele>
        <time>2016-09-25T07:23:43.000Z</time>
      </trkpt>
      <trkpt lat="47.5004" lon="6.75805">
        <ele>374</ele>
        <time>2016-09-25T07:23:44.000Z</time>
      </trkpt>
      <trkpt lat="47.5004" lon="6.75793">
        <ele>374</ele>
        <time>2016-09-25T07:23:45.000Z</time>
      </trkpt>
      <trkpt lat="47.50039" lon="6.75781">
        <ele>374</ele>
        <time>2016-09-25T07:23:46.000Z</time>
      </trkpt>
      <trkpt lat="47.50032" lon="6.75773">
        <ele>374</ele>
        <time>2016-09-25T07:23:47.000Z</time>
      </trkpt>
      <trkpt lat="47.50025" lon="6.75763">
        <ele>375</ele>
        <time>2016-09-25T07:23:48.000Z</time>
      </trkpt>
      <trkpt lat="47.50013" lon="6.75753">
        <ele>376</ele>
        <time>2016-09-25T07:23:49.000Z</time>
      </trkpt>
      <trkpt lat="47.49999" lon="6.75742">
        <ele>375</ele>
        <time>2016-09-25T07:23:50.000Z</time>
      </trkpt>
      <trkpt lat="47.49995" lon="6.75732">
        <ele>373</ele>
        <time>2016-09-25T07:23:51.000Z</time>
      </trkpt>
      <trkpt lat="47.4999" lon="6.75725">
        <ele>372</ele>
        <time>2016-09-25T07:23:52.000Z</time>
      </trkpt>
      <trkpt lat="47.49972" lon="6.7572">
        <ele>371</ele>
        <time>2016-09-25T07:23:53.000Z</time>
      </trkpt>
      <trkpt lat="47.49949" lon="6.7572">
        <ele>370</ele>
        <time>2016-09-25T07:23:54.000Z</time>
      </trkpt>
      <trkpt lat="47.49935" lon="6.75719">
        <ele>370</ele>
        <time>2016-09-25T07:23:55.000Z</time>
      </trkpt>
      <trkpt lat="47.49924" lon="6.75716">
        <ele>370</ele>
        <time>2016-09-25T07:23:56.000Z</time>
      </trkpt>
      <trkpt lat="47.49906" lon="6.7571">
        <ele>364</ele>
        <time>2016-09-25T07:23:57.000Z</time>
      </trkpt>
      <trkpt lat="47.49892" lon="6.75707">
        <ele>364</ele>
        <time>2016-09-25T07:23:58.000Z</time>
      </trkpt>
      <trkpt lat="47.49879" lon="6.75705">
        <ele>363</ele>
        <time>2016-09-25T07:23:59.000Z</time>
      </trkpt>
      <trkpt lat="47.49861" lon="6.75703">
        <ele>361</ele>
        <time>2016-09-25T07:24:00.000Z</time>
      </trkpt>
      <trkpt lat="47.49846" lon="6.75701">
        <ele>360</ele>
        <time>2016-09-25T07:24:01.000Z</time>
      </trkpt>
      <trkpt lat="47.49836" lon="6.75703">
        <ele>360</ele>
        <time>2016-09-25T07:24:02.000Z</time>
      </trkpt>
      <trkpt lat="47.49826" lon="6.75705">
        <ele>352</ele>
        <time>2016-09-25T07:24:03.000Z</time>
      </trkpt>
      <trkpt lat="47.49818" lon="6.75706">
        <ele>352</ele>
        <time>2016-09-25T07:24:04.000Z</time>
      </trkpt>
      <trkpt lat="47.49808" lon="6.75711">
        <ele>352</ele>
        <time>2016-09-25T07:24:05.000Z</time>
      </trkpt>
      <trkpt lat="47.49795" lon="6.75713">
        <ele>351</ele>
        <time>2016-09-25T07:24:06.000Z</time>
      </trkpt>
      <trkpt lat="47.49781" lon="6.75714">
        <ele>350</ele>
        <time>2016-09-25T07:24:07.000Z</time>
      </trkpt>
      <trkpt lat="47.4977" lon="6.75723">
        <ele>350</ele>
        <time>2016-09-25T07:24:08.000Z</time>
      </trkpt>
      <trkpt lat="47.49761" lon="6.75725">
        <ele>350</ele>
        <time>2016-09-25T07:24:09.000Z</time>
      </trkpt>
      <trkpt lat="47.49752" lon="6.75733">
        <ele>350</ele>
        <time>2016-09-25T07:24:10.000Z</time>
      </trkpt>
      <trkpt lat="47.49744" lon="6.75736">
        <ele>346</ele>
        <time>2016-09-25T07:24:11.000Z</time>
      </trkpt>
      <trkpt lat="47.49736" lon="6.75739">
        <ele>345</ele>
        <time>2016-09-25T07:24:12.000Z</time>
      </trkpt>
      <trkpt lat="47.49729" lon="6.75743">
        <ele>345</ele>
        <time>2016-09-25T07:24:13.000Z</time>
      </trkpt>
      <trkpt lat="47.49721" lon="6.75745">
        <ele>344</ele>
        <time>2016-09-25T07:24:14.000Z</time>
      </trkpt>
      <trkpt lat="47.49713" lon="6.75747">
        <ele>343</ele>
        <time>2016-09-25T07:24:15.000Z</time>
      </trkpt>
      <trkpt lat="47.49705" lon="6.75755">
        <ele>352</ele>
        <time>2016-09-25T07:24:16.000Z</time>
      </trkpt>
      <trkpt lat="47.49697" lon="6.75759">
        <ele>351</ele>
        <time>2016-09-25T07:24:17.000Z</time>
      </trkpt>
      <trkpt lat="47.49689" lon="6.7576">
        <ele>351</ele>
        <time>2016-09-25T07:24:18.000Z</time>
      </trkpt>
      <trkpt lat="47.49686" lon="6.75759">
        <ele>350</ele>
        <time>2016-09-25T07:24:19.000Z</time>
      </trkpt>
      <trkpt lat="47.49677" lon="6.75757">
        <ele>348</ele>
        <time>2016-09-25T07:24:20.000Z</time>
      </trkpt>
      <trkpt lat="47.4967" lon="6.75762">
        <ele>348</ele>
        <time>2016-09-25T07:24:21.000Z</time>
      </trkpt>
      <trkpt lat="47.49666" lon="6.75759">
        <ele>345</ele>
        <time>2016-09-25T07:24:22.000Z</time>
      </trkpt>
      <trkpt lat="47.49667" lon="6.75756">
        <ele>346</ele>
        <time>2016-09-25T07:24:23.000Z</time>
      </trkpt>
      <trkpt lat="47.4966" lon="6.75753">
        <ele>345</ele>
        <time>2016-09-25T07:24:24.000Z</time>
      </trkpt>
      <trkpt lat="47.49653" lon="6.7575">
        <ele>345</ele>
        <time>2016-09-25T07:24:25.000Z</time>
      </trkpt>
      <trkpt lat="47.4964" lon="6.75751">
        <ele>344</ele>
        <time>2016-09-25T07:24:26.000Z</time>
      </trkpt>
      <trkpt lat="47.49626" lon="6.75748">
        <ele>334</ele>
        <time>2016-09-25T07:24:27.000Z</time>
      </trkpt>
      <trkpt lat="47.49622" lon="6.75749">
        <ele>334</ele>
        <time>2016-09-25T07:24:28.000Z</time>
      </trkpt>
      <trkpt lat="47.49616" lon="6.7575">
        <ele>334</ele>
        <time>2016-09-25T07:24:29.000Z</time>
      </trkpt>
      <trkpt lat="47.49611" lon="6.75749">
        <ele>333</ele>
        <time>2016-09-25T07:24:30.000Z</time>
      </trkpt>
      <trkpt lat="47.49609" lon="6.75752">
        <ele>341</ele>
        <time>2016-09-25T07:24:31.000Z</time>
      </trkpt>
      <trkpt lat="47.49603" lon="6.75753">
        <ele>340</ele>
        <time>2016-09-25T07:24:32.000Z</time>
      </trkpt>
      <trkpt lat="47.49599" lon="6.75753">
        <ele>340</ele>
        <time>2016-09-25T07:24:33.000Z</time>
      </trkpt>
      <trkpt lat="47.49595" lon="6.75751">
        <ele>339</ele>
        <time>2016-09-25T07:24:34.000Z</time>
      </trkpt>
      <trkpt lat="47.49593" lon="6.75748">
        <ele>333</ele>
        <time>2016-09-25T07:24:35.000Z</time>
      </trkpt>
      <trkpt lat="47.49589" lon="6.75746">
        <ele>333</ele>
        <time>2016-09-25T07:24:36.000Z</time>
      </trkpt>
      <trkpt lat="47.49587" lon="6.75744">
        <ele>333</ele>
        <time>2016-09-25T07:24:37.000Z</time>
      </trkpt>
      <trkpt lat="47.49585" lon="6.75742">
        <ele>333</ele>
        <time>2016-09-25T07:24:38.000Z</time>
      </trkpt>
      <trkpt lat="47.49582" lon="6.75737">
        <ele>330</ele>
        <time>2016-09-25T07:24:40.000Z</time>
      </trkpt>
      <trkpt lat="47.49582" lon="6.75735">
        <ele>330</ele>
        <time>2016-09-25T07:24:41.000Z</time>
      </trkpt>
      <trkpt lat="47.49585" lon="6.7573">
        <ele>332</ele>
        <time>2016-09-25T07:24:44.000Z</time>
      </trkpt>
      <trkpt lat="47.49587" lon="6.75728">
        <ele>332</ele>
        <time>2016-09-25T07:24:45.000Z</time>
      </trkpt>
      <trkpt lat="47.49589" lon="6.75726">
        <ele>332</ele>
        <time>2016-09-25T07:24:46.000Z</time>
      </trkpt>
      <trkpt lat="47.49592" lon="6.75724">
        <ele>332</ele>
        <time>2016-09-25T07:24:47.000Z</time>
      </trkpt>
      <trkpt lat="47.49595" lon="6.75722">
        <ele>332</ele>
        <time>2016-09-25T07:24:48.000Z</time>
      </trkpt>
      <trkpt lat="47.49598" lon="6.75719">
        <ele>331</ele>
        <time>2016-09-25T07:24:49.000Z</time>
      </trkpt>
      <trkpt lat="47.49601" lon="6.75716">
        <ele>331</ele>
        <time>2016-09-25T07:24:50.000Z</time>
      </trkpt>
      <trkpt lat="47.49605" lon="6.75713">
        <ele>331</ele>
        <time>2016-09-25T07:24:51.000Z</time>
      </trkpt>
      <trkpt lat="47.49607" lon="6.75708">
        <ele>331</ele>
        <time>2016-09-25T07:24:52.000Z</time>
      </trkpt>
      <trkpt lat="47.49607" lon="6.75696">
        <ele>329</ele>
        <time>2016-09-25T07:24:53.000Z</time>
      </trkpt>
      <trkpt lat="47.49607" lon="6.75686">
        <ele>328</ele>
        <time>2016-09-25T07:24:54.000Z</time>
      </trkpt>
      <trkpt lat="47.49602" lon="6.75679">
        <ele>327</ele>
        <time>2016-09-25T07:24:55.000Z</time>
      </trkpt>
      <trkpt lat="47.49596" lon="6.75674">
        <ele>326</ele>
        <time>2016-09-25T07:24:56.000Z</time>
      </trkpt>
      <trkpt lat="47.49591" lon="6.75668">
        <ele>324</ele>
        <time>2016-09-25T07:24:57.000Z</time>
      </trkpt>
      <trkpt lat="47.49586" lon="6.75664">
        <ele>321</ele>
        <time>2016-09-25T07:24:58.000Z</time>
      </trkpt>
      <trkpt lat="47.49576" lon="6.75664">
        <ele>321</ele>
        <time>2016-09-25T07:24:59.000Z</time>
      </trkpt>
      <trkpt lat="47.49571" lon="6.75668">
        <ele>323</ele>
        <time>2016-09-25T07:25:00.000Z</time>
      </trkpt>
      <trkpt lat="47.49566" lon="6.75673">
        <ele>323</ele>
        <time>2016-09-25T07:25:01.000Z</time>
      </trkpt>
      <trkpt lat="47.49561" lon="6.75678">
        <ele>324</ele>
        <time>2016-09-25T07:25:02.000Z</time>
      </trkpt>
      <trkpt lat="47.49557" lon="6.75684">
        <ele>324</ele>
        <time>2016-09-25T07:25:03.000Z</time>
      </trkpt>
      <trkpt lat="47.49553" lon="6.7569">
        <ele>324</ele>
        <time>2016-09-25T07:25:04.000Z</time>
      </trkpt>
      <trkpt lat="47.49549" lon="6.75695">
        <ele>324</ele>
        <time>2016-09-25T07:25:05.000Z</time>
      </trkpt>
      <trkpt lat="47.49544" lon="6.75696">
        <ele>324</ele>
        <time>2016-09-25T07:25:06.000Z</time>
      </trkpt>
      <trkpt lat="47.49539" lon="6.75701">
        <ele>325</ele>
        <time>2016-09-25T07:25:07.000Z</time>
      </trkpt>
      <trkpt lat="47.49535" lon="6.75705">
        <ele>325</ele>
        <time>2016-09-25T07:25:08.000Z</time>
      </trkpt>
      <trkpt lat="47.4953" lon="6.75709">
        <ele>325</ele>
        <time>2016-09-25T07:25:09.000Z</time>
      </trkpt>
      <trkpt lat="47.49525" lon="6.75711">
        <ele>325</ele>
        <time>2016-09-25T07:25:10.000Z</time>
      </trkpt>
      <trkpt lat="47.4952" lon="6.75714">
        <ele>325</ele>
        <time>2016-09-25T07:25:11.000Z</time>
      </trkpt>
      <trkpt lat="47.49515" lon="6.75718">
        <ele>325</ele>
        <time>2016-09-25T07:25:12.000Z</time>
      </trkpt>
      <trkpt lat="47.49509" lon="6.75721">
        <ele>325</ele>
        <time>2016-09-25T07:25:13.000Z</time>
      </trkpt>
      <trkpt lat="47.49504" lon="6.75723">
        <ele>324</ele>
        <time>2016-09-25T07:25:14.000Z</time>
      </trkpt>
      <trkpt lat="47.49498" lon="6.75724">
        <ele>322</ele>
        <time>2016-09-25T07:25:15.000Z</time>
      </trkpt>
      <trkpt lat="47.49493" lon="6.75727">
        <ele>322</ele>
        <time>2016-09-25T07:25:16.000Z</time>
      </trkpt>
      <trkpt lat="47.49488" lon="6.75728">
        <ele>322</ele>
        <time>2016-09-25T07:25:17.000Z</time>
      </trkpt>
      <trkpt lat="47.49483" lon="6.75724">
        <ele>322</ele>
        <time>2016-09-25T07:25:18.000Z</time>
      </trkpt>
      <trkpt lat="47.4948" lon="6.75723">
        <ele>322</ele>
        <time>2016-09-25T07:25:19.000Z</time>
      </trkpt>
      <trkpt lat="47.49478" lon="6.75716">
        <ele>321</ele>
        <time>2016-09-25T07:25:20.000Z</time>
      </trkpt>
      <trkpt lat="47.49476" lon="6.75709">
        <ele>321</ele>
        <time>2016-09-25T07:25:21.000Z</time>
      </trkpt>
      <trkpt lat="47.49474" lon="6.75701">
        <ele>321</ele>
        <time>2016-09-25T07:25:22.000Z</time>
      </trkpt>
      <trkpt lat="47.49473" lon="6.75695">
        <ele>321</ele>
        <time>2016-09-25T07:25:23.000Z</time>
      </trkpt>
      <trkpt lat="47.4947" lon="6.75691">
        <ele>321</ele>
        <time>2016-09-25T07:25:24.000Z</time>
      </trkpt>
      <trkpt lat="47.49464" lon="6.75689">
        <ele>321</ele>
        <time>2016-09-25T07:25:25.000Z</time>
      </trkpt>
      <trkpt lat="47.49458" lon="6.75689">
        <ele>321</ele>
        <time>2016-09-25T07:25:26.000Z</time>
      </trkpt>
      <trkpt lat="47.49453" lon="6.75691">
        <ele>321</ele>
        <time>2016-09-25T07:25:27.000Z</time>
      </trkpt>
      <trkpt lat="47.49449" lon="6.75693">
        <ele>321</ele>
        <time>2016-09-25T07:25:28.000Z</time>
      </trkpt>
      <trkpt lat="47.49444" lon="6.75691">
        <ele>321</ele>
        <time>2016-09-25T07:25:29.000Z</time>
      </trkpt>
      <trkpt lat="47.49444" lon="6.75687">
        <ele>320</ele>
        <time>2016-09-25T07:25:30.000Z</time>
      </trkpt>
      <trkpt lat="47.49442" lon="6.75681">
        <ele>320</ele>
        <time>2016-09-25T07:25:31.000Z</time>
      </trkpt>
      <trkpt lat="47.4944" lon="6.75676">
        <ele>320</ele>
        <time>2016-09-25T07:25:32.000Z</time>
      </trkpt>
      <trkpt lat="47.49437" lon="6.75671">
        <ele>320</ele>
        <time>2016-09-25T07:25:33.000Z</time>
      </trkpt>
      <trkpt lat="47.49433" lon="6.75668">
        <ele>320</ele>
        <time>2016-09-25T07:25:34.000Z</time>
      </trkpt>
      <trkpt lat="47.49429" lon="6.75669">
        <ele>320</ele>
        <time>2016-09-25T07:25:35.000Z</time>
      </trkpt>
      <trkpt lat="47.49426" lon="6.7567">
        <ele>320</ele>
        <time>2016-09-25T07:25:36.000Z</time>
      </trkpt>
      <trkpt lat="47.49422" lon="6.75672">
        <ele>319</ele>
        <time>2016-09-25T07:25:37.000Z</time>
      </trkpt>
      <trkpt lat="47.49418" lon="6.75673">
        <ele>319</ele>
        <time>2016-09-25T07:25:38.000Z</time>
      </trkpt>
      <trkpt lat="47.49413" lon="6.75675">
        <ele>319</ele>
        <time>2016-09-25T07:25:39.000Z</time>
      </trkpt>
      <trkpt lat="47.49409" lon="6.75677">
        <ele>319</ele>
        <time>2016-09-25T07:25:40.000Z</time>
      </trkpt>
      <trkpt lat="47.49403" lon="6.75682">
        <ele>319</ele>
        <time>2016-09-25T07:25:41.000Z</time>
      </trkpt>
      <trkpt lat="47.49398" lon="6.75685">
        <ele>319</ele>
        <time>2016-09-25T07:25:42.000Z</time>
      </trkpt>
      <trkpt lat="47.49393" lon="6.75689">
        <ele>319</ele>
        <time>2016-09-25T07:25:43.000Z</time>
      </trkpt>
      <trkpt lat="47.49389" lon="6.75689">
        <ele>319</ele>
        <time>2016-09-25T07:25:44.000Z</time>
      </trkpt>
      <trkpt lat="47.49385" lon="6.75691">
        <ele>319</ele>
        <time>2016-09-25T07:25:45.000Z</time>
      </trkpt>
      <trkpt lat="47.49381" lon="6.75694">
        <ele>319</ele>
        <time>2016-09-25T07:25:46.000Z</time>
      </trkpt>
      <trkpt lat="47.49378" lon="6.75696">
        <ele>319</ele>
        <time>2016-09-25T07:25:47.000Z</time>
      </trkpt>
      <trkpt lat="47.49375" lon="6.75701">
        <ele>319</ele>
        <time>2016-09-25T07:25:48.000Z</time>
      </trkpt>
      <trkpt lat="47.49372" lon="6.75704">
        <ele>319</ele>
        <time>2016-09-25T07:25:49.000Z</time>
      </trkpt>
      <trkpt lat="47.49366" lon="6.75706">
        <ele>319</ele>
        <time>2016-09-25T07:25:50.000Z</time>
      </trkpt>
      <trkpt lat="47.49364" lon="6.75707">
        <ele>319</ele>
        <time>2016-09-25T07:26:06.000Z</time>
      </trkpt>
      <trkpt lat="47.49361" lon="6.75709">
        <ele>319</ele>
        <time>2016-09-25T07:26:07.000Z</time>
      </trkpt>
      <trkpt lat="47.49358" lon="6.75711">
        <ele>319</ele>
        <time>2016-09-25T07:26:09.000Z</time>
      </trkpt>
      <trkpt lat="47.49355" lon="6.75712">
        <ele>319</ele>
        <time>2016-09-25T07:26:10.000Z</time>
      </trkpt>
      <trkpt lat="47.49351" lon="6.75714">
        <ele>319</ele>
        <time>2016-09-25T07:26:11.000Z</time>
      </trkpt>
      <trkpt lat="47.49347" lon="6.75715">
        <ele>319</ele>
        <time>2016-09-25T07:26:12.000Z</time>
      </trkpt>
      <trkpt lat="47.49343" lon="6.75716">
        <ele>319</ele>
        <time>2016-09-25T07:26:13.000Z</time>
      </trkpt>
      <trkpt lat="47.49339" lon="6.75718">
        <ele>318</ele>
        <time>2016-09-25T07:26:14.000Z</time>
      </trkpt>
      <trkpt lat="47.49336" lon="6.75719">
        <ele>318</ele>
        <time>2016-09-25T07:26:15.000Z</time>
      </trkpt>
      <trkpt lat="47.49332" lon="6.75721">
        <ele>319</ele>
        <time>2016-09-25T07:26:16.000Z</time>
      </trkpt>
      <trkpt lat="47.49322" lon="6.75729">
        <ele>319</ele>
        <time>2016-09-25T07:26:17.000Z</time>
      </trkpt>
      <trkpt lat="47.49314" lon="6.75733">
        <ele>319</ele>
        <time>2016-09-25T07:26:18.000Z</time>
      </trkpt>
      <trkpt lat="47.49307" lon="6.75741">
        <ele>319</ele>
        <time>2016-09-25T07:26:19.000Z</time>
      </trkpt>
      <trkpt lat="47.49301" lon="6.75751">
        <ele>318</ele>
        <time>2016-09-25T07:26:20.000Z</time>
      </trkpt>
      <trkpt lat="47.49296" lon="6.75755">
        <ele>318</ele>
        <time>2016-09-25T07:26:21.000Z</time>
      </trkpt>
      <trkpt lat="47.49294" lon="6.75764">
        <ele>318</ele>
        <time>2016-09-25T07:26:22.000Z</time>
      </trkpt>
      <trkpt lat="47.49291" lon="6.7577">
        <ele>318</ele>
        <time>2016-09-25T07:26:23.000Z</time>
      </trkpt>
      <trkpt lat="47.49288" lon="6.75774">
        <ele>318</ele>
        <time>2016-09-25T07:26:24.000Z</time>
      </trkpt>
      <trkpt lat="47.49285" lon="6.75779">
        <ele>318</ele>
        <time>2016-09-25T07:26:25.000Z</time>
      </trkpt>
      <trkpt lat="47.49281" lon="6.75783">
        <ele>318</ele>
        <time>2016-09-25T07:26:26.000Z</time>
      </trkpt>
      <trkpt lat="47.49277" lon="6.75789">
        <ele>318</ele>
        <time>2016-09-25T07:26:27.000Z</time>
      </trkpt>
      <trkpt lat="47.49272" lon="6.75796">
        <ele>317</ele>
        <time>2016-09-25T07:26:28.000Z</time>
      </trkpt>
      <trkpt lat="47.4927" lon="6.758">
        <ele>317</ele>
        <time>2016-09-25T07:26:29.000Z</time>
      </trkpt>
      <trkpt lat="47.49266" lon="6.75802">
        <ele>317</ele>
        <time>2016-09-25T07:26:30.000Z</time>
      </trkpt>
      <trkpt lat="47.49263" lon="6.75809">
        <ele>317</ele>
        <time>2016-09-25T07:26:31.000Z</time>
      </trkpt>
      <trkpt lat="47.4926" lon="6.75814">
        <ele>316</ele>
        <time>2016-09-25T07:26:32.000Z</time>
      </trkpt>
      <trkpt lat="47.49257" lon="6.75824">
        <ele>315</ele>
        <time>2016-09-25T07:26:33.000Z</time>
      </trkpt>
      <trkpt lat="47.49253" lon="6.75831">
        <ele>314</ele>
        <time>2016-09-25T07:26:34.000Z</time>
      </trkpt>
      <trkpt lat="47.4925" lon="6.75835">
        <ele>314</ele>
        <time>2016-09-25T07:26:35.000Z</time>
      </trkpt>
      <trkpt lat="47.49247" lon="6.7584">
        <ele>315</ele>
        <time>2016-09-25T07:26:36.000Z</time>
      </trkpt>
      <trkpt lat="47.49243" lon="6.75842">
        <ele>315</ele>
        <time>2016-09-25T07:26:37.000Z</time>
      </trkpt>
      <trkpt lat="47.4924" lon="6.75846">
        <ele>316</ele>
        <time>2016-09-25T07:26:38.000Z</time>
      </trkpt>
      <trkpt lat="47.49236" lon="6.7585">
        <ele>317</ele>
        <time>2016-09-25T07:26:39.000Z</time>
      </trkpt>
      <trkpt lat="47.49234" lon="6.75858">
        <ele>318</ele>
        <time>2016-09-25T07:26:40.000Z</time>
      </trkpt>
      <trkpt lat="47.4923" lon="6.75864">
        <ele>318</ele>
        <time>2016-09-25T07:26:41.000Z</time>
      </trkpt>
      <trkpt lat="47.49227" lon="6.75869">
        <ele>318</ele>
        <time>2016-09-25T07:26:42.000Z</time>
      </trkpt>
      <trkpt lat="47.49225" lon="6.75874">
        <ele>319</ele>
        <time>2016-09-25T07:26:43.000Z</time>
      </trkpt>
      <trkpt lat="47.49221" lon="6.75878">
        <ele>319</ele>
        <time>2016-09-25T07:26:44.000Z</time>
      </trkpt>
      <trkpt lat="47.49217" lon="6.75879">
        <ele>319</ele>
        <time>2016-09-25T07:26:45.000Z</time>
      </trkpt>
      <trkpt lat="47.49213" lon="6.75881">
        <ele>319</ele>
        <time>2016-09-25T07:26:46.000Z</time>
      </trkpt>
      <trkpt lat="47.49212" lon="6.75885">
        <ele>319</ele>
        <time>2016-09-25T07:26:47.000Z</time>
      </trkpt>
      <trkpt lat="47.4921" lon="6.75897">
        <ele>319</ele>
        <time>2016-09-25T07:26:48.000Z</time>
      </trkpt>
      <trkpt lat="47.49209" lon="6.75906">
        <ele>319</ele>
        <time>2016-09-25T07:26:49.000Z</time>
      </trkpt>
      <trkpt lat="47.49204" lon="6.75908">
        <ele>320</ele>
        <time>2016-09-25T07:26:50.000Z</time>
      </trkpt>
      <trkpt lat="47.49201" lon="6.75913">
        <ele>320</ele>
        <time>2016-09-25T07:26:51.000Z</time>
      </trkpt>
      <trkpt lat="47.49198" lon="6.75918">
        <ele>321</ele>
        <time>2016-09-25T07:26:52.000Z</time>
      </trkpt>
      <trkpt lat="47.49195" lon="6.75922">
        <ele>321</ele>
        <time>2016-09-25T07:26:53.000Z</time>
      </trkpt>
      <trkpt lat="47.49192" lon="6.75927">
        <ele>321</ele>
        <time>2016-09-25T07:26:54.000Z</time>
      </trkpt>
      <trkpt lat="47.49187" lon="6.75939">
        <ele>321</ele>
        <time>2016-09-25T07:26:55.000Z</time>
      </trkpt>
      <trkpt lat="47.49184" lon="6.75949">
        <ele>321</ele>
        <time>2016-09-25T07:26:56.000Z</time>
      </trkpt>
      <trkpt lat="47.49181" lon="6.7596">
        <ele>320</ele>
        <time>2016-09-25T07:26:57.000Z</time>
      </trkpt>
      <trkpt lat="47.49177" lon="6.75968">
        <ele>320</ele>
        <time>2016-09-25T07:26:58.000Z</time>
      </trkpt>
      <trkpt lat="47.49172" lon="6.75973">
        <ele>320</ele>
        <time>2016-09-25T07:26:59.000Z</time>
      </trkpt>
      <trkpt lat="47.49168" lon="6.75978">
        <ele>320</ele>
        <time>2016-09-25T07:27:00.000Z</time>
      </trkpt>
      <trkpt lat="47.49166" lon="6.75986">
        <ele>323</ele>
        <time>2016-09-25T07:27:01.000Z</time>
      </trkpt>
      <trkpt lat="47.49164" lon="6.75993">
        <ele>321</ele>
        <time>2016-09-25T07:27:02.000Z</time>
      </trkpt>
      <trkpt lat="47.4916" lon="6.76002">
        <ele>320</ele>
        <time>2016-09-25T07:27:03.000Z</time>
      </trkpt>
      <trkpt lat="47.49157" lon="6.76016">
        <ele>322</ele>
        <time>2016-09-25T07:27:04.000Z</time>
      </trkpt>
      <trkpt lat="47.49154" lon="6.7602">
        <ele>322</ele>
        <time>2016-09-25T07:27:05.000Z</time>
      </trkpt>
      <trkpt lat="47.49151" lon="6.76026">
        <ele>323</ele>
        <time>2016-09-25T07:27:06.000Z</time>
      </trkpt>
      <trkpt lat="47.49148" lon="6.76032">
        <ele>323</ele>
        <time>2016-09-25T07:27:07.000Z</time>
      </trkpt>
      <trkpt lat="47.49146" lon="6.76042">
        <ele>323</ele>
        <time>2016-09-25T07:27:08.000Z</time>
      </trkpt>
      <trkpt lat="47.49144" lon="6.7605">
        <ele>323</ele>
        <time>2016-09-25T07:27:09.000Z</time>
      </trkpt>
      <trkpt lat="47.49142" lon="6.76059">
        <ele>323</ele>
        <time>2016-09-25T07:27:10.000Z</time>
      </trkpt>
      <trkpt lat="47.49139" lon="6.76067">
        <ele>323</ele>
        <time>2016-09-25T07:27:11.000Z</time>
      </trkpt>
      <trkpt lat="47.49138" lon="6.76075">
        <ele>323</ele>
        <time>2016-09-25T07:27:12.000Z</time>
      </trkpt>
      <trkpt lat="47.49134" lon="6.76077">
        <ele>323</ele>
        <time>2016-09-25T07:27:13.000Z</time>
      </trkpt>
      <trkpt lat="47.49132" lon="6.76083">
        <ele>323</ele>
        <time>2016-09-25T07:27:14.000Z</time>
      </trkpt>
      <trkpt lat="47.4913" lon="6.76088">
        <ele>322</ele>
        <time>2016-09-25T07:27:15.000Z</time>
      </trkpt>
      <trkpt lat="47.49128" lon="6.76102">
        <ele>322</ele>
        <time>2016-09-25T07:27:16.000Z</time>
      </trkpt>
      <trkpt lat="47.49125" lon="6.76109">
        <ele>322</ele>
        <time>2016-09-25T07:27:17.000Z</time>
      </trkpt>
      <trkpt lat="47.49123" lon="6.76119">
        <ele>322</ele>
        <time>2016-09-25T07:27:18.000Z</time>
      </trkpt>
      <trkpt lat="47.49122" lon="6.76126">
        <ele>322</ele>
        <time>2016-09-25T07:27:19.000Z</time>
      </trkpt>
      <trkpt lat="47.49121" lon="6.76133">
        <ele>322</ele>
        <time>2016-09-25T07:27:20.000Z</time>
      </trkpt>
      <trkpt lat="47.49121" lon="6.76141">
        <ele>322</ele>
        <time>2016-09-25T07:27:21.000Z</time>
      </trkpt>
      <trkpt lat="47.4912" lon="6.76149">
        <ele>322</ele>
        <time>2016-09-25T07:27:22.000Z</time>
      </trkpt>
      <trkpt lat="47.49119" lon="6.76154">
        <ele>322</ele>
        <time>2016-09-25T07:27:23.000Z</time>
      </trkpt>
      <trkpt lat="47.49119" lon="6.76164">
        <ele>322</ele>
        <time>2016-09-25T07:27:24.000Z</time>
      </trkpt>
      <trkpt lat="47.49119" lon="6.76169">
        <ele>321</ele>
        <time>2016-09-25T07:27:25.000Z</time>
      </trkpt>
      <trkpt lat="47.49119" lon="6.76175">
        <ele>321</ele>
        <time>2016-09-25T07:27:26.000Z</time>
      </trkpt>
      <trkpt lat="47.49118" lon="6.76181">
        <ele>321</ele>
        <time>2016-09-25T07:27:27.000Z</time>
      </trkpt>
      <trkpt lat="47.49117" lon="6.76187">
        <ele>321</ele>
        <time>2016-09-25T07:27:28.000Z</time>
      </trkpt>
      <trkpt lat="47.49117" lon="6.76191">
        <ele>321</ele>
        <time>2016-09-25T07:27:29.000Z</time>
      </trkpt>
      <trkpt lat="47.49116" lon="6.76195">
        <ele>321</ele>
        <time>2016-09-25T07:27:30.000Z</time>
      </trkpt>
      <trkpt lat="47.49116" lon="6.76201">
        <ele>321</ele>
        <time>2016-09-25T07:27:32.000Z</time>
      </trkpt>
      <trkpt lat="47.49116" lon="6.76204">
        <ele>321</ele>
        <time>2016-09-25T07:27:33.000Z</time>
      </trkpt>
      <trkpt lat="47.49115" lon="6.7621">
        <ele>321</ele>
        <time>2016-09-25T07:27:36.000Z</time>
      </trkpt>
      <trkpt lat="47.49115" lon="6.76214">
        <ele>321</ele>
        <time>2016-09-25T07:27:37.000Z</time>
      </trkpt>
      <trkpt lat="47.49116" lon="6.76218">
        <ele>321</ele>
        <time>2016-09-25T07:27:38.000Z</time>
      </trkpt>
      <trkpt lat="47.49117" lon="6.76222">
        <ele>321</ele>
        <time>2016-09-25T07:27:39.000Z</time>
      </trkpt>
      <trkpt lat="47.49116" lon="6.76227">
        <ele>321</ele>
        <time>2016-09-25T07:27:41.000Z</time>
      </trkpt>
      <trkpt lat="47.49116" lon="6.76228">
        <ele>321</ele>
        <time>2016-09-25T07:27:42.000Z</time>
      </trkpt>
      <trkpt lat="47.49114" lon="6.76233">
        <ele>322</ele>
        <time>2016-09-25T07:27:44.000Z</time>
      </trkpt>
      <trkpt lat="47.49115" lon="6.76236">
        <ele>322</ele>
        <time>2016-09-25T07:27:45.000Z</time>
      </trkpt>
      <trkpt lat="47.49119" lon="6.76235">
        <ele>321</ele>
        <time>2016-09-25T07:27:48.000Z</time>
      </trkpt>
      <trkpt lat="47.4912" lon="6.76232">
        <ele>321</ele>
        <time>2016-09-25T07:27:49.000Z</time>
      </trkpt>
      <trkpt lat="47.49121" lon="6.76229">
        <ele>321</ele>
        <time>2016-09-25T07:27:50.000Z</time>
      </trkpt>
      <trkpt lat="47.49121" lon="6.76225">
        <ele>321</ele>
        <time>2016-09-25T07:27:51.000Z</time>
      </trkpt>
      <trkpt lat="47.49124" lon="6.76222">
        <ele>321</ele>
        <time>2016-09-25T07:27:54.000Z</time>
      </trkpt>
      <trkpt lat="47.49126" lon="6.76223">
        <ele>321</ele>
        <time>2016-09-25T07:27:55.000Z</time>
      </trkpt>
      <trkpt lat="47.4913" lon="6.76224">
        <ele>321</ele>
        <time>2016-09-25T07:27:56.000Z</time>
      </trkpt>
      <trkpt lat="47.49134" lon="6.76225">
        <ele>320</ele>
        <time>2016-09-25T07:27:57.000Z</time>
      </trkpt>
      <trkpt lat="47.49139" lon="6.76226">
        <ele>320</ele>
        <time>2016-09-25T07:27:58.000Z</time>
      </trkpt>
      <trkpt lat="47.49144" lon="6.76227">
        <ele>320</ele>
        <time>2016-09-25T07:27:59.000Z</time>
      </trkpt>
      <trkpt lat="47.49155" lon="6.76228">
        <ele>319</ele>
        <time>2016-09-25T07:28:00.000Z</time>
      </trkpt>
      <trkpt lat="47.4916" lon="6.76228">
        <ele>319</ele>
        <time>2016-09-25T07:28:01.000Z</time>
      </trkpt>
      <trkpt lat="47.49164" lon="6.76227">
        <ele>319</ele>
        <time>2016-09-25T07:28:02.000Z</time>
      </trkpt>
      <trkpt lat="47.49169" lon="6.76226">
        <ele>319</ele>
        <time>2016-09-25T07:28:03.000Z</time>
      </trkpt>
      <trkpt lat="47.49175" lon="6.76225">
        <ele>319</ele>
        <time>2016-09-25T07:28:04.000Z</time>
      </trkpt>
      <trkpt lat="47.4918" lon="6.76224">
        <ele>319</ele>
        <time>2016-09-25T07:28:05.000Z</time>
      </trkpt>
      <trkpt lat="47.49185" lon="6.76224">
        <ele>320</ele>
        <time>2016-09-25T07:28:06.000Z</time>
      </trkpt>
      <trkpt lat="47.4919" lon="6.76223">
        <ele>320</ele>
        <time>2016-09-25T07:28:07.000Z</time>
      </trkpt>
      <trkpt lat="47.49195" lon="6.76222">
        <ele>320</ele>
        <time>2016-09-25T07:28:08.000Z</time>
      </trkpt>
      <trkpt lat="47.492" lon="6.76222">
        <ele>320</ele>
        <time>2016-09-25T07:28:09.000Z</time>
      </trkpt>
      <trkpt lat="47.49205" lon="6.76222">
        <ele>321</ele>
        <time>2016-09-25T07:28:10.000Z</time>
      </trkpt>
      <trkpt lat="47.49209" lon="6.76221">
        <ele>321</ele>
        <time>2016-09-25T07:28:11.000Z</time>
      </trkpt>
      <trkpt lat="47.49212" lon="6.76221">
        <ele>321</ele>
        <time>2016-09-25T07:28:12.000Z</time>
      </trkpt>
      <trkpt lat="47.49215" lon="6.76221">
        <ele>321</ele>
        <time>2016-09-25T07:28:13.000Z</time>
      </trkpt>
      <trkpt lat="47.49218" lon="6.76222">
        <ele>321</ele>
        <time>2016-09-25T07:28:14.000Z</time>
      </trkpt>
      <trkpt lat="47.49221" lon="6.76225">
        <ele>321</ele>
        <time>2016-09-25T07:28:16.000Z</time>
      </trkpt>
      <trkpt lat="47.49222" lon="6.76227">
        <ele>321</ele>
        <time>2016-09-25T07:28:17.000Z</time>
      </trkpt>
      <trkpt lat="47.49224" lon="6.7623">
        <ele>322</ele>
        <time>2016-09-25T07:28:18.000Z</time>
      </trkpt>
      <trkpt lat="47.49224" lon="6.76235">
        <ele>322</ele>
        <time>2016-09-25T07:28:19.000Z</time>
      </trkpt>
      <trkpt lat="47.49224" lon="6.7624">
        <ele>322</ele>
        <time>2016-09-25T07:28:20.000Z</time>
      </trkpt>
      <trkpt lat="47.49224" lon="6.76245">
        <ele>322</ele>
        <time>2016-09-25T07:28:21.000Z</time>
      </trkpt>
      <trkpt lat="47.49225" lon="6.76254">
        <ele>321</ele>
        <time>2016-09-25T07:28:22.000Z</time>
      </trkpt>
      <trkpt lat="47.49225" lon="6.76261">
        <ele>321</ele>
        <time>2016-09-25T07:28:23.000Z</time>
      </trkpt>
      <trkpt lat="47.49226" lon="6.76269">
        <ele>321</ele>
        <time>2016-09-25T07:28:24.000Z</time>
      </trkpt>
      <trkpt lat="47.49226" lon="6.76276">
        <ele>321</ele>
        <time>2016-09-25T07:28:25.000Z</time>
      </trkpt>
      <trkpt lat="47.49227" lon="6.76283">
        <ele>321</ele>
        <time>2016-09-25T07:28:26.000Z</time>
      </trkpt>
      <trkpt lat="47.49228" lon="6.76288">
        <ele>321</ele>
        <time>2016-09-25T07:28:27.000Z</time>
      </trkpt>
      <trkpt lat="47.49229" lon="6.76296">
        <ele>321</ele>
        <time>2016-09-25T07:28:28.000Z</time>
      </trkpt>
      <trkpt lat="47.4923" lon="6.76303">
        <ele>321</ele>
        <time>2016-09-25T07:28:29.000Z</time>
      </trkpt>
      <trkpt lat="47.49231" lon="6.76311">
        <ele>321</ele>
        <time>2016-09-25T07:28:30.000Z</time>
      </trkpt>
      <trkpt lat="47.49232" lon="6.76317">
        <ele>322</ele>
        <time>2016-09-25T07:28:31.000Z</time>
      </trkpt>
      <trkpt lat="47.49232" lon="6.76324">
        <ele>322</ele>
        <time>2016-09-25T07:28:32.000Z</time>
      </trkpt>
      <trkpt lat="47.49232" lon="6.7633">
        <ele>322</ele>
        <time>2016-09-25T07:28:33.000Z</time>
      </trkpt>
      <trkpt lat="47.49232" lon="6.76333">
        <ele>322</ele>
        <time>2016-09-25T07:28:34.000Z</time>
      </trkpt>
      <trkpt lat="47.49232" lon="6.76338">
        <ele>322</ele>
        <time>2016-09-25T07:28:35.000Z</time>
      </trkpt>
      <trkpt lat="47.49231" lon="6.76344">
        <ele>321</ele>
        <time>2016-09-25T07:28:36.000Z</time>
      </trkpt>
      <trkpt lat="47.49231" lon="6.76349">
        <ele>321</ele>
        <time>2016-09-25T07:28:37.000Z</time>
      </trkpt>
      <trkpt lat="47.49231" lon="6.76356">
        <ele>321</ele>
        <time>2016-09-25T07:28:38.000Z</time>
      </trkpt>
      <trkpt lat="47.49231" lon="6.76363">
        <ele>321</ele>
        <time>2016-09-25T07:28:39.000Z</time>
      </trkpt>
      <trkpt lat="47.49231" lon="6.7637">
        <ele>320</ele>
        <time>2016-09-25T07:28:40.000Z</time>
      </trkpt>
      <trkpt lat="47.49232" lon="6.76378">
        <ele>320</ele>
        <time>2016-09-25T07:28:41.000Z</time>
      </trkpt>
      <trkpt lat="47.49232" lon="6.76385">
        <ele>320</ele>
        <time>2016-09-25T07:28:42.000Z</time>
      </trkpt>
      <trkpt lat="47.49232" lon="6.76393">
        <ele>321</ele>
        <time>2016-09-25T07:28:43.000Z</time>
      </trkpt>
      <trkpt lat="47.49233" lon="6.76401">
        <ele>321</ele>
        <time>2016-09-25T07:28:44.000Z</time>
      </trkpt>
      <trkpt lat="47.49233" lon="6.76407">
        <ele>321</ele>
        <time>2016-09-25T07:28:45.000Z</time>
      </trkpt>
      <trkpt lat="47.49233" lon="6.76413">
        <ele>321</ele>
        <time>2016-09-25T07:28:46.000Z</time>
      </trkpt>
      <trkpt lat="47.49233" lon="6.76421">
        <ele>321</ele>
        <time>2016-09-25T07:28:47.000Z</time>
      </trkpt>
      <trkpt lat="47.49233" lon="6.76427">
        <ele>321</ele>
        <time>2016-09-25T07:28:48.000Z</time>
      </trkpt>
      <trkpt lat="47.49232" lon="6.76433">
        <ele>320</ele>
        <time>2016-09-25T07:28:49.000Z</time>
      </trkpt>
      <trkpt lat="47.49228" lon="6.76435">
        <ele>320</ele>
        <time>2016-09-25T07:28:51.000Z</time>
      </trkpt>
      <trkpt lat="47.49227" lon="6.76439">
        <ele>320</ele>
        <time>2016-09-25T07:28:52.000Z</time>
      </trkpt>
      <trkpt lat="47.49226" lon="6.76443">
        <ele>319</ele>
        <time>2016-09-25T07:28:53.000Z</time>
      </trkpt>
      <trkpt lat="47.49222" lon="6.76444">
        <ele>319</ele>
        <time>2016-09-25T07:28:54.000Z</time>
      </trkpt>
      <trkpt lat="47.49218" lon="6.76445">
        <ele>319</ele>
        <time>2016-09-25T07:28:55.000Z</time>
      </trkpt>
      <trkpt lat="47.49214" lon="6.76445">
        <ele>318</ele>
        <time>2016-09-25T07:28:56.000Z</time>
      </trkpt>
      <trkpt lat="47.4921" lon="6.76445">
        <ele>318</ele>
        <time>2016-09-25T07:28:57.000Z</time>
      </trkpt>
      <trkpt lat="47.49206" lon="6.76445">
        <ele>318</ele>
        <time>2016-09-25T07:28:58.000Z</time>
      </trkpt>
      <trkpt lat="47.49203" lon="6.76445">
        <ele>318</ele>
        <time>2016-09-25T07:28:59.000Z</time>
      </trkpt>
      <trkpt lat="47.49199" lon="6.76446">
        <ele>317</ele>
        <time>2016-09-25T07:29:00.000Z</time>
      </trkpt>
      <trkpt lat="47.49195" lon="6.76446">
        <ele>317</ele>
        <time>2016-09-25T07:29:01.000Z</time>
      </trkpt>
      <trkpt lat="47.49191" lon="6.76446">
        <ele>317</ele>
        <time>2016-09-25T07:29:02.000Z</time>
      </trkpt>
      <trkpt lat="47.49187" lon="6.76446">
        <ele>317</ele>
        <time>2016-09-25T07:29:03.000Z</time>
      </trkpt>
      <trkpt lat="47.49184" lon="6.76448">
        <ele>317</ele>
        <time>2016-09-25T07:29:04.000Z</time>
      </trkpt>
      <trkpt lat="47.49181" lon="6.76453">
        <ele>317</ele>
        <time>2016-09-25T07:29:05.000Z</time>
      </trkpt>
      <trkpt lat="47.4918" lon="6.7646">
        <ele>316</ele>
        <time>2016-09-25T07:29:06.000Z</time>
      </trkpt>
      <trkpt lat="47.49179" lon="6.76468">
        <ele>316</ele>
        <time>2016-09-25T07:29:07.000Z</time>
      </trkpt>
      <trkpt lat="47.49178" lon="6.76475">
        <ele>316</ele>
        <time>2016-09-25T07:29:08.000Z</time>
      </trkpt>
      <trkpt lat="47.49177" lon="6.76481">
        <ele>316</ele>
        <time>2016-09-25T07:29:09.000Z</time>
      </trkpt>
      <trkpt lat="47.49177" lon="6.76488">
        <ele>315</ele>
        <time>2016-09-25T07:29:10.000Z</time>
      </trkpt>
      <trkpt lat="47.49176" lon="6.76492">
        <ele>315</ele>
        <time>2016-09-25T07:29:11.000Z</time>
      </trkpt>
      <trkpt lat="47.4918" lon="6.76495">
        <ele>315</ele>
        <time>2016-09-25T07:29:21.000Z</time>
      </trkpt>
      <trkpt lat="47.4918" lon="6.76496">
        <ele>315</ele>
        <time>2016-09-25T07:29:22.000Z</time>
      </trkpt>
      <trkpt lat="47.49184" lon="6.76498">
        <ele>316</ele>
        <time>2016-09-25T07:32:10.000Z</time>
      </trkpt>
      <trkpt lat="47.49184" lon="6.76498">
        <ele>316</ele>
        <time>2016-09-25T07:32:11.000Z</time>
      </trkpt>
      <trkpt lat="47.4918" lon="6.76501">
        <ele>315</ele>
        <time>2016-09-25T07:34:09.000Z</time>
      </trkpt>
      <trkpt lat="47.4918" lon="6.76502">
        <ele>315</ele>
        <time>2016-09-25T07:34:10.000Z</time>
      </trkpt>
      <trkpt lat="47.4918" lon="6.76508">
        <ele>315</ele>
        <time>2016-09-25T07:34:15.000Z</time>
      </trkpt>
      <trkpt lat="47.49179" lon="6.76509">
        <ele>315</ele>
        <time>2016-09-25T07:34:16.000Z</time>
      </trkpt>
      <trkpt lat="47.49177" lon="6.76512">
        <ele>315</ele>
        <time>2016-09-25T07:34:18.000Z</time>
      </trkpt>
      <trkpt lat="47.49175" lon="6.76513">
        <ele>315</ele>
        <time>2016-09-25T07:34:19.000Z</time>
      </trkpt>
      <trkpt lat="47.49173" lon="6.76514">
        <ele>315</ele>
        <time>2016-09-25T07:34:20.000Z</time>
      </trkpt>
      <trkpt lat="47.49171" lon="6.76516">
        <ele>315</ele>
        <time>2016-09-25T07:34:21.000Z</time>
      </trkpt>
      <trkpt lat="47.49169" lon="6.76517">
        <ele>315</ele>
        <time>2016-09-25T07:34:22.000Z</time>
      </trkpt>
      <trkpt lat="47.49166" lon="6.76518">
        <ele>314</ele>
        <time>2016-09-25T07:34:23.000Z</time>
      </trkpt>
      <trkpt lat="47.49164" lon="6.76519">
        <ele>314</ele>
        <time>2016-09-25T07:34:24.000Z</time>
      </trkpt>
      <trkpt lat="47.49161" lon="6.76521">
        <ele>314</ele>
        <time>2016-09-25T07:34:25.000Z</time>
      </trkpt>
      <trkpt lat="47.49158" lon="6.76522">
        <ele>315</ele>
        <time>2016-09-25T07:34:26.000Z</time>
      </trkpt>
      <trkpt lat="47.49155" lon="6.76524">
        <ele>315</ele>
        <time>2016-09-25T07:34:27.000Z</time>
      </trkpt>
      <trkpt lat="47.49152" lon="6.76525">
        <ele>315</ele>
        <time>2016-09-25T07:34:28.000Z</time>
      </trkpt>
      <trkpt lat="47.49148" lon="6.76526">
        <ele>315</ele>
        <time>2016-09-25T07:34:29.000Z</time>
      </trkpt>
      <trkpt lat="47.49145" lon="6.76527">
        <ele>315</ele>
        <time>2016-09-25T07:34:30.000Z</time>
      </trkpt>
      <trkpt lat="47.49142" lon="6.76528">
        <ele>315</ele>
        <time>2016-09-25T07:34:31.000Z</time>
      </trkpt>
      <trkpt lat="47.49139" lon="6.76528">
        <ele>315</ele>
        <time>2016-09-25T07:34:32.000Z</time>
      </trkpt>
      <trkpt lat="47.49136" lon="6.76528">
        <ele>315</ele>
        <time>2016-09-25T07:34:33.000Z</time>
      </trkpt>
      <trkpt lat="47.49133" lon="6.76528">
        <ele>316</ele>
        <time>2016-09-25T07:34:34.000Z</time>
      </trkpt>
      <trkpt lat="47.4913" lon="6.76528">
        <ele>316</ele>
        <time>2016-09-25T07:34:35.000Z</time>
      </trkpt>
      <trkpt lat="47.49127" lon="6.76528">
        <ele>316</ele>
        <time>2016-09-25T07:34:36.000Z</time>
      </trkpt>
      <trkpt lat="47.49124" lon="6.76527">
        <ele>316</ele>
        <time>2016-09-25T07:34:37.000Z</time>
      </trkpt>
      <trkpt lat="47.49121" lon="6.76525">
        <ele>316</ele>
        <time>2016-09-25T07:34:38.000Z</time>
      </trkpt>
      <trkpt lat="47.49119" lon="6.76522">
        <ele>316</ele>
        <time>2016-09-25T07:34:39.000Z</time>
      </trkpt>
      <trkpt lat="47.49118" lon="6.76519">
        <ele>317</ele>
        <time>2016-09-25T07:34:40.000Z</time>
      </trkpt>
      <trkpt lat="47.49116" lon="6.76516">
        <ele>317</ele>
        <time>2016-09-25T07:34:40.999Z</time>
      </trkpt>
      <trkpt lat="47.49117" lon="6.76511">
        <ele>317</ele>
        <time>2016-09-25T07:34:42.000Z</time>
      </trkpt>
      <trkpt lat="47.49117" lon="6.76508">
        <ele>317</ele>
        <time>2016-09-25T07:34:43.000Z</time>
      </trkpt>
      <trkpt lat="47.49117" lon="6.76504">
        <ele>317</ele>
        <time>2016-09-25T07:34:44.000Z</time>
      </trkpt>
      <trkpt lat="47.49118" lon="6.765">
        <ele>317</ele>
        <time>2016-09-25T07:34:45.000Z</time>
      </trkpt>
      <trkpt lat="47.49118" lon="6.76497">
        <ele>317</ele>
        <time>2016-09-25T07:34:46.000Z</time>
      </trkpt>
      <trkpt lat="47.49119" lon="6.76494">
        <ele>317</ele>
        <time>2016-09-25T07:34:47.000Z</time>
      </trkpt>
      <trkpt lat="47.49119" lon="6.7649">
        <ele>317</ele>
        <time>2016-09-25T07:34:48.000Z</time>
      </trkpt>
      <trkpt lat="47.49121" lon="6.76487">
        <ele>317</ele>
        <time>2016-09-25T07:34:49.000Z</time>
      </trkpt>
      <trkpt lat="47.49121" lon="6.76484">
        <ele>317</ele>
        <time>2016-09-25T07:34:50.000Z</time>
      </trkpt>
      <trkpt lat="47.49122" lon="6.7648">
        <ele>317</ele>
        <time>2016-09-25T07:34:51.000Z</time>
      </trkpt>
      <trkpt lat="47.49122" lon="6.76476">
        <ele>317</ele>
        <time>2016-09-25T07:34:52.000Z</time>
      </trkpt>
      <trkpt lat="47.49123" lon="6.76472">
        <ele>317</ele>
        <time>2016-09-25T07:34:53.000Z</time>
      </trkpt>
      <trkpt lat="47.49123" lon="6.76468">
        <ele>317</ele>
        <time>2016-09-25T07:34:54.000Z</time>
      </trkpt>
      <trkpt lat="47.49124" lon="6.76465">
        <ele>317</ele>
        <time>2016-09-25T07:34:55.000Z</time>
      </trkpt>
      <trkpt lat="47.49124" lon="6.76458">
        <ele>317</ele>
        <time>2016-09-25T07:34:57.000Z</time>
      </trkpt>
      <trkpt lat="47.49124" lon="6.76455">
        <ele>317</ele>
        <time>2016-09-25T07:34:58.000Z</time>
      </trkpt>
      <trkpt lat="47.49124" lon="6.76449">
        <ele>317</ele>
        <time>2016-09-25T07:35:00.000Z</time>
      </trkpt>
      <trkpt lat="47.49124" lon="6.76445">
        <ele>317</ele>
        <time>2016-09-25T07:35:01.000Z</time>
      </trkpt>
      <trkpt lat="47.49124" lon="6.76442">
        <ele>317</ele>
        <time>2016-09-25T07:35:02.000Z</time>
      </trkpt>
      <trkpt lat="47.49124" lon="6.76439">
        <ele>317</ele>
        <time>2016-09-25T07:35:03.000Z</time>
      </trkpt>
      <trkpt lat="47.49123" lon="6.76433">
        <ele>317</ele>
        <time>2016-09-25T07:35:05.000Z</time>
      </trkpt>
      <trkpt lat="47.49122" lon="6.7643">
        <ele>317</ele>
        <time>2016-09-25T07:35:06.000Z</time>
      </trkpt>
      <trkpt lat="47.49118" lon="6.76428">
        <ele>317</ele>
        <time>2016-09-25T07:35:08.000Z</time>
      </trkpt>
      <trkpt lat="47.49116" lon="6.76428">
        <ele>318</ele>
        <time>2016-09-25T07:35:09.000Z</time>
      </trkpt>
      <trkpt lat="47.49112" lon="6.76428">
        <ele>318</ele>
        <time>2016-09-25T07:35:12.000Z</time>
      </trkpt>
      <trkpt lat="47.49111" lon="6.76426">
        <ele>318</ele>
        <time>2016-09-25T07:35:13.000Z</time>
      </trkpt>
      <trkpt lat="47.49109" lon="6.76423">
        <ele>318</ele>
        <time>2016-09-25T07:35:14.000Z</time>
      </trkpt>
      <trkpt lat="47.49109" lon="6.76419">
        <ele>318</ele>
        <time>2016-09-25T07:35:15.000Z</time>
      </trkpt>
      <trkpt lat="47.49108" lon="6.76414">
        <ele>319</ele>
        <time>2016-09-25T07:35:16.000Z</time>
      </trkpt>
      <trkpt lat="47.49108" lon="6.76409">
        <ele>319</ele>
        <time>2016-09-25T07:35:17.000Z</time>
      </trkpt>
      <trkpt lat="47.49109" lon="6.76404">
        <ele>319</ele>
        <time>2016-09-25T07:35:18.000Z</time>
      </trkpt>
      <trkpt lat="47.4911" lon="6.764">
        <ele>318</ele>
        <time>2016-09-25T07:35:19.000Z</time>
      </trkpt>
      <trkpt lat="47.4911" lon="6.76396">
        <ele>318</ele>
        <time>2016-09-25T07:35:20.000Z</time>
      </trkpt>
      <trkpt lat="47.4911" lon="6.76391">
        <ele>318</ele>
        <time>2016-09-25T07:35:21.000Z</time>
      </trkpt>
      <trkpt lat="47.4911" lon="6.76386">
        <ele>318</ele>
        <time>2016-09-25T07:35:22.000Z</time>
      </trkpt>
      <trkpt lat="47.4911" lon="6.76382">
        <ele>318</ele>
        <time>2016-09-25T07:35:23.000Z</time>
      </trkpt>
      <trkpt lat="47.49111" lon="6.76378">
        <ele>318</ele>
        <time>2016-09-25T07:35:24.000Z</time>
      </trkpt>
      <trkpt lat="47.49112" lon="6.76374">
        <ele>318</ele>
        <time>2016-09-25T07:35:25.000Z</time>
      </trkpt>
      <trkpt lat="47.49113" lon="6.76371">
        <ele>318</ele>
        <time>2016-09-25T07:35:26.000Z</time>
      </trkpt>
      <trkpt lat="47.49114" lon="6.76368">
        <ele>318</ele>
        <time>2016-09-25T07:35:27.000Z</time>
      </trkpt>
      <trkpt lat="47.49115" lon="6.76362">
        <ele>318</ele>
        <time>2016-09-25T07:35:29.000Z</time>
      </trkpt>
      <trkpt lat="47.49115" lon="6.76358">
        <ele>318</ele>
        <time>2016-09-25T07:35:30.000Z</time>
      </trkpt>
      <trkpt lat="47.49116" lon="6.76353">
        <ele>319</ele>
        <time>2016-09-25T07:35:31.000Z</time>
      </trkpt>
      <trkpt lat="47.49116" lon="6.76349">
        <ele>319</ele>
        <time>2016-09-25T07:35:32.000Z</time>
      </trkpt>
      <trkpt lat="47.49116" lon="6.76344">
        <ele>319</ele>
        <time>2016-09-25T07:35:33.000Z</time>
      </trkpt>
      <trkpt lat="47.49116" lon="6.76339">
        <ele>319</ele>
        <time>2016-09-25T07:35:34.000Z</time>
      </trkpt>
      <trkpt lat="47.49115" lon="6.76334">
        <ele>319</ele>
        <time>2016-09-25T07:35:35.000Z</time>
      </trkpt>
      <trkpt lat="47.49115" lon="6.76329">
        <ele>320</ele>
        <time>2016-09-25T07:35:36.000Z</time>
      </trkpt>
      <trkpt lat="47.49114" lon="6.76323">
        <ele>320</ele>
        <time>2016-09-25T07:35:37.000Z</time>
      </trkpt>
      <trkpt lat="47.49114" lon="6.76318">
        <ele>320</ele>
        <time>2016-09-25T07:35:38.000Z</time>
      </trkpt>
      <trkpt lat="47.49113" lon="6.76312">
        <ele>320</ele>
        <time>2016-09-25T07:35:39.000Z</time>
      </trkpt>
      <trkpt lat="47.49113" lon="6.76307">
        <ele>320</ele>
        <time>2016-09-25T07:35:40.000Z</time>
      </trkpt>
      <trkpt lat="47.49112" lon="6.76301">
        <ele>320</ele>
        <time>2016-09-25T07:35:41.000Z</time>
      </trkpt>
      <trkpt lat="47.49112" lon="6.76296">
        <ele>320</ele>
        <time>2016-09-25T07:35:42.000Z</time>
      </trkpt>
      <trkpt lat="47.49111" lon="6.76291">
        <ele>320</ele>
        <time>2016-09-25T07:35:43.000Z</time>
      </trkpt>
      <trkpt lat="47.49111" lon="6.76286">
        <ele>320</ele>
        <time>2016-09-25T07:35:44.000Z</time>
      </trkpt>
      <trkpt lat="47.49111" lon="6.76281">
        <ele>320</ele>
        <time>2016-09-25T07:35:45.000Z</time>
      </trkpt>
      <trkpt lat="47.49111" lon="6.76275">
        <ele>321</ele>
        <time>2016-09-25T07:35:46.000Z</time>
      </trkpt>
      <trkpt lat="47.49112" lon="6.76268">
        <ele>321</ele>
        <time>2016-09-25T07:35:47.000Z</time>
      </trkpt>
      <trkpt lat="47.49112" lon="6.76261">
        <ele>321</ele>
        <time>2016-09-25T07:35:48.000Z</time>
      </trkpt>
      <trkpt lat="47.49112" lon="6.76254">
        <ele>321</ele>
        <time>2016-09-25T07:35:49.000Z</time>
      </trkpt>
      <trkpt lat="47.49113" lon="6.76248">
        <ele>322</ele>
        <time>2016-09-25T07:35:50.000Z</time>
      </trkpt>
      <trkpt lat="47.49113" lon="6.76242">
        <ele>322</ele>
        <time>2016-09-25T07:35:51.000Z</time>
      </trkpt>
      <trkpt lat="47.49113" lon="6.76235">
        <ele>322</ele>
        <time>2016-09-25T07:35:52.000Z</time>
      </trkpt>
      <trkpt lat="47.49114" lon="6.76229">
        <ele>322</ele>
        <time>2016-09-25T07:35:53.000Z</time>
      </trkpt>
      <trkpt lat="47.49114" lon="6.76223">
        <ele>322</ele>
        <time>2016-09-25T07:35:54.000Z</time>
      </trkpt>
      <trkpt lat="47.49114" lon="6.76215">
        <ele>321</ele>
        <time>2016-09-25T07:35:55.000Z</time>
      </trkpt>
      <trkpt lat="47.49114" lon="6.76207">
        <ele>321</ele>
        <time>2016-09-25T07:35:56.000Z</time>
      </trkpt>
      <trkpt lat="47.49114" lon="6.76199">
        <ele>321</ele>
        <time>2016-09-25T07:35:57.000Z</time>
      </trkpt>
      <trkpt lat="47.49115" lon="6.76191">
        <ele>322</ele>
        <time>2016-09-25T07:35:58.000Z</time>
      </trkpt>
      <trkpt lat="47.49115" lon="6.76185">
        <ele>322</ele>
        <time>2016-09-25T07:35:59.000Z</time>
      </trkpt>
      <trkpt lat="47.49114" lon="6.76179">
        <ele>322</ele>
        <time>2016-09-25T07:36:00.000Z</time>
      </trkpt>
      <trkpt lat="47.49114" lon="6.76173">
        <ele>322</ele>
        <time>2016-09-25T07:36:01.000Z</time>
      </trkpt>
      <trkpt lat="47.49114" lon="6.76168">
        <ele>322</ele>
        <time>2016-09-25T07:36:02.000Z</time>
      </trkpt>
      <trkpt lat="47.49115" lon="6.76162">
        <ele>322</ele>
        <time>2016-09-25T07:36:03.000Z</time>
      </trkpt>
      <trkpt lat="47.49114" lon="6.76156">
        <ele>323</ele>
        <time>2016-09-25T07:36:04.000Z</time>
      </trkpt>
      <trkpt lat="47.49114" lon="6.76151">
        <ele>323</ele>
        <time>2016-09-25T07:36:05.000Z</time>
      </trkpt>
      <trkpt lat="47.49113" lon="6.76146">
        <ele>323</ele>
        <time>2016-09-25T07:36:06.000Z</time>
      </trkpt>
      <trkpt lat="47.49112" lon="6.76141">
        <ele>323</ele>
        <time>2016-09-25T07:36:07.000Z</time>
      </trkpt>
      <trkpt lat="47.49111" lon="6.76136">
        <ele>323</ele>
        <time>2016-09-25T07:36:08.000Z</time>
      </trkpt>
      <trkpt lat="47.49111" lon="6.76131">
        <ele>323</ele>
        <time>2016-09-25T07:36:09.000Z</time>
      </trkpt>
      <trkpt lat="47.49111" lon="6.76127">
        <ele>323</ele>
        <time>2016-09-25T07:36:10.000Z</time>
      </trkpt>
      <trkpt lat="47.49112" lon="6.76122">
        <ele>323</ele>
        <time>2016-09-25T07:36:11.000Z</time>
      </trkpt>
      <trkpt lat="47.49113" lon="6.76118">
        <ele>323</ele>
        <time>2016-09-25T07:36:12.000Z</time>
      </trkpt>
      <trkpt lat="47.49113" lon="6.76113">
        <ele>323</ele>
        <time>2016-09-25T07:36:13.000Z</time>
      </trkpt>
      <trkpt lat="47.49114" lon="6.76109">
        <ele>323</ele>
        <time>2016-09-25T07:36:14.000Z</time>
      </trkpt>
      <trkpt lat="47.49116" lon="6.76104">
        <ele>323</ele>
        <time>2016-09-25T07:36:15.000Z</time>
      </trkpt>
      <trkpt lat="47.49118" lon="6.76099">
        <ele>323</ele>
        <time>2016-09-25T07:36:16.000Z</time>
      </trkpt>
      <trkpt lat="47.4912" lon="6.76094">
        <ele>323</ele>
        <time>2016-09-25T07:36:17.000Z</time>
      </trkpt>
      <trkpt lat="47.49121" lon="6.76089">
        <ele>323</ele>
        <time>2016-09-25T07:36:18.000Z</time>
      </trkpt>
      <trkpt lat="47.49122" lon="6.76083">
        <ele>324</ele>
        <time>2016-09-25T07:36:19.000Z</time>
      </trkpt>
      <trkpt lat="47.49124" lon="6.76069">
        <ele>324</ele>
        <time>2016-09-25T07:36:20.000Z</time>
      </trkpt>
      <trkpt lat="47.49126" lon="6.76064">
        <ele>324</ele>
        <time>2016-09-25T07:36:21.000Z</time>
      </trkpt>
      <trkpt lat="47.49125" lon="6.76057">
        <ele>324</ele>
        <time>2016-09-25T07:36:22.000Z</time>
      </trkpt>
      <trkpt lat="47.49126" lon="6.76051">
        <ele>324</ele>
        <time>2016-09-25T07:36:23.000Z</time>
      </trkpt>
      <trkpt lat="47.49127" lon="6.76046">
        <ele>324</ele>
        <time>2016-09-25T07:36:24.000Z</time>
      </trkpt>
      <trkpt lat="47.49133" lon="6.76035">
        <ele>324</ele>
        <time>2016-09-25T07:36:25.000Z</time>
      </trkpt>
      <trkpt lat="47.49134" lon="6.76031">
        <ele>324</ele>
        <time>2016-09-25T07:36:26.000Z</time>
      </trkpt>
      <trkpt lat="47.49135" lon="6.76021">
        <ele>324</ele>
        <time>2016-09-25T07:36:27.000Z</time>
      </trkpt>
      <trkpt lat="47.49134" lon="6.76015">
        <ele>324</ele>
        <time>2016-09-25T07:36:28.000Z</time>
      </trkpt>
      <trkpt lat="47.49131" lon="6.76007">
        <ele>324</ele>
        <time>2016-09-25T07:36:29.000Z</time>
      </trkpt>
      <trkpt lat="47.49131" lon="6.76002">
        <ele>324</ele>
        <time>2016-09-25T07:36:30.000Z</time>
      </trkpt>
      <trkpt lat="47.4913" lon="6.75998">
        <ele>327</ele>
        <time>2016-09-25T07:36:31.000Z</time>
      </trkpt>
      <trkpt lat="47.49131" lon="6.75994">
        <ele>327</ele>
        <time>2016-09-25T07:36:32.000Z</time>
      </trkpt>
      <trkpt lat="47.49133" lon="6.7599">
        <ele>327</ele>
        <time>2016-09-25T07:36:33.000Z</time>
      </trkpt>
      <trkpt lat="47.49131" lon="6.75984">
        <ele>327</ele>
        <time>2016-09-25T07:36:34.000Z</time>
      </trkpt>
      <trkpt lat="47.49133" lon="6.75978">
        <ele>327</ele>
        <time>2016-09-25T07:36:36.000Z</time>
      </trkpt>
      <trkpt lat="47.49134" lon="6.75973">
        <ele>327</ele>
        <time>2016-09-25T07:36:37.000Z</time>
      </trkpt>
      <trkpt lat="47.49135" lon="6.75969">
        <ele>327</ele>
        <time>2016-09-25T07:36:38.000Z</time>
      </trkpt>
      <trkpt lat="47.49136" lon="6.75966">
        <ele>327</ele>
        <time>2016-09-25T07:36:39.000Z</time>
      </trkpt>
      <trkpt lat="47.49138" lon="6.75962">
        <ele>327</ele>
        <time>2016-09-25T07:36:40.000Z</time>
      </trkpt>
      <trkpt lat="47.49139" lon="6.75959">
        <ele>327</ele>
        <time>2016-09-25T07:36:41.000Z</time>
      </trkpt>
      <trkpt lat="47.49141" lon="6.75956">
        <ele>327</ele>
        <time>2016-09-25T07:36:42.000Z</time>
      </trkpt>
      <trkpt lat="47.49143" lon="6.75953">
        <ele>327</ele>
        <time>2016-09-25T07:36:43.000Z</time>
      </trkpt>
      <trkpt lat="47.49146" lon="6.7595">
        <ele>327</ele>
        <time>2016-09-25T07:36:44.000Z</time>
      </trkpt>
      <trkpt lat="47.49149" lon="6.75945">
        <ele>327</ele>
        <time>2016-09-25T07:36:45.000Z</time>
      </trkpt>
      <trkpt lat="47.49151" lon="6.7594">
        <ele>326</ele>
        <time>2016-09-25T07:36:46.000Z</time>
      </trkpt>
      <trkpt lat="47.49154" lon="6.75935">
        <ele>326</ele>
        <time>2016-09-25T07:36:47.000Z</time>
      </trkpt>
      <trkpt lat="47.49155" lon="6.75929">
        <ele>326</ele>
        <time>2016-09-25T07:36:48.000Z</time>
      </trkpt>
      <trkpt lat="47.49154" lon="6.75914">
        <ele>327</ele>
        <time>2016-09-25T07:36:49.000Z</time>
      </trkpt>
      <trkpt lat="47.49155" lon="6.75907">
        <ele>328</ele>
        <time>2016-09-25T07:36:50.000Z</time>
      </trkpt>
      <trkpt lat="47.49156" lon="6.75899">
        <ele>328</ele>
        <time>2016-09-25T07:36:51.000Z</time>
      </trkpt>
      <trkpt lat="47.49157" lon="6.75892">
        <ele>329</ele>
        <time>2016-09-25T07:36:52.000Z</time>
      </trkpt>
      <trkpt lat="47.49159" lon="6.75886">
        <ele>330</ele>
        <time>2016-09-25T07:36:53.000Z</time>
      </trkpt>
      <trkpt lat="47.49161" lon="6.75881">
        <ele>330</ele>
        <time>2016-09-25T07:36:54.000Z</time>
      </trkpt>
      <trkpt lat="47.49164" lon="6.75876">
        <ele>330</ele>
        <time>2016-09-25T07:36:55.000Z</time>
      </trkpt>
      <trkpt lat="47.49166" lon="6.75871">
        <ele>330</ele>
        <time>2016-09-25T07:36:56.000Z</time>
      </trkpt>
      <trkpt lat="47.4917" lon="6.75854">
        <ele>322</ele>
        <time>2016-09-25T07:36:57.000Z</time>
      </trkpt>
      <trkpt lat="47.49173" lon="6.75848">
        <ele>323</ele>
        <time>2016-09-25T07:36:58.000Z</time>
      </trkpt>
      <trkpt lat="47.49174" lon="6.75842">
        <ele>324</ele>
        <time>2016-09-25T07:36:59.000Z</time>
      </trkpt>
      <trkpt lat="47.49175" lon="6.75836">
        <ele>324</ele>
        <time>2016-09-25T07:37:00.000Z</time>
      </trkpt>
      <trkpt lat="47.49177" lon="6.7583">
        <ele>325</ele>
        <time>2016-09-25T07:37:01.000Z</time>
      </trkpt>
      <trkpt lat="47.49179" lon="6.75823">
        <ele>325</ele>
        <time>2016-09-25T07:37:02.000Z</time>
      </trkpt>
      <trkpt lat="47.49183" lon="6.75815">
        <ele>324</ele>
        <time>2016-09-25T07:37:03.000Z</time>
      </trkpt>
      <trkpt lat="47.49186" lon="6.75807">
        <ele>324</ele>
        <time>2016-09-25T07:37:04.000Z</time>
      </trkpt>
      <trkpt lat="47.49187" lon="6.75797">
        <ele>325</ele>
        <time>2016-09-25T07:37:05.000Z</time>
      </trkpt>
      <trkpt lat="47.4919" lon="6.75788">
        <ele>325</ele>
        <time>2016-09-25T07:37:06.000Z</time>
      </trkpt>
      <trkpt lat="47.49193" lon="6.75781">
        <ele>325</ele>
        <time>2016-09-25T07:37:07.000Z</time>
      </trkpt>
      <trkpt lat="47.49196" lon="6.75775">
        <ele>325</ele>
        <time>2016-09-25T07:37:08.000Z</time>
      </trkpt>
      <trkpt lat="47.49199" lon="6.75767">
        <ele>326</ele>
        <time>2016-09-25T07:37:09.000Z</time>
      </trkpt>
      <trkpt lat="47.49197" lon="6.75757">
        <ele>326</ele>
        <time>2016-09-25T07:37:10.000Z</time>
      </trkpt>
      <trkpt lat="47.49196" lon="6.75747">
        <ele>331</ele>
        <time>2016-09-25T07:37:11.000Z</time>
      </trkpt>
      <trkpt lat="47.49197" lon="6.75739">
        <ele>331</ele>
        <time>2016-09-25T07:37:12.000Z</time>
      </trkpt>
      <trkpt lat="47.49199" lon="6.75731">
        <ele>331</ele>
        <time>2016-09-25T07:37:13.000Z</time>
      </trkpt>
      <trkpt lat="47.492" lon="6.75726">
        <ele>331</ele>
        <time>2016-09-25T07:37:14.000Z</time>
      </trkpt>
      <trkpt lat="47.49203" lon="6.75721">
        <ele>331</ele>
        <time>2016-09-25T07:37:15.000Z</time>
      </trkpt>
      <trkpt lat="47.49206" lon="6.75713">
        <ele>331</ele>
        <time>2016-09-25T07:37:16.000Z</time>
      </trkpt>
      <trkpt lat="47.49208" lon="6.75705">
        <ele>331</ele>
        <time>2016-09-25T07:37:17.000Z</time>
      </trkpt>
      <trkpt lat="47.49209" lon="6.75696">
        <ele>332</ele>
        <time>2016-09-25T07:37:18.000Z</time>
      </trkpt>
      <trkpt lat="47.49211" lon="6.7569">
        <ele>332</ele>
        <time>2016-09-25T07:37:19.000Z</time>
      </trkpt>
      <trkpt lat="47.49213" lon="6.75684">
        <ele>332</ele>
        <time>2016-09-25T07:37:20.000Z</time>
      </trkpt>
      <trkpt lat="47.49215" lon="6.75677">
        <ele>331</ele>
        <time>2016-09-25T07:37:21.000Z</time>
      </trkpt>
      <trkpt lat="47.49216" lon="6.75671">
        <ele>331</ele>
        <time>2016-09-25T07:37:22.000Z</time>
      </trkpt>
      <trkpt lat="47.49222" lon="6.75671">
        <ele>330</ele>
        <time>2016-09-25T07:37:23.000Z</time>
      </trkpt>
      <trkpt lat="47.49222" lon="6.75664">
        <ele>335</ele>
        <time>2016-09-25T07:37:24.000Z</time>
      </trkpt>
      <trkpt lat="47.49222" lon="6.75656">
        <ele>335</ele>
        <time>2016-09-25T07:37:25.000Z</time>
      </trkpt>
      <trkpt lat="47.49222" lon="6.7565">
        <ele>336</ele>
        <time>2016-09-25T07:37:26.000Z</time>
      </trkpt>
      <trkpt lat="47.49224" lon="6.75644">
        <ele>336</ele>
        <time>2016-09-25T07:37:27.000Z</time>
      </trkpt>
      <trkpt lat="47.49226" lon="6.75639">
        <ele>336</ele>
        <time>2016-09-25T07:37:28.000Z</time>
      </trkpt>
      <trkpt lat="47.49227" lon="6.75634">
        <ele>336</ele>
        <time>2016-09-25T07:37:29.000Z</time>
      </trkpt>
      <trkpt lat="47.4923" lon="6.7563">
        <ele>337</ele>
        <time>2016-09-25T07:37:30.000Z</time>
      </trkpt>
      <trkpt lat="47.49232" lon="6.75626">
        <ele>337</ele>
        <time>2016-09-25T07:37:31.000Z</time>
      </trkpt>
      <trkpt lat="47.49234" lon="6.75621">
        <ele>337</ele>
        <time>2016-09-25T07:37:32.000Z</time>
      </trkpt>
      <trkpt lat="47.49235" lon="6.75617">
        <ele>337</ele>
        <time>2016-09-25T07:37:33.000Z</time>
      </trkpt>
      <trkpt lat="47.49237" lon="6.75612">
        <ele>337</ele>
        <time>2016-09-25T07:37:34.000Z</time>
      </trkpt>
      <trkpt lat="47.49238" lon="6.75607">
        <ele>337</ele>
        <time>2016-09-25T07:37:35.000Z</time>
      </trkpt>
      <trkpt lat="47.4924" lon="6.75601">
        <ele>336</ele>
        <time>2016-09-25T07:37:36.000Z</time>
      </trkpt>
      <trkpt lat="47.49241" lon="6.75595">
        <ele>336</ele>
        <time>2016-09-25T07:37:37.000Z</time>
      </trkpt>
      <trkpt lat="47.49248" lon="6.75587">
        <ele>334</ele>
        <time>2016-09-25T07:37:38.000Z</time>
      </trkpt>
      <trkpt lat="47.4925" lon="6.75583">
        <ele>333</ele>
        <time>2016-09-25T07:37:39.000Z</time>
      </trkpt>
      <trkpt lat="47.49252" lon="6.7558">
        <ele>332</ele>
        <time>2016-09-25T07:37:40.000Z</time>
      </trkpt>
      <trkpt lat="47.49254" lon="6.75575">
        <ele>332</ele>
        <time>2016-09-25T07:37:41.000Z</time>
      </trkpt>
      <trkpt lat="47.49257" lon="6.75566">
        <ele>331</ele>
        <time>2016-09-25T07:37:42.000Z</time>
      </trkpt>
      <trkpt lat="47.4926" lon="6.7556">
        <ele>331</ele>
        <time>2016-09-25T07:37:43.000Z</time>
      </trkpt>
      <trkpt lat="47.4926" lon="6.75553">
        <ele>331</ele>
        <time>2016-09-25T07:37:44.000Z</time>
      </trkpt>
      <trkpt lat="47.49261" lon="6.75544">
        <ele>331</ele>
        <time>2016-09-25T07:37:45.000Z</time>
      </trkpt>
      <trkpt lat="47.49263" lon="6.75538">
        <ele>331</ele>
        <time>2016-09-25T07:37:46.000Z</time>
      </trkpt>
      <trkpt lat="47.49265" lon="6.7553">
        <ele>332</ele>
        <time>2016-09-25T07:37:47.000Z</time>
      </trkpt>
      <trkpt lat="47.49266" lon="6.75522">
        <ele>332</ele>
        <time>2016-09-25T07:37:48.000Z</time>
      </trkpt>
      <trkpt lat="47.49267" lon="6.75512">
        <ele>333</ele>
        <time>2016-09-25T07:37:49.000Z</time>
      </trkpt>
      <trkpt lat="47.49267" lon="6.75504">
        <ele>334</ele>
        <time>2016-09-25T07:37:50.000Z</time>
      </trkpt>
      <trkpt lat="47.49269" lon="6.75499">
        <ele>336</ele>
        <time>2016-09-25T07:37:51.000Z</time>
      </trkpt>
      <trkpt lat="47.49268" lon="6.7549">
        <ele>336</ele>
        <time>2016-09-25T07:37:52.000Z</time>
      </trkpt>
      <trkpt lat="47.4927" lon="6.75486">
        <ele>336</ele>
        <time>2016-09-25T07:37:53.000Z</time>
      </trkpt>
      <trkpt lat="47.49269" lon="6.75479">
        <ele>336</ele>
        <time>2016-09-25T07:37:54.000Z</time>
      </trkpt>
      <trkpt lat="47.4927" lon="6.75473">
        <ele>336</ele>
        <time>2016-09-25T07:37:55.000Z</time>
      </trkpt>
      <trkpt lat="47.4927" lon="6.75466">
        <ele>336</ele>
        <time>2016-09-25T07:37:56.000Z</time>
      </trkpt>
      <trkpt lat="47.4927" lon="6.7546">
        <ele>336</ele>
        <time>2016-09-25T07:37:57.000Z</time>
      </trkpt>
      <trkpt lat="47.49272" lon="6.75454">
        <ele>336</ele>
        <time>2016-09-25T07:37:58.000Z</time>
      </trkpt>
      <trkpt lat="47.49271" lon="6.7545">
        <ele>337</ele>
        <time>2016-09-25T07:37:59.000Z</time>
      </trkpt>
      <trkpt lat="47.49271" lon="6.75445">
        <ele>337</ele>
        <time>2016-09-25T07:38:00.000Z</time>
      </trkpt>
      <trkpt lat="47.49274" lon="6.7544">
        <ele>337</ele>
        <time>2016-09-25T07:38:01.000Z</time>
      </trkpt>
      <trkpt lat="47.49274" lon="6.75435">
        <ele>337</ele>
        <time>2016-09-25T07:38:02.000Z</time>
      </trkpt>
      <trkpt lat="47.49275" lon="6.7543">
        <ele>338</ele>
        <time>2016-09-25T07:38:03.000Z</time>
      </trkpt>
      <trkpt lat="47.49275" lon="6.75426">
        <ele>338</ele>
        <time>2016-09-25T07:38:04.000Z</time>
      </trkpt>
      <trkpt lat="47.49276" lon="6.75423">
        <ele>338</ele>
        <time>2016-09-25T07:38:05.000Z</time>
      </trkpt>
      <trkpt lat="47.49277" lon="6.7542">
        <ele>338</ele>
        <time>2016-09-25T07:38:06.000Z</time>
      </trkpt>
      <trkpt lat="47.49278" lon="6.75417">
        <ele>338</ele>
        <time>2016-09-25T07:38:07.000Z</time>
      </trkpt>
      <trkpt lat="47.49279" lon="6.75413">
        <ele>339</ele>
        <time>2016-09-25T07:38:08.000Z</time>
      </trkpt>
      <trkpt lat="47.49281" lon="6.7541">
        <ele>339</ele>
        <time>2016-09-25T07:38:09.000Z</time>
      </trkpt>
      <trkpt lat="47.49282" lon="6.75405">
        <ele>339</ele>
        <time>2016-09-25T07:38:10.000Z</time>
      </trkpt>
      <trkpt lat="47.49284" lon="6.75401">
        <ele>339</ele>
        <time>2016-09-25T07:38:11.000Z</time>
      </trkpt>
      <trkpt lat="47.49287" lon="6.75396">
        <ele>339</ele>
        <time>2016-09-25T07:38:12.000Z</time>
      </trkpt>
      <trkpt lat="47.49289" lon="6.75392">
        <ele>338</ele>
        <time>2016-09-25T07:38:13.000Z</time>
      </trkpt>
      <trkpt lat="47.49291" lon="6.75387">
        <ele>338</ele>
        <time>2016-09-25T07:38:14.000Z</time>
      </trkpt>
      <trkpt lat="47.49292" lon="6.75382">
        <ele>338</ele>
        <time>2016-09-25T07:38:15.000Z</time>
      </trkpt>
      <trkpt lat="47.49294" lon="6.75376">
        <ele>338</ele>
        <time>2016-09-25T07:38:16.000Z</time>
      </trkpt>
      <trkpt lat="47.49296" lon="6.75371">
        <ele>338</ele>
        <time>2016-09-25T07:38:17.000Z</time>
      </trkpt>
      <trkpt lat="47.49298" lon="6.75367">
        <ele>338</ele>
        <time>2016-09-25T07:38:18.000Z</time>
      </trkpt>
      <trkpt lat="47.49299" lon="6.75365">
        <ele>338</ele>
        <time>2016-09-25T07:38:19.000Z</time>
      </trkpt>
      <trkpt lat="47.493" lon="6.75361">
        <ele>337</ele>
        <time>2016-09-25T07:38:21.000Z</time>
      </trkpt>
      <trkpt lat="47.49301" lon="6.75358">
        <ele>337</ele>
        <time>2016-09-25T07:38:22.000Z</time>
      </trkpt>
      <trkpt lat="47.49302" lon="6.75352">
        <ele>337</ele>
        <time>2016-09-25T07:38:24.000Z</time>
      </trkpt>
      <trkpt lat="47.49303" lon="6.75349">
        <ele>337</ele>
        <time>2016-09-25T07:38:25.000Z</time>
      </trkpt>
      <trkpt lat="47.49303" lon="6.75343">
        <ele>337</ele>
        <time>2016-09-25T07:38:27.000Z</time>
      </trkpt>
      <trkpt lat="47.49303" lon="6.75339">
        <ele>337</ele>
        <time>2016-09-25T07:38:28.000Z</time>
      </trkpt>
      <trkpt lat="47.49304" lon="6.75335">
        <ele>337</ele>
        <time>2016-09-25T07:38:29.000Z</time>
      </trkpt>
      <trkpt lat="47.49304" lon="6.75329">
        <ele>337</ele>
        <time>2016-09-25T07:38:30.000Z</time>
      </trkpt>
      <trkpt lat="47.49304" lon="6.75323">
        <ele>338</ele>
        <time>2016-09-25T07:38:31.000Z</time>
      </trkpt>
      <trkpt lat="47.49304" lon="6.75316">
        <ele>338</ele>
        <time>2016-09-25T07:38:32.000Z</time>
      </trkpt>
      <trkpt lat="47.49304" lon="6.7531">
        <ele>338</ele>
        <time>2016-09-25T07:38:33.000Z</time>
      </trkpt>
      <trkpt lat="47.49305" lon="6.75304">
        <ele>338</ele>
        <time>2016-09-25T07:38:34.000Z</time>
      </trkpt>
      <trkpt lat="47.49306" lon="6.75298">
        <ele>338</ele>
        <time>2016-09-25T07:38:35.000Z</time>
      </trkpt>
      <trkpt lat="47.49308" lon="6.75293">
        <ele>338</ele>
        <time>2016-09-25T07:38:36.000Z</time>
      </trkpt>
      <trkpt lat="47.49309" lon="6.75288">
        <ele>338</ele>
        <time>2016-09-25T07:38:37.000Z</time>
      </trkpt>
      <trkpt lat="47.49311" lon="6.75282">
        <ele>338</ele>
        <time>2016-09-25T07:38:38.000Z</time>
      </trkpt>
      <trkpt lat="47.49312" lon="6.75276">
        <ele>338</ele>
        <time>2016-09-25T07:38:39.000Z</time>
      </trkpt>
      <trkpt lat="47.49313" lon="6.75269">
        <ele>337</ele>
        <time>2016-09-25T07:38:40.000Z</time>
      </trkpt>
      <trkpt lat="47.49313" lon="6.75262">
        <ele>337</ele>
        <time>2016-09-25T07:38:41.000Z</time>
      </trkpt>
      <trkpt lat="47.49313" lon="6.75257">
        <ele>337</ele>
        <time>2016-09-25T07:38:42.000Z</time>
      </trkpt>
      <trkpt lat="47.49313" lon="6.75253">
        <ele>337</ele>
        <time>2016-09-25T07:38:43.000Z</time>
      </trkpt>
      <trkpt lat="47.49314" lon="6.75247">
        <ele>338</ele>
        <time>2016-09-25T07:38:44.000Z</time>
      </trkpt>
      <trkpt lat="47.49315" lon="6.75242">
        <ele>338</ele>
        <time>2016-09-25T07:38:45.000Z</time>
      </trkpt>
      <trkpt lat="47.49315" lon="6.75236">
        <ele>339</ele>
        <time>2016-09-25T07:38:46.000Z</time>
      </trkpt>
      <trkpt lat="47.49316" lon="6.7523">
        <ele>339</ele>
        <time>2016-09-25T07:38:47.000Z</time>
      </trkpt>
      <trkpt lat="47.49316" lon="6.75225">
        <ele>340</ele>
        <time>2016-09-25T07:38:48.000Z</time>
      </trkpt>
      <trkpt lat="47.49316" lon="6.75219">
        <ele>340</ele>
        <time>2016-09-25T07:38:49.000Z</time>
      </trkpt>
      <trkpt lat="47.49316" lon="6.75212">
        <ele>341</ele>
        <time>2016-09-25T07:38:50.000Z</time>
      </trkpt>
      <trkpt lat="47.49315" lon="6.75205">
        <ele>341</ele>
        <time>2016-09-25T07:38:51.000Z</time>
      </trkpt>
      <trkpt lat="47.49313" lon="6.75199">
        <ele>341</ele>
        <time>2016-09-25T07:38:52.000Z</time>
      </trkpt>
      <trkpt lat="47.49311" lon="6.75192">
        <ele>341</ele>
        <time>2016-09-25T07:38:53.000Z</time>
      </trkpt>
      <trkpt lat="47.4931" lon="6.75186">
        <ele>341</ele>
        <time>2016-09-25T07:38:54.000Z</time>
      </trkpt>
      <trkpt lat="47.49308" lon="6.75179">
        <ele>342</ele>
        <time>2016-09-25T07:38:55.000Z</time>
      </trkpt>
      <trkpt lat="47.49307" lon="6.75173">
        <ele>342</ele>
        <time>2016-09-25T07:38:56.000Z</time>
      </trkpt>
      <trkpt lat="47.49306" lon="6.75168">
        <ele>342</ele>
        <time>2016-09-25T07:38:57.000Z</time>
      </trkpt>
      <trkpt lat="47.49306" lon="6.75163">
        <ele>344</ele>
        <time>2016-09-25T07:38:58.000Z</time>
      </trkpt>
      <trkpt lat="47.49307" lon="6.75157">
        <ele>344</ele>
        <time>2016-09-25T07:38:59.000Z</time>
      </trkpt>
      <trkpt lat="47.49308" lon="6.75151">
        <ele>344</ele>
        <time>2016-09-25T07:39:00.000Z</time>
      </trkpt>
      <trkpt lat="47.4931" lon="6.75146">
        <ele>344</ele>
        <time>2016-09-25T07:39:01.000Z</time>
      </trkpt>
      <trkpt lat="47.49311" lon="6.7514">
        <ele>344</ele>
        <time>2016-09-25T07:39:02.000Z</time>
      </trkpt>
      <trkpt lat="47.49313" lon="6.75135">
        <ele>344</ele>
        <time>2016-09-25T07:39:03.000Z</time>
      </trkpt>
      <trkpt lat="47.49316" lon="6.7513">
        <ele>344</ele>
        <time>2016-09-25T07:39:04.000Z</time>
      </trkpt>
      <trkpt lat="47.49319" lon="6.75126">
        <ele>344</ele>
        <time>2016-09-25T07:39:05.000Z</time>
      </trkpt>
      <trkpt lat="47.49323" lon="6.75122">
        <ele>344</ele>
        <time>2016-09-25T07:39:06.000Z</time>
      </trkpt>
      <trkpt lat="47.49327" lon="6.75116">
        <ele>344</ele>
        <time>2016-09-25T07:39:07.000Z</time>
      </trkpt>
      <trkpt lat="47.49331" lon="6.75114">
        <ele>343</ele>
        <time>2016-09-25T07:39:08.000Z</time>
      </trkpt>
      <trkpt lat="47.49334" lon="6.75111">
        <ele>337</ele>
        <time>2016-09-25T07:39:09.000Z</time>
      </trkpt>
      <trkpt lat="47.49336" lon="6.75105">
        <ele>337</ele>
        <time>2016-09-25T07:39:10.000Z</time>
      </trkpt>
      <trkpt lat="47.49338" lon="6.75099">
        <ele>337</ele>
        <time>2016-09-25T07:39:11.000Z</time>
      </trkpt>
      <trkpt lat="47.49339" lon="6.75085">
        <ele>338</ele>
        <time>2016-09-25T07:39:12.000Z</time>
      </trkpt>
      <trkpt lat="47.49341" lon="6.75082">
        <ele>338</ele>
        <time>2016-09-25T07:39:13.000Z</time>
      </trkpt>
      <trkpt lat="47.49342" lon="6.75079">
        <ele>338</ele>
        <time>2016-09-25T07:39:14.000Z</time>
      </trkpt>
      <trkpt lat="47.49342" lon="6.75067">
        <ele>338</ele>
        <time>2016-09-25T07:39:15.000Z</time>
      </trkpt>
      <trkpt lat="47.49343" lon="6.75068">
        <ele>338</ele>
        <time>2016-09-25T07:39:16.000Z</time>
      </trkpt>
      <trkpt lat="47.49343" lon="6.75057">
        <ele>338</ele>
        <time>2016-09-25T07:39:17.000Z</time>
      </trkpt>
      <trkpt lat="47.49343" lon="6.75052">
        <ele>338</ele>
        <time>2016-09-25T07:39:19.000Z</time>
      </trkpt>
      <trkpt lat="47.49343" lon="6.75049">
        <ele>339</ele>
        <time>2016-09-25T07:39:20.000Z</time>
      </trkpt>
      <trkpt lat="47.49343" lon="6.75043">
        <ele>339</ele>
        <time>2016-09-25T07:39:23.000Z</time>
      </trkpt>
      <trkpt lat="47.49343" lon="6.75041">
        <ele>339</ele>
        <time>2016-09-25T07:39:24.000Z</time>
      </trkpt>
      <trkpt lat="47.49342" lon="6.75037">
        <ele>339</ele>
        <time>2016-09-25T07:39:26.000Z</time>
      </trkpt>
      <trkpt lat="47.49342" lon="6.75035">
        <ele>339</ele>
        <time>2016-09-25T07:39:27.000Z</time>
      </trkpt>
      <trkpt lat="47.49341" lon="6.75031">
        <ele>339</ele>
        <time>2016-09-25T07:39:28.000Z</time>
      </trkpt>
      <trkpt lat="47.49341" lon="6.75027">
        <ele>340</ele>
        <time>2016-09-25T07:39:29.000Z</time>
      </trkpt>
      <trkpt lat="47.49341" lon="6.75023">
        <ele>340</ele>
        <time>2016-09-25T07:39:30.000Z</time>
      </trkpt>
      <trkpt lat="47.49342" lon="6.75019">
        <ele>340</ele>
        <time>2016-09-25T07:39:31.000Z</time>
      </trkpt>
      <trkpt lat="47.49343" lon="6.75013">
        <ele>341</ele>
        <time>2016-09-25T07:39:33.000Z</time>
      </trkpt>
      <trkpt lat="47.49343" lon="6.75011">
        <ele>341</ele>
        <time>2016-09-25T07:39:34.000Z</time>
      </trkpt>
      <trkpt lat="47.49344" lon="6.75006">
        <ele>341</ele>
        <time>2016-09-25T07:39:36.000Z</time>
      </trkpt>
      <trkpt lat="47.49344" lon="6.75003">
        <ele>341</ele>
        <time>2016-09-25T07:39:37.000Z</time>
      </trkpt>
      <trkpt lat="47.49344" lon="6.74997">
        <ele>342</ele>
        <time>2016-09-25T07:39:39.000Z</time>
      </trkpt>
      <trkpt lat="47.49344" lon="6.74994">
        <ele>342</ele>
        <time>2016-09-25T07:39:40.000Z</time>
      </trkpt>
      <trkpt lat="47.49344" lon="6.74988">
        <ele>342</ele>
        <time>2016-09-25T07:39:42.000Z</time>
      </trkpt>
      <trkpt lat="47.49345" lon="6.74985">
        <ele>342</ele>
        <time>2016-09-25T07:39:43.000Z</time>
      </trkpt>
      <trkpt lat="47.49346" lon="6.74982">
        <ele>342</ele>
        <time>2016-09-25T07:39:44.000Z</time>
      </trkpt>
      <trkpt lat="47.49346" lon="6.74978">
        <ele>341</ele>
        <time>2016-09-25T07:39:45.000Z</time>
      </trkpt>
      <trkpt lat="47.49347" lon="6.74974">
        <ele>341</ele>
        <time>2016-09-25T07:39:46.000Z</time>
      </trkpt>
      <trkpt lat="47.49347" lon="6.7497">
        <ele>341</ele>
        <time>2016-09-25T07:39:47.000Z</time>
      </trkpt>
      <trkpt lat="47.49347" lon="6.74966">
        <ele>341</ele>
        <time>2016-09-25T07:39:48.000Z</time>
      </trkpt>
      <trkpt lat="47.49347" lon="6.74962">
        <ele>342</ele>
        <time>2016-09-25T07:39:49.000Z</time>
      </trkpt>
      <trkpt lat="47.49347" lon="6.74957">
        <ele>342</ele>
        <time>2016-09-25T07:39:50.000Z</time>
      </trkpt>
      <trkpt lat="47.49347" lon="6.74953">
        <ele>342</ele>
        <time>2016-09-25T07:39:51.000Z</time>
      </trkpt>
      <trkpt lat="47.49347" lon="6.74946">
        <ele>342</ele>
        <time>2016-09-25T07:39:53.000Z</time>
      </trkpt>
      <trkpt lat="47.49348" lon="6.74944">
        <ele>342</ele>
        <time>2016-09-25T07:39:54.000Z</time>
      </trkpt>
      <trkpt lat="47.49349" lon="6.74941">
        <ele>342</ele>
        <time>2016-09-25T07:39:55.000Z</time>
      </trkpt>
      <trkpt lat="47.49351" lon="6.74938">
        <ele>343</ele>
        <time>2016-09-25T07:39:56.000Z</time>
      </trkpt>
      <trkpt lat="47.49352" lon="6.74934">
        <ele>343</ele>
        <time>2016-09-25T07:39:57.000Z</time>
      </trkpt>
      <trkpt lat="47.49354" lon="6.7493">
        <ele>343</ele>
        <time>2016-09-25T07:39:58.000Z</time>
      </trkpt>
      <trkpt lat="47.49354" lon="6.74926">
        <ele>343</ele>
        <time>2016-09-25T07:39:59.000Z</time>
      </trkpt>
      <trkpt lat="47.49355" lon="6.74923">
        <ele>343</ele>
        <time>2016-09-25T07:40:00.000Z</time>
      </trkpt>
      <trkpt lat="47.49357" lon="6.74921">
        <ele>343</ele>
        <time>2016-09-25T07:40:01.000Z</time>
      </trkpt>
      <trkpt lat="47.49359" lon="6.74919">
        <ele>342</ele>
        <time>2016-09-25T07:40:02.000Z</time>
      </trkpt>
      <trkpt lat="47.49362" lon="6.74917">
        <ele>343</ele>
        <time>2016-09-25T07:40:03.000Z</time>
      </trkpt>
      <trkpt lat="47.49365" lon="6.74914">
        <ele>342</ele>
        <time>2016-09-25T07:40:04.000Z</time>
      </trkpt>
      <trkpt lat="47.49367" lon="6.74912">
        <ele>342</ele>
        <time>2016-09-25T07:40:05.000Z</time>
      </trkpt>
      <trkpt lat="47.49369" lon="6.7491">
        <ele>342</ele>
        <time>2016-09-25T07:40:06.000Z</time>
      </trkpt>
      <trkpt lat="47.49372" lon="6.74905">
        <ele>341</ele>
        <time>2016-09-25T07:40:08.000Z</time>
      </trkpt>
      <trkpt lat="47.49373" lon="6.74902">
        <ele>341</ele>
        <time>2016-09-25T07:40:09.000Z</time>
      </trkpt>
      <trkpt lat="47.49375" lon="6.74899">
        <ele>341</ele>
        <time>2016-09-25T07:40:10.000Z</time>
      </trkpt>
      <trkpt lat="47.49376" lon="6.74896">
        <ele>341</ele>
        <time>2016-09-25T07:40:11.000Z</time>
      </trkpt>
      <trkpt lat="47.49377" lon="6.74893">
        <ele>341</ele>
        <time>2016-09-25T07:40:12.000Z</time>
      </trkpt>
      <trkpt lat="47.49379" lon="6.74888">
        <ele>341</ele>
        <time>2016-09-25T07:40:13.000Z</time>
      </trkpt>
      <trkpt lat="47.49379" lon="6.74885">
        <ele>341</ele>
        <time>2016-09-25T07:40:14.000Z</time>
      </trkpt>
      <trkpt lat="47.4938" lon="6.74881">
        <ele>341</ele>
        <time>2016-09-25T07:40:15.000Z</time>
      </trkpt>
      <trkpt lat="47.49381" lon="6.74877">
        <ele>340</ele>
        <time>2016-09-25T07:40:16.000Z</time>
      </trkpt>
      <trkpt lat="47.49382" lon="6.74873">
        <ele>340</ele>
        <time>2016-09-25T07:40:17.000Z</time>
      </trkpt>
      <trkpt lat="47.49383" lon="6.74868">
        <ele>340</ele>
        <time>2016-09-25T07:40:18.000Z</time>
      </trkpt>
      <trkpt lat="47.49383" lon="6.74863">
        <ele>340</ele>
        <time>2016-09-25T07:40:19.000Z</time>
      </trkpt>
      <trkpt lat="47.49385" lon="6.74858">
        <ele>340</ele>
        <time>2016-09-25T07:40:20.000Z</time>
      </trkpt>
      <trkpt lat="47.49386" lon="6.74853">
        <ele>340</ele>
        <time>2016-09-25T07:40:21.000Z</time>
      </trkpt>
      <trkpt lat="47.49387" lon="6.74847">
        <ele>340</ele>
        <time>2016-09-25T07:40:22.000Z</time>
      </trkpt>
      <trkpt lat="47.49388" lon="6.74842">
        <ele>339</ele>
        <time>2016-09-25T07:40:23.000Z</time>
      </trkpt>
      <trkpt lat="47.4939" lon="6.74837">
        <ele>339</ele>
        <time>2016-09-25T07:40:24.000Z</time>
      </trkpt>
      <trkpt lat="47.49391" lon="6.74834">
        <ele>339</ele>
        <time>2016-09-25T07:40:25.000Z</time>
      </trkpt>
      <trkpt lat="47.49393" lon="6.74828">
        <ele>341</ele>
        <time>2016-09-25T07:40:27.000Z</time>
      </trkpt>
      <trkpt lat="47.49394" lon="6.74826">
        <ele>341</ele>
        <time>2016-09-25T07:40:28.000Z</time>
      </trkpt>
      <trkpt lat="47.49395" lon="6.74822">
        <ele>341</ele>
        <time>2016-09-25T07:40:29.000Z</time>
      </trkpt>
      <trkpt lat="47.49397" lon="6.74818">
        <ele>341</ele>
        <time>2016-09-25T07:40:30.000Z</time>
      </trkpt>
      <trkpt lat="47.49398" lon="6.74814">
        <ele>341</ele>
        <time>2016-09-25T07:40:31.000Z</time>
      </trkpt>
      <trkpt lat="47.49399" lon="6.7481">
        <ele>341</ele>
        <time>2016-09-25T07:40:32.000Z</time>
      </trkpt>
      <trkpt lat="47.494" lon="6.74804">
        <ele>341</ele>
        <time>2016-09-25T07:40:33.000Z</time>
      </trkpt>
      <trkpt lat="47.49399" lon="6.74796">
        <ele>342</ele>
        <time>2016-09-25T07:40:34.000Z</time>
      </trkpt>
      <trkpt lat="47.49396" lon="6.74764">
        <ele>343</ele>
        <time>2016-09-25T07:40:35.000Z</time>
      </trkpt>
      <trkpt lat="47.49396" lon="6.74758">
        <ele>343</ele>
        <time>2016-09-25T07:40:36.000Z</time>
      </trkpt>
      <trkpt lat="47.49396" lon="6.74752">
        <ele>343</ele>
        <time>2016-09-25T07:40:37.000Z</time>
      </trkpt>
      <trkpt lat="47.49396" lon="6.74747">
        <ele>345</ele>
        <time>2016-09-25T07:40:38.000Z</time>
      </trkpt>
      <trkpt lat="47.49397" lon="6.74742">
        <ele>345</ele>
        <time>2016-09-25T07:40:39.000Z</time>
      </trkpt>
      <trkpt lat="47.49397" lon="6.74737">
        <ele>345</ele>
        <time>2016-09-25T07:40:40.000Z</time>
      </trkpt>
      <trkpt lat="47.49398" lon="6.74732">
        <ele>345</ele>
        <time>2016-09-25T07:40:41.000Z</time>
      </trkpt>
      <trkpt lat="47.49398" lon="6.74726">
        <ele>346</ele>
        <time>2016-09-25T07:40:42.000Z</time>
      </trkpt>
      <trkpt lat="47.49399" lon="6.74719">
        <ele>346</ele>
        <time>2016-09-25T07:40:43.000Z</time>
      </trkpt>
      <trkpt lat="47.494" lon="6.74712">
        <ele>346</ele>
        <time>2016-09-25T07:40:44.000Z</time>
      </trkpt>
      <trkpt lat="47.49401" lon="6.74705">
        <ele>346</ele>
        <time>2016-09-25T07:40:45.000Z</time>
      </trkpt>
      <trkpt lat="47.49401" lon="6.74699">
        <ele>346</ele>
        <time>2016-09-25T07:40:46.000Z</time>
      </trkpt>
      <trkpt lat="47.49403" lon="6.74693">
        <ele>346</ele>
        <time>2016-09-25T07:40:47.000Z</time>
      </trkpt>
      <trkpt lat="47.49405" lon="6.74688">
        <ele>345</ele>
        <time>2016-09-25T07:40:48.000Z</time>
      </trkpt>
      <trkpt lat="47.49407" lon="6.74683">
        <ele>344</ele>
        <time>2016-09-25T07:40:49.000Z</time>
      </trkpt>
      <trkpt lat="47.4941" lon="6.74679">
        <ele>344</ele>
        <time>2016-09-25T07:40:50.000Z</time>
      </trkpt>
      <trkpt lat="47.49412" lon="6.74676">
        <ele>343</ele>
        <time>2016-09-25T07:40:51.000Z</time>
      </trkpt>
      <trkpt lat="47.49415" lon="6.74674">
        <ele>342</ele>
        <time>2016-09-25T07:40:52.000Z</time>
      </trkpt>
      <trkpt lat="47.49417" lon="6.74669">
        <ele>340</ele>
        <time>2016-09-25T07:40:53.000Z</time>
      </trkpt>
      <trkpt lat="47.49419" lon="6.74665">
        <ele>340</ele>
        <time>2016-09-25T07:40:54.000Z</time>
      </trkpt>
      <trkpt lat="47.4942" lon="6.7466">
        <ele>340</ele>
        <time>2016-09-25T07:40:55.000Z</time>
      </trkpt>
      <trkpt lat="47.4942" lon="6.74655">
        <ele>340</ele>
        <time>2016-09-25T07:40:56.000Z</time>
      </trkpt>
      <trkpt lat="47.49421" lon="6.7465">
        <ele>341</ele>
        <time>2016-09-25T07:40:57.000Z</time>
      </trkpt>
      <trkpt lat="47.49421" lon="6.74644">
        <ele>341</ele>
        <time>2016-09-25T07:40:58.000Z</time>
      </trkpt>
      <trkpt lat="47.49421" lon="6.74639">
        <ele>341</ele>
        <time>2016-09-25T07:40:59.000Z</time>
      </trkpt>
      <trkpt lat="47.49421" lon="6.74633">
        <ele>341</ele>
        <time>2016-09-25T07:41:00.000Z</time>
      </trkpt>
      <trkpt lat="47.4942" lon="6.74628">
        <ele>341</ele>
        <time>2016-09-25T07:41:01.000Z</time>
      </trkpt>
      <trkpt lat="47.4942" lon="6.74621">
        <ele>341</ele>
        <time>2016-09-25T07:41:02.000Z</time>
      </trkpt>
      <trkpt lat="47.49419" lon="6.74616">
        <ele>341</ele>
        <time>2016-09-25T07:41:03.000Z</time>
      </trkpt>
      <trkpt lat="47.49418" lon="6.7461">
        <ele>342</ele>
        <time>2016-09-25T07:41:04.000Z</time>
      </trkpt>
      <trkpt lat="47.49418" lon="6.74605">
        <ele>342</ele>
        <time>2016-09-25T07:41:05.000Z</time>
      </trkpt>
      <trkpt lat="47.49418" lon="6.74601">
        <ele>342</ele>
        <time>2016-09-25T07:41:06.000Z</time>
      </trkpt>
      <trkpt lat="47.49418" lon="6.74597">
        <ele>342</ele>
        <time>2016-09-25T07:41:07.000Z</time>
      </trkpt>
      <trkpt lat="47.49419" lon="6.74593">
        <ele>342</ele>
        <time>2016-09-25T07:41:08.000Z</time>
      </trkpt>
      <trkpt lat="47.4942" lon="6.74589">
        <ele>342</ele>
        <time>2016-09-25T07:41:09.000Z</time>
      </trkpt>
      <trkpt lat="47.49421" lon="6.74583">
        <ele>342</ele>
        <time>2016-09-25T07:41:10.000Z</time>
      </trkpt>
      <trkpt lat="47.49422" lon="6.74576">
        <ele>344</ele>
        <time>2016-09-25T07:41:11.000Z</time>
      </trkpt>
      <trkpt lat="47.49423" lon="6.74568">
        <ele>345</ele>
        <time>2016-09-25T07:41:12.000Z</time>
      </trkpt>
      <trkpt lat="47.49424" lon="6.7456">
        <ele>346</ele>
        <time>2016-09-25T07:41:13.000Z</time>
      </trkpt>
      <trkpt lat="47.49425" lon="6.74552">
        <ele>347</ele>
        <time>2016-09-25T07:41:14.000Z</time>
      </trkpt>
      <trkpt lat="47.49425" lon="6.74545">
        <ele>347</ele>
        <time>2016-09-25T07:41:15.000Z</time>
      </trkpt>
      <trkpt lat="47.49425" lon="6.74538">
        <ele>348</ele>
        <time>2016-09-25T07:41:16.000Z</time>
      </trkpt>
      <trkpt lat="47.49426" lon="6.74532">
        <ele>348</ele>
        <time>2016-09-25T07:41:17.000Z</time>
      </trkpt>
      <trkpt lat="47.49425" lon="6.74525">
        <ele>348</ele>
        <time>2016-09-25T07:41:18.000Z</time>
      </trkpt>
      <trkpt lat="47.49425" lon="6.74519">
        <ele>348</ele>
        <time>2016-09-25T07:41:19.000Z</time>
      </trkpt>
      <trkpt lat="47.49425" lon="6.74512">
        <ele>348</ele>
        <time>2016-09-25T07:41:20.000Z</time>
      </trkpt>
      <trkpt lat="47.49425" lon="6.74507">
        <ele>348</ele>
        <time>2016-09-25T07:41:21.000Z</time>
      </trkpt>
      <trkpt lat="47.49424" lon="6.74501">
        <ele>348</ele>
        <time>2016-09-25T07:41:22.000Z</time>
      </trkpt>
      <trkpt lat="47.49424" lon="6.74495">
        <ele>349</ele>
        <time>2016-09-25T07:41:23.000Z</time>
      </trkpt>
      <trkpt lat="47.49424" lon="6.7449">
        <ele>350</ele>
        <time>2016-09-25T07:41:24.000Z</time>
      </trkpt>
      <trkpt lat="47.49423" lon="6.74483">
        <ele>351</ele>
        <time>2016-09-25T07:41:25.000Z</time>
      </trkpt>
      <trkpt lat="47.49423" lon="6.74476">
        <ele>351</ele>
        <time>2016-09-25T07:41:26.000Z</time>
      </trkpt>
      <trkpt lat="47.49424" lon="6.74469">
        <ele>352</ele>
        <time>2016-09-25T07:41:27.000Z</time>
      </trkpt>
      <trkpt lat="47.49425" lon="6.74461">
        <ele>352</ele>
        <time>2016-09-25T07:41:28.000Z</time>
      </trkpt>
      <trkpt lat="47.49426" lon="6.74453">
        <ele>352</ele>
        <time>2016-09-25T07:41:29.000Z</time>
      </trkpt>
      <trkpt lat="47.49427" lon="6.74446">
        <ele>352</ele>
        <time>2016-09-25T07:41:30.000Z</time>
      </trkpt>
      <trkpt lat="47.49428" lon="6.74439">
        <ele>351</ele>
        <time>2016-09-25T07:41:31.000Z</time>
      </trkpt>
      <trkpt lat="47.49428" lon="6.74432">
        <ele>351</ele>
        <time>2016-09-25T07:41:32.000Z</time>
      </trkpt>
      <trkpt lat="47.49429" lon="6.74424">
        <ele>350</ele>
        <time>2016-09-25T07:41:33.000Z</time>
      </trkpt>
      <trkpt lat="47.49429" lon="6.74417">
        <ele>349</ele>
        <time>2016-09-25T07:41:34.000Z</time>
      </trkpt>
      <trkpt lat="47.49429" lon="6.7441">
        <ele>350</ele>
        <time>2016-09-25T07:41:35.000Z</time>
      </trkpt>
      <trkpt lat="47.4943" lon="6.74404">
        <ele>350</ele>
        <time>2016-09-25T07:41:36.000Z</time>
      </trkpt>
      <trkpt lat="47.49431" lon="6.74399">
        <ele>351</ele>
        <time>2016-09-25T07:41:37.000Z</time>
      </trkpt>
      <trkpt lat="47.49431" lon="6.74394">
        <ele>351</ele>
        <time>2016-09-25T07:41:38.000Z</time>
      </trkpt>
      <trkpt lat="47.49432" lon="6.74389">
        <ele>351</ele>
        <time>2016-09-25T07:41:39.000Z</time>
      </trkpt>
      <trkpt lat="47.49434" lon="6.74385">
        <ele>352</ele>
        <time>2016-09-25T07:41:40.000Z</time>
      </trkpt>
      <trkpt lat="47.49435" lon="6.7438">
        <ele>352</ele>
        <time>2016-09-25T07:41:41.000Z</time>
      </trkpt>
      <trkpt lat="47.49435" lon="6.74376">
        <ele>352</ele>
        <time>2016-09-25T07:41:42.000Z</time>
      </trkpt>
      <trkpt lat="47.49436" lon="6.74372">
        <ele>352</ele>
        <time>2016-09-25T07:41:43.000Z</time>
      </trkpt>
      <trkpt lat="47.49436" lon="6.74368">
        <ele>352</ele>
        <time>2016-09-25T07:41:44.000Z</time>
      </trkpt>
      <trkpt lat="47.49435" lon="6.74365">
        <ele>352</ele>
        <time>2016-09-25T07:41:45.000Z</time>
      </trkpt>
      <trkpt lat="47.49434" lon="6.74361">
        <ele>351</ele>
        <time>2016-09-25T07:41:46.000Z</time>
      </trkpt>
      <trkpt lat="47.49433" lon="6.74355">
        <ele>351</ele>
        <time>2016-09-25T07:41:47.000Z</time>
      </trkpt>
      <trkpt lat="47.49432" lon="6.74349">
        <ele>350</ele>
        <time>2016-09-25T07:41:48.000Z</time>
      </trkpt>
      <trkpt lat="47.49431" lon="6.74342">
        <ele>349</ele>
        <time>2016-09-25T07:41:49.000Z</time>
      </trkpt>
      <trkpt lat="47.49431" lon="6.74335">
        <ele>349</ele>
        <time>2016-09-25T07:41:50.000Z</time>
      </trkpt>
      <trkpt lat="47.49431" lon="6.74328">
        <ele>349</ele>
        <time>2016-09-25T07:41:51.000Z</time>
      </trkpt>
      <trkpt lat="47.4943" lon="6.74323">
        <ele>349</ele>
        <time>2016-09-25T07:41:52.000Z</time>
      </trkpt>
      <trkpt lat="47.4943" lon="6.74319">
        <ele>349</ele>
        <time>2016-09-25T07:41:53.000Z</time>
      </trkpt>
      <trkpt lat="47.4943" lon="6.74314">
        <ele>350</ele>
        <time>2016-09-25T07:41:54.000Z</time>
      </trkpt>
      <trkpt lat="47.49431" lon="6.74309">
        <ele>350</ele>
        <time>2016-09-25T07:41:55.000Z</time>
      </trkpt>
      <trkpt lat="47.49433" lon="6.74303">
        <ele>350</ele>
        <time>2016-09-25T07:41:56.000Z</time>
      </trkpt>
      <trkpt lat="47.49434" lon="6.74297">
        <ele>351</ele>
        <time>2016-09-25T07:41:57.000Z</time>
      </trkpt>
      <trkpt lat="47.49436" lon="6.74293">
        <ele>351</ele>
        <time>2016-09-25T07:41:58.000Z</time>
      </trkpt>
      <trkpt lat="47.49438" lon="6.74288">
        <ele>351</ele>
        <time>2016-09-25T07:42:00.000Z</time>
      </trkpt>
      <trkpt lat="47.49439" lon="6.74286">
        <ele>351</ele>
        <time>2016-09-25T07:42:01.000Z</time>
      </trkpt>
      <trkpt lat="47.49441" lon="6.74283">
        <ele>351</ele>
        <time>2016-09-25T07:42:02.000Z</time>
      </trkpt>
      <trkpt lat="47.49441" lon="6.74279">
        <ele>351</ele>
        <time>2016-09-25T07:42:03.000Z</time>
      </trkpt>
      <trkpt lat="47.49442" lon="6.74273">
        <ele>351</ele>
        <time>2016-09-25T07:42:04.000Z</time>
      </trkpt>
      <trkpt lat="47.49442" lon="6.74267">
        <ele>351</ele>
        <time>2016-09-25T07:42:05.000Z</time>
      </trkpt>
      <trkpt lat="47.49442" lon="6.74262">
        <ele>351</ele>
        <time>2016-09-25T07:42:06.000Z</time>
      </trkpt>
      <trkpt lat="47.49442" lon="6.74255">
        <ele>350</ele>
        <time>2016-09-25T07:42:07.000Z</time>
      </trkpt>
      <trkpt lat="47.49442" lon="6.74249">
        <ele>350</ele>
        <time>2016-09-25T07:42:08.000Z</time>
      </trkpt>
      <trkpt lat="47.49442" lon="6.74243">
        <ele>350</ele>
        <time>2016-09-25T07:42:09.000Z</time>
      </trkpt>
      <trkpt lat="47.49442" lon="6.74235">
        <ele>350</ele>
        <time>2016-09-25T07:42:10.000Z</time>
      </trkpt>
      <trkpt lat="47.49442" lon="6.74227">
        <ele>351</ele>
        <time>2016-09-25T07:42:11.000Z</time>
      </trkpt>
      <trkpt lat="47.49443" lon="6.74195">
        <ele>351</ele>
        <time>2016-09-25T07:42:12.000Z</time>
      </trkpt>
      <trkpt lat="47.49444" lon="6.7419">
        <ele>351</ele>
        <time>2016-09-25T07:42:13.000Z</time>
      </trkpt>
      <trkpt lat="47.49444" lon="6.74184">
        <ele>351</ele>
        <time>2016-09-25T07:42:14.000Z</time>
      </trkpt>
      <trkpt lat="47.49444" lon="6.74177">
        <ele>351</ele>
        <time>2016-09-25T07:42:15.000Z</time>
      </trkpt>
      <trkpt lat="47.49443" lon="6.74172">
        <ele>350</ele>
        <time>2016-09-25T07:42:16.000Z</time>
      </trkpt>
      <trkpt lat="47.49442" lon="6.74165">
        <ele>350</ele>
        <time>2016-09-25T07:42:17.000Z</time>
      </trkpt>
      <trkpt lat="47.49441" lon="6.7416">
        <ele>350</ele>
        <time>2016-09-25T07:42:18.000Z</time>
      </trkpt>
      <trkpt lat="47.4944" lon="6.74155">
        <ele>350</ele>
        <time>2016-09-25T07:42:19.000Z</time>
      </trkpt>
      <trkpt lat="47.49438" lon="6.74151">
        <ele>350</ele>
        <time>2016-09-25T07:42:20.000Z</time>
      </trkpt>
      <trkpt lat="47.49437" lon="6.74146">
        <ele>350</ele>
        <time>2016-09-25T07:42:21.000Z</time>
      </trkpt>
      <trkpt lat="47.49435" lon="6.74141">
        <ele>350</ele>
        <time>2016-09-25T07:42:22.000Z</time>
      </trkpt>
      <trkpt lat="47.49434" lon="6.74136">
        <ele>350</ele>
        <time>2016-09-25T07:42:23.000Z</time>
      </trkpt>
      <trkpt lat="47.49434" lon="6.74131">
        <ele>350</ele>
        <time>2016-09-25T07:42:24.000Z</time>
      </trkpt>
      <trkpt lat="47.49435" lon="6.74126">
        <ele>350</ele>
        <time>2016-09-25T07:42:25.000Z</time>
      </trkpt>
      <trkpt lat="47.49436" lon="6.74123">
        <ele>351</ele>
        <time>2016-09-25T07:42:26.000Z</time>
      </trkpt>
      <trkpt lat="47.49436" lon="6.74117">
        <ele>351</ele>
        <time>2016-09-25T07:42:28.000Z</time>
      </trkpt>
      <trkpt lat="47.49436" lon="6.74114">
        <ele>351</ele>
        <time>2016-09-25T07:42:29.000Z</time>
      </trkpt>
      <trkpt lat="47.49436" lon="6.74111">
        <ele>350</ele>
        <time>2016-09-25T07:42:30.000Z</time>
      </trkpt>
      <trkpt lat="47.49436" lon="6.74107">
        <ele>350</ele>
        <time>2016-09-25T07:42:31.000Z</time>
      </trkpt>
      <trkpt lat="47.49436" lon="6.74103">
        <ele>350</ele>
        <time>2016-09-25T07:42:32.000Z</time>
      </trkpt>
      <trkpt lat="47.49436" lon="6.74099">
        <ele>350</ele>
        <time>2016-09-25T07:42:33.000Z</time>
      </trkpt>
      <trkpt lat="47.49436" lon="6.74094">
        <ele>350</ele>
        <time>2016-09-25T07:42:34.000Z</time>
      </trkpt>
      <trkpt lat="47.49435" lon="6.74089">
        <ele>350</ele>
        <time>2016-09-25T07:42:35.000Z</time>
      </trkpt>
      <trkpt lat="47.49434" lon="6.74085">
        <ele>350</ele>
        <time>2016-09-25T07:42:36.000Z</time>
      </trkpt>
      <trkpt lat="47.49433" lon="6.74081">
        <ele>349</ele>
        <time>2016-09-25T07:42:37.000Z</time>
      </trkpt>
      <trkpt lat="47.49433" lon="6.74075">
        <ele>349</ele>
        <time>2016-09-25T07:42:39.000Z</time>
      </trkpt>
      <trkpt lat="47.49433" lon="6.74071">
        <ele>349</ele>
        <time>2016-09-25T07:42:40.000Z</time>
      </trkpt>
      <trkpt lat="47.49433" lon="6.74067">
        <ele>350</ele>
        <time>2016-09-25T07:42:41.000Z</time>
      </trkpt>
      <trkpt lat="47.49432" lon="6.74062">
        <ele>350</ele>
        <time>2016-09-25T07:42:42.000Z</time>
      </trkpt>
      <trkpt lat="47.49432" lon="6.74057">
        <ele>350</ele>
        <time>2016-09-25T07:42:43.000Z</time>
      </trkpt>
      <trkpt lat="47.49431" lon="6.74054">
        <ele>350</ele>
        <time>2016-09-25T07:42:44.000Z</time>
      </trkpt>
      <trkpt lat="47.49431" lon="6.74048">
        <ele>350</ele>
        <time>2016-09-25T07:42:46.000Z</time>
      </trkpt>
      <trkpt lat="47.4943" lon="6.74045">
        <ele>350</ele>
        <time>2016-09-25T07:42:47.000Z</time>
      </trkpt>
      <trkpt lat="47.49429" lon="6.74042">
        <ele>350</ele>
        <time>2016-09-25T07:42:48.000Z</time>
      </trkpt>
      <trkpt lat="47.49427" lon="6.7404">
        <ele>350</ele>
        <time>2016-09-25T07:42:49.000Z</time>
      </trkpt>
      <trkpt lat="47.49425" lon="6.74037">
        <ele>350</ele>
        <time>2016-09-25T07:42:50.000Z</time>
      </trkpt>
      <trkpt lat="47.49423" lon="6.74035">
        <ele>350</ele>
        <time>2016-09-25T07:42:51.000Z</time>
      </trkpt>
      <trkpt lat="47.4942" lon="6.7403">
        <ele>350</ele>
        <time>2016-09-25T07:42:53.000Z</time>
      </trkpt>
      <trkpt lat="47.49419" lon="6.74029">
        <ele>350</ele>
        <time>2016-09-25T07:42:54.000Z</time>
      </trkpt>
      <trkpt lat="47.49416" lon="6.74027">
        <ele>353</ele>
        <time>2016-09-25T07:42:56.000Z</time>
      </trkpt>
      <trkpt lat="47.49413" lon="6.74026">
        <ele>353</ele>
        <time>2016-09-25T07:42:57.000Z</time>
      </trkpt>
      <trkpt lat="47.4941" lon="6.74021">
        <ele>353</ele>
        <time>2016-09-25T07:43:35.000Z</time>
      </trkpt>
      <trkpt lat="47.49409" lon="6.74021">
        <ele>353</ele>
        <time>2016-09-25T07:43:36.000Z</time>
      </trkpt>
      <trkpt lat="47.49411" lon="6.74015">
        <ele>352</ele>
        <time>2016-09-25T07:43:38.000Z</time>
      </trkpt>
      <trkpt lat="47.49412" lon="6.74011">
        <ele>352</ele>
        <time>2016-09-25T07:43:39.000Z</time>
      </trkpt>
      <trkpt lat="47.49412" lon="6.74006">
        <ele>351</ele>
        <time>2016-09-25T07:43:40.000Z</time>
      </trkpt>
      <trkpt lat="47.49412" lon="6.73999">
        <ele>350</ele>
        <time>2016-09-25T07:43:41.000Z</time>
      </trkpt>
      <trkpt lat="47.49412" lon="6.73994">
        <ele>350</ele>
        <time>2016-09-25T07:43:42.000Z</time>
      </trkpt>
      <trkpt lat="47.49411" lon="6.73988">
        <ele>351</ele>
        <time>2016-09-25T07:43:43.000Z</time>
      </trkpt>
      <trkpt lat="47.4941" lon="6.73982">
        <ele>351</ele>
        <time>2016-09-25T07:43:44.000Z</time>
      </trkpt>
      <trkpt lat="47.4941" lon="6.73976">
        <ele>352</ele>
        <time>2016-09-25T07:43:45.000Z</time>
      </trkpt>
      <trkpt lat="47.4941" lon="6.73971">
        <ele>352</ele>
        <time>2016-09-25T07:43:46.000Z</time>
      </trkpt>
      <trkpt lat="47.4941" lon="6.73967">
        <ele>352</ele>
        <time>2016-09-25T07:43:47.000Z</time>
      </trkpt>
      <trkpt lat="47.49411" lon="6.73963">
        <ele>352</ele>
        <time>2016-09-25T07:43:48.000Z</time>
      </trkpt>
      <trkpt lat="47.49412" lon="6.7396">
        <ele>352</ele>
        <time>2016-09-25T07:43:49.000Z</time>
      </trkpt>
      <trkpt lat="47.49413" lon="6.73956">
        <ele>352</ele>
        <time>2016-09-25T07:43:50.000Z</time>
      </trkpt>
      <trkpt lat="47.49413" lon="6.73952">
        <ele>351</ele>
        <time>2016-09-25T07:43:51.000Z</time>
      </trkpt>
      <trkpt lat="47.49413" lon="6.73948">
        <ele>351</ele>
        <time>2016-09-25T07:43:52.000Z</time>
      </trkpt>
      <trkpt lat="47.49413" lon="6.73943">
        <ele>351</ele>
        <time>2016-09-25T07:43:53.000Z</time>
      </trkpt>
      <trkpt lat="47.49412" lon="6.73938">
        <ele>350</ele>
        <time>2016-09-25T07:43:54.000Z</time>
      </trkpt>
      <trkpt lat="47.49411" lon="6.73933">
        <ele>350</ele>
        <time>2016-09-25T07:43:55.000Z</time>
      </trkpt>
      <trkpt lat="47.4941" lon="6.73928">
        <ele>349</ele>
        <time>2016-09-25T07:43:56.000Z</time>
      </trkpt>
      <trkpt lat="47.49409" lon="6.73922">
        <ele>349</ele>
        <time>2016-09-25T07:43:57.000Z</time>
      </trkpt>
      <trkpt lat="47.49407" lon="6.73917">
        <ele>349</ele>
        <time>2016-09-25T07:43:58.000Z</time>
      </trkpt>
      <trkpt lat="47.49406" lon="6.73911">
        <ele>348</ele>
        <time>2016-09-25T07:43:59.000Z</time>
      </trkpt>
      <trkpt lat="47.49407" lon="6.73905">
        <ele>348</ele>
        <time>2016-09-25T07:44:00.000Z</time>
      </trkpt>
      <trkpt lat="47.49407" lon="6.73898">
        <ele>349</ele>
        <time>2016-09-25T07:44:01.000Z</time>
      </trkpt>
      <trkpt lat="47.49407" lon="6.73891">
        <ele>349</ele>
        <time>2016-09-25T07:44:02.000Z</time>
      </trkpt>
      <trkpt lat="47.49406" lon="6.73884">
        <ele>349</ele>
        <time>2016-09-25T07:44:03.000Z</time>
      </trkpt>
      <trkpt lat="47.49385" lon="6.73865">
        <ele>350</ele>
        <time>2016-09-25T07:44:04.000Z</time>
      </trkpt>
      <trkpt lat="47.4937" lon="6.73857">
        <ele>351</ele>
        <time>2016-09-25T07:44:05.000Z</time>
      </trkpt>
      <trkpt lat="47.49366" lon="6.73851">
        <ele>351</ele>
        <time>2016-09-25T07:44:06.000Z</time>
      </trkpt>
      <trkpt lat="47.49364" lon="6.73845">
        <ele>351</ele>
        <time>2016-09-25T07:44:07.000Z</time>
      </trkpt>
      <trkpt lat="47.49361" lon="6.7384">
        <ele>351</ele>
        <time>2016-09-25T07:44:08.000Z</time>
      </trkpt>
      <trkpt lat="47.49359" lon="6.73839">
        <ele>351</ele>
        <time>2016-09-25T07:44:09.000Z</time>
      </trkpt>
      <trkpt lat="47.49355" lon="6.73833">
        <ele>351</ele>
        <time>2016-09-25T07:44:10.000Z</time>
      </trkpt>
      <trkpt lat="47.49354" lon="6.73829">
        <ele>351</ele>
        <time>2016-09-25T07:44:11.000Z</time>
      </trkpt>
      <trkpt lat="47.49352" lon="6.73827">
        <ele>352</ele>
        <time>2016-09-25T07:44:12.000Z</time>
      </trkpt>
      <trkpt lat="47.49351" lon="6.73825">
        <ele>352</ele>
        <time>2016-09-25T07:44:13.000Z</time>
      </trkpt>
      <trkpt lat="47.49351" lon="6.7382">
        <ele>351</ele>
        <time>2016-09-25T07:44:14.000Z</time>
      </trkpt>
      <trkpt lat="47.49348" lon="6.73816">
        <ele>352</ele>
        <time>2016-09-25T07:44:17.000Z</time>
      </trkpt>
      <trkpt lat="47.49347" lon="6.73814">
        <ele>352</ele>
        <time>2016-09-25T07:44:18.000Z</time>
      </trkpt>
      <trkpt lat="47.49344" lon="6.73811">
        <ele>352</ele>
        <time>2016-09-25T07:44:20.000Z</time>
      </trkpt>
      <trkpt lat="47.49343" lon="6.73809">
        <ele>352</ele>
        <time>2016-09-25T07:44:21.000Z</time>
      </trkpt>
      <trkpt lat="47.49341" lon="6.73805">
        <ele>352</ele>
        <time>2016-09-25T07:44:23.000Z</time>
      </trkpt>
      <trkpt lat="47.49341" lon="6.73803">
        <ele>352</ele>
        <time>2016-09-25T07:44:24.000Z</time>
      </trkpt>
      <trkpt lat="47.49338" lon="6.73799">
        <ele>352</ele>
        <time>2016-09-25T07:44:27.000Z</time>
      </trkpt>
      <trkpt lat="47.49338" lon="6.73798">
        <ele>352</ele>
        <time>2016-09-25T07:44:28.000Z</time>
      </trkpt>
      <trkpt lat="47.49336" lon="6.73794">
        <ele>352</ele>
        <time>2016-09-25T07:44:30.000Z</time>
      </trkpt>
      <trkpt lat="47.49335" lon="6.73791">
        <ele>352</ele>
        <time>2016-09-25T07:44:31.000Z</time>
      </trkpt>
      <trkpt lat="47.49334" lon="6.73786">
        <ele>352</ele>
        <time>2016-09-25T07:44:33.000Z</time>
      </trkpt>
      <trkpt lat="47.49333" lon="6.73784">
        <ele>356</ele>
        <time>2016-09-25T07:44:34.000Z</time>
      </trkpt>
      <trkpt lat="47.49331" lon="6.7378">
        <ele>356</ele>
        <time>2016-09-25T07:44:38.000Z</time>
      </trkpt>
      <trkpt lat="47.4933" lon="6.73778">
        <ele>356</ele>
        <time>2016-09-25T07:44:39.000Z</time>
      </trkpt>
      <trkpt lat="47.4933" lon="6.73773">
        <ele>356</ele>
        <time>2016-09-25T07:44:41.000Z</time>
      </trkpt>
      <trkpt lat="47.4933" lon="6.7377">
        <ele>356</ele>
        <time>2016-09-25T07:44:42.000Z</time>
      </trkpt>
      <trkpt lat="47.49329" lon="6.73765">
        <ele>356</ele>
        <time>2016-09-25T07:44:44.000Z</time>
      </trkpt>
      <trkpt lat="47.49329" lon="6.73763">
        <ele>356</ele>
        <time>2016-09-25T07:44:45.000Z</time>
      </trkpt>
      <trkpt lat="47.4933" lon="6.73757">
        <ele>356</ele>
        <time>2016-09-25T07:44:48.000Z</time>
      </trkpt>
      <trkpt lat="47.4933" lon="6.73755">
        <ele>356</ele>
        <time>2016-09-25T07:44:49.000Z</time>
      </trkpt>
      <trkpt lat="47.49329" lon="6.73749">
        <ele>357</ele>
        <time>2016-09-25T07:44:52.000Z</time>
      </trkpt>
      <trkpt lat="47.49329" lon="6.73747">
        <ele>357</ele>
        <time>2016-09-25T07:44:53.000Z</time>
      </trkpt>
      <trkpt lat="47.49328" lon="6.73741">
        <ele>357</ele>
        <time>2016-09-25T07:44:56.000Z</time>
      </trkpt>
      <trkpt lat="47.49327" lon="6.73739">
        <ele>357</ele>
        <time>2016-09-25T07:44:57.000Z</time>
      </trkpt>
      <trkpt lat="47.49326" lon="6.73733">
        <ele>358</ele>
        <time>2016-09-25T07:45:00.000Z</time>
      </trkpt>
      <trkpt lat="47.49326" lon="6.73732">
        <ele>358</ele>
        <time>2016-09-25T07:45:01.000Z</time>
      </trkpt>
      <trkpt lat="47.49327" lon="6.73726">
        <ele>358</ele>
        <time>2016-09-25T07:45:04.000Z</time>
      </trkpt>
      <trkpt lat="47.49327" lon="6.73724">
        <ele>358</ele>
        <time>2016-09-25T07:45:05.000Z</time>
      </trkpt>
      <trkpt lat="47.49326" lon="6.73718">
        <ele>358</ele>
        <time>2016-09-25T07:45:08.000Z</time>
      </trkpt>
      <trkpt lat="47.49324" lon="6.73716">
        <ele>358</ele>
        <time>2016-09-25T07:45:09.000Z</time>
      </trkpt>
      <trkpt lat="47.49323" lon="6.73711">
        <ele>359</ele>
        <time>2016-09-25T07:45:12.000Z</time>
      </trkpt>
      <trkpt lat="47.49322" lon="6.7371">
        <ele>359</ele>
        <time>2016-09-25T07:45:13.000Z</time>
      </trkpt>
      <trkpt lat="47.49321" lon="6.73705">
        <ele>359</ele>
        <time>2016-09-25T07:45:16.000Z</time>
      </trkpt>
      <trkpt lat="47.49321" lon="6.73703">
        <ele>359</ele>
        <time>2016-09-25T07:45:17.000Z</time>
      </trkpt>
      <trkpt lat="47.49319" lon="6.73698">
        <ele>359</ele>
        <time>2016-09-25T07:45:21.000Z</time>
      </trkpt>
      <trkpt lat="47.49319" lon="6.73698">
        <ele>359</ele>
        <time>2016-09-25T07:45:22.000Z</time>
      </trkpt>
      <trkpt lat="47.49315" lon="6.73697">
        <ele>359</ele>
        <time>2016-09-25T07:45:37.000Z</time>
      </trkpt>
      <trkpt lat="47.49314" lon="6.73697">
        <ele>359</ele>
        <time>2016-09-25T07:45:38.000Z</time>
      </trkpt>
      <trkpt lat="47.4931" lon="6.737">
        <ele>359</ele>
        <time>2016-09-25T07:45:41.000Z</time>
      </trkpt>
      <trkpt lat="47.49309" lon="6.73701">
        <ele>359</ele>
        <time>2016-09-25T07:45:42.000Z</time>
      </trkpt>
      <trkpt lat="47.49308" lon="6.73706">
        <ele>359</ele>
        <time>2016-09-25T07:45:45.000Z</time>
      </trkpt>
      <trkpt lat="47.49307" lon="6.73707">
        <ele>359</ele>
        <time>2016-09-25T07:45:46.000Z</time>
      </trkpt>
      <trkpt lat="47.49306" lon="6.73714">
        <ele>359</ele>
        <time>2016-09-25T07:45:50.000Z</time>
      </trkpt>
      <trkpt lat="47.49305" lon="6.73715">
        <ele>359</ele>
        <time>2016-09-25T07:45:51.000Z</time>
      </trkpt>
      <trkpt lat="47.49302" lon="6.73718">
        <ele>359</ele>
        <time>2016-09-25T07:45:55.000Z</time>
      </trkpt>
      <trkpt lat="47.49301" lon="6.73718">
        <ele>359</ele>
        <time>2016-09-25T07:45:56.000Z</time>
      </trkpt>
      <trkpt lat="47.493" lon="6.73724">
        <ele>359</ele>
        <time>2016-09-25T07:46:12.000Z</time>
      </trkpt>
      <trkpt lat="47.49301" lon="6.73726">
        <ele>359</ele>
        <time>2016-09-25T07:46:13.000Z</time>
      </trkpt>
      <trkpt lat="47.49301" lon="6.73731">
        <ele>359</ele>
        <time>2016-09-25T07:46:14.000Z</time>
      </trkpt>
      <trkpt lat="47.493" lon="6.73736">
        <ele>359</ele>
        <time>2016-09-25T07:46:15.000Z</time>
      </trkpt>
      <trkpt lat="47.49299" lon="6.73743">
        <ele>359</ele>
        <time>2016-09-25T07:46:16.000Z</time>
      </trkpt>
      <trkpt lat="47.49299" lon="6.73749">
        <ele>359</ele>
        <time>2016-09-25T07:46:17.000Z</time>
      </trkpt>
      <trkpt lat="47.49298" lon="6.73753">
        <ele>357</ele>
        <time>2016-09-25T07:46:18.000Z</time>
      </trkpt>
      <trkpt lat="47.49297" lon="6.73757">
        <ele>357</ele>
        <time>2016-09-25T07:46:19.000Z</time>
      </trkpt>
      <trkpt lat="47.49294" lon="6.73762">
        <ele>357</ele>
        <time>2016-09-25T07:46:21.000Z</time>
      </trkpt>
      <trkpt lat="47.49293" lon="6.73764">
        <ele>357</ele>
        <time>2016-09-25T07:46:22.000Z</time>
      </trkpt>
      <trkpt lat="47.49291" lon="6.73769">
        <ele>357</ele>
        <time>2016-09-25T07:46:24.000Z</time>
      </trkpt>
      <trkpt lat="47.49291" lon="6.73772">
        <ele>357</ele>
        <time>2016-09-25T07:46:25.000Z</time>
      </trkpt>
      <trkpt lat="47.49291" lon="6.73775">
        <ele>357</ele>
        <time>2016-09-25T07:46:26.000Z</time>
      </trkpt>
      <trkpt lat="47.49292" lon="6.73779">
        <ele>357</ele>
        <time>2016-09-25T07:46:27.000Z</time>
      </trkpt>
      <trkpt lat="47.49294" lon="6.73783">
        <ele>357</ele>
        <time>2016-09-25T07:46:28.000Z</time>
      </trkpt>
      <trkpt lat="47.49296" lon="6.73786">
        <ele>357</ele>
        <time>2016-09-25T07:46:29.000Z</time>
      </trkpt>
      <trkpt lat="47.49297" lon="6.7379">
        <ele>357</ele>
        <time>2016-09-25T07:46:30.000Z</time>
      </trkpt>
      <trkpt lat="47.49299" lon="6.73793">
        <ele>357</ele>
        <time>2016-09-25T07:46:31.000Z</time>
      </trkpt>
      <trkpt lat="47.49302" lon="6.73796">
        <ele>356</ele>
        <time>2016-09-25T07:46:32.000Z</time>
      </trkpt>
      <trkpt lat="47.49304" lon="6.73799">
        <ele>356</ele>
        <time>2016-09-25T07:46:33.000Z</time>
      </trkpt>
      <trkpt lat="47.49306" lon="6.73802">
        <ele>356</ele>
        <time>2016-09-25T07:46:34.000Z</time>
      </trkpt>
      <trkpt lat="47.49307" lon="6.73804">
        <ele>356</ele>
        <time>2016-09-25T07:46:35.000Z</time>
      </trkpt>
      <trkpt lat="47.49308" lon="6.73809">
        <ele>356</ele>
        <time>2016-09-25T07:46:38.000Z</time>
      </trkpt>
      <trkpt lat="47.49308" lon="6.73812">
        <ele>356</ele>
        <time>2016-09-25T07:46:39.000Z</time>
      </trkpt>
      <trkpt lat="47.49308" lon="6.73815">
        <ele>356</ele>
        <time>2016-09-25T07:46:40.000Z</time>
      </trkpt>
      <trkpt lat="47.49308" lon="6.73819">
        <ele>356</ele>
        <time>2016-09-25T07:46:41.000Z</time>
      </trkpt>
      <trkpt lat="47.49308" lon="6.73822">
        <ele>356</ele>
        <time>2016-09-25T07:46:42.000Z</time>
      </trkpt>
      <trkpt lat="47.49309" lon="6.73826">
        <ele>356</ele>
        <time>2016-09-25T07:46:43.000Z</time>
      </trkpt>
      <trkpt lat="47.49311" lon="6.73831">
        <ele>356</ele>
        <time>2016-09-25T07:46:44.000Z</time>
      </trkpt>
      <trkpt lat="47.49313" lon="6.73835">
        <ele>357</ele>
        <time>2016-09-25T07:46:45.000Z</time>
      </trkpt>
      <trkpt lat="47.49316" lon="6.73839">
        <ele>356</ele>
        <time>2016-09-25T07:46:46.000Z</time>
      </trkpt>
      <trkpt lat="47.49318" lon="6.73843">
        <ele>356</ele>
        <time>2016-09-25T07:46:47.000Z</time>
      </trkpt>
      <trkpt lat="47.4932" lon="6.73846">
        <ele>356</ele>
        <time>2016-09-25T07:46:48.000Z</time>
      </trkpt>
      <trkpt lat="47.4932" lon="6.73849">
        <ele>357</ele>
        <time>2016-09-25T07:46:49.000Z</time>
      </trkpt>
      <trkpt lat="47.49321" lon="6.73855">
        <ele>357</ele>
        <time>2016-09-25T07:46:51.000Z</time>
      </trkpt>
      <trkpt lat="47.49322" lon="6.73858">
        <ele>357</ele>
        <time>2016-09-25T07:46:52.000Z</time>
      </trkpt>
      <trkpt lat="47.49324" lon="6.7386">
        <ele>357</ele>
        <time>2016-09-25T07:46:53.000Z</time>
      </trkpt>
      <trkpt lat="47.49325" lon="6.73863">
        <ele>357</ele>
        <time>2016-09-25T07:46:54.000Z</time>
      </trkpt>
      <trkpt lat="47.49327" lon="6.73866">
        <ele>358</ele>
        <time>2016-09-25T07:46:55.000Z</time>
      </trkpt>
      <trkpt lat="47.49328" lon="6.7387">
        <ele>358</ele>
        <time>2016-09-25T07:46:56.000Z</time>
      </trkpt>
      <trkpt lat="47.49329" lon="6.73873">
        <ele>358</ele>
        <time>2016-09-25T07:46:57.000Z</time>
      </trkpt>
      <trkpt lat="47.49331" lon="6.73876">
        <ele>358</ele>
        <time>2016-09-25T07:46:58.000Z</time>
      </trkpt>
      <trkpt lat="47.49333" lon="6.73879">
        <ele>358</ele>
        <time>2016-09-25T07:46:59.000Z</time>
      </trkpt>
      <trkpt lat="47.49335" lon="6.73882">
        <ele>353</ele>
        <time>2016-09-25T07:47:00.000Z</time>
      </trkpt>
      <trkpt lat="47.49336" lon="6.73885">
        <ele>353</ele>
        <time>2016-09-25T07:47:01.000Z</time>
      </trkpt>
      <trkpt lat="47.49338" lon="6.73888">
        <ele>354</ele>
        <time>2016-09-25T07:47:02.000Z</time>
      </trkpt>
      <trkpt lat="47.4934" lon="6.73891">
        <ele>354</ele>
        <time>2016-09-25T07:47:03.000Z</time>
      </trkpt>
      <trkpt lat="47.49342" lon="6.73894">
        <ele>354</ele>
        <time>2016-09-25T07:47:04.000Z</time>
      </trkpt>
      <trkpt lat="47.49346" lon="6.73894">
        <ele>354</ele>
        <time>2016-09-25T07:47:21.000Z</time>
      </trkpt>
      <trkpt lat="47.49346" lon="6.73894">
        <ele>354</ele>
        <time>2016-09-25T07:47:22.000Z</time>
      </trkpt>
      <trkpt lat="47.49349" lon="6.7389">
        <ele>353</ele>
        <time>2016-09-25T07:47:32.000Z</time>
      </trkpt>
      <trkpt lat="47.49349" lon="6.73889">
        <ele>353</ele>
        <time>2016-09-25T07:47:33.000Z</time>
      </trkpt>
      <trkpt lat="47.49352" lon="6.73884">
        <ele>353</ele>
        <time>2016-09-25T07:47:37.000Z</time>
      </trkpt>
      <trkpt lat="47.49352" lon="6.73882">
        <ele>352</ele>
        <time>2016-09-25T07:47:38.000Z</time>
      </trkpt>
      <trkpt lat="47.49353" lon="6.73879">
        <ele>352</ele>
        <time>2016-09-25T07:47:39.000Z</time>
      </trkpt>
      <trkpt lat="47.49354" lon="6.73875">
        <ele>352</ele>
        <time>2016-09-25T07:47:40.000Z</time>
      </trkpt>
      <trkpt lat="47.49354" lon="6.7387">
        <ele>352</ele>
        <time>2016-09-25T07:47:41.000Z</time>
      </trkpt>
      <trkpt lat="47.49354" lon="6.73864">
        <ele>352</ele>
        <time>2016-09-25T07:47:42.000Z</time>
      </trkpt>
      <trkpt lat="47.49355" lon="6.73858">
        <ele>352</ele>
        <time>2016-09-25T07:47:43.000Z</time>
      </trkpt>
      <trkpt lat="47.49355" lon="6.73852">
        <ele>352</ele>
        <time>2016-09-25T07:47:44.000Z</time>
      </trkpt>
      <trkpt lat="47.49355" lon="6.73846">
        <ele>352</ele>
        <time>2016-09-25T07:47:45.000Z</time>
      </trkpt>
      <trkpt lat="47.49355" lon="6.73842">
        <ele>352</ele>
        <time>2016-09-25T07:47:46.000Z</time>
      </trkpt>
      <trkpt lat="47.49355" lon="6.73837">
        <ele>352</ele>
        <time>2016-09-25T07:47:47.000Z</time>
      </trkpt>
      <trkpt lat="47.49355" lon="6.73834">
        <ele>352</ele>
        <time>2016-09-25T07:47:48.000Z</time>
      </trkpt>
      <trkpt lat="47.49353" lon="6.7383">
        <ele>351</ele>
        <time>2016-09-25T07:47:50.000Z</time>
      </trkpt>
      <trkpt lat="47.49352" lon="6.73829">
        <ele>352</ele>
        <time>2016-09-25T07:47:51.000Z</time>
      </trkpt>
      <trkpt lat="47.49349" lon="6.73826">
        <ele>352</ele>
        <time>2016-09-25T07:47:53.000Z</time>
      </trkpt>
      <trkpt lat="47.49347" lon="6.73826">
        <ele>352</ele>
        <time>2016-09-25T07:47:54.000Z</time>
      </trkpt>
      <trkpt lat="47.49343" lon="6.73824">
        <ele>352</ele>
        <time>2016-09-25T07:47:57.000Z</time>
      </trkpt>
      <trkpt lat="47.49341" lon="6.73823">
        <ele>352</ele>
        <time>2016-09-25T07:47:58.000Z</time>
      </trkpt>
      <trkpt lat="47.49339" lon="6.73819">
        <ele>352</ele>
        <time>2016-09-25T07:48:00.000Z</time>
      </trkpt>
      <trkpt lat="47.49337" lon="6.73818">
        <ele>352</ele>
        <time>2016-09-25T07:48:01.000Z</time>
      </trkpt>
      <trkpt lat="47.49334" lon="6.73817">
        <ele>352</ele>
        <time>2016-09-25T07:48:11.000Z</time>
      </trkpt>
      <trkpt lat="47.49333" lon="6.73817">
        <ele>355</ele>
        <time>2016-09-25T07:48:12.000Z</time>
      </trkpt>
      <trkpt lat="47.49328" lon="6.73817">
        <ele>355</ele>
        <time>2016-09-25T07:48:23.000Z</time>
      </trkpt>
      <trkpt lat="47.49328" lon="6.73817">
        <ele>355</ele>
        <time>2016-09-25T07:48:24.000Z</time>
      </trkpt>
      <trkpt lat="47.49324" lon="6.73818">
        <ele>355</ele>
        <time>2016-09-25T07:49:26.000Z</time>
      </trkpt>
      <trkpt lat="47.49323" lon="6.73818">
        <ele>355</ele>
        <time>2016-09-25T07:49:27.000Z</time>
      </trkpt>
      <trkpt lat="47.49318" lon="6.73818">
        <ele>356</ele>
        <time>2016-09-25T07:49:29.000Z</time>
      </trkpt>
      <trkpt lat="47.49315" lon="6.73817">
        <ele>356</ele>
        <time>2016-09-25T07:49:31.000Z</time>
      </trkpt>
      <trkpt lat="47.49311" lon="6.73816">
        <ele>356</ele>
        <time>2016-09-25T07:49:49.000Z</time>
      </trkpt>
      <trkpt lat="47.4931" lon="6.73814">
        <ele>356</ele>
        <time>2016-09-25T07:49:50.000Z</time>
      </trkpt>
      <trkpt lat="47.49308" lon="6.7381">
        <ele>356</ele>
        <time>2016-09-25T07:49:53.000Z</time>
      </trkpt>
      <trkpt lat="47.49306" lon="6.73808">
        <ele>356</ele>
        <time>2016-09-25T07:49:54.000Z</time>
      </trkpt>
      <trkpt lat="47.49302" lon="6.73806">
        <ele>356</ele>
        <time>2016-09-25T07:49:56.000Z</time>
      </trkpt>
      <trkpt lat="47.493" lon="6.73805">
        <ele>356</ele>
        <time>2016-09-25T07:49:57.000Z</time>
      </trkpt>
      <trkpt lat="47.49297" lon="6.73802">
        <ele>357</ele>
        <time>2016-09-25T07:49:59.000Z</time>
      </trkpt>
      <trkpt lat="47.49296" lon="6.738">
        <ele>357</ele>
        <time>2016-09-25T07:50:00.000Z</time>
      </trkpt>
      <trkpt lat="47.49294" lon="6.73798">
        <ele>357</ele>
        <time>2016-09-25T07:50:01.000Z</time>
      </trkpt>
      <trkpt lat="47.49291" lon="6.73796">
        <ele>357</ele>
        <time>2016-09-25T07:50:02.000Z</time>
      </trkpt>
      <trkpt lat="47.49289" lon="6.73794">
        <ele>357</ele>
        <time>2016-09-25T07:50:03.000Z</time>
      </trkpt>
      <trkpt lat="47.49287" lon="6.73792">
        <ele>357</ele>
        <time>2016-09-25T07:50:04.000Z</time>
      </trkpt>
      <trkpt lat="47.49283" lon="6.73789">
        <ele>357</ele>
        <time>2016-09-25T07:50:06.000Z</time>
      </trkpt>
      <trkpt lat="47.49281" lon="6.73788">
        <ele>357</ele>
        <time>2016-09-25T07:50:07.000Z</time>
      </trkpt>
      <trkpt lat="47.49277" lon="6.73785">
        <ele>357</ele>
        <time>2016-09-25T07:50:09.000Z</time>
      </trkpt>
      <trkpt lat="47.49276" lon="6.73782">
        <ele>357</ele>
        <time>2016-09-25T07:50:10.000Z</time>
      </trkpt>
      <trkpt lat="47.49274" lon="6.7378">
        <ele>357</ele>
        <time>2016-09-25T07:50:11.000Z</time>
      </trkpt>
      <trkpt lat="47.49272" lon="6.73778">
        <ele>357</ele>
        <time>2016-09-25T07:50:12.000Z</time>
      </trkpt>
      <trkpt lat="47.49269" lon="6.73776">
        <ele>357</ele>
        <time>2016-09-25T07:50:13.000Z</time>
      </trkpt>
      <trkpt lat="47.49267" lon="6.73774">
        <ele>357</ele>
        <time>2016-09-25T07:50:14.000Z</time>
      </trkpt>
      <trkpt lat="47.49265" lon="6.73773">
        <ele>358</ele>
        <time>2016-09-25T07:50:15.000Z</time>
      </trkpt>
      <trkpt lat="47.49263" lon="6.73771">
        <ele>358</ele>
        <time>2016-09-25T07:50:16.000Z</time>
      </trkpt>
      <trkpt lat="47.4926" lon="6.7377">
        <ele>358</ele>
        <time>2016-09-25T07:50:17.000Z</time>
      </trkpt>
      <trkpt lat="47.49258" lon="6.73769">
        <ele>358</ele>
        <time>2016-09-25T07:50:18.000Z</time>
      </trkpt>
      <trkpt lat="47.49255" lon="6.73769">
        <ele>358</ele>
        <time>2016-09-25T07:50:19.000Z</time>
      </trkpt>
      <trkpt lat="47.49253" lon="6.73767">
        <ele>358</ele>
        <time>2016-09-25T07:50:20.000Z</time>
      </trkpt>
      <trkpt lat="47.49249" lon="6.73764">
        <ele>360</ele>
        <time>2016-09-25T07:50:22.000Z</time>
      </trkpt>
      <trkpt lat="47.49247" lon="6.73763">
        <ele>360</ele>
        <time>2016-09-25T07:50:23.000Z</time>
      </trkpt>
      <trkpt lat="47.49245" lon="6.73761">
        <ele>360</ele>
        <time>2016-09-25T07:50:24.000Z</time>
      </trkpt>
      <trkpt lat="47.49242" lon="6.73759">
        <ele>360</ele>
        <time>2016-09-25T07:50:25.000Z</time>
      </trkpt>
      <trkpt lat="47.49239" lon="6.73758">
        <ele>360</ele>
        <time>2016-09-25T07:50:26.000Z</time>
      </trkpt>
      <trkpt lat="47.49236" lon="6.73756">
        <ele>360</ele>
        <time>2016-09-25T07:50:27.000Z</time>
      </trkpt>
      <trkpt lat="47.49233" lon="6.73755">
        <ele>360</ele>
        <time>2016-09-25T07:50:28.000Z</time>
      </trkpt>
      <trkpt lat="47.4923" lon="6.73754">
        <ele>361</ele>
        <time>2016-09-25T07:50:29.000Z</time>
      </trkpt>
      <trkpt lat="47.49227" lon="6.73752">
        <ele>361</ele>
        <time>2016-09-25T07:50:30.000Z</time>
      </trkpt>
      <trkpt lat="47.49225" lon="6.73752">
        <ele>361</ele>
        <time>2016-09-25T07:50:31.000Z</time>
      </trkpt>
      <trkpt lat="47.49222" lon="6.73751">
        <ele>361</ele>
        <time>2016-09-25T07:50:32.000Z</time>
      </trkpt>
      <trkpt lat="47.49219" lon="6.73751">
        <ele>361</ele>
        <time>2016-09-25T07:50:33.000Z</time>
      </trkpt>
      <trkpt lat="47.49216" lon="6.73751">
        <ele>361</ele>
        <time>2016-09-25T07:50:34.000Z</time>
      </trkpt>
      <trkpt lat="47.49213" lon="6.73751">
        <ele>361</ele>
        <time>2016-09-25T07:50:35.000Z</time>
      </trkpt>
      <trkpt lat="47.49211" lon="6.7375">
        <ele>362</ele>
        <time>2016-09-25T07:50:36.000Z</time>
      </trkpt>
      <trkpt lat="47.49208" lon="6.73749">
        <ele>363</ele>
        <time>2016-09-25T07:50:37.000Z</time>
      </trkpt>
      <trkpt lat="47.49206" lon="6.73748">
        <ele>363</ele>
        <time>2016-09-25T07:50:38.000Z</time>
      </trkpt>
      <trkpt lat="47.49203" lon="6.73747">
        <ele>364</ele>
        <time>2016-09-25T07:50:39.000Z</time>
      </trkpt>
      <trkpt lat="47.492" lon="6.73746">
        <ele>364</ele>
        <time>2016-09-25T07:50:40.000Z</time>
      </trkpt>
      <trkpt lat="47.49197" lon="6.73745">
        <ele>364</ele>
        <time>2016-09-25T07:50:41.000Z</time>
      </trkpt>
      <trkpt lat="47.49195" lon="6.73744">
        <ele>364</ele>
        <time>2016-09-25T07:50:42.000Z</time>
      </trkpt>
      <trkpt lat="47.49192" lon="6.73743">
        <ele>364</ele>
        <time>2016-09-25T07:50:43.000Z</time>
      </trkpt>
      <trkpt lat="47.4919" lon="6.73742">
        <ele>364</ele>
        <time>2016-09-25T07:50:44.000Z</time>
      </trkpt>
      <trkpt lat="47.49187" lon="6.7374">
        <ele>364</ele>
        <time>2016-09-25T07:50:45.000Z</time>
      </trkpt>
      <trkpt lat="47.49185" lon="6.73739">
        <ele>364</ele>
        <time>2016-09-25T07:50:46.000Z</time>
      </trkpt>
      <trkpt lat="47.49183" lon="6.73738">
        <ele>364</ele>
        <time>2016-09-25T07:50:47.000Z</time>
      </trkpt>
      <trkpt lat="47.49179" lon="6.73736">
        <ele>364</ele>
        <time>2016-09-25T07:50:49.000Z</time>
      </trkpt>
      <trkpt lat="47.49176" lon="6.73735">
        <ele>364</ele>
        <time>2016-09-25T07:50:50.000Z</time>
      </trkpt>
      <trkpt lat="47.49173" lon="6.73734">
        <ele>364</ele>
        <time>2016-09-25T07:50:51.000Z</time>
      </trkpt>
      <trkpt lat="47.49171" lon="6.73734">
        <ele>364</ele>
        <time>2016-09-25T07:50:52.000Z</time>
      </trkpt>
      <trkpt lat="47.49168" lon="6.73733">
        <ele>364</ele>
        <time>2016-09-25T07:50:53.000Z</time>
      </trkpt>
      <trkpt lat="47.49166" lon="6.73732">
        <ele>366</ele>
        <time>2016-09-25T07:50:54.000Z</time>
      </trkpt>
      <trkpt lat="47.49163" lon="6.73728">
        <ele>366</ele>
        <time>2016-09-25T07:50:56.000Z</time>
      </trkpt>
      <trkpt lat="47.49161" lon="6.73726">
        <ele>366</ele>
        <time>2016-09-25T07:50:57.000Z</time>
      </trkpt>
      <trkpt lat="47.4916" lon="6.73723">
        <ele>366</ele>
        <time>2016-09-25T07:50:58.000Z</time>
      </trkpt>
      <trkpt lat="47.49158" lon="6.73721">
        <ele>366</ele>
        <time>2016-09-25T07:50:59.000Z</time>
      </trkpt>
      <trkpt lat="47.49156" lon="6.73719">
        <ele>366</ele>
        <time>2016-09-25T07:51:00.000Z</time>
      </trkpt>
      <trkpt lat="47.49153" lon="6.73717">
        <ele>366</ele>
        <time>2016-09-25T07:51:01.000Z</time>
      </trkpt>
      <trkpt lat="47.4915" lon="6.73716">
        <ele>366</ele>
        <time>2016-09-25T07:51:02.000Z</time>
      </trkpt>
      <trkpt lat="47.49147" lon="6.73713">
        <ele>367</ele>
        <time>2016-09-25T07:51:03.000Z</time>
      </trkpt>
      <trkpt lat="47.49143" lon="6.73711">
        <ele>367</ele>
        <time>2016-09-25T07:51:04.000Z</time>
      </trkpt>
      <trkpt lat="47.49141" lon="6.73709">
        <ele>367</ele>
        <time>2016-09-25T07:51:05.000Z</time>
      </trkpt>
      <trkpt lat="47.49138" lon="6.73707">
        <ele>367</ele>
        <time>2016-09-25T07:51:07.000Z</time>
      </trkpt>
      <trkpt lat="47.49136" lon="6.73705">
        <ele>367</ele>
        <time>2016-09-25T07:51:08.000Z</time>
      </trkpt>
      <trkpt lat="47.49133" lon="6.73704">
        <ele>367</ele>
        <time>2016-09-25T07:51:09.000Z</time>
      </trkpt>
      <trkpt lat="47.49131" lon="6.73703">
        <ele>367</ele>
        <time>2016-09-25T07:51:10.000Z</time>
      </trkpt>
      <trkpt lat="47.49127" lon="6.73701">
        <ele>367</ele>
        <time>2016-09-25T07:51:12.000Z</time>
      </trkpt>
      <trkpt lat="47.49126" lon="6.73699">
        <ele>367</ele>
        <time>2016-09-25T07:51:13.000Z</time>
      </trkpt>
      <trkpt lat="47.49123" lon="6.73696">
        <ele>367</ele>
        <time>2016-09-25T07:51:15.000Z</time>
      </trkpt>
      <trkpt lat="47.49121" lon="6.73695">
        <ele>367</ele>
        <time>2016-09-25T07:51:16.000Z</time>
      </trkpt>
      <trkpt lat="47.49118" lon="6.73693">
        <ele>367</ele>
        <time>2016-09-25T07:51:18.000Z</time>
      </trkpt>
      <trkpt lat="47.49116" lon="6.73692">
        <ele>367</ele>
        <time>2016-09-25T07:51:19.000Z</time>
      </trkpt>
      <trkpt lat="47.49113" lon="6.7369">
        <ele>367</ele>
        <time>2016-09-25T07:51:21.000Z</time>
      </trkpt>
      <trkpt lat="47.49112" lon="6.7369">
        <ele>367</ele>
        <time>2016-09-25T07:51:22.000Z</time>
      </trkpt>
      <trkpt lat="47.49109" lon="6.73688">
        <ele>367</ele>
        <time>2016-09-25T07:51:24.000Z</time>
      </trkpt>
      <trkpt lat="47.49108" lon="6.73687">
        <ele>367</ele>
        <time>2016-09-25T07:51:25.000Z</time>
      </trkpt>
      <trkpt lat="47.49104" lon="6.73685">
        <ele>368</ele>
        <time>2016-09-25T07:51:27.000Z</time>
      </trkpt>
      <trkpt lat="47.49103" lon="6.73684">
        <ele>368</ele>
        <time>2016-09-25T07:51:28.000Z</time>
      </trkpt>
      <trkpt lat="47.49099" lon="6.7368">
        <ele>368</ele>
        <time>2016-09-25T07:51:30.000Z</time>
      </trkpt>
      <trkpt lat="47.49098" lon="6.73678">
        <ele>368</ele>
        <time>2016-09-25T07:51:31.000Z</time>
      </trkpt>
      <trkpt lat="47.49095" lon="6.73675">
        <ele>368</ele>
        <time>2016-09-25T07:51:34.000Z</time>
      </trkpt>
      <trkpt lat="47.49094" lon="6.73674">
        <ele>368</ele>
        <time>2016-09-25T07:51:35.000Z</time>
      </trkpt>
      <trkpt lat="47.49091" lon="6.7367">
        <ele>368</ele>
        <time>2016-09-25T07:51:39.000Z</time>
      </trkpt>
      <trkpt lat="47.49091" lon="6.73669">
        <ele>368</ele>
        <time>2016-09-25T07:51:40.000Z</time>
      </trkpt>
      <trkpt lat="47.49088" lon="6.73667">
        <ele>369</ele>
        <time>2016-09-25T07:51:43.000Z</time>
      </trkpt>
      <trkpt lat="47.49086" lon="6.73667">
        <ele>369</ele>
        <time>2016-09-25T07:51:44.000Z</time>
      </trkpt>
      <trkpt lat="47.49082" lon="6.73666">
        <ele>369</ele>
        <time>2016-09-25T07:51:46.000Z</time>
      </trkpt>
      <trkpt lat="47.49081" lon="6.73666">
        <ele>370</ele>
        <time>2016-09-25T07:51:47.000Z</time>
      </trkpt>
      <trkpt lat="47.49077" lon="6.73665">
        <ele>370</ele>
        <time>2016-09-25T07:51:50.000Z</time>
      </trkpt>
      <trkpt lat="47.49075" lon="6.73665">
        <ele>371</ele>
        <time>2016-09-25T07:51:51.000Z</time>
      </trkpt>
      <trkpt lat="47.49071" lon="6.73664">
        <ele>371</ele>
        <time>2016-09-25T07:51:54.000Z</time>
      </trkpt>
      <trkpt lat="47.4907" lon="6.73664">
        <ele>371</ele>
        <time>2016-09-25T07:51:55.000Z</time>
      </trkpt>
      <trkpt lat="47.49066" lon="6.73661">
        <ele>372</ele>
        <time>2016-09-25T07:51:59.000Z</time>
      </trkpt>
      <trkpt lat="47.49064" lon="6.73661">
        <ele>372</ele>
        <time>2016-09-25T07:52:00.000Z</time>
      </trkpt>
      <trkpt lat="47.49061" lon="6.73659">
        <ele>372</ele>
        <time>2016-09-25T07:52:02.000Z</time>
      </trkpt>
      <trkpt lat="47.49059" lon="6.73659">
        <ele>372</ele>
        <time>2016-09-25T07:52:03.000Z</time>
      </trkpt>
      <trkpt lat="47.49055" lon="6.73658">
        <ele>373</ele>
        <time>2016-09-25T07:52:06.000Z</time>
      </trkpt>
      <trkpt lat="47.49053" lon="6.73658">
        <ele>373</ele>
        <time>2016-09-25T07:52:07.000Z</time>
      </trkpt>
      <trkpt lat="47.4905" lon="6.73657">
        <ele>373</ele>
        <time>2016-09-25T07:52:09.000Z</time>
      </trkpt>
      <trkpt lat="47.49048" lon="6.73657">
        <ele>373</ele>
        <time>2016-09-25T07:52:10.000Z</time>
      </trkpt>
      <trkpt lat="47.49044" lon="6.73655">
        <ele>373</ele>
        <time>2016-09-25T07:52:13.000Z</time>
      </trkpt>
      <trkpt lat="47.49043" lon="6.73655">
        <ele>373</ele>
        <time>2016-09-25T07:52:14.000Z</time>
      </trkpt>
      <trkpt lat="47.4904" lon="6.73653">
        <ele>373</ele>
        <time>2016-09-25T07:52:16.000Z</time>
      </trkpt>
      <trkpt lat="47.49038" lon="6.73653">
        <ele>373</ele>
        <time>2016-09-25T07:52:17.000Z</time>
      </trkpt>
      <trkpt lat="47.49034" lon="6.73652">
        <ele>373</ele>
        <time>2016-09-25T07:52:19.000Z</time>
      </trkpt>
      <trkpt lat="47.49032" lon="6.73651">
        <ele>373</ele>
        <time>2016-09-25T07:52:20.000Z</time>
      </trkpt>
      <trkpt lat="47.49028" lon="6.73649">
        <ele>374</ele>
        <time>2016-09-25T07:52:22.000Z</time>
      </trkpt>
      <trkpt lat="47.49027" lon="6.73649">
        <ele>374</ele>
        <time>2016-09-25T07:52:23.000Z</time>
      </trkpt>
      <trkpt lat="47.49023" lon="6.73648">
        <ele>374</ele>
        <time>2016-09-25T07:52:26.000Z</time>
      </trkpt>
      <trkpt lat="47.49021" lon="6.73648">
        <ele>374</ele>
        <time>2016-09-25T07:52:27.000Z</time>
      </trkpt>
      <trkpt lat="47.49018" lon="6.73647">
        <ele>374</ele>
        <time>2016-09-25T07:52:29.000Z</time>
      </trkpt>
      <trkpt lat="47.49016" lon="6.73647">
        <ele>374</ele>
        <time>2016-09-25T07:52:30.000Z</time>
      </trkpt>
      <trkpt lat="47.49013" lon="6.73648">
        <ele>374</ele>
        <time>2016-09-25T07:52:32.000Z</time>
      </trkpt>
      <trkpt lat="47.49011" lon="6.73648">
        <ele>374</ele>
        <time>2016-09-25T07:52:33.000Z</time>
      </trkpt>
      <trkpt lat="47.49007" lon="6.73647">
        <ele>374</ele>
        <time>2016-09-25T07:52:35.000Z</time>
      </trkpt>
      <trkpt lat="47.49005" lon="6.73646">
        <ele>374</ele>
        <time>2016-09-25T07:52:36.000Z</time>
      </trkpt>
      <trkpt lat="47.49001" lon="6.73644">
        <ele>374</ele>
        <time>2016-09-25T07:52:38.000Z</time>
      </trkpt>
      <trkpt lat="47.48999" lon="6.73644">
        <ele>375</ele>
        <time>2016-09-25T07:52:39.000Z</time>
      </trkpt>
      <trkpt lat="47.48995" lon="6.73643">
        <ele>375</ele>
        <time>2016-09-25T07:52:42.000Z</time>
      </trkpt>
      <trkpt lat="47.48993" lon="6.73643">
        <ele>375</ele>
        <time>2016-09-25T07:52:43.000Z</time>
      </trkpt>
      <trkpt lat="47.4899" lon="6.73642">
        <ele>376</ele>
        <time>2016-09-25T07:52:45.000Z</time>
      </trkpt>
      <trkpt lat="47.48988" lon="6.73642">
        <ele>376</ele>
        <time>2016-09-25T07:52:46.000Z</time>
      </trkpt>
      <trkpt lat="47.48985" lon="6.73641">
        <ele>376</ele>
        <time>2016-09-25T07:52:47.000Z</time>
      </trkpt>
      <trkpt lat="47.48983" lon="6.73641">
        <ele>376</ele>
        <time>2016-09-25T07:52:48.000Z</time>
      </trkpt>
      <trkpt lat="47.48981" lon="6.73641">
        <ele>376</ele>
        <time>2016-09-25T07:52:49.000Z</time>
      </trkpt>
      <trkpt lat="47.48978" lon="6.73641">
        <ele>376</ele>
        <time>2016-09-25T07:52:50.000Z</time>
      </trkpt>
      <trkpt lat="47.48974" lon="6.73641">
        <ele>376</ele>
        <time>2016-09-25T07:52:52.000Z</time>
      </trkpt>
      <trkpt lat="47.48972" lon="6.73641">
        <ele>376</ele>
        <time>2016-09-25T07:52:53.000Z</time>
      </trkpt>
      <trkpt lat="47.48968" lon="6.73638">
        <ele>376</ele>
        <time>2016-09-25T07:52:55.000Z</time>
      </trkpt>
      <trkpt lat="47.48966" lon="6.73637">
        <ele>376</ele>
        <time>2016-09-25T07:52:56.000Z</time>
      </trkpt>
      <trkpt lat="47.48963" lon="6.73634">
        <ele>377</ele>
        <time>2016-09-25T07:52:58.000Z</time>
      </trkpt>
      <trkpt lat="47.48961" lon="6.73633">
        <ele>377</ele>
        <time>2016-09-25T07:52:59.000Z</time>
      </trkpt>
      <trkpt lat="47.48958" lon="6.73632">
        <ele>377</ele>
        <time>2016-09-25T07:53:01.000Z</time>
      </trkpt>
      <trkpt lat="47.48956" lon="6.73631">
        <ele>377</ele>
        <time>2016-09-25T07:53:02.000Z</time>
      </trkpt>
      <trkpt lat="47.48952" lon="6.73629">
        <ele>377</ele>
        <time>2016-09-25T07:53:04.000Z</time>
      </trkpt>
      <trkpt lat="47.4895" lon="6.73629">
        <ele>377</ele>
        <time>2016-09-25T07:53:05.000Z</time>
      </trkpt>
      <trkpt lat="47.48945" lon="6.73628">
        <ele>377</ele>
        <time>2016-09-25T07:53:07.000Z</time>
      </trkpt>
      <trkpt lat="47.48943" lon="6.73628">
        <ele>377</ele>
        <time>2016-09-25T07:53:08.000Z</time>
      </trkpt>
      <trkpt lat="47.48941" lon="6.73628">
        <ele>377</ele>
        <time>2016-09-25T07:53:09.000Z</time>
      </trkpt>
      <trkpt lat="47.48938" lon="6.73627">
        <ele>377</ele>
        <time>2016-09-25T07:53:10.000Z</time>
      </trkpt>
      <trkpt lat="47.48935" lon="6.73627">
        <ele>377</ele>
        <time>2016-09-25T07:53:11.000Z</time>
      </trkpt>
      <trkpt lat="47.48932" lon="6.73625">
        <ele>377</ele>
        <time>2016-09-25T07:53:12.000Z</time>
      </trkpt>
      <trkpt lat="47.48929" lon="6.73624">
        <ele>377</ele>
        <time>2016-09-25T07:53:13.000Z</time>
      </trkpt>
      <trkpt lat="47.48927" lon="6.73622">
        <ele>377</ele>
        <time>2016-09-25T07:53:14.000Z</time>
      </trkpt>
      <trkpt lat="47.48924" lon="6.73621">
        <ele>377</ele>
        <time>2016-09-25T07:53:15.000Z</time>
      </trkpt>
      <trkpt lat="47.4892" lon="6.73619">
        <ele>378</ele>
        <time>2016-09-25T07:53:16.000Z</time>
      </trkpt>
      <trkpt lat="47.48916" lon="6.73617">
        <ele>380</ele>
        <time>2016-09-25T07:53:18.000Z</time>
      </trkpt>
      <trkpt lat="47.48915" lon="6.73617">
        <ele>380</ele>
        <time>2016-09-25T07:53:19.000Z</time>
      </trkpt>
      <trkpt lat="47.48918" lon="6.73611">
        <ele>378</ele>
        <time>2016-09-25T07:53:23.000Z</time>
      </trkpt>
      <trkpt lat="47.48919" lon="6.73608">
        <ele>377</ele>
        <time>2016-09-25T07:53:24.000Z</time>
      </trkpt>
      <trkpt lat="47.48921" lon="6.73603">
        <ele>378</ele>
        <time>2016-09-25T07:53:25.000Z</time>
      </trkpt>
      <trkpt lat="47.48925" lon="6.73585">
        <ele>378</ele>
        <time>2016-09-25T07:53:26.000Z</time>
      </trkpt>
      <trkpt lat="47.48928" lon="6.7358">
        <ele>378</ele>
        <time>2016-09-25T07:53:27.000Z</time>
      </trkpt>
      <trkpt lat="47.4893" lon="6.7358">
        <ele>378</ele>
        <time>2016-09-25T07:53:28.000Z</time>
      </trkpt>
      <trkpt lat="47.48933" lon="6.73577">
        <ele>378</ele>
        <time>2016-09-25T07:53:29.000Z</time>
      </trkpt>
      <trkpt lat="47.48935" lon="6.73574">
        <ele>377</ele>
        <time>2016-09-25T07:53:30.000Z</time>
      </trkpt>
      <trkpt lat="47.48939" lon="6.73571">
        <ele>377</ele>
        <time>2016-09-25T07:53:31.000Z</time>
      </trkpt>
      <trkpt lat="47.48942" lon="6.73566">
        <ele>377</ele>
        <time>2016-09-25T07:53:32.000Z</time>
      </trkpt>
      <trkpt lat="47.48945" lon="6.73562">
        <ele>377</ele>
        <time>2016-09-25T07:53:33.000Z</time>
      </trkpt>
      <trkpt lat="47.48949" lon="6.73558">
        <ele>377</ele>
        <time>2016-09-25T07:53:34.000Z</time>
      </trkpt>
      <trkpt lat="47.48953" lon="6.73554">
        <ele>377</ele>
        <time>2016-09-25T07:53:35.000Z</time>
      </trkpt>
      <trkpt lat="47.48956" lon="6.7355">
        <ele>377</ele>
        <time>2016-09-25T07:53:36.000Z</time>
      </trkpt>
      <trkpt lat="47.48959" lon="6.73547">
        <ele>377</ele>
        <time>2016-09-25T07:53:37.000Z</time>
      </trkpt>
      <trkpt lat="47.48963" lon="6.73545">
        <ele>377</ele>
        <time>2016-09-25T07:53:38.000Z</time>
      </trkpt>
      <trkpt lat="47.48966" lon="6.73543">
        <ele>377</ele>
        <time>2016-09-25T07:53:39.000Z</time>
      </trkpt>
      <trkpt lat="47.48969" lon="6.73542">
        <ele>377</ele>
        <time>2016-09-25T07:53:40.000Z</time>
      </trkpt>
      <trkpt lat="47.48972" lon="6.73541">
        <ele>377</ele>
        <time>2016-09-25T07:53:41.000Z</time>
      </trkpt>
      <trkpt lat="47.48975" lon="6.7354">
        <ele>377</ele>
        <time>2016-09-25T07:53:42.000Z</time>
      </trkpt>
      <trkpt lat="47.48977" lon="6.73539">
        <ele>377</ele>
        <time>2016-09-25T07:53:43.000Z</time>
      </trkpt>
      <trkpt lat="47.4898" lon="6.73539">
        <ele>377</ele>
        <time>2016-09-25T07:53:44.000Z</time>
      </trkpt>
      <trkpt lat="47.48982" lon="6.73538">
        <ele>377</ele>
        <time>2016-09-25T07:53:45.000Z</time>
      </trkpt>
      <trkpt lat="47.48986" lon="6.73538">
        <ele>377</ele>
        <time>2016-09-25T07:53:47.000Z</time>
      </trkpt>
      <trkpt lat="47.48988" lon="6.73537">
        <ele>377</ele>
        <time>2016-09-25T07:53:48.000Z</time>
      </trkpt>
      <trkpt lat="47.48991" lon="6.73536">
        <ele>377</ele>
        <time>2016-09-25T07:53:49.000Z</time>
      </trkpt>
      <trkpt lat="47.48993" lon="6.73535">
        <ele>377</ele>
        <time>2016-09-25T07:53:50.000Z</time>
      </trkpt>
      <trkpt lat="47.48996" lon="6.73534">
        <ele>378</ele>
        <time>2016-09-25T07:53:51.000Z</time>
      </trkpt>
      <trkpt lat="47.48998" lon="6.73533">
        <ele>378</ele>
        <time>2016-09-25T07:53:52.000Z</time>
      </trkpt>
      <trkpt lat="47.49001" lon="6.73532">
        <ele>379</ele>
        <time>2016-09-25T07:53:53.000Z</time>
      </trkpt>
      <trkpt lat="47.49005" lon="6.7353">
        <ele>379</ele>
        <time>2016-09-25T07:53:54.000Z</time>
      </trkpt>
      <trkpt lat="47.49008" lon="6.73527">
        <ele>379</ele>
        <time>2016-09-25T07:53:55.000Z</time>
      </trkpt>
      <trkpt lat="47.49012" lon="6.73524">
        <ele>379</ele>
        <time>2016-09-25T07:53:56.000Z</time>
      </trkpt>
      <trkpt lat="47.49017" lon="6.73519">
        <ele>379</ele>
        <time>2016-09-25T07:53:57.000Z</time>
      </trkpt>
      <trkpt lat="47.49021" lon="6.73512">
        <ele>379</ele>
        <time>2016-09-25T07:53:58.000Z</time>
      </trkpt>
      <trkpt lat="47.49024" lon="6.73506">
        <ele>380</ele>
        <time>2016-09-25T07:53:59.000Z</time>
      </trkpt>
      <trkpt lat="47.49027" lon="6.73499">
        <ele>381</ele>
        <time>2016-09-25T07:54:00.000Z</time>
      </trkpt>
      <trkpt lat="47.4903" lon="6.73492">
        <ele>381</ele>
        <time>2016-09-25T07:54:01.000Z</time>
      </trkpt>
      <trkpt lat="47.49032" lon="6.73486">
        <ele>381</ele>
        <time>2016-09-25T07:54:02.000Z</time>
      </trkpt>
      <trkpt lat="47.49034" lon="6.7348">
        <ele>381</ele>
        <time>2016-09-25T07:54:03.000Z</time>
      </trkpt>
      <trkpt lat="47.49037" lon="6.73474">
        <ele>382</ele>
        <time>2016-09-25T07:54:04.000Z</time>
      </trkpt>
      <trkpt lat="47.4904" lon="6.73468">
        <ele>382</ele>
        <time>2016-09-25T07:54:05.000Z</time>
      </trkpt>
      <trkpt lat="47.49043" lon="6.73462">
        <ele>382</ele>
        <time>2016-09-25T07:54:06.000Z</time>
      </trkpt>
      <trkpt lat="47.49047" lon="6.73455">
        <ele>382</ele>
        <time>2016-09-25T07:54:07.000Z</time>
      </trkpt>
      <trkpt lat="47.49052" lon="6.73447">
        <ele>382</ele>
        <time>2016-09-25T07:54:08.000Z</time>
      </trkpt>
      <trkpt lat="47.49057" lon="6.73439">
        <ele>383</ele>
        <time>2016-09-25T07:54:09.000Z</time>
      </trkpt>
      <trkpt lat="47.49062" lon="6.73432">
        <ele>383</ele>
        <time>2016-09-25T07:54:10.000Z</time>
      </trkpt>
      <trkpt lat="47.49066" lon="6.73425">
        <ele>384</ele>
        <time>2016-09-25T07:54:11.000Z</time>
      </trkpt>
      <trkpt lat="47.49071" lon="6.73418">
        <ele>385</ele>
        <time>2016-09-25T07:54:12.000Z</time>
      </trkpt>
      <trkpt lat="47.49076" lon="6.73411">
        <ele>385</ele>
        <time>2016-09-25T07:54:13.000Z</time>
      </trkpt>
      <trkpt lat="47.4908" lon="6.73405">
        <ele>385</ele>
        <time>2016-09-25T07:54:14.000Z</time>
      </trkpt>
      <trkpt lat="47.49084" lon="6.73399">
        <ele>387</ele>
        <time>2016-09-25T07:54:15.000Z</time>
      </trkpt>
      <trkpt lat="47.49087" lon="6.73393">
        <ele>387</ele>
        <time>2016-09-25T07:54:16.000Z</time>
      </trkpt>
      <trkpt lat="47.4909" lon="6.73389">
        <ele>387</ele>
        <time>2016-09-25T07:54:17.000Z</time>
      </trkpt>
      <trkpt lat="47.49092" lon="6.73384">
        <ele>387</ele>
        <time>2016-09-25T07:54:18.000Z</time>
      </trkpt>
      <trkpt lat="47.49094" lon="6.7338">
        <ele>387</ele>
        <time>2016-09-25T07:54:19.000Z</time>
      </trkpt>
      <trkpt lat="47.49095" lon="6.73377">
        <ele>387</ele>
        <time>2016-09-25T07:54:20.000Z</time>
      </trkpt>
      <trkpt lat="47.49096" lon="6.73372">
        <ele>387</ele>
        <time>2016-09-25T07:54:23.000Z</time>
      </trkpt>
      <trkpt lat="47.49095" lon="6.73368">
        <ele>387</ele>
        <time>2016-09-25T07:54:24.000Z</time>
      </trkpt>
      <trkpt lat="47.49095" lon="6.73362">
        <ele>387</ele>
        <time>2016-09-25T07:54:27.000Z</time>
      </trkpt>
      <trkpt lat="47.49095" lon="6.73361">
        <ele>387</ele>
        <time>2016-09-25T07:54:28.000Z</time>
      </trkpt>
      <trkpt lat="47.49093" lon="6.73355">
        <ele>387</ele>
        <time>2016-09-25T07:54:39.000Z</time>
      </trkpt>
      <trkpt lat="47.49093" lon="6.73355">
        <ele>387</ele>
        <time>2016-09-25T07:54:40.000Z</time>
      </trkpt>
      <trkpt lat="47.49095" lon="6.7335">
        <ele>387</ele>
        <time>2016-09-25T07:54:52.000Z</time>
      </trkpt>
      <trkpt lat="47.49096" lon="6.73349">
        <ele>387</ele>
        <time>2016-09-25T07:54:53.000Z</time>
      </trkpt>
      <trkpt lat="47.49099" lon="6.73346">
        <ele>387</ele>
        <time>2016-09-25T07:54:55.000Z</time>
      </trkpt>
      <trkpt lat="47.491" lon="6.73344">
        <ele>387</ele>
        <time>2016-09-25T07:54:56.000Z</time>
      </trkpt>
      <trkpt lat="47.49102" lon="6.73342">
        <ele>387</ele>
        <time>2016-09-25T07:54:57.000Z</time>
      </trkpt>
      <trkpt lat="47.49103" lon="6.73338">
        <ele>387</ele>
        <time>2016-09-25T07:54:58.000Z</time>
      </trkpt>
      <trkpt lat="47.49104" lon="6.73334">
        <ele>387</ele>
        <time>2016-09-25T07:54:59.000Z</time>
      </trkpt>
      <trkpt lat="47.49105" lon="6.7333">
        <ele>388</ele>
        <time>2016-09-25T07:55:00.000Z</time>
      </trkpt>
      <trkpt lat="47.49104" lon="6.73326">
        <ele>388</ele>
        <time>2016-09-25T07:55:01.000Z</time>
      </trkpt>
      <trkpt lat="47.49104" lon="6.73323">
        <ele>388</ele>
        <time>2016-09-25T07:55:02.000Z</time>
      </trkpt>
      <trkpt lat="47.49103" lon="6.73318">
        <ele>388</ele>
        <time>2016-09-25T07:55:04.000Z</time>
      </trkpt>
      <trkpt lat="47.49104" lon="6.73316">
        <ele>388</ele>
        <time>2016-09-25T07:55:05.000Z</time>
      </trkpt>
      <trkpt lat="47.49106" lon="6.73312">
        <ele>389</ele>
        <time>2016-09-25T07:55:07.000Z</time>
      </trkpt>
      <trkpt lat="47.49107" lon="6.7331">
        <ele>389</ele>
        <time>2016-09-25T07:55:08.000Z</time>
      </trkpt>
      <trkpt lat="47.49109" lon="6.73307">
        <ele>389</ele>
        <time>2016-09-25T07:55:09.000Z</time>
      </trkpt>
      <trkpt lat="47.4911" lon="6.73304">
        <ele>389</ele>
        <time>2016-09-25T07:55:10.000Z</time>
      </trkpt>
      <trkpt lat="47.49111" lon="6.73301">
        <ele>389</ele>
        <time>2016-09-25T07:55:11.000Z</time>
      </trkpt>
      <trkpt lat="47.49113" lon="6.73298">
        <ele>389</ele>
        <time>2016-09-25T07:55:12.000Z</time>
      </trkpt>
      <trkpt lat="47.49115" lon="6.73294">
        <ele>389</ele>
        <time>2016-09-25T07:55:13.000Z</time>
      </trkpt>
      <trkpt lat="47.49116" lon="6.7329">
        <ele>389</ele>
        <time>2016-09-25T07:55:14.000Z</time>
      </trkpt>
      <trkpt lat="47.49118" lon="6.73287">
        <ele>389</ele>
        <time>2016-09-25T07:55:15.000Z</time>
      </trkpt>
      <trkpt lat="47.4912" lon="6.73283">
        <ele>389</ele>
        <time>2016-09-25T07:55:16.000Z</time>
      </trkpt>
      <trkpt lat="47.49122" lon="6.73277">
        <ele>389</ele>
        <time>2016-09-25T07:55:18.000Z</time>
      </trkpt>
      <trkpt lat="47.49122" lon="6.73274">
        <ele>389</ele>
        <time>2016-09-25T07:55:19.000Z</time>
      </trkpt>
      <trkpt lat="47.49124" lon="6.7327">
        <ele>389</ele>
        <time>2016-09-25T07:55:20.000Z</time>
      </trkpt>
      <trkpt lat="47.49127" lon="6.73267">
        <ele>389</ele>
        <time>2016-09-25T07:55:21.000Z</time>
      </trkpt>
      <trkpt lat="47.4913" lon="6.73264">
        <ele>390</ele>
        <time>2016-09-25T07:55:22.000Z</time>
      </trkpt>
      <trkpt lat="47.49133" lon="6.73261">
        <ele>390</ele>
        <time>2016-09-25T07:55:23.000Z</time>
      </trkpt>
      <trkpt lat="47.49136" lon="6.73258">
        <ele>390</ele>
        <time>2016-09-25T07:55:24.000Z</time>
      </trkpt>
      <trkpt lat="47.49137" lon="6.73255">
        <ele>390</ele>
        <time>2016-09-25T07:55:25.000Z</time>
      </trkpt>
      <trkpt lat="47.49139" lon="6.73249">
        <ele>392</ele>
        <time>2016-09-25T07:55:27.000Z</time>
      </trkpt>
      <trkpt lat="47.4914" lon="6.73247">
        <ele>392</ele>
        <time>2016-09-25T07:55:28.000Z</time>
      </trkpt>
      <trkpt lat="47.4914" lon="6.73243">
        <ele>392</ele>
        <time>2016-09-25T07:55:29.000Z</time>
      </trkpt>
      <trkpt lat="47.49141" lon="6.7324">
        <ele>392</ele>
        <time>2016-09-25T07:55:30.000Z</time>
      </trkpt>
      <trkpt lat="47.49143" lon="6.73236">
        <ele>392</ele>
        <time>2016-09-25T07:55:31.000Z</time>
      </trkpt>
      <trkpt lat="47.49144" lon="6.73233">
        <ele>392</ele>
        <time>2016-09-25T07:55:32.000Z</time>
      </trkpt>
      <trkpt lat="47.49145" lon="6.73229">
        <ele>392</ele>
        <time>2016-09-25T07:55:33.000Z</time>
      </trkpt>
      <trkpt lat="47.49147" lon="6.73226">
        <ele>392</ele>
        <time>2016-09-25T07:55:34.000Z</time>
      </trkpt>
      <trkpt lat="47.49148" lon="6.73222">
        <ele>392</ele>
        <time>2016-09-25T07:55:35.000Z</time>
      </trkpt>
      <trkpt lat="47.49149" lon="6.73218">
        <ele>393</ele>
        <time>2016-09-25T07:55:36.000Z</time>
      </trkpt>
      <trkpt lat="47.4915" lon="6.73214">
        <ele>393</ele>
        <time>2016-09-25T07:55:37.000Z</time>
      </trkpt>
      <trkpt lat="47.49152" lon="6.73211">
        <ele>393</ele>
        <time>2016-09-25T07:55:38.000Z</time>
      </trkpt>
      <trkpt lat="47.49154" lon="6.73207">
        <ele>393</ele>
        <time>2016-09-25T07:55:39.000Z</time>
      </trkpt>
      <trkpt lat="47.49155" lon="6.73204">
        <ele>393</ele>
        <time>2016-09-25T07:55:40.000Z</time>
      </trkpt>
      <trkpt lat="47.49159" lon="6.732">
        <ele>393</ele>
        <time>2016-09-25T07:55:42.000Z</time>
      </trkpt>
      <trkpt lat="47.4916" lon="6.73197">
        <ele>394</ele>
        <time>2016-09-25T07:55:43.000Z</time>
      </trkpt>
      <trkpt lat="47.49162" lon="6.73194">
        <ele>394</ele>
        <time>2016-09-25T07:55:44.000Z</time>
      </trkpt>
      <trkpt lat="47.49163" lon="6.73191">
        <ele>394</ele>
        <time>2016-09-25T07:55:45.000Z</time>
      </trkpt>
      <trkpt lat="47.49165" lon="6.73187">
        <ele>395</ele>
        <time>2016-09-25T07:55:46.000Z</time>
      </trkpt>
      <trkpt lat="47.49167" lon="6.73184">
        <ele>397</ele>
        <time>2016-09-25T07:55:47.000Z</time>
      </trkpt>
      <trkpt lat="47.49169" lon="6.73178">
        <ele>397</ele>
        <time>2016-09-25T07:55:49.000Z</time>
      </trkpt>
      <trkpt lat="47.49169" lon="6.73175">
        <ele>397</ele>
        <time>2016-09-25T07:55:50.000Z</time>
      </trkpt>
      <trkpt lat="47.4917" lon="6.7317">
        <ele>398</ele>
        <time>2016-09-25T07:55:52.000Z</time>
      </trkpt>
      <trkpt lat="47.4917" lon="6.73166">
        <ele>398</ele>
        <time>2016-09-25T07:55:53.000Z</time>
      </trkpt>
      <trkpt lat="47.49171" lon="6.73163">
        <ele>398</ele>
        <time>2016-09-25T07:55:54.000Z</time>
      </trkpt>
      <trkpt lat="47.49172" lon="6.73159">
        <ele>397</ele>
        <time>2016-09-25T07:55:55.000Z</time>
      </trkpt>
      <trkpt lat="47.49172" lon="6.73155">
        <ele>397</ele>
        <time>2016-09-25T07:55:56.000Z</time>
      </trkpt>
      <trkpt lat="47.49173" lon="6.73152">
        <ele>397</ele>
        <time>2016-09-25T07:55:57.000Z</time>
      </trkpt>
      <trkpt lat="47.49174" lon="6.73147">
        <ele>397</ele>
        <time>2016-09-25T07:55:58.000Z</time>
      </trkpt>
      <trkpt lat="47.49174" lon="6.73142">
        <ele>397</ele>
        <time>2016-09-25T07:55:59.000Z</time>
      </trkpt>
      <trkpt lat="47.49175" lon="6.73136">
        <ele>396</ele>
        <time>2016-09-25T07:56:00.000Z</time>
      </trkpt>
      <trkpt lat="47.49176" lon="6.7313">
        <ele>396</ele>
        <time>2016-09-25T07:56:01.000Z</time>
      </trkpt>
      <trkpt lat="47.49176" lon="6.73125">
        <ele>396</ele>
        <time>2016-09-25T07:56:02.000Z</time>
      </trkpt>
      <trkpt lat="47.49176" lon="6.7312">
        <ele>396</ele>
        <time>2016-09-25T07:56:03.000Z</time>
      </trkpt>
      <trkpt lat="47.49176" lon="6.73115">
        <ele>396</ele>
        <time>2016-09-25T07:56:04.000Z</time>
      </trkpt>
      <trkpt lat="47.49175" lon="6.73111">
        <ele>396</ele>
        <time>2016-09-25T07:56:05.000Z</time>
      </trkpt>
      <trkpt lat="47.49175" lon="6.73108">
        <ele>395</ele>
        <time>2016-09-25T07:56:06.000Z</time>
      </trkpt>
      <trkpt lat="47.49175" lon="6.73104">
        <ele>395</ele>
        <time>2016-09-25T07:56:07.000Z</time>
      </trkpt>
      <trkpt lat="47.49176" lon="6.73099">
        <ele>395</ele>
        <time>2016-09-25T07:56:08.000Z</time>
      </trkpt>
      <trkpt lat="47.49177" lon="6.73093">
        <ele>395</ele>
        <time>2016-09-25T07:56:09.000Z</time>
      </trkpt>
      <trkpt lat="47.49178" lon="6.73088">
        <ele>395</ele>
        <time>2016-09-25T07:56:10.000Z</time>
      </trkpt>
      <trkpt lat="47.4918" lon="6.73082">
        <ele>394</ele>
        <time>2016-09-25T07:56:11.000Z</time>
      </trkpt>
      <trkpt lat="47.49182" lon="6.73077">
        <ele>395</ele>
        <time>2016-09-25T07:56:12.000Z</time>
      </trkpt>
      <trkpt lat="47.49183" lon="6.73072">
        <ele>395</ele>
        <time>2016-09-25T07:56:13.000Z</time>
      </trkpt>
      <trkpt lat="47.49184" lon="6.73067">
        <ele>395</ele>
        <time>2016-09-25T07:56:14.000Z</time>
      </trkpt>
      <trkpt lat="47.49185" lon="6.73063">
        <ele>395</ele>
        <time>2016-09-25T07:56:15.000Z</time>
      </trkpt>
      <trkpt lat="47.49186" lon="6.73059">
        <ele>395</ele>
        <time>2016-09-25T07:56:16.000Z</time>
      </trkpt>
      <trkpt lat="47.49187" lon="6.73055">
        <ele>395</ele>
        <time>2016-09-25T07:56:17.000Z</time>
      </trkpt>
      <trkpt lat="47.49188" lon="6.73051">
        <ele>395</ele>
        <time>2016-09-25T07:56:18.000Z</time>
      </trkpt>
      <trkpt lat="47.49188" lon="6.73047">
        <ele>395</ele>
        <time>2016-09-25T07:56:19.000Z</time>
      </trkpt>
      <trkpt lat="47.49189" lon="6.73043">
        <ele>395</ele>
        <time>2016-09-25T07:56:20.000Z</time>
      </trkpt>
      <trkpt lat="47.4919" lon="6.7304">
        <ele>395</ele>
        <time>2016-09-25T07:56:21.000Z</time>
      </trkpt>
      <trkpt lat="47.4919" lon="6.73035">
        <ele>395</ele>
        <time>2016-09-25T07:56:22.000Z</time>
      </trkpt>
      <trkpt lat="47.49191" lon="6.7303">
        <ele>394</ele>
        <time>2016-09-25T07:56:23.000Z</time>
      </trkpt>
      <trkpt lat="47.49191" lon="6.73025">
        <ele>394</ele>
        <time>2016-09-25T07:56:24.000Z</time>
      </trkpt>
      <trkpt lat="47.49191" lon="6.7302">
        <ele>394</ele>
        <time>2016-09-25T07:56:25.000Z</time>
      </trkpt>
      <trkpt lat="47.49191" lon="6.73016">
        <ele>394</ele>
        <time>2016-09-25T07:56:26.000Z</time>
      </trkpt>
      <trkpt lat="47.49192" lon="6.73012">
        <ele>394</ele>
        <time>2016-09-25T07:56:27.000Z</time>
      </trkpt>
      <trkpt lat="47.49192" lon="6.73008">
        <ele>394</ele>
        <time>2016-09-25T07:56:28.000Z</time>
      </trkpt>
      <trkpt lat="47.49193" lon="6.73005">
        <ele>394</ele>
        <time>2016-09-25T07:56:29.000Z</time>
      </trkpt>
      <trkpt lat="47.49194" lon="6.72999">
        <ele>394</ele>
        <time>2016-09-25T07:56:31.000Z</time>
      </trkpt>
      <trkpt lat="47.49195" lon="6.72996">
        <ele>394</ele>
        <time>2016-09-25T07:56:32.000Z</time>
      </trkpt>
      <trkpt lat="47.49196" lon="6.72991">
        <ele>394</ele>
        <time>2016-09-25T07:56:34.000Z</time>
      </trkpt>
      <trkpt lat="47.49197" lon="6.72988">
        <ele>394</ele>
        <time>2016-09-25T07:56:35.000Z</time>
      </trkpt>
      <trkpt lat="47.49199" lon="6.72985">
        <ele>395</ele>
        <time>2016-09-25T07:56:36.000Z</time>
      </trkpt>
      <trkpt lat="47.492" lon="6.72982">
        <ele>395</ele>
        <time>2016-09-25T07:56:37.000Z</time>
      </trkpt>
      <trkpt lat="47.49202" lon="6.72979">
        <ele>395</ele>
        <time>2016-09-25T07:56:38.000Z</time>
      </trkpt>
      <trkpt lat="47.49203" lon="6.72976">
        <ele>395</ele>
        <time>2016-09-25T07:56:39.000Z</time>
      </trkpt>
      <trkpt lat="47.49205" lon="6.72971">
        <ele>395</ele>
        <time>2016-09-25T07:56:41.000Z</time>
      </trkpt>
      <trkpt lat="47.49205" lon="6.72968">
        <ele>395</ele>
        <time>2016-09-25T07:56:42.000Z</time>
      </trkpt>
      <trkpt lat="47.49207" lon="6.72963">
        <ele>395</ele>
        <time>2016-09-25T07:56:43.000Z</time>
      </trkpt>
      <trkpt lat="47.49208" lon="6.72959">
        <ele>395</ele>
        <time>2016-09-25T07:56:44.000Z</time>
      </trkpt>
      <trkpt lat="47.4921" lon="6.72954">
        <ele>395</ele>
        <time>2016-09-25T07:56:45.000Z</time>
      </trkpt>
      <trkpt lat="47.49212" lon="6.7295">
        <ele>395</ele>
        <time>2016-09-25T07:56:46.000Z</time>
      </trkpt>
      <trkpt lat="47.49213" lon="6.72947">
        <ele>396</ele>
        <time>2016-09-25T07:56:47.000Z</time>
      </trkpt>
      <trkpt lat="47.49215" lon="6.72944">
        <ele>396</ele>
        <time>2016-09-25T07:56:48.000Z</time>
      </trkpt>
      <trkpt lat="47.49216" lon="6.7294">
        <ele>396</ele>
        <time>2016-09-25T07:56:49.000Z</time>
      </trkpt>
      <trkpt lat="47.49218" lon="6.72937">
        <ele>396</ele>
        <time>2016-09-25T07:56:50.000Z</time>
      </trkpt>
      <trkpt lat="47.49219" lon="6.72933">
        <ele>396</ele>
        <time>2016-09-25T07:56:51.000Z</time>
      </trkpt>
      <trkpt lat="47.49221" lon="6.72928">
        <ele>396</ele>
        <time>2016-09-25T07:56:52.000Z</time>
      </trkpt>
      <trkpt lat="47.49222" lon="6.72924">
        <ele>396</ele>
        <time>2016-09-25T07:56:53.000Z</time>
      </trkpt>
      <trkpt lat="47.49224" lon="6.72919">
        <ele>396</ele>
        <time>2016-09-25T07:56:54.000Z</time>
      </trkpt>
      <trkpt lat="47.49226" lon="6.72913">
        <ele>396</ele>
        <time>2016-09-25T07:56:55.000Z</time>
      </trkpt>
      <trkpt lat="47.49228" lon="6.72909">
        <ele>396</ele>
        <time>2016-09-25T07:56:56.000Z</time>
      </trkpt>
      <trkpt lat="47.49231" lon="6.72904">
        <ele>396</ele>
        <time>2016-09-25T07:56:57.000Z</time>
      </trkpt>
      <trkpt lat="47.49233" lon="6.72899">
        <ele>396</ele>
        <time>2016-09-25T07:56:58.000Z</time>
      </trkpt>
      <trkpt lat="47.49235" lon="6.72896">
        <ele>396</ele>
        <time>2016-09-25T07:56:59.000Z</time>
      </trkpt>
      <trkpt lat="47.49237" lon="6.72893">
        <ele>396</ele>
        <time>2016-09-25T07:57:00.000Z</time>
      </trkpt>
      <trkpt lat="47.49239" lon="6.72891">
        <ele>396</ele>
        <time>2016-09-25T07:57:01.000Z</time>
      </trkpt>
      <trkpt lat="47.49241" lon="6.7289">
        <ele>396</ele>
        <time>2016-09-25T07:57:02.000Z</time>
      </trkpt>
      <trkpt lat="47.49244" lon="6.72889">
        <ele>396</ele>
        <time>2016-09-25T07:57:03.000Z</time>
      </trkpt>
      <trkpt lat="47.49247" lon="6.72886">
        <ele>396</ele>
        <time>2016-09-25T07:57:04.000Z</time>
      </trkpt>
      <trkpt lat="47.49251" lon="6.72882">
        <ele>397</ele>
        <time>2016-09-25T07:57:05.000Z</time>
      </trkpt>
      <trkpt lat="47.49255" lon="6.72876">
        <ele>397</ele>
        <time>2016-09-25T07:57:06.000Z</time>
      </trkpt>
      <trkpt lat="47.4926" lon="6.72871">
        <ele>397</ele>
        <time>2016-09-25T07:57:07.000Z</time>
      </trkpt>
      <trkpt lat="47.49264" lon="6.72867">
        <ele>397</ele>
        <time>2016-09-25T07:57:08.000Z</time>
      </trkpt>
      <trkpt lat="47.49268" lon="6.72862">
        <ele>397</ele>
        <time>2016-09-25T07:57:09.000Z</time>
      </trkpt>
      <trkpt lat="47.49271" lon="6.72858">
        <ele>397</ele>
        <time>2016-09-25T07:57:10.000Z</time>
      </trkpt>
      <trkpt lat="47.49274" lon="6.72854">
        <ele>397</ele>
        <time>2016-09-25T07:57:11.000Z</time>
      </trkpt>
      <trkpt lat="47.49276" lon="6.72849">
        <ele>397</ele>
        <time>2016-09-25T07:57:12.000Z</time>
      </trkpt>
      <trkpt lat="47.49278" lon="6.72845">
        <ele>397</ele>
        <time>2016-09-25T07:57:13.000Z</time>
      </trkpt>
      <trkpt lat="47.4928" lon="6.7284">
        <ele>397</ele>
        <time>2016-09-25T07:57:14.000Z</time>
      </trkpt>
      <trkpt lat="47.49282" lon="6.72835">
        <ele>397</ele>
        <time>2016-09-25T07:57:15.000Z</time>
      </trkpt>
      <trkpt lat="47.49283" lon="6.7283">
        <ele>397</ele>
        <time>2016-09-25T07:57:16.000Z</time>
      </trkpt>
      <trkpt lat="47.49285" lon="6.72825">
        <ele>397</ele>
        <time>2016-09-25T07:57:17.000Z</time>
      </trkpt>
      <trkpt lat="47.49286" lon="6.7282">
        <ele>397</ele>
        <time>2016-09-25T07:57:18.000Z</time>
      </trkpt>
      <trkpt lat="47.49288" lon="6.72815">
        <ele>397</ele>
        <time>2016-09-25T07:57:19.000Z</time>
      </trkpt>
      <trkpt lat="47.49289" lon="6.72809">
        <ele>397</ele>
        <time>2016-09-25T07:57:20.000Z</time>
      </trkpt>
      <trkpt lat="47.4929" lon="6.72804">
        <ele>397</ele>
        <time>2016-09-25T07:57:21.000Z</time>
      </trkpt>
      <trkpt lat="47.49292" lon="6.72798">
        <ele>397</ele>
        <time>2016-09-25T07:57:22.000Z</time>
      </trkpt>
      <trkpt lat="47.49292" lon="6.72793">
        <ele>397</ele>
        <time>2016-09-25T07:57:23.000Z</time>
      </trkpt>
      <trkpt lat="47.49293" lon="6.72789">
        <ele>398</ele>
        <time>2016-09-25T07:57:24.000Z</time>
      </trkpt>
      <trkpt lat="47.49294" lon="6.72784">
        <ele>398</ele>
        <time>2016-09-25T07:57:25.000Z</time>
      </trkpt>
      <trkpt lat="47.49295" lon="6.7278">
        <ele>398</ele>
        <time>2016-09-25T07:57:26.000Z</time>
      </trkpt>
      <trkpt lat="47.49297" lon="6.72775">
        <ele>398</ele>
        <time>2016-09-25T07:57:27.000Z</time>
      </trkpt>
      <trkpt lat="47.49298" lon="6.7277">
        <ele>398</ele>
        <time>2016-09-25T07:57:28.000Z</time>
      </trkpt>
      <trkpt lat="47.49299" lon="6.72767">
        <ele>398</ele>
        <time>2016-09-25T07:57:29.000Z</time>
      </trkpt>
      <trkpt lat="47.493" lon="6.72764">
        <ele>398</ele>
        <time>2016-09-25T07:57:30.000Z</time>
      </trkpt>
      <trkpt lat="47.49301" lon="6.72761">
        <ele>398</ele>
        <time>2016-09-25T07:57:31.000Z</time>
      </trkpt>
      <trkpt lat="47.49302" lon="6.72757">
        <ele>398</ele>
        <time>2016-09-25T07:57:32.000Z</time>
      </trkpt>
      <trkpt lat="47.49303" lon="6.72753">
        <ele>398</ele>
        <time>2016-09-25T07:57:33.000Z</time>
      </trkpt>
      <trkpt lat="47.49304" lon="6.72749">
        <ele>399</ele>
        <time>2016-09-25T07:57:34.000Z</time>
      </trkpt>
      <trkpt lat="47.49305" lon="6.72745">
        <ele>399</ele>
        <time>2016-09-25T07:57:35.000Z</time>
      </trkpt>
      <trkpt lat="47.49306" lon="6.72742">
        <ele>399</ele>
        <time>2016-09-25T07:57:36.000Z</time>
      </trkpt>
      <trkpt lat="47.49307" lon="6.72738">
        <ele>399</ele>
        <time>2016-09-25T07:57:37.000Z</time>
      </trkpt>
      <trkpt lat="47.49308" lon="6.72733">
        <ele>399</ele>
        <time>2016-09-25T07:57:38.000Z</time>
      </trkpt>
      <trkpt lat="47.49309" lon="6.72729">
        <ele>399</ele>
        <time>2016-09-25T07:57:39.000Z</time>
      </trkpt>
      <trkpt lat="47.4931" lon="6.72725">
        <ele>399</ele>
        <time>2016-09-25T07:57:40.000Z</time>
      </trkpt>
      <trkpt lat="47.49311" lon="6.72721">
        <ele>399</ele>
        <time>2016-09-25T07:57:41.000Z</time>
      </trkpt>
      <trkpt lat="47.49313" lon="6.72718">
        <ele>400</ele>
        <time>2016-09-25T07:57:42.000Z</time>
      </trkpt>
      <trkpt lat="47.49313" lon="6.72715">
        <ele>400</ele>
        <time>2016-09-25T07:57:43.000Z</time>
      </trkpt>
      <trkpt lat="47.49314" lon="6.72712">
        <ele>400</ele>
        <time>2016-09-25T07:57:44.000Z</time>
      </trkpt>
      <trkpt lat="47.49314" lon="6.72708">
        <ele>400</ele>
        <time>2016-09-25T07:57:45.000Z</time>
      </trkpt>
      <trkpt lat="47.49313" lon="6.72703">
        <ele>400</ele>
        <time>2016-09-25T07:57:46.000Z</time>
      </trkpt>
      <trkpt lat="47.49313" lon="6.72698">
        <ele>400</ele>
        <time>2016-09-25T07:57:47.000Z</time>
      </trkpt>
      <trkpt lat="47.49313" lon="6.72694">
        <ele>400</ele>
        <time>2016-09-25T07:57:48.000Z</time>
      </trkpt>
      <trkpt lat="47.49312" lon="6.72689">
        <ele>400</ele>
        <time>2016-09-25T07:57:49.000Z</time>
      </trkpt>
      <trkpt lat="47.49312" lon="6.72685">
        <ele>400</ele>
        <time>2016-09-25T07:57:50.000Z</time>
      </trkpt>
      <trkpt lat="47.49312" lon="6.72681">
        <ele>401</ele>
        <time>2016-09-25T07:57:51.000Z</time>
      </trkpt>
      <trkpt lat="47.49312" lon="6.72677">
        <ele>401</ele>
        <time>2016-09-25T07:57:52.000Z</time>
      </trkpt>
      <trkpt lat="47.49312" lon="6.72673">
        <ele>401</ele>
        <time>2016-09-25T07:57:53.000Z</time>
      </trkpt>
      <trkpt lat="47.49313" lon="6.72669">
        <ele>401</ele>
        <time>2016-09-25T07:57:54.000Z</time>
      </trkpt>
      <trkpt lat="47.49315" lon="6.72666">
        <ele>402</ele>
        <time>2016-09-25T07:57:55.000Z</time>
      </trkpt>
      <trkpt lat="47.49317" lon="6.72662">
        <ele>402</ele>
        <time>2016-09-25T07:57:56.000Z</time>
      </trkpt>
      <trkpt lat="47.49319" lon="6.72658">
        <ele>403</ele>
        <time>2016-09-25T07:57:57.000Z</time>
      </trkpt>
      <trkpt lat="47.49321" lon="6.72655">
        <ele>403</ele>
        <time>2016-09-25T07:57:58.000Z</time>
      </trkpt>
      <trkpt lat="47.49325" lon="6.72642">
        <ele>402</ele>
        <time>2016-09-25T07:57:59.000Z</time>
      </trkpt>
      <trkpt lat="47.49328" lon="6.72637">
        <ele>402</ele>
        <time>2016-09-25T07:58:01.000Z</time>
      </trkpt>
      <trkpt lat="47.49327" lon="6.72626">
        <ele>403</ele>
        <time>2016-09-25T07:58:02.000Z</time>
      </trkpt>
      <trkpt lat="47.49329" lon="6.72619">
        <ele>403</ele>
        <time>2016-09-25T07:58:03.000Z</time>
      </trkpt>
      <trkpt lat="47.4933" lon="6.72614">
        <ele>403</ele>
        <time>2016-09-25T07:58:04.000Z</time>
      </trkpt>
      <trkpt lat="47.49332" lon="6.72609">
        <ele>403</ele>
        <time>2016-09-25T07:58:06.000Z</time>
      </trkpt>
      <trkpt lat="47.49333" lon="6.72606">
        <ele>403</ele>
        <time>2016-09-25T07:58:07.000Z</time>
      </trkpt>
      <trkpt lat="47.49334" lon="6.72602">
        <ele>404</ele>
        <time>2016-09-25T07:58:08.000Z</time>
      </trkpt>
      <trkpt lat="47.49335" lon="6.72599">
        <ele>404</ele>
        <time>2016-09-25T07:58:09.000Z</time>
      </trkpt>
      <trkpt lat="47.49335" lon="6.72595">
        <ele>405</ele>
        <time>2016-09-25T07:58:10.000Z</time>
      </trkpt>
      <trkpt lat="47.49336" lon="6.72592">
        <ele>405</ele>
        <time>2016-09-25T07:58:11.000Z</time>
      </trkpt>
      <trkpt lat="47.49337" lon="6.72588">
        <ele>405</ele>
        <time>2016-09-25T07:58:12.000Z</time>
      </trkpt>
      <trkpt lat="47.49337" lon="6.72585">
        <ele>405</ele>
        <time>2016-09-25T07:58:13.000Z</time>
      </trkpt>
      <trkpt lat="47.49337" lon="6.72579">
        <ele>406</ele>
        <time>2016-09-25T07:58:15.000Z</time>
      </trkpt>
      <trkpt lat="47.49337" lon="6.72575">
        <ele>405</ele>
        <time>2016-09-25T07:58:16.000Z</time>
      </trkpt>
      <trkpt lat="47.49337" lon="6.72571">
        <ele>405</ele>
        <time>2016-09-25T07:58:17.000Z</time>
      </trkpt>
      <trkpt lat="47.49338" lon="6.72566">
        <ele>405</ele>
        <time>2016-09-25T07:58:18.000Z</time>
      </trkpt>
      <trkpt lat="47.49338" lon="6.72562">
        <ele>405</ele>
        <time>2016-09-25T07:58:19.000Z</time>
      </trkpt>
      <trkpt lat="47.49339" lon="6.72558">
        <ele>405</ele>
        <time>2016-09-25T07:58:20.000Z</time>
      </trkpt>
      <trkpt lat="47.4934" lon="6.72554">
        <ele>405</ele>
        <time>2016-09-25T07:58:21.000Z</time>
      </trkpt>
      <trkpt lat="47.4934" lon="6.7255">
        <ele>405</ele>
        <time>2016-09-25T07:58:22.000Z</time>
      </trkpt>
      <trkpt lat="47.4934" lon="6.72545">
        <ele>405</ele>
        <time>2016-09-25T07:58:23.000Z</time>
      </trkpt>
      <trkpt lat="47.4934" lon="6.72541">
        <ele>405</ele>
        <time>2016-09-25T07:58:24.000Z</time>
      </trkpt>
      <trkpt lat="47.49341" lon="6.72537">
        <ele>405</ele>
        <time>2016-09-25T07:58:25.000Z</time>
      </trkpt>
      <trkpt lat="47.49341" lon="6.72533">
        <ele>405</ele>
        <time>2016-09-25T07:58:26.000Z</time>
      </trkpt>
      <trkpt lat="47.49341" lon="6.72529">
        <ele>406</ele>
        <time>2016-09-25T07:58:27.000Z</time>
      </trkpt>
      <trkpt lat="47.49341" lon="6.72526">
        <ele>406</ele>
        <time>2016-09-25T07:58:28.000Z</time>
      </trkpt>
      <trkpt lat="47.49342" lon="6.72519">
        <ele>406</ele>
        <time>2016-09-25T07:58:30.000Z</time>
      </trkpt>
      <trkpt lat="47.49343" lon="6.72517">
        <ele>406</ele>
        <time>2016-09-25T07:58:31.000Z</time>
      </trkpt>
      <trkpt lat="47.49345" lon="6.72514">
        <ele>406</ele>
        <time>2016-09-25T07:58:33.000Z</time>
      </trkpt>
      <trkpt lat="47.49346" lon="6.72512">
        <ele>406</ele>
        <time>2016-09-25T07:58:34.000Z</time>
      </trkpt>
      <trkpt lat="47.49349" lon="6.72508">
        <ele>406</ele>
        <time>2016-09-25T07:58:36.000Z</time>
      </trkpt>
      <trkpt lat="47.4935" lon="6.72505">
        <ele>406</ele>
        <time>2016-09-25T07:58:37.000Z</time>
      </trkpt>
      <trkpt lat="47.49352" lon="6.725">
        <ele>408</ele>
        <time>2016-09-25T07:58:39.000Z</time>
      </trkpt>
      <trkpt lat="47.49353" lon="6.72497">
        <ele>408</ele>
        <time>2016-09-25T07:58:40.000Z</time>
      </trkpt>
      <trkpt lat="47.49352" lon="6.72494">
        <ele>408</ele>
        <time>2016-09-25T07:58:41.000Z</time>
      </trkpt>
      <trkpt lat="47.49351" lon="6.72491">
        <ele>408</ele>
        <time>2016-09-25T07:58:42.000Z</time>
      </trkpt>
      <trkpt lat="47.4935" lon="6.72487">
        <ele>408</ele>
        <time>2016-09-25T07:58:43.000Z</time>
      </trkpt>
      <trkpt lat="47.49348" lon="6.72484">
        <ele>408</ele>
        <time>2016-09-25T07:58:44.000Z</time>
      </trkpt>
      <trkpt lat="47.4935" lon="6.7248">
        <ele>408</ele>
        <time>2016-09-25T07:58:46.000Z</time>
      </trkpt>
      <trkpt lat="47.49351" lon="6.72478">
        <ele>408</ele>
        <time>2016-09-25T07:58:47.000Z</time>
      </trkpt>
      <trkpt lat="47.49354" lon="6.72474">
        <ele>407</ele>
        <time>2016-09-25T07:58:49.000Z</time>
      </trkpt>
      <trkpt lat="47.49355" lon="6.72471">
        <ele>407</ele>
        <time>2016-09-25T07:58:50.000Z</time>
      </trkpt>
      <trkpt lat="47.49355" lon="6.72467">
        <ele>407</ele>
        <time>2016-09-25T07:58:51.000Z</time>
      </trkpt>
      <trkpt lat="47.49355" lon="6.72463">
        <ele>408</ele>
        <time>2016-09-25T07:58:52.000Z</time>
      </trkpt>
      <trkpt lat="47.49354" lon="6.72457">
        <ele>408</ele>
        <time>2016-09-25T07:58:53.000Z</time>
      </trkpt>
      <trkpt lat="47.49353" lon="6.72452">
        <ele>408</ele>
        <time>2016-09-25T07:58:54.000Z</time>
      </trkpt>
      <trkpt lat="47.49352" lon="6.72447">
        <ele>408</ele>
        <time>2016-09-25T07:58:55.000Z</time>
      </trkpt>
      <trkpt lat="47.4935" lon="6.72443">
        <ele>408</ele>
        <time>2016-09-25T07:58:56.000Z</time>
      </trkpt>
      <trkpt lat="47.49349" lon="6.72439">
        <ele>409</ele>
        <time>2016-09-25T07:58:57.000Z</time>
      </trkpt>
      <trkpt lat="47.49348" lon="6.72435">
        <ele>409</ele>
        <time>2016-09-25T07:58:58.000Z</time>
      </trkpt>
      <trkpt lat="47.49347" lon="6.72429">
        <ele>409</ele>
        <time>2016-09-25T07:59:00.000Z</time>
      </trkpt>
      <trkpt lat="47.49346" lon="6.72426">
        <ele>410</ele>
        <time>2016-09-25T07:59:01.000Z</time>
      </trkpt>
      <trkpt lat="47.49346" lon="6.72419">
        <ele>410</ele>
        <time>2016-09-25T07:59:03.000Z</time>
      </trkpt>
      <trkpt lat="47.49346" lon="6.72416">
        <ele>411</ele>
        <time>2016-09-25T07:59:04.000Z</time>
      </trkpt>
      <trkpt lat="47.49346" lon="6.72412">
        <ele>411</ele>
        <time>2016-09-25T07:59:05.000Z</time>
      </trkpt>
      <trkpt lat="47.49346" lon="6.72408">
        <ele>411</ele>
        <time>2016-09-25T07:59:06.000Z</time>
      </trkpt>
      <trkpt lat="47.49347" lon="6.72404">
        <ele>411</ele>
        <time>2016-09-25T07:59:07.000Z</time>
      </trkpt>
      <trkpt lat="47.49347" lon="6.724">
        <ele>411</ele>
        <time>2016-09-25T07:59:08.000Z</time>
      </trkpt>
      <trkpt lat="47.49347" lon="6.72395">
        <ele>411</ele>
        <time>2016-09-25T07:59:09.000Z</time>
      </trkpt>
      <trkpt lat="47.49346" lon="6.72392">
        <ele>411</ele>
        <time>2016-09-25T07:59:10.000Z</time>
      </trkpt>
      <trkpt lat="47.49344" lon="6.72388">
        <ele>411</ele>
        <time>2016-09-25T07:59:11.000Z</time>
      </trkpt>
      <trkpt lat="47.49344" lon="6.72385">
        <ele>411</ele>
        <time>2016-09-25T07:59:12.000Z</time>
      </trkpt>
      <trkpt lat="47.49344" lon="6.72381">
        <ele>411</ele>
        <time>2016-09-25T07:59:13.000Z</time>
      </trkpt>
      <trkpt lat="47.49345" lon="6.72376">
        <ele>411</ele>
        <time>2016-09-25T07:59:14.000Z</time>
      </trkpt>
      <trkpt lat="47.49346" lon="6.72371">
        <ele>411</ele>
        <time>2016-09-25T07:59:15.000Z</time>
      </trkpt>
      <trkpt lat="47.49347" lon="6.72366">
        <ele>411</ele>
        <time>2016-09-25T07:59:16.000Z</time>
      </trkpt>
      <trkpt lat="47.49348" lon="6.72362">
        <ele>412</ele>
        <time>2016-09-25T07:59:17.000Z</time>
      </trkpt>
      <trkpt lat="47.49349" lon="6.72359">
        <ele>412</ele>
        <time>2016-09-25T07:59:18.000Z</time>
      </trkpt>
      <trkpt lat="47.49349" lon="6.72355">
        <ele>412</ele>
        <time>2016-09-25T07:59:19.000Z</time>
      </trkpt>
      <trkpt lat="47.4935" lon="6.72352">
        <ele>412</ele>
        <time>2016-09-25T07:59:20.000Z</time>
      </trkpt>
      <trkpt lat="47.49351" lon="6.72349">
        <ele>412</ele>
        <time>2016-09-25T07:59:21.000Z</time>
      </trkpt>
      <trkpt lat="47.49352" lon="6.72346">
        <ele>412</ele>
        <time>2016-09-25T07:59:22.000Z</time>
      </trkpt>
      <trkpt lat="47.49354" lon="6.72343">
        <ele>412</ele>
        <time>2016-09-25T07:59:23.000Z</time>
      </trkpt>
      <trkpt lat="47.49355" lon="6.72339">
        <ele>412</ele>
        <time>2016-09-25T07:59:24.000Z</time>
      </trkpt>
      <trkpt lat="47.49355" lon="6.72335">
        <ele>412</ele>
        <time>2016-09-25T07:59:25.000Z</time>
      </trkpt>
      <trkpt lat="47.49355" lon="6.7233">
        <ele>414</ele>
        <time>2016-09-25T07:59:26.000Z</time>
      </trkpt>
      <trkpt lat="47.49355" lon="6.72325">
        <ele>414</ele>
        <time>2016-09-25T07:59:27.000Z</time>
      </trkpt>
      <trkpt lat="47.49355" lon="6.72321">
        <ele>414</ele>
        <time>2016-09-25T07:59:28.000Z</time>
      </trkpt>
      <trkpt lat="47.49356" lon="6.72316">
        <ele>415</ele>
        <time>2016-09-25T07:59:29.000Z</time>
      </trkpt>
      <trkpt lat="47.49357" lon="6.72312">
        <ele>415</ele>
        <time>2016-09-25T07:59:30.000Z</time>
      </trkpt>
      <trkpt lat="47.49358" lon="6.72309">
        <ele>415</ele>
        <time>2016-09-25T07:59:31.000Z</time>
      </trkpt>
      <trkpt lat="47.49359" lon="6.72306">
        <ele>415</ele>
        <time>2016-09-25T07:59:32.000Z</time>
      </trkpt>
      <trkpt lat="47.49361" lon="6.72303">
        <ele>415</ele>
        <time>2016-09-25T07:59:33.000Z</time>
      </trkpt>
      <trkpt lat="47.49363" lon="6.723">
        <ele>415</ele>
        <time>2016-09-25T07:59:34.000Z</time>
      </trkpt>
      <trkpt lat="47.49365" lon="6.72298">
        <ele>415</ele>
        <time>2016-09-25T07:59:35.000Z</time>
      </trkpt>
      <trkpt lat="47.49366" lon="6.72296">
        <ele>415</ele>
        <time>2016-09-25T07:59:36.000Z</time>
      </trkpt>
      <trkpt lat="47.49367" lon="6.72291">
        <ele>415</ele>
        <time>2016-09-25T07:59:38.000Z</time>
      </trkpt>
      <trkpt lat="47.49367" lon="6.72289">
        <ele>415</ele>
        <time>2016-09-25T07:59:39.000Z</time>
      </trkpt>
      <trkpt lat="47.49367" lon="6.72283">
        <ele>415</ele>
        <time>2016-09-25T07:59:41.000Z</time>
      </trkpt>
      <trkpt lat="47.49367" lon="6.72279">
        <ele>415</ele>
        <time>2016-09-25T07:59:42.000Z</time>
      </trkpt>
      <trkpt lat="47.49367" lon="6.72275">
        <ele>416</ele>
        <time>2016-09-25T07:59:43.000Z</time>
      </trkpt>
      <trkpt lat="47.49367" lon="6.72272">
        <ele>416</ele>
        <time>2016-09-25T07:59:44.000Z</time>
      </trkpt>
      <trkpt lat="47.49367" lon="6.72268">
        <ele>416</ele>
        <time>2016-09-25T07:59:45.000Z</time>
      </trkpt>
      <trkpt lat="47.49367" lon="6.72265">
        <ele>416</ele>
        <time>2016-09-25T07:59:46.000Z</time>
      </trkpt>
      <trkpt lat="47.49366" lon="6.7226">
        <ele>416</ele>
        <time>2016-09-25T07:59:48.000Z</time>
      </trkpt>
      <trkpt lat="47.49366" lon="6.72258">
        <ele>416</ele>
        <time>2016-09-25T07:59:49.000Z</time>
      </trkpt>
      <trkpt lat="47.49366" lon="6.72254">
        <ele>416</ele>
        <time>2016-09-25T07:59:50.000Z</time>
      </trkpt>
      <trkpt lat="47.49367" lon="6.72251">
        <ele>416</ele>
        <time>2016-09-25T07:59:51.000Z</time>
      </trkpt>
      <trkpt lat="47.49368" lon="6.72247">
        <ele>419</ele>
        <time>2016-09-25T07:59:52.000Z</time>
      </trkpt>
      <trkpt lat="47.4937" lon="6.72244">
        <ele>419</ele>
        <time>2016-09-25T07:59:53.000Z</time>
      </trkpt>
      <trkpt lat="47.49373" lon="6.72238">
        <ele>419</ele>
        <time>2016-09-25T07:59:55.000Z</time>
      </trkpt>
      <trkpt lat="47.49374" lon="6.72236">
        <ele>419</ele>
        <time>2016-09-25T07:59:56.000Z</time>
      </trkpt>
      <trkpt lat="47.49375" lon="6.72233">
        <ele>419</ele>
        <time>2016-09-25T07:59:57.000Z</time>
      </trkpt>
      <trkpt lat="47.49376" lon="6.72229">
        <ele>419</ele>
        <time>2016-09-25T07:59:58.000Z</time>
      </trkpt>
      <trkpt lat="47.49377" lon="6.72226">
        <ele>419</ele>
        <time>2016-09-25T07:59:59.000Z</time>
      </trkpt>
      <trkpt lat="47.49378" lon="6.72222">
        <ele>419</ele>
        <time>2016-09-25T08:00:00.000Z</time>
      </trkpt>
      <trkpt lat="47.49378" lon="6.72218">
        <ele>419</ele>
        <time>2016-09-25T08:00:01.000Z</time>
      </trkpt>
      <trkpt lat="47.49379" lon="6.72214">
        <ele>419</ele>
        <time>2016-09-25T08:00:02.000Z</time>
      </trkpt>
      <trkpt lat="47.49379" lon="6.72211">
        <ele>419</ele>
        <time>2016-09-25T08:00:03.000Z</time>
      </trkpt>
      <trkpt lat="47.49379" lon="6.72207">
        <ele>419</ele>
        <time>2016-09-25T08:00:04.000Z</time>
      </trkpt>
      <trkpt lat="47.4938" lon="6.72203">
        <ele>419</ele>
        <time>2016-09-25T08:00:06.000Z</time>
      </trkpt>
      <trkpt lat="47.49381" lon="6.72201">
        <ele>419</ele>
        <time>2016-09-25T08:00:07.000Z</time>
      </trkpt>
      <trkpt lat="47.49384" lon="6.72197">
        <ele>419</ele>
        <time>2016-09-25T08:00:09.000Z</time>
      </trkpt>
      <trkpt lat="47.49386" lon="6.72194">
        <ele>419</ele>
        <time>2016-09-25T08:00:10.000Z</time>
      </trkpt>
      <trkpt lat="47.49389" lon="6.72191">
        <ele>419</ele>
        <time>2016-09-25T08:00:12.000Z</time>
      </trkpt>
      <trkpt lat="47.4939" lon="6.72188">
        <ele>420</ele>
        <time>2016-09-25T08:00:13.000Z</time>
      </trkpt>
      <trkpt lat="47.49393" lon="6.72183">
        <ele>420</ele>
        <time>2016-09-25T08:00:15.000Z</time>
      </trkpt>
      <trkpt lat="47.49394" lon="6.72179">
        <ele>420</ele>
        <time>2016-09-25T08:00:16.000Z</time>
      </trkpt>
      <trkpt lat="47.49395" lon="6.72176">
        <ele>420</ele>
        <time>2016-09-25T08:00:17.000Z</time>
      </trkpt>
      <trkpt lat="47.49396" lon="6.72173">
        <ele>420</ele>
        <time>2016-09-25T08:00:18.000Z</time>
      </trkpt>
      <trkpt lat="47.49397" lon="6.7217">
        <ele>420</ele>
        <time>2016-09-25T08:00:19.000Z</time>
      </trkpt>
      <trkpt lat="47.49397" lon="6.72166">
        <ele>421</ele>
        <time>2016-09-25T08:00:20.000Z</time>
      </trkpt>
      <trkpt lat="47.49396" lon="6.72162">
        <ele>422</ele>
        <time>2016-09-25T08:00:21.000Z</time>
      </trkpt>
      <trkpt lat="47.49396" lon="6.72158">
        <ele>422</ele>
        <time>2016-09-25T08:00:22.000Z</time>
      </trkpt>
      <trkpt lat="47.49396" lon="6.72154">
        <ele>422</ele>
        <time>2016-09-25T08:00:23.000Z</time>
      </trkpt>
      <trkpt lat="47.49396" lon="6.72149">
        <ele>422</ele>
        <time>2016-09-25T08:00:24.000Z</time>
      </trkpt>
      <trkpt lat="47.49396" lon="6.72145">
        <ele>422</ele>
        <time>2016-09-25T08:00:25.000Z</time>
      </trkpt>
      <trkpt lat="47.49396" lon="6.72141">
        <ele>422</ele>
        <time>2016-09-25T08:00:26.000Z</time>
      </trkpt>
      <trkpt lat="47.49396" lon="6.72138">
        <ele>422</ele>
        <time>2016-09-25T08:00:27.000Z</time>
      </trkpt>
      <trkpt lat="47.49396" lon="6.72134">
        <ele>422</ele>
        <time>2016-09-25T08:00:28.000Z</time>
      </trkpt>
      <trkpt lat="47.49395" lon="6.7213">
        <ele>422</ele>
        <time>2016-09-25T08:00:29.000Z</time>
      </trkpt>
      <trkpt lat="47.49395" lon="6.72126">
        <ele>423</ele>
        <time>2016-09-25T08:00:30.000Z</time>
      </trkpt>
      <trkpt lat="47.49395" lon="6.72121">
        <ele>423</ele>
        <time>2016-09-25T08:00:31.000Z</time>
      </trkpt>
      <trkpt lat="47.49395" lon="6.72116">
        <ele>423</ele>
        <time>2016-09-25T08:00:32.000Z</time>
      </trkpt>
      <trkpt lat="47.49396" lon="6.72111">
        <ele>423</ele>
        <time>2016-09-25T08:00:33.000Z</time>
      </trkpt>
      <trkpt lat="47.49396" lon="6.72107">
        <ele>423</ele>
        <time>2016-09-25T08:00:34.000Z</time>
      </trkpt>
      <trkpt lat="47.49395" lon="6.72102">
        <ele>423</ele>
        <time>2016-09-25T08:00:35.000Z</time>
      </trkpt>
      <trkpt lat="47.49395" lon="6.72098">
        <ele>423</ele>
        <time>2016-09-25T08:00:36.000Z</time>
      </trkpt>
      <trkpt lat="47.49394" lon="6.72094">
        <ele>423</ele>
        <time>2016-09-25T08:00:37.000Z</time>
      </trkpt>
      <trkpt lat="47.49394" lon="6.72091">
        <ele>423</ele>
        <time>2016-09-25T08:00:38.000Z</time>
      </trkpt>
      <trkpt lat="47.49393" lon="6.72086">
        <ele>423</ele>
        <time>2016-09-25T08:00:40.000Z</time>
      </trkpt>
      <trkpt lat="47.49393" lon="6.72084">
        <ele>423</ele>
        <time>2016-09-25T08:00:41.000Z</time>
      </trkpt>
      <trkpt lat="47.49392" lon="6.72079">
        <ele>425</ele>
        <time>2016-09-25T08:00:43.000Z</time>
      </trkpt>
      <trkpt lat="47.49393" lon="6.72076">
        <ele>425</ele>
        <time>2016-09-25T08:00:44.000Z</time>
      </trkpt>
      <trkpt lat="47.49393" lon="6.72072">
        <ele>425</ele>
        <time>2016-09-25T08:00:45.000Z</time>
      </trkpt>
      <trkpt lat="47.49394" lon="6.72069">
        <ele>425</ele>
        <time>2016-09-25T08:00:46.000Z</time>
      </trkpt>
      <trkpt lat="47.49394" lon="6.72065">
        <ele>425</ele>
        <time>2016-09-25T08:00:47.000Z</time>
      </trkpt>
      <trkpt lat="47.49394" lon="6.72061">
        <ele>425</ele>
        <time>2016-09-25T08:00:48.000Z</time>
      </trkpt>
      <trkpt lat="47.49393" lon="6.72055">
        <ele>425</ele>
        <time>2016-09-25T08:00:51.000Z</time>
      </trkpt>
      <trkpt lat="47.49393" lon="6.72053">
        <ele>425</ele>
        <time>2016-09-25T08:00:52.000Z</time>
      </trkpt>
      <trkpt lat="47.49393" lon="6.72048">
        <ele>426</ele>
        <time>2016-09-25T08:00:54.000Z</time>
      </trkpt>
      <trkpt lat="47.49394" lon="6.72045">
        <ele>426</ele>
        <time>2016-09-25T08:00:55.000Z</time>
      </trkpt>
      <trkpt lat="47.49394" lon="6.72039">
        <ele>426</ele>
        <time>2016-09-25T08:00:58.000Z</time>
      </trkpt>
      <trkpt lat="47.49394" lon="6.72037">
        <ele>426</ele>
        <time>2016-09-25T08:00:59.000Z</time>
      </trkpt>
      <trkpt lat="47.49396" lon="6.72031">
        <ele>426</ele>
        <time>2016-09-25T08:01:01.000Z</time>
      </trkpt>
      <trkpt lat="47.49397" lon="6.72028">
        <ele>426</ele>
        <time>2016-09-25T08:01:02.000Z</time>
      </trkpt>
      <trkpt lat="47.49398" lon="6.72025">
        <ele>426</ele>
        <time>2016-09-25T08:01:03.000Z</time>
      </trkpt>
      <trkpt lat="47.49399" lon="6.72022">
        <ele>426</ele>
        <time>2016-09-25T08:01:04.000Z</time>
      </trkpt>
      <trkpt lat="47.49401" lon="6.72017">
        <ele>426</ele>
        <time>2016-09-25T08:01:06.000Z</time>
      </trkpt>
      <trkpt lat="47.49401" lon="6.72015">
        <ele>426</ele>
        <time>2016-09-25T08:01:07.000Z</time>
      </trkpt>
      <trkpt lat="47.49402" lon="6.72012">
        <ele>426</ele>
        <time>2016-09-25T08:01:08.000Z</time>
      </trkpt>
      <trkpt lat="47.49403" lon="6.72009">
        <ele>426</ele>
        <time>2016-09-25T08:01:09.000Z</time>
      </trkpt>
      <trkpt lat="47.49405" lon="6.72005">
        <ele>426</ele>
        <time>2016-09-25T08:01:10.000Z</time>
      </trkpt>
      <trkpt lat="47.49406" lon="6.72002">
        <ele>427</ele>
        <time>2016-09-25T08:01:11.000Z</time>
      </trkpt>
      <trkpt lat="47.49407" lon="6.71999">
        <ele>428</ele>
        <time>2016-09-25T08:01:12.000Z</time>
      </trkpt>
      <trkpt lat="47.49408" lon="6.71996">
        <ele>428</ele>
        <time>2016-09-25T08:01:13.000Z</time>
      </trkpt>
      <trkpt lat="47.4941" lon="6.71991">
        <ele>428</ele>
        <time>2016-09-25T08:01:15.000Z</time>
      </trkpt>
      <trkpt lat="47.4941" lon="6.71988">
        <ele>428</ele>
        <time>2016-09-25T08:01:16.000Z</time>
      </trkpt>
      <trkpt lat="47.4941" lon="6.71983">
        <ele>429</ele>
        <time>2016-09-25T08:01:18.000Z</time>
      </trkpt>
      <trkpt lat="47.4941" lon="6.7198">
        <ele>429</ele>
        <time>2016-09-25T08:01:19.000Z</time>
      </trkpt>
      <trkpt lat="47.49411" lon="6.71975">
        <ele>429</ele>
        <time>2016-09-25T08:01:22.000Z</time>
      </trkpt>
      <trkpt lat="47.49412" lon="6.71973">
        <ele>429</ele>
        <time>2016-09-25T08:01:23.000Z</time>
      </trkpt>
      <trkpt lat="47.49413" lon="6.71968">
        <ele>430</ele>
        <time>2016-09-25T08:01:25.000Z</time>
      </trkpt>
      <trkpt lat="47.49413" lon="6.71965">
        <ele>430</ele>
        <time>2016-09-25T08:01:26.000Z</time>
      </trkpt>
      <trkpt lat="47.49414" lon="6.71961">
        <ele>430</ele>
        <time>2016-09-25T08:01:27.000Z</time>
      </trkpt>
      <trkpt lat="47.49414" lon="6.71957">
        <ele>430</ele>
        <time>2016-09-25T08:01:28.000Z</time>
      </trkpt>
      <trkpt lat="47.49414" lon="6.71953">
        <ele>431</ele>
        <time>2016-09-25T08:01:29.000Z</time>
      </trkpt>
      <trkpt lat="47.49414" lon="6.71949">
        <ele>431</ele>
        <time>2016-09-25T08:01:30.000Z</time>
      </trkpt>
      <trkpt lat="47.49414" lon="6.71945">
        <ele>431</ele>
        <time>2016-09-25T08:01:31.000Z</time>
      </trkpt>
      <trkpt lat="47.49415" lon="6.71941">
        <ele>431</ele>
        <time>2016-09-25T08:01:32.000Z</time>
      </trkpt>
      <trkpt lat="47.49415" lon="6.71937">
        <ele>432</ele>
        <time>2016-09-25T08:01:33.000Z</time>
      </trkpt>
      <trkpt lat="47.49414" lon="6.71932">
        <ele>432</ele>
        <time>2016-09-25T08:01:34.000Z</time>
      </trkpt>
      <trkpt lat="47.49414" lon="6.71928">
        <ele>433</ele>
        <time>2016-09-25T08:01:35.000Z</time>
      </trkpt>
      <trkpt lat="47.49413" lon="6.71925">
        <ele>433</ele>
        <time>2016-09-25T08:01:36.000Z</time>
      </trkpt>
      <trkpt lat="47.49412" lon="6.7192">
        <ele>433</ele>
        <time>2016-09-25T08:01:38.000Z</time>
      </trkpt>
      <trkpt lat="47.49412" lon="6.71917">
        <ele>434</ele>
        <time>2016-09-25T08:01:39.000Z</time>
      </trkpt>
      <trkpt lat="47.49413" lon="6.71911">
        <ele>434</ele>
        <time>2016-09-25T08:01:41.000Z</time>
      </trkpt>
      <trkpt lat="47.49414" lon="6.71908">
        <ele>434</ele>
        <time>2016-09-25T08:01:42.000Z</time>
      </trkpt>
      <trkpt lat="47.49415" lon="6.71902">
        <ele>434</ele>
        <time>2016-09-25T08:01:45.000Z</time>
      </trkpt>
      <trkpt lat="47.49415" lon="6.71899">
        <ele>435</ele>
        <time>2016-09-25T08:01:46.000Z</time>
      </trkpt>
      <trkpt lat="47.49415" lon="6.71895">
        <ele>435</ele>
        <time>2016-09-25T08:01:48.000Z</time>
      </trkpt>
      <trkpt lat="47.49415" lon="6.71892">
        <ele>435</ele>
        <time>2016-09-25T08:01:49.000Z</time>
      </trkpt>
      <trkpt lat="47.49416" lon="6.71886">
        <ele>435</ele>
        <time>2016-09-25T08:01:52.000Z</time>
      </trkpt>
      <trkpt lat="47.49416" lon="6.71885">
        <ele>435</ele>
        <time>2016-09-25T08:01:53.000Z</time>
      </trkpt>
      <trkpt lat="47.49417" lon="6.71878">
        <ele>435</ele>
        <time>2016-09-25T08:01:55.000Z</time>
      </trkpt>
      <trkpt lat="47.49417" lon="6.71876">
        <ele>435</ele>
        <time>2016-09-25T08:01:56.000Z</time>
      </trkpt>
      <trkpt lat="47.49416" lon="6.71872">
        <ele>435</ele>
        <time>2016-09-25T08:01:57.000Z</time>
      </trkpt>
      <trkpt lat="47.49416" lon="6.71868">
        <ele>435</ele>
        <time>2016-09-25T08:01:58.000Z</time>
      </trkpt>
      <trkpt lat="47.49415" lon="6.71865">
        <ele>436</ele>
        <time>2016-09-25T08:01:59.000Z</time>
      </trkpt>
      <trkpt lat="47.49416" lon="6.71861">
        <ele>436</ele>
        <time>2016-09-25T08:02:00.000Z</time>
      </trkpt>
      <trkpt lat="47.49417" lon="6.71856">
        <ele>436</ele>
        <time>2016-09-25T08:02:02.000Z</time>
      </trkpt>
      <trkpt lat="47.49418" lon="6.71854">
        <ele>436</ele>
        <time>2016-09-25T08:02:03.000Z</time>
      </trkpt>
      <trkpt lat="47.4942" lon="6.71849">
        <ele>436</ele>
        <time>2016-09-25T08:02:05.000Z</time>
      </trkpt>
      <trkpt lat="47.49421" lon="6.71848">
        <ele>436</ele>
        <time>2016-09-25T08:02:06.000Z</time>
      </trkpt>
      <trkpt lat="47.49424" lon="6.71846">
        <ele>436</ele>
        <time>2016-09-25T08:02:08.000Z</time>
      </trkpt>
      <trkpt lat="47.49426" lon="6.71845">
        <ele>436</ele>
        <time>2016-09-25T08:02:09.000Z</time>
      </trkpt>
      <trkpt lat="47.49428" lon="6.71843">
        <ele>436</ele>
        <time>2016-09-25T08:02:11.000Z</time>
      </trkpt>
      <trkpt lat="47.49429" lon="6.71841">
        <ele>436</ele>
        <time>2016-09-25T08:02:12.000Z</time>
      </trkpt>
      <trkpt lat="47.49431" lon="6.71837">
        <ele>436</ele>
        <time>2016-09-25T08:02:15.000Z</time>
      </trkpt>
      <trkpt lat="47.49431" lon="6.71835">
        <ele>436</ele>
        <time>2016-09-25T08:02:16.000Z</time>
      </trkpt>
      <trkpt lat="47.49432" lon="6.71829">
        <ele>439</ele>
        <time>2016-09-25T08:02:18.000Z</time>
      </trkpt>
      <trkpt lat="47.49432" lon="6.71825">
        <ele>439</ele>
        <time>2016-09-25T08:02:19.000Z</time>
      </trkpt>
      <trkpt lat="47.49431" lon="6.71821">
        <ele>439</ele>
        <time>2016-09-25T08:02:20.000Z</time>
      </trkpt>
      <trkpt lat="47.4943" lon="6.71817">
        <ele>439</ele>
        <time>2016-09-25T08:02:21.000Z</time>
      </trkpt>
      <trkpt lat="47.4943" lon="6.71814">
        <ele>440</ele>
        <time>2016-09-25T08:02:22.000Z</time>
      </trkpt>
      <trkpt lat="47.49429" lon="6.7181">
        <ele>440</ele>
        <time>2016-09-25T08:02:23.000Z</time>
      </trkpt>
      <trkpt lat="47.4943" lon="6.71807">
        <ele>440</ele>
        <time>2016-09-25T08:02:24.000Z</time>
      </trkpt>
      <trkpt lat="47.49431" lon="6.71803">
        <ele>440</ele>
        <time>2016-09-25T08:02:25.000Z</time>
      </trkpt>
      <trkpt lat="47.49433" lon="6.71799">
        <ele>440</ele>
        <time>2016-09-25T08:02:27.000Z</time>
      </trkpt>
      <trkpt lat="47.49433" lon="6.71797">
        <ele>441</ele>
        <time>2016-09-25T08:02:28.000Z</time>
      </trkpt>
      <trkpt lat="47.49435" lon="6.71791">
        <ele>441</ele>
        <time>2016-09-25T08:02:30.000Z</time>
      </trkpt>
      <trkpt lat="47.49436" lon="6.71788">
        <ele>441</ele>
        <time>2016-09-25T08:02:31.000Z</time>
      </trkpt>
      <trkpt lat="47.49438" lon="6.71783">
        <ele>441</ele>
        <time>2016-09-25T08:02:33.000Z</time>
      </trkpt>
      <trkpt lat="47.49439" lon="6.71781">
        <ele>441</ele>
        <time>2016-09-25T08:02:34.000Z</time>
      </trkpt>
      <trkpt lat="47.49439" lon="6.71776">
        <ele>442</ele>
        <time>2016-09-25T08:02:36.000Z</time>
      </trkpt>
      <trkpt lat="47.49439" lon="6.71773">
        <ele>442</ele>
        <time>2016-09-25T08:02:37.000Z</time>
      </trkpt>
      <trkpt lat="47.49438" lon="6.71769">
        <ele>442</ele>
        <time>2016-09-25T08:02:38.000Z</time>
      </trkpt>
      <trkpt lat="47.49438" lon="6.71766">
        <ele>443</ele>
        <time>2016-09-25T08:02:39.000Z</time>
      </trkpt>
      <trkpt lat="47.49437" lon="6.71762">
        <ele>443</ele>
        <time>2016-09-25T08:02:40.000Z</time>
      </trkpt>
      <trkpt lat="47.49436" lon="6.71758">
        <ele>443</ele>
        <time>2016-09-25T08:02:41.000Z</time>
      </trkpt>
      <trkpt lat="47.49436" lon="6.71754">
        <ele>443</ele>
        <time>2016-09-25T08:02:42.000Z</time>
      </trkpt>
      <trkpt lat="47.49437" lon="6.71749">
        <ele>447</ele>
        <time>2016-09-25T08:02:43.000Z</time>
      </trkpt>
      <trkpt lat="47.49439" lon="6.71743">
        <ele>447</ele>
        <time>2016-09-25T08:02:44.000Z</time>
      </trkpt>
      <trkpt lat="47.49441" lon="6.71737">
        <ele>447</ele>
        <time>2016-09-25T08:02:45.000Z</time>
      </trkpt>
      <trkpt lat="47.49442" lon="6.71731">
        <ele>447</ele>
        <time>2016-09-25T08:02:46.000Z</time>
      </trkpt>
      <trkpt lat="47.49442" lon="6.71726">
        <ele>447</ele>
        <time>2016-09-25T08:02:47.000Z</time>
      </trkpt>
      <trkpt lat="47.49441" lon="6.71722">
        <ele>447</ele>
        <time>2016-09-25T08:02:48.000Z</time>
      </trkpt>
      <trkpt lat="47.49441" lon="6.71718">
        <ele>448</ele>
        <time>2016-09-25T08:02:49.000Z</time>
      </trkpt>
      <trkpt lat="47.4944" lon="6.71715">
        <ele>448</ele>
        <time>2016-09-25T08:02:50.000Z</time>
      </trkpt>
      <trkpt lat="47.49439" lon="6.71712">
        <ele>448</ele>
        <time>2016-09-25T08:02:51.000Z</time>
      </trkpt>
      <trkpt lat="47.49439" lon="6.71708">
        <ele>448</ele>
        <time>2016-09-25T08:02:52.000Z</time>
      </trkpt>
      <trkpt lat="47.49438" lon="6.71705">
        <ele>448</ele>
        <time>2016-09-25T08:02:53.000Z</time>
      </trkpt>
      <trkpt lat="47.49438" lon="6.71699">
        <ele>448</ele>
        <time>2016-09-25T08:02:55.000Z</time>
      </trkpt>
      <trkpt lat="47.49437" lon="6.71696">
        <ele>448</ele>
        <time>2016-09-25T08:02:56.000Z</time>
      </trkpt>
      <trkpt lat="47.49437" lon="6.7169">
        <ele>449</ele>
        <time>2016-09-25T08:02:58.000Z</time>
      </trkpt>
      <trkpt lat="47.49436" lon="6.71686">
        <ele>449</ele>
        <time>2016-09-25T08:02:59.000Z</time>
      </trkpt>
      <trkpt lat="47.49436" lon="6.71683">
        <ele>449</ele>
        <time>2016-09-25T08:03:00.000Z</time>
      </trkpt>
      <trkpt lat="47.49436" lon="6.71679">
        <ele>449</ele>
        <time>2016-09-25T08:03:01.000Z</time>
      </trkpt>
      <trkpt lat="47.49436" lon="6.71676">
        <ele>449</ele>
        <time>2016-09-25T08:03:02.000Z</time>
      </trkpt>
      <trkpt lat="47.49435" lon="6.71672">
        <ele>449</ele>
        <time>2016-09-25T08:03:03.000Z</time>
      </trkpt>
      <trkpt lat="47.49435" lon="6.71669">
        <ele>449</ele>
        <time>2016-09-25T08:03:04.000Z</time>
      </trkpt>
      <trkpt lat="47.49435" lon="6.71665">
        <ele>451</ele>
        <time>2016-09-25T08:03:05.000Z</time>
      </trkpt>
      <trkpt lat="47.49435" lon="6.71661">
        <ele>451</ele>
        <time>2016-09-25T08:03:06.000Z</time>
      </trkpt>
      <trkpt lat="47.49435" lon="6.71658">
        <ele>451</ele>
        <time>2016-09-25T08:03:07.000Z</time>
      </trkpt>
      <trkpt lat="47.49435" lon="6.71654">
        <ele>451</ele>
        <time>2016-09-25T08:03:08.000Z</time>
      </trkpt>
      <trkpt lat="47.49435" lon="6.7165">
        <ele>451</ele>
        <time>2016-09-25T08:03:09.000Z</time>
      </trkpt>
      <trkpt lat="47.49435" lon="6.71647">
        <ele>451</ele>
        <time>2016-09-25T08:03:10.000Z</time>
      </trkpt>
      <trkpt lat="47.49435" lon="6.71643">
        <ele>451</ele>
        <time>2016-09-25T08:03:11.000Z</time>
      </trkpt>
      <trkpt lat="47.49435" lon="6.7164">
        <ele>451</ele>
        <time>2016-09-25T08:03:12.000Z</time>
      </trkpt>
      <trkpt lat="47.49435" lon="6.71635">
        <ele>452</ele>
        <time>2016-09-25T08:03:13.000Z</time>
      </trkpt>
      <trkpt lat="47.49434" lon="6.71631">
        <ele>452</ele>
        <time>2016-09-25T08:03:14.000Z</time>
      </trkpt>
      <trkpt lat="47.49434" lon="6.71626">
        <ele>452</ele>
        <time>2016-09-25T08:03:15.000Z</time>
      </trkpt>
      <trkpt lat="47.49434" lon="6.71622">
        <ele>452</ele>
        <time>2016-09-25T08:03:16.000Z</time>
      </trkpt>
      <trkpt lat="47.49434" lon="6.71617">
        <ele>452</ele>
        <time>2016-09-25T08:03:17.000Z</time>
      </trkpt>
      <trkpt lat="47.49433" lon="6.71611">
        <ele>452</ele>
        <time>2016-09-25T08:03:18.000Z</time>
      </trkpt>
      <trkpt lat="47.49433" lon="6.71607">
        <ele>452</ele>
        <time>2016-09-25T08:03:19.000Z</time>
      </trkpt>
      <trkpt lat="47.49433" lon="6.71603">
        <ele>452</ele>
        <time>2016-09-25T08:03:20.000Z</time>
      </trkpt>
      <trkpt lat="47.49432" lon="6.71599">
        <ele>452</ele>
        <time>2016-09-25T08:03:21.000Z</time>
      </trkpt>
      <trkpt lat="47.49432" lon="6.71593">
        <ele>453</ele>
        <time>2016-09-25T08:03:23.000Z</time>
      </trkpt>
      <trkpt lat="47.49432" lon="6.71589">
        <ele>453</ele>
        <time>2016-09-25T08:03:24.000Z</time>
      </trkpt>
      <trkpt lat="47.49431" lon="6.71586">
        <ele>453</ele>
        <time>2016-09-25T08:03:25.000Z</time>
      </trkpt>
      <trkpt lat="47.49431" lon="6.71582">
        <ele>454</ele>
        <time>2016-09-25T08:03:26.000Z</time>
      </trkpt>
      <trkpt lat="47.49431" lon="6.71578">
        <ele>454</ele>
        <time>2016-09-25T08:03:27.000Z</time>
      </trkpt>
      <trkpt lat="47.49431" lon="6.71574">
        <ele>454</ele>
        <time>2016-09-25T08:03:28.000Z</time>
      </trkpt>
      <trkpt lat="47.49431" lon="6.7157">
        <ele>454</ele>
        <time>2016-09-25T08:03:29.000Z</time>
      </trkpt>
      <trkpt lat="47.49431" lon="6.71565">
        <ele>454</ele>
        <time>2016-09-25T08:03:30.000Z</time>
      </trkpt>
      <trkpt lat="47.49431" lon="6.71561">
        <ele>454</ele>
        <time>2016-09-25T08:03:31.000Z</time>
      </trkpt>
      <trkpt lat="47.49431" lon="6.71556">
        <ele>454</ele>
        <time>2016-09-25T08:03:32.000Z</time>
      </trkpt>
      <trkpt lat="47.49431" lon="6.71551">
        <ele>455</ele>
        <time>2016-09-25T08:03:33.000Z</time>
      </trkpt>
      <trkpt lat="47.4943" lon="6.71546">
        <ele>455</ele>
        <time>2016-09-25T08:03:34.000Z</time>
      </trkpt>
      <trkpt lat="47.4943" lon="6.71541">
        <ele>455</ele>
        <time>2016-09-25T08:03:35.000Z</time>
      </trkpt>
      <trkpt lat="47.49429" lon="6.71536">
        <ele>455</ele>
        <time>2016-09-25T08:03:36.000Z</time>
      </trkpt>
      <trkpt lat="47.49429" lon="6.71532">
        <ele>455</ele>
        <time>2016-09-25T08:03:37.000Z</time>
      </trkpt>
      <trkpt lat="47.49428" lon="6.71528">
        <ele>455</ele>
        <time>2016-09-25T08:03:38.000Z</time>
      </trkpt>
      <trkpt lat="47.49428" lon="6.71524">
        <ele>456</ele>
        <time>2016-09-25T08:03:39.000Z</time>
      </trkpt>
      <trkpt lat="47.49427" lon="6.71519">
        <ele>456</ele>
        <time>2016-09-25T08:03:40.000Z</time>
      </trkpt>
      <trkpt lat="47.49426" lon="6.71515">
        <ele>456</ele>
        <time>2016-09-25T08:03:41.000Z</time>
      </trkpt>
      <trkpt lat="47.49426" lon="6.7151">
        <ele>456</ele>
        <time>2016-09-25T08:03:42.000Z</time>
      </trkpt>
      <trkpt lat="47.49426" lon="6.71505">
        <ele>457</ele>
        <time>2016-09-25T08:03:43.000Z</time>
      </trkpt>
      <trkpt lat="47.49426" lon="6.715">
        <ele>458</ele>
        <time>2016-09-25T08:03:44.000Z</time>
      </trkpt>
      <trkpt lat="47.49426" lon="6.71494">
        <ele>458</ele>
        <time>2016-09-25T08:03:45.000Z</time>
      </trkpt>
      <trkpt lat="47.49426" lon="6.71487">
        <ele>457</ele>
        <time>2016-09-25T08:03:46.000Z</time>
      </trkpt>
      <trkpt lat="47.49427" lon="6.71481">
        <ele>457</ele>
        <time>2016-09-25T08:03:47.000Z</time>
      </trkpt>
      <trkpt lat="47.49427" lon="6.71476">
        <ele>457</ele>
        <time>2016-09-25T08:03:48.000Z</time>
      </trkpt>
      <trkpt lat="47.49426" lon="6.71471">
        <ele>457</ele>
        <time>2016-09-25T08:03:49.000Z</time>
      </trkpt>
      <trkpt lat="47.49426" lon="6.71466">
        <ele>457</ele>
        <time>2016-09-25T08:03:50.000Z</time>
      </trkpt>
      <trkpt lat="47.49426" lon="6.71462">
        <ele>457</ele>
        <time>2016-09-25T08:03:51.000Z</time>
      </trkpt>
      <trkpt lat="47.49426" lon="6.71457">
        <ele>457</ele>
        <time>2016-09-25T08:03:52.000Z</time>
      </trkpt>
      <trkpt lat="47.49425" lon="6.71453">
        <ele>457</ele>
        <time>2016-09-25T08:03:53.000Z</time>
      </trkpt>
      <trkpt lat="47.49425" lon="6.71448">
        <ele>457</ele>
        <time>2016-09-25T08:03:54.000Z</time>
      </trkpt>
      <trkpt lat="47.49425" lon="6.71444">
        <ele>457</ele>
        <time>2016-09-25T08:03:55.000Z</time>
      </trkpt>
      <trkpt lat="47.49425" lon="6.7144">
        <ele>457</ele>
        <time>2016-09-25T08:03:56.000Z</time>
      </trkpt>
      <trkpt lat="47.49424" lon="6.71435">
        <ele>458</ele>
        <time>2016-09-25T08:03:57.000Z</time>
      </trkpt>
      <trkpt lat="47.49424" lon="6.7143">
        <ele>458</ele>
        <time>2016-09-25T08:03:58.000Z</time>
      </trkpt>
      <trkpt lat="47.49424" lon="6.71426">
        <ele>458</ele>
        <time>2016-09-25T08:03:59.000Z</time>
      </trkpt>
      <trkpt lat="47.49423" lon="6.71421">
        <ele>458</ele>
        <time>2016-09-25T08:04:00.000Z</time>
      </trkpt>
      <trkpt lat="47.49422" lon="6.71415">
        <ele>458</ele>
        <time>2016-09-25T08:04:01.000Z</time>
      </trkpt>
      <trkpt lat="47.49421" lon="6.71409">
        <ele>459</ele>
        <time>2016-09-25T08:04:02.000Z</time>
      </trkpt>
      <trkpt lat="47.4942" lon="6.714">
        <ele>459</ele>
        <time>2016-09-25T08:04:03.000Z</time>
      </trkpt>
      <trkpt lat="47.49419" lon="6.7139">
        <ele>459</ele>
        <time>2016-09-25T08:04:04.000Z</time>
      </trkpt>
      <trkpt lat="47.49418" lon="6.7138">
        <ele>460</ele>
        <time>2016-09-25T08:04:05.000Z</time>
      </trkpt>
      <trkpt lat="47.49417" lon="6.7137">
        <ele>460</ele>
        <time>2016-09-25T08:04:06.000Z</time>
      </trkpt>
      <trkpt lat="47.49417" lon="6.7136">
        <ele>460</ele>
        <time>2016-09-25T08:04:07.000Z</time>
      </trkpt>
      <trkpt lat="47.49416" lon="6.71351">
        <ele>459</ele>
        <time>2016-09-25T08:04:08.000Z</time>
      </trkpt>
      <trkpt lat="47.49417" lon="6.71341">
        <ele>460</ele>
        <time>2016-09-25T08:04:09.000Z</time>
      </trkpt>
      <trkpt lat="47.49416" lon="6.7133">
        <ele>462</ele>
        <time>2016-09-25T08:04:10.000Z</time>
      </trkpt>
      <trkpt lat="47.49416" lon="6.71321">
        <ele>461</ele>
        <time>2016-09-25T08:04:11.000Z</time>
      </trkpt>
      <trkpt lat="47.49415" lon="6.71313">
        <ele>460</ele>
        <time>2016-09-25T08:04:12.000Z</time>
      </trkpt>
      <trkpt lat="47.49413" lon="6.71306">
        <ele>460</ele>
        <time>2016-09-25T08:04:13.000Z</time>
      </trkpt>
      <trkpt lat="47.49412" lon="6.713">
        <ele>460</ele>
        <time>2016-09-25T08:04:14.000Z</time>
      </trkpt>
      <trkpt lat="47.49411" lon="6.71295">
        <ele>460</ele>
        <time>2016-09-25T08:04:15.000Z</time>
      </trkpt>
      <trkpt lat="47.4941" lon="6.7129">
        <ele>460</ele>
        <time>2016-09-25T08:04:16.000Z</time>
      </trkpt>
      <trkpt lat="47.49409" lon="6.71285">
        <ele>460</ele>
        <time>2016-09-25T08:04:17.000Z</time>
      </trkpt>
      <trkpt lat="47.49409" lon="6.71281">
        <ele>460</ele>
        <time>2016-09-25T08:04:18.000Z</time>
      </trkpt>
      <trkpt lat="47.49409" lon="6.71277">
        <ele>461</ele>
        <time>2016-09-25T08:04:19.000Z</time>
      </trkpt>
      <trkpt lat="47.49408" lon="6.71273">
        <ele>461</ele>
        <time>2016-09-25T08:04:20.000Z</time>
      </trkpt>
      <trkpt lat="47.49407" lon="6.71269">
        <ele>461</ele>
        <time>2016-09-25T08:04:21.000Z</time>
      </trkpt>
      <trkpt lat="47.49406" lon="6.71265">
        <ele>462</ele>
        <time>2016-09-25T08:04:22.000Z</time>
      </trkpt>
      <trkpt lat="47.49405" lon="6.71261">
        <ele>462</ele>
        <time>2016-09-25T08:04:23.000Z</time>
      </trkpt>
      <trkpt lat="47.49405" lon="6.71256">
        <ele>462</ele>
        <time>2016-09-25T08:04:24.000Z</time>
      </trkpt>
      <trkpt lat="47.49404" lon="6.71252">
        <ele>462</ele>
        <time>2016-09-25T08:04:25.000Z</time>
      </trkpt>
      <trkpt lat="47.49404" lon="6.71248">
        <ele>463</ele>
        <time>2016-09-25T08:04:26.000Z</time>
      </trkpt>
      <trkpt lat="47.49404" lon="6.71243">
        <ele>463</ele>
        <time>2016-09-25T08:04:27.000Z</time>
      </trkpt>
      <trkpt lat="47.49404" lon="6.71239">
        <ele>463</ele>
        <time>2016-09-25T08:04:28.000Z</time>
      </trkpt>
      <trkpt lat="47.49403" lon="6.71235">
        <ele>463</ele>
        <time>2016-09-25T08:04:29.000Z</time>
      </trkpt>
      <trkpt lat="47.49402" lon="6.71231">
        <ele>462</ele>
        <time>2016-09-25T08:04:30.000Z</time>
      </trkpt>
      <trkpt lat="47.494" lon="6.71228">
        <ele>462</ele>
        <time>2016-09-25T08:04:31.000Z</time>
      </trkpt>
      <trkpt lat="47.49399" lon="6.71225">
        <ele>462</ele>
        <time>2016-09-25T08:04:32.000Z</time>
      </trkpt>
      <trkpt lat="47.49398" lon="6.71221">
        <ele>462</ele>
        <time>2016-09-25T08:04:33.000Z</time>
      </trkpt>
      <trkpt lat="47.49397" lon="6.71218">
        <ele>462</ele>
        <time>2016-09-25T08:04:34.000Z</time>
      </trkpt>
      <trkpt lat="47.49397" lon="6.71215">
        <ele>462</ele>
        <time>2016-09-25T08:04:35.000Z</time>
      </trkpt>
      <trkpt lat="47.49396" lon="6.71211">
        <ele>462</ele>
        <time>2016-09-25T08:04:36.000Z</time>
      </trkpt>
      <trkpt lat="47.49396" lon="6.71208">
        <ele>462</ele>
        <time>2016-09-25T08:04:37.000Z</time>
      </trkpt>
      <trkpt lat="47.49395" lon="6.71202">
        <ele>462</ele>
        <time>2016-09-25T08:04:38.000Z</time>
      </trkpt>
      <trkpt lat="47.49395" lon="6.71198">
        <ele>462</ele>
        <time>2016-09-25T08:04:39.000Z</time>
      </trkpt>
      <trkpt lat="47.49394" lon="6.71194">
        <ele>462</ele>
        <time>2016-09-25T08:04:40.000Z</time>
      </trkpt>
      <trkpt lat="47.49393" lon="6.7119">
        <ele>462</ele>
        <time>2016-09-25T08:04:41.000Z</time>
      </trkpt>
      <trkpt lat="47.49392" lon="6.71187">
        <ele>462</ele>
        <time>2016-09-25T08:04:42.000Z</time>
      </trkpt>
      <trkpt lat="47.49391" lon="6.71183">
        <ele>462</ele>
        <time>2016-09-25T08:04:43.000Z</time>
      </trkpt>
      <trkpt lat="47.49391" lon="6.7118">
        <ele>462</ele>
        <time>2016-09-25T08:04:44.000Z</time>
      </trkpt>
      <trkpt lat="47.49391" lon="6.71176">
        <ele>462</ele>
        <time>2016-09-25T08:04:45.000Z</time>
      </trkpt>
      <trkpt lat="47.49391" lon="6.7117">
        <ele>462</ele>
        <time>2016-09-25T08:04:47.000Z</time>
      </trkpt>
      <trkpt lat="47.49391" lon="6.71166">
        <ele>462</ele>
        <time>2016-09-25T08:04:48.000Z</time>
      </trkpt>
      <trkpt lat="47.4939" lon="6.7116">
        <ele>462</ele>
        <time>2016-09-25T08:04:56.000Z</time>
      </trkpt>
      <trkpt lat="47.49389" lon="6.7116">
        <ele>462</ele>
        <time>2016-09-25T08:04:57.000Z</time>
      </trkpt>
      <trkpt lat="47.49385" lon="6.71156">
        <ele>461</ele>
        <time>2016-09-25T08:06:12.000Z</time>
      </trkpt>
      <trkpt lat="47.49385" lon="6.71156">
        <ele>461</ele>
        <time>2016-09-25T08:06:13.000Z</time>
      </trkpt>
      <trkpt lat="47.49385" lon="6.71149">
        <ele>461</ele>
        <time>2016-09-25T08:07:35.000Z</time>
      </trkpt>
      <trkpt lat="47.49385" lon="6.71149">
        <ele>461</ele>
        <time>2016-09-25T08:07:36.000Z</time>
      </trkpt>
      <trkpt lat="47.49383" lon="6.71144">
        <ele>461</ele>
        <time>2016-09-25T08:07:44.000Z</time>
      </trkpt>
      <trkpt lat="47.49382" lon="6.71142">
        <ele>461</ele>
        <time>2016-09-25T08:07:45.000Z</time>
      </trkpt>
      <trkpt lat="47.49381" lon="6.71138">
        <ele>461</ele>
        <time>2016-09-25T08:07:48.000Z</time>
      </trkpt>
      <trkpt lat="47.4938" lon="6.71135">
        <ele>461</ele>
        <time>2016-09-25T08:07:49.000Z</time>
      </trkpt>
      <trkpt lat="47.49378" lon="6.71132">
        <ele>460</ele>
        <time>2016-09-25T08:07:50.000Z</time>
      </trkpt>
      <trkpt lat="47.49377" lon="6.71129">
        <ele>460</ele>
        <time>2016-09-25T08:07:51.000Z</time>
      </trkpt>
      <trkpt lat="47.49375" lon="6.71125">
        <ele>460</ele>
        <time>2016-09-25T08:07:52.000Z</time>
      </trkpt>
      <trkpt lat="47.49374" lon="6.71121">
        <ele>460</ele>
        <time>2016-09-25T08:07:53.000Z</time>
      </trkpt>
      <trkpt lat="47.49373" lon="6.71116">
        <ele>460</ele>
        <time>2016-09-25T08:07:54.000Z</time>
      </trkpt>
      <trkpt lat="47.49371" lon="6.71111">
        <ele>460</ele>
        <time>2016-09-25T08:07:55.000Z</time>
      </trkpt>
      <trkpt lat="47.4937" lon="6.71105">
        <ele>460</ele>
        <time>2016-09-25T08:07:56.000Z</time>
      </trkpt>
      <trkpt lat="47.49369" lon="6.71098">
        <ele>460</ele>
        <time>2016-09-25T08:07:57.000Z</time>
      </trkpt>
      <trkpt lat="47.49367" lon="6.7109">
        <ele>460</ele>
        <time>2016-09-25T08:07:58.000Z</time>
      </trkpt>
      <trkpt lat="47.49365" lon="6.71083">
        <ele>459</ele>
        <time>2016-09-25T08:07:59.000Z</time>
      </trkpt>
      <trkpt lat="47.49363" lon="6.71076">
        <ele>459</ele>
        <time>2016-09-25T08:08:00.000Z</time>
      </trkpt>
      <trkpt lat="47.49361" lon="6.71069">
        <ele>459</ele>
        <time>2016-09-25T08:08:01.000Z</time>
      </trkpt>
      <trkpt lat="47.4936" lon="6.71063">
        <ele>459</ele>
        <time>2016-09-25T08:08:02.000Z</time>
      </trkpt>
      <trkpt lat="47.49358" lon="6.71058">
        <ele>459</ele>
        <time>2016-09-25T08:08:03.000Z</time>
      </trkpt>
      <trkpt lat="47.49356" lon="6.71053">
        <ele>459</ele>
        <time>2016-09-25T08:08:04.000Z</time>
      </trkpt>
      <trkpt lat="47.49354" lon="6.71049">
        <ele>459</ele>
        <time>2016-09-25T08:08:05.000Z</time>
      </trkpt>
      <trkpt lat="47.49352" lon="6.71044">
        <ele>459</ele>
        <time>2016-09-25T08:08:06.000Z</time>
      </trkpt>
      <trkpt lat="47.4935" lon="6.7104">
        <ele>459</ele>
        <time>2016-09-25T08:08:07.000Z</time>
      </trkpt>
      <trkpt lat="47.49349" lon="6.71036">
        <ele>459</ele>
        <time>2016-09-25T08:08:08.000Z</time>
      </trkpt>
      <trkpt lat="47.49348" lon="6.7103">
        <ele>459</ele>
        <time>2016-09-25T08:08:09.000Z</time>
      </trkpt>
      <trkpt lat="47.49346" lon="6.71025">
        <ele>459</ele>
        <time>2016-09-25T08:08:10.000Z</time>
      </trkpt>
      <trkpt lat="47.49344" lon="6.71019">
        <ele>459</ele>
        <time>2016-09-25T08:08:11.000Z</time>
      </trkpt>
      <trkpt lat="47.49341" lon="6.71014">
        <ele>459</ele>
        <time>2016-09-25T08:08:12.000Z</time>
      </trkpt>
      <trkpt lat="47.4934" lon="6.71008">
        <ele>459</ele>
        <time>2016-09-25T08:08:13.000Z</time>
      </trkpt>
      <trkpt lat="47.49338" lon="6.71002">
        <ele>459</ele>
        <time>2016-09-25T08:08:14.000Z</time>
      </trkpt>
      <trkpt lat="47.49336" lon="6.70994">
        <ele>459</ele>
        <time>2016-09-25T08:08:15.000Z</time>
      </trkpt>
      <trkpt lat="47.49334" lon="6.70986">
        <ele>459</ele>
        <time>2016-09-25T08:08:16.000Z</time>
      </trkpt>
      <trkpt lat="47.49332" lon="6.70977">
        <ele>457</ele>
        <time>2016-09-25T08:08:17.000Z</time>
      </trkpt>
      <trkpt lat="47.4933" lon="6.7097">
        <ele>456</ele>
        <time>2016-09-25T08:08:18.000Z</time>
      </trkpt>
      <trkpt lat="47.49327" lon="6.70962">
        <ele>456</ele>
        <time>2016-09-25T08:08:19.000Z</time>
      </trkpt>
      <trkpt lat="47.49325" lon="6.70955">
        <ele>456</ele>
        <time>2016-09-25T08:08:20.000Z</time>
      </trkpt>
      <trkpt lat="47.49322" lon="6.70949">
        <ele>456</ele>
        <time>2016-09-25T08:08:21.000Z</time>
      </trkpt>
      <trkpt lat="47.49319" lon="6.70943">
        <ele>456</ele>
        <time>2016-09-25T08:08:22.000Z</time>
      </trkpt>
      <trkpt lat="47.49316" lon="6.70937">
        <ele>456</ele>
        <time>2016-09-25T08:08:23.000Z</time>
      </trkpt>
      <trkpt lat="47.49313" lon="6.7093">
        <ele>456</ele>
        <time>2016-09-25T08:08:24.000Z</time>
      </trkpt>
      <trkpt lat="47.49309" lon="6.70924">
        <ele>456</ele>
        <time>2016-09-25T08:08:25.000Z</time>
      </trkpt>
      <trkpt lat="47.49305" lon="6.70919">
        <ele>456</ele>
        <time>2016-09-25T08:08:26.000Z</time>
      </trkpt>
      <trkpt lat="47.49301" lon="6.70913">
        <ele>456</ele>
        <time>2016-09-25T08:08:27.000Z</time>
      </trkpt>
      <trkpt lat="47.49296" lon="6.70907">
        <ele>455</ele>
        <time>2016-09-25T08:08:28.000Z</time>
      </trkpt>
      <trkpt lat="47.49292" lon="6.70901">
        <ele>455</ele>
        <time>2016-09-25T08:08:29.000Z</time>
      </trkpt>
      <trkpt lat="47.49288" lon="6.70895">
        <ele>455</ele>
        <time>2016-09-25T08:08:30.000Z</time>
      </trkpt>
      <trkpt lat="47.49285" lon="6.7089">
        <ele>455</ele>
        <time>2016-09-25T08:08:31.000Z</time>
      </trkpt>
      <trkpt lat="47.49282" lon="6.70884">
        <ele>455</ele>
        <time>2016-09-25T08:08:32.000Z</time>
      </trkpt>
      <trkpt lat="47.4928" lon="6.70879">
        <ele>455</ele>
        <time>2016-09-25T08:08:33.000Z</time>
      </trkpt>
      <trkpt lat="47.49278" lon="6.70874">
        <ele>455</ele>
        <time>2016-09-25T08:08:34.000Z</time>
      </trkpt>
      <trkpt lat="47.49275" lon="6.70868">
        <ele>455</ele>
        <time>2016-09-25T08:08:35.000Z</time>
      </trkpt>
      <trkpt lat="47.49273" lon="6.70863">
        <ele>455</ele>
        <time>2016-09-25T08:08:36.000Z</time>
      </trkpt>
      <trkpt lat="47.49271" lon="6.70858">
        <ele>455</ele>
        <time>2016-09-25T08:08:37.000Z</time>
      </trkpt>
      <trkpt lat="47.49268" lon="6.70853">
        <ele>455</ele>
        <time>2016-09-25T08:08:38.000Z</time>
      </trkpt>
      <trkpt lat="47.49265" lon="6.70847">
        <ele>454</ele>
        <time>2016-09-25T08:08:39.000Z</time>
      </trkpt>
      <trkpt lat="47.49262" lon="6.70841">
        <ele>454</ele>
        <time>2016-09-25T08:08:40.000Z</time>
      </trkpt>
      <trkpt lat="47.49258" lon="6.70834">
        <ele>454</ele>
        <time>2016-09-25T08:08:41.000Z</time>
      </trkpt>
      <trkpt lat="47.49254" lon="6.70827">
        <ele>454</ele>
        <time>2016-09-25T08:08:42.000Z</time>
      </trkpt>
      <trkpt lat="47.4925" lon="6.7082">
        <ele>454</ele>
        <time>2016-09-25T08:08:43.000Z</time>
      </trkpt>
      <trkpt lat="47.49246" lon="6.70814">
        <ele>453</ele>
        <time>2016-09-25T08:08:44.000Z</time>
      </trkpt>
      <trkpt lat="47.49242" lon="6.70809">
        <ele>453</ele>
        <time>2016-09-25T08:08:45.000Z</time>
      </trkpt>
      <trkpt lat="47.49238" lon="6.70803">
        <ele>453</ele>
        <time>2016-09-25T08:08:46.000Z</time>
      </trkpt>
      <trkpt lat="47.49233" lon="6.70797">
        <ele>453</ele>
        <time>2016-09-25T08:08:47.000Z</time>
      </trkpt>
      <trkpt lat="47.49229" lon="6.70791">
        <ele>453</ele>
        <time>2016-09-25T08:08:48.000Z</time>
      </trkpt>
      <trkpt lat="47.49225" lon="6.70784">
        <ele>453</ele>
        <time>2016-09-25T08:08:49.000Z</time>
      </trkpt>
      <trkpt lat="47.49222" lon="6.70777">
        <ele>453</ele>
        <time>2016-09-25T08:08:50.000Z</time>
      </trkpt>
      <trkpt lat="47.49218" lon="6.7077">
        <ele>453</ele>
        <time>2016-09-25T08:08:51.000Z</time>
      </trkpt>
      <trkpt lat="47.49216" lon="6.70762">
        <ele>453</ele>
        <time>2016-09-25T08:08:52.000Z</time>
      </trkpt>
      <trkpt lat="47.49212" lon="6.70754">
        <ele>453</ele>
        <time>2016-09-25T08:08:53.000Z</time>
      </trkpt>
      <trkpt lat="47.49208" lon="6.70747">
        <ele>454</ele>
        <time>2016-09-25T08:08:54.000Z</time>
      </trkpt>
      <trkpt lat="47.49204" lon="6.7074">
        <ele>454</ele>
        <time>2016-09-25T08:08:55.000Z</time>
      </trkpt>
      <trkpt lat="47.492" lon="6.70734">
        <ele>454</ele>
        <time>2016-09-25T08:08:56.000Z</time>
      </trkpt>
      <trkpt lat="47.49196" lon="6.70727">
        <ele>454</ele>
        <time>2016-09-25T08:08:57.000Z</time>
      </trkpt>
      <trkpt lat="47.49193" lon="6.70721">
        <ele>454</ele>
        <time>2016-09-25T08:08:58.000Z</time>
      </trkpt>
      <trkpt lat="47.4919" lon="6.70713">
        <ele>454</ele>
        <time>2016-09-25T08:08:59.000Z</time>
      </trkpt>
      <trkpt lat="47.4918" lon="6.70696">
        <ele>455</ele>
        <time>2016-09-25T08:09:00.000Z</time>
      </trkpt>
      <trkpt lat="47.49179" lon="6.70688">
        <ele>455</ele>
        <time>2016-09-25T08:09:01.000Z</time>
      </trkpt>
      <trkpt lat="47.49171" lon="6.70678">
        <ele>455</ele>
        <time>2016-09-25T08:09:02.000Z</time>
      </trkpt>
      <trkpt lat="47.49169" lon="6.7067">
        <ele>456</ele>
        <time>2016-09-25T08:09:03.000Z</time>
      </trkpt>
      <trkpt lat="47.49168" lon="6.70663">
        <ele>456</ele>
        <time>2016-09-25T08:09:04.000Z</time>
      </trkpt>
      <trkpt lat="47.49151" lon="6.7065">
        <ele>454</ele>
        <time>2016-09-25T08:09:05.000Z</time>
      </trkpt>
      <trkpt lat="47.49139" lon="6.7064">
        <ele>453</ele>
        <time>2016-09-25T08:09:06.000Z</time>
      </trkpt>
      <trkpt lat="47.49136" lon="6.70633">
        <ele>453</ele>
        <time>2016-09-25T08:09:07.000Z</time>
      </trkpt>
      <trkpt lat="47.49134" lon="6.70626">
        <ele>453</ele>
        <time>2016-09-25T08:09:08.000Z</time>
      </trkpt>
      <trkpt lat="47.49132" lon="6.70618">
        <ele>453</ele>
        <time>2016-09-25T08:09:09.000Z</time>
      </trkpt>
      <trkpt lat="47.49132" lon="6.70611">
        <ele>453</ele>
        <time>2016-09-25T08:09:10.000Z</time>
      </trkpt>
      <trkpt lat="47.49129" lon="6.70604">
        <ele>453</ele>
        <time>2016-09-25T08:09:11.000Z</time>
      </trkpt>
      <trkpt lat="47.49129" lon="6.70595">
        <ele>453</ele>
        <time>2016-09-25T08:09:12.000Z</time>
      </trkpt>
      <trkpt lat="47.49127" lon="6.70588">
        <ele>453</ele>
        <time>2016-09-25T08:09:13.000Z</time>
      </trkpt>
      <trkpt lat="47.49123" lon="6.70581">
        <ele>453</ele>
        <time>2016-09-25T08:09:14.000Z</time>
      </trkpt>
      <trkpt lat="47.49119" lon="6.70574">
        <ele>453</ele>
        <time>2016-09-25T08:09:15.000Z</time>
      </trkpt>
      <trkpt lat="47.49117" lon="6.70568">
        <ele>453</ele>
        <time>2016-09-25T08:09:16.000Z</time>
      </trkpt>
      <trkpt lat="47.49116" lon="6.70558">
        <ele>453</ele>
        <time>2016-09-25T08:09:17.000Z</time>
      </trkpt>
      <trkpt lat="47.49114" lon="6.70551">
        <ele>453</ele>
        <time>2016-09-25T08:09:18.000Z</time>
      </trkpt>
      <trkpt lat="47.49112" lon="6.70545">
        <ele>453</ele>
        <time>2016-09-25T08:09:19.000Z</time>
      </trkpt>
      <trkpt lat="47.49104" lon="6.70537">
        <ele>453</ele>
        <time>2016-09-25T08:09:20.000Z</time>
      </trkpt>
      <trkpt lat="47.49101" lon="6.70528">
        <ele>453</ele>
        <time>2016-09-25T08:09:21.000Z</time>
      </trkpt>
      <trkpt lat="47.49096" lon="6.70522">
        <ele>453</ele>
        <time>2016-09-25T08:09:22.000Z</time>
      </trkpt>
      <trkpt lat="47.49094" lon="6.70514">
        <ele>453</ele>
        <time>2016-09-25T08:09:23.000Z</time>
      </trkpt>
      <trkpt lat="47.49093" lon="6.70503">
        <ele>453</ele>
        <time>2016-09-25T08:09:24.000Z</time>
      </trkpt>
      <trkpt lat="47.49092" lon="6.70495">
        <ele>452</ele>
        <time>2016-09-25T08:09:25.000Z</time>
      </trkpt>
      <trkpt lat="47.4909" lon="6.70492">
        <ele>452</ele>
        <time>2016-09-25T08:09:26.000Z</time>
      </trkpt>
      <trkpt lat="47.49086" lon="6.70487">
        <ele>452</ele>
        <time>2016-09-25T08:09:27.000Z</time>
      </trkpt>
      <trkpt lat="47.49084" lon="6.70481">
        <ele>451</ele>
        <time>2016-09-25T08:09:28.000Z</time>
      </trkpt>
      <trkpt lat="47.49083" lon="6.70474">
        <ele>450</ele>
        <time>2016-09-25T08:09:29.000Z</time>
      </trkpt>
      <trkpt lat="47.4908" lon="6.70464">
        <ele>450</ele>
        <time>2016-09-25T08:09:30.000Z</time>
      </trkpt>
      <trkpt lat="47.49076" lon="6.70452">
        <ele>449</ele>
        <time>2016-09-25T08:09:31.000Z</time>
      </trkpt>
      <trkpt lat="47.49076" lon="6.70444">
        <ele>449</ele>
        <time>2016-09-25T08:09:32.000Z</time>
      </trkpt>
      <trkpt lat="47.49071" lon="6.70436">
        <ele>449</ele>
        <time>2016-09-25T08:09:33.000Z</time>
      </trkpt>
      <trkpt lat="47.49067" lon="6.70429">
        <ele>449</ele>
        <time>2016-09-25T08:09:34.000Z</time>
      </trkpt>
      <trkpt lat="47.49063" lon="6.70424">
        <ele>449</ele>
        <time>2016-09-25T08:09:35.000Z</time>
      </trkpt>
      <trkpt lat="47.49061" lon="6.7042">
        <ele>449</ele>
        <time>2016-09-25T08:09:36.000Z</time>
      </trkpt>
      <trkpt lat="47.49058" lon="6.70415">
        <ele>449</ele>
        <time>2016-09-25T08:09:37.000Z</time>
      </trkpt>
      <trkpt lat="47.49056" lon="6.7041">
        <ele>449</ele>
        <time>2016-09-25T08:09:38.000Z</time>
      </trkpt>
      <trkpt lat="47.49055" lon="6.70404">
        <ele>449</ele>
        <time>2016-09-25T08:09:39.000Z</time>
      </trkpt>
      <trkpt lat="47.49054" lon="6.70398">
        <ele>449</ele>
        <time>2016-09-25T08:09:40.000Z</time>
      </trkpt>
      <trkpt lat="47.49052" lon="6.70391">
        <ele>449</ele>
        <time>2016-09-25T08:09:41.000Z</time>
      </trkpt>
      <trkpt lat="47.49048" lon="6.70377">
        <ele>449</ele>
        <time>2016-09-25T08:09:42.000Z</time>
      </trkpt>
      <trkpt lat="47.49048" lon="6.7037">
        <ele>449</ele>
        <time>2016-09-25T08:09:43.000Z</time>
      </trkpt>
      <trkpt lat="47.49047" lon="6.70358">
        <ele>449</ele>
        <time>2016-09-25T08:09:44.000Z</time>
      </trkpt>
      <trkpt lat="47.49049" lon="6.70348">
        <ele>449</ele>
        <time>2016-09-25T08:09:45.000Z</time>
      </trkpt>
      <trkpt lat="47.4904" lon="6.70331">
        <ele>448</ele>
        <time>2016-09-25T08:09:46.000Z</time>
      </trkpt>
      <trkpt lat="47.49038" lon="6.70321">
        <ele>448</ele>
        <time>2016-09-25T08:09:47.000Z</time>
      </trkpt>
      <trkpt lat="47.49036" lon="6.70313">
        <ele>448</ele>
        <time>2016-09-25T08:09:48.000Z</time>
      </trkpt>
      <trkpt lat="47.49036" lon="6.70304">
        <ele>448</ele>
        <time>2016-09-25T08:09:49.000Z</time>
      </trkpt>
      <trkpt lat="47.49035" lon="6.7029">
        <ele>448</ele>
        <time>2016-09-25T08:09:50.000Z</time>
      </trkpt>
      <trkpt lat="47.49032" lon="6.70281">
        <ele>448</ele>
        <time>2016-09-25T08:09:51.000Z</time>
      </trkpt>
      <trkpt lat="47.49031" lon="6.7027">
        <ele>448</ele>
        <time>2016-09-25T08:09:52.000Z</time>
      </trkpt>
      <trkpt lat="47.49028" lon="6.70258">
        <ele>448</ele>
        <time>2016-09-25T08:09:53.000Z</time>
      </trkpt>
      <trkpt lat="47.49025" lon="6.70247">
        <ele>447</ele>
        <time>2016-09-25T08:09:54.000Z</time>
      </trkpt>
      <trkpt lat="47.49022" lon="6.70234">
        <ele>447</ele>
        <time>2016-09-25T08:09:55.000Z</time>
      </trkpt>
      <trkpt lat="47.49019" lon="6.70225">
        <ele>446</ele>
        <time>2016-09-25T08:09:56.000Z</time>
      </trkpt>
      <trkpt lat="47.49013" lon="6.7021">
        <ele>446</ele>
        <time>2016-09-25T08:09:57.000Z</time>
      </trkpt>
      <trkpt lat="47.49011" lon="6.70199">
        <ele>446</ele>
        <time>2016-09-25T08:09:58.000Z</time>
      </trkpt>
      <trkpt lat="47.49009" lon="6.70189">
        <ele>445</ele>
        <time>2016-09-25T08:09:59.000Z</time>
      </trkpt>
      <trkpt lat="47.49006" lon="6.70176">
        <ele>444</ele>
        <time>2016-09-25T08:10:00.000Z</time>
      </trkpt>
      <trkpt lat="47.49004" lon="6.70168">
        <ele>443</ele>
        <time>2016-09-25T08:10:01.000Z</time>
      </trkpt>
      <trkpt lat="47.48998" lon="6.70156">
        <ele>439</ele>
        <time>2016-09-25T08:10:02.000Z</time>
      </trkpt>
      <trkpt lat="47.48996" lon="6.70145">
        <ele>437</ele>
        <time>2016-09-25T08:10:03.000Z</time>
      </trkpt>
      <trkpt lat="47.48994" lon="6.70134">
        <ele>436</ele>
        <time>2016-09-25T08:10:04.000Z</time>
      </trkpt>
      <trkpt lat="47.48993" lon="6.70124">
        <ele>435</ele>
        <time>2016-09-25T08:10:05.000Z</time>
      </trkpt>
      <trkpt lat="47.48986" lon="6.70113">
        <ele>434</ele>
        <time>2016-09-25T08:10:06.000Z</time>
      </trkpt>
      <trkpt lat="47.48982" lon="6.70104">
        <ele>434</ele>
        <time>2016-09-25T08:10:07.000Z</time>
      </trkpt>
      <trkpt lat="47.48977" lon="6.70094">
        <ele>433</ele>
        <time>2016-09-25T08:10:08.000Z</time>
      </trkpt>
      <trkpt lat="47.48974" lon="6.70083">
        <ele>429</ele>
        <time>2016-09-25T08:10:09.000Z</time>
      </trkpt>
      <trkpt lat="47.48971" lon="6.70075">
        <ele>429</ele>
        <time>2016-09-25T08:10:10.000Z</time>
      </trkpt>
      <trkpt lat="47.48968" lon="6.70066">
        <ele>429</ele>
        <time>2016-09-25T08:10:11.000Z</time>
      </trkpt>
      <trkpt lat="47.48965" lon="6.70058">
        <ele>428</ele>
        <time>2016-09-25T08:10:12.000Z</time>
      </trkpt>
      <trkpt lat="47.48958" lon="6.70048">
        <ele>428</ele>
        <time>2016-09-25T08:10:13.000Z</time>
      </trkpt>
      <trkpt lat="47.48955" lon="6.70038">
        <ele>427</ele>
        <time>2016-09-25T08:10:14.000Z</time>
      </trkpt>
      <trkpt lat="47.48948" lon="6.70029">
        <ele>427</ele>
        <time>2016-09-25T08:10:15.000Z</time>
      </trkpt>
      <trkpt lat="47.48944" lon="6.7002">
        <ele>426</ele>
        <time>2016-09-25T08:10:16.000Z</time>
      </trkpt>
      <trkpt lat="47.48936" lon="6.70008">
        <ele>425</ele>
        <time>2016-09-25T08:10:17.000Z</time>
      </trkpt>
      <trkpt lat="47.48929" lon="6.69997">
        <ele>422</ele>
        <time>2016-09-25T08:10:18.000Z</time>
      </trkpt>
      <trkpt lat="47.48924" lon="6.69989">
        <ele>422</ele>
        <time>2016-09-25T08:10:19.000Z</time>
      </trkpt>
      <trkpt lat="47.48919" lon="6.69978">
        <ele>422</ele>
        <time>2016-09-25T08:10:20.000Z</time>
      </trkpt>
      <trkpt lat="47.48915" lon="6.69966">
        <ele>421</ele>
        <time>2016-09-25T08:10:21.000Z</time>
      </trkpt>
      <trkpt lat="47.48912" lon="6.69957">
        <ele>421</ele>
        <time>2016-09-25T08:10:22.000Z</time>
      </trkpt>
      <trkpt lat="47.48905" lon="6.69944">
        <ele>420</ele>
        <time>2016-09-25T08:10:23.000Z</time>
      </trkpt>
      <trkpt lat="47.48901" lon="6.69933">
        <ele>420</ele>
        <time>2016-09-25T08:10:24.000Z</time>
      </trkpt>
      <trkpt lat="47.48896" lon="6.69924">
        <ele>420</ele>
        <time>2016-09-25T08:10:25.000Z</time>
      </trkpt>
      <trkpt lat="47.48893" lon="6.69912">
        <ele>416</ele>
        <time>2016-09-25T08:10:26.000Z</time>
      </trkpt>
      <trkpt lat="47.4889" lon="6.69899">
        <ele>415</ele>
        <time>2016-09-25T08:10:27.000Z</time>
      </trkpt>
      <trkpt lat="47.48881" lon="6.69883">
        <ele>414</ele>
        <time>2016-09-25T08:10:28.000Z</time>
      </trkpt>
      <trkpt lat="47.48865" lon="6.69869">
        <ele>413</ele>
        <time>2016-09-25T08:10:29.000Z</time>
      </trkpt>
      <trkpt lat="47.4885" lon="6.69844">
        <ele>411</ele>
        <time>2016-09-25T08:10:31.000Z</time>
      </trkpt>
      <trkpt lat="47.48847" lon="6.69835">
        <ele>410</ele>
        <time>2016-09-25T08:10:32.000Z</time>
      </trkpt>
      <trkpt lat="47.48846" lon="6.69825">
        <ele>407</ele>
        <time>2016-09-25T08:10:33.000Z</time>
      </trkpt>
      <trkpt lat="47.48844" lon="6.69814">
        <ele>407</ele>
        <time>2016-09-25T08:10:34.000Z</time>
      </trkpt>
      <trkpt lat="47.48841" lon="6.69809">
        <ele>406</ele>
        <time>2016-09-25T08:10:35.000Z</time>
      </trkpt>
      <trkpt lat="47.48839" lon="6.69802">
        <ele>406</ele>
        <time>2016-09-25T08:10:36.000Z</time>
      </trkpt>
      <trkpt lat="47.48837" lon="6.69792">
        <ele>406</ele>
        <time>2016-09-25T08:10:37.000Z</time>
      </trkpt>
      <trkpt lat="47.48836" lon="6.69788">
        <ele>405</ele>
        <time>2016-09-25T08:10:38.000Z</time>
      </trkpt>
      <trkpt lat="47.4883" lon="6.69786">
        <ele>404</ele>
        <time>2016-09-25T08:10:39.000Z</time>
      </trkpt>
      <trkpt lat="47.48829" lon="6.6978">
        <ele>403</ele>
        <time>2016-09-25T08:10:40.000Z</time>
      </trkpt>
      <trkpt lat="47.48827" lon="6.69766">
        <ele>403</ele>
        <time>2016-09-25T08:10:41.000Z</time>
      </trkpt>
      <trkpt lat="47.4882" lon="6.69757">
        <ele>403</ele>
        <time>2016-09-25T08:10:42.000Z</time>
      </trkpt>
      <trkpt lat="47.48817" lon="6.69751">
        <ele>403</ele>
        <time>2016-09-25T08:10:43.000Z</time>
      </trkpt>
      <trkpt lat="47.48816" lon="6.69743">
        <ele>400</ele>
        <time>2016-09-25T08:10:44.000Z</time>
      </trkpt>
      <trkpt lat="47.48814" lon="6.69735">
        <ele>399</ele>
        <time>2016-09-25T08:10:45.000Z</time>
      </trkpt>
      <trkpt lat="47.48804" lon="6.69738">
        <ele>399</ele>
        <time>2016-09-25T08:10:46.000Z</time>
      </trkpt>
      <trkpt lat="47.48785" lon="6.69732">
        <ele>399</ele>
        <time>2016-09-25T08:10:47.000Z</time>
      </trkpt>
      <trkpt lat="47.4878" lon="6.69732">
        <ele>399</ele>
        <time>2016-09-25T08:10:48.000Z</time>
      </trkpt>
      <trkpt lat="47.48777" lon="6.6973">
        <ele>398</ele>
        <time>2016-09-25T08:10:50.000Z</time>
      </trkpt>
      <trkpt lat="47.48776" lon="6.69726">
        <ele>398</ele>
        <time>2016-09-25T08:10:51.000Z</time>
      </trkpt>
      <trkpt lat="47.48775" lon="6.6972">
        <ele>398</ele>
        <time>2016-09-25T08:10:52.000Z</time>
      </trkpt>
      <trkpt lat="47.48772" lon="6.69712">
        <ele>398</ele>
        <time>2016-09-25T08:10:53.000Z</time>
      </trkpt>
      <trkpt lat="47.48771" lon="6.69705">
        <ele>397</ele>
        <time>2016-09-25T08:10:54.000Z</time>
      </trkpt>
      <trkpt lat="47.48764" lon="6.69694">
        <ele>397</ele>
        <time>2016-09-25T08:10:55.000Z</time>
      </trkpt>
      <trkpt lat="47.48761" lon="6.69683">
        <ele>396</ele>
        <time>2016-09-25T08:10:56.000Z</time>
      </trkpt>
      <trkpt lat="47.48756" lon="6.6967">
        <ele>395</ele>
        <time>2016-09-25T08:10:57.000Z</time>
      </trkpt>
      <trkpt lat="47.4875" lon="6.6966">
        <ele>393</ele>
        <time>2016-09-25T08:10:58.000Z</time>
      </trkpt>
      <trkpt lat="47.48744" lon="6.69648">
        <ele>392</ele>
        <time>2016-09-25T08:10:59.000Z</time>
      </trkpt>
      <trkpt lat="47.48732" lon="6.69636">
        <ele>391</ele>
        <time>2016-09-25T08:11:00.000Z</time>
      </trkpt>
      <trkpt lat="47.48728" lon="6.69624">
        <ele>391</ele>
        <time>2016-09-25T08:11:01.000Z</time>
      </trkpt>
      <trkpt lat="47.48712" lon="6.6961">
        <ele>390</ele>
        <time>2016-09-25T08:11:02.000Z</time>
      </trkpt>
      <trkpt lat="47.48689" lon="6.69597">
        <ele>390</ele>
        <time>2016-09-25T08:11:03.000Z</time>
      </trkpt>
      <trkpt lat="47.48674" lon="6.69584">
        <ele>389</ele>
        <time>2016-09-25T08:11:04.000Z</time>
      </trkpt>
      <trkpt lat="47.48666" lon="6.69571">
        <ele>387</ele>
        <time>2016-09-25T08:11:05.000Z</time>
      </trkpt>
      <trkpt lat="47.48661" lon="6.69561">
        <ele>386</ele>
        <time>2016-09-25T08:11:06.000Z</time>
      </trkpt>
      <trkpt lat="47.48659" lon="6.69551">
        <ele>385</ele>
        <time>2016-09-25T08:11:07.000Z</time>
      </trkpt>
      <trkpt lat="47.48655" lon="6.69542">
        <ele>385</ele>
        <time>2016-09-25T08:11:08.000Z</time>
      </trkpt>
      <trkpt lat="47.48651" lon="6.69533">
        <ele>384</ele>
        <time>2016-09-25T08:11:09.000Z</time>
      </trkpt>
      <trkpt lat="47.48648" lon="6.69528">
        <ele>384</ele>
        <time>2016-09-25T08:11:10.000Z</time>
      </trkpt>
      <trkpt lat="47.48644" lon="6.69521">
        <ele>384</ele>
        <time>2016-09-25T08:11:11.000Z</time>
      </trkpt>
      <trkpt lat="47.48642" lon="6.69512">
        <ele>383</ele>
        <time>2016-09-25T08:11:12.000Z</time>
      </trkpt>
      <trkpt lat="47.48637" lon="6.69501">
        <ele>383</ele>
        <time>2016-09-25T08:11:13.000Z</time>
      </trkpt>
      <trkpt lat="47.48628" lon="6.69494">
        <ele>380</ele>
        <time>2016-09-25T08:11:14.000Z</time>
      </trkpt>
      <trkpt lat="47.4862" lon="6.69488">
        <ele>380</ele>
        <time>2016-09-25T08:11:15.000Z</time>
      </trkpt>
      <trkpt lat="47.48608" lon="6.69478">
        <ele>380</ele>
        <time>2016-09-25T08:11:16.000Z</time>
      </trkpt>
      <trkpt lat="47.48603" lon="6.69469">
        <ele>380</ele>
        <time>2016-09-25T08:11:17.000Z</time>
      </trkpt>
      <trkpt lat="47.48597" lon="6.69457">
        <ele>379</ele>
        <time>2016-09-25T08:11:18.000Z</time>
      </trkpt>
      <trkpt lat="47.48593" lon="6.69447">
        <ele>379</ele>
        <time>2016-09-25T08:11:19.000Z</time>
      </trkpt>
      <trkpt lat="47.48586" lon="6.69435">
        <ele>379</ele>
        <time>2016-09-25T08:11:20.000Z</time>
      </trkpt>
      <trkpt lat="47.48569" lon="6.69425">
        <ele>379</ele>
        <time>2016-09-25T08:11:21.000Z</time>
      </trkpt>
      <trkpt lat="47.48563" lon="6.69416">
        <ele>376</ele>
        <time>2016-09-25T08:11:22.000Z</time>
      </trkpt>
      <trkpt lat="47.48556" lon="6.69406">
        <ele>376</ele>
        <time>2016-09-25T08:11:23.000Z</time>
      </trkpt>
      <trkpt lat="47.48551" lon="6.69396">
        <ele>375</ele>
        <time>2016-09-25T08:11:24.000Z</time>
      </trkpt>
      <trkpt lat="47.48545" lon="6.69386">
        <ele>375</ele>
        <time>2016-09-25T08:11:25.000Z</time>
      </trkpt>
      <trkpt lat="47.48537" lon="6.69375">
        <ele>374</ele>
        <time>2016-09-25T08:11:26.000Z</time>
      </trkpt>
      <trkpt lat="47.48532" lon="6.69366">
        <ele>374</ele>
        <time>2016-09-25T08:11:27.000Z</time>
      </trkpt>
      <trkpt lat="47.48527" lon="6.69356">
        <ele>374</ele>
        <time>2016-09-25T08:11:28.000Z</time>
      </trkpt>
      <trkpt lat="47.48517" lon="6.69343">
        <ele>373</ele>
        <time>2016-09-25T08:11:29.000Z</time>
      </trkpt>
      <trkpt lat="47.48503" lon="6.69331">
        <ele>371</ele>
        <time>2016-09-25T08:11:30.000Z</time>
      </trkpt>
      <trkpt lat="47.48488" lon="6.69318">
        <ele>370</ele>
        <time>2016-09-25T08:11:31.000Z</time>
      </trkpt>
      <trkpt lat="47.48481" lon="6.69308">
        <ele>370</ele>
        <time>2016-09-25T08:11:32.000Z</time>
      </trkpt>
      <trkpt lat="47.48475" lon="6.69299">
        <ele>370</ele>
        <time>2016-09-25T08:11:33.000Z</time>
      </trkpt>
      <trkpt lat="47.48467" lon="6.69289">
        <ele>370</ele>
        <time>2016-09-25T08:11:34.000Z</time>
      </trkpt>
      <trkpt lat="47.48462" lon="6.6928">
        <ele>369</ele>
        <time>2016-09-25T08:11:35.000Z</time>
      </trkpt>
      <trkpt lat="47.48449" lon="6.69277">
        <ele>370</ele>
        <time>2016-09-25T08:11:36.000Z</time>
      </trkpt>
      <trkpt lat="47.4844" lon="6.69269">
        <ele>370</ele>
        <time>2016-09-25T08:11:37.000Z</time>
      </trkpt>
      <trkpt lat="47.48434" lon="6.69258">
        <ele>370</ele>
        <time>2016-09-25T08:11:38.000Z</time>
      </trkpt>
      <trkpt lat="47.48424" lon="6.69247">
        <ele>370</ele>
        <time>2016-09-25T08:11:39.000Z</time>
      </trkpt>
      <trkpt lat="47.48419" lon="6.69238">
        <ele>370</ele>
        <time>2016-09-25T08:11:40.000Z</time>
      </trkpt>
      <trkpt lat="47.48413" lon="6.69233">
        <ele>370</ele>
        <time>2016-09-25T08:11:41.000Z</time>
      </trkpt>
      <trkpt lat="47.48412" lon="6.69229">
        <ele>370</ele>
        <time>2016-09-25T08:11:42.000Z</time>
      </trkpt>
      <trkpt lat="47.48408" lon="6.69225">
        <ele>370</ele>
        <time>2016-09-25T08:11:43.000Z</time>
      </trkpt>
      <trkpt lat="47.48405" lon="6.69222">
        <ele>370</ele>
        <time>2016-09-25T08:11:44.000Z</time>
      </trkpt>
      <trkpt lat="47.48397" lon="6.69221">
        <ele>370</ele>
        <time>2016-09-25T08:11:45.000Z</time>
      </trkpt>
      <trkpt lat="47.48389" lon="6.69217">
        <ele>369</ele>
        <time>2016-09-25T08:11:46.000Z</time>
      </trkpt>
      <trkpt lat="47.48382" lon="6.69214">
        <ele>369</ele>
        <time>2016-09-25T08:11:47.000Z</time>
      </trkpt>
      <trkpt lat="47.48379" lon="6.69209">
        <ele>369</ele>
        <time>2016-09-25T08:11:48.000Z</time>
      </trkpt>
      <trkpt lat="47.48373" lon="6.69207">
        <ele>369</ele>
        <time>2016-09-25T08:11:49.000Z</time>
      </trkpt>
      <trkpt lat="47.48369" lon="6.69202">
        <ele>369</ele>
        <time>2016-09-25T08:11:50.000Z</time>
      </trkpt>
      <trkpt lat="47.48366" lon="6.69198">
        <ele>369</ele>
        <time>2016-09-25T08:11:51.000Z</time>
      </trkpt>
      <trkpt lat="47.48337" lon="6.69192">
        <ele>368</ele>
        <time>2016-09-25T08:11:52.000Z</time>
      </trkpt>
      <trkpt lat="47.48327" lon="6.69191">
        <ele>363</ele>
        <time>2016-09-25T08:11:53.000Z</time>
      </trkpt>
      <trkpt lat="47.48311" lon="6.69191">
        <ele>362</ele>
        <time>2016-09-25T08:11:54.000Z</time>
      </trkpt>
      <trkpt lat="47.48296" lon="6.69192">
        <ele>361</ele>
        <time>2016-09-25T08:11:55.000Z</time>
      </trkpt>
      <trkpt lat="47.48288" lon="6.69193">
        <ele>361</ele>
        <time>2016-09-25T08:11:56.000Z</time>
      </trkpt>
      <trkpt lat="47.48283" lon="6.69196">
        <ele>360</ele>
        <time>2016-09-25T08:11:57.000Z</time>
      </trkpt>
      <trkpt lat="47.48282" lon="6.69209">
        <ele>360</ele>
        <time>2016-09-25T08:11:58.000Z</time>
      </trkpt>
      <trkpt lat="47.48276" lon="6.69208">
        <ele>360</ele>
        <time>2016-09-25T08:11:59.000Z</time>
      </trkpt>
      <trkpt lat="47.4827" lon="6.69207">
        <ele>360</ele>
        <time>2016-09-25T08:12:00.000Z</time>
      </trkpt>
      <trkpt lat="47.48264" lon="6.6921">
        <ele>359</ele>
        <time>2016-09-25T08:12:01.000Z</time>
      </trkpt>
      <trkpt lat="47.48256" lon="6.69205">
        <ele>359</ele>
        <time>2016-09-25T08:12:02.000Z</time>
      </trkpt>
      <trkpt lat="47.48254" lon="6.69202">
        <ele>359</ele>
        <time>2016-09-25T08:12:03.000Z</time>
      </trkpt>
      <trkpt lat="47.48252" lon="6.69199">
        <ele>359</ele>
        <time>2016-09-25T08:12:04.000Z</time>
      </trkpt>
      <trkpt lat="47.4825" lon="6.69193">
        <ele>358</ele>
        <time>2016-09-25T08:12:05.000Z</time>
      </trkpt>
      <trkpt lat="47.48248" lon="6.69188">
        <ele>354</ele>
        <time>2016-09-25T08:12:06.000Z</time>
      </trkpt>
      <trkpt lat="47.48247" lon="6.69183">
        <ele>354</ele>
        <time>2016-09-25T08:12:07.000Z</time>
      </trkpt>
      <trkpt lat="47.48243" lon="6.69177">
        <ele>354</ele>
        <time>2016-09-25T08:12:08.000Z</time>
      </trkpt>
      <trkpt lat="47.48243" lon="6.69172">
        <ele>354</ele>
        <time>2016-09-25T08:12:09.000Z</time>
      </trkpt>
      <trkpt lat="47.48242" lon="6.69168">
        <ele>355</ele>
        <time>2016-09-25T08:12:10.000Z</time>
      </trkpt>
      <trkpt lat="47.4824" lon="6.69162">
        <ele>355</ele>
        <time>2016-09-25T08:12:11.000Z</time>
      </trkpt>
      <trkpt lat="47.48239" lon="6.69159">
        <ele>354</ele>
        <time>2016-09-25T08:12:12.000Z</time>
      </trkpt>
      <trkpt lat="47.48238" lon="6.69155">
        <ele>354</ele>
        <time>2016-09-25T08:12:13.000Z</time>
      </trkpt>
      <trkpt lat="47.48237" lon="6.69152">
        <ele>354</ele>
        <time>2016-09-25T08:12:14.000Z</time>
      </trkpt>
      <trkpt lat="47.48236" lon="6.69148">
        <ele>354</ele>
        <time>2016-09-25T08:12:15.000Z</time>
      </trkpt>
      <trkpt lat="47.48234" lon="6.69144">
        <ele>354</ele>
        <time>2016-09-25T08:12:16.000Z</time>
      </trkpt>
      <trkpt lat="47.48233" lon="6.6914">
        <ele>354</ele>
        <time>2016-09-25T08:12:17.000Z</time>
      </trkpt>
      <trkpt lat="47.48232" lon="6.69137">
        <ele>354</ele>
        <time>2016-09-25T08:12:18.000Z</time>
      </trkpt>
      <trkpt lat="47.4823" lon="6.69134">
        <ele>354</ele>
        <time>2016-09-25T08:12:19.000Z</time>
      </trkpt>
      <trkpt lat="47.48229" lon="6.69131">
        <ele>354</ele>
        <time>2016-09-25T08:12:20.000Z</time>
      </trkpt>
      <trkpt lat="47.48227" lon="6.69128">
        <ele>354</ele>
        <time>2016-09-25T08:12:21.000Z</time>
      </trkpt>
      <trkpt lat="47.48225" lon="6.69124">
        <ele>354</ele>
        <time>2016-09-25T08:12:22.000Z</time>
      </trkpt>
      <trkpt lat="47.48224" lon="6.6912">
        <ele>354</ele>
        <time>2016-09-25T08:12:23.000Z</time>
      </trkpt>
      <trkpt lat="47.48222" lon="6.69116">
        <ele>354</ele>
        <time>2016-09-25T08:12:24.000Z</time>
      </trkpt>
      <trkpt lat="47.48219" lon="6.69112">
        <ele>354</ele>
        <time>2016-09-25T08:12:25.000Z</time>
      </trkpt>
      <trkpt lat="47.48218" lon="6.69108">
        <ele>354</ele>
        <time>2016-09-25T08:12:26.000Z</time>
      </trkpt>
      <trkpt lat="47.48217" lon="6.69101">
        <ele>354</ele>
        <time>2016-09-25T08:12:28.000Z</time>
      </trkpt>
      <trkpt lat="47.48218" lon="6.691">
        <ele>354</ele>
        <time>2016-09-25T08:12:29.000Z</time>
      </trkpt>
      <trkpt lat="47.48222" lon="6.69098">
        <ele>354</ele>
        <time>2016-09-25T08:13:59.000Z</time>
      </trkpt>
      <trkpt lat="47.48222" lon="6.69096">
        <ele>354</ele>
        <time>2016-09-25T08:14:00.000Z</time>
      </trkpt>
      <trkpt lat="47.48222" lon="6.69091">
        <ele>354</ele>
        <time>2016-09-25T08:14:02.000Z</time>
      </trkpt>
      <trkpt lat="47.48223" lon="6.69088">
        <ele>354</ele>
        <time>2016-09-25T08:14:03.000Z</time>
      </trkpt>
      <trkpt lat="47.48226" lon="6.69084">
        <ele>355</ele>
        <time>2016-09-25T08:14:05.000Z</time>
      </trkpt>
      <trkpt lat="47.48228" lon="6.69082">
        <ele>355</ele>
        <time>2016-09-25T08:14:06.000Z</time>
      </trkpt>
      <trkpt lat="47.4823" lon="6.6908">
        <ele>355</ele>
        <time>2016-09-25T08:14:07.000Z</time>
      </trkpt>
      <trkpt lat="47.48233" lon="6.69078">
        <ele>355</ele>
        <time>2016-09-25T08:14:08.000Z</time>
      </trkpt>
      <trkpt lat="47.48235" lon="6.69076">
        <ele>355</ele>
        <time>2016-09-25T08:14:09.000Z</time>
      </trkpt>
      <trkpt lat="47.48236" lon="6.69074">
        <ele>355</ele>
        <time>2016-09-25T08:14:10.000Z</time>
      </trkpt>
      <trkpt lat="47.48239" lon="6.69073">
        <ele>355</ele>
        <time>2016-09-25T08:14:11.000Z</time>
      </trkpt>
      <trkpt lat="47.48241" lon="6.69072">
        <ele>355</ele>
        <time>2016-09-25T08:14:12.000Z</time>
      </trkpt>
      <trkpt lat="47.48244" lon="6.69069">
        <ele>355</ele>
        <time>2016-09-25T08:14:13.000Z</time>
      </trkpt>
      <trkpt lat="47.48247" lon="6.69067">
        <ele>355</ele>
        <time>2016-09-25T08:14:14.000Z</time>
      </trkpt>
      <trkpt lat="47.4825" lon="6.69064">
        <ele>357</ele>
        <time>2016-09-25T08:14:15.000Z</time>
      </trkpt>
      <trkpt lat="47.48253" lon="6.69061">
        <ele>357</ele>
        <time>2016-09-25T08:14:16.000Z</time>
      </trkpt>
      <trkpt lat="47.48255" lon="6.69058">
        <ele>357</ele>
        <time>2016-09-25T08:14:17.000Z</time>
      </trkpt>
      <trkpt lat="47.48257" lon="6.69056">
        <ele>357</ele>
        <time>2016-09-25T08:14:18.000Z</time>
      </trkpt>
      <trkpt lat="47.48259" lon="6.69053">
        <ele>357</ele>
        <time>2016-09-25T08:14:19.000Z</time>
      </trkpt>
      <trkpt lat="47.48261" lon="6.69051">
        <ele>357</ele>
        <time>2016-09-25T08:14:20.000Z</time>
      </trkpt>
      <trkpt lat="47.48264" lon="6.69047">
        <ele>357</ele>
        <time>2016-09-25T08:14:22.000Z</time>
      </trkpt>
      <trkpt lat="47.48266" lon="6.69045">
        <ele>357</ele>
        <time>2016-09-25T08:14:23.000Z</time>
      </trkpt>
      <trkpt lat="47.4827" lon="6.69043">
        <ele>357</ele>
        <time>2016-09-25T08:14:25.000Z</time>
      </trkpt>
      <trkpt lat="47.48272" lon="6.69043">
        <ele>357</ele>
        <time>2016-09-25T08:14:26.000Z</time>
      </trkpt>
      <trkpt lat="47.48276" lon="6.69043">
        <ele>357</ele>
        <time>2016-09-25T08:14:28.000Z</time>
      </trkpt>
      <trkpt lat="47.48278" lon="6.69043">
        <ele>357</ele>
        <time>2016-09-25T08:14:29.000Z</time>
      </trkpt>
      <trkpt lat="47.4828" lon="6.69043">
        <ele>357</ele>
        <time>2016-09-25T08:14:30.000Z</time>
      </trkpt>
      <trkpt lat="47.48283" lon="6.69042">
        <ele>357</ele>
        <time>2016-09-25T08:14:31.000Z</time>
      </trkpt>
      <trkpt lat="47.48285" lon="6.69041">
        <ele>357</ele>
        <time>2016-09-25T08:14:32.000Z</time>
      </trkpt>
      <trkpt lat="47.48288" lon="6.69039">
        <ele>357</ele>
        <time>2016-09-25T08:14:33.000Z</time>
      </trkpt>
      <trkpt lat="47.48291" lon="6.69036">
        <ele>357</ele>
        <time>2016-09-25T08:14:34.000Z</time>
      </trkpt>
      <trkpt lat="47.48294" lon="6.69033">
        <ele>357</ele>
        <time>2016-09-25T08:14:35.000Z</time>
      </trkpt>
      <trkpt lat="47.48297" lon="6.69031">
        <ele>357</ele>
        <time>2016-09-25T08:14:36.000Z</time>
      </trkpt>
      <trkpt lat="47.48301" lon="6.69029">
        <ele>357</ele>
        <time>2016-09-25T08:14:37.000Z</time>
      </trkpt>
      <trkpt lat="47.48305" lon="6.69029">
        <ele>357</ele>
        <time>2016-09-25T08:14:38.000Z</time>
      </trkpt>
      <trkpt lat="47.48309" lon="6.69029">
        <ele>357</ele>
        <time>2016-09-25T08:14:39.000Z</time>
      </trkpt>
      <trkpt lat="47.48314" lon="6.69028">
        <ele>357</ele>
        <time>2016-09-25T08:14:40.000Z</time>
      </trkpt>
      <trkpt lat="47.48318" lon="6.69028">
        <ele>357</ele>
        <time>2016-09-25T08:14:41.000Z</time>
      </trkpt>
      <trkpt lat="47.48322" lon="6.69027">
        <ele>357</ele>
        <time>2016-09-25T08:14:42.000Z</time>
      </trkpt>
      <trkpt lat="47.48326" lon="6.69027">
        <ele>357</ele>
        <time>2016-09-25T08:14:43.000Z</time>
      </trkpt>
      <trkpt lat="47.48331" lon="6.69026">
        <ele>357</ele>
        <time>2016-09-25T08:14:44.000Z</time>
      </trkpt>
      <trkpt lat="47.48336" lon="6.69025">
        <ele>359</ele>
        <time>2016-09-25T08:14:45.000Z</time>
      </trkpt>
      <trkpt lat="47.48341" lon="6.69024">
        <ele>359</ele>
        <time>2016-09-25T08:14:46.000Z</time>
      </trkpt>
      <trkpt lat="47.48354" lon="6.69017">
        <ele>359</ele>
        <time>2016-09-25T08:14:47.000Z</time>
      </trkpt>
      <trkpt lat="47.48361" lon="6.69014">
        <ele>360</ele>
        <time>2016-09-25T08:14:48.000Z</time>
      </trkpt>
      <trkpt lat="47.48364" lon="6.6901">
        <ele>360</ele>
        <time>2016-09-25T08:14:49.000Z</time>
      </trkpt>
      <trkpt lat="47.48366" lon="6.69009">
        <ele>360</ele>
        <time>2016-09-25T08:14:50.000Z</time>
      </trkpt>
      <trkpt lat="47.48368" lon="6.69006">
        <ele>360</ele>
        <time>2016-09-25T08:14:51.000Z</time>
      </trkpt>
      <trkpt lat="47.4837" lon="6.69004">
        <ele>360</ele>
        <time>2016-09-25T08:14:52.000Z</time>
      </trkpt>
      <trkpt lat="47.48373" lon="6.69002">
        <ele>360</ele>
        <time>2016-09-25T08:14:53.000Z</time>
      </trkpt>
      <trkpt lat="47.48376" lon="6.68999">
        <ele>356</ele>
        <time>2016-09-25T08:14:54.000Z</time>
      </trkpt>
      <trkpt lat="47.48379" lon="6.68995">
        <ele>356</ele>
        <time>2016-09-25T08:14:55.000Z</time>
      </trkpt>
      <trkpt lat="47.48382" lon="6.68989">
        <ele>356</ele>
        <time>2016-09-25T08:14:56.000Z</time>
      </trkpt>
      <trkpt lat="47.48385" lon="6.68979">
        <ele>355</ele>
        <time>2016-09-25T08:14:57.000Z</time>
      </trkpt>
      <trkpt lat="47.48389" lon="6.68972">
        <ele>355</ele>
        <time>2016-09-25T08:14:58.000Z</time>
      </trkpt>
      <trkpt lat="47.48392" lon="6.68964">
        <ele>355</ele>
        <time>2016-09-25T08:14:59.000Z</time>
      </trkpt>
      <trkpt lat="47.48396" lon="6.68957">
        <ele>355</ele>
        <time>2016-09-25T08:15:00.000Z</time>
      </trkpt>
      <trkpt lat="47.48399" lon="6.68951">
        <ele>354</ele>
        <time>2016-09-25T08:15:01.000Z</time>
      </trkpt>
      <trkpt lat="47.48403" lon="6.68945">
        <ele>354</ele>
        <time>2016-09-25T08:15:02.000Z</time>
      </trkpt>
      <trkpt lat="47.48405" lon="6.68938">
        <ele>354</ele>
        <time>2016-09-25T08:15:03.000Z</time>
      </trkpt>
      <trkpt lat="47.48409" lon="6.68932">
        <ele>353</ele>
        <time>2016-09-25T08:15:04.000Z</time>
      </trkpt>
      <trkpt lat="47.48412" lon="6.68926">
        <ele>353</ele>
        <time>2016-09-25T08:15:05.000Z</time>
      </trkpt>
      <trkpt lat="47.48414" lon="6.6892">
        <ele>352</ele>
        <time>2016-09-25T08:15:06.000Z</time>
      </trkpt>
      <trkpt lat="47.48417" lon="6.68914">
        <ele>352</ele>
        <time>2016-09-25T08:15:07.000Z</time>
      </trkpt>
      <trkpt lat="47.4842" lon="6.68906">
        <ele>351</ele>
        <time>2016-09-25T08:15:08.000Z</time>
      </trkpt>
      <trkpt lat="47.48426" lon="6.68897">
        <ele>351</ele>
        <time>2016-09-25T08:15:09.000Z</time>
      </trkpt>
      <trkpt lat="47.48431" lon="6.68888">
        <ele>351</ele>
        <time>2016-09-25T08:15:10.000Z</time>
      </trkpt>
      <trkpt lat="47.48434" lon="6.68882">
        <ele>351</ele>
        <time>2016-09-25T08:15:11.000Z</time>
      </trkpt>
      <trkpt lat="47.48437" lon="6.68872">
        <ele>351</ele>
        <time>2016-09-25T08:15:12.000Z</time>
      </trkpt>
      <trkpt lat="47.48441" lon="6.68861">
        <ele>350</ele>
        <time>2016-09-25T08:15:13.000Z</time>
      </trkpt>
      <trkpt lat="47.48444" lon="6.6885">
        <ele>350</ele>
        <time>2016-09-25T08:15:14.000Z</time>
      </trkpt>
      <trkpt lat="47.48447" lon="6.6884">
        <ele>350</ele>
        <time>2016-09-25T08:15:15.000Z</time>
      </trkpt>
      <trkpt lat="47.4845" lon="6.68831">
        <ele>348</ele>
        <time>2016-09-25T08:15:16.000Z</time>
      </trkpt>
      <trkpt lat="47.48453" lon="6.68823">
        <ele>348</ele>
        <time>2016-09-25T08:15:17.000Z</time>
      </trkpt>
      <trkpt lat="47.48456" lon="6.68813">
        <ele>348</ele>
        <time>2016-09-25T08:15:18.000Z</time>
      </trkpt>
      <trkpt lat="47.48459" lon="6.68802">
        <ele>347</ele>
        <time>2016-09-25T08:15:19.000Z</time>
      </trkpt>
      <trkpt lat="47.48462" lon="6.68798">
        <ele>347</ele>
        <time>2016-09-25T08:15:20.000Z</time>
      </trkpt>
      <trkpt lat="47.48463" lon="6.68795">
        <ele>347</ele>
        <time>2016-09-25T08:15:21.000Z</time>
      </trkpt>
      <trkpt lat="47.48466" lon="6.68792">
        <ele>347</ele>
        <time>2016-09-25T08:15:22.000Z</time>
      </trkpt>
      <trkpt lat="47.48469" lon="6.68788">
        <ele>347</ele>
        <time>2016-09-25T08:15:23.000Z</time>
      </trkpt>
      <trkpt lat="47.48473" lon="6.68789">
        <ele>347</ele>
        <time>2016-09-25T08:15:24.000Z</time>
      </trkpt>
      <trkpt lat="47.48477" lon="6.68785">
        <ele>347</ele>
        <time>2016-09-25T08:15:25.000Z</time>
      </trkpt>
      <trkpt lat="47.4848" lon="6.68779">
        <ele>346</ele>
        <time>2016-09-25T08:15:26.000Z</time>
      </trkpt>
      <trkpt lat="47.48482" lon="6.68775">
        <ele>346</ele>
        <time>2016-09-25T08:15:27.000Z</time>
      </trkpt>
      <trkpt lat="47.48485" lon="6.68771">
        <ele>346</ele>
        <time>2016-09-25T08:15:28.000Z</time>
      </trkpt>
      <trkpt lat="47.48489" lon="6.68768">
        <ele>346</ele>
        <time>2016-09-25T08:15:29.000Z</time>
      </trkpt>
      <trkpt lat="47.48493" lon="6.68764">
        <ele>345</ele>
        <time>2016-09-25T08:15:30.000Z</time>
      </trkpt>
      <trkpt lat="47.48497" lon="6.68759">
        <ele>345</ele>
        <time>2016-09-25T08:15:31.000Z</time>
      </trkpt>
      <trkpt lat="47.48501" lon="6.68751">
        <ele>344</ele>
        <time>2016-09-25T08:15:32.000Z</time>
      </trkpt>
      <trkpt lat="47.48504" lon="6.68744">
        <ele>343</ele>
        <time>2016-09-25T08:15:33.000Z</time>
      </trkpt>
      <trkpt lat="47.48506" lon="6.68736">
        <ele>343</ele>
        <time>2016-09-25T08:15:34.000Z</time>
      </trkpt>
      <trkpt lat="47.48508" lon="6.68729">
        <ele>343</ele>
        <time>2016-09-25T08:15:35.000Z</time>
      </trkpt>
      <trkpt lat="47.4851" lon="6.68722">
        <ele>342</ele>
        <time>2016-09-25T08:15:36.000Z</time>
      </trkpt>
      <trkpt lat="47.48511" lon="6.68716">
        <ele>342</ele>
        <time>2016-09-25T08:15:37.000Z</time>
      </trkpt>
      <trkpt lat="47.48514" lon="6.6871">
        <ele>342</ele>
        <time>2016-09-25T08:15:38.000Z</time>
      </trkpt>
      <trkpt lat="47.48517" lon="6.68705">
        <ele>342</ele>
        <time>2016-09-25T08:15:39.000Z</time>
      </trkpt>
      <trkpt lat="47.48521" lon="6.68702">
        <ele>342</ele>
        <time>2016-09-25T08:15:40.000Z</time>
      </trkpt>
      <trkpt lat="47.48526" lon="6.68702">
        <ele>342</ele>
        <time>2016-09-25T08:15:41.000Z</time>
      </trkpt>
      <trkpt lat="47.4853" lon="6.68701">
        <ele>342</ele>
        <time>2016-09-25T08:15:42.000Z</time>
      </trkpt>
      <trkpt lat="47.48534" lon="6.68701">
        <ele>342</ele>
        <time>2016-09-25T08:15:43.000Z</time>
      </trkpt>
      <trkpt lat="47.48537" lon="6.687">
        <ele>342</ele>
        <time>2016-09-25T08:15:44.000Z</time>
      </trkpt>
      <trkpt lat="47.4854" lon="6.68699">
        <ele>342</ele>
        <time>2016-09-25T08:15:45.000Z</time>
      </trkpt>
      <trkpt lat="47.48542" lon="6.68697">
        <ele>342</ele>
        <time>2016-09-25T08:15:46.000Z</time>
      </trkpt>
      <trkpt lat="47.48544" lon="6.68695">
        <ele>342</ele>
        <time>2016-09-25T08:15:47.000Z</time>
      </trkpt>
      <trkpt lat="47.48546" lon="6.6869">
        <ele>342</ele>
        <time>2016-09-25T08:15:49.000Z</time>
      </trkpt>
      <trkpt lat="47.48546" lon="6.68688">
        <ele>342</ele>
        <time>2016-09-25T08:15:50.000Z</time>
      </trkpt>
      <trkpt lat="47.48546" lon="6.68683">
        <ele>342</ele>
        <time>2016-09-25T08:15:52.000Z</time>
      </trkpt>
      <trkpt lat="47.48547" lon="6.6868">
        <ele>342</ele>
        <time>2016-09-25T08:15:53.000Z</time>
      </trkpt>
      <trkpt lat="47.48547" lon="6.68676">
        <ele>342</ele>
        <time>2016-09-25T08:15:55.000Z</time>
      </trkpt>
      <trkpt lat="47.48547" lon="6.68674">
        <ele>342</ele>
        <time>2016-09-25T08:15:56.000Z</time>
      </trkpt>
      <trkpt lat="47.48549" lon="6.6867">
        <ele>342</ele>
        <time>2016-09-25T08:15:58.000Z</time>
      </trkpt>
      <trkpt lat="47.48551" lon="6.68668">
        <ele>342</ele>
        <time>2016-09-25T08:15:59.000Z</time>
      </trkpt>
      <trkpt lat="47.48554" lon="6.68665">
        <ele>342</ele>
        <time>2016-09-25T08:16:01.000Z</time>
      </trkpt>
      <trkpt lat="47.48556" lon="6.68663">
        <ele>342</ele>
        <time>2016-09-25T08:16:02.000Z</time>
      </trkpt>
      <trkpt lat="47.4856" lon="6.68661">
        <ele>342</ele>
        <time>2016-09-25T08:16:04.000Z</time>
      </trkpt>
      <trkpt lat="47.48562" lon="6.68659">
        <ele>342</ele>
        <time>2016-09-25T08:16:05.000Z</time>
      </trkpt>
      <trkpt lat="47.48564" lon="6.68655">
        <ele>342</ele>
        <time>2016-09-25T08:16:08.000Z</time>
      </trkpt>
      <trkpt lat="47.48564" lon="6.68653">
        <ele>342</ele>
        <time>2016-09-25T08:16:09.000Z</time>
      </trkpt>
      <trkpt lat="47.48567" lon="6.6865">
        <ele>343</ele>
        <time>2016-09-25T08:16:14.000Z</time>
      </trkpt>
      <trkpt lat="47.48568" lon="6.68649">
        <ele>343</ele>
        <time>2016-09-25T08:16:15.000Z</time>
      </trkpt>
      <trkpt lat="47.48571" lon="6.68645">
        <ele>343</ele>
        <time>2016-09-25T08:16:17.000Z</time>
      </trkpt>
      <trkpt lat="47.48573" lon="6.68643">
        <ele>343</ele>
        <time>2016-09-25T08:16:18.000Z</time>
      </trkpt>
      <trkpt lat="47.48575" lon="6.6864">
        <ele>343</ele>
        <time>2016-09-25T08:16:19.000Z</time>
      </trkpt>
      <trkpt lat="47.48577" lon="6.68637">
        <ele>343</ele>
        <time>2016-09-25T08:16:20.000Z</time>
      </trkpt>
      <trkpt lat="47.48579" lon="6.68634">
        <ele>343</ele>
        <time>2016-09-25T08:16:21.000Z</time>
      </trkpt>
      <trkpt lat="47.4858" lon="6.68631">
        <ele>343</ele>
        <time>2016-09-25T08:16:22.000Z</time>
      </trkpt>
      <trkpt lat="47.4858" lon="6.68627">
        <ele>343</ele>
        <time>2016-09-25T08:16:23.000Z</time>
      </trkpt>
      <trkpt lat="47.48581" lon="6.68623">
        <ele>343</ele>
        <time>2016-09-25T08:16:24.000Z</time>
      </trkpt>
      <trkpt lat="47.48583" lon="6.68618">
        <ele>343</ele>
        <time>2016-09-25T08:16:25.000Z</time>
      </trkpt>
      <trkpt lat="47.48584" lon="6.68614">
        <ele>346</ele>
        <time>2016-09-25T08:16:26.000Z</time>
      </trkpt>
      <trkpt lat="47.48585" lon="6.6861">
        <ele>346</ele>
        <time>2016-09-25T08:16:27.000Z</time>
      </trkpt>
      <trkpt lat="47.48586" lon="6.68606">
        <ele>346</ele>
        <time>2016-09-25T08:16:28.000Z</time>
      </trkpt>
      <trkpt lat="47.48587" lon="6.68602">
        <ele>346</ele>
        <time>2016-09-25T08:16:29.000Z</time>
      </trkpt>
      <trkpt lat="47.48588" lon="6.68598">
        <ele>346</ele>
        <time>2016-09-25T08:16:30.000Z</time>
      </trkpt>
      <trkpt lat="47.4859" lon="6.68595">
        <ele>346</ele>
        <time>2016-09-25T08:16:31.000Z</time>
      </trkpt>
      <trkpt lat="47.48591" lon="6.68592">
        <ele>346</ele>
        <time>2016-09-25T08:16:32.000Z</time>
      </trkpt>
      <trkpt lat="47.48593" lon="6.68586">
        <ele>346</ele>
        <time>2016-09-25T08:16:34.000Z</time>
      </trkpt>
      <trkpt lat="47.48594" lon="6.68584">
        <ele>346</ele>
        <time>2016-09-25T08:16:35.000Z</time>
      </trkpt>
      <trkpt lat="47.48595" lon="6.68578">
        <ele>347</ele>
        <time>2016-09-25T08:16:37.000Z</time>
      </trkpt>
      <trkpt lat="47.48596" lon="6.68575">
        <ele>347</ele>
        <time>2016-09-25T08:16:38.000Z</time>
      </trkpt>
      <trkpt lat="47.48596" lon="6.68572">
        <ele>347</ele>
        <time>2016-09-25T08:16:39.000Z</time>
      </trkpt>
      <trkpt lat="47.48597" lon="6.68569">
        <ele>347</ele>
        <time>2016-09-25T08:16:40.000Z</time>
      </trkpt>
      <trkpt lat="47.48598" lon="6.68566">
        <ele>347</ele>
        <time>2016-09-25T08:16:41.000Z</time>
      </trkpt>
      <trkpt lat="47.486" lon="6.68562">
        <ele>347</ele>
        <time>2016-09-25T08:16:42.000Z</time>
      </trkpt>
      <trkpt lat="47.48601" lon="6.68556">
        <ele>348</ele>
        <time>2016-09-25T08:16:44.000Z</time>
      </trkpt>
      <trkpt lat="47.48601" lon="6.68553">
        <ele>348</ele>
        <time>2016-09-25T08:16:45.000Z</time>
      </trkpt>
      <trkpt lat="47.48603" lon="6.68547">
        <ele>348</ele>
        <time>2016-09-25T08:16:47.000Z</time>
      </trkpt>
      <trkpt lat="47.48604" lon="6.68545">
        <ele>348</ele>
        <time>2016-09-25T08:16:48.000Z</time>
      </trkpt>
      <trkpt lat="47.48605" lon="6.68539">
        <ele>348</ele>
        <time>2016-09-25T08:16:50.000Z</time>
      </trkpt>
      <trkpt lat="47.48605" lon="6.68536">
        <ele>348</ele>
        <time>2016-09-25T08:16:51.000Z</time>
      </trkpt>
      <trkpt lat="47.48604" lon="6.68533">
        <ele>348</ele>
        <time>2016-09-25T08:16:52.000Z</time>
      </trkpt>
      <trkpt lat="47.48603" lon="6.6853">
        <ele>348</ele>
        <time>2016-09-25T08:16:53.000Z</time>
      </trkpt>
      <trkpt lat="47.48602" lon="6.68526">
        <ele>348</ele>
        <time>2016-09-25T08:16:54.000Z</time>
      </trkpt>
      <trkpt lat="47.486" lon="6.68522">
        <ele>348</ele>
        <time>2016-09-25T08:16:55.000Z</time>
      </trkpt>
      <trkpt lat="47.48599" lon="6.68518">
        <ele>348</ele>
        <time>2016-09-25T08:16:56.000Z</time>
      </trkpt>
      <trkpt lat="47.48598" lon="6.68513">
        <ele>348</ele>
        <time>2016-09-25T08:16:57.000Z</time>
      </trkpt>
      <trkpt lat="47.48597" lon="6.68508">
        <ele>349</ele>
        <time>2016-09-25T08:16:58.000Z</time>
      </trkpt>
      <trkpt lat="47.48597" lon="6.68503">
        <ele>349</ele>
        <time>2016-09-25T08:16:59.000Z</time>
      </trkpt>
      <trkpt lat="47.48596" lon="6.68498">
        <ele>349</ele>
        <time>2016-09-25T08:17:00.000Z</time>
      </trkpt>
      <trkpt lat="47.48595" lon="6.68493">
        <ele>349</ele>
        <time>2016-09-25T08:17:01.000Z</time>
      </trkpt>
      <trkpt lat="47.48595" lon="6.68488">
        <ele>348</ele>
        <time>2016-09-25T08:17:02.000Z</time>
      </trkpt>
      <trkpt lat="47.48595" lon="6.68483">
        <ele>348</ele>
        <time>2016-09-25T08:17:03.000Z</time>
      </trkpt>
      <trkpt lat="47.48594" lon="6.68478">
        <ele>348</ele>
        <time>2016-09-25T08:17:04.000Z</time>
      </trkpt>
      <trkpt lat="47.48594" lon="6.68472">
        <ele>348</ele>
        <time>2016-09-25T08:17:05.000Z</time>
      </trkpt>
      <trkpt lat="47.48593" lon="6.68467">
        <ele>348</ele>
        <time>2016-09-25T08:17:06.000Z</time>
      </trkpt>
      <trkpt lat="47.48592" lon="6.68462">
        <ele>348</ele>
        <time>2016-09-25T08:17:07.000Z</time>
      </trkpt>
      <trkpt lat="47.48592" lon="6.68457">
        <ele>348</ele>
        <time>2016-09-25T08:17:08.000Z</time>
      </trkpt>
      <trkpt lat="47.48591" lon="6.68453">
        <ele>348</ele>
        <time>2016-09-25T08:17:09.000Z</time>
      </trkpt>
      <trkpt lat="47.48594" lon="6.6844">
        <ele>347</ele>
        <time>2016-09-25T08:17:10.000Z</time>
      </trkpt>
      <trkpt lat="47.48596" lon="6.68434">
        <ele>347</ele>
        <time>2016-09-25T08:17:11.000Z</time>
      </trkpt>
      <trkpt lat="47.48594" lon="6.6843">
        <ele>347</ele>
        <time>2016-09-25T08:17:12.000Z</time>
      </trkpt>
      <trkpt lat="47.48591" lon="6.68427">
        <ele>347</ele>
        <time>2016-09-25T08:17:13.000Z</time>
      </trkpt>
      <trkpt lat="47.48591" lon="6.68423">
        <ele>347</ele>
        <time>2016-09-25T08:17:14.000Z</time>
      </trkpt>
      <trkpt lat="47.48587" lon="6.6842">
        <ele>346</ele>
        <time>2016-09-25T08:17:16.000Z</time>
      </trkpt>
      <trkpt lat="47.48586" lon="6.68418">
        <ele>346</ele>
        <time>2016-09-25T08:17:17.000Z</time>
      </trkpt>
      <trkpt lat="47.48583" lon="6.68416">
        <ele>346</ele>
        <time>2016-09-25T08:17:18.000Z</time>
      </trkpt>
      <trkpt lat="47.4858" lon="6.68415">
        <ele>346</ele>
        <time>2016-09-25T08:17:19.000Z</time>
      </trkpt>
      <trkpt lat="47.48576" lon="6.68412">
        <ele>346</ele>
        <time>2016-09-25T08:17:21.000Z</time>
      </trkpt>
      <trkpt lat="47.48574" lon="6.6841">
        <ele>346</ele>
        <time>2016-09-25T08:17:22.000Z</time>
      </trkpt>
      <trkpt lat="47.48572" lon="6.68408">
        <ele>347</ele>
        <time>2016-09-25T08:17:23.000Z</time>
      </trkpt>
      <trkpt lat="47.48569" lon="6.68407">
        <ele>347</ele>
        <time>2016-09-25T08:17:24.000Z</time>
      </trkpt>
      <trkpt lat="47.48566" lon="6.68405">
        <ele>347</ele>
        <time>2016-09-25T08:17:25.000Z</time>
      </trkpt>
      <trkpt lat="47.48563" lon="6.68402">
        <ele>347</ele>
        <time>2016-09-25T08:17:26.000Z</time>
      </trkpt>
      <trkpt lat="47.4856" lon="6.68399">
        <ele>347</ele>
        <time>2016-09-25T08:17:27.000Z</time>
      </trkpt>
      <trkpt lat="47.48558" lon="6.68397">
        <ele>347</ele>
        <time>2016-09-25T08:17:28.000Z</time>
      </trkpt>
      <trkpt lat="47.48555" lon="6.68394">
        <ele>347</ele>
        <time>2016-09-25T08:17:29.000Z</time>
      </trkpt>
      <trkpt lat="47.48553" lon="6.68392">
        <ele>347</ele>
        <time>2016-09-25T08:17:30.000Z</time>
      </trkpt>
      <trkpt lat="47.4855" lon="6.6839">
        <ele>347</ele>
        <time>2016-09-25T08:17:31.000Z</time>
      </trkpt>
      <trkpt lat="47.48548" lon="6.68388">
        <ele>347</ele>
        <time>2016-09-25T08:17:32.000Z</time>
      </trkpt>
      <trkpt lat="47.48545" lon="6.68386">
        <ele>347</ele>
        <time>2016-09-25T08:17:33.000Z</time>
      </trkpt>
      <trkpt lat="47.48543" lon="6.68384">
        <ele>347</ele>
        <time>2016-09-25T08:17:34.000Z</time>
      </trkpt>
      <trkpt lat="47.4854" lon="6.6838">
        <ele>347</ele>
        <time>2016-09-25T08:17:36.000Z</time>
      </trkpt>
      <trkpt lat="47.48538" lon="6.68379">
        <ele>347</ele>
        <time>2016-09-25T08:17:37.000Z</time>
      </trkpt>
      <trkpt lat="47.48535" lon="6.68375">
        <ele>347</ele>
        <time>2016-09-25T08:17:40.000Z</time>
      </trkpt>
      <trkpt lat="47.48534" lon="6.68373">
        <ele>347</ele>
        <time>2016-09-25T08:17:41.000Z</time>
      </trkpt>
      <trkpt lat="47.48531" lon="6.68369">
        <ele>348</ele>
        <time>2016-09-25T08:17:43.000Z</time>
      </trkpt>
      <trkpt lat="47.48528" lon="6.68367">
        <ele>348</ele>
        <time>2016-09-25T08:17:44.000Z</time>
      </trkpt>
      <trkpt lat="47.48525" lon="6.68365">
        <ele>348</ele>
        <time>2016-09-25T08:17:46.000Z</time>
      </trkpt>
      <trkpt lat="47.48524" lon="6.68365">
        <ele>348</ele>
        <time>2016-09-25T08:17:47.000Z</time>
      </trkpt>
      <trkpt lat="47.4852" lon="6.68365">
        <ele>348</ele>
        <time>2016-09-25T08:17:51.000Z</time>
      </trkpt>
      <trkpt lat="47.48519" lon="6.68365">
        <ele>348</ele>
        <time>2016-09-25T08:17:52.000Z</time>
      </trkpt>
      <trkpt lat="47.48514" lon="6.68364">
        <ele>348</ele>
        <time>2016-09-25T08:17:55.000Z</time>
      </trkpt>
      <trkpt lat="47.48513" lon="6.68364">
        <ele>348</ele>
        <time>2016-09-25T08:17:56.000Z</time>
      </trkpt>
      <trkpt lat="47.48509" lon="6.68366">
        <ele>348</ele>
        <time>2016-09-25T08:17:59.000Z</time>
      </trkpt>
      <trkpt lat="47.48508" lon="6.68367">
        <ele>348</ele>
        <time>2016-09-25T08:18:00.000Z</time>
      </trkpt>
      <trkpt lat="47.48505" lon="6.68369">
        <ele>348</ele>
        <time>2016-09-25T08:18:02.000Z</time>
      </trkpt>
      <trkpt lat="47.48503" lon="6.68369">
        <ele>348</ele>
        <time>2016-09-25T08:18:03.000Z</time>
      </trkpt>
      <trkpt lat="47.48499" lon="6.6837">
        <ele>359</ele>
        <time>2016-09-25T08:18:06.000Z</time>
      </trkpt>
      <trkpt lat="47.48498" lon="6.6837">
        <ele>359</ele>
        <time>2016-09-25T08:18:07.000Z</time>
      </trkpt>
      <trkpt lat="47.48494" lon="6.68372">
        <ele>359</ele>
        <time>2016-09-25T08:18:11.000Z</time>
      </trkpt>
      <trkpt lat="47.48493" lon="6.68372">
        <ele>359</ele>
        <time>2016-09-25T08:18:12.000Z</time>
      </trkpt>
      <trkpt lat="47.48489" lon="6.68375">
        <ele>360</ele>
        <time>2016-09-25T08:18:15.000Z</time>
      </trkpt>
      <trkpt lat="47.48489" lon="6.68376">
        <ele>360</ele>
        <time>2016-09-25T08:18:16.000Z</time>
      </trkpt>
      <trkpt lat="47.48486" lon="6.68381">
        <ele>360</ele>
        <time>2016-09-25T08:18:19.000Z</time>
      </trkpt>
      <trkpt lat="47.48485" lon="6.68383">
        <ele>360</ele>
        <time>2016-09-25T08:18:20.000Z</time>
      </trkpt>
      <trkpt lat="47.48482" lon="6.68387">
        <ele>360</ele>
        <time>2016-09-25T08:18:22.000Z</time>
      </trkpt>
      <trkpt lat="47.4848" lon="6.68389">
        <ele>360</ele>
        <time>2016-09-25T08:18:23.000Z</time>
      </trkpt>
      <trkpt lat="47.48477" lon="6.68393">
        <ele>360</ele>
        <time>2016-09-25T08:18:25.000Z</time>
      </trkpt>
      <trkpt lat="47.48477" lon="6.68395">
        <ele>360</ele>
        <time>2016-09-25T08:18:26.000Z</time>
      </trkpt>
      <trkpt lat="47.48475" lon="6.68399">
        <ele>360</ele>
        <time>2016-09-25T08:18:28.000Z</time>
      </trkpt>
      <trkpt lat="47.48473" lon="6.68401">
        <ele>360</ele>
        <time>2016-09-25T08:18:29.000Z</time>
      </trkpt>
      <trkpt lat="47.4847" lon="6.68403">
        <ele>361</ele>
        <time>2016-09-25T08:18:31.000Z</time>
      </trkpt>
      <trkpt lat="47.48469" lon="6.68405">
        <ele>361</ele>
        <time>2016-09-25T08:18:32.000Z</time>
      </trkpt>
      <trkpt lat="47.48465" lon="6.68409">
        <ele>362</ele>
        <time>2016-09-25T08:18:34.000Z</time>
      </trkpt>
      <trkpt lat="47.48464" lon="6.68411">
        <ele>362</ele>
        <time>2016-09-25T08:18:35.000Z</time>
      </trkpt>
      <trkpt lat="47.48461" lon="6.68415">
        <ele>363</ele>
        <time>2016-09-25T08:18:37.000Z</time>
      </trkpt>
      <trkpt lat="47.48459" lon="6.68416">
        <ele>363</ele>
        <time>2016-09-25T08:18:38.000Z</time>
      </trkpt>
      <trkpt lat="47.48457" lon="6.68419">
        <ele>360</ele>
        <time>2016-09-25T08:18:40.000Z</time>
      </trkpt>
      <trkpt lat="47.48455" lon="6.68421">
        <ele>361</ele>
        <time>2016-09-25T08:18:41.000Z</time>
      </trkpt>
      <trkpt lat="47.48452" lon="6.68425">
        <ele>361</ele>
        <time>2016-09-25T08:18:46.000Z</time>
      </trkpt>
      <trkpt lat="47.48452" lon="6.68426">
        <ele>361</ele>
        <time>2016-09-25T08:18:47.000Z</time>
      </trkpt>
      <trkpt lat="47.48448" lon="6.6843">
        <ele>362</ele>
        <time>2016-09-25T08:19:07.000Z</time>
      </trkpt>
      <trkpt lat="47.48448" lon="6.6843">
        <ele>362</ele>
        <time>2016-09-25T08:19:08.000Z</time>
      </trkpt>
      <trkpt lat="47.48445" lon="6.68435">
        <ele>362</ele>
        <time>2016-09-25T08:19:14.000Z</time>
      </trkpt>
      <trkpt lat="47.48444" lon="6.68435">
        <ele>362</ele>
        <time>2016-09-25T08:19:15.000Z</time>
      </trkpt>
      <trkpt lat="47.4844" lon="6.68438">
        <ele>363</ele>
        <time>2016-09-25T08:19:23.000Z</time>
      </trkpt>
      <trkpt lat="47.48439" lon="6.68439">
        <ele>363</ele>
        <time>2016-09-25T08:19:24.000Z</time>
      </trkpt>
      <trkpt lat="47.48435" lon="6.68441">
        <ele>363</ele>
        <time>2016-09-25T08:19:27.000Z</time>
      </trkpt>
      <trkpt lat="47.48434" lon="6.68442">
        <ele>363</ele>
        <time>2016-09-25T08:19:28.000Z</time>
      </trkpt>
      <trkpt lat="47.48431" lon="6.68445">
        <ele>363</ele>
        <time>2016-09-25T08:19:31.000Z</time>
      </trkpt>
      <trkpt lat="47.4843" lon="6.68446">
        <ele>363</ele>
        <time>2016-09-25T08:19:32.000Z</time>
      </trkpt>
      <trkpt lat="47.48427" lon="6.68451">
        <ele>363</ele>
        <time>2016-09-25T08:19:36.000Z</time>
      </trkpt>
      <trkpt lat="47.48426" lon="6.68452">
        <ele>363</ele>
        <time>2016-09-25T08:19:37.000Z</time>
      </trkpt>
      <trkpt lat="47.48424" lon="6.68456">
        <ele>362</ele>
        <time>2016-09-25T08:19:47.000Z</time>
      </trkpt>
      <trkpt lat="47.48423" lon="6.68456">
        <ele>362</ele>
        <time>2016-09-25T08:19:48.000Z</time>
      </trkpt>
      <trkpt lat="47.48419" lon="6.68459">
        <ele>362</ele>
        <time>2016-09-25T08:19:52.000Z</time>
      </trkpt>
      <trkpt lat="47.48418" lon="6.6846">
        <ele>362</ele>
        <time>2016-09-25T08:19:53.000Z</time>
      </trkpt>
      <trkpt lat="47.48413" lon="6.68462">
        <ele>373</ele>
        <time>2016-09-25T08:19:55.000Z</time>
      </trkpt>
      <trkpt lat="47.48412" lon="6.68462">
        <ele>373</ele>
        <time>2016-09-25T08:19:56.000Z</time>
      </trkpt>
      <trkpt lat="47.48408" lon="6.68466">
        <ele>373</ele>
        <time>2016-09-25T08:20:01.000Z</time>
      </trkpt>
      <trkpt lat="47.48407" lon="6.68467">
        <ele>373</ele>
        <time>2016-09-25T08:20:02.000Z</time>
      </trkpt>
      <trkpt lat="47.48405" lon="6.68469">
        <ele>373</ele>
        <time>2016-09-25T08:20:05.000Z</time>
      </trkpt>
      <trkpt lat="47.48404" lon="6.68472">
        <ele>372</ele>
        <time>2016-09-25T08:20:06.000Z</time>
      </trkpt>
      <trkpt lat="47.48401" lon="6.68476">
        <ele>372</ele>
        <time>2016-09-25T08:20:14.000Z</time>
      </trkpt>
      <trkpt lat="47.48401" lon="6.68476">
        <ele>372</ele>
        <time>2016-09-25T08:20:15.000Z</time>
      </trkpt>
      <trkpt lat="47.48397" lon="6.68476">
        <ele>373</ele>
        <time>2016-09-25T08:20:19.000Z</time>
      </trkpt>
      <trkpt lat="47.48396" lon="6.68476">
        <ele>373</ele>
        <time>2016-09-25T08:20:20.000Z</time>
      </trkpt>
      <trkpt lat="47.48392" lon="6.68476">
        <ele>373</ele>
        <time>2016-09-25T08:20:25.000Z</time>
      </trkpt>
      <trkpt lat="47.48391" lon="6.68475">
        <ele>374</ele>
        <time>2016-09-25T08:20:26.000Z</time>
      </trkpt>
      <trkpt lat="47.48387" lon="6.68473">
        <ele>374</ele>
        <time>2016-09-25T08:20:29.000Z</time>
      </trkpt>
      <trkpt lat="47.48386" lon="6.68472">
        <ele>374</ele>
        <time>2016-09-25T08:20:30.000Z</time>
      </trkpt>
      <trkpt lat="47.48382" lon="6.68471">
        <ele>375</ele>
        <time>2016-09-25T08:20:33.000Z</time>
      </trkpt>
      <trkpt lat="47.48381" lon="6.6847">
        <ele>375</ele>
        <time>2016-09-25T08:20:34.000Z</time>
      </trkpt>
      <trkpt lat="47.4838" lon="6.68465">
        <ele>376</ele>
        <time>2016-09-25T08:20:39.000Z</time>
      </trkpt>
      <trkpt lat="47.4838" lon="6.68464">
        <ele>376</ele>
        <time>2016-09-25T08:20:40.000Z</time>
      </trkpt>
      <trkpt lat="47.48383" lon="6.68459">
        <ele>376</ele>
        <time>2016-09-25T08:20:50.000Z</time>
      </trkpt>
      <trkpt lat="47.48383" lon="6.68458">
        <ele>376</ele>
        <time>2016-09-25T08:20:51.000Z</time>
      </trkpt>
      <trkpt lat="47.48384" lon="6.68453">
        <ele>377</ele>
        <time>2016-09-25T08:20:55.000Z</time>
      </trkpt>
      <trkpt lat="47.48384" lon="6.68451">
        <ele>377</ele>
        <time>2016-09-25T08:20:56.000Z</time>
      </trkpt>
      <trkpt lat="47.48384" lon="6.68447">
        <ele>377</ele>
        <time>2016-09-25T08:20:58.000Z</time>
      </trkpt>
      <trkpt lat="47.48383" lon="6.68445">
        <ele>377</ele>
        <time>2016-09-25T08:20:59.000Z</time>
      </trkpt>
      <trkpt lat="47.48383" lon="6.68439">
        <ele>378</ele>
        <time>2016-09-25T08:21:02.000Z</time>
      </trkpt>
      <trkpt lat="47.48384" lon="6.68437">
        <ele>378</ele>
        <time>2016-09-25T08:21:03.000Z</time>
      </trkpt>
      <trkpt lat="47.48385" lon="6.68431">
        <ele>378</ele>
        <time>2016-09-25T08:21:11.000Z</time>
      </trkpt>
      <trkpt lat="47.48385" lon="6.6843">
        <ele>378</ele>
        <time>2016-09-25T08:21:12.000Z</time>
      </trkpt>
      <trkpt lat="47.48386" lon="6.68424">
        <ele>378</ele>
        <time>2016-09-25T08:21:18.000Z</time>
      </trkpt>
      <trkpt lat="47.48386" lon="6.68423">
        <ele>378</ele>
        <time>2016-09-25T08:21:19.000Z</time>
      </trkpt>
      <trkpt lat="47.48388" lon="6.68418">
        <ele>378</ele>
        <time>2016-09-25T08:21:23.000Z</time>
      </trkpt>
      <trkpt lat="47.48389" lon="6.68416">
        <ele>384</ele>
        <time>2016-09-25T08:21:24.000Z</time>
      </trkpt>
      <trkpt lat="47.48389" lon="6.68411">
        <ele>384</ele>
        <time>2016-09-25T08:21:27.000Z</time>
      </trkpt>
      <trkpt lat="47.4839" lon="6.68409">
        <ele>384</ele>
        <time>2016-09-25T08:21:28.000Z</time>
      </trkpt>
      <trkpt lat="47.4839" lon="6.68404">
        <ele>384</ele>
        <time>2016-09-25T08:21:30.000Z</time>
      </trkpt>
      <trkpt lat="47.48391" lon="6.68401">
        <ele>384</ele>
        <time>2016-09-25T08:21:31.000Z</time>
      </trkpt>
      <trkpt lat="47.48392" lon="6.68395">
        <ele>385</ele>
        <time>2016-09-25T08:21:33.000Z</time>
      </trkpt>
      <trkpt lat="47.48392" lon="6.68393">
        <ele>385</ele>
        <time>2016-09-25T08:21:34.000Z</time>
      </trkpt>
      <trkpt lat="47.48395" lon="6.68389">
        <ele>385</ele>
        <time>2016-09-25T08:21:37.000Z</time>
      </trkpt>
      <trkpt lat="47.48395" lon="6.68387">
        <ele>385</ele>
        <time>2016-09-25T08:21:38.000Z</time>
      </trkpt>
      <trkpt lat="47.48395" lon="6.68381">
        <ele>386</ele>
        <time>2016-09-25T08:21:41.000Z</time>
      </trkpt>
      <trkpt lat="47.48395" lon="6.68379">
        <ele>386</ele>
        <time>2016-09-25T08:21:42.000Z</time>
      </trkpt>
      <trkpt lat="47.48395" lon="6.68374">
        <ele>386</ele>
        <time>2016-09-25T08:21:44.000Z</time>
      </trkpt>
      <trkpt lat="47.48395" lon="6.68372">
        <ele>386</ele>
        <time>2016-09-25T08:21:45.000Z</time>
      </trkpt>
      <trkpt lat="47.48396" lon="6.68367">
        <ele>386</ele>
        <time>2016-09-25T08:21:47.000Z</time>
      </trkpt>
      <trkpt lat="47.48397" lon="6.68365">
        <ele>386</ele>
        <time>2016-09-25T08:21:48.000Z</time>
      </trkpt>
      <trkpt lat="47.48398" lon="6.6836">
        <ele>386</ele>
        <time>2016-09-25T08:21:51.000Z</time>
      </trkpt>
      <trkpt lat="47.48398" lon="6.68358">
        <ele>386</ele>
        <time>2016-09-25T08:21:52.000Z</time>
      </trkpt>
      <trkpt lat="47.48398" lon="6.68352">
        <ele>387</ele>
        <time>2016-09-25T08:21:55.000Z</time>
      </trkpt>
      <trkpt lat="47.48398" lon="6.6835">
        <ele>387</ele>
        <time>2016-09-25T08:21:56.000Z</time>
      </trkpt>
      <trkpt lat="47.48398" lon="6.68345">
        <ele>387</ele>
        <time>2016-09-25T08:21:58.000Z</time>
      </trkpt>
      <trkpt lat="47.48399" lon="6.68342">
        <ele>386</ele>
        <time>2016-09-25T08:21:59.000Z</time>
      </trkpt>
      <trkpt lat="47.484" lon="6.68337">
        <ele>386</ele>
        <time>2016-09-25T08:22:01.000Z</time>
      </trkpt>
      <trkpt lat="47.484" lon="6.68334">
        <ele>386</ele>
        <time>2016-09-25T08:22:02.000Z</time>
      </trkpt>
      <trkpt lat="47.48401" lon="6.68328">
        <ele>389</ele>
        <time>2016-09-25T08:22:04.000Z</time>
      </trkpt>
      <trkpt lat="47.48401" lon="6.68325">
        <ele>389</ele>
        <time>2016-09-25T08:22:05.000Z</time>
      </trkpt>
      <trkpt lat="47.48401" lon="6.68321">
        <ele>390</ele>
        <time>2016-09-25T08:22:06.000Z</time>
      </trkpt>
      <trkpt lat="47.484" lon="6.68318">
        <ele>390</ele>
        <time>2016-09-25T08:22:07.000Z</time>
      </trkpt>
      <trkpt lat="47.48399" lon="6.68314">
        <ele>391</ele>
        <time>2016-09-25T08:22:08.000Z</time>
      </trkpt>
      <trkpt lat="47.48399" lon="6.68311">
        <ele>391</ele>
        <time>2016-09-25T08:22:09.000Z</time>
      </trkpt>
      <trkpt lat="47.48398" lon="6.68305">
        <ele>392</ele>
        <time>2016-09-25T08:22:11.000Z</time>
      </trkpt>
      <trkpt lat="47.48398" lon="6.68303">
        <ele>392</ele>
        <time>2016-09-25T08:22:12.000Z</time>
      </trkpt>
      <trkpt lat="47.48397" lon="6.68298">
        <ele>392</ele>
        <time>2016-09-25T08:22:14.000Z</time>
      </trkpt>
      <trkpt lat="47.48397" lon="6.68295">
        <ele>392</ele>
        <time>2016-09-25T08:22:15.000Z</time>
      </trkpt>
      <trkpt lat="47.48398" lon="6.68289">
        <ele>392</ele>
        <time>2016-09-25T08:22:18.000Z</time>
      </trkpt>
      <trkpt lat="47.48398" lon="6.68288">
        <ele>392</ele>
        <time>2016-09-25T08:22:19.000Z</time>
      </trkpt>
      <trkpt lat="47.48396" lon="6.68283">
        <ele>393</ele>
        <time>2016-09-25T08:22:22.000Z</time>
      </trkpt>
      <trkpt lat="47.48395" lon="6.6828">
        <ele>393</ele>
        <time>2016-09-25T08:22:23.000Z</time>
      </trkpt>
      <trkpt lat="47.48394" lon="6.68277">
        <ele>393</ele>
        <time>2016-09-25T08:22:24.000Z</time>
      </trkpt>
      <trkpt lat="47.48392" lon="6.68274">
        <ele>393</ele>
        <time>2016-09-25T08:22:25.000Z</time>
      </trkpt>
      <trkpt lat="47.4839" lon="6.6827">
        <ele>393</ele>
        <time>2016-09-25T08:22:26.000Z</time>
      </trkpt>
      <trkpt lat="47.48389" lon="6.68267">
        <ele>393</ele>
        <time>2016-09-25T08:22:27.000Z</time>
      </trkpt>
      <trkpt lat="47.48387" lon="6.68262">
        <ele>394</ele>
        <time>2016-09-25T08:22:29.000Z</time>
      </trkpt>
      <trkpt lat="47.48386" lon="6.6826">
        <ele>394</ele>
        <time>2016-09-25T08:22:30.000Z</time>
      </trkpt>
      <trkpt lat="47.48384" lon="6.68255">
        <ele>394</ele>
        <time>2016-09-25T08:22:32.000Z</time>
      </trkpt>
      <trkpt lat="47.48383" lon="6.68252">
        <ele>394</ele>
        <time>2016-09-25T08:22:33.000Z</time>
      </trkpt>
      <trkpt lat="47.48381" lon="6.68247">
        <ele>397</ele>
        <time>2016-09-25T08:22:36.000Z</time>
      </trkpt>
      <trkpt lat="47.48381" lon="6.68245">
        <ele>397</ele>
        <time>2016-09-25T08:22:37.000Z</time>
      </trkpt>
      <trkpt lat="47.48379" lon="6.6824">
        <ele>398</ele>
        <time>2016-09-25T08:22:40.000Z</time>
      </trkpt>
      <trkpt lat="47.48378" lon="6.68238">
        <ele>398</ele>
        <time>2016-09-25T08:22:41.000Z</time>
      </trkpt>
      <trkpt lat="47.48377" lon="6.68234">
        <ele>398</ele>
        <time>2016-09-25T08:22:44.000Z</time>
      </trkpt>
      <trkpt lat="47.48377" lon="6.68232">
        <ele>398</ele>
        <time>2016-09-25T08:22:45.000Z</time>
      </trkpt>
      <trkpt lat="47.48376" lon="6.68226">
        <ele>398</ele>
        <time>2016-09-25T08:22:51.000Z</time>
      </trkpt>
      <trkpt lat="47.48375" lon="6.68225">
        <ele>398</ele>
        <time>2016-09-25T08:22:52.000Z</time>
      </trkpt>
      <trkpt lat="47.48374" lon="6.68219">
        <ele>399</ele>
        <time>2016-09-25T08:22:58.000Z</time>
      </trkpt>
      <trkpt lat="47.48374" lon="6.68217">
        <ele>399</ele>
        <time>2016-09-25T08:22:59.000Z</time>
      </trkpt>
      <trkpt lat="47.48373" lon="6.68212">
        <ele>399</ele>
        <time>2016-09-25T08:23:05.000Z</time>
      </trkpt>
      <trkpt lat="47.48373" lon="6.6821">
        <ele>399</ele>
        <time>2016-09-25T08:23:06.000Z</time>
      </trkpt>
      <trkpt lat="47.48373" lon="6.68204">
        <ele>399</ele>
        <time>2016-09-25T08:23:11.000Z</time>
      </trkpt>
      <trkpt lat="47.48373" lon="6.68203">
        <ele>399</ele>
        <time>2016-09-25T08:23:12.000Z</time>
      </trkpt>
      <trkpt lat="47.48373" lon="6.68198">
        <ele>399</ele>
        <time>2016-09-25T08:23:17.000Z</time>
      </trkpt>
      <trkpt lat="47.48373" lon="6.68196">
        <ele>399</ele>
        <time>2016-09-25T08:23:18.000Z</time>
      </trkpt>
      <trkpt lat="47.48375" lon="6.68193">
        <ele>399</ele>
        <time>2016-09-25T08:23:20.000Z</time>
      </trkpt>
      <trkpt lat="47.48376" lon="6.68191">
        <ele>399</ele>
        <time>2016-09-25T08:23:21.000Z</time>
      </trkpt>
      <trkpt lat="47.48376" lon="6.68185">
        <ele>399</ele>
        <time>2016-09-25T08:23:24.000Z</time>
      </trkpt>
      <trkpt lat="47.48375" lon="6.68184">
        <ele>399</ele>
        <time>2016-09-25T08:23:25.000Z</time>
      </trkpt>
      <trkpt lat="47.48375" lon="6.68178">
        <ele>400</ele>
        <time>2016-09-25T08:23:29.000Z</time>
      </trkpt>
      <trkpt lat="47.48375" lon="6.68177">
        <ele>400</ele>
        <time>2016-09-25T08:23:30.000Z</time>
      </trkpt>
      <trkpt lat="47.48375" lon="6.6817">
        <ele>400</ele>
        <time>2016-09-25T08:23:34.000Z</time>
      </trkpt>
      <trkpt lat="47.48375" lon="6.68169">
        <ele>400</ele>
        <time>2016-09-25T08:23:35.000Z</time>
      </trkpt>
      <trkpt lat="47.48373" lon="6.68164">
        <ele>404</ele>
        <time>2016-09-25T08:23:39.000Z</time>
      </trkpt>
      <trkpt lat="47.48373" lon="6.68162">
        <ele>404</ele>
        <time>2016-09-25T08:23:40.000Z</time>
      </trkpt>
      <trkpt lat="47.48374" lon="6.68157">
        <ele>404</ele>
        <time>2016-09-25T08:23:45.000Z</time>
      </trkpt>
      <trkpt lat="47.48375" lon="6.68155">
        <ele>404</ele>
        <time>2016-09-25T08:23:46.000Z</time>
      </trkpt>
      <trkpt lat="47.48376" lon="6.6815">
        <ele>405</ele>
        <time>2016-09-25T08:23:49.000Z</time>
      </trkpt>
      <trkpt lat="47.48376" lon="6.68148">
        <ele>405</ele>
        <time>2016-09-25T08:23:50.000Z</time>
      </trkpt>
      <trkpt lat="47.48379" lon="6.68144">
        <ele>405</ele>
        <time>2016-09-25T08:23:54.000Z</time>
      </trkpt>
      <trkpt lat="47.4838" lon="6.68143">
        <ele>405</ele>
        <time>2016-09-25T08:23:55.000Z</time>
      </trkpt>
      <trkpt lat="47.4838" lon="6.68138">
        <ele>405</ele>
        <time>2016-09-25T08:23:58.000Z</time>
      </trkpt>
      <trkpt lat="47.4838" lon="6.68135">
        <ele>405</ele>
        <time>2016-09-25T08:23:59.000Z</time>
      </trkpt>
      <trkpt lat="47.4838" lon="6.68129">
        <ele>405</ele>
        <time>2016-09-25T08:24:02.000Z</time>
      </trkpt>
      <trkpt lat="47.48381" lon="6.68127">
        <ele>406</ele>
        <time>2016-09-25T08:24:03.000Z</time>
      </trkpt>
      <trkpt lat="47.48382" lon="6.68122">
        <ele>406</ele>
        <time>2016-09-25T08:24:05.000Z</time>
      </trkpt>
      <trkpt lat="47.48383" lon="6.6812">
        <ele>406</ele>
        <time>2016-09-25T08:24:06.000Z</time>
      </trkpt>
      <trkpt lat="47.48385" lon="6.68116">
        <ele>406</ele>
        <time>2016-09-25T08:24:09.000Z</time>
      </trkpt>
      <trkpt lat="47.48385" lon="6.68115">
        <ele>406</ele>
        <time>2016-09-25T08:24:10.000Z</time>
      </trkpt>
      <trkpt lat="47.48384" lon="6.68109">
        <ele>406</ele>
        <time>2016-09-25T08:24:13.000Z</time>
      </trkpt>
      <trkpt lat="47.48384" lon="6.68106">
        <ele>407</ele>
        <time>2016-09-25T08:24:14.000Z</time>
      </trkpt>
      <trkpt lat="47.48383" lon="6.68099">
        <ele>407</ele>
        <time>2016-09-25T08:24:16.000Z</time>
      </trkpt>
      <trkpt lat="47.48383" lon="6.68097">
        <ele>407</ele>
        <time>2016-09-25T08:24:17.000Z</time>
      </trkpt>
      <trkpt lat="47.48382" lon="6.68091">
        <ele>407</ele>
        <time>2016-09-25T08:24:20.000Z</time>
      </trkpt>
      <trkpt lat="47.48382" lon="6.6809">
        <ele>407</ele>
        <time>2016-09-25T08:24:21.000Z</time>
      </trkpt>
      <trkpt lat="47.4838" lon="6.68084">
        <ele>408</ele>
        <time>2016-09-25T08:27:40.000Z</time>
      </trkpt>
      <trkpt lat="47.4838" lon="6.68084">
        <ele>408</ele>
        <time>2016-09-25T08:27:41.000Z</time>
      </trkpt>
      <trkpt lat="47.48381" lon="6.68077">
        <ele>414</ele>
        <time>2016-09-25T08:29:02.000Z</time>
      </trkpt>
      <trkpt lat="47.48381" lon="6.68077">
        <ele>414</ele>
        <time>2016-09-25T08:29:03.000Z</time>
      </trkpt>
      <trkpt lat="47.48381" lon="6.6807">
        <ele>414</ele>
        <time>2016-09-25T08:29:44.000Z</time>
      </trkpt>
      <trkpt lat="47.48381" lon="6.6807">
        <ele>414</ele>
        <time>2016-09-25T08:29:45.000Z</time>
      </trkpt>
      <trkpt lat="47.48381" lon="6.68064">
        <ele>414</ele>
        <time>2016-09-25T08:30:35.000Z</time>
      </trkpt>
      <trkpt lat="47.48381" lon="6.68062">
        <ele>414</ele>
        <time>2016-09-25T08:30:36.000Z</time>
      </trkpt>
      <trkpt lat="47.48382" lon="6.68056">
        <ele>415</ele>
        <time>2016-09-25T08:30:43.000Z</time>
      </trkpt>
      <trkpt lat="47.48381" lon="6.68056">
        <ele>415</ele>
        <time>2016-09-25T08:30:44.000Z</time>
      </trkpt>
      <trkpt lat="47.48377" lon="6.68055">
        <ele>415</ele>
        <time>2016-09-25T08:30:48.000Z</time>
      </trkpt>
      <trkpt lat="47.48375" lon="6.68055">
        <ele>415</ele>
        <time>2016-09-25T08:30:49.000Z</time>
      </trkpt>
      <trkpt lat="47.48372" lon="6.68056">
        <ele>415</ele>
        <time>2016-09-25T08:30:52.000Z</time>
      </trkpt>
      <trkpt lat="47.48371" lon="6.68055">
        <ele>415</ele>
        <time>2016-09-25T08:30:53.000Z</time>
      </trkpt>
      <trkpt lat="47.48368" lon="6.68053">
        <ele>416</ele>
        <time>2016-09-25T08:30:55.000Z</time>
      </trkpt>
      <trkpt lat="47.48366" lon="6.68053">
        <ele>416</ele>
        <time>2016-09-25T08:30:56.000Z</time>
      </trkpt>
      <trkpt lat="47.48364" lon="6.68052">
        <ele>416</ele>
        <time>2016-09-25T08:30:57.000Z</time>
      </trkpt>
      <trkpt lat="47.48361" lon="6.68051">
        <ele>416</ele>
        <time>2016-09-25T08:30:58.000Z</time>
      </trkpt>
      <trkpt lat="47.48357" lon="6.68051">
        <ele>416</ele>
        <time>2016-09-25T08:31:00.000Z</time>
      </trkpt>
      <trkpt lat="47.48354" lon="6.6805">
        <ele>416</ele>
        <time>2016-09-25T08:31:01.000Z</time>
      </trkpt>
      <trkpt lat="47.48352" lon="6.6805">
        <ele>416</ele>
        <time>2016-09-25T08:31:02.000Z</time>
      </trkpt>
      <trkpt lat="47.4835" lon="6.68049">
        <ele>416</ele>
        <time>2016-09-25T08:31:03.000Z</time>
      </trkpt>
      <trkpt lat="47.48347" lon="6.68048">
        <ele>416</ele>
        <time>2016-09-25T08:31:04.000Z</time>
      </trkpt>
      <trkpt lat="47.48345" lon="6.68046">
        <ele>417</ele>
        <time>2016-09-25T08:31:05.000Z</time>
      </trkpt>
      <trkpt lat="47.48343" lon="6.68044">
        <ele>417</ele>
        <time>2016-09-25T08:31:06.000Z</time>
      </trkpt>
      <trkpt lat="47.4834" lon="6.68043">
        <ele>417</ele>
        <time>2016-09-25T08:31:07.000Z</time>
      </trkpt>
      <trkpt lat="47.48337" lon="6.68041">
        <ele>417</ele>
        <time>2016-09-25T08:31:08.000Z</time>
      </trkpt>
      <trkpt lat="47.48335" lon="6.6804">
        <ele>417</ele>
        <time>2016-09-25T08:31:09.000Z</time>
      </trkpt>
      <trkpt lat="47.48332" lon="6.68039">
        <ele>417</ele>
        <time>2016-09-25T08:31:10.000Z</time>
      </trkpt>
      <trkpt lat="47.4833" lon="6.68037">
        <ele>418</ele>
        <time>2016-09-25T08:31:11.000Z</time>
      </trkpt>
      <trkpt lat="47.48328" lon="6.68036">
        <ele>418</ele>
        <time>2016-09-25T08:31:12.000Z</time>
      </trkpt>
      <trkpt lat="47.48326" lon="6.68034">
        <ele>418</ele>
        <time>2016-09-25T08:31:13.000Z</time>
      </trkpt>
      <trkpt lat="47.48324" lon="6.68033">
        <ele>418</ele>
        <time>2016-09-25T08:31:14.000Z</time>
      </trkpt>
      <trkpt lat="47.48322" lon="6.68031">
        <ele>418</ele>
        <time>2016-09-25T08:31:15.000Z</time>
      </trkpt>
      <trkpt lat="47.48318" lon="6.68029">
        <ele>418</ele>
        <time>2016-09-25T08:31:17.000Z</time>
      </trkpt>
      <trkpt lat="47.48316" lon="6.68027">
        <ele>418</ele>
        <time>2016-09-25T08:31:18.000Z</time>
      </trkpt>
      <trkpt lat="47.48313" lon="6.68025">
        <ele>418</ele>
        <time>2016-09-25T08:31:19.000Z</time>
      </trkpt>
      <trkpt lat="47.4831" lon="6.68024">
        <ele>418</ele>
        <time>2016-09-25T08:31:20.000Z</time>
      </trkpt>
      <trkpt lat="47.48305" lon="6.68022">
        <ele>418</ele>
        <time>2016-09-25T08:31:21.000Z</time>
      </trkpt>
      <trkpt lat="47.48299" lon="6.68021">
        <ele>418</ele>
        <time>2016-09-25T08:31:22.000Z</time>
      </trkpt>
      <trkpt lat="47.48293" lon="6.68021">
        <ele>417</ele>
        <time>2016-09-25T08:31:23.000Z</time>
      </trkpt>
      <trkpt lat="47.48274" lon="6.68014">
        <ele>417</ele>
        <time>2016-09-25T08:31:24.000Z</time>
      </trkpt>
      <trkpt lat="47.48269" lon="6.68013">
        <ele>418</ele>
        <time>2016-09-25T08:31:25.000Z</time>
      </trkpt>
      <trkpt lat="47.48264" lon="6.68011">
        <ele>418</ele>
        <time>2016-09-25T08:31:26.000Z</time>
      </trkpt>
      <trkpt lat="47.48263" lon="6.68008">
        <ele>418</ele>
        <time>2016-09-25T08:31:27.000Z</time>
      </trkpt>
      <trkpt lat="47.48258" lon="6.68008">
        <ele>418</ele>
        <time>2016-09-25T08:31:28.000Z</time>
      </trkpt>
      <trkpt lat="47.48255" lon="6.68006">
        <ele>418</ele>
        <time>2016-09-25T08:31:30.000Z</time>
      </trkpt>
      <trkpt lat="47.48253" lon="6.68004">
        <ele>419</ele>
        <time>2016-09-25T08:31:31.000Z</time>
      </trkpt>
      <trkpt lat="47.48254" lon="6.67999">
        <ele>419</ele>
        <time>2016-09-25T08:31:33.000Z</time>
      </trkpt>
      <trkpt lat="47.48251" lon="6.67996">
        <ele>419</ele>
        <time>2016-09-25T08:31:34.000Z</time>
      </trkpt>
      <trkpt lat="47.48249" lon="6.67993">
        <ele>418</ele>
        <time>2016-09-25T08:31:35.000Z</time>
      </trkpt>
      <trkpt lat="47.48237" lon="6.67987">
        <ele>418</ele>
        <time>2016-09-25T08:31:36.000Z</time>
      </trkpt>
      <trkpt lat="47.48232" lon="6.67983">
        <ele>417</ele>
        <time>2016-09-25T08:31:37.000Z</time>
      </trkpt>
      <trkpt lat="47.48228" lon="6.67979">
        <ele>417</ele>
        <time>2016-09-25T08:31:38.000Z</time>
      </trkpt>
      <trkpt lat="47.48223" lon="6.67973">
        <ele>417</ele>
        <time>2016-09-25T08:31:39.000Z</time>
      </trkpt>
      <trkpt lat="47.4822" lon="6.67969">
        <ele>417</ele>
        <time>2016-09-25T08:31:40.000Z</time>
      </trkpt>
      <trkpt lat="47.48213" lon="6.67968">
        <ele>416</ele>
        <time>2016-09-25T08:31:41.000Z</time>
      </trkpt>
      <trkpt lat="47.48209" lon="6.67965">
        <ele>416</ele>
        <time>2016-09-25T08:31:42.000Z</time>
      </trkpt>
      <trkpt lat="47.48205" lon="6.67962">
        <ele>416</ele>
        <time>2016-09-25T08:31:43.000Z</time>
      </trkpt>
      <trkpt lat="47.48202" lon="6.67959">
        <ele>416</ele>
        <time>2016-09-25T08:31:44.000Z</time>
      </trkpt>
      <trkpt lat="47.48202" lon="6.67956">
        <ele>416</ele>
        <time>2016-09-25T08:31:45.000Z</time>
      </trkpt>
      <trkpt lat="47.48199" lon="6.67954">
        <ele>415</ele>
        <time>2016-09-25T08:31:46.000Z</time>
      </trkpt>
      <trkpt lat="47.48195" lon="6.67951">
        <ele>415</ele>
        <time>2016-09-25T08:31:47.000Z</time>
      </trkpt>
      <trkpt lat="47.48191" lon="6.67948">
        <ele>415</ele>
        <time>2016-09-25T08:31:48.000Z</time>
      </trkpt>
      <trkpt lat="47.48188" lon="6.67946">
        <ele>415</ele>
        <time>2016-09-25T08:31:49.000Z</time>
      </trkpt>
      <trkpt lat="47.48184" lon="6.67944">
        <ele>414</ele>
        <time>2016-09-25T08:31:50.000Z</time>
      </trkpt>
      <trkpt lat="47.48181" lon="6.67942">
        <ele>414</ele>
        <time>2016-09-25T08:31:51.000Z</time>
      </trkpt>
      <trkpt lat="47.48178" lon="6.6794">
        <ele>414</ele>
        <time>2016-09-25T08:31:52.000Z</time>
      </trkpt>
      <trkpt lat="47.48176" lon="6.67939">
        <ele>414</ele>
        <time>2016-09-25T08:31:53.000Z</time>
      </trkpt>
      <trkpt lat="47.48173" lon="6.67937">
        <ele>413</ele>
        <time>2016-09-25T08:31:54.000Z</time>
      </trkpt>
      <trkpt lat="47.48171" lon="6.67936">
        <ele>413</ele>
        <time>2016-09-25T08:31:55.000Z</time>
      </trkpt>
      <trkpt lat="47.48167" lon="6.67935">
        <ele>413</ele>
        <time>2016-09-25T08:32:03.000Z</time>
      </trkpt>
      <trkpt lat="47.48166" lon="6.67932">
        <ele>410</ele>
        <time>2016-09-25T08:32:04.000Z</time>
      </trkpt>
      <trkpt lat="47.48165" lon="6.6793">
        <ele>410</ele>
        <time>2016-09-25T08:32:05.000Z</time>
      </trkpt>
      <trkpt lat="47.48161" lon="6.67928">
        <ele>410</ele>
        <time>2016-09-25T08:32:06.000Z</time>
      </trkpt>
      <trkpt lat="47.48157" lon="6.67927">
        <ele>410</ele>
        <time>2016-09-25T08:32:07.000Z</time>
      </trkpt>
      <trkpt lat="47.48151" lon="6.67928">
        <ele>410</ele>
        <time>2016-09-25T08:32:08.000Z</time>
      </trkpt>
      <trkpt lat="47.48146" lon="6.67929">
        <ele>410</ele>
        <time>2016-09-25T08:32:09.000Z</time>
      </trkpt>
      <trkpt lat="47.48143" lon="6.6793">
        <ele>410</ele>
        <time>2016-09-25T08:32:11.000Z</time>
      </trkpt>
      <trkpt lat="47.48141" lon="6.6793">
        <ele>410</ele>
        <time>2016-09-25T08:32:12.000Z</time>
      </trkpt>
      <trkpt lat="47.48137" lon="6.67928">
        <ele>410</ele>
        <time>2016-09-25T08:32:17.000Z</time>
      </trkpt>
      <trkpt lat="47.48136" lon="6.67926">
        <ele>410</ele>
        <time>2016-09-25T08:32:18.000Z</time>
      </trkpt>
      <trkpt lat="47.48134" lon="6.67924">
        <ele>410</ele>
        <time>2016-09-25T08:32:19.000Z</time>
      </trkpt>
      <trkpt lat="47.48132" lon="6.67922">
        <ele>410</ele>
        <time>2016-09-25T08:32:20.000Z</time>
      </trkpt>
      <trkpt lat="47.4813" lon="6.6792">
        <ele>409</ele>
        <time>2016-09-25T08:32:21.000Z</time>
      </trkpt>
      <trkpt lat="47.48128" lon="6.67917">
        <ele>409</ele>
        <time>2016-09-25T08:32:22.000Z</time>
      </trkpt>
      <trkpt lat="47.48126" lon="6.67914">
        <ele>405</ele>
        <time>2016-09-25T08:32:23.000Z</time>
      </trkpt>
      <trkpt lat="47.48123" lon="6.67912">
        <ele>405</ele>
        <time>2016-09-25T08:32:24.000Z</time>
      </trkpt>
      <trkpt lat="47.48119" lon="6.6791">
        <ele>405</ele>
        <time>2016-09-25T08:32:25.000Z</time>
      </trkpt>
      <trkpt lat="47.48114" lon="6.67909">
        <ele>404</ele>
        <time>2016-09-25T08:32:26.000Z</time>
      </trkpt>
      <trkpt lat="47.4809" lon="6.6791">
        <ele>405</ele>
        <time>2016-09-25T08:32:27.000Z</time>
      </trkpt>
      <trkpt lat="47.48076" lon="6.67919">
        <ele>404</ele>
        <time>2016-09-25T08:32:28.000Z</time>
      </trkpt>
      <trkpt lat="47.48066" lon="6.67922">
        <ele>403</ele>
        <time>2016-09-25T08:32:29.000Z</time>
      </trkpt>
      <trkpt lat="47.48061" lon="6.67925">
        <ele>403</ele>
        <time>2016-09-25T08:32:30.000Z</time>
      </trkpt>
      <trkpt lat="47.48059" lon="6.67929">
        <ele>403</ele>
        <time>2016-09-25T08:32:31.000Z</time>
      </trkpt>
      <trkpt lat="47.48055" lon="6.67934">
        <ele>402</ele>
        <time>2016-09-25T08:32:32.000Z</time>
      </trkpt>
      <trkpt lat="47.48052" lon="6.67938">
        <ele>402</ele>
        <time>2016-09-25T08:32:33.000Z</time>
      </trkpt>
      <trkpt lat="47.48049" lon="6.67942">
        <ele>402</ele>
        <time>2016-09-25T08:32:34.000Z</time>
      </trkpt>
      <trkpt lat="47.48044" lon="6.67948">
        <ele>402</ele>
        <time>2016-09-25T08:32:35.000Z</time>
      </trkpt>
      <trkpt lat="47.48039" lon="6.67943">
        <ele>401</ele>
        <time>2016-09-25T08:32:36.000Z</time>
      </trkpt>
      <trkpt lat="47.48035" lon="6.67948">
        <ele>401</ele>
        <time>2016-09-25T08:32:37.000Z</time>
      </trkpt>
      <trkpt lat="47.48029" lon="6.67952">
        <ele>401</ele>
        <time>2016-09-25T08:32:38.000Z</time>
      </trkpt>
      <trkpt lat="47.48025" lon="6.67958">
        <ele>401</ele>
        <time>2016-09-25T08:32:39.000Z</time>
      </trkpt>
      <trkpt lat="47.48022" lon="6.67964">
        <ele>401</ele>
        <time>2016-09-25T08:32:40.000Z</time>
      </trkpt>
      <trkpt lat="47.48019" lon="6.67969">
        <ele>401</ele>
        <time>2016-09-25T08:32:41.000Z</time>
      </trkpt>
      <trkpt lat="47.48016" lon="6.67975">
        <ele>400</ele>
        <time>2016-09-25T08:32:42.000Z</time>
      </trkpt>
      <trkpt lat="47.48014" lon="6.67981">
        <ele>400</ele>
        <time>2016-09-25T08:32:43.000Z</time>
      </trkpt>
      <trkpt lat="47.48011" lon="6.67988">
        <ele>399</ele>
        <time>2016-09-25T08:32:44.000Z</time>
      </trkpt>
      <trkpt lat="47.48008" lon="6.68001">
        <ele>399</ele>
        <time>2016-09-25T08:32:45.000Z</time>
      </trkpt>
      <trkpt lat="47.48006" lon="6.68008">
        <ele>399</ele>
        <time>2016-09-25T08:32:46.000Z</time>
      </trkpt>
      <trkpt lat="47.48004" lon="6.68015">
        <ele>400</ele>
        <time>2016-09-25T08:32:47.000Z</time>
      </trkpt>
      <trkpt lat="47.48002" lon="6.68024">
        <ele>400</ele>
        <time>2016-09-25T08:32:48.000Z</time>
      </trkpt>
      <trkpt lat="47.48005" lon="6.68046">
        <ele>400</ele>
        <time>2016-09-25T08:32:49.000Z</time>
      </trkpt>
      <trkpt lat="47.48006" lon="6.68063">
        <ele>399</ele>
        <time>2016-09-25T08:32:50.000Z</time>
      </trkpt>
      <trkpt lat="47.48004" lon="6.68075">
        <ele>397</ele>
        <time>2016-09-25T08:32:51.000Z</time>
      </trkpt>
      <trkpt lat="47.48003" lon="6.68087">
        <ele>395</ele>
        <time>2016-09-25T08:32:52.000Z</time>
      </trkpt>
      <trkpt lat="47.48005" lon="6.68097">
        <ele>396</ele>
        <time>2016-09-25T08:32:53.000Z</time>
      </trkpt>
      <trkpt lat="47.48004" lon="6.68107">
        <ele>396</ele>
        <time>2016-09-25T08:32:54.000Z</time>
      </trkpt>
      <trkpt lat="47.48003" lon="6.68119">
        <ele>396</ele>
        <time>2016-09-25T08:32:55.000Z</time>
      </trkpt>
      <trkpt lat="47.48005" lon="6.68129">
        <ele>396</ele>
        <time>2016-09-25T08:32:56.000Z</time>
      </trkpt>
      <trkpt lat="47.48006" lon="6.68138">
        <ele>395</ele>
        <time>2016-09-25T08:32:57.000Z</time>
      </trkpt>
      <trkpt lat="47.48004" lon="6.68149">
        <ele>393</ele>
        <time>2016-09-25T08:32:58.000Z</time>
      </trkpt>
      <trkpt lat="47.48002" lon="6.68161">
        <ele>390</ele>
        <time>2016-09-25T08:32:59.000Z</time>
      </trkpt>
      <trkpt lat="47.48002" lon="6.6817">
        <ele>388</ele>
        <time>2016-09-25T08:33:00.000Z</time>
      </trkpt>
      <trkpt lat="47.48001" lon="6.68185">
        <ele>389</ele>
        <time>2016-09-25T08:33:01.000Z</time>
      </trkpt>
      <trkpt lat="47.47999" lon="6.682">
        <ele>384</ele>
        <time>2016-09-25T08:33:02.000Z</time>
      </trkpt>
      <trkpt lat="47.47997" lon="6.68208">
        <ele>383</ele>
        <time>2016-09-25T08:33:03.000Z</time>
      </trkpt>
      <trkpt lat="47.47994" lon="6.68208">
        <ele>383</ele>
        <time>2016-09-25T08:33:04.000Z</time>
      </trkpt>
      <trkpt lat="47.47991" lon="6.68214">
        <ele>383</ele>
        <time>2016-09-25T08:33:05.000Z</time>
      </trkpt>
      <trkpt lat="47.47986" lon="6.6822">
        <ele>382</ele>
        <time>2016-09-25T08:33:06.000Z</time>
      </trkpt>
      <trkpt lat="47.47984" lon="6.68227">
        <ele>382</ele>
        <time>2016-09-25T08:33:07.000Z</time>
      </trkpt>
      <trkpt lat="47.47981" lon="6.68234">
        <ele>382</ele>
        <time>2016-09-25T08:33:08.000Z</time>
      </trkpt>
      <trkpt lat="47.47979" lon="6.68247">
        <ele>381</ele>
        <time>2016-09-25T08:33:09.000Z</time>
      </trkpt>
      <trkpt lat="47.47971" lon="6.68259">
        <ele>375</ele>
        <time>2016-09-25T08:33:10.000Z</time>
      </trkpt>
      <trkpt lat="47.47966" lon="6.68268">
        <ele>374</ele>
        <time>2016-09-25T08:33:11.000Z</time>
      </trkpt>
      <trkpt lat="47.47962" lon="6.68285">
        <ele>373</ele>
        <time>2016-09-25T08:33:12.000Z</time>
      </trkpt>
      <trkpt lat="47.47958" lon="6.68301">
        <ele>372</ele>
        <time>2016-09-25T08:33:13.000Z</time>
      </trkpt>
      <trkpt lat="47.47951" lon="6.68307">
        <ele>372</ele>
        <time>2016-09-25T08:33:14.000Z</time>
      </trkpt>
      <trkpt lat="47.47944" lon="6.68316">
        <ele>370</ele>
        <time>2016-09-25T08:33:15.000Z</time>
      </trkpt>
      <trkpt lat="47.47937" lon="6.68328">
        <ele>369</ele>
        <time>2016-09-25T08:33:16.000Z</time>
      </trkpt>
      <trkpt lat="47.47934" lon="6.68339">
        <ele>365</ele>
        <time>2016-09-25T08:33:17.000Z</time>
      </trkpt>
      <trkpt lat="47.47926" lon="6.68348">
        <ele>365</ele>
        <time>2016-09-25T08:33:18.000Z</time>
      </trkpt>
      <trkpt lat="47.47921" lon="6.68356">
        <ele>365</ele>
        <time>2016-09-25T08:33:19.000Z</time>
      </trkpt>
      <trkpt lat="47.47917" lon="6.68372">
        <ele>365</ele>
        <time>2016-09-25T08:33:20.000Z</time>
      </trkpt>
      <trkpt lat="47.47913" lon="6.68382">
        <ele>364</ele>
        <time>2016-09-25T08:33:21.000Z</time>
      </trkpt>
      <trkpt lat="47.47905" lon="6.68385">
        <ele>364</ele>
        <time>2016-09-25T08:33:22.000Z</time>
      </trkpt>
      <trkpt lat="47.47899" lon="6.68384">
        <ele>365</ele>
        <time>2016-09-25T08:33:23.000Z</time>
      </trkpt>
      <trkpt lat="47.47893" lon="6.68382">
        <ele>365</ele>
        <time>2016-09-25T08:33:24.000Z</time>
      </trkpt>
      <trkpt lat="47.47888" lon="6.68381">
        <ele>365</ele>
        <time>2016-09-25T08:33:25.000Z</time>
      </trkpt>
      <trkpt lat="47.47884" lon="6.6838">
        <ele>365</ele>
        <time>2016-09-25T08:33:28.000Z</time>
      </trkpt>
      <trkpt lat="47.47881" lon="6.68381">
        <ele>365</ele>
        <time>2016-09-25T08:33:29.000Z</time>
      </trkpt>
      <trkpt lat="47.47884" lon="6.68379">
        <ele>365</ele>
        <time>2016-09-25T08:33:38.000Z</time>
      </trkpt>
      <trkpt lat="47.47886" lon="6.68378">
        <ele>365</ele>
        <time>2016-09-25T08:33:39.000Z</time>
      </trkpt>
      <trkpt lat="47.47888" lon="6.68376">
        <ele>365</ele>
        <time>2016-09-25T08:33:40.000Z</time>
      </trkpt>
      <trkpt lat="47.4789" lon="6.68374">
        <ele>365</ele>
        <time>2016-09-25T08:33:41.000Z</time>
      </trkpt>
      <trkpt lat="47.47892" lon="6.68372">
        <ele>365</ele>
        <time>2016-09-25T08:33:42.000Z</time>
      </trkpt>
      <trkpt lat="47.47894" lon="6.6837">
        <ele>365</ele>
        <time>2016-09-25T08:33:43.000Z</time>
      </trkpt>
      <trkpt lat="47.47897" lon="6.68365">
        <ele>365</ele>
        <time>2016-09-25T08:33:45.000Z</time>
      </trkpt>
      <trkpt lat="47.47899" lon="6.68363">
        <ele>365</ele>
        <time>2016-09-25T08:33:46.000Z</time>
      </trkpt>
      <trkpt lat="47.47902" lon="6.6836">
        <ele>365</ele>
        <time>2016-09-25T08:33:49.000Z</time>
      </trkpt>
      <trkpt lat="47.47903" lon="6.68359">
        <ele>365</ele>
        <time>2016-09-25T08:33:50.000Z</time>
      </trkpt>
      <trkpt lat="47.47906" lon="6.68355">
        <ele>365</ele>
        <time>2016-09-25T08:33:55.000Z</time>
      </trkpt>
      <trkpt lat="47.47907" lon="6.68355">
        <ele>365</ele>
        <time>2016-09-25T08:33:56.000Z</time>
      </trkpt>
      <trkpt lat="47.4791" lon="6.68351">
        <ele>365</ele>
        <time>2016-09-25T08:34:04.000Z</time>
      </trkpt>
      <trkpt lat="47.4791" lon="6.6835">
        <ele>365</ele>
        <time>2016-09-25T08:34:05.000Z</time>
      </trkpt>
      <trkpt lat="47.47911" lon="6.68344">
        <ele>365</ele>
        <time>2016-09-25T08:34:08.000Z</time>
      </trkpt>
      <trkpt lat="47.47911" lon="6.68342">
        <ele>365</ele>
        <time>2016-09-25T08:34:09.000Z</time>
      </trkpt>
      <trkpt lat="47.4791" lon="6.68336">
        <ele>364</ele>
        <time>2016-09-25T08:34:12.000Z</time>
      </trkpt>
      <trkpt lat="47.4791" lon="6.68334">
        <ele>364</ele>
        <time>2016-09-25T08:34:13.000Z</time>
      </trkpt>
      <trkpt lat="47.4791" lon="6.6833">
        <ele>366</ele>
        <time>2016-09-25T08:34:15.000Z</time>
      </trkpt>
      <trkpt lat="47.47911" lon="6.68327">
        <ele>367</ele>
        <time>2016-09-25T08:34:16.000Z</time>
      </trkpt>
      <trkpt lat="47.47911" lon="6.68324">
        <ele>368</ele>
        <time>2016-09-25T08:34:17.000Z</time>
      </trkpt>
      <trkpt lat="47.47911" lon="6.6832">
        <ele>368</ele>
        <time>2016-09-25T08:34:18.000Z</time>
      </trkpt>
      <trkpt lat="47.47911" lon="6.68316">
        <ele>369</ele>
        <time>2016-09-25T08:34:19.000Z</time>
      </trkpt>
      <trkpt lat="47.47911" lon="6.68311">
        <ele>370</ele>
        <time>2016-09-25T08:34:20.000Z</time>
      </trkpt>
      <trkpt lat="47.47911" lon="6.68307">
        <ele>370</ele>
        <time>2016-09-25T08:34:21.000Z</time>
      </trkpt>
      <trkpt lat="47.47911" lon="6.68304">
        <ele>371</ele>
        <time>2016-09-25T08:34:22.000Z</time>
      </trkpt>
      <trkpt lat="47.47912" lon="6.68298">
        <ele>372</ele>
        <time>2016-09-25T08:34:24.000Z</time>
      </trkpt>
      <trkpt lat="47.47912" lon="6.68296">
        <ele>372</ele>
        <time>2016-09-25T08:34:25.000Z</time>
      </trkpt>
      <trkpt lat="47.47913" lon="6.68291">
        <ele>372</ele>
        <time>2016-09-25T08:34:27.000Z</time>
      </trkpt>
      <trkpt lat="47.47914" lon="6.68289">
        <ele>372</ele>
        <time>2016-09-25T08:34:28.000Z</time>
      </trkpt>
      <trkpt lat="47.47915" lon="6.68283">
        <ele>373</ele>
        <time>2016-09-25T08:34:32.000Z</time>
      </trkpt>
      <trkpt lat="47.47914" lon="6.68281">
        <ele>373</ele>
        <time>2016-09-25T08:34:33.000Z</time>
      </trkpt>
      <trkpt lat="47.47914" lon="6.68277">
        <ele>373</ele>
        <time>2016-09-25T08:34:35.000Z</time>
      </trkpt>
      <trkpt lat="47.47913" lon="6.68275">
        <ele>374</ele>
        <time>2016-09-25T08:34:36.000Z</time>
      </trkpt>
      <trkpt lat="47.47913" lon="6.6827">
        <ele>374</ele>
        <time>2016-09-25T08:34:38.000Z</time>
      </trkpt>
      <trkpt lat="47.47913" lon="6.68268">
        <ele>374</ele>
        <time>2016-09-25T08:34:39.000Z</time>
      </trkpt>
      <trkpt lat="47.47912" lon="6.68262">
        <ele>374</ele>
        <time>2016-09-25T08:34:42.000Z</time>
      </trkpt>
      <trkpt lat="47.47912" lon="6.68261">
        <ele>374</ele>
        <time>2016-09-25T08:34:43.000Z</time>
      </trkpt>
      <trkpt lat="47.47913" lon="6.68255">
        <ele>375</ele>
        <time>2016-09-25T08:34:48.000Z</time>
      </trkpt>
      <trkpt lat="47.47913" lon="6.68253">
        <ele>375</ele>
        <time>2016-09-25T08:34:49.000Z</time>
      </trkpt>
      <trkpt lat="47.47914" lon="6.68248">
        <ele>377</ele>
        <time>2016-09-25T08:34:52.000Z</time>
      </trkpt>
      <trkpt lat="47.47914" lon="6.68246">
        <ele>377</ele>
        <time>2016-09-25T08:34:53.000Z</time>
      </trkpt>
      <trkpt lat="47.47915" lon="6.68241">
        <ele>379</ele>
        <time>2016-09-25T08:34:56.000Z</time>
      </trkpt>
      <trkpt lat="47.47916" lon="6.68239">
        <ele>379</ele>
        <time>2016-09-25T08:34:57.000Z</time>
      </trkpt>
      <trkpt lat="47.47917" lon="6.68233">
        <ele>379</ele>
        <time>2016-09-25T08:35:02.000Z</time>
      </trkpt>
      <trkpt lat="47.47917" lon="6.68232">
        <ele>379</ele>
        <time>2016-09-25T08:35:03.000Z</time>
      </trkpt>
      <trkpt lat="47.47918" lon="6.68227">
        <ele>380</ele>
        <time>2016-09-25T08:35:06.000Z</time>
      </trkpt>
      <trkpt lat="47.47918" lon="6.68225">
        <ele>380</ele>
        <time>2016-09-25T08:35:07.000Z</time>
      </trkpt>
      <trkpt lat="47.47918" lon="6.68221">
        <ele>381</ele>
        <time>2016-09-25T08:35:09.000Z</time>
      </trkpt>
      <trkpt lat="47.47918" lon="6.68218">
        <ele>381</ele>
        <time>2016-09-25T08:35:10.000Z</time>
      </trkpt>
      <trkpt lat="47.47918" lon="6.68213">
        <ele>382</ele>
        <time>2016-09-25T08:35:13.000Z</time>
      </trkpt>
      <trkpt lat="47.47918" lon="6.68211">
        <ele>382</ele>
        <time>2016-09-25T08:35:14.000Z</time>
      </trkpt>
      <trkpt lat="47.47919" lon="6.68206">
        <ele>383</ele>
        <time>2016-09-25T08:35:17.000Z</time>
      </trkpt>
      <trkpt lat="47.4792" lon="6.68204">
        <ele>383</ele>
        <time>2016-09-25T08:35:18.000Z</time>
      </trkpt>
      <trkpt lat="47.47921" lon="6.68198">
        <ele>384</ele>
        <time>2016-09-25T08:35:22.000Z</time>
      </trkpt>
      <trkpt lat="47.47921" lon="6.68196">
        <ele>384</ele>
        <time>2016-09-25T08:35:23.000Z</time>
      </trkpt>
      <trkpt lat="47.47923" lon="6.68191">
        <ele>385</ele>
        <time>2016-09-25T08:35:28.000Z</time>
      </trkpt>
      <trkpt lat="47.47923" lon="6.6819">
        <ele>385</ele>
        <time>2016-09-25T08:35:29.000Z</time>
      </trkpt>
      <trkpt lat="47.47922" lon="6.68184">
        <ele>386</ele>
        <time>2016-09-25T08:35:35.000Z</time>
      </trkpt>
      <trkpt lat="47.47923" lon="6.68182">
        <ele>386</ele>
        <time>2016-09-25T08:35:36.000Z</time>
      </trkpt>
      <trkpt lat="47.47924" lon="6.68177">
        <ele>387</ele>
        <time>2016-09-25T08:35:38.000Z</time>
      </trkpt>
      <trkpt lat="47.47924" lon="6.68175">
        <ele>387</ele>
        <time>2016-09-25T08:35:39.000Z</time>
      </trkpt>
      <trkpt lat="47.47924" lon="6.6817">
        <ele>387</ele>
        <time>2016-09-25T08:35:41.000Z</time>
      </trkpt>
      <trkpt lat="47.47925" lon="6.68167">
        <ele>390</ele>
        <time>2016-09-25T08:35:42.000Z</time>
      </trkpt>
      <trkpt lat="47.47925" lon="6.68161">
        <ele>390</ele>
        <time>2016-09-25T08:35:44.000Z</time>
      </trkpt>
      <trkpt lat="47.47925" lon="6.68159">
        <ele>390</ele>
        <time>2016-09-25T08:35:45.000Z</time>
      </trkpt>
      <trkpt lat="47.47926" lon="6.68153">
        <ele>390</ele>
        <time>2016-09-25T08:35:47.000Z</time>
      </trkpt>
      <trkpt lat="47.47927" lon="6.6815">
        <ele>390</ele>
        <time>2016-09-25T08:35:48.000Z</time>
      </trkpt>
      <trkpt lat="47.47927" lon="6.68144">
        <ele>391</ele>
        <time>2016-09-25T08:35:50.000Z</time>
      </trkpt>
      <trkpt lat="47.47928" lon="6.68142">
        <ele>391</ele>
        <time>2016-09-25T08:35:51.000Z</time>
      </trkpt>
      <trkpt lat="47.47928" lon="6.68135">
        <ele>391</ele>
        <time>2016-09-25T08:35:55.000Z</time>
      </trkpt>
      <trkpt lat="47.47928" lon="6.68135">
        <ele>391</ele>
        <time>2016-09-25T08:35:56.000Z</time>
      </trkpt>
      <trkpt lat="47.47928" lon="6.6813">
        <ele>391</ele>
        <time>2016-09-25T08:35:58.000Z</time>
      </trkpt>
      <trkpt lat="47.47927" lon="6.68127">
        <ele>392</ele>
        <time>2016-09-25T08:35:59.000Z</time>
      </trkpt>
      <trkpt lat="47.47926" lon="6.68124">
        <ele>392</ele>
        <time>2016-09-25T08:36:00.000Z</time>
      </trkpt>
      <trkpt lat="47.47926" lon="6.6812">
        <ele>392</ele>
        <time>2016-09-25T08:36:01.000Z</time>
      </trkpt>
      <trkpt lat="47.47925" lon="6.68116">
        <ele>392</ele>
        <time>2016-09-25T08:36:02.000Z</time>
      </trkpt>
      <trkpt lat="47.47925" lon="6.68111">
        <ele>392</ele>
        <time>2016-09-25T08:36:03.000Z</time>
      </trkpt>
      <trkpt lat="47.47925" lon="6.68107">
        <ele>393</ele>
        <time>2016-09-25T08:36:04.000Z</time>
      </trkpt>
      <trkpt lat="47.47924" lon="6.68103">
        <ele>393</ele>
        <time>2016-09-25T08:36:05.000Z</time>
      </trkpt>
      <trkpt lat="47.47924" lon="6.68097">
        <ele>393</ele>
        <time>2016-09-25T08:36:07.000Z</time>
      </trkpt>
      <trkpt lat="47.47924" lon="6.68094">
        <ele>394</ele>
        <time>2016-09-25T08:36:08.000Z</time>
      </trkpt>
      <trkpt lat="47.47923" lon="6.68089">
        <ele>394</ele>
        <time>2016-09-25T08:36:10.000Z</time>
      </trkpt>
      <trkpt lat="47.47923" lon="6.68087">
        <ele>394</ele>
        <time>2016-09-25T08:36:11.000Z</time>
      </trkpt>
      <trkpt lat="47.47923" lon="6.68082">
        <ele>395</ele>
        <time>2016-09-25T08:36:14.000Z</time>
      </trkpt>
      <trkpt lat="47.47923" lon="6.68079">
        <ele>395</ele>
        <time>2016-09-25T08:36:15.000Z</time>
      </trkpt>
      <trkpt lat="47.47922" lon="6.68074">
        <ele>395</ele>
        <time>2016-09-25T08:36:17.000Z</time>
      </trkpt>
      <trkpt lat="47.47921" lon="6.68072">
        <ele>395</ele>
        <time>2016-09-25T08:36:18.000Z</time>
      </trkpt>
      <trkpt lat="47.47921" lon="6.68066">
        <ele>395</ele>
        <time>2016-09-25T08:36:21.000Z</time>
      </trkpt>
      <trkpt lat="47.47921" lon="6.68063">
        <ele>395</ele>
        <time>2016-09-25T08:36:22.000Z</time>
      </trkpt>
      <trkpt lat="47.4792" lon="6.68057">
        <ele>395</ele>
        <time>2016-09-25T08:36:25.000Z</time>
      </trkpt>
      <trkpt lat="47.4792" lon="6.68055">
        <ele>395</ele>
        <time>2016-09-25T08:36:26.000Z</time>
      </trkpt>
      <trkpt lat="47.47917" lon="6.68051">
        <ele>401</ele>
        <time>2016-09-25T08:36:29.000Z</time>
      </trkpt>
      <trkpt lat="47.47916" lon="6.68049">
        <ele>401</ele>
        <time>2016-09-25T08:36:30.000Z</time>
      </trkpt>
      <trkpt lat="47.47915" lon="6.68043">
        <ele>401</ele>
        <time>2016-09-25T08:36:35.000Z</time>
      </trkpt>
      <trkpt lat="47.47915" lon="6.68042">
        <ele>401</ele>
        <time>2016-09-25T08:36:36.000Z</time>
      </trkpt>
      <trkpt lat="47.47913" lon="6.68037">
        <ele>401</ele>
        <time>2016-09-25T08:36:40.000Z</time>
      </trkpt>
      <trkpt lat="47.47911" lon="6.68035">
        <ele>401</ele>
        <time>2016-09-25T08:36:41.000Z</time>
      </trkpt>
      <trkpt lat="47.47909" lon="6.68031">
        <ele>401</ele>
        <time>2016-09-25T08:36:43.000Z</time>
      </trkpt>
      <trkpt lat="47.47908" lon="6.6803">
        <ele>401</ele>
        <time>2016-09-25T08:36:44.000Z</time>
      </trkpt>
      <trkpt lat="47.47907" lon="6.68026">
        <ele>401</ele>
        <time>2016-09-25T08:36:48.000Z</time>
      </trkpt>
      <trkpt lat="47.47906" lon="6.68024">
        <ele>401</ele>
        <time>2016-09-25T08:36:49.000Z</time>
      </trkpt>
      <trkpt lat="47.47903" lon="6.6802">
        <ele>401</ele>
        <time>2016-09-25T08:36:53.000Z</time>
      </trkpt>
      <trkpt lat="47.47902" lon="6.6802">
        <ele>401</ele>
        <time>2016-09-25T08:36:54.000Z</time>
      </trkpt>
      <trkpt lat="47.47899" lon="6.68017">
        <ele>401</ele>
        <time>2016-09-25T08:36:58.000Z</time>
      </trkpt>
      <trkpt lat="47.47898" lon="6.68016">
        <ele>401</ele>
        <time>2016-09-25T08:36:59.000Z</time>
      </trkpt>
      <trkpt lat="47.47895" lon="6.68013">
        <ele>402</ele>
        <time>2016-09-25T08:37:03.000Z</time>
      </trkpt>
      <trkpt lat="47.47894" lon="6.68012">
        <ele>402</ele>
        <time>2016-09-25T08:37:04.000Z</time>
      </trkpt>
      <trkpt lat="47.4789" lon="6.68008">
        <ele>402</ele>
        <time>2016-09-25T08:37:08.000Z</time>
      </trkpt>
      <trkpt lat="47.47889" lon="6.68007">
        <ele>403</ele>
        <time>2016-09-25T08:37:09.000Z</time>
      </trkpt>
      <trkpt lat="47.47885" lon="6.68005">
        <ele>403</ele>
        <time>2016-09-25T08:37:12.000Z</time>
      </trkpt>
      <trkpt lat="47.47884" lon="6.68004">
        <ele>404</ele>
        <time>2016-09-25T08:37:13.000Z</time>
      </trkpt>
      <trkpt lat="47.47883" lon="6.67998">
        <ele>406</ele>
        <time>2016-09-25T08:37:19.000Z</time>
      </trkpt>
      <trkpt lat="47.47882" lon="6.67997">
        <ele>406</ele>
        <time>2016-09-25T08:37:20.000Z</time>
      </trkpt>
      <trkpt lat="47.47879" lon="6.67993">
        <ele>407</ele>
        <time>2016-09-25T08:37:25.000Z</time>
      </trkpt>
      <trkpt lat="47.47878" lon="6.67992">
        <ele>407</ele>
        <time>2016-09-25T08:37:26.000Z</time>
      </trkpt>
      <trkpt lat="47.47875" lon="6.67989">
        <ele>408</ele>
        <time>2016-09-25T08:37:33.000Z</time>
      </trkpt>
      <trkpt lat="47.47874" lon="6.67989">
        <ele>408</ele>
        <time>2016-09-25T08:37:34.000Z</time>
      </trkpt>
      <trkpt lat="47.47875" lon="6.67983">
        <ele>408</ele>
        <time>2016-09-25T08:37:39.000Z</time>
      </trkpt>
      <trkpt lat="47.47875" lon="6.67982">
        <ele>408</ele>
        <time>2016-09-25T08:37:40.000Z</time>
      </trkpt>
      <trkpt lat="47.47872" lon="6.67977">
        <ele>409</ele>
        <time>2016-09-25T08:37:44.000Z</time>
      </trkpt>
      <trkpt lat="47.47871" lon="6.67976">
        <ele>409</ele>
        <time>2016-09-25T08:37:45.000Z</time>
      </trkpt>
      <trkpt lat="47.47869" lon="6.67971">
        <ele>410</ele>
        <time>2016-09-25T08:37:49.000Z</time>
      </trkpt>
      <trkpt lat="47.47869" lon="6.67969">
        <ele>410</ele>
        <time>2016-09-25T08:37:50.000Z</time>
      </trkpt>
      <trkpt lat="47.47867" lon="6.67963">
        <ele>410</ele>
        <time>2016-09-25T08:37:53.000Z</time>
      </trkpt>
      <trkpt lat="47.47867" lon="6.67962">
        <ele>410</ele>
        <time>2016-09-25T08:37:54.000Z</time>
      </trkpt>
      <trkpt lat="47.47864" lon="6.67958">
        <ele>411</ele>
        <time>2016-09-25T08:37:56.000Z</time>
      </trkpt>
      <trkpt lat="47.47863" lon="6.67956">
        <ele>411</ele>
        <time>2016-09-25T08:37:57.000Z</time>
      </trkpt>
      <trkpt lat="47.4786" lon="6.67952">
        <ele>412</ele>
        <time>2016-09-25T08:38:02.000Z</time>
      </trkpt>
      <trkpt lat="47.4786" lon="6.67951">
        <ele>412</ele>
        <time>2016-09-25T08:38:03.000Z</time>
      </trkpt>
      <trkpt lat="47.47857" lon="6.67946">
        <ele>412</ele>
        <time>2016-09-25T08:38:08.000Z</time>
      </trkpt>
      <trkpt lat="47.47856" lon="6.67945">
        <ele>413</ele>
        <time>2016-09-25T08:38:09.000Z</time>
      </trkpt>
      <trkpt lat="47.47854" lon="6.67941">
        <ele>413</ele>
        <time>2016-09-25T08:38:12.000Z</time>
      </trkpt>
      <trkpt lat="47.47854" lon="6.67939">
        <ele>414</ele>
        <time>2016-09-25T08:38:13.000Z</time>
      </trkpt>
      <trkpt lat="47.47852" lon="6.67933">
        <ele>415</ele>
        <time>2016-09-25T08:38:23.000Z</time>
      </trkpt>
      <trkpt lat="47.47852" lon="6.67933">
        <ele>415</ele>
        <time>2016-09-25T08:38:24.000Z</time>
      </trkpt>
      <trkpt lat="47.47851" lon="6.67927">
        <ele>416</ele>
        <time>2016-09-25T08:38:27.000Z</time>
      </trkpt>
      <trkpt lat="47.4785" lon="6.67925">
        <ele>416</ele>
        <time>2016-09-25T08:38:28.000Z</time>
      </trkpt>
      <trkpt lat="47.47847" lon="6.6792">
        <ele>418</ele>
        <time>2016-09-25T08:38:30.000Z</time>
      </trkpt>
      <trkpt lat="47.47847" lon="6.67919">
        <ele>418</ele>
        <time>2016-09-25T08:38:31.000Z</time>
      </trkpt>
      <trkpt lat="47.47843" lon="6.67915">
        <ele>422</ele>
        <time>2016-09-25T08:38:37.000Z</time>
      </trkpt>
      <trkpt lat="47.47842" lon="6.67914">
        <ele>423</ele>
        <time>2016-09-25T08:38:38.000Z</time>
      </trkpt>
      <trkpt lat="47.4784" lon="6.6791">
        <ele>422</ele>
        <time>2016-09-25T08:38:43.000Z</time>
      </trkpt>
      <trkpt lat="47.4784" lon="6.67907">
        <ele>422</ele>
        <time>2016-09-25T08:38:44.000Z</time>
      </trkpt>
      <trkpt lat="47.47838" lon="6.67901">
        <ele>422</ele>
        <time>2016-09-25T08:38:46.000Z</time>
      </trkpt>
      <trkpt lat="47.47838" lon="6.67898">
        <ele>422</ele>
        <time>2016-09-25T08:38:47.000Z</time>
      </trkpt>
      <trkpt lat="47.47837" lon="6.67892">
        <ele>421</ele>
        <time>2016-09-25T08:38:49.000Z</time>
      </trkpt>
      <trkpt lat="47.47837" lon="6.67889">
        <ele>421</ele>
        <time>2016-09-25T08:38:50.000Z</time>
      </trkpt>
      <trkpt lat="47.47835" lon="6.67883">
        <ele>421</ele>
        <time>2016-09-25T08:39:00.000Z</time>
      </trkpt>
      <trkpt lat="47.47835" lon="6.67883">
        <ele>421</ele>
        <time>2016-09-25T08:39:01.000Z</time>
      </trkpt>
      <trkpt lat="47.47834" lon="6.67876">
        <ele>422</ele>
        <time>2016-09-25T08:39:12.000Z</time>
      </trkpt>
      <trkpt lat="47.47834" lon="6.67875">
        <ele>422</ele>
        <time>2016-09-25T08:39:13.000Z</time>
      </trkpt>
      <trkpt lat="47.47831" lon="6.67871">
        <ele>434</ele>
        <time>2016-09-25T08:39:15.000Z</time>
      </trkpt>
      <trkpt lat="47.4783" lon="6.6787">
        <ele>434</ele>
        <time>2016-09-25T08:39:16.000Z</time>
      </trkpt>
      <trkpt lat="47.47826" lon="6.6787">
        <ele>434</ele>
        <time>2016-09-25T08:39:34.000Z</time>
      </trkpt>
      <trkpt lat="47.47826" lon="6.6787">
        <ele>434</ele>
        <time>2016-09-25T08:39:35.000Z</time>
      </trkpt>
      <trkpt lat="47.47823" lon="6.67865">
        <ele>435</ele>
        <time>2016-09-25T08:39:39.000Z</time>
      </trkpt>
      <trkpt lat="47.47823" lon="6.67864">
        <ele>435</ele>
        <time>2016-09-25T08:39:40.000Z</time>
      </trkpt>
      <trkpt lat="47.47823" lon="6.67858">
        <ele>435</ele>
        <time>2016-09-25T08:40:03.000Z</time>
      </trkpt>
      <trkpt lat="47.47823" lon="6.67857">
        <ele>435</ele>
        <time>2016-09-25T08:40:04.000Z</time>
      </trkpt>
      <trkpt lat="47.47823" lon="6.67853">
        <ele>435</ele>
        <time>2016-09-25T08:40:13.000Z</time>
      </trkpt>
      <trkpt lat="47.47822" lon="6.67851">
        <ele>435</ele>
        <time>2016-09-25T08:40:14.000Z</time>
      </trkpt>
      <trkpt lat="47.47822" lon="6.67845">
        <ele>436</ele>
        <time>2016-09-25T08:40:16.000Z</time>
      </trkpt>
      <trkpt lat="47.47821" lon="6.67842">
        <ele>436</ele>
        <time>2016-09-25T08:40:17.000Z</time>
      </trkpt>
      <trkpt lat="47.47821" lon="6.67836">
        <ele>436</ele>
        <time>2016-09-25T08:40:20.000Z</time>
      </trkpt>
      <trkpt lat="47.47821" lon="6.67835">
        <ele>436</ele>
        <time>2016-09-25T08:40:21.000Z</time>
      </trkpt>
      <trkpt lat="47.47821" lon="6.67829">
        <ele>438</ele>
        <time>2016-09-25T08:40:25.000Z</time>
      </trkpt>
      <trkpt lat="47.47821" lon="6.67827">
        <ele>438</ele>
        <time>2016-09-25T08:40:26.000Z</time>
      </trkpt>
      <trkpt lat="47.47821" lon="6.67821">
        <ele>439</ele>
        <time>2016-09-25T08:40:31.000Z</time>
      </trkpt>
      <trkpt lat="47.47821" lon="6.6782">
        <ele>439</ele>
        <time>2016-09-25T08:40:32.000Z</time>
      </trkpt>
      <trkpt lat="47.47822" lon="6.67813">
        <ele>439</ele>
        <time>2016-09-25T08:40:37.000Z</time>
      </trkpt>
      <trkpt lat="47.47822" lon="6.67812">
        <ele>440</ele>
        <time>2016-09-25T08:40:38.000Z</time>
      </trkpt>
      <trkpt lat="47.47823" lon="6.67806">
        <ele>440</ele>
        <time>2016-09-25T08:40:42.000Z</time>
      </trkpt>
      <trkpt lat="47.47823" lon="6.67804">
        <ele>440</ele>
        <time>2016-09-25T08:40:43.000Z</time>
      </trkpt>
      <trkpt lat="47.47823" lon="6.67798">
        <ele>441</ele>
        <time>2016-09-25T08:40:46.000Z</time>
      </trkpt>
      <trkpt lat="47.47823" lon="6.67796">
        <ele>441</ele>
        <time>2016-09-25T08:40:47.000Z</time>
      </trkpt>
      <trkpt lat="47.47822" lon="6.67789">
        <ele>441</ele>
        <time>2016-09-25T08:41:43.000Z</time>
      </trkpt>
      <trkpt lat="47.47822" lon="6.67789">
        <ele>441</ele>
        <time>2016-09-25T08:41:44.000Z</time>
      </trkpt>
      <trkpt lat="47.47822" lon="6.67783">
        <ele>441</ele>
        <time>2016-09-25T08:42:10.000Z</time>
      </trkpt>
      <trkpt lat="47.47822" lon="6.67782">
        <ele>441</ele>
        <time>2016-09-25T08:42:11.000Z</time>
      </trkpt>
      <trkpt lat="47.47819" lon="6.67778">
        <ele>441</ele>
        <time>2016-09-25T08:42:30.000Z</time>
      </trkpt>
      <trkpt lat="47.47818" lon="6.67778">
        <ele>441</ele>
        <time>2016-09-25T08:42:31.000Z</time>
      </trkpt>
      <trkpt lat="47.47816" lon="6.67772">
        <ele>442</ele>
        <time>2016-09-25T08:43:00.000Z</time>
      </trkpt>
      <trkpt lat="47.47816" lon="6.67769">
        <ele>442</ele>
        <time>2016-09-25T08:43:01.000Z</time>
      </trkpt>
      <trkpt lat="47.47819" lon="6.67764">
        <ele>442</ele>
        <time>2016-09-25T08:43:04.000Z</time>
      </trkpt>
      <trkpt lat="47.4782" lon="6.67762">
        <ele>442</ele>
        <time>2016-09-25T08:43:05.000Z</time>
      </trkpt>
      <trkpt lat="47.47823" lon="6.67759">
        <ele>442</ele>
        <time>2016-09-25T08:43:07.000Z</time>
      </trkpt>
      <trkpt lat="47.47824" lon="6.67758">
        <ele>441</ele>
        <time>2016-09-25T08:43:08.000Z</time>
      </trkpt>
      <trkpt lat="47.47825" lon="6.67754">
        <ele>441</ele>
        <time>2016-09-25T08:43:11.000Z</time>
      </trkpt>
      <trkpt lat="47.47824" lon="6.67751">
        <ele>441</ele>
        <time>2016-09-25T08:43:12.000Z</time>
      </trkpt>
      <trkpt lat="47.47824" lon="6.67747">
        <ele>442</ele>
        <time>2016-09-25T08:43:13.000Z</time>
      </trkpt>
      <trkpt lat="47.47824" lon="6.67743">
        <ele>442</ele>
        <time>2016-09-25T08:43:14.000Z</time>
      </trkpt>
      <trkpt lat="47.47824" lon="6.6774">
        <ele>443</ele>
        <time>2016-09-25T08:43:15.000Z</time>
      </trkpt>
      <trkpt lat="47.47825" lon="6.67736">
        <ele>443</ele>
        <time>2016-09-25T08:43:16.000Z</time>
      </trkpt>
      <trkpt lat="47.47826" lon="6.67732">
        <ele>443</ele>
        <time>2016-09-25T08:43:17.000Z</time>
      </trkpt>
      <trkpt lat="47.47827" lon="6.67729">
        <ele>443</ele>
        <time>2016-09-25T08:43:18.000Z</time>
      </trkpt>
      <trkpt lat="47.47829" lon="6.67723">
        <ele>443</ele>
        <time>2016-09-25T08:43:20.000Z</time>
      </trkpt>
      <trkpt lat="47.47829" lon="6.67721">
        <ele>443</ele>
        <time>2016-09-25T08:43:21.000Z</time>
      </trkpt>
      <trkpt lat="47.47828" lon="6.67718">
        <ele>443</ele>
        <time>2016-09-25T08:43:22.000Z</time>
      </trkpt>
      <trkpt lat="47.47826" lon="6.67714">
        <ele>444</ele>
        <time>2016-09-25T08:43:23.000Z</time>
      </trkpt>
      <trkpt lat="47.47826" lon="6.6771">
        <ele>444</ele>
        <time>2016-09-25T08:43:24.000Z</time>
      </trkpt>
      <trkpt lat="47.47826" lon="6.67706">
        <ele>444</ele>
        <time>2016-09-25T08:43:25.000Z</time>
      </trkpt>
      <trkpt lat="47.47827" lon="6.67702">
        <ele>444</ele>
        <time>2016-09-25T08:43:26.000Z</time>
      </trkpt>
      <trkpt lat="47.47828" lon="6.67699">
        <ele>443</ele>
        <time>2016-09-25T08:43:27.000Z</time>
      </trkpt>
      <trkpt lat="47.47829" lon="6.67696">
        <ele>443</ele>
        <time>2016-09-25T08:43:28.000Z</time>
      </trkpt>
      <trkpt lat="47.4783" lon="6.67693">
        <ele>443</ele>
        <time>2016-09-25T08:43:29.000Z</time>
      </trkpt>
      <trkpt lat="47.47831" lon="6.67687">
        <ele>443</ele>
        <time>2016-09-25T08:43:31.000Z</time>
      </trkpt>
      <trkpt lat="47.47832" lon="6.67683">
        <ele>443</ele>
        <time>2016-09-25T08:43:32.000Z</time>
      </trkpt>
      <trkpt lat="47.47834" lon="6.67679">
        <ele>437</ele>
        <time>2016-09-25T08:43:33.000Z</time>
      </trkpt>
      <trkpt lat="47.47836" lon="6.67674">
        <ele>438</ele>
        <time>2016-09-25T08:43:34.000Z</time>
      </trkpt>
      <trkpt lat="47.47837" lon="6.67669">
        <ele>439</ele>
        <time>2016-09-25T08:43:35.000Z</time>
      </trkpt>
      <trkpt lat="47.47837" lon="6.67665">
        <ele>440</ele>
        <time>2016-09-25T08:43:36.000Z</time>
      </trkpt>
      <trkpt lat="47.47838" lon="6.67661">
        <ele>439</ele>
        <time>2016-09-25T08:43:37.000Z</time>
      </trkpt>
      <trkpt lat="47.47838" lon="6.67657">
        <ele>439</ele>
        <time>2016-09-25T08:43:38.000Z</time>
      </trkpt>
      <trkpt lat="47.47839" lon="6.67654">
        <ele>438</ele>
        <time>2016-09-25T08:43:39.000Z</time>
      </trkpt>
      <trkpt lat="47.47839" lon="6.6765">
        <ele>438</ele>
        <time>2016-09-25T08:43:40.000Z</time>
      </trkpt>
      <trkpt lat="47.47839" lon="6.67644">
        <ele>437</ele>
        <time>2016-09-25T08:43:42.000Z</time>
      </trkpt>
      <trkpt lat="47.47839" lon="6.6764">
        <ele>437</ele>
        <time>2016-09-25T08:43:43.000Z</time>
      </trkpt>
      <trkpt lat="47.47838" lon="6.67634">
        <ele>437</ele>
        <time>2016-09-25T08:43:45.000Z</time>
      </trkpt>
      <trkpt lat="47.47839" lon="6.67631">
        <ele>437</ele>
        <time>2016-09-25T08:43:46.000Z</time>
      </trkpt>
      <trkpt lat="47.47841" lon="6.67627">
        <ele>437</ele>
        <time>2016-09-25T08:43:48.000Z</time>
      </trkpt>
      <trkpt lat="47.47844" lon="6.67626">
        <ele>437</ele>
        <time>2016-09-25T08:43:49.000Z</time>
      </trkpt>
      <trkpt lat="47.47846" lon="6.67623">
        <ele>437</ele>
        <time>2016-09-25T08:43:50.000Z</time>
      </trkpt>
      <trkpt lat="47.47848" lon="6.67619">
        <ele>437</ele>
        <time>2016-09-25T08:43:51.000Z</time>
      </trkpt>
      <trkpt lat="47.47849" lon="6.67613">
        <ele>437</ele>
        <time>2016-09-25T08:43:52.000Z</time>
      </trkpt>
      <trkpt lat="47.47849" lon="6.67607">
        <ele>437</ele>
        <time>2016-09-25T08:43:53.000Z</time>
      </trkpt>
      <trkpt lat="47.47849" lon="6.67602">
        <ele>438</ele>
        <time>2016-09-25T08:43:54.000Z</time>
      </trkpt>
      <trkpt lat="47.47848" lon="6.67598">
        <ele>438</ele>
        <time>2016-09-25T08:43:55.000Z</time>
      </trkpt>
      <trkpt lat="47.47847" lon="6.67595">
        <ele>439</ele>
        <time>2016-09-25T08:43:56.000Z</time>
      </trkpt>
      <trkpt lat="47.47846" lon="6.6759">
        <ele>440</ele>
        <time>2016-09-25T08:43:57.000Z</time>
      </trkpt>
      <trkpt lat="47.47845" lon="6.67585">
        <ele>440</ele>
        <time>2016-09-25T08:43:58.000Z</time>
      </trkpt>
      <trkpt lat="47.47845" lon="6.67579">
        <ele>442</ele>
        <time>2016-09-25T08:43:59.000Z</time>
      </trkpt>
      <trkpt lat="47.47844" lon="6.67573">
        <ele>441</ele>
        <time>2016-09-25T08:44:00.000Z</time>
      </trkpt>
      <trkpt lat="47.47844" lon="6.67567">
        <ele>441</ele>
        <time>2016-09-25T08:44:01.000Z</time>
      </trkpt>
      <trkpt lat="47.47845" lon="6.67563">
        <ele>441</ele>
        <time>2016-09-25T08:44:02.000Z</time>
      </trkpt>
      <trkpt lat="47.47846" lon="6.67559">
        <ele>441</ele>
        <time>2016-09-25T08:44:03.000Z</time>
      </trkpt>
      <trkpt lat="47.47848" lon="6.67556">
        <ele>440</ele>
        <time>2016-09-25T08:44:04.000Z</time>
      </trkpt>
      <trkpt lat="47.4785" lon="6.67552">
        <ele>440</ele>
        <time>2016-09-25T08:44:05.000Z</time>
      </trkpt>
      <trkpt lat="47.47851" lon="6.67546">
        <ele>440</ele>
        <time>2016-09-25T08:44:06.000Z</time>
      </trkpt>
      <trkpt lat="47.47852" lon="6.6754">
        <ele>440</ele>
        <time>2016-09-25T08:44:07.000Z</time>
      </trkpt>
      <trkpt lat="47.47851" lon="6.67534">
        <ele>440</ele>
        <time>2016-09-25T08:44:08.000Z</time>
      </trkpt>
      <trkpt lat="47.47851" lon="6.67528">
        <ele>441</ele>
        <time>2016-09-25T08:44:09.000Z</time>
      </trkpt>
      <trkpt lat="47.4785" lon="6.67523">
        <ele>441</ele>
        <time>2016-09-25T08:44:10.000Z</time>
      </trkpt>
      <trkpt lat="47.4785" lon="6.67517">
        <ele>442</ele>
        <time>2016-09-25T08:44:11.000Z</time>
      </trkpt>
      <trkpt lat="47.4785" lon="6.67512">
        <ele>442</ele>
        <time>2016-09-25T08:44:12.000Z</time>
      </trkpt>
      <trkpt lat="47.4785" lon="6.67507">
        <ele>442</ele>
        <time>2016-09-25T08:44:13.000Z</time>
      </trkpt>
      <trkpt lat="47.47851" lon="6.67501">
        <ele>442</ele>
        <time>2016-09-25T08:44:14.000Z</time>
      </trkpt>
      <trkpt lat="47.47851" lon="6.67496">
        <ele>444</ele>
        <time>2016-09-25T08:44:15.000Z</time>
      </trkpt>
      <trkpt lat="47.47852" lon="6.67491">
        <ele>444</ele>
        <time>2016-09-25T08:44:16.000Z</time>
      </trkpt>
      <trkpt lat="47.47851" lon="6.67487">
        <ele>444</ele>
        <time>2016-09-25T08:44:17.000Z</time>
      </trkpt>
      <trkpt lat="47.47851" lon="6.67482">
        <ele>444</ele>
        <time>2016-09-25T08:44:18.000Z</time>
      </trkpt>
      <trkpt lat="47.47851" lon="6.67476">
        <ele>443</ele>
        <time>2016-09-25T08:44:19.000Z</time>
      </trkpt>
      <trkpt lat="47.47851" lon="6.6747">
        <ele>443</ele>
        <time>2016-09-25T08:44:20.000Z</time>
      </trkpt>
      <trkpt lat="47.47852" lon="6.67465">
        <ele>443</ele>
        <time>2016-09-25T08:44:21.000Z</time>
      </trkpt>
      <trkpt lat="47.47853" lon="6.6746">
        <ele>443</ele>
        <time>2016-09-25T08:44:22.000Z</time>
      </trkpt>
      <trkpt lat="47.47854" lon="6.67456">
        <ele>443</ele>
        <time>2016-09-25T08:44:23.000Z</time>
      </trkpt>
      <trkpt lat="47.47855" lon="6.67451">
        <ele>443</ele>
        <time>2016-09-25T08:44:24.000Z</time>
      </trkpt>
      <trkpt lat="47.47857" lon="6.67446">
        <ele>443</ele>
        <time>2016-09-25T08:44:25.000Z</time>
      </trkpt>
      <trkpt lat="47.47858" lon="6.67441">
        <ele>443</ele>
        <time>2016-09-25T08:44:26.000Z</time>
      </trkpt>
      <trkpt lat="47.47859" lon="6.67437">
        <ele>443</ele>
        <time>2016-09-25T08:44:27.000Z</time>
      </trkpt>
      <trkpt lat="47.4786" lon="6.67432">
        <ele>443</ele>
        <time>2016-09-25T08:44:28.000Z</time>
      </trkpt>
      <trkpt lat="47.47861" lon="6.67426">
        <ele>443</ele>
        <time>2016-09-25T08:44:29.000Z</time>
      </trkpt>
      <trkpt lat="47.47862" lon="6.6742">
        <ele>443</ele>
        <time>2016-09-25T08:44:30.000Z</time>
      </trkpt>
      <trkpt lat="47.47862" lon="6.67413">
        <ele>444</ele>
        <time>2016-09-25T08:44:31.000Z</time>
      </trkpt>
      <trkpt lat="47.47863" lon="6.67406">
        <ele>444</ele>
        <time>2016-09-25T08:44:32.000Z</time>
      </trkpt>
      <trkpt lat="47.47863" lon="6.67399">
        <ele>444</ele>
        <time>2016-09-25T08:44:33.000Z</time>
      </trkpt>
      <trkpt lat="47.47864" lon="6.67391">
        <ele>443</ele>
        <time>2016-09-25T08:44:34.000Z</time>
      </trkpt>
      <trkpt lat="47.47864" lon="6.67383">
        <ele>443</ele>
        <time>2016-09-25T08:44:35.000Z</time>
      </trkpt>
      <trkpt lat="47.47864" lon="6.67358">
        <ele>443</ele>
        <time>2016-09-25T08:44:36.000Z</time>
      </trkpt>
      <trkpt lat="47.47863" lon="6.67351">
        <ele>443</ele>
        <time>2016-09-25T08:44:37.000Z</time>
      </trkpt>
      <trkpt lat="47.47863" lon="6.67344">
        <ele>443</ele>
        <time>2016-09-25T08:44:38.000Z</time>
      </trkpt>
      <trkpt lat="47.47863" lon="6.67337">
        <ele>443</ele>
        <time>2016-09-25T08:44:39.000Z</time>
      </trkpt>
      <trkpt lat="47.47862" lon="6.67328">
        <ele>443</ele>
        <time>2016-09-25T08:44:40.000Z</time>
      </trkpt>
      <trkpt lat="47.47863" lon="6.6732">
        <ele>443</ele>
        <time>2016-09-25T08:44:41.000Z</time>
      </trkpt>
      <trkpt lat="47.47863" lon="6.67317">
        <ele>443</ele>
        <time>2016-09-25T08:44:42.000Z</time>
      </trkpt>
      <trkpt lat="47.47863" lon="6.67311">
        <ele>443</ele>
        <time>2016-09-25T08:44:43.000Z</time>
      </trkpt>
      <trkpt lat="47.47863" lon="6.67307">
        <ele>443</ele>
        <time>2016-09-25T08:44:44.000Z</time>
      </trkpt>
      <trkpt lat="47.47864" lon="6.67303">
        <ele>443</ele>
        <time>2016-09-25T08:44:45.000Z</time>
      </trkpt>
      <trkpt lat="47.47864" lon="6.67299">
        <ele>443</ele>
        <time>2016-09-25T08:44:46.000Z</time>
      </trkpt>
      <trkpt lat="47.47864" lon="6.67293">
        <ele>443</ele>
        <time>2016-09-25T08:44:47.000Z</time>
      </trkpt>
      <trkpt lat="47.47864" lon="6.67288">
        <ele>443</ele>
        <time>2016-09-25T08:44:48.000Z</time>
      </trkpt>
      <trkpt lat="47.47867" lon="6.67282">
        <ele>443</ele>
        <time>2016-09-25T08:44:49.000Z</time>
      </trkpt>
      <trkpt lat="47.47868" lon="6.67277">
        <ele>443</ele>
        <time>2016-09-25T08:44:50.000Z</time>
      </trkpt>
      <trkpt lat="47.47869" lon="6.67272">
        <ele>443</ele>
        <time>2016-09-25T08:44:51.000Z</time>
      </trkpt>
      <trkpt lat="47.4787" lon="6.67268">
        <ele>443</ele>
        <time>2016-09-25T08:44:52.000Z</time>
      </trkpt>
      <trkpt lat="47.47871" lon="6.67263">
        <ele>443</ele>
        <time>2016-09-25T08:44:53.000Z</time>
      </trkpt>
      <trkpt lat="47.47873" lon="6.67258">
        <ele>443</ele>
        <time>2016-09-25T08:44:54.000Z</time>
      </trkpt>
      <trkpt lat="47.47874" lon="6.67253">
        <ele>443</ele>
        <time>2016-09-25T08:44:55.000Z</time>
      </trkpt>
      <trkpt lat="47.47875" lon="6.67247">
        <ele>444</ele>
        <time>2016-09-25T08:44:56.000Z</time>
      </trkpt>
      <trkpt lat="47.47876" lon="6.67243">
        <ele>444</ele>
        <time>2016-09-25T08:44:57.000Z</time>
      </trkpt>
      <trkpt lat="47.47876" lon="6.67238">
        <ele>444</ele>
        <time>2016-09-25T08:44:58.000Z</time>
      </trkpt>
      <trkpt lat="47.47877" lon="6.67234">
        <ele>444</ele>
        <time>2016-09-25T08:44:59.000Z</time>
      </trkpt>
      <trkpt lat="47.47878" lon="6.67229">
        <ele>444</ele>
        <time>2016-09-25T08:45:00.000Z</time>
      </trkpt>
      <trkpt lat="47.47879" lon="6.67224">
        <ele>444</ele>
        <time>2016-09-25T08:45:01.000Z</time>
      </trkpt>
      <trkpt lat="47.47879" lon="6.67219">
        <ele>444</ele>
        <time>2016-09-25T08:45:02.000Z</time>
      </trkpt>
      <trkpt lat="47.4788" lon="6.67214">
        <ele>444</ele>
        <time>2016-09-25T08:45:03.000Z</time>
      </trkpt>
      <trkpt lat="47.47881" lon="6.67208">
        <ele>444</ele>
        <time>2016-09-25T08:45:04.000Z</time>
      </trkpt>
      <trkpt lat="47.47882" lon="6.67202">
        <ele>444</ele>
        <time>2016-09-25T08:45:05.000Z</time>
      </trkpt>
      <trkpt lat="47.47882" lon="6.67196">
        <ele>444</ele>
        <time>2016-09-25T08:45:06.000Z</time>
      </trkpt>
      <trkpt lat="47.47884" lon="6.6719">
        <ele>444</ele>
        <time>2016-09-25T08:45:07.000Z</time>
      </trkpt>
      <trkpt lat="47.47885" lon="6.67184">
        <ele>444</ele>
        <time>2016-09-25T08:45:08.000Z</time>
      </trkpt>
      <trkpt lat="47.47887" lon="6.67178">
        <ele>445</ele>
        <time>2016-09-25T08:45:09.000Z</time>
      </trkpt>
      <trkpt lat="47.47889" lon="6.67171">
        <ele>445</ele>
        <time>2016-09-25T08:45:10.000Z</time>
      </trkpt>
      <trkpt lat="47.47892" lon="6.67164">
        <ele>446</ele>
        <time>2016-09-25T08:45:11.000Z</time>
      </trkpt>
      <trkpt lat="47.47894" lon="6.67157">
        <ele>446</ele>
        <time>2016-09-25T08:45:12.000Z</time>
      </trkpt>
      <trkpt lat="47.47897" lon="6.67149">
        <ele>447</ele>
        <time>2016-09-25T08:45:13.000Z</time>
      </trkpt>
      <trkpt lat="47.47899" lon="6.67141">
        <ele>447</ele>
        <time>2016-09-25T08:45:14.000Z</time>
      </trkpt>
      <trkpt lat="47.479" lon="6.67133">
        <ele>447</ele>
        <time>2016-09-25T08:45:15.000Z</time>
      </trkpt>
      <trkpt lat="47.47902" lon="6.67126">
        <ele>447</ele>
        <time>2016-09-25T08:45:16.000Z</time>
      </trkpt>
      <trkpt lat="47.47903" lon="6.67118">
        <ele>447</ele>
        <time>2016-09-25T08:45:17.000Z</time>
      </trkpt>
      <trkpt lat="47.47905" lon="6.6711">
        <ele>448</ele>
        <time>2016-09-25T08:45:18.000Z</time>
      </trkpt>
      <trkpt lat="47.47907" lon="6.67102">
        <ele>448</ele>
        <time>2016-09-25T08:45:19.000Z</time>
      </trkpt>
      <trkpt lat="47.4791" lon="6.67093">
        <ele>449</ele>
        <time>2016-09-25T08:45:20.000Z</time>
      </trkpt>
      <trkpt lat="47.47915" lon="6.67058">
        <ele>451</ele>
        <time>2016-09-25T08:45:21.000Z</time>
      </trkpt>
      <trkpt lat="47.4792" lon="6.67039">
        <ele>447</ele>
        <time>2016-09-25T08:45:22.000Z</time>
      </trkpt>
      <trkpt lat="47.47922" lon="6.67022">
        <ele>448</ele>
        <time>2016-09-25T08:45:23.000Z</time>
      </trkpt>
      <trkpt lat="47.47924" lon="6.67008">
        <ele>451</ele>
        <time>2016-09-25T08:45:24.000Z</time>
      </trkpt>
      <trkpt lat="47.47926" lon="6.67001">
        <ele>451</ele>
        <time>2016-09-25T08:45:25.000Z</time>
      </trkpt>
      <trkpt lat="47.47926" lon="6.66994">
        <ele>450</ele>
        <time>2016-09-25T08:45:26.000Z</time>
      </trkpt>
      <trkpt lat="47.47925" lon="6.66989">
        <ele>450</ele>
        <time>2016-09-25T08:45:27.000Z</time>
      </trkpt>
      <trkpt lat="47.47925" lon="6.66983">
        <ele>449</ele>
        <time>2016-09-25T08:45:28.000Z</time>
      </trkpt>
      <trkpt lat="47.47924" lon="6.66978">
        <ele>448</ele>
        <time>2016-09-25T08:45:29.000Z</time>
      </trkpt>
      <trkpt lat="47.47926" lon="6.66968">
        <ele>447</ele>
        <time>2016-09-25T08:45:30.000Z</time>
      </trkpt>
      <trkpt lat="47.47928" lon="6.66955">
        <ele>447</ele>
        <time>2016-09-25T08:45:31.000Z</time>
      </trkpt>
      <trkpt lat="47.47926" lon="6.66941">
        <ele>447</ele>
        <time>2016-09-25T08:45:32.000Z</time>
      </trkpt>
      <trkpt lat="47.47928" lon="6.6693">
        <ele>447</ele>
        <time>2016-09-25T08:45:33.000Z</time>
      </trkpt>
      <trkpt lat="47.47931" lon="6.66921">
        <ele>447</ele>
        <time>2016-09-25T08:45:34.000Z</time>
      </trkpt>
      <trkpt lat="47.47934" lon="6.66907">
        <ele>447</ele>
        <time>2016-09-25T08:45:35.000Z</time>
      </trkpt>
      <trkpt lat="47.47935" lon="6.66907">
        <ele>446</ele>
        <time>2016-09-25T08:45:36.000Z</time>
      </trkpt>
      <trkpt lat="47.4794" lon="6.6689">
        <ele>446</ele>
        <time>2016-09-25T08:45:37.000Z</time>
      </trkpt>
      <trkpt lat="47.47941" lon="6.66884">
        <ele>445</ele>
        <time>2016-09-25T08:45:38.000Z</time>
      </trkpt>
      <trkpt lat="47.47942" lon="6.66878">
        <ele>445</ele>
        <time>2016-09-25T08:45:39.000Z</time>
      </trkpt>
      <trkpt lat="47.47939" lon="6.66868">
        <ele>446</ele>
        <time>2016-09-25T08:45:40.000Z</time>
      </trkpt>
      <trkpt lat="47.47938" lon="6.66862">
        <ele>446</ele>
        <time>2016-09-25T08:45:41.000Z</time>
      </trkpt>
      <trkpt lat="47.47937" lon="6.6685">
        <ele>446</ele>
        <time>2016-09-25T08:45:42.000Z</time>
      </trkpt>
      <trkpt lat="47.47938" lon="6.66842">
        <ele>446</ele>
        <time>2016-09-25T08:45:43.000Z</time>
      </trkpt>
      <trkpt lat="47.47938" lon="6.66834">
        <ele>447</ele>
        <time>2016-09-25T08:45:44.000Z</time>
      </trkpt>
      <trkpt lat="47.47939" lon="6.66827">
        <ele>447</ele>
        <time>2016-09-25T08:45:45.000Z</time>
      </trkpt>
      <trkpt lat="47.4794" lon="6.66822">
        <ele>447</ele>
        <time>2016-09-25T08:45:46.000Z</time>
      </trkpt>
      <trkpt lat="47.4794" lon="6.66816">
        <ele>447</ele>
        <time>2016-09-25T08:45:47.000Z</time>
      </trkpt>
      <trkpt lat="47.4794" lon="6.66811">
        <ele>447</ele>
        <time>2016-09-25T08:45:48.000Z</time>
      </trkpt>
      <trkpt lat="47.4794" lon="6.66805">
        <ele>446</ele>
        <time>2016-09-25T08:45:49.000Z</time>
      </trkpt>
      <trkpt lat="47.47939" lon="6.66801">
        <ele>446</ele>
        <time>2016-09-25T08:45:50.000Z</time>
      </trkpt>
      <trkpt lat="47.47938" lon="6.66795">
        <ele>446</ele>
        <time>2016-09-25T08:45:51.000Z</time>
      </trkpt>
      <trkpt lat="47.47937" lon="6.66789">
        <ele>446</ele>
        <time>2016-09-25T08:45:52.000Z</time>
      </trkpt>
      <trkpt lat="47.47936" lon="6.66782">
        <ele>447</ele>
        <time>2016-09-25T08:45:53.000Z</time>
      </trkpt>
      <trkpt lat="47.47935" lon="6.66775">
        <ele>447</ele>
        <time>2016-09-25T08:45:54.000Z</time>
      </trkpt>
      <trkpt lat="47.47935" lon="6.66768">
        <ele>447</ele>
        <time>2016-09-25T08:45:55.000Z</time>
      </trkpt>
      <trkpt lat="47.47934" lon="6.66735">
        <ele>447</ele>
        <time>2016-09-25T08:45:56.000Z</time>
      </trkpt>
      <trkpt lat="47.47934" lon="6.6673">
        <ele>447</ele>
        <time>2016-09-25T08:45:57.000Z</time>
      </trkpt>
      <trkpt lat="47.47935" lon="6.66725">
        <ele>447</ele>
        <time>2016-09-25T08:45:58.000Z</time>
      </trkpt>
      <trkpt lat="47.47936" lon="6.66718">
        <ele>447</ele>
        <time>2016-09-25T08:45:59.000Z</time>
      </trkpt>
      <trkpt lat="47.47936" lon="6.66712">
        <ele>447</ele>
        <time>2016-09-25T08:46:00.000Z</time>
      </trkpt>
      <trkpt lat="47.47936" lon="6.66706">
        <ele>447</ele>
        <time>2016-09-25T08:46:01.000Z</time>
      </trkpt>
      <trkpt lat="47.47936" lon="6.66699">
        <ele>447</ele>
        <time>2016-09-25T08:46:02.000Z</time>
      </trkpt>
      <trkpt lat="47.47935" lon="6.6669">
        <ele>447</ele>
        <time>2016-09-25T08:46:03.000Z</time>
      </trkpt>
      <trkpt lat="47.47935" lon="6.6668">
        <ele>447</ele>
        <time>2016-09-25T08:46:04.000Z</time>
      </trkpt>
      <trkpt lat="47.47936" lon="6.66642">
        <ele>446</ele>
        <time>2016-09-25T08:46:05.000Z</time>
      </trkpt>
      <trkpt lat="47.47938" lon="6.66624">
        <ele>446</ele>
        <time>2016-09-25T08:46:06.000Z</time>
      </trkpt>
      <trkpt lat="47.47937" lon="6.66618">
        <ele>446</ele>
        <time>2016-09-25T08:46:07.000Z</time>
      </trkpt>
      <trkpt lat="47.47937" lon="6.66609">
        <ele>446</ele>
        <time>2016-09-25T08:46:08.000Z</time>
      </trkpt>
      <trkpt lat="47.47937" lon="6.66602">
        <ele>446</ele>
        <time>2016-09-25T08:46:09.000Z</time>
      </trkpt>
      <trkpt lat="47.47938" lon="6.66593">
        <ele>446</ele>
        <time>2016-09-25T08:46:10.000Z</time>
      </trkpt>
      <trkpt lat="47.47936" lon="6.66586">
        <ele>446</ele>
        <time>2016-09-25T08:46:11.000Z</time>
      </trkpt>
      <trkpt lat="47.47933" lon="6.66574">
        <ele>445</ele>
        <time>2016-09-25T08:46:12.000Z</time>
      </trkpt>
      <trkpt lat="47.47932" lon="6.66561">
        <ele>445</ele>
        <time>2016-09-25T08:46:13.000Z</time>
      </trkpt>
      <trkpt lat="47.47932" lon="6.6655">
        <ele>444</ele>
        <time>2016-09-25T08:46:14.000Z</time>
      </trkpt>
      <trkpt lat="47.47932" lon="6.66541">
        <ele>444</ele>
        <time>2016-09-25T08:46:15.000Z</time>
      </trkpt>
      <trkpt lat="47.47931" lon="6.66531">
        <ele>443</ele>
        <time>2016-09-25T08:46:16.000Z</time>
      </trkpt>
      <trkpt lat="47.47932" lon="6.66523">
        <ele>443</ele>
        <time>2016-09-25T08:46:17.000Z</time>
      </trkpt>
      <trkpt lat="47.47933" lon="6.66516">
        <ele>443</ele>
        <time>2016-09-25T08:46:18.000Z</time>
      </trkpt>
      <trkpt lat="47.47931" lon="6.66505">
        <ele>443</ele>
        <time>2016-09-25T08:46:19.000Z</time>
      </trkpt>
      <trkpt lat="47.47932" lon="6.66494">
        <ele>442</ele>
        <time>2016-09-25T08:46:20.000Z</time>
      </trkpt>
      <trkpt lat="47.47933" lon="6.66486">
        <ele>441</ele>
        <time>2016-09-25T08:46:21.000Z</time>
      </trkpt>
      <trkpt lat="47.47935" lon="6.66477">
        <ele>441</ele>
        <time>2016-09-25T08:46:22.000Z</time>
      </trkpt>
      <trkpt lat="47.47935" lon="6.6647">
        <ele>441</ele>
        <time>2016-09-25T08:46:23.000Z</time>
      </trkpt>
      <trkpt lat="47.47936" lon="6.66459">
        <ele>440</ele>
        <time>2016-09-25T08:46:24.000Z</time>
      </trkpt>
      <trkpt lat="47.47936" lon="6.66447">
        <ele>440</ele>
        <time>2016-09-25T08:46:25.000Z</time>
      </trkpt>
      <trkpt lat="47.47937" lon="6.66444">
        <ele>440</ele>
        <time>2016-09-25T08:46:27.000Z</time>
      </trkpt>
      <trkpt lat="47.47937" lon="6.66439">
        <ele>440</ele>
        <time>2016-09-25T08:46:28.000Z</time>
      </trkpt>
      <trkpt lat="47.4794" lon="6.66431">
        <ele>440</ele>
        <time>2016-09-25T08:46:29.000Z</time>
      </trkpt>
      <trkpt lat="47.47941" lon="6.66427">
        <ele>440</ele>
        <time>2016-09-25T08:46:30.000Z</time>
      </trkpt>
      <trkpt lat="47.47942" lon="6.66423">
        <ele>440</ele>
        <time>2016-09-25T08:46:31.000Z</time>
      </trkpt>
      <trkpt lat="47.47944" lon="6.66418">
        <ele>440</ele>
        <time>2016-09-25T08:46:33.000Z</time>
      </trkpt>
      <trkpt lat="47.47945" lon="6.66415">
        <ele>439</ele>
        <time>2016-09-25T08:46:34.000Z</time>
      </trkpt>
      <trkpt lat="47.47945" lon="6.6641">
        <ele>439</ele>
        <time>2016-09-25T08:46:36.000Z</time>
      </trkpt>
      <trkpt lat="47.47945" lon="6.66406">
        <ele>439</ele>
        <time>2016-09-25T08:46:37.000Z</time>
      </trkpt>
      <trkpt lat="47.47946" lon="6.66403">
        <ele>439</ele>
        <time>2016-09-25T08:46:38.000Z</time>
      </trkpt>
      <trkpt lat="47.47948" lon="6.664">
        <ele>439</ele>
        <time>2016-09-25T08:46:39.000Z</time>
      </trkpt>
      <trkpt lat="47.47949" lon="6.66396">
        <ele>439</ele>
        <time>2016-09-25T08:46:40.000Z</time>
      </trkpt>
      <trkpt lat="47.47951" lon="6.66391">
        <ele>439</ele>
        <time>2016-09-25T08:46:41.000Z</time>
      </trkpt>
      <trkpt lat="47.47952" lon="6.66387">
        <ele>439</ele>
        <time>2016-09-25T08:46:42.000Z</time>
      </trkpt>
      <trkpt lat="47.47954" lon="6.66383">
        <ele>439</ele>
        <time>2016-09-25T08:46:43.000Z</time>
      </trkpt>
      <trkpt lat="47.47958" lon="6.66364">
        <ele>439</ele>
        <time>2016-09-25T08:46:44.000Z</time>
      </trkpt>
      <trkpt lat="47.4796" lon="6.66357">
        <ele>439</ele>
        <time>2016-09-25T08:46:45.000Z</time>
      </trkpt>
      <trkpt lat="47.47962" lon="6.66351">
        <ele>439</ele>
        <time>2016-09-25T08:46:46.000Z</time>
      </trkpt>
      <trkpt lat="47.47951" lon="6.66355">
        <ele>439</ele>
        <time>2016-09-25T08:46:47.000Z</time>
      </trkpt>
      <trkpt lat="47.47951" lon="6.6635">
        <ele>439</ele>
        <time>2016-09-25T08:46:48.000Z</time>
      </trkpt>
      <trkpt lat="47.4795" lon="6.66348">
        <ele>439</ele>
        <time>2016-09-25T08:46:49.000Z</time>
      </trkpt>
      <trkpt lat="47.47955" lon="6.66343">
        <ele>439</ele>
        <time>2016-09-25T08:46:50.000Z</time>
      </trkpt>
      <trkpt lat="47.47957" lon="6.66339">
        <ele>439</ele>
        <time>2016-09-25T08:46:51.000Z</time>
      </trkpt>
      <trkpt lat="47.47959" lon="6.66332">
        <ele>439</ele>
        <time>2016-09-25T08:46:52.000Z</time>
      </trkpt>
      <trkpt lat="47.47961" lon="6.66328">
        <ele>439</ele>
        <time>2016-09-25T08:46:53.000Z</time>
      </trkpt>
      <trkpt lat="47.47963" lon="6.66324">
        <ele>439</ele>
        <time>2016-09-25T08:46:54.000Z</time>
      </trkpt>
      <trkpt lat="47.47965" lon="6.66322">
        <ele>439</ele>
        <time>2016-09-25T08:46:56.000Z</time>
      </trkpt>
      <trkpt lat="47.47968" lon="6.66322">
        <ele>439</ele>
        <time>2016-09-25T08:46:57.000Z</time>
      </trkpt>
      <trkpt lat="47.47972" lon="6.66319">
        <ele>439</ele>
        <time>2016-09-25T08:46:59.000Z</time>
      </trkpt>
      <trkpt lat="47.47975" lon="6.66313">
        <ele>439</ele>
        <time>2016-09-25T08:47:00.000Z</time>
      </trkpt>
      <trkpt lat="47.47978" lon="6.6631">
        <ele>439</ele>
        <time>2016-09-25T08:47:02.000Z</time>
      </trkpt>
      <trkpt lat="47.4798" lon="6.66309">
        <ele>439</ele>
        <time>2016-09-25T08:47:03.000Z</time>
      </trkpt>
      <trkpt lat="47.47982" lon="6.66302">
        <ele>439</ele>
        <time>2016-09-25T08:47:04.000Z</time>
      </trkpt>
      <trkpt lat="47.47987" lon="6.66297">
        <ele>440</ele>
        <time>2016-09-25T08:47:05.000Z</time>
      </trkpt>
      <trkpt lat="47.47987" lon="6.66294">
        <ele>440</ele>
        <time>2016-09-25T08:47:06.000Z</time>
      </trkpt>
      <trkpt lat="47.47989" lon="6.66288">
        <ele>440</ele>
        <time>2016-09-25T08:47:07.000Z</time>
      </trkpt>
      <trkpt lat="47.4799" lon="6.66283">
        <ele>440</ele>
        <time>2016-09-25T08:47:08.000Z</time>
      </trkpt>
      <trkpt lat="47.47992" lon="6.66278">
        <ele>440</ele>
        <time>2016-09-25T08:47:09.000Z</time>
      </trkpt>
      <trkpt lat="47.47993" lon="6.66274">
        <ele>440</ele>
        <time>2016-09-25T08:47:10.000Z</time>
      </trkpt>
      <trkpt lat="47.47993" lon="6.66269">
        <ele>440</ele>
        <time>2016-09-25T08:47:11.000Z</time>
      </trkpt>
      <trkpt lat="47.47995" lon="6.66264">
        <ele>441</ele>
        <time>2016-09-25T08:47:12.000Z</time>
      </trkpt>
      <trkpt lat="47.47996" lon="6.66259">
        <ele>441</ele>
        <time>2016-09-25T08:47:13.000Z</time>
      </trkpt>
      <trkpt lat="47.47997" lon="6.66253">
        <ele>441</ele>
        <time>2016-09-25T08:47:14.000Z</time>
      </trkpt>
      <trkpt lat="47.47998" lon="6.66248">
        <ele>442</ele>
        <time>2016-09-25T08:47:15.000Z</time>
      </trkpt>
      <trkpt lat="47.47999" lon="6.66243">
        <ele>441</ele>
        <time>2016-09-25T08:47:16.000Z</time>
      </trkpt>
      <trkpt lat="47.48" lon="6.66238">
        <ele>441</ele>
        <time>2016-09-25T08:47:17.000Z</time>
      </trkpt>
      <trkpt lat="47.48002" lon="6.66232">
        <ele>441</ele>
        <time>2016-09-25T08:47:18.000Z</time>
      </trkpt>
      <trkpt lat="47.48003" lon="6.66226">
        <ele>441</ele>
        <time>2016-09-25T08:47:19.000Z</time>
      </trkpt>
      <trkpt lat="47.48004" lon="6.6622">
        <ele>441</ele>
        <time>2016-09-25T08:47:20.000Z</time>
      </trkpt>
      <trkpt lat="47.48005" lon="6.66214">
        <ele>441</ele>
        <time>2016-09-25T08:47:21.000Z</time>
      </trkpt>
      <trkpt lat="47.48006" lon="6.66208">
        <ele>441</ele>
        <time>2016-09-25T08:47:22.000Z</time>
      </trkpt>
      <trkpt lat="47.48006" lon="6.66202">
        <ele>441</ele>
        <time>2016-09-25T08:47:23.000Z</time>
      </trkpt>
      <trkpt lat="47.48008" lon="6.66197">
        <ele>441</ele>
        <time>2016-09-25T08:47:24.000Z</time>
      </trkpt>
      <trkpt lat="47.48009" lon="6.66191">
        <ele>441</ele>
        <time>2016-09-25T08:47:25.000Z</time>
      </trkpt>
      <trkpt lat="47.4801" lon="6.66186">
        <ele>441</ele>
        <time>2016-09-25T08:47:26.000Z</time>
      </trkpt>
      <trkpt lat="47.4801" lon="6.66181">
        <ele>442</ele>
        <time>2016-09-25T08:47:27.000Z</time>
      </trkpt>
      <trkpt lat="47.48011" lon="6.66176">
        <ele>442</ele>
        <time>2016-09-25T08:47:28.000Z</time>
      </trkpt>
      <trkpt lat="47.48012" lon="6.66171">
        <ele>442</ele>
        <time>2016-09-25T08:47:29.000Z</time>
      </trkpt>
      <trkpt lat="47.48013" lon="6.66167">
        <ele>443</ele>
        <time>2016-09-25T08:47:30.000Z</time>
      </trkpt>
      <trkpt lat="47.48015" lon="6.66162">
        <ele>443</ele>
        <time>2016-09-25T08:47:31.000Z</time>
      </trkpt>
      <trkpt lat="47.48016" lon="6.66159">
        <ele>443</ele>
        <time>2016-09-25T08:47:32.000Z</time>
      </trkpt>
      <trkpt lat="47.48017" lon="6.66155">
        <ele>443</ele>
        <time>2016-09-25T08:47:33.000Z</time>
      </trkpt>
      <trkpt lat="47.48018" lon="6.66151">
        <ele>443</ele>
        <time>2016-09-25T08:47:34.000Z</time>
      </trkpt>
      <trkpt lat="47.48019" lon="6.66146">
        <ele>443</ele>
        <time>2016-09-25T08:47:35.000Z</time>
      </trkpt>
      <trkpt lat="47.4802" lon="6.66142">
        <ele>443</ele>
        <time>2016-09-25T08:47:36.000Z</time>
      </trkpt>
      <trkpt lat="47.4802" lon="6.66138">
        <ele>443</ele>
        <time>2016-09-25T08:47:37.000Z</time>
      </trkpt>
      <trkpt lat="47.48021" lon="6.66134">
        <ele>443</ele>
        <time>2016-09-25T08:47:38.000Z</time>
      </trkpt>
      <trkpt lat="47.48022" lon="6.6613">
        <ele>443</ele>
        <time>2016-09-25T08:47:39.000Z</time>
      </trkpt>
      <trkpt lat="47.48022" lon="6.66126">
        <ele>443</ele>
        <time>2016-09-25T08:47:40.000Z</time>
      </trkpt>
      <trkpt lat="47.48024" lon="6.6612">
        <ele>443</ele>
        <time>2016-09-25T08:47:41.000Z</time>
      </trkpt>
      <trkpt lat="47.48026" lon="6.66113">
        <ele>443</ele>
        <time>2016-09-25T08:47:42.000Z</time>
      </trkpt>
      <trkpt lat="47.48027" lon="6.66107">
        <ele>444</ele>
        <time>2016-09-25T08:47:43.000Z</time>
      </trkpt>
      <trkpt lat="47.48029" lon="6.66102">
        <ele>444</ele>
        <time>2016-09-25T08:47:44.000Z</time>
      </trkpt>
      <trkpt lat="47.48031" lon="6.66097">
        <ele>444</ele>
        <time>2016-09-25T08:47:45.000Z</time>
      </trkpt>
      <trkpt lat="47.48034" lon="6.66092">
        <ele>444</ele>
        <time>2016-09-25T08:47:46.000Z</time>
      </trkpt>
      <trkpt lat="47.48035" lon="6.66088">
        <ele>444</ele>
        <time>2016-09-25T08:47:47.000Z</time>
      </trkpt>
      <trkpt lat="47.48037" lon="6.66084">
        <ele>444</ele>
        <time>2016-09-25T08:47:48.000Z</time>
      </trkpt>
      <trkpt lat="47.48039" lon="6.6608">
        <ele>445</ele>
        <time>2016-09-25T08:47:49.000Z</time>
      </trkpt>
      <trkpt lat="47.4804" lon="6.66077">
        <ele>445</ele>
        <time>2016-09-25T08:47:50.000Z</time>
      </trkpt>
      <trkpt lat="47.48042" lon="6.66074">
        <ele>445</ele>
        <time>2016-09-25T08:47:51.000Z</time>
      </trkpt>
      <trkpt lat="47.48045" lon="6.66072">
        <ele>445</ele>
        <time>2016-09-25T08:47:52.000Z</time>
      </trkpt>
      <trkpt lat="47.48048" lon="6.66068">
        <ele>445</ele>
        <time>2016-09-25T08:47:53.000Z</time>
      </trkpt>
      <trkpt lat="47.48051" lon="6.66064">
        <ele>445</ele>
        <time>2016-09-25T08:47:54.000Z</time>
      </trkpt>
      <trkpt lat="47.48054" lon="6.66059">
        <ele>445</ele>
        <time>2016-09-25T08:47:55.000Z</time>
      </trkpt>
      <trkpt lat="47.48056" lon="6.66053">
        <ele>445</ele>
        <time>2016-09-25T08:47:56.000Z</time>
      </trkpt>
      <trkpt lat="47.48058" lon="6.66046">
        <ele>446</ele>
        <time>2016-09-25T08:47:57.000Z</time>
      </trkpt>
      <trkpt lat="47.4806" lon="6.6604">
        <ele>446</ele>
        <time>2016-09-25T08:47:58.000Z</time>
      </trkpt>
      <trkpt lat="47.48062" lon="6.66034">
        <ele>446</ele>
        <time>2016-09-25T08:47:59.000Z</time>
      </trkpt>
      <trkpt lat="47.48064" lon="6.6603">
        <ele>446</ele>
        <time>2016-09-25T08:48:00.000Z</time>
      </trkpt>
      <trkpt lat="47.48065" lon="6.66026">
        <ele>446</ele>
        <time>2016-09-25T08:48:01.000Z</time>
      </trkpt>
      <trkpt lat="47.48066" lon="6.66023">
        <ele>446</ele>
        <time>2016-09-25T08:48:02.000Z</time>
      </trkpt>
      <trkpt lat="47.48067" lon="6.66021">
        <ele>446</ele>
        <time>2016-09-25T08:48:03.000Z</time>
      </trkpt>
      <trkpt lat="47.48068" lon="6.66017">
        <ele>446</ele>
        <time>2016-09-25T08:48:04.000Z</time>
      </trkpt>
      <trkpt lat="47.4807" lon="6.66013">
        <ele>446</ele>
        <time>2016-09-25T08:48:05.000Z</time>
      </trkpt>
      <trkpt lat="47.48071" lon="6.66009">
        <ele>446</ele>
        <time>2016-09-25T08:48:06.000Z</time>
      </trkpt>
      <trkpt lat="47.48074" lon="6.66003">
        <ele>447</ele>
        <time>2016-09-25T08:48:07.000Z</time>
      </trkpt>
      <trkpt lat="47.48076" lon="6.65997">
        <ele>447</ele>
        <time>2016-09-25T08:48:08.000Z</time>
      </trkpt>
      <trkpt lat="47.4808" lon="6.65991">
        <ele>447</ele>
        <time>2016-09-25T08:48:09.000Z</time>
      </trkpt>
      <trkpt lat="47.48083" lon="6.65985">
        <ele>447</ele>
        <time>2016-09-25T08:48:10.000Z</time>
      </trkpt>
      <trkpt lat="47.48087" lon="6.6598">
        <ele>447</ele>
        <time>2016-09-25T08:48:11.000Z</time>
      </trkpt>
      <trkpt lat="47.4809" lon="6.65976">
        <ele>448</ele>
        <time>2016-09-25T08:48:12.000Z</time>
      </trkpt>
      <trkpt lat="47.48093" lon="6.65973">
        <ele>448</ele>
        <time>2016-09-25T08:48:13.000Z</time>
      </trkpt>
      <trkpt lat="47.48096" lon="6.6597">
        <ele>448</ele>
        <time>2016-09-25T08:48:14.000Z</time>
      </trkpt>
      <trkpt lat="47.48099" lon="6.65968">
        <ele>448</ele>
        <time>2016-09-25T08:48:15.000Z</time>
      </trkpt>
      <trkpt lat="47.48103" lon="6.65966">
        <ele>448</ele>
        <time>2016-09-25T08:48:16.000Z</time>
      </trkpt>
      <trkpt lat="47.48107" lon="6.65965">
        <ele>448</ele>
        <time>2016-09-25T08:48:17.000Z</time>
      </trkpt>
      <trkpt lat="47.4811" lon="6.65964">
        <ele>448</ele>
        <time>2016-09-25T08:48:18.000Z</time>
      </trkpt>
      <trkpt lat="47.48114" lon="6.65964">
        <ele>448</ele>
        <time>2016-09-25T08:48:19.000Z</time>
      </trkpt>
      <trkpt lat="47.48118" lon="6.65964">
        <ele>448</ele>
        <time>2016-09-25T08:48:20.000Z</time>
      </trkpt>
      <trkpt lat="47.48121" lon="6.65964">
        <ele>448</ele>
        <time>2016-09-25T08:48:21.000Z</time>
      </trkpt>
      <trkpt lat="47.48123" lon="6.65963">
        <ele>448</ele>
        <time>2016-09-25T08:48:22.000Z</time>
      </trkpt>
      <trkpt lat="47.48125" lon="6.65961">
        <ele>448</ele>
        <time>2016-09-25T08:48:23.000Z</time>
      </trkpt>
      <trkpt lat="47.48127" lon="6.65959">
        <ele>448</ele>
        <time>2016-09-25T08:48:24.000Z</time>
      </trkpt>
      <trkpt lat="47.48129" lon="6.65957">
        <ele>448</ele>
        <time>2016-09-25T08:48:25.000Z</time>
      </trkpt>
      <trkpt lat="47.48131" lon="6.65955">
        <ele>448</ele>
        <time>2016-09-25T08:48:26.000Z</time>
      </trkpt>
      <trkpt lat="47.48133" lon="6.65955">
        <ele>448</ele>
        <time>2016-09-25T08:48:27.000Z</time>
      </trkpt>
      <trkpt lat="47.48137" lon="6.65953">
        <ele>448</ele>
        <time>2016-09-25T08:48:29.000Z</time>
      </trkpt>
      <trkpt lat="47.48139" lon="6.65952">
        <ele>448</ele>
        <time>2016-09-25T08:48:30.000Z</time>
      </trkpt>
      <trkpt lat="47.48141" lon="6.6595">
        <ele>448</ele>
        <time>2016-09-25T08:48:31.000Z</time>
      </trkpt>
      <trkpt lat="47.48143" lon="6.65948">
        <ele>448</ele>
        <time>2016-09-25T08:48:32.000Z</time>
      </trkpt>
      <trkpt lat="47.48145" lon="6.65945">
        <ele>449</ele>
        <time>2016-09-25T08:48:33.000Z</time>
      </trkpt>
      <trkpt lat="47.48147" lon="6.65941">
        <ele>449</ele>
        <time>2016-09-25T08:48:34.000Z</time>
      </trkpt>
      <trkpt lat="47.48148" lon="6.65938">
        <ele>449</ele>
        <time>2016-09-25T08:48:35.000Z</time>
      </trkpt>
      <trkpt lat="47.4815" lon="6.65934">
        <ele>449</ele>
        <time>2016-09-25T08:48:36.000Z</time>
      </trkpt>
      <trkpt lat="47.48151" lon="6.65929">
        <ele>449</ele>
        <time>2016-09-25T08:48:37.000Z</time>
      </trkpt>
      <trkpt lat="47.48152" lon="6.65925">
        <ele>450</ele>
        <time>2016-09-25T08:48:38.000Z</time>
      </trkpt>
      <trkpt lat="47.48153" lon="6.6592">
        <ele>450</ele>
        <time>2016-09-25T08:48:39.000Z</time>
      </trkpt>
      <trkpt lat="47.48154" lon="6.65914">
        <ele>450</ele>
        <time>2016-09-25T08:48:40.000Z</time>
      </trkpt>
      <trkpt lat="47.48156" lon="6.6591">
        <ele>450</ele>
        <time>2016-09-25T08:48:41.000Z</time>
      </trkpt>
      <trkpt lat="47.48157" lon="6.65907">
        <ele>450</ele>
        <time>2016-09-25T08:48:42.000Z</time>
      </trkpt>
      <trkpt lat="47.48159" lon="6.65904">
        <ele>450</ele>
        <time>2016-09-25T08:48:43.000Z</time>
      </trkpt>
      <trkpt lat="47.48162" lon="6.659">
        <ele>450</ele>
        <time>2016-09-25T08:48:44.000Z</time>
      </trkpt>
      <trkpt lat="47.48164" lon="6.65895">
        <ele>450</ele>
        <time>2016-09-25T08:48:45.000Z</time>
      </trkpt>
      <trkpt lat="47.48166" lon="6.65891">
        <ele>450</ele>
        <time>2016-09-25T08:48:46.000Z</time>
      </trkpt>
      <trkpt lat="47.48169" lon="6.65886">
        <ele>451</ele>
        <time>2016-09-25T08:48:47.000Z</time>
      </trkpt>
      <trkpt lat="47.48171" lon="6.65882">
        <ele>451</ele>
        <time>2016-09-25T08:48:48.000Z</time>
      </trkpt>
      <trkpt lat="47.48172" lon="6.65878">
        <ele>451</ele>
        <time>2016-09-25T08:48:49.000Z</time>
      </trkpt>
      <trkpt lat="47.48174" lon="6.65874">
        <ele>451</ele>
        <time>2016-09-25T08:48:50.000Z</time>
      </trkpt>
      <trkpt lat="47.48175" lon="6.65869">
        <ele>451</ele>
        <time>2016-09-25T08:48:51.000Z</time>
      </trkpt>
      <trkpt lat="47.48176" lon="6.65864">
        <ele>451</ele>
        <time>2016-09-25T08:48:52.000Z</time>
      </trkpt>
      <trkpt lat="47.48176" lon="6.65859">
        <ele>451</ele>
        <time>2016-09-25T08:48:53.000Z</time>
      </trkpt>
      <trkpt lat="47.48177" lon="6.65855">
        <ele>451</ele>
        <time>2016-09-25T08:48:54.000Z</time>
      </trkpt>
      <trkpt lat="47.48177" lon="6.65851">
        <ele>451</ele>
        <time>2016-09-25T08:48:55.000Z</time>
      </trkpt>
      <trkpt lat="47.48178" lon="6.65847">
        <ele>451</ele>
        <time>2016-09-25T08:48:56.000Z</time>
      </trkpt>
      <trkpt lat="47.48181" lon="6.65842">
        <ele>452</ele>
        <time>2016-09-25T08:48:57.000Z</time>
      </trkpt>
      <trkpt lat="47.48183" lon="6.65838">
        <ele>452</ele>
        <time>2016-09-25T08:48:58.000Z</time>
      </trkpt>
      <trkpt lat="47.48186" lon="6.65833">
        <ele>453</ele>
        <time>2016-09-25T08:48:59.000Z</time>
      </trkpt>
      <trkpt lat="47.48188" lon="6.65828">
        <ele>453</ele>
        <time>2016-09-25T08:49:00.000Z</time>
      </trkpt>
      <trkpt lat="47.4819" lon="6.65822">
        <ele>453</ele>
        <time>2016-09-25T08:49:01.000Z</time>
      </trkpt>
      <trkpt lat="47.48193" lon="6.65817">
        <ele>453</ele>
        <time>2016-09-25T08:49:02.000Z</time>
      </trkpt>
      <trkpt lat="47.48195" lon="6.65812">
        <ele>453</ele>
        <time>2016-09-25T08:49:03.000Z</time>
      </trkpt>
      <trkpt lat="47.48197" lon="6.65808">
        <ele>453</ele>
        <time>2016-09-25T08:49:04.000Z</time>
      </trkpt>
      <trkpt lat="47.482" lon="6.65803">
        <ele>453</ele>
        <time>2016-09-25T08:49:05.000Z</time>
      </trkpt>
      <trkpt lat="47.48203" lon="6.65799">
        <ele>453</ele>
        <time>2016-09-25T08:49:06.000Z</time>
      </trkpt>
      <trkpt lat="47.48206" lon="6.65795">
        <ele>453</ele>
        <time>2016-09-25T08:49:07.000Z</time>
      </trkpt>
      <trkpt lat="47.48209" lon="6.65792">
        <ele>454</ele>
        <time>2016-09-25T08:49:08.000Z</time>
      </trkpt>
      <trkpt lat="47.48212" lon="6.65788">
        <ele>454</ele>
        <time>2016-09-25T08:49:09.000Z</time>
      </trkpt>
      <trkpt lat="47.48215" lon="6.65784">
        <ele>454</ele>
        <time>2016-09-25T08:49:10.000Z</time>
      </trkpt>
      <trkpt lat="47.48218" lon="6.6578">
        <ele>454</ele>
        <time>2016-09-25T08:49:11.000Z</time>
      </trkpt>
      <trkpt lat="47.48221" lon="6.65776">
        <ele>454</ele>
        <time>2016-09-25T08:49:12.000Z</time>
      </trkpt>
      <trkpt lat="47.48224" lon="6.65773">
        <ele>454</ele>
        <time>2016-09-25T08:49:13.000Z</time>
      </trkpt>
      <trkpt lat="47.48228" lon="6.6577">
        <ele>454</ele>
        <time>2016-09-25T08:49:14.000Z</time>
      </trkpt>
      <trkpt lat="47.48231" lon="6.65767">
        <ele>455</ele>
        <time>2016-09-25T08:49:15.000Z</time>
      </trkpt>
      <trkpt lat="47.48234" lon="6.65762">
        <ele>455</ele>
        <time>2016-09-25T08:49:16.000Z</time>
      </trkpt>
      <trkpt lat="47.48236" lon="6.65758">
        <ele>455</ele>
        <time>2016-09-25T08:49:17.000Z</time>
      </trkpt>
      <trkpt lat="47.48237" lon="6.65754">
        <ele>456</ele>
        <time>2016-09-25T08:49:18.000Z</time>
      </trkpt>
      <trkpt lat="47.48239" lon="6.65749">
        <ele>456</ele>
        <time>2016-09-25T08:49:19.000Z</time>
      </trkpt>
      <trkpt lat="47.48239" lon="6.65745">
        <ele>456</ele>
        <time>2016-09-25T08:49:20.000Z</time>
      </trkpt>
      <trkpt lat="47.48239" lon="6.65741">
        <ele>456</ele>
        <time>2016-09-25T08:49:21.000Z</time>
      </trkpt>
      <trkpt lat="47.48239" lon="6.65736">
        <ele>455</ele>
        <time>2016-09-25T08:49:22.000Z</time>
      </trkpt>
      <trkpt lat="47.48238" lon="6.65732">
        <ele>455</ele>
        <time>2016-09-25T08:49:23.000Z</time>
      </trkpt>
      <trkpt lat="47.48237" lon="6.65729">
        <ele>455</ele>
        <time>2016-09-25T08:49:24.000Z</time>
      </trkpt>
      <trkpt lat="47.48235" lon="6.65724">
        <ele>455</ele>
        <time>2016-09-25T08:49:26.000Z</time>
      </trkpt>
      <trkpt lat="47.48235" lon="6.65721">
        <ele>455</ele>
        <time>2016-09-25T08:49:27.000Z</time>
      </trkpt>
      <trkpt lat="47.48236" lon="6.65717">
        <ele>455</ele>
        <time>2016-09-25T08:49:29.000Z</time>
      </trkpt>
      <trkpt lat="47.48236" lon="6.65715">
        <ele>455</ele>
        <time>2016-09-25T08:49:30.000Z</time>
      </trkpt>
      <trkpt lat="47.48238" lon="6.6571">
        <ele>455</ele>
        <time>2016-09-25T08:49:32.000Z</time>
      </trkpt>
      <trkpt lat="47.48238" lon="6.65707">
        <ele>455</ele>
        <time>2016-09-25T08:49:33.000Z</time>
      </trkpt>
      <trkpt lat="47.4824" lon="6.65702">
        <ele>455</ele>
        <time>2016-09-25T08:49:36.000Z</time>
      </trkpt>
      <trkpt lat="47.48241" lon="6.657">
        <ele>455</ele>
        <time>2016-09-25T08:49:37.000Z</time>
      </trkpt>
      <trkpt lat="47.48243" lon="6.65695">
        <ele>455</ele>
        <time>2016-09-25T08:49:39.000Z</time>
      </trkpt>
      <trkpt lat="47.48245" lon="6.65692">
        <ele>455</ele>
        <time>2016-09-25T08:49:40.000Z</time>
      </trkpt>
      <trkpt lat="47.48246" lon="6.65687">
        <ele>455</ele>
        <time>2016-09-25T08:49:42.000Z</time>
      </trkpt>
      <trkpt lat="47.48246" lon="6.65685">
        <ele>455</ele>
        <time>2016-09-25T08:49:43.000Z</time>
      </trkpt>
      <trkpt lat="47.48248" lon="6.6568">
        <ele>455</ele>
        <time>2016-09-25T08:49:46.000Z</time>
      </trkpt>
      <trkpt lat="47.48248" lon="6.65677">
        <ele>455</ele>
        <time>2016-09-25T08:49:47.000Z</time>
      </trkpt>
      <trkpt lat="47.48249" lon="6.65672">
        <ele>456</ele>
        <time>2016-09-25T08:49:49.000Z</time>
      </trkpt>
      <trkpt lat="47.4825" lon="6.65669">
        <ele>456</ele>
        <time>2016-09-25T08:49:50.000Z</time>
      </trkpt>
      <trkpt lat="47.48251" lon="6.65665">
        <ele>456</ele>
        <time>2016-09-25T08:49:53.000Z</time>
      </trkpt>
      <trkpt lat="47.48251" lon="6.65663">
        <ele>455</ele>
        <time>2016-09-25T08:49:54.000Z</time>
      </trkpt>
      <trkpt lat="47.48253" lon="6.65659">
        <ele>455</ele>
        <time>2016-09-25T08:49:56.000Z</time>
      </trkpt>
      <trkpt lat="47.48254" lon="6.65655">
        <ele>455</ele>
        <time>2016-09-25T08:49:57.000Z</time>
      </trkpt>
      <trkpt lat="47.48255" lon="6.65651">
        <ele>454</ele>
        <time>2016-09-25T08:49:58.000Z</time>
      </trkpt>
      <trkpt lat="47.48256" lon="6.65647">
        <ele>454</ele>
        <time>2016-09-25T08:49:59.000Z</time>
      </trkpt>
      <trkpt lat="47.48257" lon="6.65644">
        <ele>454</ele>
        <time>2016-09-25T08:50:00.000Z</time>
      </trkpt>
      <trkpt lat="47.48258" lon="6.65641">
        <ele>454</ele>
        <time>2016-09-25T08:50:01.000Z</time>
      </trkpt>
      <trkpt lat="47.4826" lon="6.65636">
        <ele>453</ele>
        <time>2016-09-25T08:50:03.000Z</time>
      </trkpt>
      <trkpt lat="47.48261" lon="6.65634">
        <ele>453</ele>
        <time>2016-09-25T08:50:04.000Z</time>
      </trkpt>
      <trkpt lat="47.48262" lon="6.6563">
        <ele>453</ele>
        <time>2016-09-25T08:50:08.000Z</time>
      </trkpt>
      <trkpt lat="47.48262" lon="6.65628">
        <ele>453</ele>
        <time>2016-09-25T08:50:09.000Z</time>
      </trkpt>
      <trkpt lat="47.48264" lon="6.65622">
        <ele>453</ele>
        <time>2016-09-25T08:50:19.000Z</time>
      </trkpt>
      <trkpt lat="47.48264" lon="6.65622">
        <ele>453</ele>
        <time>2016-09-25T08:50:20.000Z</time>
      </trkpt>
      <trkpt lat="47.48267" lon="6.65624">
        <ele>453</ele>
        <time>2016-09-25T08:50:45.000Z</time>
      </trkpt>
      <trkpt lat="47.4827" lon="6.65624">
        <ele>453</ele>
        <time>2016-09-25T08:50:46.000Z</time>
      </trkpt>
      <trkpt lat="47.48273" lon="6.65625">
        <ele>453</ele>
        <time>2016-09-25T08:50:47.000Z</time>
      </trkpt>
      <trkpt lat="47.48276" lon="6.65626">
        <ele>453</ele>
        <time>2016-09-25T08:50:48.000Z</time>
      </trkpt>
      <trkpt lat="47.4828" lon="6.65626">
        <ele>453</ele>
        <time>2016-09-25T08:50:49.000Z</time>
      </trkpt>
      <trkpt lat="47.48282" lon="6.65627">
        <ele>453</ele>
        <time>2016-09-25T08:50:50.000Z</time>
      </trkpt>
      <trkpt lat="47.48286" lon="6.65626">
        <ele>452</ele>
        <time>2016-09-25T08:51:02.000Z</time>
      </trkpt>
      <trkpt lat="47.48287" lon="6.65625">
        <ele>452</ele>
        <time>2016-09-25T08:51:03.000Z</time>
      </trkpt>
      <trkpt lat="47.4829" lon="6.65623">
        <ele>452</ele>
        <time>2016-09-25T08:51:06.000Z</time>
      </trkpt>
      <trkpt lat="47.48293" lon="6.65623">
        <ele>452</ele>
        <time>2016-09-25T08:51:07.000Z</time>
      </trkpt>
      <trkpt lat="47.48296" lon="6.65623">
        <ele>452</ele>
        <time>2016-09-25T08:51:09.000Z</time>
      </trkpt>
      <trkpt lat="47.48297" lon="6.65623">
        <ele>452</ele>
        <time>2016-09-25T08:51:10.000Z</time>
      </trkpt>
      <trkpt lat="47.483" lon="6.65621">
        <ele>452</ele>
        <time>2016-09-25T08:51:12.000Z</time>
      </trkpt>
      <trkpt lat="47.48301" lon="6.6562">
        <ele>452</ele>
        <time>2016-09-25T08:51:13.000Z</time>
      </trkpt>
      <trkpt lat="47.48304" lon="6.65619">
        <ele>452</ele>
        <time>2016-09-25T08:51:14.000Z</time>
      </trkpt>
      <trkpt lat="47.48307" lon="6.65619">
        <ele>452</ele>
        <time>2016-09-25T08:51:15.000Z</time>
      </trkpt>
      <trkpt lat="47.48311" lon="6.65618">
        <ele>452</ele>
        <time>2016-09-25T08:51:16.000Z</time>
      </trkpt>
      <trkpt lat="47.48315" lon="6.65618">
        <ele>452</ele>
        <time>2016-09-25T08:51:17.000Z</time>
      </trkpt>
      <trkpt lat="47.48321" lon="6.65616">
        <ele>451</ele>
        <time>2016-09-25T08:51:18.000Z</time>
      </trkpt>
      <trkpt lat="47.48326" lon="6.65613">
        <ele>451</ele>
        <time>2016-09-25T08:51:19.000Z</time>
      </trkpt>
      <trkpt lat="47.48331" lon="6.65611">
        <ele>451</ele>
        <time>2016-09-25T08:51:20.000Z</time>
      </trkpt>
      <trkpt lat="47.48335" lon="6.65609">
        <ele>446</ele>
        <time>2016-09-25T08:51:21.000Z</time>
      </trkpt>
      <trkpt lat="47.48338" lon="6.65607">
        <ele>447</ele>
        <time>2016-09-25T08:51:22.000Z</time>
      </trkpt>
      <trkpt lat="47.48341" lon="6.65605">
        <ele>447</ele>
        <time>2016-09-25T08:51:23.000Z</time>
      </trkpt>
      <trkpt lat="47.48344" lon="6.65603">
        <ele>447</ele>
        <time>2016-09-25T08:51:24.000Z</time>
      </trkpt>
      <trkpt lat="47.48347" lon="6.65602">
        <ele>446</ele>
        <time>2016-09-25T08:51:25.000Z</time>
      </trkpt>
      <trkpt lat="47.4835" lon="6.65603">
        <ele>446</ele>
        <time>2016-09-25T08:51:26.000Z</time>
      </trkpt>
      <trkpt lat="47.48353" lon="6.65604">
        <ele>446</ele>
        <time>2016-09-25T08:51:27.000Z</time>
      </trkpt>
      <trkpt lat="47.48355" lon="6.65606">
        <ele>446</ele>
        <time>2016-09-25T08:51:28.000Z</time>
      </trkpt>
      <trkpt lat="47.48357" lon="6.65608">
        <ele>445</ele>
        <time>2016-09-25T08:51:29.000Z</time>
      </trkpt>
      <trkpt lat="47.4836" lon="6.65612">
        <ele>445</ele>
        <time>2016-09-25T08:51:30.000Z</time>
      </trkpt>
      <trkpt lat="47.48362" lon="6.65615">
        <ele>445</ele>
        <time>2016-09-25T08:51:31.000Z</time>
      </trkpt>
      <trkpt lat="47.48364" lon="6.6562">
        <ele>444</ele>
        <time>2016-09-25T08:51:32.000Z</time>
      </trkpt>
      <trkpt lat="47.48366" lon="6.65625">
        <ele>444</ele>
        <time>2016-09-25T08:51:33.000Z</time>
      </trkpt>
      <trkpt lat="47.48368" lon="6.6563">
        <ele>444</ele>
        <time>2016-09-25T08:51:34.000Z</time>
      </trkpt>
      <trkpt lat="47.48371" lon="6.65638">
        <ele>443</ele>
        <time>2016-09-25T08:51:35.000Z</time>
      </trkpt>
      <trkpt lat="47.48376" lon="6.65645">
        <ele>442</ele>
        <time>2016-09-25T08:51:36.000Z</time>
      </trkpt>
      <trkpt lat="47.48399" lon="6.65667">
        <ele>435</ele>
        <time>2016-09-25T08:51:37.000Z</time>
      </trkpt>
      <trkpt lat="47.48407" lon="6.65672">
        <ele>434</ele>
        <time>2016-09-25T08:51:38.000Z</time>
      </trkpt>
      <trkpt lat="47.48414" lon="6.65675">
        <ele>434</ele>
        <time>2016-09-25T08:51:39.000Z</time>
      </trkpt>
      <trkpt lat="47.48438" lon="6.65696">
        <ele>427</ele>
        <time>2016-09-25T08:51:40.000Z</time>
      </trkpt>
      <trkpt lat="47.48453" lon="6.65709">
        <ele>426</ele>
        <time>2016-09-25T08:51:41.000Z</time>
      </trkpt>
      <trkpt lat="47.48465" lon="6.65719">
        <ele>425</ele>
        <time>2016-09-25T08:51:42.000Z</time>
      </trkpt>
      <trkpt lat="47.48476" lon="6.65728">
        <ele>424</ele>
        <time>2016-09-25T08:51:43.000Z</time>
      </trkpt>
      <trkpt lat="47.48487" lon="6.65725">
        <ele>423</ele>
        <time>2016-09-25T08:51:44.000Z</time>
      </trkpt>
      <trkpt lat="47.48496" lon="6.65732">
        <ele>422</ele>
        <time>2016-09-25T08:51:45.000Z</time>
      </trkpt>
      <trkpt lat="47.48505" lon="6.6574">
        <ele>420</ele>
        <time>2016-09-25T08:51:46.000Z</time>
      </trkpt>
      <trkpt lat="47.48513" lon="6.65745">
        <ele>420</ele>
        <time>2016-09-25T08:51:47.000Z</time>
      </trkpt>
      <trkpt lat="47.48522" lon="6.6574">
        <ele>420</ele>
        <time>2016-09-25T08:51:48.000Z</time>
      </trkpt>
      <trkpt lat="47.48529" lon="6.65737">
        <ele>420</ele>
        <time>2016-09-25T08:51:49.000Z</time>
      </trkpt>
      <trkpt lat="47.4853" lon="6.6574">
        <ele>420</ele>
        <time>2016-09-25T08:51:50.000Z</time>
      </trkpt>
      <trkpt lat="47.48533" lon="6.65734">
        <ele>420</ele>
        <time>2016-09-25T08:51:51.000Z</time>
      </trkpt>
      <trkpt lat="47.48537" lon="6.65738">
        <ele>420</ele>
        <time>2016-09-25T08:51:52.000Z</time>
      </trkpt>
      <trkpt lat="47.4854" lon="6.65741">
        <ele>420</ele>
        <time>2016-09-25T08:51:54.000Z</time>
      </trkpt>
      <trkpt lat="47.48542" lon="6.65741">
        <ele>421</ele>
        <time>2016-09-25T08:51:55.000Z</time>
      </trkpt>
      <trkpt lat="47.48547" lon="6.65741">
        <ele>421</ele>
        <time>2016-09-25T08:51:56.000Z</time>
      </trkpt>
      <trkpt lat="47.48551" lon="6.65741">
        <ele>421</ele>
        <time>2016-09-25T08:51:57.000Z</time>
      </trkpt>
      <trkpt lat="47.48552" lon="6.65742">
        <ele>421</ele>
        <time>2016-09-25T08:51:58.000Z</time>
      </trkpt>
      <trkpt lat="47.48555" lon="6.65744">
        <ele>421</ele>
        <time>2016-09-25T08:51:59.000Z</time>
      </trkpt>
      <trkpt lat="47.48556" lon="6.65747">
        <ele>421</ele>
        <time>2016-09-25T08:52:00.000Z</time>
      </trkpt>
      <trkpt lat="47.48557" lon="6.6575">
        <ele>420</ele>
        <time>2016-09-25T08:52:01.000Z</time>
      </trkpt>
      <trkpt lat="47.48557" lon="6.65754">
        <ele>420</ele>
        <time>2016-09-25T08:52:02.000Z</time>
      </trkpt>
      <trkpt lat="47.48558" lon="6.65757">
        <ele>420</ele>
        <time>2016-09-25T08:52:03.000Z</time>
      </trkpt>
      <trkpt lat="47.48559" lon="6.6576">
        <ele>420</ele>
        <time>2016-09-25T08:52:04.000Z</time>
      </trkpt>
      <trkpt lat="47.4856" lon="6.65765">
        <ele>420</ele>
        <time>2016-09-25T08:52:06.000Z</time>
      </trkpt>
      <trkpt lat="47.48561" lon="6.65767">
        <ele>420</ele>
        <time>2016-09-25T08:52:07.000Z</time>
      </trkpt>
      <trkpt lat="47.48563" lon="6.6577">
        <ele>420</ele>
        <time>2016-09-25T08:52:09.000Z</time>
      </trkpt>
      <trkpt lat="47.48565" lon="6.65772">
        <ele>420</ele>
        <time>2016-09-25T08:52:10.000Z</time>
      </trkpt>
      <trkpt lat="47.48568" lon="6.65774">
        <ele>420</ele>
        <time>2016-09-25T08:52:11.000Z</time>
      </trkpt>
      <trkpt lat="47.4857" lon="6.65776">
        <ele>420</ele>
        <time>2016-09-25T08:52:12.000Z</time>
      </trkpt>
      <trkpt lat="47.48573" lon="6.65778">
        <ele>420</ele>
        <time>2016-09-25T08:52:13.000Z</time>
      </trkpt>
      <trkpt lat="47.48575" lon="6.65779">
        <ele>420</ele>
        <time>2016-09-25T08:52:14.000Z</time>
      </trkpt>
      <trkpt lat="47.48577" lon="6.65781">
        <ele>420</ele>
        <time>2016-09-25T08:52:15.000Z</time>
      </trkpt>
      <trkpt lat="47.4858" lon="6.65783">
        <ele>420</ele>
        <time>2016-09-25T08:52:16.000Z</time>
      </trkpt>
      <trkpt lat="47.48583" lon="6.65786">
        <ele>420</ele>
        <time>2016-09-25T08:52:17.000Z</time>
      </trkpt>
      <trkpt lat="47.48587" lon="6.65789">
        <ele>420</ele>
        <time>2016-09-25T08:52:18.000Z</time>
      </trkpt>
      <trkpt lat="47.4859" lon="6.65792">
        <ele>420</ele>
        <time>2016-09-25T08:52:19.000Z</time>
      </trkpt>
      <trkpt lat="47.48594" lon="6.65795">
        <ele>420</ele>
        <time>2016-09-25T08:52:20.000Z</time>
      </trkpt>
      <trkpt lat="47.48597" lon="6.65799">
        <ele>420</ele>
        <time>2016-09-25T08:52:21.000Z</time>
      </trkpt>
      <trkpt lat="47.486" lon="6.65803">
        <ele>420</ele>
        <time>2016-09-25T08:52:22.000Z</time>
      </trkpt>
      <trkpt lat="47.48604" lon="6.65808">
        <ele>420</ele>
        <time>2016-09-25T08:52:23.000Z</time>
      </trkpt>
      <trkpt lat="47.48607" lon="6.65813">
        <ele>420</ele>
        <time>2016-09-25T08:52:24.000Z</time>
      </trkpt>
      <trkpt lat="47.4861" lon="6.65818">
        <ele>420</ele>
        <time>2016-09-25T08:52:25.000Z</time>
      </trkpt>
      <trkpt lat="47.48613" lon="6.65823">
        <ele>420</ele>
        <time>2016-09-25T08:52:26.000Z</time>
      </trkpt>
      <trkpt lat="47.48617" lon="6.65828">
        <ele>420</ele>
        <time>2016-09-25T08:52:27.000Z</time>
      </trkpt>
      <trkpt lat="47.48621" lon="6.65833">
        <ele>420</ele>
        <time>2016-09-25T08:52:28.000Z</time>
      </trkpt>
      <trkpt lat="47.48625" lon="6.65837">
        <ele>418</ele>
        <time>2016-09-25T08:52:29.000Z</time>
      </trkpt>
      <trkpt lat="47.4863" lon="6.65841">
        <ele>418</ele>
        <time>2016-09-25T08:52:30.000Z</time>
      </trkpt>
      <trkpt lat="47.48642" lon="6.65841">
        <ele>418</ele>
        <time>2016-09-25T08:52:31.000Z</time>
      </trkpt>
      <trkpt lat="47.48645" lon="6.65841">
        <ele>418</ele>
        <time>2016-09-25T08:52:32.000Z</time>
      </trkpt>
      <trkpt lat="47.4865" lon="6.65842">
        <ele>418</ele>
        <time>2016-09-25T08:52:33.000Z</time>
      </trkpt>
      <trkpt lat="47.48658" lon="6.65844">
        <ele>418</ele>
        <time>2016-09-25T08:52:34.000Z</time>
      </trkpt>
      <trkpt lat="47.48662" lon="6.65845">
        <ele>418</ele>
        <time>2016-09-25T08:52:35.000Z</time>
      </trkpt>
      <trkpt lat="47.48667" lon="6.65846">
        <ele>416</ele>
        <time>2016-09-25T08:52:36.000Z</time>
      </trkpt>
      <trkpt lat="47.48671" lon="6.65848">
        <ele>415</ele>
        <time>2016-09-25T08:52:37.000Z</time>
      </trkpt>
      <trkpt lat="47.48676" lon="6.65849">
        <ele>415</ele>
        <time>2016-09-25T08:52:38.000Z</time>
      </trkpt>
      <trkpt lat="47.4868" lon="6.6585">
        <ele>415</ele>
        <time>2016-09-25T08:52:39.000Z</time>
      </trkpt>
      <trkpt lat="47.48685" lon="6.65855">
        <ele>414</ele>
        <time>2016-09-25T08:52:40.000Z</time>
      </trkpt>
      <trkpt lat="47.48692" lon="6.6586">
        <ele>413</ele>
        <time>2016-09-25T08:52:41.000Z</time>
      </trkpt>
      <trkpt lat="47.48701" lon="6.65862">
        <ele>413</ele>
        <time>2016-09-25T08:52:42.000Z</time>
      </trkpt>
      <trkpt lat="47.48709" lon="6.65865">
        <ele>412</ele>
        <time>2016-09-25T08:52:43.000Z</time>
      </trkpt>
      <trkpt lat="47.48716" lon="6.65866">
        <ele>412</ele>
        <time>2016-09-25T08:52:44.000Z</time>
      </trkpt>
      <trkpt lat="47.48724" lon="6.65868">
        <ele>412</ele>
        <time>2016-09-25T08:52:45.000Z</time>
      </trkpt>
      <trkpt lat="47.48731" lon="6.65869">
        <ele>411</ele>
        <time>2016-09-25T08:52:46.000Z</time>
      </trkpt>
      <trkpt lat="47.48737" lon="6.65871">
        <ele>411</ele>
        <time>2016-09-25T08:52:47.000Z</time>
      </trkpt>
      <trkpt lat="47.48743" lon="6.65872">
        <ele>411</ele>
        <time>2016-09-25T08:52:48.000Z</time>
      </trkpt>
      <trkpt lat="47.48748" lon="6.65876">
        <ele>410</ele>
        <time>2016-09-25T08:52:49.000Z</time>
      </trkpt>
      <trkpt lat="47.48755" lon="6.65877">
        <ele>406</ele>
        <time>2016-09-25T08:52:50.000Z</time>
      </trkpt>
      <trkpt lat="47.48761" lon="6.65878">
        <ele>406</ele>
        <time>2016-09-25T08:52:51.000Z</time>
      </trkpt>
      <trkpt lat="47.48765" lon="6.6588">
        <ele>406</ele>
        <time>2016-09-25T08:52:52.000Z</time>
      </trkpt>
      <trkpt lat="47.4877" lon="6.65882">
        <ele>405</ele>
        <time>2016-09-25T08:52:53.000Z</time>
      </trkpt>
      <trkpt lat="47.48775" lon="6.65882">
        <ele>405</ele>
        <time>2016-09-25T08:52:54.000Z</time>
      </trkpt>
      <trkpt lat="47.48779" lon="6.65886">
        <ele>405</ele>
        <time>2016-09-25T08:52:55.000Z</time>
      </trkpt>
      <trkpt lat="47.48783" lon="6.65886">
        <ele>405</ele>
        <time>2016-09-25T08:52:56.000Z</time>
      </trkpt>
      <trkpt lat="47.48788" lon="6.65887">
        <ele>405</ele>
        <time>2016-09-25T08:52:57.000Z</time>
      </trkpt>
      <trkpt lat="47.4879" lon="6.65892">
        <ele>404</ele>
        <time>2016-09-25T08:52:58.000Z</time>
      </trkpt>
      <trkpt lat="47.48795" lon="6.6589">
        <ele>404</ele>
        <time>2016-09-25T08:52:59.000Z</time>
      </trkpt>
      <trkpt lat="47.488" lon="6.65891">
        <ele>404</ele>
        <time>2016-09-25T08:53:00.000Z</time>
      </trkpt>
      <trkpt lat="47.48805" lon="6.65888">
        <ele>404</ele>
        <time>2016-09-25T08:53:01.000Z</time>
      </trkpt>
      <trkpt lat="47.4881" lon="6.65888">
        <ele>404</ele>
        <time>2016-09-25T08:53:02.000Z</time>
      </trkpt>
      <trkpt lat="47.48815" lon="6.65888">
        <ele>404</ele>
        <time>2016-09-25T08:53:03.000Z</time>
      </trkpt>
      <trkpt lat="47.48819" lon="6.65888">
        <ele>404</ele>
        <time>2016-09-25T08:53:04.000Z</time>
      </trkpt>
      <trkpt lat="47.48824" lon="6.65886">
        <ele>404</ele>
        <time>2016-09-25T08:53:05.000Z</time>
      </trkpt>
      <trkpt lat="47.48828" lon="6.65886">
        <ele>404</ele>
        <time>2016-09-25T08:53:06.000Z</time>
      </trkpt>
      <trkpt lat="47.48833" lon="6.65884">
        <ele>404</ele>
        <time>2016-09-25T08:53:07.000Z</time>
      </trkpt>
      <trkpt lat="47.48837" lon="6.65884">
        <ele>402</ele>
        <time>2016-09-25T08:53:08.000Z</time>
      </trkpt>
      <trkpt lat="47.48841" lon="6.65884">
        <ele>402</ele>
        <time>2016-09-25T08:53:09.000Z</time>
      </trkpt>
      <trkpt lat="47.48845" lon="6.65883">
        <ele>402</ele>
        <time>2016-09-25T08:53:10.000Z</time>
      </trkpt>
      <trkpt lat="47.48849" lon="6.65884">
        <ele>402</ele>
        <time>2016-09-25T08:53:11.000Z</time>
      </trkpt>
      <trkpt lat="47.48853" lon="6.65884">
        <ele>402</ele>
        <time>2016-09-25T08:53:12.000Z</time>
      </trkpt>
      <trkpt lat="47.48857" lon="6.65885">
        <ele>402</ele>
        <time>2016-09-25T08:53:13.000Z</time>
      </trkpt>
      <trkpt lat="47.48862" lon="6.65886">
        <ele>403</ele>
        <time>2016-09-25T08:53:14.000Z</time>
      </trkpt>
      <trkpt lat="47.48866" lon="6.65887">
        <ele>403</ele>
        <time>2016-09-25T08:53:15.000Z</time>
      </trkpt>
      <trkpt lat="47.4887" lon="6.65888">
        <ele>403</ele>
        <time>2016-09-25T08:53:16.000Z</time>
      </trkpt>
      <trkpt lat="47.48874" lon="6.65889">
        <ele>403</ele>
        <time>2016-09-25T08:53:17.000Z</time>
      </trkpt>
      <trkpt lat="47.48878" lon="6.6589">
        <ele>403</ele>
        <time>2016-09-25T08:53:18.000Z</time>
      </trkpt>
      <trkpt lat="47.48882" lon="6.65891">
        <ele>403</ele>
        <time>2016-09-25T08:53:19.000Z</time>
      </trkpt>
      <trkpt lat="47.48886" lon="6.65892">
        <ele>403</ele>
        <time>2016-09-25T08:53:20.000Z</time>
      </trkpt>
      <trkpt lat="47.48891" lon="6.65893">
        <ele>403</ele>
        <time>2016-09-25T08:53:21.000Z</time>
      </trkpt>
      <trkpt lat="47.48895" lon="6.65894">
        <ele>403</ele>
        <time>2016-09-25T08:53:22.000Z</time>
      </trkpt>
      <trkpt lat="47.48899" lon="6.65895">
        <ele>403</ele>
        <time>2016-09-25T08:53:23.000Z</time>
      </trkpt>
      <trkpt lat="47.48903" lon="6.65896">
        <ele>403</ele>
        <time>2016-09-25T08:53:24.000Z</time>
      </trkpt>
      <trkpt lat="47.48907" lon="6.65897">
        <ele>403</ele>
        <time>2016-09-25T08:53:25.000Z</time>
      </trkpt>
      <trkpt lat="47.48912" lon="6.65898">
        <ele>403</ele>
        <time>2016-09-25T08:53:26.000Z</time>
      </trkpt>
      <trkpt lat="47.48916" lon="6.659">
        <ele>403</ele>
        <time>2016-09-25T08:53:27.000Z</time>
      </trkpt>
      <trkpt lat="47.4892" lon="6.65902">
        <ele>404</ele>
        <time>2016-09-25T08:53:28.000Z</time>
      </trkpt>
      <trkpt lat="47.48924" lon="6.65904">
        <ele>404</ele>
        <time>2016-09-25T08:53:29.000Z</time>
      </trkpt>
      <trkpt lat="47.48928" lon="6.65906">
        <ele>404</ele>
        <time>2016-09-25T08:53:30.000Z</time>
      </trkpt>
      <trkpt lat="47.48932" lon="6.65908">
        <ele>404</ele>
        <time>2016-09-25T08:53:31.000Z</time>
      </trkpt>
      <trkpt lat="47.48936" lon="6.6591">
        <ele>404</ele>
        <time>2016-09-25T08:53:32.000Z</time>
      </trkpt>
      <trkpt lat="47.48939" lon="6.65913">
        <ele>404</ele>
        <time>2016-09-25T08:53:33.000Z</time>
      </trkpt>
      <trkpt lat="47.48943" lon="6.65915">
        <ele>404</ele>
        <time>2016-09-25T08:53:34.000Z</time>
      </trkpt>
      <trkpt lat="47.48947" lon="6.65918">
        <ele>404</ele>
        <time>2016-09-25T08:53:35.000Z</time>
      </trkpt>
      <trkpt lat="47.48951" lon="6.6592">
        <ele>404</ele>
        <time>2016-09-25T08:53:36.000Z</time>
      </trkpt>
      <trkpt lat="47.48955" lon="6.65923">
        <ele>404</ele>
        <time>2016-09-25T08:53:37.000Z</time>
      </trkpt>
      <trkpt lat="47.48959" lon="6.65926">
        <ele>404</ele>
        <time>2016-09-25T08:53:38.000Z</time>
      </trkpt>
      <trkpt lat="47.48963" lon="6.65928">
        <ele>404</ele>
        <time>2016-09-25T08:53:39.000Z</time>
      </trkpt>
      <trkpt lat="47.48967" lon="6.65931">
        <ele>404</ele>
        <time>2016-09-25T08:53:40.000Z</time>
      </trkpt>
      <trkpt lat="47.48971" lon="6.65934">
        <ele>404</ele>
        <time>2016-09-25T08:53:41.000Z</time>
      </trkpt>
      <trkpt lat="47.48974" lon="6.65937">
        <ele>404</ele>
        <time>2016-09-25T08:53:42.000Z</time>
      </trkpt>
      <trkpt lat="47.48978" lon="6.6594">
        <ele>404</ele>
        <time>2016-09-25T08:53:43.000Z</time>
      </trkpt>
      <trkpt lat="47.48981" lon="6.65944">
        <ele>404</ele>
        <time>2016-09-25T08:53:44.000Z</time>
      </trkpt>
      <trkpt lat="47.48984" lon="6.65947">
        <ele>404</ele>
        <time>2016-09-25T08:53:45.000Z</time>
      </trkpt>
      <trkpt lat="47.48988" lon="6.6595">
        <ele>404</ele>
        <time>2016-09-25T08:53:46.000Z</time>
      </trkpt>
      <trkpt lat="47.48991" lon="6.65953">
        <ele>404</ele>
        <time>2016-09-25T08:53:47.000Z</time>
      </trkpt>
      <trkpt lat="47.48995" lon="6.65956">
        <ele>404</ele>
        <time>2016-09-25T08:53:48.000Z</time>
      </trkpt>
      <trkpt lat="47.48998" lon="6.65959">
        <ele>404</ele>
        <time>2016-09-25T08:53:49.000Z</time>
      </trkpt>
      <trkpt lat="47.49001" lon="6.65963">
        <ele>405</ele>
        <time>2016-09-25T08:53:50.000Z</time>
      </trkpt>
      <trkpt lat="47.49004" lon="6.65967">
        <ele>405</ele>
        <time>2016-09-25T08:53:51.000Z</time>
      </trkpt>
      <trkpt lat="47.49007" lon="6.65971">
        <ele>405</ele>
        <time>2016-09-25T08:53:52.000Z</time>
      </trkpt>
      <trkpt lat="47.4901" lon="6.65976">
        <ele>405</ele>
        <time>2016-09-25T08:53:53.000Z</time>
      </trkpt>
      <trkpt lat="47.49013" lon="6.6598">
        <ele>405</ele>
        <time>2016-09-25T08:53:54.000Z</time>
      </trkpt>
      <trkpt lat="47.49016" lon="6.65985">
        <ele>405</ele>
        <time>2016-09-25T08:53:55.000Z</time>
      </trkpt>
      <trkpt lat="47.49019" lon="6.65989">
        <ele>405</ele>
        <time>2016-09-25T08:53:56.000Z</time>
      </trkpt>
      <trkpt lat="47.49022" lon="6.65993">
        <ele>405</ele>
        <time>2016-09-25T08:53:57.000Z</time>
      </trkpt>
      <trkpt lat="47.49025" lon="6.65996">
        <ele>405</ele>
        <time>2016-09-25T08:53:58.000Z</time>
      </trkpt>
      <trkpt lat="47.49028" lon="6.66">
        <ele>405</ele>
        <time>2016-09-25T08:53:59.000Z</time>
      </trkpt>
      <trkpt lat="47.49031" lon="6.66004">
        <ele>405</ele>
        <time>2016-09-25T08:54:00.000Z</time>
      </trkpt>
      <trkpt lat="47.49034" lon="6.66008">
        <ele>405</ele>
        <time>2016-09-25T08:54:01.000Z</time>
      </trkpt>
      <trkpt lat="47.49037" lon="6.66012">
        <ele>405</ele>
        <time>2016-09-25T08:54:02.000Z</time>
      </trkpt>
      <trkpt lat="47.49039" lon="6.66016">
        <ele>405</ele>
        <time>2016-09-25T08:54:03.000Z</time>
      </trkpt>
      <trkpt lat="47.49042" lon="6.6602">
        <ele>405</ele>
        <time>2016-09-25T08:54:04.000Z</time>
      </trkpt>
      <trkpt lat="47.49045" lon="6.66024">
        <ele>405</ele>
        <time>2016-09-25T08:54:05.000Z</time>
      </trkpt>
      <trkpt lat="47.49047" lon="6.66028">
        <ele>405</ele>
        <time>2016-09-25T08:54:06.000Z</time>
      </trkpt>
      <trkpt lat="47.4905" lon="6.66032">
        <ele>405</ele>
        <time>2016-09-25T08:54:07.000Z</time>
      </trkpt>
      <trkpt lat="47.49053" lon="6.66036">
        <ele>405</ele>
        <time>2016-09-25T08:54:08.000Z</time>
      </trkpt>
      <trkpt lat="47.49055" lon="6.6604">
        <ele>405</ele>
        <time>2016-09-25T08:54:09.000Z</time>
      </trkpt>
      <trkpt lat="47.49058" lon="6.66045">
        <ele>405</ele>
        <time>2016-09-25T08:54:10.000Z</time>
      </trkpt>
      <trkpt lat="47.4906" lon="6.6605">
        <ele>405</ele>
        <time>2016-09-25T08:54:11.000Z</time>
      </trkpt>
      <trkpt lat="47.49062" lon="6.66057">
        <ele>405</ele>
        <time>2016-09-25T08:54:11.999Z</time>
      </trkpt>
      <trkpt lat="47.49066" lon="6.66062">
        <ele>406</ele>
        <time>2016-09-25T08:54:13.000Z</time>
      </trkpt>
      <trkpt lat="47.49069" lon="6.66067">
        <ele>406</ele>
        <time>2016-09-25T08:54:14.000Z</time>
      </trkpt>
      <trkpt lat="47.49072" lon="6.66072">
        <ele>406</ele>
        <time>2016-09-25T08:54:15.000Z</time>
      </trkpt>
      <trkpt lat="47.49074" lon="6.66074">
        <ele>406</ele>
        <time>2016-09-25T08:54:16.000Z</time>
      </trkpt>
      <trkpt lat="47.49078" lon="6.6608">
        <ele>406</ele>
        <time>2016-09-25T08:54:17.000Z</time>
      </trkpt>
      <trkpt lat="47.4908" lon="6.66085">
        <ele>406</ele>
        <time>2016-09-25T08:54:18.000Z</time>
      </trkpt>
      <trkpt lat="47.49083" lon="6.66089">
        <ele>406</ele>
        <time>2016-09-25T08:54:19.000Z</time>
      </trkpt>
      <trkpt lat="47.49085" lon="6.66094">
        <ele>407</ele>
        <time>2016-09-25T08:54:20.000Z</time>
      </trkpt>
      <trkpt lat="47.49089" lon="6.66098">
        <ele>407</ele>
        <time>2016-09-25T08:54:21.000Z</time>
      </trkpt>
      <trkpt lat="47.49093" lon="6.66101">
        <ele>407</ele>
        <time>2016-09-25T08:54:22.000Z</time>
      </trkpt>
      <trkpt lat="47.49096" lon="6.66106">
        <ele>408</ele>
        <time>2016-09-25T08:54:23.000Z</time>
      </trkpt>
      <trkpt lat="47.49098" lon="6.66111">
        <ele>408</ele>
        <time>2016-09-25T08:54:24.000Z</time>
      </trkpt>
      <trkpt lat="47.49101" lon="6.66115">
        <ele>408</ele>
        <time>2016-09-25T08:54:25.000Z</time>
      </trkpt>
      <trkpt lat="47.49103" lon="6.66119">
        <ele>408</ele>
        <time>2016-09-25T08:54:26.000Z</time>
      </trkpt>
      <trkpt lat="47.49104" lon="6.66125">
        <ele>408</ele>
        <time>2016-09-25T08:54:27.000Z</time>
      </trkpt>
      <trkpt lat="47.49106" lon="6.66129">
        <ele>408</ele>
        <time>2016-09-25T08:54:28.000Z</time>
      </trkpt>
      <trkpt lat="47.49109" lon="6.66132">
        <ele>408</ele>
        <time>2016-09-25T08:54:29.000Z</time>
      </trkpt>
      <trkpt lat="47.49112" lon="6.66135">
        <ele>408</ele>
        <time>2016-09-25T08:54:30.000Z</time>
      </trkpt>
      <trkpt lat="47.49114" lon="6.66138">
        <ele>408</ele>
        <time>2016-09-25T08:54:31.000Z</time>
      </trkpt>
      <trkpt lat="47.49116" lon="6.66141">
        <ele>408</ele>
        <time>2016-09-25T08:54:32.000Z</time>
      </trkpt>
      <trkpt lat="47.49119" lon="6.66145">
        <ele>408</ele>
        <time>2016-09-25T08:54:33.000Z</time>
      </trkpt>
      <trkpt lat="47.49121" lon="6.6615">
        <ele>409</ele>
        <time>2016-09-25T08:54:34.000Z</time>
      </trkpt>
      <trkpt lat="47.49122" lon="6.66154">
        <ele>409</ele>
        <time>2016-09-25T08:54:35.000Z</time>
      </trkpt>
      <trkpt lat="47.49125" lon="6.66158">
        <ele>409</ele>
        <time>2016-09-25T08:54:36.000Z</time>
      </trkpt>
      <trkpt lat="47.49127" lon="6.66162">
        <ele>409</ele>
        <time>2016-09-25T08:54:37.000Z</time>
      </trkpt>
      <trkpt lat="47.4913" lon="6.66165">
        <ele>409</ele>
        <time>2016-09-25T08:54:38.000Z</time>
      </trkpt>
      <trkpt lat="47.49133" lon="6.66169">
        <ele>409</ele>
        <time>2016-09-25T08:54:39.000Z</time>
      </trkpt>
      <trkpt lat="47.49135" lon="6.66172">
        <ele>410</ele>
        <time>2016-09-25T08:54:40.000Z</time>
      </trkpt>
      <trkpt lat="47.49138" lon="6.66176">
        <ele>410</ele>
        <time>2016-09-25T08:54:41.000Z</time>
      </trkpt>
      <trkpt lat="47.4914" lon="6.66179">
        <ele>410</ele>
        <time>2016-09-25T08:54:42.000Z</time>
      </trkpt>
      <trkpt lat="47.49144" lon="6.66182">
        <ele>410</ele>
        <time>2016-09-25T08:54:43.000Z</time>
      </trkpt>
      <trkpt lat="47.49147" lon="6.66185">
        <ele>410</ele>
        <time>2016-09-25T08:54:44.000Z</time>
      </trkpt>
      <trkpt lat="47.4915" lon="6.66187">
        <ele>410</ele>
        <time>2016-09-25T08:54:45.000Z</time>
      </trkpt>
      <trkpt lat="47.49153" lon="6.6619">
        <ele>410</ele>
        <time>2016-09-25T08:54:46.000Z</time>
      </trkpt>
      <trkpt lat="47.49156" lon="6.66193">
        <ele>410</ele>
        <time>2016-09-25T08:54:47.000Z</time>
      </trkpt>
      <trkpt lat="47.49159" lon="6.66196">
        <ele>410</ele>
        <time>2016-09-25T08:54:48.000Z</time>
      </trkpt>
      <trkpt lat="47.49162" lon="6.662">
        <ele>410</ele>
        <time>2016-09-25T08:54:49.000Z</time>
      </trkpt>
      <trkpt lat="47.49164" lon="6.66204">
        <ele>410</ele>
        <time>2016-09-25T08:54:50.000Z</time>
      </trkpt>
      <trkpt lat="47.49167" lon="6.66207">
        <ele>412</ele>
        <time>2016-09-25T08:54:51.000Z</time>
      </trkpt>
      <trkpt lat="47.4917" lon="6.66212">
        <ele>412</ele>
        <time>2016-09-25T08:54:52.000Z</time>
      </trkpt>
      <trkpt lat="47.49173" lon="6.66217">
        <ele>412</ele>
        <time>2016-09-25T08:54:53.000Z</time>
      </trkpt>
      <trkpt lat="47.49175" lon="6.66221">
        <ele>412</ele>
        <time>2016-09-25T08:54:54.000Z</time>
      </trkpt>
      <trkpt lat="47.49177" lon="6.66225">
        <ele>412</ele>
        <time>2016-09-25T08:54:55.000Z</time>
      </trkpt>
      <trkpt lat="47.49179" lon="6.66228">
        <ele>412</ele>
        <time>2016-09-25T08:54:56.000Z</time>
      </trkpt>
      <trkpt lat="47.49183" lon="6.66232">
        <ele>412</ele>
        <time>2016-09-25T08:54:57.000Z</time>
      </trkpt>
      <trkpt lat="47.49186" lon="6.66236">
        <ele>412</ele>
        <time>2016-09-25T08:54:58.000Z</time>
      </trkpt>
      <trkpt lat="47.49188" lon="6.66239">
        <ele>412</ele>
        <time>2016-09-25T08:54:59.000Z</time>
      </trkpt>
      <trkpt lat="47.49191" lon="6.66243">
        <ele>412</ele>
        <time>2016-09-25T08:55:00.000Z</time>
      </trkpt>
      <trkpt lat="47.49194" lon="6.66246">
        <ele>412</ele>
        <time>2016-09-25T08:55:01.000Z</time>
      </trkpt>
      <trkpt lat="47.49196" lon="6.66248">
        <ele>412</ele>
        <time>2016-09-25T08:55:02.000Z</time>
      </trkpt>
      <trkpt lat="47.49199" lon="6.6625">
        <ele>412</ele>
        <time>2016-09-25T08:55:03.000Z</time>
      </trkpt>
      <trkpt lat="47.49202" lon="6.66252">
        <ele>412</ele>
        <time>2016-09-25T08:55:04.000Z</time>
      </trkpt>
      <trkpt lat="47.49205" lon="6.66255">
        <ele>412</ele>
        <time>2016-09-25T08:55:05.000Z</time>
      </trkpt>
      <trkpt lat="47.49207" lon="6.66257">
        <ele>412</ele>
        <time>2016-09-25T08:55:06.000Z</time>
      </trkpt>
      <trkpt lat="47.4921" lon="6.66259">
        <ele>413</ele>
        <time>2016-09-25T08:55:07.000Z</time>
      </trkpt>
      <trkpt lat="47.49213" lon="6.66261">
        <ele>413</ele>
        <time>2016-09-25T08:55:08.000Z</time>
      </trkpt>
      <trkpt lat="47.49216" lon="6.66263">
        <ele>413</ele>
        <time>2016-09-25T08:55:09.000Z</time>
      </trkpt>
      <trkpt lat="47.4922" lon="6.66265">
        <ele>413</ele>
        <time>2016-09-25T08:55:10.000Z</time>
      </trkpt>
      <trkpt lat="47.49222" lon="6.66266">
        <ele>413</ele>
        <time>2016-09-25T08:55:11.000Z</time>
      </trkpt>
      <trkpt lat="47.49225" lon="6.66268">
        <ele>413</ele>
        <time>2016-09-25T08:55:12.000Z</time>
      </trkpt>
      <trkpt lat="47.49228" lon="6.66271">
        <ele>413</ele>
        <time>2016-09-25T08:55:13.000Z</time>
      </trkpt>
      <trkpt lat="47.49232" lon="6.66273">
        <ele>413</ele>
        <time>2016-09-25T08:55:14.000Z</time>
      </trkpt>
      <trkpt lat="47.49235" lon="6.66276">
        <ele>413</ele>
        <time>2016-09-25T08:55:15.000Z</time>
      </trkpt>
      <trkpt lat="47.49239" lon="6.66277">
        <ele>413</ele>
        <time>2016-09-25T08:55:16.000Z</time>
      </trkpt>
      <trkpt lat="47.49243" lon="6.66278">
        <ele>413</ele>
        <time>2016-09-25T08:55:17.000Z</time>
      </trkpt>
      <trkpt lat="47.49247" lon="6.66279">
        <ele>413</ele>
        <time>2016-09-25T08:55:18.000Z</time>
      </trkpt>
      <trkpt lat="47.4925" lon="6.6628">
        <ele>415</ele>
        <time>2016-09-25T08:55:19.000Z</time>
      </trkpt>
      <trkpt lat="47.49254" lon="6.66281">
        <ele>415</ele>
        <time>2016-09-25T08:55:20.000Z</time>
      </trkpt>
      <trkpt lat="47.49257" lon="6.66282">
        <ele>416</ele>
        <time>2016-09-25T08:55:21.000Z</time>
      </trkpt>
      <trkpt lat="47.49261" lon="6.66284">
        <ele>416</ele>
        <time>2016-09-25T08:55:22.000Z</time>
      </trkpt>
      <trkpt lat="47.49266" lon="6.66286">
        <ele>416</ele>
        <time>2016-09-25T08:55:23.000Z</time>
      </trkpt>
      <trkpt lat="47.4927" lon="6.66288">
        <ele>416</ele>
        <time>2016-09-25T08:55:24.000Z</time>
      </trkpt>
      <trkpt lat="47.49273" lon="6.66289">
        <ele>416</ele>
        <time>2016-09-25T08:55:25.000Z</time>
      </trkpt>
      <trkpt lat="47.49277" lon="6.6629">
        <ele>416</ele>
        <time>2016-09-25T08:55:26.000Z</time>
      </trkpt>
      <trkpt lat="47.4928" lon="6.66291">
        <ele>416</ele>
        <time>2016-09-25T08:55:27.000Z</time>
      </trkpt>
      <trkpt lat="47.49282" lon="6.66292">
        <ele>416</ele>
        <time>2016-09-25T08:55:28.000Z</time>
      </trkpt>
      <trkpt lat="47.49285" lon="6.66293">
        <ele>416</ele>
        <time>2016-09-25T08:55:29.000Z</time>
      </trkpt>
      <trkpt lat="47.49289" lon="6.66293">
        <ele>416</ele>
        <time>2016-09-25T08:55:30.000Z</time>
      </trkpt>
      <trkpt lat="47.49292" lon="6.66293">
        <ele>416</ele>
        <time>2016-09-25T08:55:31.000Z</time>
      </trkpt>
      <trkpt lat="47.49296" lon="6.66292">
        <ele>416</ele>
        <time>2016-09-25T08:55:32.000Z</time>
      </trkpt>
      <trkpt lat="47.49299" lon="6.66291">
        <ele>416</ele>
        <time>2016-09-25T08:55:33.000Z</time>
      </trkpt>
      <trkpt lat="47.49302" lon="6.6629">
        <ele>416</ele>
        <time>2016-09-25T08:55:34.000Z</time>
      </trkpt>
      <trkpt lat="47.49305" lon="6.6629">
        <ele>417</ele>
        <time>2016-09-25T08:55:35.000Z</time>
      </trkpt>
      <trkpt lat="47.49308" lon="6.6629">
        <ele>417</ele>
        <time>2016-09-25T08:55:36.000Z</time>
      </trkpt>
      <trkpt lat="47.49311" lon="6.6629">
        <ele>417</ele>
        <time>2016-09-25T08:55:37.000Z</time>
      </trkpt>
      <trkpt lat="47.49314" lon="6.66291">
        <ele>417</ele>
        <time>2016-09-25T08:55:38.000Z</time>
      </trkpt>
      <trkpt lat="47.49317" lon="6.66292">
        <ele>417</ele>
        <time>2016-09-25T08:55:39.000Z</time>
      </trkpt>
      <trkpt lat="47.49321" lon="6.66292">
        <ele>417</ele>
        <time>2016-09-25T08:55:40.000Z</time>
      </trkpt>
      <trkpt lat="47.49324" lon="6.66293">
        <ele>417</ele>
        <time>2016-09-25T08:55:41.000Z</time>
      </trkpt>
      <trkpt lat="47.49327" lon="6.66295">
        <ele>417</ele>
        <time>2016-09-25T08:55:42.000Z</time>
      </trkpt>
      <trkpt lat="47.4933" lon="6.66298">
        <ele>417</ele>
        <time>2016-09-25T08:55:43.000Z</time>
      </trkpt>
      <trkpt lat="47.49333" lon="6.66301">
        <ele>417</ele>
        <time>2016-09-25T08:55:44.000Z</time>
      </trkpt>
      <trkpt lat="47.49335" lon="6.66305">
        <ele>419</ele>
        <time>2016-09-25T08:55:44.999Z</time>
      </trkpt>
      <trkpt lat="47.49337" lon="6.66309">
        <ele>419</ele>
        <time>2016-09-25T08:55:46.000Z</time>
      </trkpt>
      <trkpt lat="47.49339" lon="6.66314">
        <ele>419</ele>
        <time>2016-09-25T08:55:47.000Z</time>
      </trkpt>
      <trkpt lat="47.49341" lon="6.66319">
        <ele>418</ele>
        <time>2016-09-25T08:55:48.000Z</time>
      </trkpt>
      <trkpt lat="47.49342" lon="6.66324">
        <ele>418</ele>
        <time>2016-09-25T08:55:49.000Z</time>
      </trkpt>
      <trkpt lat="47.49344" lon="6.66329">
        <ele>418</ele>
        <time>2016-09-25T08:55:50.000Z</time>
      </trkpt>
      <trkpt lat="47.49346" lon="6.66334">
        <ele>418</ele>
        <time>2016-09-25T08:55:51.000Z</time>
      </trkpt>
      <trkpt lat="47.49347" lon="6.66339">
        <ele>418</ele>
        <time>2016-09-25T08:55:52.000Z</time>
      </trkpt>
      <trkpt lat="47.49349" lon="6.66344">
        <ele>418</ele>
        <time>2016-09-25T08:55:53.000Z</time>
      </trkpt>
      <trkpt lat="47.4935" lon="6.66351">
        <ele>418</ele>
        <time>2016-09-25T08:55:54.000Z</time>
      </trkpt>
      <trkpt lat="47.49352" lon="6.66357">
        <ele>418</ele>
        <time>2016-09-25T08:55:55.000Z</time>
      </trkpt>
      <trkpt lat="47.49355" lon="6.66363">
        <ele>418</ele>
        <time>2016-09-25T08:55:56.000Z</time>
      </trkpt>
      <trkpt lat="47.49357" lon="6.66368">
        <ele>418</ele>
        <time>2016-09-25T08:55:57.000Z</time>
      </trkpt>
      <trkpt lat="47.4936" lon="6.66373">
        <ele>418</ele>
        <time>2016-09-25T08:55:58.000Z</time>
      </trkpt>
      <trkpt lat="47.49362" lon="6.66377">
        <ele>418</ele>
        <time>2016-09-25T08:55:59.000Z</time>
      </trkpt>
      <trkpt lat="47.49363" lon="6.66381">
        <ele>418</ele>
        <time>2016-09-25T08:56:00.000Z</time>
      </trkpt>
      <trkpt lat="47.49364" lon="6.66385">
        <ele>418</ele>
        <time>2016-09-25T08:56:01.000Z</time>
      </trkpt>
      <trkpt lat="47.49364" lon="6.66388">
        <ele>418</ele>
        <time>2016-09-25T08:56:02.000Z</time>
      </trkpt>
      <trkpt lat="47.49365" lon="6.66393">
        <ele>418</ele>
        <time>2016-09-25T08:56:03.000Z</time>
      </trkpt>
      <trkpt lat="47.49366" lon="6.66398">
        <ele>418</ele>
        <time>2016-09-25T08:56:04.000Z</time>
      </trkpt>
      <trkpt lat="47.49368" lon="6.66402">
        <ele>418</ele>
        <time>2016-09-25T08:56:05.000Z</time>
      </trkpt>
      <trkpt lat="47.4937" lon="6.66406">
        <ele>418</ele>
        <time>2016-09-25T08:56:06.000Z</time>
      </trkpt>
      <trkpt lat="47.49372" lon="6.6641">
        <ele>418</ele>
        <time>2016-09-25T08:56:07.000Z</time>
      </trkpt>
      <trkpt lat="47.49374" lon="6.66414">
        <ele>418</ele>
        <time>2016-09-25T08:56:08.000Z</time>
      </trkpt>
      <trkpt lat="47.49375" lon="6.66418">
        <ele>417</ele>
        <time>2016-09-25T08:56:09.000Z</time>
      </trkpt>
      <trkpt lat="47.49377" lon="6.66421">
        <ele>417</ele>
        <time>2016-09-25T08:56:10.000Z</time>
      </trkpt>
      <trkpt lat="47.49378" lon="6.66425">
        <ele>417</ele>
        <time>2016-09-25T08:56:11.000Z</time>
      </trkpt>
      <trkpt lat="47.49378" lon="6.66428">
        <ele>417</ele>
        <time>2016-09-25T08:56:12.000Z</time>
      </trkpt>
      <trkpt lat="47.4938" lon="6.66433">
        <ele>417</ele>
        <time>2016-09-25T08:56:13.000Z</time>
      </trkpt>
      <trkpt lat="47.49381" lon="6.66438">
        <ele>417</ele>
        <time>2016-09-25T08:56:14.000Z</time>
      </trkpt>
      <trkpt lat="47.49383" lon="6.66443">
        <ele>417</ele>
        <time>2016-09-25T08:56:15.000Z</time>
      </trkpt>
      <trkpt lat="47.49385" lon="6.66449">
        <ele>417</ele>
        <time>2016-09-25T08:56:16.000Z</time>
      </trkpt>
      <trkpt lat="47.49387" lon="6.66454">
        <ele>416</ele>
        <time>2016-09-25T08:56:17.000Z</time>
      </trkpt>
      <trkpt lat="47.49388" lon="6.66458">
        <ele>416</ele>
        <time>2016-09-25T08:56:18.000Z</time>
      </trkpt>
      <trkpt lat="47.49389" lon="6.66461">
        <ele>416</ele>
        <time>2016-09-25T08:56:19.000Z</time>
      </trkpt>
      <trkpt lat="47.4939" lon="6.66464">
        <ele>416</ele>
        <time>2016-09-25T08:56:20.000Z</time>
      </trkpt>
      <trkpt lat="47.49391" lon="6.66469">
        <ele>416</ele>
        <time>2016-09-25T08:56:22.000Z</time>
      </trkpt>
      <trkpt lat="47.49392" lon="6.66471">
        <ele>416</ele>
        <time>2016-09-25T08:56:23.000Z</time>
      </trkpt>
      <trkpt lat="47.49394" lon="6.66476">
        <ele>416</ele>
        <time>2016-09-25T08:56:26.000Z</time>
      </trkpt>
      <trkpt lat="47.49395" lon="6.66477">
        <ele>416</ele>
        <time>2016-09-25T08:56:27.000Z</time>
      </trkpt>
      <trkpt lat="47.49397" lon="6.66479">
        <ele>416</ele>
        <time>2016-09-25T08:56:28.000Z</time>
      </trkpt>
      <trkpt lat="47.49399" lon="6.6648">
        <ele>416</ele>
        <time>2016-09-25T08:56:29.000Z</time>
      </trkpt>
      <trkpt lat="47.49402" lon="6.66482">
        <ele>415</ele>
        <time>2016-09-25T08:56:30.000Z</time>
      </trkpt>
      <trkpt lat="47.49403" lon="6.66484">
        <ele>415</ele>
        <time>2016-09-25T08:56:31.000Z</time>
      </trkpt>
      <trkpt lat="47.49406" lon="6.66488">
        <ele>415</ele>
        <time>2016-09-25T08:56:33.000Z</time>
      </trkpt>
      <trkpt lat="47.49407" lon="6.6649">
        <ele>415</ele>
        <time>2016-09-25T08:56:34.000Z</time>
      </trkpt>
      <trkpt lat="47.49408" lon="6.66495">
        <ele>415</ele>
        <time>2016-09-25T08:56:38.000Z</time>
      </trkpt>
      <trkpt lat="47.49409" lon="6.66497">
        <ele>415</ele>
        <time>2016-09-25T08:56:39.000Z</time>
      </trkpt>
      <trkpt lat="47.4941" lon="6.665">
        <ele>413</ele>
        <time>2016-09-25T08:56:40.000Z</time>
      </trkpt>
      <trkpt lat="47.49411" lon="6.66504">
        <ele>413</ele>
        <time>2016-09-25T08:56:41.000Z</time>
      </trkpt>
      <trkpt lat="47.49411" lon="6.66506">
        <ele>413</ele>
        <time>2016-09-25T08:56:42.000Z</time>
      </trkpt>
      <trkpt lat="47.49414" lon="6.66516">
        <ele>413</ele>
        <time>2016-09-25T08:56:43.000Z</time>
      </trkpt>
      <trkpt lat="47.49415" lon="6.66523">
        <ele>412</ele>
        <time>2016-09-25T08:56:44.000Z</time>
      </trkpt>
      <trkpt lat="47.49416" lon="6.6653">
        <ele>411</ele>
        <time>2016-09-25T08:56:45.000Z</time>
      </trkpt>
      <trkpt lat="47.49417" lon="6.66538">
        <ele>409</ele>
        <time>2016-09-25T08:56:46.000Z</time>
      </trkpt>
      <trkpt lat="47.49419" lon="6.66548">
        <ele>408</ele>
        <time>2016-09-25T08:56:47.000Z</time>
      </trkpt>
      <trkpt lat="47.49422" lon="6.66558">
        <ele>407</ele>
        <time>2016-09-25T08:56:48.000Z</time>
      </trkpt>
      <trkpt lat="47.49423" lon="6.66569">
        <ele>406</ele>
        <time>2016-09-25T08:56:49.000Z</time>
      </trkpt>
      <trkpt lat="47.49424" lon="6.66575">
        <ele>406</ele>
        <time>2016-09-25T08:56:50.000Z</time>
      </trkpt>
      <trkpt lat="47.49426" lon="6.66583">
        <ele>406</ele>
        <time>2016-09-25T08:56:51.000Z</time>
      </trkpt>
      <trkpt lat="47.49425" lon="6.66587">
        <ele>403</ele>
        <time>2016-09-25T08:56:52.000Z</time>
      </trkpt>
      <trkpt lat="47.49425" lon="6.6659">
        <ele>403</ele>
        <time>2016-09-25T08:56:53.000Z</time>
      </trkpt>
      <trkpt lat="47.49429" lon="6.66598">
        <ele>402</ele>
        <time>2016-09-25T08:56:54.000Z</time>
      </trkpt>
      <trkpt lat="47.49433" lon="6.66607">
        <ele>401</ele>
        <time>2016-09-25T08:56:55.000Z</time>
      </trkpt>
      <trkpt lat="47.49437" lon="6.66615">
        <ele>401</ele>
        <time>2016-09-25T08:56:56.000Z</time>
      </trkpt>
      <trkpt lat="47.49437" lon="6.66618">
        <ele>400</ele>
        <time>2016-09-25T08:56:57.000Z</time>
      </trkpt>
      <trkpt lat="47.49441" lon="6.66626">
        <ele>400</ele>
        <time>2016-09-25T08:56:58.000Z</time>
      </trkpt>
      <trkpt lat="47.49443" lon="6.66633">
        <ele>399</ele>
        <time>2016-09-25T08:56:59.000Z</time>
      </trkpt>
      <trkpt lat="47.49446" lon="6.6664">
        <ele>399</ele>
        <time>2016-09-25T08:57:00.000Z</time>
      </trkpt>
      <trkpt lat="47.49449" lon="6.66648">
        <ele>399</ele>
        <time>2016-09-25T08:57:01.000Z</time>
      </trkpt>
      <trkpt lat="47.4945" lon="6.66656">
        <ele>399</ele>
        <time>2016-09-25T08:57:02.000Z</time>
      </trkpt>
      <trkpt lat="47.49453" lon="6.66665">
        <ele>398</ele>
        <time>2016-09-25T08:57:03.000Z</time>
      </trkpt>
      <trkpt lat="47.49457" lon="6.66673">
        <ele>394</ele>
        <time>2016-09-25T08:57:04.000Z</time>
      </trkpt>
      <trkpt lat="47.4946" lon="6.66681">
        <ele>393</ele>
        <time>2016-09-25T08:57:05.000Z</time>
      </trkpt>
      <trkpt lat="47.49462" lon="6.66689">
        <ele>393</ele>
        <time>2016-09-25T08:57:06.000Z</time>
      </trkpt>
      <trkpt lat="47.49463" lon="6.66698">
        <ele>393</ele>
        <time>2016-09-25T08:57:07.000Z</time>
      </trkpt>
      <trkpt lat="47.49464" lon="6.66707">
        <ele>392</ele>
        <time>2016-09-25T08:57:08.000Z</time>
      </trkpt>
      <trkpt lat="47.49467" lon="6.66716">
        <ele>392</ele>
        <time>2016-09-25T08:57:09.000Z</time>
      </trkpt>
      <trkpt lat="47.49469" lon="6.66725">
        <ele>391</ele>
        <time>2016-09-25T08:57:10.000Z</time>
      </trkpt>
      <trkpt lat="47.49473" lon="6.66738">
        <ele>390</ele>
        <time>2016-09-25T08:57:11.000Z</time>
      </trkpt>
      <trkpt lat="47.49477" lon="6.66751">
        <ele>386</ele>
        <time>2016-09-25T08:57:12.000Z</time>
      </trkpt>
      <trkpt lat="47.4948" lon="6.66762">
        <ele>386</ele>
        <time>2016-09-25T08:57:13.000Z</time>
      </trkpt>
      <trkpt lat="47.49483" lon="6.66773">
        <ele>385</ele>
        <time>2016-09-25T08:57:14.000Z</time>
      </trkpt>
      <trkpt lat="47.49487" lon="6.66783">
        <ele>385</ele>
        <time>2016-09-25T08:57:15.000Z</time>
      </trkpt>
      <trkpt lat="47.4949" lon="6.66792">
        <ele>384</ele>
        <time>2016-09-25T08:57:16.000Z</time>
      </trkpt>
      <trkpt lat="47.49494" lon="6.668">
        <ele>384</ele>
        <time>2016-09-25T08:57:17.000Z</time>
      </trkpt>
      <trkpt lat="47.49498" lon="6.66808">
        <ele>383</ele>
        <time>2016-09-25T08:57:18.000Z</time>
      </trkpt>
      <trkpt lat="47.49501" lon="6.66817">
        <ele>381</ele>
        <time>2016-09-25T08:57:19.000Z</time>
      </trkpt>
      <trkpt lat="47.49506" lon="6.66827">
        <ele>380</ele>
        <time>2016-09-25T08:57:20.000Z</time>
      </trkpt>
      <trkpt lat="47.4951" lon="6.66836">
        <ele>378</ele>
        <time>2016-09-25T08:57:21.000Z</time>
      </trkpt>
      <trkpt lat="47.49515" lon="6.66842">
        <ele>377</ele>
        <time>2016-09-25T08:57:22.000Z</time>
      </trkpt>
      <trkpt lat="47.49518" lon="6.66849">
        <ele>376</ele>
        <time>2016-09-25T08:57:23.000Z</time>
      </trkpt>
      <trkpt lat="47.49522" lon="6.66855">
        <ele>376</ele>
        <time>2016-09-25T08:57:24.000Z</time>
      </trkpt>
      <trkpt lat="47.49525" lon="6.66862">
        <ele>375</ele>
        <time>2016-09-25T08:57:25.000Z</time>
      </trkpt>
      <trkpt lat="47.49528" lon="6.6687">
        <ele>374</ele>
        <time>2016-09-25T08:57:26.000Z</time>
      </trkpt>
      <trkpt lat="47.49531" lon="6.66878">
        <ele>374</ele>
        <time>2016-09-25T08:57:27.000Z</time>
      </trkpt>
      <trkpt lat="47.49536" lon="6.66889">
        <ele>373</ele>
        <time>2016-09-25T08:57:28.000Z</time>
      </trkpt>
      <trkpt lat="47.49539" lon="6.66899">
        <ele>373</ele>
        <time>2016-09-25T08:57:29.000Z</time>
      </trkpt>
      <trkpt lat="47.49542" lon="6.66908">
        <ele>373</ele>
        <time>2016-09-25T08:57:30.000Z</time>
      </trkpt>
      <trkpt lat="47.49543" lon="6.66916">
        <ele>373</ele>
        <time>2016-09-25T08:57:31.000Z</time>
      </trkpt>
      <trkpt lat="47.49546" lon="6.66928">
        <ele>368</ele>
        <time>2016-09-25T08:57:32.000Z</time>
      </trkpt>
      <trkpt lat="47.49548" lon="6.66939">
        <ele>368</ele>
        <time>2016-09-25T08:57:33.000Z</time>
      </trkpt>
      <trkpt lat="47.49549" lon="6.6695">
        <ele>367</ele>
        <time>2016-09-25T08:57:34.000Z</time>
      </trkpt>
      <trkpt lat="47.49552" lon="6.6696">
        <ele>367</ele>
        <time>2016-09-25T08:57:35.000Z</time>
      </trkpt>
      <trkpt lat="47.49554" lon="6.66969">
        <ele>367</ele>
        <time>2016-09-25T08:57:36.000Z</time>
      </trkpt>
      <trkpt lat="47.49556" lon="6.66977">
        <ele>367</ele>
        <time>2016-09-25T08:57:37.000Z</time>
      </trkpt>
      <trkpt lat="47.49557" lon="6.66982">
        <ele>367</ele>
        <time>2016-09-25T08:57:42.000Z</time>
      </trkpt>
      <trkpt lat="47.49558" lon="6.66983">
        <ele>367</ele>
        <time>2016-09-25T08:57:43.000Z</time>
      </trkpt>
      <trkpt lat="47.49558" lon="6.66978">
        <ele>367</ele>
        <time>2016-09-25T08:57:53.000Z</time>
      </trkpt>
      <trkpt lat="47.49557" lon="6.66976">
        <ele>367</ele>
        <time>2016-09-25T08:57:54.000Z</time>
      </trkpt>
      <trkpt lat="47.49553" lon="6.66975">
        <ele>367</ele>
        <time>2016-09-25T08:57:57.000Z</time>
      </trkpt>
      <trkpt lat="47.49553" lon="6.66978">
        <ele>367</ele>
        <time>2016-09-25T08:57:58.000Z</time>
      </trkpt>
      <trkpt lat="47.49553" lon="6.66983">
        <ele>366</ele>
        <time>2016-09-25T08:57:59.000Z</time>
      </trkpt>
      <trkpt lat="47.49554" lon="6.66987">
        <ele>366</ele>
        <time>2016-09-25T08:58:00.000Z</time>
      </trkpt>
      <trkpt lat="47.49554" lon="6.66991">
        <ele>366</ele>
        <time>2016-09-25T08:58:01.000Z</time>
      </trkpt>
      <trkpt lat="47.49555" lon="6.66994">
        <ele>366</ele>
        <time>2016-09-25T08:58:02.000Z</time>
      </trkpt>
      <trkpt lat="47.49557" lon="6.66999">
        <ele>366</ele>
        <time>2016-09-25T08:58:05.000Z</time>
      </trkpt>
      <trkpt lat="47.49559" lon="6.67">
        <ele>366</ele>
        <time>2016-09-25T08:58:06.000Z</time>
      </trkpt>
      <trkpt lat="47.49561" lon="6.66997">
        <ele>366</ele>
        <time>2016-09-25T08:58:10.000Z</time>
      </trkpt>
      <trkpt lat="47.49562" lon="6.66996">
        <ele>366</ele>
        <time>2016-09-25T08:58:11.000Z</time>
      </trkpt>
      <trkpt lat="47.49564" lon="6.67002">
        <ele>362</ele>
        <time>2016-09-25T08:58:16.000Z</time>
      </trkpt>
      <trkpt lat="47.49563" lon="6.67005">
        <ele>362</ele>
        <time>2016-09-25T08:58:17.000Z</time>
      </trkpt>
      <trkpt lat="47.49563" lon="6.6701">
        <ele>362</ele>
        <time>2016-09-25T08:58:18.000Z</time>
      </trkpt>
      <trkpt lat="47.49563" lon="6.67014">
        <ele>362</ele>
        <time>2016-09-25T08:58:19.000Z</time>
      </trkpt>
      <trkpt lat="47.49564" lon="6.67019">
        <ele>361</ele>
        <time>2016-09-25T08:58:20.000Z</time>
      </trkpt>
      <trkpt lat="47.49566" lon="6.67023">
        <ele>361</ele>
        <time>2016-09-25T08:58:21.000Z</time>
      </trkpt>
      <trkpt lat="47.49568" lon="6.67027">
        <ele>361</ele>
        <time>2016-09-25T08:58:22.000Z</time>
      </trkpt>
      <trkpt lat="47.49571" lon="6.6703">
        <ele>361</ele>
        <time>2016-09-25T08:58:23.000Z</time>
      </trkpt>
      <trkpt lat="47.49574" lon="6.67033">
        <ele>360</ele>
        <time>2016-09-25T08:58:24.000Z</time>
      </trkpt>
      <trkpt lat="47.49583" lon="6.67037">
        <ele>360</ele>
        <time>2016-09-25T08:58:25.000Z</time>
      </trkpt>
      <trkpt lat="47.49588" lon="6.67042">
        <ele>358</ele>
        <time>2016-09-25T08:58:26.000Z</time>
      </trkpt>
      <trkpt lat="47.49594" lon="6.67045">
        <ele>358</ele>
        <time>2016-09-25T08:58:27.000Z</time>
      </trkpt>
      <trkpt lat="47.49599" lon="6.67048">
        <ele>358</ele>
        <time>2016-09-25T08:58:28.000Z</time>
      </trkpt>
      <trkpt lat="47.49603" lon="6.67052">
        <ele>357</ele>
        <time>2016-09-25T08:58:29.000Z</time>
      </trkpt>
      <trkpt lat="47.49608" lon="6.67056">
        <ele>357</ele>
        <time>2016-09-25T08:58:30.000Z</time>
      </trkpt>
      <trkpt lat="47.49613" lon="6.67062">
        <ele>356</ele>
        <time>2016-09-25T08:58:31.000Z</time>
      </trkpt>
      <trkpt lat="47.49617" lon="6.67068">
        <ele>356</ele>
        <time>2016-09-25T08:58:32.000Z</time>
      </trkpt>
      <trkpt lat="47.49623" lon="6.67074">
        <ele>356</ele>
        <time>2016-09-25T08:58:33.000Z</time>
      </trkpt>
      <trkpt lat="47.49629" lon="6.67072">
        <ele>355</ele>
        <time>2016-09-25T08:58:34.000Z</time>
      </trkpt>
      <trkpt lat="47.4963" lon="6.67076">
        <ele>355</ele>
        <time>2016-09-25T08:58:35.000Z</time>
      </trkpt>
      <trkpt lat="47.49633" lon="6.67079">
        <ele>355</ele>
        <time>2016-09-25T08:58:36.000Z</time>
      </trkpt>
      <trkpt lat="47.49636" lon="6.67084">
        <ele>350</ele>
        <time>2016-09-25T08:58:43.000Z</time>
      </trkpt>
      <trkpt lat="47.49636" lon="6.67084">
        <ele>350</ele>
        <time>2016-09-25T08:58:44.000Z</time>
      </trkpt>
      <trkpt lat="47.49639" lon="6.67088">
        <ele>350</ele>
        <time>2016-09-25T08:58:48.000Z</time>
      </trkpt>
      <trkpt lat="47.49642" lon="6.6709">
        <ele>350</ele>
        <time>2016-09-25T08:58:49.000Z</time>
      </trkpt>
      <trkpt lat="47.49645" lon="6.67091">
        <ele>350</ele>
        <time>2016-09-25T08:58:50.000Z</time>
      </trkpt>
      <trkpt lat="47.49649" lon="6.67093">
        <ele>350</ele>
        <time>2016-09-25T08:58:51.000Z</time>
      </trkpt>
      <trkpt lat="47.49654" lon="6.67095">
        <ele>350</ele>
        <time>2016-09-25T08:58:52.000Z</time>
      </trkpt>
      <trkpt lat="47.49658" lon="6.67097">
        <ele>350</ele>
        <time>2016-09-25T08:58:53.000Z</time>
      </trkpt>
      <trkpt lat="47.49663" lon="6.671">
        <ele>350</ele>
        <time>2016-09-25T08:58:54.000Z</time>
      </trkpt>
      <trkpt lat="47.49668" lon="6.67102">
        <ele>349</ele>
        <time>2016-09-25T08:58:55.000Z</time>
      </trkpt>
      <trkpt lat="47.49674" lon="6.67104">
        <ele>349</ele>
        <time>2016-09-25T08:58:56.000Z</time>
      </trkpt>
      <trkpt lat="47.49679" lon="6.67106">
        <ele>350</ele>
        <time>2016-09-25T08:58:57.000Z</time>
      </trkpt>
      <trkpt lat="47.49683" lon="6.67108">
        <ele>350</ele>
        <time>2016-09-25T08:58:58.000Z</time>
      </trkpt>
      <trkpt lat="47.49687" lon="6.6711">
        <ele>350</ele>
        <time>2016-09-25T08:58:59.000Z</time>
      </trkpt>
      <trkpt lat="47.49692" lon="6.67112">
        <ele>350</ele>
        <time>2016-09-25T08:59:00.000Z</time>
      </trkpt>
      <trkpt lat="47.49696" lon="6.67115">
        <ele>350</ele>
        <time>2016-09-25T08:59:01.000Z</time>
      </trkpt>
      <trkpt lat="47.49709" lon="6.67116">
        <ele>350</ele>
        <time>2016-09-25T08:59:02.000Z</time>
      </trkpt>
      <trkpt lat="47.49711" lon="6.67118">
        <ele>350</ele>
        <time>2016-09-25T08:59:03.000Z</time>
      </trkpt>
      <trkpt lat="47.49714" lon="6.67121">
        <ele>350</ele>
        <time>2016-09-25T08:59:04.000Z</time>
      </trkpt>
      <trkpt lat="47.49715" lon="6.67125">
        <ele>350</ele>
        <time>2016-09-25T08:59:05.000Z</time>
      </trkpt>
      <trkpt lat="47.49716" lon="6.67129">
        <ele>350</ele>
        <time>2016-09-25T08:59:06.000Z</time>
      </trkpt>
      <trkpt lat="47.49719" lon="6.67139">
        <ele>350</ele>
        <time>2016-09-25T08:59:07.000Z</time>
      </trkpt>
      <trkpt lat="47.49723" lon="6.67152">
        <ele>350</ele>
        <time>2016-09-25T08:59:08.000Z</time>
      </trkpt>
      <trkpt lat="47.49726" lon="6.67161">
        <ele>350</ele>
        <time>2016-09-25T08:59:09.000Z</time>
      </trkpt>
      <trkpt lat="47.49729" lon="6.67172">
        <ele>351</ele>
        <time>2016-09-25T08:59:10.000Z</time>
      </trkpt>
      <trkpt lat="47.49732" lon="6.67186">
        <ele>351</ele>
        <time>2016-09-25T08:59:11.000Z</time>
      </trkpt>
      <trkpt lat="47.49735" lon="6.67194">
        <ele>352</ele>
        <time>2016-09-25T08:59:12.000Z</time>
      </trkpt>
      <trkpt lat="47.49737" lon="6.67202">
        <ele>352</ele>
        <time>2016-09-25T08:59:13.000Z</time>
      </trkpt>
      <trkpt lat="47.49739" lon="6.67209">
        <ele>352</ele>
        <time>2016-09-25T08:59:14.000Z</time>
      </trkpt>
      <trkpt lat="47.49741" lon="6.67215">
        <ele>352</ele>
        <time>2016-09-25T08:59:15.000Z</time>
      </trkpt>
      <trkpt lat="47.49741" lon="6.67218">
        <ele>352</ele>
        <time>2016-09-25T08:59:16.000Z</time>
      </trkpt>
      <trkpt lat="47.49744" lon="6.67222">
        <ele>352</ele>
        <time>2016-09-25T08:59:18.000Z</time>
      </trkpt>
      <trkpt lat="47.49752" lon="6.67227">
        <ele>353</ele>
        <time>2016-09-25T08:59:19.000Z</time>
      </trkpt>
      <trkpt lat="47.49755" lon="6.67228">
        <ele>353</ele>
        <time>2016-09-25T08:59:20.000Z</time>
      </trkpt>
      <trkpt lat="47.49757" lon="6.67229">
        <ele>353</ele>
        <time>2016-09-25T08:59:21.000Z</time>
      </trkpt>
      <trkpt lat="47.49761" lon="6.67229">
        <ele>353</ele>
        <time>2016-09-25T08:59:24.000Z</time>
      </trkpt>
      <trkpt lat="47.49762" lon="6.67229">
        <ele>354</ele>
        <time>2016-09-25T08:59:25.000Z</time>
      </trkpt>
      <trkpt lat="47.49766" lon="6.67226">
        <ele>354</ele>
        <time>2016-09-25T08:59:29.000Z</time>
      </trkpt>
      <trkpt lat="47.49768" lon="6.67225">
        <ele>354</ele>
        <time>2016-09-25T08:59:30.000Z</time>
      </trkpt>
      <trkpt lat="47.4977" lon="6.67223">
        <ele>354</ele>
        <time>2016-09-25T08:59:31.000Z</time>
      </trkpt>
      <trkpt lat="47.49772" lon="6.67222">
        <ele>354</ele>
        <time>2016-09-25T08:59:32.000Z</time>
      </trkpt>
      <trkpt lat="47.49775" lon="6.6722">
        <ele>354</ele>
        <time>2016-09-25T08:59:34.000Z</time>
      </trkpt>
      <trkpt lat="47.49777" lon="6.67219">
        <ele>354</ele>
        <time>2016-09-25T08:59:35.000Z</time>
      </trkpt>
      <trkpt lat="47.4978" lon="6.67217">
        <ele>354</ele>
        <time>2016-09-25T08:59:37.000Z</time>
      </trkpt>
      <trkpt lat="47.49781" lon="6.67216">
        <ele>354</ele>
        <time>2016-09-25T08:59:38.000Z</time>
      </trkpt>
      <trkpt lat="47.49784" lon="6.67215">
        <ele>354</ele>
        <time>2016-09-25T08:59:39.000Z</time>
      </trkpt>
      <trkpt lat="47.49786" lon="6.67214">
        <ele>354</ele>
        <time>2016-09-25T08:59:40.000Z</time>
      </trkpt>
      <trkpt lat="47.4979" lon="6.67212">
        <ele>354</ele>
        <time>2016-09-25T08:59:42.000Z</time>
      </trkpt>
      <trkpt lat="47.49791" lon="6.67211">
        <ele>354</ele>
        <time>2016-09-25T08:59:43.000Z</time>
      </trkpt>
      <trkpt lat="47.49792" lon="6.67206">
        <ele>354</ele>
        <time>2016-09-25T08:59:46.000Z</time>
      </trkpt>
      <trkpt lat="47.49793" lon="6.67204">
        <ele>354</ele>
        <time>2016-09-25T08:59:47.000Z</time>
      </trkpt>
      <trkpt lat="47.49796" lon="6.67201">
        <ele>354</ele>
        <time>2016-09-25T08:59:49.000Z</time>
      </trkpt>
      <trkpt lat="47.49798" lon="6.672">
        <ele>354</ele>
        <time>2016-09-25T08:59:50.000Z</time>
      </trkpt>
      <trkpt lat="47.49802" lon="6.67197">
        <ele>354</ele>
        <time>2016-09-25T08:59:52.000Z</time>
      </trkpt>
      <trkpt lat="47.49804" lon="6.67195">
        <ele>354</ele>
        <time>2016-09-25T08:59:53.000Z</time>
      </trkpt>
      <trkpt lat="47.49806" lon="6.67193">
        <ele>354</ele>
        <time>2016-09-25T08:59:54.000Z</time>
      </trkpt>
      <trkpt lat="47.49808" lon="6.67191">
        <ele>354</ele>
        <time>2016-09-25T08:59:55.000Z</time>
      </trkpt>
      <trkpt lat="47.4981" lon="6.67189">
        <ele>354</ele>
        <time>2016-09-25T08:59:56.000Z</time>
      </trkpt>
      <trkpt lat="47.49812" lon="6.67187">
        <ele>354</ele>
        <time>2016-09-25T08:59:57.000Z</time>
      </trkpt>
      <trkpt lat="47.49814" lon="6.67185">
        <ele>354</ele>
        <time>2016-09-25T08:59:58.000Z</time>
      </trkpt>
      <trkpt lat="47.49817" lon="6.67182">
        <ele>354</ele>
        <time>2016-09-25T08:59:59.000Z</time>
      </trkpt>
      <trkpt lat="47.49819" lon="6.67178">
        <ele>354</ele>
        <time>2016-09-25T09:00:00.000Z</time>
      </trkpt>
      <trkpt lat="47.49822" lon="6.67175">
        <ele>355</ele>
        <time>2016-09-25T09:00:01.000Z</time>
      </trkpt>
      <trkpt lat="47.49824" lon="6.67172">
        <ele>355</ele>
        <time>2016-09-25T09:00:02.000Z</time>
      </trkpt>
      <trkpt lat="47.49828" lon="6.67169">
        <ele>355</ele>
        <time>2016-09-25T09:00:03.000Z</time>
      </trkpt>
      <trkpt lat="47.49831" lon="6.67166">
        <ele>355</ele>
        <time>2016-09-25T09:00:04.000Z</time>
      </trkpt>
      <trkpt lat="47.49834" lon="6.67163">
        <ele>356</ele>
        <time>2016-09-25T09:00:05.000Z</time>
      </trkpt>
      <trkpt lat="47.49837" lon="6.67159">
        <ele>356</ele>
        <time>2016-09-25T09:00:06.000Z</time>
      </trkpt>
      <trkpt lat="47.4984" lon="6.67156">
        <ele>357</ele>
        <time>2016-09-25T09:00:07.000Z</time>
      </trkpt>
      <trkpt lat="47.49843" lon="6.67153">
        <ele>357</ele>
        <time>2016-09-25T09:00:08.000Z</time>
      </trkpt>
      <trkpt lat="47.49846" lon="6.67152">
        <ele>357</ele>
        <time>2016-09-25T09:00:09.000Z</time>
      </trkpt>
      <trkpt lat="47.49848" lon="6.67151">
        <ele>357</ele>
        <time>2016-09-25T09:00:10.000Z</time>
      </trkpt>
      <trkpt lat="47.49851" lon="6.67149">
        <ele>358</ele>
        <time>2016-09-25T09:00:11.000Z</time>
      </trkpt>
      <trkpt lat="47.49853" lon="6.67146">
        <ele>358</ele>
        <time>2016-09-25T09:00:12.000Z</time>
      </trkpt>
      <trkpt lat="47.49855" lon="6.67142">
        <ele>358</ele>
        <time>2016-09-25T09:00:13.000Z</time>
      </trkpt>
      <trkpt lat="47.49858" lon="6.67137">
        <ele>358</ele>
        <time>2016-09-25T09:00:14.000Z</time>
      </trkpt>
      <trkpt lat="47.49859" lon="6.67133">
        <ele>358</ele>
        <time>2016-09-25T09:00:15.000Z</time>
      </trkpt>
      <trkpt lat="47.49861" lon="6.67129">
        <ele>358</ele>
        <time>2016-09-25T09:00:16.000Z</time>
      </trkpt>
      <trkpt lat="47.49862" lon="6.67126">
        <ele>358</ele>
        <time>2016-09-25T09:00:17.000Z</time>
      </trkpt>
      <trkpt lat="47.49863" lon="6.6712">
        <ele>358</ele>
        <time>2016-09-25T09:00:19.000Z</time>
      </trkpt>
      <trkpt lat="47.49863" lon="6.67116">
        <ele>358</ele>
        <time>2016-09-25T09:00:20.000Z</time>
      </trkpt>
      <trkpt lat="47.49864" lon="6.67113">
        <ele>358</ele>
        <time>2016-09-25T09:00:21.000Z</time>
      </trkpt>
      <trkpt lat="47.49863" lon="6.67109">
        <ele>358</ele>
        <time>2016-09-25T09:00:22.000Z</time>
      </trkpt>
      <trkpt lat="47.49863" lon="6.67104">
        <ele>358</ele>
        <time>2016-09-25T09:00:23.000Z</time>
      </trkpt>
      <trkpt lat="47.49863" lon="6.67099">
        <ele>358</ele>
        <time>2016-09-25T09:00:24.000Z</time>
      </trkpt>
      <trkpt lat="47.49862" lon="6.67093">
        <ele>357</ele>
        <time>2016-09-25T09:00:25.000Z</time>
      </trkpt>
      <trkpt lat="47.49863" lon="6.67088">
        <ele>357</ele>
        <time>2016-09-25T09:00:26.000Z</time>
      </trkpt>
      <trkpt lat="47.49865" lon="6.67084">
        <ele>358</ele>
        <time>2016-09-25T09:00:27.000Z</time>
      </trkpt>
      <trkpt lat="47.49867" lon="6.67078">
        <ele>356</ele>
        <time>2016-09-25T09:00:28.000Z</time>
      </trkpt>
      <trkpt lat="47.49869" lon="6.67073">
        <ele>357</ele>
        <time>2016-09-25T09:00:29.000Z</time>
      </trkpt>
      <trkpt lat="47.49871" lon="6.67068">
        <ele>357</ele>
        <time>2016-09-25T09:00:30.000Z</time>
      </trkpt>
      <trkpt lat="47.49873" lon="6.67063">
        <ele>357</ele>
        <time>2016-09-25T09:00:31.000Z</time>
      </trkpt>
      <trkpt lat="47.49874" lon="6.67059">
        <ele>357</ele>
        <time>2016-09-25T09:00:32.000Z</time>
      </trkpt>
      <trkpt lat="47.49876" lon="6.67054">
        <ele>357</ele>
        <time>2016-09-25T09:00:33.000Z</time>
      </trkpt>
      <trkpt lat="47.49878" lon="6.67048">
        <ele>357</ele>
        <time>2016-09-25T09:00:34.000Z</time>
      </trkpt>
      <trkpt lat="47.49881" lon="6.67042">
        <ele>357</ele>
        <time>2016-09-25T09:00:35.000Z</time>
      </trkpt>
      <trkpt lat="47.49883" lon="6.67035">
        <ele>357</ele>
        <time>2016-09-25T09:00:36.000Z</time>
      </trkpt>
      <trkpt lat="47.49886" lon="6.67028">
        <ele>357</ele>
        <time>2016-09-25T09:00:37.000Z</time>
      </trkpt>
      <trkpt lat="47.49888" lon="6.67022">
        <ele>357</ele>
        <time>2016-09-25T09:00:38.000Z</time>
      </trkpt>
      <trkpt lat="47.4989" lon="6.67016">
        <ele>357</ele>
        <time>2016-09-25T09:00:39.000Z</time>
      </trkpt>
      <trkpt lat="47.49893" lon="6.6701">
        <ele>357</ele>
        <time>2016-09-25T09:00:40.000Z</time>
      </trkpt>
      <trkpt lat="47.49895" lon="6.67004">
        <ele>358</ele>
        <time>2016-09-25T09:00:41.000Z</time>
      </trkpt>
      <trkpt lat="47.49898" lon="6.66998">
        <ele>357</ele>
        <time>2016-09-25T09:00:42.000Z</time>
      </trkpt>
      <trkpt lat="47.49901" lon="6.66992">
        <ele>357</ele>
        <time>2016-09-25T09:00:43.000Z</time>
      </trkpt>
      <trkpt lat="47.49904" lon="6.66985">
        <ele>357</ele>
        <time>2016-09-25T09:00:44.000Z</time>
      </trkpt>
      <trkpt lat="47.49907" lon="6.66979">
        <ele>357</ele>
        <time>2016-09-25T09:00:45.000Z</time>
      </trkpt>
      <trkpt lat="47.4991" lon="6.66973">
        <ele>357</ele>
        <time>2016-09-25T09:00:46.000Z</time>
      </trkpt>
      <trkpt lat="47.49914" lon="6.66967">
        <ele>357</ele>
        <time>2016-09-25T09:00:47.000Z</time>
      </trkpt>
      <trkpt lat="47.49917" lon="6.66962">
        <ele>359</ele>
        <time>2016-09-25T09:00:48.000Z</time>
      </trkpt>
      <trkpt lat="47.4992" lon="6.66957">
        <ele>359</ele>
        <time>2016-09-25T09:00:49.000Z</time>
      </trkpt>
      <trkpt lat="47.49923" lon="6.66953">
        <ele>359</ele>
        <time>2016-09-25T09:00:50.000Z</time>
      </trkpt>
      <trkpt lat="47.49926" lon="6.66951">
        <ele>359</ele>
        <time>2016-09-25T09:00:51.000Z</time>
      </trkpt>
      <trkpt lat="47.49929" lon="6.66948">
        <ele>359</ele>
        <time>2016-09-25T09:00:52.000Z</time>
      </trkpt>
      <trkpt lat="47.49932" lon="6.66945">
        <ele>359</ele>
        <time>2016-09-25T09:00:53.000Z</time>
      </trkpt>
      <trkpt lat="47.49935" lon="6.66943">
        <ele>359</ele>
        <time>2016-09-25T09:00:54.000Z</time>
      </trkpt>
      <trkpt lat="47.49938" lon="6.66942">
        <ele>359</ele>
        <time>2016-09-25T09:00:55.000Z</time>
      </trkpt>
      <trkpt lat="47.49942" lon="6.66938">
        <ele>359</ele>
        <time>2016-09-25T09:00:56.000Z</time>
      </trkpt>
      <trkpt lat="47.49945" lon="6.66934">
        <ele>359</ele>
        <time>2016-09-25T09:00:57.000Z</time>
      </trkpt>
      <trkpt lat="47.49948" lon="6.66931">
        <ele>359</ele>
        <time>2016-09-25T09:00:58.000Z</time>
      </trkpt>
      <trkpt lat="47.49951" lon="6.66928">
        <ele>360</ele>
        <time>2016-09-25T09:00:59.000Z</time>
      </trkpt>
      <trkpt lat="47.49953" lon="6.66926">
        <ele>360</ele>
        <time>2016-09-25T09:01:00.000Z</time>
      </trkpt>
      <trkpt lat="47.49956" lon="6.66922">
        <ele>360</ele>
        <time>2016-09-25T09:01:03.000Z</time>
      </trkpt>
      <trkpt lat="47.49957" lon="6.66921">
        <ele>360</ele>
        <time>2016-09-25T09:01:04.000Z</time>
      </trkpt>
      <trkpt lat="47.49959" lon="6.6692">
        <ele>360</ele>
        <time>2016-09-25T09:01:06.000Z</time>
      </trkpt>
      <trkpt lat="47.49961" lon="6.66919">
        <ele>360</ele>
        <time>2016-09-25T09:01:07.000Z</time>
      </trkpt>
      <trkpt lat="47.49964" lon="6.66918">
        <ele>360</ele>
        <time>2016-09-25T09:01:08.000Z</time>
      </trkpt>
      <trkpt lat="47.49966" lon="6.66917">
        <ele>359</ele>
        <time>2016-09-25T09:01:09.000Z</time>
      </trkpt>
      <trkpt lat="47.49968" lon="6.66916">
        <ele>359</ele>
        <time>2016-09-25T09:01:10.000Z</time>
      </trkpt>
      <trkpt lat="47.49971" lon="6.66915">
        <ele>359</ele>
        <time>2016-09-25T09:01:11.000Z</time>
      </trkpt>
      <trkpt lat="47.49974" lon="6.66914">
        <ele>359</ele>
        <time>2016-09-25T09:01:12.000Z</time>
      </trkpt>
      <trkpt lat="47.49976" lon="6.66913">
        <ele>359</ele>
        <time>2016-09-25T09:01:13.000Z</time>
      </trkpt>
      <trkpt lat="47.49979" lon="6.66912">
        <ele>359</ele>
        <time>2016-09-25T09:01:14.000Z</time>
      </trkpt>
      <trkpt lat="47.49982" lon="6.66909">
        <ele>359</ele>
        <time>2016-09-25T09:01:15.000Z</time>
      </trkpt>
      <trkpt lat="47.49985" lon="6.66907">
        <ele>359</ele>
        <time>2016-09-25T09:01:16.000Z</time>
      </trkpt>
      <trkpt lat="47.49988" lon="6.66904">
        <ele>359</ele>
        <time>2016-09-25T09:01:17.000Z</time>
      </trkpt>
      <trkpt lat="47.49991" lon="6.66901">
        <ele>359</ele>
        <time>2016-09-25T09:01:18.000Z</time>
      </trkpt>
      <trkpt lat="47.49994" lon="6.66898">
        <ele>359</ele>
        <time>2016-09-25T09:01:19.000Z</time>
      </trkpt>
      <trkpt lat="47.49998" lon="6.66896">
        <ele>359</ele>
        <time>2016-09-25T09:01:20.000Z</time>
      </trkpt>
      <trkpt lat="47.50002" lon="6.66894">
        <ele>361</ele>
        <time>2016-09-25T09:01:21.000Z</time>
      </trkpt>
      <trkpt lat="47.50005" lon="6.66893">
        <ele>361</ele>
        <time>2016-09-25T09:01:22.000Z</time>
      </trkpt>
      <trkpt lat="47.50009" lon="6.66892">
        <ele>361</ele>
        <time>2016-09-25T09:01:23.000Z</time>
      </trkpt>
      <trkpt lat="47.50013" lon="6.6689">
        <ele>361</ele>
        <time>2016-09-25T09:01:24.000Z</time>
      </trkpt>
      <trkpt lat="47.50018" lon="6.66887">
        <ele>361</ele>
        <time>2016-09-25T09:01:25.000Z</time>
      </trkpt>
      <trkpt lat="47.50022" lon="6.66884">
        <ele>362</ele>
        <time>2016-09-25T09:01:26.000Z</time>
      </trkpt>
      <trkpt lat="47.50027" lon="6.6688">
        <ele>362</ele>
        <time>2016-09-25T09:01:27.000Z</time>
      </trkpt>
      <trkpt lat="47.5003" lon="6.66876">
        <ele>362</ele>
        <time>2016-09-25T09:01:28.000Z</time>
      </trkpt>
      <trkpt lat="47.50034" lon="6.66873">
        <ele>362</ele>
        <time>2016-09-25T09:01:29.000Z</time>
      </trkpt>
      <trkpt lat="47.50038" lon="6.66872">
        <ele>362</ele>
        <time>2016-09-25T09:01:30.000Z</time>
      </trkpt>
      <trkpt lat="47.50042" lon="6.6687">
        <ele>362</ele>
        <time>2016-09-25T09:01:31.000Z</time>
      </trkpt>
      <trkpt lat="47.50045" lon="6.66869">
        <ele>362</ele>
        <time>2016-09-25T09:01:32.000Z</time>
      </trkpt>
      <trkpt lat="47.50049" lon="6.66867">
        <ele>362</ele>
        <time>2016-09-25T09:01:33.000Z</time>
      </trkpt>
      <trkpt lat="47.50052" lon="6.66864">
        <ele>362</ele>
        <time>2016-09-25T09:01:34.000Z</time>
      </trkpt>
      <trkpt lat="47.50055" lon="6.6686">
        <ele>362</ele>
        <time>2016-09-25T09:01:35.000Z</time>
      </trkpt>
      <trkpt lat="47.50059" lon="6.66856">
        <ele>362</ele>
        <time>2016-09-25T09:01:36.000Z</time>
      </trkpt>
      <trkpt lat="47.50062" lon="6.66852">
        <ele>363</ele>
        <time>2016-09-25T09:01:37.000Z</time>
      </trkpt>
      <trkpt lat="47.50066" lon="6.66847">
        <ele>363</ele>
        <time>2016-09-25T09:01:38.000Z</time>
      </trkpt>
      <trkpt lat="47.50069" lon="6.66842">
        <ele>363</ele>
        <time>2016-09-25T09:01:39.000Z</time>
      </trkpt>
      <trkpt lat="47.50073" lon="6.66838">
        <ele>363</ele>
        <time>2016-09-25T09:01:40.000Z</time>
      </trkpt>
      <trkpt lat="47.50076" lon="6.66833">
        <ele>363</ele>
        <time>2016-09-25T09:01:41.000Z</time>
      </trkpt>
      <trkpt lat="47.50079" lon="6.66829">
        <ele>363</ele>
        <time>2016-09-25T09:01:42.000Z</time>
      </trkpt>
      <trkpt lat="47.50081" lon="6.66826">
        <ele>363</ele>
        <time>2016-09-25T09:01:43.000Z</time>
      </trkpt>
      <trkpt lat="47.50084" lon="6.66823">
        <ele>363</ele>
        <time>2016-09-25T09:01:44.000Z</time>
      </trkpt>
      <trkpt lat="47.50086" lon="6.6682">
        <ele>363</ele>
        <time>2016-09-25T09:01:45.000Z</time>
      </trkpt>
      <trkpt lat="47.50089" lon="6.66818">
        <ele>363</ele>
        <time>2016-09-25T09:01:46.000Z</time>
      </trkpt>
      <trkpt lat="47.50092" lon="6.66816">
        <ele>363</ele>
        <time>2016-09-25T09:01:47.000Z</time>
      </trkpt>
      <trkpt lat="47.50095" lon="6.66813">
        <ele>363</ele>
        <time>2016-09-25T09:01:48.000Z</time>
      </trkpt>
      <trkpt lat="47.50098" lon="6.66809">
        <ele>363</ele>
        <time>2016-09-25T09:01:50.000Z</time>
      </trkpt>
      <trkpt lat="47.50098" lon="6.66808">
        <ele>363</ele>
        <time>2016-09-25T09:01:51.000Z</time>
      </trkpt>
      <trkpt lat="47.50102" lon="6.66805">
        <ele>362</ele>
        <time>2016-09-25T09:01:54.000Z</time>
      </trkpt>
      <trkpt lat="47.50104" lon="6.66804">
        <ele>362</ele>
        <time>2016-09-25T09:01:55.000Z</time>
      </trkpt>
      <trkpt lat="47.50106" lon="6.66803">
        <ele>362</ele>
        <time>2016-09-25T09:01:56.000Z</time>
      </trkpt>
      <trkpt lat="47.50108" lon="6.66801">
        <ele>362</ele>
        <time>2016-09-25T09:01:57.000Z</time>
      </trkpt>
      <trkpt lat="47.50111" lon="6.668">
        <ele>362</ele>
        <time>2016-09-25T09:01:58.000Z</time>
      </trkpt>
      <trkpt lat="47.50115" lon="6.66798">
        <ele>362</ele>
        <time>2016-09-25T09:01:59.000Z</time>
      </trkpt>
      <trkpt lat="47.50119" lon="6.66797">
        <ele>362</ele>
        <time>2016-09-25T09:02:00.000Z</time>
      </trkpt>
      <trkpt lat="47.50123" lon="6.66795">
        <ele>362</ele>
        <time>2016-09-25T09:02:01.000Z</time>
      </trkpt>
      <trkpt lat="47.50127" lon="6.66793">
        <ele>362</ele>
        <time>2016-09-25T09:02:02.000Z</time>
      </trkpt>
      <trkpt lat="47.50131" lon="6.66789">
        <ele>362</ele>
        <time>2016-09-25T09:02:03.000Z</time>
      </trkpt>
      <trkpt lat="47.50134" lon="6.66786">
        <ele>362</ele>
        <time>2016-09-25T09:02:04.000Z</time>
      </trkpt>
      <trkpt lat="47.50138" lon="6.66781">
        <ele>362</ele>
        <time>2016-09-25T09:02:05.000Z</time>
      </trkpt>
      <trkpt lat="47.50141" lon="6.66778">
        <ele>362</ele>
        <time>2016-09-25T09:02:06.000Z</time>
      </trkpt>
      <trkpt lat="47.50145" lon="6.66775">
        <ele>362</ele>
        <time>2016-09-25T09:02:07.000Z</time>
      </trkpt>
      <trkpt lat="47.50148" lon="6.66771">
        <ele>362</ele>
        <time>2016-09-25T09:02:08.000Z</time>
      </trkpt>
      <trkpt lat="47.50152" lon="6.66768">
        <ele>362</ele>
        <time>2016-09-25T09:02:09.000Z</time>
      </trkpt>
      <trkpt lat="47.50156" lon="6.66765">
        <ele>362</ele>
        <time>2016-09-25T09:02:10.000Z</time>
      </trkpt>
      <trkpt lat="47.50159" lon="6.66762">
        <ele>362</ele>
        <time>2016-09-25T09:02:11.000Z</time>
      </trkpt>
      <trkpt lat="47.50162" lon="6.6676">
        <ele>362</ele>
        <time>2016-09-25T09:02:12.000Z</time>
      </trkpt>
      <trkpt lat="47.50165" lon="6.66757">
        <ele>362</ele>
        <time>2016-09-25T09:02:13.000Z</time>
      </trkpt>
      <trkpt lat="47.50168" lon="6.66754">
        <ele>362</ele>
        <time>2016-09-25T09:02:14.000Z</time>
      </trkpt>
      <trkpt lat="47.50172" lon="6.66751">
        <ele>362</ele>
        <time>2016-09-25T09:02:15.000Z</time>
      </trkpt>
      <trkpt lat="47.50175" lon="6.66747">
        <ele>361</ele>
        <time>2016-09-25T09:02:16.000Z</time>
      </trkpt>
      <trkpt lat="47.5018" lon="6.66742">
        <ele>361</ele>
        <time>2016-09-25T09:02:17.000Z</time>
      </trkpt>
      <trkpt lat="47.50184" lon="6.66738">
        <ele>361</ele>
        <time>2016-09-25T09:02:18.000Z</time>
      </trkpt>
      <trkpt lat="47.50188" lon="6.66734">
        <ele>360</ele>
        <time>2016-09-25T09:02:19.000Z</time>
      </trkpt>
      <trkpt lat="47.50192" lon="6.6673">
        <ele>360</ele>
        <time>2016-09-25T09:02:20.000Z</time>
      </trkpt>
      <trkpt lat="47.50196" lon="6.66726">
        <ele>360</ele>
        <time>2016-09-25T09:02:21.000Z</time>
      </trkpt>
      <trkpt lat="47.502" lon="6.66722">
        <ele>360</ele>
        <time>2016-09-25T09:02:22.000Z</time>
      </trkpt>
      <trkpt lat="47.50204" lon="6.66719">
        <ele>360</ele>
        <time>2016-09-25T09:02:23.000Z</time>
      </trkpt>
      <trkpt lat="47.50208" lon="6.66715">
        <ele>360</ele>
        <time>2016-09-25T09:02:24.000Z</time>
      </trkpt>
      <trkpt lat="47.50212" lon="6.66712">
        <ele>360</ele>
        <time>2016-09-25T09:02:25.000Z</time>
      </trkpt>
      <trkpt lat="47.50216" lon="6.66708">
        <ele>360</ele>
        <time>2016-09-25T09:02:26.000Z</time>
      </trkpt>
      <trkpt lat="47.50221" lon="6.66705">
        <ele>360</ele>
        <time>2016-09-25T09:02:27.000Z</time>
      </trkpt>
      <trkpt lat="47.50225" lon="6.66702">
        <ele>360</ele>
        <time>2016-09-25T09:02:28.000Z</time>
      </trkpt>
      <trkpt lat="47.50229" lon="6.66699">
        <ele>359</ele>
        <time>2016-09-25T09:02:29.000Z</time>
      </trkpt>
      <trkpt lat="47.50233" lon="6.66695">
        <ele>359</ele>
        <time>2016-09-25T09:02:30.000Z</time>
      </trkpt>
      <trkpt lat="47.50236" lon="6.66689">
        <ele>359</ele>
        <time>2016-09-25T09:02:31.000Z</time>
      </trkpt>
      <trkpt lat="47.50239" lon="6.66683">
        <ele>359</ele>
        <time>2016-09-25T09:02:32.000Z</time>
      </trkpt>
      <trkpt lat="47.50242" lon="6.66677">
        <ele>359</ele>
        <time>2016-09-25T09:02:33.000Z</time>
      </trkpt>
      <trkpt lat="47.50246" lon="6.66671">
        <ele>359</ele>
        <time>2016-09-25T09:02:34.000Z</time>
      </trkpt>
      <trkpt lat="47.5025" lon="6.66665">
        <ele>359</ele>
        <time>2016-09-25T09:02:35.000Z</time>
      </trkpt>
      <trkpt lat="47.50254" lon="6.66661">
        <ele>359</ele>
        <time>2016-09-25T09:02:36.000Z</time>
      </trkpt>
      <trkpt lat="47.50257" lon="6.66659">
        <ele>358</ele>
        <time>2016-09-25T09:02:37.000Z</time>
      </trkpt>
      <trkpt lat="47.50261" lon="6.66657">
        <ele>358</ele>
        <time>2016-09-25T09:02:38.000Z</time>
      </trkpt>
      <trkpt lat="47.50264" lon="6.66654">
        <ele>358</ele>
        <time>2016-09-25T09:02:39.000Z</time>
      </trkpt>
      <trkpt lat="47.50268" lon="6.66652">
        <ele>358</ele>
        <time>2016-09-25T09:02:40.000Z</time>
      </trkpt>
      <trkpt lat="47.5027" lon="6.66651">
        <ele>358</ele>
        <time>2016-09-25T09:02:41.000Z</time>
      </trkpt>
      <trkpt lat="47.50273" lon="6.6665">
        <ele>358</ele>
        <time>2016-09-25T09:02:42.000Z</time>
      </trkpt>
      <trkpt lat="47.50277" lon="6.66651">
        <ele>358</ele>
        <time>2016-09-25T09:02:44.000Z</time>
      </trkpt>
      <trkpt lat="47.50279" lon="6.66652">
        <ele>358</ele>
        <time>2016-09-25T09:02:45.000Z</time>
      </trkpt>
      <trkpt lat="47.50282" lon="6.66654">
        <ele>358</ele>
        <time>2016-09-25T09:02:46.000Z</time>
      </trkpt>
      <trkpt lat="47.50284" lon="6.66655">
        <ele>358</ele>
        <time>2016-09-25T09:02:47.000Z</time>
      </trkpt>
      <trkpt lat="47.50287" lon="6.66657">
        <ele>358</ele>
        <time>2016-09-25T09:02:48.000Z</time>
      </trkpt>
      <trkpt lat="47.5029" lon="6.66658">
        <ele>358</ele>
        <time>2016-09-25T09:02:49.000Z</time>
      </trkpt>
      <trkpt lat="47.50292" lon="6.66661">
        <ele>358</ele>
        <time>2016-09-25T09:02:50.000Z</time>
      </trkpt>
      <trkpt lat="47.50295" lon="6.66663">
        <ele>358</ele>
        <time>2016-09-25T09:02:51.000Z</time>
      </trkpt>
      <trkpt lat="47.50298" lon="6.66666">
        <ele>358</ele>
        <time>2016-09-25T09:02:52.000Z</time>
      </trkpt>
      <trkpt lat="47.503" lon="6.66668">
        <ele>359</ele>
        <time>2016-09-25T09:02:53.000Z</time>
      </trkpt>
      <trkpt lat="47.50303" lon="6.66672">
        <ele>359</ele>
        <time>2016-09-25T09:02:54.000Z</time>
      </trkpt>
      <trkpt lat="47.50306" lon="6.66675">
        <ele>359</ele>
        <time>2016-09-25T09:02:55.000Z</time>
      </trkpt>
      <trkpt lat="47.50309" lon="6.66677">
        <ele>359</ele>
        <time>2016-09-25T09:02:56.000Z</time>
      </trkpt>
      <trkpt lat="47.50311" lon="6.66681">
        <ele>359</ele>
        <time>2016-09-25T09:02:57.000Z</time>
      </trkpt>
      <trkpt lat="47.50314" lon="6.66684">
        <ele>359</ele>
        <time>2016-09-25T09:02:58.000Z</time>
      </trkpt>
      <trkpt lat="47.50317" lon="6.66688">
        <ele>359</ele>
        <time>2016-09-25T09:02:59.000Z</time>
      </trkpt>
      <trkpt lat="47.50321" lon="6.66692">
        <ele>359</ele>
        <time>2016-09-25T09:03:00.000Z</time>
      </trkpt>
      <trkpt lat="47.50325" lon="6.66697">
        <ele>359</ele>
        <time>2016-09-25T09:03:01.000Z</time>
      </trkpt>
      <trkpt lat="47.5033" lon="6.66701">
        <ele>359</ele>
        <time>2016-09-25T09:03:02.000Z</time>
      </trkpt>
      <trkpt lat="47.50334" lon="6.66703">
        <ele>358</ele>
        <time>2016-09-25T09:03:03.000Z</time>
      </trkpt>
      <trkpt lat="47.50337" lon="6.66703">
        <ele>358</ele>
        <time>2016-09-25T09:03:04.000Z</time>
      </trkpt>
      <trkpt lat="47.5034" lon="6.66703">
        <ele>358</ele>
        <time>2016-09-25T09:03:05.000Z</time>
      </trkpt>
      <trkpt lat="47.50343" lon="6.66702">
        <ele>358</ele>
        <time>2016-09-25T09:03:06.000Z</time>
      </trkpt>
      <trkpt lat="47.50346" lon="6.66701">
        <ele>358</ele>
        <time>2016-09-25T09:03:07.000Z</time>
      </trkpt>
      <trkpt lat="47.50348" lon="6.667">
        <ele>358</ele>
        <time>2016-09-25T09:03:08.000Z</time>
      </trkpt>
      <trkpt lat="47.50351" lon="6.66699">
        <ele>358</ele>
        <time>2016-09-25T09:03:09.000Z</time>
      </trkpt>
      <trkpt lat="47.50354" lon="6.66697">
        <ele>358</ele>
        <time>2016-09-25T09:03:11.000Z</time>
      </trkpt>
      <trkpt lat="47.50356" lon="6.66697">
        <ele>358</ele>
        <time>2016-09-25T09:03:12.000Z</time>
      </trkpt>
      <trkpt lat="47.50359" lon="6.66697">
        <ele>358</ele>
        <time>2016-09-25T09:03:14.000Z</time>
      </trkpt>
      <trkpt lat="47.50361" lon="6.66697">
        <ele>358</ele>
        <time>2016-09-25T09:03:15.000Z</time>
      </trkpt>
      <trkpt lat="47.50364" lon="6.66695">
        <ele>358</ele>
        <time>2016-09-25T09:03:17.000Z</time>
      </trkpt>
      <trkpt lat="47.50366" lon="6.66693">
        <ele>358</ele>
        <time>2016-09-25T09:03:18.000Z</time>
      </trkpt>
      <trkpt lat="47.50369" lon="6.6669">
        <ele>358</ele>
        <time>2016-09-25T09:03:20.000Z</time>
      </trkpt>
      <trkpt lat="47.5037" lon="6.66689">
        <ele>358</ele>
        <time>2016-09-25T09:03:21.000Z</time>
      </trkpt>
      <trkpt lat="47.50374" lon="6.66687">
        <ele>358</ele>
        <time>2016-09-25T09:03:25.000Z</time>
      </trkpt>
      <trkpt lat="47.50375" lon="6.66687">
        <ele>358</ele>
        <time>2016-09-25T09:03:26.000Z</time>
      </trkpt>
      <trkpt lat="47.50378" lon="6.66683">
        <ele>358</ele>
        <time>2016-09-25T09:03:30.000Z</time>
      </trkpt>
      <trkpt lat="47.50379" lon="6.66683">
        <ele>358</ele>
        <time>2016-09-25T09:03:31.000Z</time>
      </trkpt>
      <trkpt lat="47.50383" lon="6.6668">
        <ele>358</ele>
        <time>2016-09-25T09:03:35.000Z</time>
      </trkpt>
      <trkpt lat="47.50383" lon="6.66679">
        <ele>358</ele>
        <time>2016-09-25T09:03:36.000Z</time>
      </trkpt>
      <trkpt lat="47.50386" lon="6.66677">
        <ele>358</ele>
        <time>2016-09-25T09:03:39.000Z</time>
      </trkpt>
      <trkpt lat="47.50387" lon="6.66676">
        <ele>359</ele>
        <time>2016-09-25T09:03:40.000Z</time>
      </trkpt>
      <trkpt lat="47.50391" lon="6.66673">
        <ele>359</ele>
        <time>2016-09-25T09:03:44.000Z</time>
      </trkpt>
      <trkpt lat="47.50392" lon="6.66672">
        <ele>359</ele>
        <time>2016-09-25T09:03:45.000Z</time>
      </trkpt>
      <trkpt lat="47.50396" lon="6.66672">
        <ele>359</ele>
        <time>2016-09-25T09:03:49.000Z</time>
      </trkpt>
      <trkpt lat="47.50397" lon="6.66671">
        <ele>359</ele>
        <time>2016-09-25T09:03:50.000Z</time>
      </trkpt>
      <trkpt lat="47.50401" lon="6.6667">
        <ele>359</ele>
        <time>2016-09-25T09:03:54.000Z</time>
      </trkpt>
      <trkpt lat="47.50403" lon="6.6667">
        <ele>359</ele>
        <time>2016-09-25T09:03:55.000Z</time>
      </trkpt>
      <trkpt lat="47.50406" lon="6.66667">
        <ele>360</ele>
        <time>2016-09-25T09:03:58.000Z</time>
      </trkpt>
      <trkpt lat="47.50408" lon="6.66666">
        <ele>360</ele>
        <time>2016-09-25T09:03:59.000Z</time>
      </trkpt>
      <trkpt lat="47.50411" lon="6.66666">
        <ele>360</ele>
        <time>2016-09-25T09:04:01.000Z</time>
      </trkpt>
      <trkpt lat="47.50413" lon="6.66665">
        <ele>360</ele>
        <time>2016-09-25T09:04:02.000Z</time>
      </trkpt>
      <trkpt lat="47.50417" lon="6.66663">
        <ele>361</ele>
        <time>2016-09-25T09:04:04.000Z</time>
      </trkpt>
      <trkpt lat="47.50418" lon="6.66662">
        <ele>361</ele>
        <time>2016-09-25T09:04:05.000Z</time>
      </trkpt>
      <trkpt lat="47.50422" lon="6.66659">
        <ele>362</ele>
        <time>2016-09-25T09:04:08.000Z</time>
      </trkpt>
      <trkpt lat="47.50423" lon="6.66658">
        <ele>362</ele>
        <time>2016-09-25T09:04:09.000Z</time>
      </trkpt>
      <trkpt lat="47.50426" lon="6.66655">
        <ele>362</ele>
        <time>2016-09-25T09:04:11.000Z</time>
      </trkpt>
      <trkpt lat="47.50427" lon="6.66653">
        <ele>363</ele>
        <time>2016-09-25T09:04:12.000Z</time>
      </trkpt>
      <trkpt lat="47.50429" lon="6.66649">
        <ele>363</ele>
        <time>2016-09-25T09:04:13.000Z</time>
      </trkpt>
      <trkpt lat="47.5043" lon="6.66647">
        <ele>363</ele>
        <time>2016-09-25T09:04:14.000Z</time>
      </trkpt>
      <trkpt lat="47.50434" lon="6.66645">
        <ele>364</ele>
        <time>2016-09-25T09:04:19.000Z</time>
      </trkpt>
      <trkpt lat="47.50435" lon="6.66645">
        <ele>364</ele>
        <time>2016-09-25T09:04:20.000Z</time>
      </trkpt>
      <trkpt lat="47.50439" lon="6.66642">
        <ele>364</ele>
        <time>2016-09-25T09:04:23.000Z</time>
      </trkpt>
      <trkpt lat="47.5044" lon="6.66641">
        <ele>364</ele>
        <time>2016-09-25T09:04:24.000Z</time>
      </trkpt>
      <trkpt lat="47.50444" lon="6.66638">
        <ele>364</ele>
        <time>2016-09-25T09:04:27.000Z</time>
      </trkpt>
      <trkpt lat="47.50445" lon="6.66637">
        <ele>364</ele>
        <time>2016-09-25T09:04:28.000Z</time>
      </trkpt>
      <trkpt lat="47.50449" lon="6.66635">
        <ele>365</ele>
        <time>2016-09-25T09:04:31.000Z</time>
      </trkpt>
      <trkpt lat="47.5045" lon="6.66634">
        <ele>365</ele>
        <time>2016-09-25T09:04:32.000Z</time>
      </trkpt>
      <trkpt lat="47.50453" lon="6.66632">
        <ele>365</ele>
        <time>2016-09-25T09:04:35.000Z</time>
      </trkpt>
      <trkpt lat="47.50454" lon="6.66631">
        <ele>365</ele>
        <time>2016-09-25T09:04:36.000Z</time>
      </trkpt>
      <trkpt lat="47.50456" lon="6.66629">
        <ele>365</ele>
        <time>2016-09-25T09:04:38.000Z</time>
      </trkpt>
      <trkpt lat="47.50458" lon="6.66628">
        <ele>365</ele>
        <time>2016-09-25T09:04:39.000Z</time>
      </trkpt>
      <trkpt lat="47.50461" lon="6.66626">
        <ele>365</ele>
        <time>2016-09-25T09:04:41.000Z</time>
      </trkpt>
      <trkpt lat="47.50463" lon="6.66626">
        <ele>366</ele>
        <time>2016-09-25T09:04:42.000Z</time>
      </trkpt>
      <trkpt lat="47.50467" lon="6.66624">
        <ele>366</ele>
        <time>2016-09-25T09:04:45.000Z</time>
      </trkpt>
      <trkpt lat="47.50468" lon="6.66624">
        <ele>366</ele>
        <time>2016-09-25T09:04:46.000Z</time>
      </trkpt>
      <trkpt lat="47.50472" lon="6.66622">
        <ele>366</ele>
        <time>2016-09-25T09:04:49.000Z</time>
      </trkpt>
      <trkpt lat="47.50473" lon="6.66621">
        <ele>366</ele>
        <time>2016-09-25T09:04:50.000Z</time>
      </trkpt>
      <trkpt lat="47.50477" lon="6.66618">
        <ele>366</ele>
        <time>2016-09-25T09:04:53.000Z</time>
      </trkpt>
      <trkpt lat="47.50479" lon="6.66617">
        <ele>367</ele>
        <time>2016-09-25T09:04:54.000Z</time>
      </trkpt>
      <trkpt lat="47.50482" lon="6.66614">
        <ele>367</ele>
        <time>2016-09-25T09:04:56.000Z</time>
      </trkpt>
      <trkpt lat="47.50483" lon="6.66614">
        <ele>367</ele>
        <time>2016-09-25T09:04:57.000Z</time>
      </trkpt>
      <trkpt lat="47.50486" lon="6.66611">
        <ele>368</ele>
        <time>2016-09-25T09:04:59.000Z</time>
      </trkpt>
      <trkpt lat="47.50487" lon="6.66609">
        <ele>368</ele>
        <time>2016-09-25T09:05:00.000Z</time>
      </trkpt>
      <trkpt lat="47.50489" lon="6.66604">
        <ele>369</ele>
        <time>2016-09-25T09:05:02.000Z</time>
      </trkpt>
      <trkpt lat="47.50489" lon="6.66603">
        <ele>369</ele>
        <time>2016-09-25T09:05:03.000Z</time>
      </trkpt>
      <trkpt lat="47.50492" lon="6.66599">
        <ele>370</ele>
        <time>2016-09-25T09:05:06.000Z</time>
      </trkpt>
      <trkpt lat="47.50494" lon="6.66598">
        <ele>370</ele>
        <time>2016-09-25T09:05:07.000Z</time>
      </trkpt>
      <trkpt lat="47.50497" lon="6.66595">
        <ele>371</ele>
        <time>2016-09-25T09:05:09.000Z</time>
      </trkpt>
      <trkpt lat="47.50499" lon="6.66593">
        <ele>371</ele>
        <time>2016-09-25T09:05:10.000Z</time>
      </trkpt>
      <trkpt lat="47.50502" lon="6.6659">
        <ele>372</ele>
        <time>2016-09-25T09:05:12.000Z</time>
      </trkpt>
      <trkpt lat="47.50503" lon="6.66589">
        <ele>372</ele>
        <time>2016-09-25T09:05:13.000Z</time>
      </trkpt>
      <trkpt lat="47.50507" lon="6.66586">
        <ele>372</ele>
        <time>2016-09-25T09:05:15.000Z</time>
      </trkpt>
      <trkpt lat="47.50509" lon="6.66584">
        <ele>372</ele>
        <time>2016-09-25T09:05:16.000Z</time>
      </trkpt>
      <trkpt lat="47.50513" lon="6.66582">
        <ele>376</ele>
        <time>2016-09-25T09:05:18.000Z</time>
      </trkpt>
      <trkpt lat="47.50515" lon="6.6658">
        <ele>376</ele>
        <time>2016-09-25T09:05:19.000Z</time>
      </trkpt>
      <trkpt lat="47.50516" lon="6.66578">
        <ele>376</ele>
        <time>2016-09-25T09:05:20.000Z</time>
      </trkpt>
      <trkpt lat="47.50518" lon="6.66575">
        <ele>376</ele>
        <time>2016-09-25T09:05:21.000Z</time>
      </trkpt>
      <trkpt lat="47.50522" lon="6.66573">
        <ele>377</ele>
        <time>2016-09-25T09:05:23.000Z</time>
      </trkpt>
      <trkpt lat="47.50523" lon="6.66572">
        <ele>377</ele>
        <time>2016-09-25T09:05:24.000Z</time>
      </trkpt>
      <trkpt lat="47.50526" lon="6.66571">
        <ele>377</ele>
        <time>2016-09-25T09:05:26.000Z</time>
      </trkpt>
      <trkpt lat="47.50528" lon="6.6657">
        <ele>377</ele>
        <time>2016-09-25T09:05:27.000Z</time>
      </trkpt>
      <trkpt lat="47.50531" lon="6.66569">
        <ele>377</ele>
        <time>2016-09-25T09:05:29.000Z</time>
      </trkpt>
      <trkpt lat="47.50532" lon="6.66568">
        <ele>377</ele>
        <time>2016-09-25T09:05:30.000Z</time>
      </trkpt>
      <trkpt lat="47.50536" lon="6.66567">
        <ele>377</ele>
        <time>2016-09-25T09:05:33.000Z</time>
      </trkpt>
      <trkpt lat="47.50537" lon="6.66566">
        <ele>377</ele>
        <time>2016-09-25T09:05:34.000Z</time>
      </trkpt>
      <trkpt lat="47.50541" lon="6.66565">
        <ele>377</ele>
        <time>2016-09-25T09:05:36.000Z</time>
      </trkpt>
      <trkpt lat="47.50542" lon="6.66565">
        <ele>377</ele>
        <time>2016-09-25T09:05:37.000Z</time>
      </trkpt>
      <trkpt lat="47.50546" lon="6.66564">
        <ele>377</ele>
        <time>2016-09-25T09:05:39.000Z</time>
      </trkpt>
      <trkpt lat="47.50547" lon="6.66564">
        <ele>377</ele>
        <time>2016-09-25T09:05:40.000Z</time>
      </trkpt>
      <trkpt lat="47.50551" lon="6.66562">
        <ele>377</ele>
        <time>2016-09-25T09:05:42.000Z</time>
      </trkpt>
      <trkpt lat="47.50553" lon="6.66561">
        <ele>377</ele>
        <time>2016-09-25T09:05:43.000Z</time>
      </trkpt>
      <trkpt lat="47.50557" lon="6.66558">
        <ele>377</ele>
        <time>2016-09-25T09:05:45.000Z</time>
      </trkpt>
      <trkpt lat="47.50559" lon="6.66557">
        <ele>377</ele>
        <time>2016-09-25T09:05:46.000Z</time>
      </trkpt>
      <trkpt lat="47.50562" lon="6.66556">
        <ele>377</ele>
        <time>2016-09-25T09:05:48.000Z</time>
      </trkpt>
      <trkpt lat="47.50564" lon="6.66554">
        <ele>377</ele>
        <time>2016-09-25T09:05:49.000Z</time>
      </trkpt>
      <trkpt lat="47.50567" lon="6.66552">
        <ele>377</ele>
        <time>2016-09-25T09:05:51.000Z</time>
      </trkpt>
      <trkpt lat="47.50569" lon="6.6655">
        <ele>378</ele>
        <time>2016-09-25T09:05:52.000Z</time>
      </trkpt>
      <trkpt lat="47.50572" lon="6.66547">
        <ele>378</ele>
        <time>2016-09-25T09:05:54.000Z</time>
      </trkpt>
      <trkpt lat="47.50573" lon="6.66545">
        <ele>378</ele>
        <time>2016-09-25T09:05:55.000Z</time>
      </trkpt>
      <trkpt lat="47.50577" lon="6.66546">
        <ele>378</ele>
        <time>2016-09-25T09:05:58.000Z</time>
      </trkpt>
      <trkpt lat="47.50578" lon="6.66546">
        <ele>378</ele>
        <time>2016-09-25T09:05:59.000Z</time>
      </trkpt>
      <trkpt lat="47.50583" lon="6.66544">
        <ele>378</ele>
        <time>2016-09-25T09:06:02.000Z</time>
      </trkpt>
      <trkpt lat="47.50584" lon="6.66543">
        <ele>378</ele>
        <time>2016-09-25T09:06:03.000Z</time>
      </trkpt>
      <trkpt lat="47.50587" lon="6.6654">
        <ele>379</ele>
        <time>2016-09-25T09:06:05.000Z</time>
      </trkpt>
      <trkpt lat="47.50589" lon="6.66539">
        <ele>379</ele>
        <time>2016-09-25T09:06:06.000Z</time>
      </trkpt>
      <trkpt lat="47.50592" lon="6.66538">
        <ele>379</ele>
        <time>2016-09-25T09:06:08.000Z</time>
      </trkpt>
      <trkpt lat="47.50593" lon="6.66537">
        <ele>379</ele>
        <time>2016-09-25T09:06:09.000Z</time>
      </trkpt>
      <trkpt lat="47.50596" lon="6.66535">
        <ele>379</ele>
        <time>2016-09-25T09:06:11.000Z</time>
      </trkpt>
      <trkpt lat="47.50598" lon="6.66534">
        <ele>380</ele>
        <time>2016-09-25T09:06:12.000Z</time>
      </trkpt>
      <trkpt lat="47.50601" lon="6.66531">
        <ele>380</ele>
        <time>2016-09-25T09:06:15.000Z</time>
      </trkpt>
      <trkpt lat="47.50602" lon="6.6653">
        <ele>380</ele>
        <time>2016-09-25T09:06:16.000Z</time>
      </trkpt>
      <trkpt lat="47.50605" lon="6.66526">
        <ele>380</ele>
        <time>2016-09-25T09:06:22.000Z</time>
      </trkpt>
      <trkpt lat="47.50606" lon="6.66525">
        <ele>380</ele>
        <time>2016-09-25T09:06:23.000Z</time>
      </trkpt>
      <trkpt lat="47.50607" lon="6.66519">
        <ele>381</ele>
        <time>2016-09-25T09:06:32.000Z</time>
      </trkpt>
      <trkpt lat="47.50607" lon="6.66518">
        <ele>381</ele>
        <time>2016-09-25T09:06:33.000Z</time>
      </trkpt>
      <trkpt lat="47.50608" lon="6.66515">
        <ele>381</ele>
        <time>2016-09-25T09:06:39.000Z</time>
      </trkpt>
      <trkpt lat="47.50609" lon="6.66511">
        <ele>382</ele>
        <time>2016-09-25T09:06:40.000Z</time>
      </trkpt>
      <trkpt lat="47.5061" lon="6.66514">
        <ele>381</ele>
        <time>2016-09-25T09:06:45.000Z</time>
      </trkpt>
      <trkpt lat="47.50612" lon="6.66516">
        <ele>381</ele>
        <time>2016-09-25T09:06:46.000Z</time>
      </trkpt>
      <trkpt lat="47.50614" lon="6.66518">
        <ele>381</ele>
        <time>2016-09-25T09:06:47.000Z</time>
      </trkpt>
      <trkpt lat="47.50617" lon="6.66519">
        <ele>381</ele>
        <time>2016-09-25T09:06:48.000Z</time>
      </trkpt>
      <trkpt lat="47.5062" lon="6.6652">
        <ele>381</ele>
        <time>2016-09-25T09:06:49.000Z</time>
      </trkpt>
      <trkpt lat="47.50624" lon="6.66521">
        <ele>380</ele>
        <time>2016-09-25T09:06:50.000Z</time>
      </trkpt>
      <trkpt lat="47.50628" lon="6.66522">
        <ele>380</ele>
        <time>2016-09-25T09:06:51.000Z</time>
      </trkpt>
      <trkpt lat="47.50633" lon="6.66523">
        <ele>380</ele>
        <time>2016-09-25T09:06:52.000Z</time>
      </trkpt>
      <trkpt lat="47.50638" lon="6.66524">
        <ele>380</ele>
        <time>2016-09-25T09:06:53.000Z</time>
      </trkpt>
      <trkpt lat="47.50648" lon="6.6652">
        <ele>381</ele>
        <time>2016-09-25T09:06:54.000Z</time>
      </trkpt>
      <trkpt lat="47.50654" lon="6.66517">
        <ele>382</ele>
        <time>2016-09-25T09:06:55.000Z</time>
      </trkpt>
      <trkpt lat="47.50657" lon="6.66517">
        <ele>382</ele>
        <time>2016-09-25T09:06:56.000Z</time>
      </trkpt>
      <trkpt lat="47.50659" lon="6.66517">
        <ele>382</ele>
        <time>2016-09-25T09:06:57.000Z</time>
      </trkpt>
      <trkpt lat="47.50663" lon="6.66517">
        <ele>383</ele>
        <time>2016-09-25T09:06:59.000Z</time>
      </trkpt>
      <trkpt lat="47.50664" lon="6.6652">
        <ele>382</ele>
        <time>2016-09-25T09:07:00.000Z</time>
      </trkpt>
      <trkpt lat="47.50667" lon="6.66521">
        <ele>382</ele>
        <time>2016-09-25T09:07:03.000Z</time>
      </trkpt>
      <trkpt lat="47.50669" lon="6.66521">
        <ele>382</ele>
        <time>2016-09-25T09:07:04.000Z</time>
      </trkpt>
      <trkpt lat="47.50673" lon="6.66521">
        <ele>382</ele>
        <time>2016-09-25T09:07:06.000Z</time>
      </trkpt>
      <trkpt lat="47.50675" lon="6.6652">
        <ele>382</ele>
        <time>2016-09-25T09:07:07.000Z</time>
      </trkpt>
      <trkpt lat="47.50679" lon="6.66521">
        <ele>382</ele>
        <time>2016-09-25T09:07:09.000Z</time>
      </trkpt>
      <trkpt lat="47.50682" lon="6.66521">
        <ele>382</ele>
        <time>2016-09-25T09:07:10.000Z</time>
      </trkpt>
      <trkpt lat="47.50685" lon="6.66521">
        <ele>381</ele>
        <time>2016-09-25T09:07:11.000Z</time>
      </trkpt>
      <trkpt lat="47.50688" lon="6.66522">
        <ele>381</ele>
        <time>2016-09-25T09:07:12.000Z</time>
      </trkpt>
      <trkpt lat="47.50691" lon="6.66522">
        <ele>381</ele>
        <time>2016-09-25T09:07:13.000Z</time>
      </trkpt>
      <trkpt lat="47.50694" lon="6.66522">
        <ele>381</ele>
        <time>2016-09-25T09:07:14.000Z</time>
      </trkpt>
      <trkpt lat="47.50696" lon="6.66523">
        <ele>381</ele>
        <time>2016-09-25T09:07:15.000Z</time>
      </trkpt>
      <trkpt lat="47.50698" lon="6.66524">
        <ele>381</ele>
        <time>2016-09-25T09:07:16.000Z</time>
      </trkpt>
      <trkpt lat="47.50702" lon="6.66525">
        <ele>381</ele>
        <time>2016-09-25T09:07:18.000Z</time>
      </trkpt>
      <trkpt lat="47.50705" lon="6.66526">
        <ele>380</ele>
        <time>2016-09-25T09:07:19.000Z</time>
      </trkpt>
      <trkpt lat="47.50707" lon="6.66527">
        <ele>380</ele>
        <time>2016-09-25T09:07:20.000Z</time>
      </trkpt>
      <trkpt lat="47.5071" lon="6.66529">
        <ele>380</ele>
        <time>2016-09-25T09:07:21.000Z</time>
      </trkpt>
      <trkpt lat="47.50714" lon="6.6653">
        <ele>380</ele>
        <time>2016-09-25T09:07:22.000Z</time>
      </trkpt>
      <trkpt lat="47.50718" lon="6.66533">
        <ele>380</ele>
        <time>2016-09-25T09:07:23.000Z</time>
      </trkpt>
      <trkpt lat="47.50722" lon="6.66535">
        <ele>380</ele>
        <time>2016-09-25T09:07:24.000Z</time>
      </trkpt>
      <trkpt lat="47.50727" lon="6.66537">
        <ele>380</ele>
        <time>2016-09-25T09:07:25.000Z</time>
      </trkpt>
      <trkpt lat="47.50733" lon="6.66538">
        <ele>380</ele>
        <time>2016-09-25T09:07:26.000Z</time>
      </trkpt>
      <trkpt lat="47.50744" lon="6.66535">
        <ele>380</ele>
        <time>2016-09-25T09:07:27.000Z</time>
      </trkpt>
      <trkpt lat="47.50756" lon="6.66538">
        <ele>379</ele>
        <time>2016-09-25T09:07:28.000Z</time>
      </trkpt>
      <trkpt lat="47.50765" lon="6.6654">
        <ele>378</ele>
        <time>2016-09-25T09:07:29.000Z</time>
      </trkpt>
      <trkpt lat="47.50772" lon="6.66543">
        <ele>378</ele>
        <time>2016-09-25T09:07:30.000Z</time>
      </trkpt>
      <trkpt lat="47.50781" lon="6.66545">
        <ele>377</ele>
        <time>2016-09-25T09:07:31.000Z</time>
      </trkpt>
      <trkpt lat="47.50787" lon="6.66546">
        <ele>377</ele>
        <time>2016-09-25T09:07:32.000Z</time>
      </trkpt>
      <trkpt lat="47.50794" lon="6.66549">
        <ele>377</ele>
        <time>2016-09-25T09:07:33.000Z</time>
      </trkpt>
      <trkpt lat="47.50803" lon="6.66548">
        <ele>377</ele>
        <time>2016-09-25T09:07:34.000Z</time>
      </trkpt>
      <trkpt lat="47.5081" lon="6.66551">
        <ele>376</ele>
        <time>2016-09-25T09:07:35.000Z</time>
      </trkpt>
      <trkpt lat="47.50812" lon="6.66556">
        <ele>376</ele>
        <time>2016-09-25T09:07:36.000Z</time>
      </trkpt>
      <trkpt lat="47.50816" lon="6.66562">
        <ele>375</ele>
        <time>2016-09-25T09:07:37.000Z</time>
      </trkpt>
      <trkpt lat="47.50819" lon="6.66568">
        <ele>375</ele>
        <time>2016-09-25T09:07:38.000Z</time>
      </trkpt>
      <trkpt lat="47.50823" lon="6.66572">
        <ele>374</ele>
        <time>2016-09-25T09:07:39.000Z</time>
      </trkpt>
      <trkpt lat="47.50826" lon="6.66576">
        <ele>374</ele>
        <time>2016-09-25T09:07:40.000Z</time>
      </trkpt>
      <trkpt lat="47.50827" lon="6.6658">
        <ele>373</ele>
        <time>2016-09-25T09:07:41.000Z</time>
      </trkpt>
      <trkpt lat="47.5083" lon="6.66582">
        <ele>373</ele>
        <time>2016-09-25T09:07:42.000Z</time>
      </trkpt>
      <trkpt lat="47.50834" lon="6.66585">
        <ele>372</ele>
        <time>2016-09-25T09:07:43.000Z</time>
      </trkpt>
      <trkpt lat="47.50836" lon="6.66588">
        <ele>372</ele>
        <time>2016-09-25T09:07:44.000Z</time>
      </trkpt>
      <trkpt lat="47.50839" lon="6.66592">
        <ele>371</ele>
        <time>2016-09-25T09:07:45.000Z</time>
      </trkpt>
      <trkpt lat="47.50842" lon="6.66595">
        <ele>371</ele>
        <time>2016-09-25T09:07:46.000Z</time>
      </trkpt>
      <trkpt lat="47.50846" lon="6.66598">
        <ele>371</ele>
        <time>2016-09-25T09:07:47.000Z</time>
      </trkpt>
      <trkpt lat="47.50848" lon="6.666">
        <ele>371</ele>
        <time>2016-09-25T09:07:48.000Z</time>
      </trkpt>
      <trkpt lat="47.50851" lon="6.66603">
        <ele>371</ele>
        <time>2016-09-25T09:07:49.000Z</time>
      </trkpt>
      <trkpt lat="47.50853" lon="6.66605">
        <ele>371</ele>
        <time>2016-09-25T09:07:50.000Z</time>
      </trkpt>
      <trkpt lat="47.50855" lon="6.66608">
        <ele>371</ele>
        <time>2016-09-25T09:07:51.000Z</time>
      </trkpt>
      <trkpt lat="47.50858" lon="6.6661">
        <ele>371</ele>
        <time>2016-09-25T09:07:52.000Z</time>
      </trkpt>
      <trkpt lat="47.5086" lon="6.66613">
        <ele>371</ele>
        <time>2016-09-25T09:07:53.000Z</time>
      </trkpt>
      <trkpt lat="47.50863" lon="6.66615">
        <ele>370</ele>
        <time>2016-09-25T09:07:54.000Z</time>
      </trkpt>
      <trkpt lat="47.50866" lon="6.66617">
        <ele>370</ele>
        <time>2016-09-25T09:07:55.000Z</time>
      </trkpt>
      <trkpt lat="47.50869" lon="6.6662">
        <ele>370</ele>
        <time>2016-09-25T09:07:56.000Z</time>
      </trkpt>
      <trkpt lat="47.50872" lon="6.66622">
        <ele>370</ele>
        <time>2016-09-25T09:07:57.000Z</time>
      </trkpt>
      <trkpt lat="47.50875" lon="6.66624">
        <ele>370</ele>
        <time>2016-09-25T09:07:58.000Z</time>
      </trkpt>
      <trkpt lat="47.50878" lon="6.66627">
        <ele>370</ele>
        <time>2016-09-25T09:07:59.000Z</time>
      </trkpt>
      <trkpt lat="47.50881" lon="6.6663">
        <ele>370</ele>
        <time>2016-09-25T09:08:00.000Z</time>
      </trkpt>
      <trkpt lat="47.50883" lon="6.66632">
        <ele>370</ele>
        <time>2016-09-25T09:08:01.000Z</time>
      </trkpt>
      <trkpt lat="47.50886" lon="6.66635">
        <ele>370</ele>
        <time>2016-09-25T09:08:02.000Z</time>
      </trkpt>
      <trkpt lat="47.50889" lon="6.66637">
        <ele>370</ele>
        <time>2016-09-25T09:08:03.000Z</time>
      </trkpt>
      <trkpt lat="47.50891" lon="6.6664">
        <ele>370</ele>
        <time>2016-09-25T09:08:04.000Z</time>
      </trkpt>
      <trkpt lat="47.50894" lon="6.66642">
        <ele>370</ele>
        <time>2016-09-25T09:08:05.000Z</time>
      </trkpt>
      <trkpt lat="47.50897" lon="6.66644">
        <ele>370</ele>
        <time>2016-09-25T09:08:06.000Z</time>
      </trkpt>
      <trkpt lat="47.50899" lon="6.66646">
        <ele>370</ele>
        <time>2016-09-25T09:08:07.000Z</time>
      </trkpt>
      <trkpt lat="47.50902" lon="6.66648">
        <ele>370</ele>
        <time>2016-09-25T09:08:08.000Z</time>
      </trkpt>
      <trkpt lat="47.50904" lon="6.6665">
        <ele>370</ele>
        <time>2016-09-25T09:08:09.000Z</time>
      </trkpt>
      <trkpt lat="47.50907" lon="6.66652">
        <ele>370</ele>
        <time>2016-09-25T09:08:10.000Z</time>
      </trkpt>
      <trkpt lat="47.5091" lon="6.66654">
        <ele>370</ele>
        <time>2016-09-25T09:08:11.000Z</time>
      </trkpt>
      <trkpt lat="47.50912" lon="6.66656">
        <ele>369</ele>
        <time>2016-09-25T09:08:12.000Z</time>
      </trkpt>
      <trkpt lat="47.50915" lon="6.66658">
        <ele>369</ele>
        <time>2016-09-25T09:08:13.000Z</time>
      </trkpt>
      <trkpt lat="47.50918" lon="6.6666">
        <ele>369</ele>
        <time>2016-09-25T09:08:14.000Z</time>
      </trkpt>
      <trkpt lat="47.50921" lon="6.66663">
        <ele>369</ele>
        <time>2016-09-25T09:08:15.000Z</time>
      </trkpt>
      <trkpt lat="47.50923" lon="6.66665">
        <ele>369</ele>
        <time>2016-09-25T09:08:16.000Z</time>
      </trkpt>
      <trkpt lat="47.50926" lon="6.66667">
        <ele>369</ele>
        <time>2016-09-25T09:08:17.000Z</time>
      </trkpt>
      <trkpt lat="47.50929" lon="6.66669">
        <ele>369</ele>
        <time>2016-09-25T09:08:18.000Z</time>
      </trkpt>
      <trkpt lat="47.50932" lon="6.66671">
        <ele>369</ele>
        <time>2016-09-25T09:08:19.000Z</time>
      </trkpt>
      <trkpt lat="47.50935" lon="6.66673">
        <ele>369</ele>
        <time>2016-09-25T09:08:20.000Z</time>
      </trkpt>
      <trkpt lat="47.50938" lon="6.66675">
        <ele>369</ele>
        <time>2016-09-25T09:08:21.000Z</time>
      </trkpt>
      <trkpt lat="47.50941" lon="6.66677">
        <ele>369</ele>
        <time>2016-09-25T09:08:22.000Z</time>
      </trkpt>
      <trkpt lat="47.50944" lon="6.66679">
        <ele>369</ele>
        <time>2016-09-25T09:08:23.000Z</time>
      </trkpt>
      <trkpt lat="47.50946" lon="6.66682">
        <ele>369</ele>
        <time>2016-09-25T09:08:24.000Z</time>
      </trkpt>
      <trkpt lat="47.50949" lon="6.66684">
        <ele>369</ele>
        <time>2016-09-25T09:08:25.000Z</time>
      </trkpt>
      <trkpt lat="47.50952" lon="6.66687">
        <ele>369</ele>
        <time>2016-09-25T09:08:26.000Z</time>
      </trkpt>
      <trkpt lat="47.50955" lon="6.6669">
        <ele>370</ele>
        <time>2016-09-25T09:08:27.000Z</time>
      </trkpt>
      <trkpt lat="47.50958" lon="6.66693">
        <ele>370</ele>
        <time>2016-09-25T09:08:28.000Z</time>
      </trkpt>
      <trkpt lat="47.50961" lon="6.66696">
        <ele>370</ele>
        <time>2016-09-25T09:08:29.000Z</time>
      </trkpt>
      <trkpt lat="47.50965" lon="6.66699">
        <ele>370</ele>
        <time>2016-09-25T09:08:30.000Z</time>
      </trkpt>
      <trkpt lat="47.50968" lon="6.66702">
        <ele>370</ele>
        <time>2016-09-25T09:08:31.000Z</time>
      </trkpt>
      <trkpt lat="47.50972" lon="6.66705">
        <ele>370</ele>
        <time>2016-09-25T09:08:32.000Z</time>
      </trkpt>
      <trkpt lat="47.50976" lon="6.66708">
        <ele>370</ele>
        <time>2016-09-25T09:08:33.000Z</time>
      </trkpt>
      <trkpt lat="47.5098" lon="6.66711">
        <ele>370</ele>
        <time>2016-09-25T09:08:34.000Z</time>
      </trkpt>
      <trkpt lat="47.50983" lon="6.66714">
        <ele>370</ele>
        <time>2016-09-25T09:08:35.000Z</time>
      </trkpt>
      <trkpt lat="47.50986" lon="6.66717">
        <ele>370</ele>
        <time>2016-09-25T09:08:36.000Z</time>
      </trkpt>
      <trkpt lat="47.5099" lon="6.6672">
        <ele>370</ele>
        <time>2016-09-25T09:08:37.000Z</time>
      </trkpt>
      <trkpt lat="47.50994" lon="6.66723">
        <ele>370</ele>
        <time>2016-09-25T09:08:38.000Z</time>
      </trkpt>
      <trkpt lat="47.50998" lon="6.66726">
        <ele>370</ele>
        <time>2016-09-25T09:08:39.000Z</time>
      </trkpt>
      <trkpt lat="47.51002" lon="6.66729">
        <ele>369</ele>
        <time>2016-09-25T09:08:40.000Z</time>
      </trkpt>
      <trkpt lat="47.51005" lon="6.66732">
        <ele>370</ele>
        <time>2016-09-25T09:08:41.000Z</time>
      </trkpt>
      <trkpt lat="47.51009" lon="6.66735">
        <ele>370</ele>
        <time>2016-09-25T09:08:42.000Z</time>
      </trkpt>
      <trkpt lat="47.51012" lon="6.66738">
        <ele>370</ele>
        <time>2016-09-25T09:08:43.000Z</time>
      </trkpt>
      <trkpt lat="47.51016" lon="6.66741">
        <ele>370</ele>
        <time>2016-09-25T09:08:44.000Z</time>
      </trkpt>
      <trkpt lat="47.51019" lon="6.66744">
        <ele>370</ele>
        <time>2016-09-25T09:08:45.000Z</time>
      </trkpt>
      <trkpt lat="47.51023" lon="6.66747">
        <ele>370</ele>
        <time>2016-09-25T09:08:46.000Z</time>
      </trkpt>
      <trkpt lat="47.51026" lon="6.66749">
        <ele>369</ele>
        <time>2016-09-25T09:08:47.000Z</time>
      </trkpt>
      <trkpt lat="47.5103" lon="6.66752">
        <ele>370</ele>
        <time>2016-09-25T09:08:48.000Z</time>
      </trkpt>
      <trkpt lat="47.51034" lon="6.66754">
        <ele>370</ele>
        <time>2016-09-25T09:08:49.000Z</time>
      </trkpt>
      <trkpt lat="47.51038" lon="6.66757">
        <ele>370</ele>
        <time>2016-09-25T09:08:50.000Z</time>
      </trkpt>
      <trkpt lat="47.51041" lon="6.66759">
        <ele>370</ele>
        <time>2016-09-25T09:08:51.000Z</time>
      </trkpt>
      <trkpt lat="47.51046" lon="6.66763">
        <ele>370</ele>
        <time>2016-09-25T09:08:52.000Z</time>
      </trkpt>
      <trkpt lat="47.51051" lon="6.66768">
        <ele>370</ele>
        <time>2016-09-25T09:08:53.000Z</time>
      </trkpt>
      <trkpt lat="47.51056" lon="6.66772">
        <ele>370</ele>
        <time>2016-09-25T09:08:54.000Z</time>
      </trkpt>
      <trkpt lat="47.51061" lon="6.66777">
        <ele>370</ele>
        <time>2016-09-25T09:08:55.000Z</time>
      </trkpt>
      <trkpt lat="47.51065" lon="6.66781">
        <ele>370</ele>
        <time>2016-09-25T09:08:56.000Z</time>
      </trkpt>
      <trkpt lat="47.51069" lon="6.66785">
        <ele>370</ele>
        <time>2016-09-25T09:08:57.000Z</time>
      </trkpt>
      <trkpt lat="47.51073" lon="6.6679">
        <ele>370</ele>
        <time>2016-09-25T09:08:58.000Z</time>
      </trkpt>
      <trkpt lat="47.51076" lon="6.66793">
        <ele>369</ele>
        <time>2016-09-25T09:08:59.000Z</time>
      </trkpt>
      <trkpt lat="47.5108" lon="6.66798">
        <ele>369</ele>
        <time>2016-09-25T09:09:00.000Z</time>
      </trkpt>
      <trkpt lat="47.51083" lon="6.66801">
        <ele>368</ele>
        <time>2016-09-25T09:09:01.000Z</time>
      </trkpt>
      <trkpt lat="47.51088" lon="6.66806">
        <ele>368</ele>
        <time>2016-09-25T09:09:02.000Z</time>
      </trkpt>
      <trkpt lat="47.51091" lon="6.6681">
        <ele>368</ele>
        <time>2016-09-25T09:09:03.000Z</time>
      </trkpt>
      <trkpt lat="47.51094" lon="6.66813">
        <ele>368</ele>
        <time>2016-09-25T09:09:04.000Z</time>
      </trkpt>
      <trkpt lat="47.51097" lon="6.66817">
        <ele>368</ele>
        <time>2016-09-25T09:09:05.000Z</time>
      </trkpt>
      <trkpt lat="47.51102" lon="6.66821">
        <ele>368</ele>
        <time>2016-09-25T09:09:06.000Z</time>
      </trkpt>
      <trkpt lat="47.51105" lon="6.66825">
        <ele>368</ele>
        <time>2016-09-25T09:09:07.000Z</time>
      </trkpt>
      <trkpt lat="47.51108" lon="6.6683">
        <ele>368</ele>
        <time>2016-09-25T09:09:08.000Z</time>
      </trkpt>
      <trkpt lat="47.51112" lon="6.66833">
        <ele>368</ele>
        <time>2016-09-25T09:09:09.000Z</time>
      </trkpt>
      <trkpt lat="47.51116" lon="6.66837">
        <ele>368</ele>
        <time>2016-09-25T09:09:10.000Z</time>
      </trkpt>
      <trkpt lat="47.51119" lon="6.66841">
        <ele>368</ele>
        <time>2016-09-25T09:09:11.000Z</time>
      </trkpt>
      <trkpt lat="47.51123" lon="6.66845">
        <ele>368</ele>
        <time>2016-09-25T09:09:12.000Z</time>
      </trkpt>
      <trkpt lat="47.51126" lon="6.66848">
        <ele>368</ele>
        <time>2016-09-25T09:09:13.000Z</time>
      </trkpt>
      <trkpt lat="47.5113" lon="6.6685">
        <ele>368</ele>
        <time>2016-09-25T09:09:14.001Z</time>
      </trkpt>
      <trkpt lat="47.51134" lon="6.66852">
        <ele>368</ele>
        <time>2016-09-25T09:09:15.000Z</time>
      </trkpt>
      <trkpt lat="47.51136" lon="6.66855">
        <ele>368</ele>
        <time>2016-09-25T09:09:16.000Z</time>
      </trkpt>
      <trkpt lat="47.51139" lon="6.66858">
        <ele>368</ele>
        <time>2016-09-25T09:09:17.000Z</time>
      </trkpt>
      <trkpt lat="47.51141" lon="6.6686">
        <ele>368</ele>
        <time>2016-09-25T09:09:18.000Z</time>
      </trkpt>
      <trkpt lat="47.51143" lon="6.66862">
        <ele>368</ele>
        <time>2016-09-25T09:09:19.000Z</time>
      </trkpt>
      <trkpt lat="47.51144" lon="6.66864">
        <ele>368</ele>
        <time>2016-09-25T09:09:20.000Z</time>
      </trkpt>
      <trkpt lat="47.51147" lon="6.66867">
        <ele>368</ele>
        <time>2016-09-25T09:09:22.000Z</time>
      </trkpt>
      <trkpt lat="47.51148" lon="6.66867">
        <ele>368</ele>
        <time>2016-09-25T09:09:23.000Z</time>
      </trkpt>
      <trkpt lat="47.51152" lon="6.66868">
        <ele>368</ele>
        <time>2016-09-25T09:09:25.000Z</time>
      </trkpt>
      <trkpt lat="47.51154" lon="6.66867">
        <ele>368</ele>
        <time>2016-09-25T09:09:26.000Z</time>
      </trkpt>
      <trkpt lat="47.51157" lon="6.66866">
        <ele>368</ele>
        <time>2016-09-25T09:09:27.000Z</time>
      </trkpt>
      <trkpt lat="47.51159" lon="6.66866">
        <ele>367</ele>
        <time>2016-09-25T09:09:28.000Z</time>
      </trkpt>
      <trkpt lat="47.51162" lon="6.66864">
        <ele>367</ele>
        <time>2016-09-25T09:09:29.000Z</time>
      </trkpt>
      <trkpt lat="47.51165" lon="6.66862">
        <ele>367</ele>
        <time>2016-09-25T09:09:30.000Z</time>
      </trkpt>
      <trkpt lat="47.51168" lon="6.6686">
        <ele>367</ele>
        <time>2016-09-25T09:09:31.000Z</time>
      </trkpt>
      <trkpt lat="47.51172" lon="6.66858">
        <ele>367</ele>
        <time>2016-09-25T09:09:32.000Z</time>
      </trkpt>
      <trkpt lat="47.51175" lon="6.66856">
        <ele>367</ele>
        <time>2016-09-25T09:09:33.000Z</time>
      </trkpt>
      <trkpt lat="47.51179" lon="6.66853">
        <ele>367</ele>
        <time>2016-09-25T09:09:34.000Z</time>
      </trkpt>
      <trkpt lat="47.51183" lon="6.66851">
        <ele>366</ele>
        <time>2016-09-25T09:09:35.000Z</time>
      </trkpt>
      <trkpt lat="47.51187" lon="6.66848">
        <ele>366</ele>
        <time>2016-09-25T09:09:36.000Z</time>
      </trkpt>
      <trkpt lat="47.51191" lon="6.66846">
        <ele>366</ele>
        <time>2016-09-25T09:09:37.000Z</time>
      </trkpt>
      <trkpt lat="47.51195" lon="6.66844">
        <ele>366</ele>
        <time>2016-09-25T09:09:38.000Z</time>
      </trkpt>
      <trkpt lat="47.51199" lon="6.66842">
        <ele>366</ele>
        <time>2016-09-25T09:09:39.000Z</time>
      </trkpt>
      <trkpt lat="47.51204" lon="6.66839">
        <ele>366</ele>
        <time>2016-09-25T09:09:40.000Z</time>
      </trkpt>
      <trkpt lat="47.51209" lon="6.66836">
        <ele>366</ele>
        <time>2016-09-25T09:09:41.000Z</time>
      </trkpt>
      <trkpt lat="47.51213" lon="6.66835">
        <ele>366</ele>
        <time>2016-09-25T09:09:42.000Z</time>
      </trkpt>
      <trkpt lat="47.51217" lon="6.66832">
        <ele>367</ele>
        <time>2016-09-25T09:09:43.000Z</time>
      </trkpt>
      <trkpt lat="47.51222" lon="6.6683">
        <ele>367</ele>
        <time>2016-09-25T09:09:44.000Z</time>
      </trkpt>
      <trkpt lat="47.51226" lon="6.66828">
        <ele>367</ele>
        <time>2016-09-25T09:09:45.000Z</time>
      </trkpt>
      <trkpt lat="47.5123" lon="6.66825">
        <ele>367</ele>
        <time>2016-09-25T09:09:46.000Z</time>
      </trkpt>
      <trkpt lat="47.51234" lon="6.66823">
        <ele>366</ele>
        <time>2016-09-25T09:09:47.000Z</time>
      </trkpt>
      <trkpt lat="47.51239" lon="6.66821">
        <ele>366</ele>
        <time>2016-09-25T09:09:48.000Z</time>
      </trkpt>
      <trkpt lat="47.51243" lon="6.66819">
        <ele>366</ele>
        <time>2016-09-25T09:09:49.000Z</time>
      </trkpt>
      <trkpt lat="47.51247" lon="6.66817">
        <ele>366</ele>
        <time>2016-09-25T09:09:50.000Z</time>
      </trkpt>
      <trkpt lat="47.51252" lon="6.66814">
        <ele>367</ele>
        <time>2016-09-25T09:09:51.000Z</time>
      </trkpt>
      <trkpt lat="47.51256" lon="6.66812">
        <ele>367</ele>
        <time>2016-09-25T09:09:52.000Z</time>
      </trkpt>
      <trkpt lat="47.5126" lon="6.6681">
        <ele>367</ele>
        <time>2016-09-25T09:09:53.000Z</time>
      </trkpt>
      <trkpt lat="47.51264" lon="6.66807">
        <ele>367</ele>
        <time>2016-09-25T09:09:54.000Z</time>
      </trkpt>
      <trkpt lat="47.51268" lon="6.66805">
        <ele>367</ele>
        <time>2016-09-25T09:09:55.000Z</time>
      </trkpt>
      <trkpt lat="47.51273" lon="6.66803">
        <ele>367</ele>
        <time>2016-09-25T09:09:56.000Z</time>
      </trkpt>
      <trkpt lat="47.51277" lon="6.66801">
        <ele>367</ele>
        <time>2016-09-25T09:09:57.000Z</time>
      </trkpt>
      <trkpt lat="47.51281" lon="6.66798">
        <ele>367</ele>
        <time>2016-09-25T09:09:58.000Z</time>
      </trkpt>
      <trkpt lat="47.51286" lon="6.66795">
        <ele>367</ele>
        <time>2016-09-25T09:09:59.000Z</time>
      </trkpt>
      <trkpt lat="47.51289" lon="6.66794">
        <ele>367</ele>
        <time>2016-09-25T09:10:00.000Z</time>
      </trkpt>
      <trkpt lat="47.51294" lon="6.66791">
        <ele>367</ele>
        <time>2016-09-25T09:10:01.000Z</time>
      </trkpt>
      <trkpt lat="47.51298" lon="6.66789">
        <ele>367</ele>
        <time>2016-09-25T09:10:02.000Z</time>
      </trkpt>
      <trkpt lat="47.51302" lon="6.66786">
        <ele>367</ele>
        <time>2016-09-25T09:10:03.000Z</time>
      </trkpt>
      <trkpt lat="47.51307" lon="6.66784">
        <ele>367</ele>
        <time>2016-09-25T09:10:04.000Z</time>
      </trkpt>
      <trkpt lat="47.51312" lon="6.66781">
        <ele>367</ele>
        <time>2016-09-25T09:10:05.000Z</time>
      </trkpt>
      <trkpt lat="47.51316" lon="6.66779">
        <ele>367</ele>
        <time>2016-09-25T09:10:06.000Z</time>
      </trkpt>
      <trkpt lat="47.5132" lon="6.66777">
        <ele>368</ele>
        <time>2016-09-25T09:10:07.000Z</time>
      </trkpt>
      <trkpt lat="47.51324" lon="6.66775">
        <ele>368</ele>
        <time>2016-09-25T09:10:08.000Z</time>
      </trkpt>
      <trkpt lat="47.51328" lon="6.66772">
        <ele>368</ele>
        <time>2016-09-25T09:10:09.000Z</time>
      </trkpt>
      <trkpt lat="47.51332" lon="6.6677">
        <ele>368</ele>
        <time>2016-09-25T09:10:10.000Z</time>
      </trkpt>
      <trkpt lat="47.51335" lon="6.66768">
        <ele>368</ele>
        <time>2016-09-25T09:10:11.000Z</time>
      </trkpt>
      <trkpt lat="47.5134" lon="6.66765">
        <ele>368</ele>
        <time>2016-09-25T09:10:12.000Z</time>
      </trkpt>
      <trkpt lat="47.51344" lon="6.66763">
        <ele>368</ele>
        <time>2016-09-25T09:10:13.000Z</time>
      </trkpt>
      <trkpt lat="47.51348" lon="6.6676">
        <ele>368</ele>
        <time>2016-09-25T09:10:14.000Z</time>
      </trkpt>
      <trkpt lat="47.51352" lon="6.66758">
        <ele>368</ele>
        <time>2016-09-25T09:10:15.000Z</time>
      </trkpt>
      <trkpt lat="47.51356" lon="6.66757">
        <ele>368</ele>
        <time>2016-09-25T09:10:16.000Z</time>
      </trkpt>
      <trkpt lat="47.5136" lon="6.66754">
        <ele>368</ele>
        <time>2016-09-25T09:10:17.000Z</time>
      </trkpt>
      <trkpt lat="47.51364" lon="6.66751">
        <ele>369</ele>
        <time>2016-09-25T09:10:18.000Z</time>
      </trkpt>
      <trkpt lat="47.51367" lon="6.66749">
        <ele>369</ele>
        <time>2016-09-25T09:10:19.000Z</time>
      </trkpt>
      <trkpt lat="47.51371" lon="6.66747">
        <ele>369</ele>
        <time>2016-09-25T09:10:20.000Z</time>
      </trkpt>
      <trkpt lat="47.51375" lon="6.66745">
        <ele>369</ele>
        <time>2016-09-25T09:10:21.000Z</time>
      </trkpt>
      <trkpt lat="47.51379" lon="6.66743">
        <ele>369</ele>
        <time>2016-09-25T09:10:22.000Z</time>
      </trkpt>
      <trkpt lat="47.51383" lon="6.66739">
        <ele>369</ele>
        <time>2016-09-25T09:10:23.000Z</time>
      </trkpt>
      <trkpt lat="47.51387" lon="6.66735">
        <ele>369</ele>
        <time>2016-09-25T09:10:24.000Z</time>
      </trkpt>
      <trkpt lat="47.51391" lon="6.66732">
        <ele>369</ele>
        <time>2016-09-25T09:10:25.000Z</time>
      </trkpt>
      <trkpt lat="47.51395" lon="6.66729">
        <ele>369</ele>
        <time>2016-09-25T09:10:26.000Z</time>
      </trkpt>
      <trkpt lat="47.51399" lon="6.66725">
        <ele>369</ele>
        <time>2016-09-25T09:10:27.000Z</time>
      </trkpt>
      <trkpt lat="47.51403" lon="6.66722">
        <ele>369</ele>
        <time>2016-09-25T09:10:28.000Z</time>
      </trkpt>
      <trkpt lat="47.51407" lon="6.66719">
        <ele>369</ele>
        <time>2016-09-25T09:10:29.000Z</time>
      </trkpt>
      <trkpt lat="47.51411" lon="6.66715">
        <ele>369</ele>
        <time>2016-09-25T09:10:30.000Z</time>
      </trkpt>
      <trkpt lat="47.51415" lon="6.66711">
        <ele>369</ele>
        <time>2016-09-25T09:10:31.000Z</time>
      </trkpt>
      <trkpt lat="47.51419" lon="6.66708">
        <ele>369</ele>
        <time>2016-09-25T09:10:32.000Z</time>
      </trkpt>
      <trkpt lat="47.51423" lon="6.66705">
        <ele>369</ele>
        <time>2016-09-25T09:10:33.000Z</time>
      </trkpt>
      <trkpt lat="47.51426" lon="6.66702">
        <ele>369</ele>
        <time>2016-09-25T09:10:34.000Z</time>
      </trkpt>
      <trkpt lat="47.5143" lon="6.66699">
        <ele>369</ele>
        <time>2016-09-25T09:10:35.000Z</time>
      </trkpt>
      <trkpt lat="47.51434" lon="6.66696">
        <ele>369</ele>
        <time>2016-09-25T09:10:36.000Z</time>
      </trkpt>
      <trkpt lat="47.51437" lon="6.66693">
        <ele>369</ele>
        <time>2016-09-25T09:10:37.000Z</time>
      </trkpt>
      <trkpt lat="47.51441" lon="6.6669">
        <ele>369</ele>
        <time>2016-09-25T09:10:38.000Z</time>
      </trkpt>
      <trkpt lat="47.51445" lon="6.66687">
        <ele>369</ele>
        <time>2016-09-25T09:10:39.000Z</time>
      </trkpt>
      <trkpt lat="47.51448" lon="6.66684">
        <ele>369</ele>
        <time>2016-09-25T09:10:40.000Z</time>
      </trkpt>
      <trkpt lat="47.51452" lon="6.66681">
        <ele>369</ele>
        <time>2016-09-25T09:10:41.000Z</time>
      </trkpt>
      <trkpt lat="47.51456" lon="6.66678">
        <ele>369</ele>
        <time>2016-09-25T09:10:42.000Z</time>
      </trkpt>
      <trkpt lat="47.51459" lon="6.66675">
        <ele>369</ele>
        <time>2016-09-25T09:10:43.000Z</time>
      </trkpt>
      <trkpt lat="47.51463" lon="6.66672">
        <ele>369</ele>
        <time>2016-09-25T09:10:44.000Z</time>
      </trkpt>
      <trkpt lat="47.51467" lon="6.6667">
        <ele>369</ele>
        <time>2016-09-25T09:10:45.000Z</time>
      </trkpt>
      <trkpt lat="47.5147" lon="6.66667">
        <ele>369</ele>
        <time>2016-09-25T09:10:46.000Z</time>
      </trkpt>
      <trkpt lat="47.51474" lon="6.66665">
        <ele>369</ele>
        <time>2016-09-25T09:10:47.000Z</time>
      </trkpt>
      <trkpt lat="47.51477" lon="6.66662">
        <ele>369</ele>
        <time>2016-09-25T09:10:48.000Z</time>
      </trkpt>
      <trkpt lat="47.51481" lon="6.6666">
        <ele>369</ele>
        <time>2016-09-25T09:10:49.000Z</time>
      </trkpt>
      <trkpt lat="47.51484" lon="6.66657">
        <ele>369</ele>
        <time>2016-09-25T09:10:50.000Z</time>
      </trkpt>
      <trkpt lat="47.51488" lon="6.66654">
        <ele>369</ele>
        <time>2016-09-25T09:10:51.000Z</time>
      </trkpt>
      <trkpt lat="47.51491" lon="6.66651">
        <ele>369</ele>
        <time>2016-09-25T09:10:52.000Z</time>
      </trkpt>
      <trkpt lat="47.51494" lon="6.66648">
        <ele>369</ele>
        <time>2016-09-25T09:10:53.000Z</time>
      </trkpt>
      <trkpt lat="47.51497" lon="6.66645">
        <ele>369</ele>
        <time>2016-09-25T09:10:54.000Z</time>
      </trkpt>
      <trkpt lat="47.51501" lon="6.66643">
        <ele>369</ele>
        <time>2016-09-25T09:10:55.000Z</time>
      </trkpt>
      <trkpt lat="47.51504" lon="6.6664">
        <ele>369</ele>
        <time>2016-09-25T09:10:56.000Z</time>
      </trkpt>
      <trkpt lat="47.51507" lon="6.66638">
        <ele>369</ele>
        <time>2016-09-25T09:10:57.000Z</time>
      </trkpt>
      <trkpt lat="47.51511" lon="6.66636">
        <ele>370</ele>
        <time>2016-09-25T09:10:58.000Z</time>
      </trkpt>
      <trkpt lat="47.51515" lon="6.66633">
        <ele>370</ele>
        <time>2016-09-25T09:10:59.000Z</time>
      </trkpt>
      <trkpt lat="47.51518" lon="6.6663">
        <ele>370</ele>
        <time>2016-09-25T09:11:00.000Z</time>
      </trkpt>
      <trkpt lat="47.51523" lon="6.66628">
        <ele>370</ele>
        <time>2016-09-25T09:11:01.000Z</time>
      </trkpt>
      <trkpt lat="47.51527" lon="6.66627">
        <ele>370</ele>
        <time>2016-09-25T09:11:02.000Z</time>
      </trkpt>
      <trkpt lat="47.51531" lon="6.66628">
        <ele>370</ele>
        <time>2016-09-25T09:11:03.000Z</time>
      </trkpt>
      <trkpt lat="47.51535" lon="6.6663">
        <ele>370</ele>
        <time>2016-09-25T09:11:04.000Z</time>
      </trkpt>
      <trkpt lat="47.51538" lon="6.66634">
        <ele>370</ele>
        <time>2016-09-25T09:11:05.000Z</time>
      </trkpt>
      <trkpt lat="47.51539" lon="6.66638">
        <ele>370</ele>
        <time>2016-09-25T09:11:06.000Z</time>
      </trkpt>
      <trkpt lat="47.5154" lon="6.66642">
        <ele>370</ele>
        <time>2016-09-25T09:11:07.000Z</time>
      </trkpt>
      <trkpt lat="47.51539" lon="6.66648">
        <ele>370</ele>
        <time>2016-09-25T09:11:15.000Z</time>
      </trkpt>
      <trkpt lat="47.51539" lon="6.66649">
        <ele>370</ele>
        <time>2016-09-25T09:11:16.000Z</time>
      </trkpt>
      <trkpt lat="47.5154" lon="6.66653">
        <ele>370</ele>
        <time>2016-09-25T09:11:19.000Z</time>
      </trkpt>
      <trkpt lat="47.51542" lon="6.66654">
        <ele>370</ele>
        <time>2016-09-25T09:11:20.000Z</time>
      </trkpt>
      <trkpt lat="47.51544" lon="6.66654">
        <ele>370</ele>
        <time>2016-09-25T09:11:21.000Z</time>
      </trkpt>
      <trkpt lat="47.51547" lon="6.66652">
        <ele>370</ele>
        <time>2016-09-25T09:11:22.000Z</time>
      </trkpt>
      <trkpt lat="47.5155" lon="6.66649">
        <ele>370</ele>
        <time>2016-09-25T09:11:23.000Z</time>
      </trkpt>
      <trkpt lat="47.51553" lon="6.66645">
        <ele>370</ele>
        <time>2016-09-25T09:11:24.000Z</time>
      </trkpt>
      <trkpt lat="47.51555" lon="6.6664">
        <ele>370</ele>
        <time>2016-09-25T09:11:25.000Z</time>
      </trkpt>
      <trkpt lat="47.51557" lon="6.66636">
        <ele>370</ele>
        <time>2016-09-25T09:11:26.000Z</time>
      </trkpt>
      <trkpt lat="47.5156" lon="6.66631">
        <ele>370</ele>
        <time>2016-09-25T09:11:27.000Z</time>
      </trkpt>
      <trkpt lat="47.51562" lon="6.66627">
        <ele>370</ele>
        <time>2016-09-25T09:11:28.000Z</time>
      </trkpt>
      <trkpt lat="47.51565" lon="6.66622">
        <ele>370</ele>
        <time>2016-09-25T09:11:29.000Z</time>
      </trkpt>
      <trkpt lat="47.51568" lon="6.66618">
        <ele>370</ele>
        <time>2016-09-25T09:11:30.000Z</time>
      </trkpt>
      <trkpt lat="47.51571" lon="6.66613">
        <ele>370</ele>
        <time>2016-09-25T09:11:31.000Z</time>
      </trkpt>
      <trkpt lat="47.51574" lon="6.66608">
        <ele>370</ele>
        <time>2016-09-25T09:11:32.000Z</time>
      </trkpt>
      <trkpt lat="47.51577" lon="6.66604">
        <ele>370</ele>
        <time>2016-09-25T09:11:33.000Z</time>
      </trkpt>
      <trkpt lat="47.51582" lon="6.66598">
        <ele>370</ele>
        <time>2016-09-25T09:11:34.000Z</time>
      </trkpt>
      <trkpt lat="47.51585" lon="6.66594">
        <ele>370</ele>
        <time>2016-09-25T09:11:35.000Z</time>
      </trkpt>
      <trkpt lat="47.51588" lon="6.66589">
        <ele>370</ele>
        <time>2016-09-25T09:11:36.000Z</time>
      </trkpt>
      <trkpt lat="47.51591" lon="6.66584">
        <ele>370</ele>
        <time>2016-09-25T09:11:37.000Z</time>
      </trkpt>
      <trkpt lat="47.51594" lon="6.6658">
        <ele>370</ele>
        <time>2016-09-25T09:11:38.000Z</time>
      </trkpt>
      <trkpt lat="47.51598" lon="6.66576">
        <ele>371</ele>
        <time>2016-09-25T09:11:39.000Z</time>
      </trkpt>
      <trkpt lat="47.51602" lon="6.66571">
        <ele>371</ele>
        <time>2016-09-25T09:11:40.000Z</time>
      </trkpt>
      <trkpt lat="47.51606" lon="6.66567">
        <ele>371</ele>
        <time>2016-09-25T09:11:41.000Z</time>
      </trkpt>
      <trkpt lat="47.51609" lon="6.66562">
        <ele>371</ele>
        <time>2016-09-25T09:11:42.000Z</time>
      </trkpt>
      <trkpt lat="47.51613" lon="6.66557">
        <ele>371</ele>
        <time>2016-09-25T09:11:43.000Z</time>
      </trkpt>
      <trkpt lat="47.51617" lon="6.66553">
        <ele>371</ele>
        <time>2016-09-25T09:11:44.000Z</time>
      </trkpt>
      <trkpt lat="47.51621" lon="6.66548">
        <ele>371</ele>
        <time>2016-09-25T09:11:45.000Z</time>
      </trkpt>
      <trkpt lat="47.51624" lon="6.66543">
        <ele>371</ele>
        <time>2016-09-25T09:11:46.000Z</time>
      </trkpt>
      <trkpt lat="47.51628" lon="6.66539">
        <ele>371</ele>
        <time>2016-09-25T09:11:47.000Z</time>
      </trkpt>
      <trkpt lat="47.51631" lon="6.66534">
        <ele>371</ele>
        <time>2016-09-25T09:11:48.000Z</time>
      </trkpt>
      <trkpt lat="47.51635" lon="6.66529">
        <ele>371</ele>
        <time>2016-09-25T09:11:49.000Z</time>
      </trkpt>
      <trkpt lat="47.51638" lon="6.66524">
        <ele>371</ele>
        <time>2016-09-25T09:11:50.000Z</time>
      </trkpt>
      <trkpt lat="47.51642" lon="6.6652">
        <ele>371</ele>
        <time>2016-09-25T09:11:51.000Z</time>
      </trkpt>
      <trkpt lat="47.51645" lon="6.66515">
        <ele>371</ele>
        <time>2016-09-25T09:11:52.000Z</time>
      </trkpt>
      <trkpt lat="47.51648" lon="6.66511">
        <ele>372</ele>
        <time>2016-09-25T09:11:53.000Z</time>
      </trkpt>
      <trkpt lat="47.51653" lon="6.66505">
        <ele>372</ele>
        <time>2016-09-25T09:11:54.000Z</time>
      </trkpt>
      <trkpt lat="47.51655" lon="6.66501">
        <ele>372</ele>
        <time>2016-09-25T09:11:55.000Z</time>
      </trkpt>
      <trkpt lat="47.51659" lon="6.66496">
        <ele>371</ele>
        <time>2016-09-25T09:11:56.000Z</time>
      </trkpt>
      <trkpt lat="47.51662" lon="6.66492">
        <ele>371</ele>
        <time>2016-09-25T09:11:57.000Z</time>
      </trkpt>
      <trkpt lat="47.51665" lon="6.66488">
        <ele>371</ele>
        <time>2016-09-25T09:11:58.000Z</time>
      </trkpt>
      <trkpt lat="47.51669" lon="6.66484">
        <ele>371</ele>
        <time>2016-09-25T09:11:59.000Z</time>
      </trkpt>
      <trkpt lat="47.51672" lon="6.66479">
        <ele>371</ele>
        <time>2016-09-25T09:12:00.000Z</time>
      </trkpt>
      <trkpt lat="47.51676" lon="6.66473">
        <ele>371</ele>
        <time>2016-09-25T09:12:01.000Z</time>
      </trkpt>
      <trkpt lat="47.5168" lon="6.66468">
        <ele>371</ele>
        <time>2016-09-25T09:12:02.000Z</time>
      </trkpt>
      <trkpt lat="47.51683" lon="6.66463">
        <ele>371</ele>
        <time>2016-09-25T09:12:03.000Z</time>
      </trkpt>
      <trkpt lat="47.51688" lon="6.66457">
        <ele>370</ele>
        <time>2016-09-25T09:12:04.000Z</time>
      </trkpt>
      <trkpt lat="47.51692" lon="6.66452">
        <ele>370</ele>
        <time>2016-09-25T09:12:05.000Z</time>
      </trkpt>
      <trkpt lat="47.51695" lon="6.66448">
        <ele>370</ele>
        <time>2016-09-25T09:12:06.000Z</time>
      </trkpt>
      <trkpt lat="47.51699" lon="6.66443">
        <ele>370</ele>
        <time>2016-09-25T09:12:07.000Z</time>
      </trkpt>
      <trkpt lat="47.51702" lon="6.66438">
        <ele>370</ele>
        <time>2016-09-25T09:12:08.000Z</time>
      </trkpt>
      <trkpt lat="47.51706" lon="6.66434">
        <ele>370</ele>
        <time>2016-09-25T09:12:09.000Z</time>
      </trkpt>
      <trkpt lat="47.51709" lon="6.66428">
        <ele>370</ele>
        <time>2016-09-25T09:12:10.000Z</time>
      </trkpt>
      <trkpt lat="47.51713" lon="6.66423">
        <ele>370</ele>
        <time>2016-09-25T09:12:11.000Z</time>
      </trkpt>
      <trkpt lat="47.51717" lon="6.66418">
        <ele>370</ele>
        <time>2016-09-25T09:12:12.000Z</time>
      </trkpt>
      <trkpt lat="47.51721" lon="6.66412">
        <ele>369</ele>
        <time>2016-09-25T09:12:13.000Z</time>
      </trkpt>
      <trkpt lat="47.51725" lon="6.66407">
        <ele>369</ele>
        <time>2016-09-25T09:12:14.000Z</time>
      </trkpt>
      <trkpt lat="47.51729" lon="6.66402">
        <ele>369</ele>
        <time>2016-09-25T09:12:15.000Z</time>
      </trkpt>
      <trkpt lat="47.51732" lon="6.66397">
        <ele>369</ele>
        <time>2016-09-25T09:12:16.000Z</time>
      </trkpt>
      <trkpt lat="47.51736" lon="6.66391">
        <ele>369</ele>
        <time>2016-09-25T09:12:17.000Z</time>
      </trkpt>
      <trkpt lat="47.5174" lon="6.66386">
        <ele>369</ele>
        <time>2016-09-25T09:12:18.000Z</time>
      </trkpt>
      <trkpt lat="47.51744" lon="6.66381">
        <ele>369</ele>
        <time>2016-09-25T09:12:19.000Z</time>
      </trkpt>
      <trkpt lat="47.51747" lon="6.66376">
        <ele>369</ele>
        <time>2016-09-25T09:12:20.000Z</time>
      </trkpt>
      <trkpt lat="47.51751" lon="6.66371">
        <ele>370</ele>
        <time>2016-09-25T09:12:21.000Z</time>
      </trkpt>
      <trkpt lat="47.51755" lon="6.66366">
        <ele>370</ele>
        <time>2016-09-25T09:12:22.000Z</time>
      </trkpt>
      <trkpt lat="47.51758" lon="6.66361">
        <ele>370</ele>
        <time>2016-09-25T09:12:23.000Z</time>
      </trkpt>
      <trkpt lat="47.51762" lon="6.66356">
        <ele>370</ele>
        <time>2016-09-25T09:12:24.000Z</time>
      </trkpt>
      <trkpt lat="47.51765" lon="6.66352">
        <ele>370</ele>
        <time>2016-09-25T09:12:25.000Z</time>
      </trkpt>
      <trkpt lat="47.51769" lon="6.66348">
        <ele>370</ele>
        <time>2016-09-25T09:12:26.000Z</time>
      </trkpt>
      <trkpt lat="47.51774" lon="6.66346">
        <ele>370</ele>
        <time>2016-09-25T09:12:27.000Z</time>
      </trkpt>
      <trkpt lat="47.51778" lon="6.66345">
        <ele>370</ele>
        <time>2016-09-25T09:12:28.000Z</time>
      </trkpt>
      <trkpt lat="47.51782" lon="6.66343">
        <ele>370</ele>
        <time>2016-09-25T09:12:29.000Z</time>
      </trkpt>
      <trkpt lat="47.51786" lon="6.66341">
        <ele>370</ele>
        <time>2016-09-25T09:12:30.000Z</time>
      </trkpt>
      <trkpt lat="47.5179" lon="6.66338">
        <ele>370</ele>
        <time>2016-09-25T09:12:31.000Z</time>
      </trkpt>
      <trkpt lat="47.51794" lon="6.66335">
        <ele>370</ele>
        <time>2016-09-25T09:12:32.000Z</time>
      </trkpt>
      <trkpt lat="47.51797" lon="6.66334">
        <ele>370</ele>
        <time>2016-09-25T09:12:33.000Z</time>
      </trkpt>
      <trkpt lat="47.51801" lon="6.66334">
        <ele>370</ele>
        <time>2016-09-25T09:12:34.000Z</time>
      </trkpt>
      <trkpt lat="47.51803" lon="6.66337">
        <ele>371</ele>
        <time>2016-09-25T09:12:35.000Z</time>
      </trkpt>
      <trkpt lat="47.51806" lon="6.66339">
        <ele>371</ele>
        <time>2016-09-25T09:12:36.000Z</time>
      </trkpt>
      <trkpt lat="47.51808" lon="6.6634">
        <ele>371</ele>
        <time>2016-09-25T09:12:37.000Z</time>
      </trkpt>
      <trkpt lat="47.51811" lon="6.66342">
        <ele>371</ele>
        <time>2016-09-25T09:12:38.000Z</time>
      </trkpt>
      <trkpt lat="47.51814" lon="6.66344">
        <ele>371</ele>
        <time>2016-09-25T09:12:39.000Z</time>
      </trkpt>
      <trkpt lat="47.51817" lon="6.66345">
        <ele>371</ele>
        <time>2016-09-25T09:12:40.000Z</time>
      </trkpt>
      <trkpt lat="47.51819" lon="6.66346">
        <ele>371</ele>
        <time>2016-09-25T09:12:41.000Z</time>
      </trkpt>
      <trkpt lat="47.51822" lon="6.66348">
        <ele>371</ele>
        <time>2016-09-25T09:12:42.000Z</time>
      </trkpt>
      <trkpt lat="47.51824" lon="6.6635">
        <ele>371</ele>
        <time>2016-09-25T09:12:43.000Z</time>
      </trkpt>
      <trkpt lat="47.51826" lon="6.66353">
        <ele>371</ele>
        <time>2016-09-25T09:12:44.000Z</time>
      </trkpt>
      <trkpt lat="47.51827" lon="6.66357">
        <ele>371</ele>
        <time>2016-09-25T09:12:45.000Z</time>
      </trkpt>
      <trkpt lat="47.51829" lon="6.6636">
        <ele>371</ele>
        <time>2016-09-25T09:12:46.000Z</time>
      </trkpt>
      <trkpt lat="47.51831" lon="6.66363">
        <ele>371</ele>
        <time>2016-09-25T09:12:47.000Z</time>
      </trkpt>
      <trkpt lat="47.51833" lon="6.66366">
        <ele>371</ele>
        <time>2016-09-25T09:12:48.000Z</time>
      </trkpt>
      <trkpt lat="47.51835" lon="6.66369">
        <ele>372</ele>
        <time>2016-09-25T09:12:49.000Z</time>
      </trkpt>
      <trkpt lat="47.51837" lon="6.66371">
        <ele>372</ele>
        <time>2016-09-25T09:12:50.000Z</time>
      </trkpt>
      <trkpt lat="47.51838" lon="6.66374">
        <ele>372</ele>
        <time>2016-09-25T09:12:51.000Z</time>
      </trkpt>
      <trkpt lat="47.5184" lon="6.66377">
        <ele>372</ele>
        <time>2016-09-25T09:12:52.000Z</time>
      </trkpt>
      <trkpt lat="47.51841" lon="6.66379">
        <ele>372</ele>
        <time>2016-09-25T09:12:53.000Z</time>
      </trkpt>
      <trkpt lat="47.51843" lon="6.66382">
        <ele>372</ele>
        <time>2016-09-25T09:12:54.000Z</time>
      </trkpt>
      <trkpt lat="47.51845" lon="6.66384">
        <ele>372</ele>
        <time>2016-09-25T09:12:55.000Z</time>
      </trkpt>
      <trkpt lat="47.51847" lon="6.66387">
        <ele>372</ele>
        <time>2016-09-25T09:12:56.000Z</time>
      </trkpt>
      <trkpt lat="47.51849" lon="6.66389">
        <ele>372</ele>
        <time>2016-09-25T09:12:57.000Z</time>
      </trkpt>
      <trkpt lat="47.5185" lon="6.66392">
        <ele>372</ele>
        <time>2016-09-25T09:12:58.000Z</time>
      </trkpt>
      <trkpt lat="47.51852" lon="6.66395">
        <ele>372</ele>
        <time>2016-09-25T09:12:59.000Z</time>
      </trkpt>
      <trkpt lat="47.51853" lon="6.66397">
        <ele>372</ele>
        <time>2016-09-25T09:13:00.000Z</time>
      </trkpt>
      <trkpt lat="47.51855" lon="6.66399">
        <ele>372</ele>
        <time>2016-09-25T09:13:01.000Z</time>
      </trkpt>
      <trkpt lat="47.51857" lon="6.66402">
        <ele>372</ele>
        <time>2016-09-25T09:13:02.000Z</time>
      </trkpt>
      <trkpt lat="47.51858" lon="6.66404">
        <ele>372</ele>
        <time>2016-09-25T09:13:03.000Z</time>
      </trkpt>
      <trkpt lat="47.5186" lon="6.66407">
        <ele>372</ele>
        <time>2016-09-25T09:13:04.000Z</time>
      </trkpt>
      <trkpt lat="47.51862" lon="6.66409">
        <ele>372</ele>
        <time>2016-09-25T09:13:05.000Z</time>
      </trkpt>
      <trkpt lat="47.51864" lon="6.66412">
        <ele>372</ele>
        <time>2016-09-25T09:13:06.000Z</time>
      </trkpt>
      <trkpt lat="47.51866" lon="6.66414">
        <ele>372</ele>
        <time>2016-09-25T09:13:07.000Z</time>
      </trkpt>
      <trkpt lat="47.51868" lon="6.66417">
        <ele>373</ele>
        <time>2016-09-25T09:13:08.000Z</time>
      </trkpt>
      <trkpt lat="47.5187" lon="6.6642">
        <ele>373</ele>
        <time>2016-09-25T09:13:09.000Z</time>
      </trkpt>
      <trkpt lat="47.51871" lon="6.66422">
        <ele>373</ele>
        <time>2016-09-25T09:13:10.000Z</time>
      </trkpt>
      <trkpt lat="47.51873" lon="6.66425">
        <ele>373</ele>
        <time>2016-09-25T09:13:11.000Z</time>
      </trkpt>
      <trkpt lat="47.51875" lon="6.66427">
        <ele>373</ele>
        <time>2016-09-25T09:13:12.000Z</time>
      </trkpt>
      <trkpt lat="47.51877" lon="6.6643">
        <ele>373</ele>
        <time>2016-09-25T09:13:13.000Z</time>
      </trkpt>
      <trkpt lat="47.51879" lon="6.66432">
        <ele>373</ele>
        <time>2016-09-25T09:13:14.000Z</time>
      </trkpt>
      <trkpt lat="47.51881" lon="6.66435">
        <ele>373</ele>
        <time>2016-09-25T09:13:15.000Z</time>
      </trkpt>
      <trkpt lat="47.51882" lon="6.66437">
        <ele>373</ele>
        <time>2016-09-25T09:13:16.000Z</time>
      </trkpt>
      <trkpt lat="47.51884" lon="6.6644">
        <ele>373</ele>
        <time>2016-09-25T09:13:17.000Z</time>
      </trkpt>
      <trkpt lat="47.51886" lon="6.66443">
        <ele>373</ele>
        <time>2016-09-25T09:13:18.000Z</time>
      </trkpt>
      <trkpt lat="47.51888" lon="6.66445">
        <ele>373</ele>
        <time>2016-09-25T09:13:19.000Z</time>
      </trkpt>
      <trkpt lat="47.5189" lon="6.66448">
        <ele>373</ele>
        <time>2016-09-25T09:13:20.000Z</time>
      </trkpt>
      <trkpt lat="47.51892" lon="6.66451">
        <ele>373</ele>
        <time>2016-09-25T09:13:21.000Z</time>
      </trkpt>
      <trkpt lat="47.51893" lon="6.66454">
        <ele>373</ele>
        <time>2016-09-25T09:13:22.000Z</time>
      </trkpt>
      <trkpt lat="47.51895" lon="6.66457">
        <ele>373</ele>
        <time>2016-09-25T09:13:23.000Z</time>
      </trkpt>
      <trkpt lat="47.51897" lon="6.66459">
        <ele>373</ele>
        <time>2016-09-25T09:13:24.000Z</time>
      </trkpt>
      <trkpt lat="47.51899" lon="6.66461">
        <ele>373</ele>
        <time>2016-09-25T09:13:25.000Z</time>
      </trkpt>
      <trkpt lat="47.51901" lon="6.66464">
        <ele>373</ele>
        <time>2016-09-25T09:13:26.000Z</time>
      </trkpt>
      <trkpt lat="47.51903" lon="6.66466">
        <ele>373</ele>
        <time>2016-09-25T09:13:27.000Z</time>
      </trkpt>
      <trkpt lat="47.51905" lon="6.66469">
        <ele>373</ele>
        <time>2016-09-25T09:13:28.000Z</time>
      </trkpt>
      <trkpt lat="47.51906" lon="6.66471">
        <ele>374</ele>
        <time>2016-09-25T09:13:29.000Z</time>
      </trkpt>
      <trkpt lat="47.51908" lon="6.66474">
        <ele>374</ele>
        <time>2016-09-25T09:13:30.000Z</time>
      </trkpt>
      <trkpt lat="47.5191" lon="6.66476">
        <ele>374</ele>
        <time>2016-09-25T09:13:31.000Z</time>
      </trkpt>
      <trkpt lat="47.51912" lon="6.66479">
        <ele>374</ele>
        <time>2016-09-25T09:13:32.000Z</time>
      </trkpt>
      <trkpt lat="47.51915" lon="6.66481">
        <ele>374</ele>
        <time>2016-09-25T09:13:33.000Z</time>
      </trkpt>
      <trkpt lat="47.51917" lon="6.66483">
        <ele>374</ele>
        <time>2016-09-25T09:13:34.000Z</time>
      </trkpt>
      <trkpt lat="47.51919" lon="6.66485">
        <ele>375</ele>
        <time>2016-09-25T09:13:35.000Z</time>
      </trkpt>
      <trkpt lat="47.5192" lon="6.66488">
        <ele>375</ele>
        <time>2016-09-25T09:13:36.000Z</time>
      </trkpt>
      <trkpt lat="47.51922" lon="6.6649">
        <ele>375</ele>
        <time>2016-09-25T09:13:37.000Z</time>
      </trkpt>
      <trkpt lat="47.51924" lon="6.66493">
        <ele>375</ele>
        <time>2016-09-25T09:13:38.000Z</time>
      </trkpt>
      <trkpt lat="47.51926" lon="6.66496">
        <ele>375</ele>
        <time>2016-09-25T09:13:39.000Z</time>
      </trkpt>
      <trkpt lat="47.51928" lon="6.66501">
        <ele>375</ele>
        <time>2016-09-25T09:13:41.000Z</time>
      </trkpt>
      <trkpt lat="47.5193" lon="6.66502">
        <ele>375</ele>
        <time>2016-09-25T09:13:42.000Z</time>
      </trkpt>
      <trkpt lat="47.51934" lon="6.665">
        <ele>375</ele>
        <time>2016-09-25T09:13:44.000Z</time>
      </trkpt>
      <trkpt lat="47.51937" lon="6.66498">
        <ele>375</ele>
        <time>2016-09-25T09:13:45.000Z</time>
      </trkpt>
      <trkpt lat="47.5194" lon="6.66496">
        <ele>375</ele>
        <time>2016-09-25T09:13:46.000Z</time>
      </trkpt>
      <trkpt lat="47.51943" lon="6.66494">
        <ele>375</ele>
        <time>2016-09-25T09:13:47.000Z</time>
      </trkpt>
      <trkpt lat="47.51946" lon="6.66492">
        <ele>375</ele>
        <time>2016-09-25T09:13:48.000Z</time>
      </trkpt>
      <trkpt lat="47.51949" lon="6.66489">
        <ele>375</ele>
        <time>2016-09-25T09:13:49.000Z</time>
      </trkpt>
      <trkpt lat="47.51952" lon="6.66486">
        <ele>375</ele>
        <time>2016-09-25T09:13:50.000Z</time>
      </trkpt>
      <trkpt lat="47.51955" lon="6.66484">
        <ele>375</ele>
        <time>2016-09-25T09:13:51.000Z</time>
      </trkpt>
      <trkpt lat="47.51959" lon="6.66482">
        <ele>375</ele>
        <time>2016-09-25T09:13:52.000Z</time>
      </trkpt>
      <trkpt lat="47.51962" lon="6.66479">
        <ele>375</ele>
        <time>2016-09-25T09:13:53.000Z</time>
      </trkpt>
      <trkpt lat="47.51965" lon="6.66476">
        <ele>375</ele>
        <time>2016-09-25T09:13:54.000Z</time>
      </trkpt>
      <trkpt lat="47.51969" lon="6.66473">
        <ele>375</ele>
        <time>2016-09-25T09:13:55.000Z</time>
      </trkpt>
      <trkpt lat="47.51972" lon="6.6647">
        <ele>375</ele>
        <time>2016-09-25T09:13:56.000Z</time>
      </trkpt>
      <trkpt lat="47.51976" lon="6.66467">
        <ele>375</ele>
        <time>2016-09-25T09:13:57.000Z</time>
      </trkpt>
      <trkpt lat="47.5198" lon="6.66464">
        <ele>375</ele>
        <time>2016-09-25T09:13:58.000Z</time>
      </trkpt>
      <trkpt lat="47.51983" lon="6.66461">
        <ele>375</ele>
        <time>2016-09-25T09:13:59.000Z</time>
      </trkpt>
      <trkpt lat="47.51987" lon="6.66458">
        <ele>375</ele>
        <time>2016-09-25T09:14:00.000Z</time>
      </trkpt>
      <trkpt lat="47.51991" lon="6.66456">
        <ele>375</ele>
        <time>2016-09-25T09:14:01.000Z</time>
      </trkpt>
      <trkpt lat="47.51994" lon="6.66453">
        <ele>375</ele>
        <time>2016-09-25T09:14:02.000Z</time>
      </trkpt>
      <trkpt lat="47.51998" lon="6.66451">
        <ele>375</ele>
        <time>2016-09-25T09:14:03.000Z</time>
      </trkpt>
      <trkpt lat="47.52002" lon="6.66449">
        <ele>375</ele>
        <time>2016-09-25T09:14:04.000Z</time>
      </trkpt>
      <trkpt lat="47.52006" lon="6.66446">
        <ele>375</ele>
        <time>2016-09-25T09:14:05.000Z</time>
      </trkpt>
      <trkpt lat="47.52011" lon="6.66442">
        <ele>375</ele>
        <time>2016-09-25T09:14:06.000Z</time>
      </trkpt>
      <trkpt lat="47.52015" lon="6.66439">
        <ele>375</ele>
        <time>2016-09-25T09:14:07.000Z</time>
      </trkpt>
      <trkpt lat="47.52018" lon="6.66435">
        <ele>375</ele>
        <time>2016-09-25T09:14:08.000Z</time>
      </trkpt>
      <trkpt lat="47.52022" lon="6.66432">
        <ele>375</ele>
        <time>2016-09-25T09:14:09.000Z</time>
      </trkpt>
      <trkpt lat="47.52026" lon="6.66429">
        <ele>375</ele>
        <time>2016-09-25T09:14:10.000Z</time>
      </trkpt>
      <trkpt lat="47.52029" lon="6.66425">
        <ele>375</ele>
        <time>2016-09-25T09:14:11.000Z</time>
      </trkpt>
      <trkpt lat="47.52033" lon="6.66421">
        <ele>375</ele>
        <time>2016-09-25T09:14:12.000Z</time>
      </trkpt>
      <trkpt lat="47.52037" lon="6.66417">
        <ele>375</ele>
        <time>2016-09-25T09:14:13.000Z</time>
      </trkpt>
      <trkpt lat="47.52041" lon="6.66415">
        <ele>375</ele>
        <time>2016-09-25T09:14:14.000Z</time>
      </trkpt>
      <trkpt lat="47.52045" lon="6.6641">
        <ele>375</ele>
        <time>2016-09-25T09:14:15.000Z</time>
      </trkpt>
      <trkpt lat="47.52049" lon="6.66406">
        <ele>375</ele>
        <time>2016-09-25T09:14:16.000Z</time>
      </trkpt>
      <trkpt lat="47.52052" lon="6.66401">
        <ele>375</ele>
        <time>2016-09-25T09:14:17.000Z</time>
      </trkpt>
      <trkpt lat="47.52056" lon="6.66396">
        <ele>375</ele>
        <time>2016-09-25T09:14:18.000Z</time>
      </trkpt>
      <trkpt lat="47.52059" lon="6.66391">
        <ele>375</ele>
        <time>2016-09-25T09:14:19.000Z</time>
      </trkpt>
      <trkpt lat="47.52062" lon="6.66387">
        <ele>375</ele>
        <time>2016-09-25T09:14:20.000Z</time>
      </trkpt>
      <trkpt lat="47.52065" lon="6.66383">
        <ele>375</ele>
        <time>2016-09-25T09:14:21.000Z</time>
      </trkpt>
      <trkpt lat="47.52069" lon="6.66379">
        <ele>375</ele>
        <time>2016-09-25T09:14:22.000Z</time>
      </trkpt>
      <trkpt lat="47.52072" lon="6.66375">
        <ele>375</ele>
        <time>2016-09-25T09:14:23.000Z</time>
      </trkpt>
      <trkpt lat="47.52075" lon="6.6637">
        <ele>375</ele>
        <time>2016-09-25T09:14:24.000Z</time>
      </trkpt>
      <trkpt lat="47.52078" lon="6.66364">
        <ele>375</ele>
        <time>2016-09-25T09:14:25.000Z</time>
      </trkpt>
      <trkpt lat="47.52081" lon="6.66359">
        <ele>375</ele>
        <time>2016-09-25T09:14:26.000Z</time>
      </trkpt>
      <trkpt lat="47.52085" lon="6.66354">
        <ele>377</ele>
        <time>2016-09-25T09:14:27.000Z</time>
      </trkpt>
      <trkpt lat="47.52087" lon="6.66349">
        <ele>377</ele>
        <time>2016-09-25T09:14:28.000Z</time>
      </trkpt>
      <trkpt lat="47.52091" lon="6.66344">
        <ele>377</ele>
        <time>2016-09-25T09:14:29.000Z</time>
      </trkpt>
      <trkpt lat="47.52094" lon="6.66339">
        <ele>377</ele>
        <time>2016-09-25T09:14:30.000Z</time>
      </trkpt>
      <trkpt lat="47.52096" lon="6.66334">
        <ele>377</ele>
        <time>2016-09-25T09:14:31.000Z</time>
      </trkpt>
      <trkpt lat="47.521" lon="6.66335">
        <ele>377</ele>
        <time>2016-09-25T09:14:32.000Z</time>
      </trkpt>
      <trkpt lat="47.52103" lon="6.66337">
        <ele>377</ele>
        <time>2016-09-25T09:14:33.000Z</time>
      </trkpt>
      <trkpt lat="47.52106" lon="6.66339">
        <ele>377</ele>
        <time>2016-09-25T09:14:34.000Z</time>
      </trkpt>
      <trkpt lat="47.52107" lon="6.66346">
        <ele>377</ele>
        <time>2016-09-25T09:14:35.000Z</time>
      </trkpt>
      <trkpt lat="47.52107" lon="6.66352">
        <ele>377</ele>
        <time>2016-09-25T09:14:36.000Z</time>
      </trkpt>
      <trkpt lat="47.52109" lon="6.66357">
        <ele>377</ele>
        <time>2016-09-25T09:14:37.000Z</time>
      </trkpt>
      <trkpt lat="47.52108" lon="6.66366">
        <ele>377</ele>
        <time>2016-09-25T09:14:38.000Z</time>
      </trkpt>
      <trkpt lat="47.52108" lon="6.66371">
        <ele>377</ele>
        <time>2016-09-25T09:14:39.000Z</time>
      </trkpt>
      <trkpt lat="47.52109" lon="6.66377">
        <ele>377</ele>
        <time>2016-09-25T09:14:40.000Z</time>
      </trkpt>
      <trkpt lat="47.5211" lon="6.66384">
        <ele>377</ele>
        <time>2016-09-25T09:14:41.000Z</time>
      </trkpt>
      <trkpt lat="47.5211" lon="6.66391">
        <ele>377</ele>
        <time>2016-09-25T09:14:42.000Z</time>
      </trkpt>
      <trkpt lat="47.52112" lon="6.66398">
        <ele>377</ele>
        <time>2016-09-25T09:14:43.000Z</time>
      </trkpt>
      <trkpt lat="47.52113" lon="6.66403">
        <ele>377</ele>
        <time>2016-09-25T09:14:44.000Z</time>
      </trkpt>
      <trkpt lat="47.52113" lon="6.66407">
        <ele>377</ele>
        <time>2016-09-25T09:14:45.000Z</time>
      </trkpt>
      <trkpt lat="47.52114" lon="6.66412">
        <ele>377</ele>
        <time>2016-09-25T09:14:46.000Z</time>
      </trkpt>
      <trkpt lat="47.52115" lon="6.66419">
        <ele>377</ele>
        <time>2016-09-25T09:14:47.000Z</time>
      </trkpt>
      <trkpt lat="47.52115" lon="6.66426">
        <ele>377</ele>
        <time>2016-09-25T09:14:48.000Z</time>
      </trkpt>
      <trkpt lat="47.52115" lon="6.66432">
        <ele>377</ele>
        <time>2016-09-25T09:14:49.000Z</time>
      </trkpt>
      <trkpt lat="47.52116" lon="6.66439">
        <ele>378</ele>
        <time>2016-09-25T09:14:50.000Z</time>
      </trkpt>
      <trkpt lat="47.52116" lon="6.66446">
        <ele>378</ele>
        <time>2016-09-25T09:14:51.000Z</time>
      </trkpt>
      <trkpt lat="47.52116" lon="6.66453">
        <ele>378</ele>
        <time>2016-09-25T09:14:52.000Z</time>
      </trkpt>
      <trkpt lat="47.52116" lon="6.66459">
        <ele>378</ele>
        <time>2016-09-25T09:14:53.000Z</time>
      </trkpt>
      <trkpt lat="47.52116" lon="6.66467">
        <ele>378</ele>
        <time>2016-09-25T09:14:54.000Z</time>
      </trkpt>
      <trkpt lat="47.52115" lon="6.66473">
        <ele>378</ele>
        <time>2016-09-25T09:14:55.000Z</time>
      </trkpt>
      <trkpt lat="47.52115" lon="6.6648">
        <ele>378</ele>
        <time>2016-09-25T09:14:56.000Z</time>
      </trkpt>
      <trkpt lat="47.52115" lon="6.66486">
        <ele>378</ele>
        <time>2016-09-25T09:14:57.000Z</time>
      </trkpt>
      <trkpt lat="47.52115" lon="6.66493">
        <ele>378</ele>
        <time>2016-09-25T09:14:58.000Z</time>
      </trkpt>
      <trkpt lat="47.52114" lon="6.66499">
        <ele>378</ele>
        <time>2016-09-25T09:14:59.000Z</time>
      </trkpt>
      <trkpt lat="47.52114" lon="6.66506">
        <ele>378</ele>
        <time>2016-09-25T09:15:00.000Z</time>
      </trkpt>
      <trkpt lat="47.52114" lon="6.66512">
        <ele>378</ele>
        <time>2016-09-25T09:15:01.000Z</time>
      </trkpt>
      <trkpt lat="47.52113" lon="6.66517">
        <ele>378</ele>
        <time>2016-09-25T09:15:02.000Z</time>
      </trkpt>
      <trkpt lat="47.52112" lon="6.66523">
        <ele>378</ele>
        <time>2016-09-25T09:15:03.000Z</time>
      </trkpt>
      <trkpt lat="47.52112" lon="6.66529">
        <ele>378</ele>
        <time>2016-09-25T09:15:04.000Z</time>
      </trkpt>
      <trkpt lat="47.52112" lon="6.66535">
        <ele>378</ele>
        <time>2016-09-25T09:15:05.000Z</time>
      </trkpt>
      <trkpt lat="47.52112" lon="6.66541">
        <ele>378</ele>
        <time>2016-09-25T09:15:06.000Z</time>
      </trkpt>
      <trkpt lat="47.52111" lon="6.66547">
        <ele>378</ele>
        <time>2016-09-25T09:15:07.000Z</time>
      </trkpt>
      <trkpt lat="47.52111" lon="6.66553">
        <ele>378</ele>
        <time>2016-09-25T09:15:08.000Z</time>
      </trkpt>
      <trkpt lat="47.52111" lon="6.66559">
        <ele>378</ele>
        <time>2016-09-25T09:15:09.000Z</time>
      </trkpt>
      <trkpt lat="47.52111" lon="6.66565">
        <ele>378</ele>
        <time>2016-09-25T09:15:10.000Z</time>
      </trkpt>
      <trkpt lat="47.5211" lon="6.66571">
        <ele>378</ele>
        <time>2016-09-25T09:15:11.000Z</time>
      </trkpt>
      <trkpt lat="47.5211" lon="6.66577">
        <ele>378</ele>
        <time>2016-09-25T09:15:12.000Z</time>
      </trkpt>
      <trkpt lat="47.5211" lon="6.66584">
        <ele>377</ele>
        <time>2016-09-25T09:15:13.000Z</time>
      </trkpt>
      <trkpt lat="47.5211" lon="6.66592">
        <ele>378</ele>
        <time>2016-09-25T09:15:14.000Z</time>
      </trkpt>
      <trkpt lat="47.52109" lon="6.66599">
        <ele>378</ele>
        <time>2016-09-25T09:15:15.000Z</time>
      </trkpt>
      <trkpt lat="47.52109" lon="6.66606">
        <ele>378</ele>
        <time>2016-09-25T09:15:16.000Z</time>
      </trkpt>
      <trkpt lat="47.5211" lon="6.66612">
        <ele>378</ele>
        <time>2016-09-25T09:15:17.000Z</time>
      </trkpt>
      <trkpt lat="47.5211" lon="6.6662">
        <ele>378</ele>
        <time>2016-09-25T09:15:18.000Z</time>
      </trkpt>
      <trkpt lat="47.5211" lon="6.66627">
        <ele>378</ele>
        <time>2016-09-25T09:15:19.000Z</time>
      </trkpt>
      <trkpt lat="47.52111" lon="6.66634">
        <ele>378</ele>
        <time>2016-09-25T09:15:20.000Z</time>
      </trkpt>
      <trkpt lat="47.5211" lon="6.66641">
        <ele>378</ele>
        <time>2016-09-25T09:15:21.000Z</time>
      </trkpt>
      <trkpt lat="47.5211" lon="6.66648">
        <ele>378</ele>
        <time>2016-09-25T09:15:22.000Z</time>
      </trkpt>
      <trkpt lat="47.5211" lon="6.66655">
        <ele>378</ele>
        <time>2016-09-25T09:15:23.000Z</time>
      </trkpt>
      <trkpt lat="47.5211" lon="6.66662">
        <ele>378</ele>
        <time>2016-09-25T09:15:24.000Z</time>
      </trkpt>
      <trkpt lat="47.5211" lon="6.66669">
        <ele>377</ele>
        <time>2016-09-25T09:15:25.000Z</time>
      </trkpt>
      <trkpt lat="47.5211" lon="6.66676">
        <ele>377</ele>
        <time>2016-09-25T09:15:26.000Z</time>
      </trkpt>
      <trkpt lat="47.52109" lon="6.66684">
        <ele>377</ele>
        <time>2016-09-25T09:15:27.000Z</time>
      </trkpt>
      <trkpt lat="47.52109" lon="6.66691">
        <ele>377</ele>
        <time>2016-09-25T09:15:28.000Z</time>
      </trkpt>
      <trkpt lat="47.52109" lon="6.66699">
        <ele>377</ele>
        <time>2016-09-25T09:15:29.000Z</time>
      </trkpt>
      <trkpt lat="47.52109" lon="6.66707">
        <ele>377</ele>
        <time>2016-09-25T09:15:30.000Z</time>
      </trkpt>
      <trkpt lat="47.52108" lon="6.66714">
        <ele>377</ele>
        <time>2016-09-25T09:15:31.000Z</time>
      </trkpt>
      <trkpt lat="47.52107" lon="6.6672">
        <ele>377</ele>
        <time>2016-09-25T09:15:32.000Z</time>
      </trkpt>
      <trkpt lat="47.52107" lon="6.66726">
        <ele>377</ele>
        <time>2016-09-25T09:15:33.000Z</time>
      </trkpt>
      <trkpt lat="47.52106" lon="6.66734">
        <ele>377</ele>
        <time>2016-09-25T09:15:34.000Z</time>
      </trkpt>
      <trkpt lat="47.52106" lon="6.66741">
        <ele>377</ele>
        <time>2016-09-25T09:15:35.000Z</time>
      </trkpt>
      <trkpt lat="47.52105" lon="6.66747">
        <ele>377</ele>
        <time>2016-09-25T09:15:36.000Z</time>
      </trkpt>
      <trkpt lat="47.52104" lon="6.66755">
        <ele>377</ele>
        <time>2016-09-25T09:15:37.000Z</time>
      </trkpt>
      <trkpt lat="47.52103" lon="6.66761">
        <ele>377</ele>
        <time>2016-09-25T09:15:38.000Z</time>
      </trkpt>
      <trkpt lat="47.52103" lon="6.66769">
        <ele>377</ele>
        <time>2016-09-25T09:15:39.000Z</time>
      </trkpt>
      <trkpt lat="47.52103" lon="6.66777">
        <ele>377</ele>
        <time>2016-09-25T09:15:40.000Z</time>
      </trkpt>
      <trkpt lat="47.52103" lon="6.66784">
        <ele>377</ele>
        <time>2016-09-25T09:15:41.000Z</time>
      </trkpt>
      <trkpt lat="47.52103" lon="6.66792">
        <ele>377</ele>
        <time>2016-09-25T09:15:42.000Z</time>
      </trkpt>
      <trkpt lat="47.52103" lon="6.668">
        <ele>377</ele>
        <time>2016-09-25T09:15:43.000Z</time>
      </trkpt>
      <trkpt lat="47.52103" lon="6.66808">
        <ele>377</ele>
        <time>2016-09-25T09:15:44.000Z</time>
      </trkpt>
      <trkpt lat="47.52103" lon="6.66816">
        <ele>377</ele>
        <time>2016-09-25T09:15:45.000Z</time>
      </trkpt>
      <trkpt lat="47.52104" lon="6.66825">
        <ele>376</ele>
        <time>2016-09-25T09:15:46.000Z</time>
      </trkpt>
      <trkpt lat="47.52104" lon="6.66834">
        <ele>376</ele>
        <time>2016-09-25T09:15:47.000Z</time>
      </trkpt>
      <trkpt lat="47.52105" lon="6.66842">
        <ele>376</ele>
        <time>2016-09-25T09:15:48.000Z</time>
      </trkpt>
      <trkpt lat="47.52106" lon="6.6685">
        <ele>376</ele>
        <time>2016-09-25T09:15:49.000Z</time>
      </trkpt>
      <trkpt lat="47.52106" lon="6.66858">
        <ele>376</ele>
        <time>2016-09-25T09:15:50.000Z</time>
      </trkpt>
      <trkpt lat="47.52107" lon="6.66867">
        <ele>376</ele>
        <time>2016-09-25T09:15:51.000Z</time>
      </trkpt>
      <trkpt lat="47.52107" lon="6.66875">
        <ele>376</ele>
        <time>2016-09-25T09:15:52.000Z</time>
      </trkpt>
      <trkpt lat="47.52107" lon="6.66883">
        <ele>376</ele>
        <time>2016-09-25T09:15:53.000Z</time>
      </trkpt>
      <trkpt lat="47.52108" lon="6.66891">
        <ele>376</ele>
        <time>2016-09-25T09:15:54.000Z</time>
      </trkpt>
      <trkpt lat="47.52108" lon="6.66899">
        <ele>376</ele>
        <time>2016-09-25T09:15:55.000Z</time>
      </trkpt>
      <trkpt lat="47.52109" lon="6.66906">
        <ele>376</ele>
        <time>2016-09-25T09:15:56.000Z</time>
      </trkpt>
      <trkpt lat="47.5211" lon="6.66915">
        <ele>376</ele>
        <time>2016-09-25T09:15:57.000Z</time>
      </trkpt>
      <trkpt lat="47.5211" lon="6.66925">
        <ele>375</ele>
        <time>2016-09-25T09:15:58.000Z</time>
      </trkpt>
      <trkpt lat="47.5211" lon="6.66934">
        <ele>375</ele>
        <time>2016-09-25T09:15:59.000Z</time>
      </trkpt>
      <trkpt lat="47.5211" lon="6.66942">
        <ele>375</ele>
        <time>2016-09-25T09:16:00.000Z</time>
      </trkpt>
      <trkpt lat="47.5211" lon="6.66952">
        <ele>375</ele>
        <time>2016-09-25T09:16:01.000Z</time>
      </trkpt>
      <trkpt lat="47.52111" lon="6.66961">
        <ele>375</ele>
        <time>2016-09-25T09:16:02.000Z</time>
      </trkpt>
      <trkpt lat="47.52112" lon="6.6697">
        <ele>375</ele>
        <time>2016-09-25T09:16:03.000Z</time>
      </trkpt>
      <trkpt lat="47.52113" lon="6.66979">
        <ele>375</ele>
        <time>2016-09-25T09:16:04.000Z</time>
      </trkpt>
      <trkpt lat="47.52114" lon="6.66987">
        <ele>375</ele>
        <time>2016-09-25T09:16:05.000Z</time>
      </trkpt>
      <trkpt lat="47.52116" lon="6.66996">
        <ele>375</ele>
        <time>2016-09-25T09:16:06.000Z</time>
      </trkpt>
      <trkpt lat="47.52117" lon="6.67005">
        <ele>374</ele>
        <time>2016-09-25T09:16:07.000Z</time>
      </trkpt>
      <trkpt lat="47.52119" lon="6.67013">
        <ele>374</ele>
        <time>2016-09-25T09:16:08.000Z</time>
      </trkpt>
      <trkpt lat="47.5212" lon="6.67022">
        <ele>374</ele>
        <time>2016-09-25T09:16:09.000Z</time>
      </trkpt>
      <trkpt lat="47.52122" lon="6.6703">
        <ele>374</ele>
        <time>2016-09-25T09:16:10.000Z</time>
      </trkpt>
      <trkpt lat="47.52124" lon="6.67039">
        <ele>374</ele>
        <time>2016-09-25T09:16:11.000Z</time>
      </trkpt>
      <trkpt lat="47.52125" lon="6.67048">
        <ele>374</ele>
        <time>2016-09-25T09:16:12.000Z</time>
      </trkpt>
      <trkpt lat="47.52127" lon="6.67057">
        <ele>374</ele>
        <time>2016-09-25T09:16:13.000Z</time>
      </trkpt>
      <trkpt lat="47.52129" lon="6.67066">
        <ele>374</ele>
        <time>2016-09-25T09:16:14.000Z</time>
      </trkpt>
      <trkpt lat="47.52131" lon="6.67075">
        <ele>373</ele>
        <time>2016-09-25T09:16:15.000Z</time>
      </trkpt>
      <trkpt lat="47.52133" lon="6.67085">
        <ele>373</ele>
        <time>2016-09-25T09:16:16.000Z</time>
      </trkpt>
      <trkpt lat="47.52135" lon="6.67094">
        <ele>373</ele>
        <time>2016-09-25T09:16:17.000Z</time>
      </trkpt>
      <trkpt lat="47.52137" lon="6.67102">
        <ele>372</ele>
        <time>2016-09-25T09:16:18.000Z</time>
      </trkpt>
      <trkpt lat="47.52139" lon="6.67112">
        <ele>372</ele>
        <time>2016-09-25T09:16:19.000Z</time>
      </trkpt>
      <trkpt lat="47.5214" lon="6.67121">
        <ele>372</ele>
        <time>2016-09-25T09:16:20.000Z</time>
      </trkpt>
      <trkpt lat="47.52142" lon="6.6713">
        <ele>372</ele>
        <time>2016-09-25T09:16:21.000Z</time>
      </trkpt>
      <trkpt lat="47.52144" lon="6.67138">
        <ele>372</ele>
        <time>2016-09-25T09:16:22.000Z</time>
      </trkpt>
      <trkpt lat="47.52146" lon="6.67147">
        <ele>372</ele>
        <time>2016-09-25T09:16:23.000Z</time>
      </trkpt>
      <trkpt lat="47.52148" lon="6.67155">
        <ele>372</ele>
        <time>2016-09-25T09:16:24.000Z</time>
      </trkpt>
      <trkpt lat="47.52149" lon="6.67164">
        <ele>372</ele>
        <time>2016-09-25T09:16:25.000Z</time>
      </trkpt>
      <trkpt lat="47.5215" lon="6.67171">
        <ele>372</ele>
        <time>2016-09-25T09:16:26.000Z</time>
      </trkpt>
      <trkpt lat="47.52152" lon="6.67179">
        <ele>372</ele>
        <time>2016-09-25T09:16:27.000Z</time>
      </trkpt>
      <trkpt lat="47.52153" lon="6.67187">
        <ele>372</ele>
        <time>2016-09-25T09:16:28.000Z</time>
      </trkpt>
      <trkpt lat="47.52155" lon="6.67195">
        <ele>372</ele>
        <time>2016-09-25T09:16:29.000Z</time>
      </trkpt>
      <trkpt lat="47.52156" lon="6.67204">
        <ele>372</ele>
        <time>2016-09-25T09:16:30.000Z</time>
      </trkpt>
      <trkpt lat="47.52158" lon="6.67212">
        <ele>372</ele>
        <time>2016-09-25T09:16:31.000Z</time>
      </trkpt>
      <trkpt lat="47.5216" lon="6.67221">
        <ele>372</ele>
        <time>2016-09-25T09:16:32.000Z</time>
      </trkpt>
      <trkpt lat="47.52161" lon="6.67229">
        <ele>372</ele>
        <time>2016-09-25T09:16:33.000Z</time>
      </trkpt>
      <trkpt lat="47.52163" lon="6.67237">
        <ele>372</ele>
        <time>2016-09-25T09:16:34.000Z</time>
      </trkpt>
      <trkpt lat="47.52164" lon="6.67245">
        <ele>372</ele>
        <time>2016-09-25T09:16:35.000Z</time>
      </trkpt>
      <trkpt lat="47.52166" lon="6.67253">
        <ele>372</ele>
        <time>2016-09-25T09:16:36.000Z</time>
      </trkpt>
      <trkpt lat="47.52167" lon="6.67261">
        <ele>372</ele>
        <time>2016-09-25T09:16:37.000Z</time>
      </trkpt>
      <trkpt lat="47.52167" lon="6.67269">
        <ele>372</ele>
        <time>2016-09-25T09:16:38.000Z</time>
      </trkpt>
      <trkpt lat="47.52168" lon="6.67276">
        <ele>372</ele>
        <time>2016-09-25T09:16:39.000Z</time>
      </trkpt>
      <trkpt lat="47.52169" lon="6.67284">
        <ele>372</ele>
        <time>2016-09-25T09:16:40.000Z</time>
      </trkpt>
      <trkpt lat="47.52169" lon="6.67292">
        <ele>372</ele>
        <time>2016-09-25T09:16:41.000Z</time>
      </trkpt>
      <trkpt lat="47.5217" lon="6.67301">
        <ele>372</ele>
        <time>2016-09-25T09:16:42.000Z</time>
      </trkpt>
      <trkpt lat="47.5217" lon="6.67309">
        <ele>372</ele>
        <time>2016-09-25T09:16:43.000Z</time>
      </trkpt>
      <trkpt lat="47.52171" lon="6.67318">
        <ele>372</ele>
        <time>2016-09-25T09:16:44.000Z</time>
      </trkpt>
      <trkpt lat="47.52171" lon="6.67327">
        <ele>372</ele>
        <time>2016-09-25T09:16:45.000Z</time>
      </trkpt>
      <trkpt lat="47.52171" lon="6.67336">
        <ele>372</ele>
        <time>2016-09-25T09:16:46.000Z</time>
      </trkpt>
      <trkpt lat="47.52172" lon="6.67346">
        <ele>372</ele>
        <time>2016-09-25T09:16:47.000Z</time>
      </trkpt>
      <trkpt lat="47.52173" lon="6.67355">
        <ele>372</ele>
        <time>2016-09-25T09:16:48.000Z</time>
      </trkpt>
      <trkpt lat="47.52175" lon="6.67365">
        <ele>372</ele>
        <time>2016-09-25T09:16:49.000Z</time>
      </trkpt>
      <trkpt lat="47.52176" lon="6.67373">
        <ele>372</ele>
        <time>2016-09-25T09:16:50.000Z</time>
      </trkpt>
      <trkpt lat="47.52179" lon="6.67382">
        <ele>372</ele>
        <time>2016-09-25T09:16:51.000Z</time>
      </trkpt>
      <trkpt lat="47.52182" lon="6.6739">
        <ele>372</ele>
        <time>2016-09-25T09:16:52.000Z</time>
      </trkpt>
      <trkpt lat="47.52184" lon="6.67398">
        <ele>372</ele>
        <time>2016-09-25T09:16:53.000Z</time>
      </trkpt>
      <trkpt lat="47.52187" lon="6.67407">
        <ele>371</ele>
        <time>2016-09-25T09:16:54.000Z</time>
      </trkpt>
      <trkpt lat="47.5219" lon="6.67414">
        <ele>371</ele>
        <time>2016-09-25T09:16:55.000Z</time>
      </trkpt>
      <trkpt lat="47.52193" lon="6.67422">
        <ele>371</ele>
        <time>2016-09-25T09:16:56.000Z</time>
      </trkpt>
      <trkpt lat="47.52196" lon="6.6743">
        <ele>371</ele>
        <time>2016-09-25T09:16:57.000Z</time>
      </trkpt>
      <trkpt lat="47.52198" lon="6.67437">
        <ele>371</ele>
        <time>2016-09-25T09:16:58.000Z</time>
      </trkpt>
      <trkpt lat="47.522" lon="6.67444">
        <ele>371</ele>
        <time>2016-09-25T09:16:59.000Z</time>
      </trkpt>
      <trkpt lat="47.52202" lon="6.67452">
        <ele>371</ele>
        <time>2016-09-25T09:17:00.000Z</time>
      </trkpt>
      <trkpt lat="47.52204" lon="6.67459">
        <ele>371</ele>
        <time>2016-09-25T09:17:01.000Z</time>
      </trkpt>
      <trkpt lat="47.52205" lon="6.67467">
        <ele>371</ele>
        <time>2016-09-25T09:17:02.000Z</time>
      </trkpt>
      <trkpt lat="47.52206" lon="6.67473">
        <ele>371</ele>
        <time>2016-09-25T09:17:03.000Z</time>
      </trkpt>
      <trkpt lat="47.52207" lon="6.67481">
        <ele>371</ele>
        <time>2016-09-25T09:17:04.000Z</time>
      </trkpt>
      <trkpt lat="47.52208" lon="6.67489">
        <ele>371</ele>
        <time>2016-09-25T09:17:05.000Z</time>
      </trkpt>
      <trkpt lat="47.52208" lon="6.67496">
        <ele>371</ele>
        <time>2016-09-25T09:17:06.000Z</time>
      </trkpt>
      <trkpt lat="47.52208" lon="6.67504">
        <ele>371</ele>
        <time>2016-09-25T09:17:07.000Z</time>
      </trkpt>
      <trkpt lat="47.52207" lon="6.67512">
        <ele>371</ele>
        <time>2016-09-25T09:17:08.000Z</time>
      </trkpt>
      <trkpt lat="47.52207" lon="6.6752">
        <ele>371</ele>
        <time>2016-09-25T09:17:09.000Z</time>
      </trkpt>
      <trkpt lat="47.52207" lon="6.67528">
        <ele>371</ele>
        <time>2016-09-25T09:17:10.000Z</time>
      </trkpt>
      <trkpt lat="47.52207" lon="6.67536">
        <ele>371</ele>
        <time>2016-09-25T09:17:11.000Z</time>
      </trkpt>
      <trkpt lat="47.52207" lon="6.67543">
        <ele>371</ele>
        <time>2016-09-25T09:17:12.000Z</time>
      </trkpt>
      <trkpt lat="47.52206" lon="6.67551">
        <ele>371</ele>
        <time>2016-09-25T09:17:13.000Z</time>
      </trkpt>
      <trkpt lat="47.52206" lon="6.67558">
        <ele>371</ele>
        <time>2016-09-25T09:17:14.000Z</time>
      </trkpt>
      <trkpt lat="47.52206" lon="6.67566">
        <ele>371</ele>
        <time>2016-09-25T09:17:15.000Z</time>
      </trkpt>
      <trkpt lat="47.52206" lon="6.67574">
        <ele>370</ele>
        <time>2016-09-25T09:17:16.000Z</time>
      </trkpt>
      <trkpt lat="47.52205" lon="6.67582">
        <ele>370</ele>
        <time>2016-09-25T09:17:17.000Z</time>
      </trkpt>
      <trkpt lat="47.52205" lon="6.6759">
        <ele>369</ele>
        <time>2016-09-25T09:17:18.000Z</time>
      </trkpt>
      <trkpt lat="47.52205" lon="6.67598">
        <ele>369</ele>
        <time>2016-09-25T09:17:19.000Z</time>
      </trkpt>
      <trkpt lat="47.52204" lon="6.67607">
        <ele>369</ele>
        <time>2016-09-25T09:17:20.000Z</time>
      </trkpt>
      <trkpt lat="47.52204" lon="6.67615">
        <ele>369</ele>
        <time>2016-09-25T09:17:21.000Z</time>
      </trkpt>
      <trkpt lat="47.52204" lon="6.67624">
        <ele>369</ele>
        <time>2016-09-25T09:17:22.000Z</time>
      </trkpt>
      <trkpt lat="47.52203" lon="6.67633">
        <ele>369</ele>
        <time>2016-09-25T09:17:23.000Z</time>
      </trkpt>
      <trkpt lat="47.52203" lon="6.67641">
        <ele>368</ele>
        <time>2016-09-25T09:17:24.000Z</time>
      </trkpt>
      <trkpt lat="47.52203" lon="6.6765">
        <ele>368</ele>
        <time>2016-09-25T09:17:25.000Z</time>
      </trkpt>
      <trkpt lat="47.52203" lon="6.67659">
        <ele>368</ele>
        <time>2016-09-25T09:17:26.000Z</time>
      </trkpt>
      <trkpt lat="47.52202" lon="6.67668">
        <ele>367</ele>
        <time>2016-09-25T09:17:27.000Z</time>
      </trkpt>
      <trkpt lat="47.52202" lon="6.67678">
        <ele>367</ele>
        <time>2016-09-25T09:17:28.000Z</time>
      </trkpt>
      <trkpt lat="47.52202" lon="6.67688">
        <ele>367</ele>
        <time>2016-09-25T09:17:29.000Z</time>
      </trkpt>
      <trkpt lat="47.52201" lon="6.67697">
        <ele>367</ele>
        <time>2016-09-25T09:17:30.000Z</time>
      </trkpt>
      <trkpt lat="47.522" lon="6.67706">
        <ele>367</ele>
        <time>2016-09-25T09:17:31.000Z</time>
      </trkpt>
      <trkpt lat="47.522" lon="6.67715">
        <ele>367</ele>
        <time>2016-09-25T09:17:32.000Z</time>
      </trkpt>
      <trkpt lat="47.52199" lon="6.67725">
        <ele>367</ele>
        <time>2016-09-25T09:17:33.000Z</time>
      </trkpt>
      <trkpt lat="47.52199" lon="6.67734">
        <ele>367</ele>
        <time>2016-09-25T09:17:34.000Z</time>
      </trkpt>
      <trkpt lat="47.52199" lon="6.67744">
        <ele>367</ele>
        <time>2016-09-25T09:17:35.000Z</time>
      </trkpt>
      <trkpt lat="47.52198" lon="6.67753">
        <ele>366</ele>
        <time>2016-09-25T09:17:36.000Z</time>
      </trkpt>
      <trkpt lat="47.52197" lon="6.67763">
        <ele>366</ele>
        <time>2016-09-25T09:17:37.000Z</time>
      </trkpt>
      <trkpt lat="47.52197" lon="6.67773">
        <ele>366</ele>
        <time>2016-09-25T09:17:38.000Z</time>
      </trkpt>
      <trkpt lat="47.52196" lon="6.67782">
        <ele>366</ele>
        <time>2016-09-25T09:17:39.000Z</time>
      </trkpt>
      <trkpt lat="47.52195" lon="6.67791">
        <ele>366</ele>
        <time>2016-09-25T09:17:40.000Z</time>
      </trkpt>
      <trkpt lat="47.52194" lon="6.678">
        <ele>366</ele>
        <time>2016-09-25T09:17:41.000Z</time>
      </trkpt>
      <trkpt lat="47.52194" lon="6.6781">
        <ele>366</ele>
        <time>2016-09-25T09:17:42.000Z</time>
      </trkpt>
      <trkpt lat="47.52193" lon="6.67819">
        <ele>366</ele>
        <time>2016-09-25T09:17:43.000Z</time>
      </trkpt>
      <trkpt lat="47.52192" lon="6.67829">
        <ele>365</ele>
        <time>2016-09-25T09:17:44.000Z</time>
      </trkpt>
      <trkpt lat="47.52191" lon="6.67837">
        <ele>365</ele>
        <time>2016-09-25T09:17:45.000Z</time>
      </trkpt>
      <trkpt lat="47.52191" lon="6.67846">
        <ele>365</ele>
        <time>2016-09-25T09:17:46.000Z</time>
      </trkpt>
      <trkpt lat="47.5219" lon="6.67855">
        <ele>365</ele>
        <time>2016-09-25T09:17:47.000Z</time>
      </trkpt>
      <trkpt lat="47.52189" lon="6.67863">
        <ele>365</ele>
        <time>2016-09-25T09:17:48.000Z</time>
      </trkpt>
      <trkpt lat="47.52189" lon="6.67871">
        <ele>365</ele>
        <time>2016-09-25T09:17:49.000Z</time>
      </trkpt>
      <trkpt lat="47.52187" lon="6.67879">
        <ele>364</ele>
        <time>2016-09-25T09:17:50.000Z</time>
      </trkpt>
      <trkpt lat="47.52186" lon="6.67889">
        <ele>364</ele>
        <time>2016-09-25T09:17:51.000Z</time>
      </trkpt>
      <trkpt lat="47.52186" lon="6.67898">
        <ele>364</ele>
        <time>2016-09-25T09:17:52.000Z</time>
      </trkpt>
      <trkpt lat="47.52185" lon="6.67907">
        <ele>364</ele>
        <time>2016-09-25T09:17:53.000Z</time>
      </trkpt>
      <trkpt lat="47.52184" lon="6.67916">
        <ele>364</ele>
        <time>2016-09-25T09:17:54.000Z</time>
      </trkpt>
      <trkpt lat="47.52184" lon="6.67926">
        <ele>364</ele>
        <time>2016-09-25T09:17:55.000Z</time>
      </trkpt>
      <trkpt lat="47.52183" lon="6.67935">
        <ele>364</ele>
        <time>2016-09-25T09:17:56.000Z</time>
      </trkpt>
      <trkpt lat="47.52182" lon="6.67945">
        <ele>364</ele>
        <time>2016-09-25T09:17:57.000Z</time>
      </trkpt>
      <trkpt lat="47.52181" lon="6.67954">
        <ele>364</ele>
        <time>2016-09-25T09:17:58.000Z</time>
      </trkpt>
      <trkpt lat="47.52181" lon="6.67963">
        <ele>363</ele>
        <time>2016-09-25T09:17:59.000Z</time>
      </trkpt>
      <trkpt lat="47.5218" lon="6.67972">
        <ele>363</ele>
        <time>2016-09-25T09:18:00.000Z</time>
      </trkpt>
      <trkpt lat="47.5218" lon="6.67981">
        <ele>363</ele>
        <time>2016-09-25T09:18:01.000Z</time>
      </trkpt>
      <trkpt lat="47.52179" lon="6.6799">
        <ele>363</ele>
        <time>2016-09-25T09:18:02.000Z</time>
      </trkpt>
      <trkpt lat="47.52179" lon="6.67999">
        <ele>363</ele>
        <time>2016-09-25T09:18:03.000Z</time>
      </trkpt>
      <trkpt lat="47.52178" lon="6.68008">
        <ele>363</ele>
        <time>2016-09-25T09:18:04.000Z</time>
      </trkpt>
      <trkpt lat="47.52178" lon="6.68017">
        <ele>363</ele>
        <time>2016-09-25T09:18:05.000Z</time>
      </trkpt>
      <trkpt lat="47.52177" lon="6.68026">
        <ele>363</ele>
        <time>2016-09-25T09:18:06.000Z</time>
      </trkpt>
      <trkpt lat="47.52176" lon="6.68035">
        <ele>363</ele>
        <time>2016-09-25T09:18:07.000Z</time>
      </trkpt>
      <trkpt lat="47.52176" lon="6.68045">
        <ele>362</ele>
        <time>2016-09-25T09:18:08.000Z</time>
      </trkpt>
      <trkpt lat="47.52175" lon="6.68054">
        <ele>362</ele>
        <time>2016-09-25T09:18:09.000Z</time>
      </trkpt>
      <trkpt lat="47.52174" lon="6.68063">
        <ele>362</ele>
        <time>2016-09-25T09:18:10.000Z</time>
      </trkpt>
      <trkpt lat="47.52173" lon="6.68072">
        <ele>362</ele>
        <time>2016-09-25T09:18:11.000Z</time>
      </trkpt>
      <trkpt lat="47.52174" lon="6.68081">
        <ele>362</ele>
        <time>2016-09-25T09:18:12.000Z</time>
      </trkpt>
      <trkpt lat="47.52173" lon="6.6809">
        <ele>362</ele>
        <time>2016-09-25T09:18:13.000Z</time>
      </trkpt>
      <trkpt lat="47.52172" lon="6.68098">
        <ele>362</ele>
        <time>2016-09-25T09:18:14.000Z</time>
      </trkpt>
      <trkpt lat="47.52171" lon="6.68107">
        <ele>361</ele>
        <time>2016-09-25T09:18:15.000Z</time>
      </trkpt>
      <trkpt lat="47.52169" lon="6.68113">
        <ele>361</ele>
        <time>2016-09-25T09:18:16.000Z</time>
      </trkpt>
      <trkpt lat="47.52168" lon="6.68119">
        <ele>361</ele>
        <time>2016-09-25T09:18:17.000Z</time>
      </trkpt>
      <trkpt lat="47.52166" lon="6.68124">
        <ele>361</ele>
        <time>2016-09-25T09:18:18.000Z</time>
      </trkpt>
      <trkpt lat="47.52163" lon="6.68129">
        <ele>361</ele>
        <time>2016-09-25T09:18:19.000Z</time>
      </trkpt>
      <trkpt lat="47.52161" lon="6.68134">
        <ele>361</ele>
        <time>2016-09-25T09:18:20.000Z</time>
      </trkpt>
      <trkpt lat="47.52158" lon="6.68141">
        <ele>361</ele>
        <time>2016-09-25T09:18:21.000Z</time>
      </trkpt>
      <trkpt lat="47.52157" lon="6.6815">
        <ele>361</ele>
        <time>2016-09-25T09:18:22.000Z</time>
      </trkpt>
      <trkpt lat="47.52159" lon="6.68161">
        <ele>361</ele>
        <time>2016-09-25T09:18:23.000Z</time>
      </trkpt>
      <trkpt lat="47.52159" lon="6.6817">
        <ele>360</ele>
        <time>2016-09-25T09:18:24.000Z</time>
      </trkpt>
      <trkpt lat="47.52159" lon="6.6818">
        <ele>360</ele>
        <time>2016-09-25T09:18:25.000Z</time>
      </trkpt>
      <trkpt lat="47.52159" lon="6.68188">
        <ele>360</ele>
        <time>2016-09-25T09:18:26.000Z</time>
      </trkpt>
      <trkpt lat="47.52159" lon="6.68195">
        <ele>360</ele>
        <time>2016-09-25T09:18:27.000Z</time>
      </trkpt>
      <trkpt lat="47.5216" lon="6.68205">
        <ele>360</ele>
        <time>2016-09-25T09:18:28.000Z</time>
      </trkpt>
      <trkpt lat="47.5216" lon="6.68214">
        <ele>360</ele>
        <time>2016-09-25T09:18:29.000Z</time>
      </trkpt>
      <trkpt lat="47.52161" lon="6.68224">
        <ele>360</ele>
        <time>2016-09-25T09:18:30.000Z</time>
      </trkpt>
      <trkpt lat="47.52163" lon="6.68234">
        <ele>360</ele>
        <time>2016-09-25T09:18:31.000Z</time>
      </trkpt>
      <trkpt lat="47.52165" lon="6.68243">
        <ele>359</ele>
        <time>2016-09-25T09:18:32.000Z</time>
      </trkpt>
      <trkpt lat="47.52167" lon="6.68252">
        <ele>359</ele>
        <time>2016-09-25T09:18:33.000Z</time>
      </trkpt>
      <trkpt lat="47.52169" lon="6.68262">
        <ele>359</ele>
        <time>2016-09-25T09:18:34.000Z</time>
      </trkpt>
      <trkpt lat="47.52171" lon="6.68271">
        <ele>359</ele>
        <time>2016-09-25T09:18:35.000Z</time>
      </trkpt>
      <trkpt lat="47.52174" lon="6.6828">
        <ele>359</ele>
        <time>2016-09-25T09:18:36.000Z</time>
      </trkpt>
      <trkpt lat="47.52176" lon="6.68288">
        <ele>359</ele>
        <time>2016-09-25T09:18:37.000Z</time>
      </trkpt>
      <trkpt lat="47.52178" lon="6.68296">
        <ele>359</ele>
        <time>2016-09-25T09:18:38.000Z</time>
      </trkpt>
      <trkpt lat="47.5218" lon="6.68304">
        <ele>359</ele>
        <time>2016-09-25T09:18:39.000Z</time>
      </trkpt>
      <trkpt lat="47.52182" lon="6.68311">
        <ele>359</ele>
        <time>2016-09-25T09:18:40.000Z</time>
      </trkpt>
      <trkpt lat="47.52184" lon="6.68317">
        <ele>359</ele>
        <time>2016-09-25T09:18:41.000Z</time>
      </trkpt>
      <trkpt lat="47.52186" lon="6.68324">
        <ele>359</ele>
        <time>2016-09-25T09:18:42.000Z</time>
      </trkpt>
      <trkpt lat="47.52187" lon="6.68331">
        <ele>359</ele>
        <time>2016-09-25T09:18:43.000Z</time>
      </trkpt>
      <trkpt lat="47.52188" lon="6.68337">
        <ele>359</ele>
        <time>2016-09-25T09:18:44.000Z</time>
      </trkpt>
      <trkpt lat="47.52189" lon="6.68343">
        <ele>359</ele>
        <time>2016-09-25T09:18:45.000Z</time>
      </trkpt>
      <trkpt lat="47.52191" lon="6.6835">
        <ele>359</ele>
        <time>2016-09-25T09:18:46.000Z</time>
      </trkpt>
      <trkpt lat="47.52192" lon="6.68356">
        <ele>359</ele>
        <time>2016-09-25T09:18:47.000Z</time>
      </trkpt>
      <trkpt lat="47.52193" lon="6.68363">
        <ele>359</ele>
        <time>2016-09-25T09:18:48.000Z</time>
      </trkpt>
      <trkpt lat="47.52195" lon="6.68369">
        <ele>359</ele>
        <time>2016-09-25T09:18:49.000Z</time>
      </trkpt>
      <trkpt lat="47.52196" lon="6.68376">
        <ele>359</ele>
        <time>2016-09-25T09:18:50.000Z</time>
      </trkpt>
      <trkpt lat="47.52197" lon="6.68383">
        <ele>359</ele>
        <time>2016-09-25T09:18:51.000Z</time>
      </trkpt>
      <trkpt lat="47.52198" lon="6.6839">
        <ele>359</ele>
        <time>2016-09-25T09:18:52.000Z</time>
      </trkpt>
      <trkpt lat="47.522" lon="6.68398">
        <ele>359</ele>
        <time>2016-09-25T09:18:53.000Z</time>
      </trkpt>
      <trkpt lat="47.52201" lon="6.68404">
        <ele>359</ele>
        <time>2016-09-25T09:18:54.000Z</time>
      </trkpt>
      <trkpt lat="47.52202" lon="6.68411">
        <ele>359</ele>
        <time>2016-09-25T09:18:55.000Z</time>
      </trkpt>
      <trkpt lat="47.52203" lon="6.68417">
        <ele>358</ele>
        <time>2016-09-25T09:18:56.000Z</time>
      </trkpt>
      <trkpt lat="47.52205" lon="6.68425">
        <ele>358</ele>
        <time>2016-09-25T09:18:57.000Z</time>
      </trkpt>
      <trkpt lat="47.52206" lon="6.68433">
        <ele>358</ele>
        <time>2016-09-25T09:18:58.000Z</time>
      </trkpt>
      <trkpt lat="47.52208" lon="6.68441">
        <ele>358</ele>
        <time>2016-09-25T09:18:59.000Z</time>
      </trkpt>
      <trkpt lat="47.52209" lon="6.68449">
        <ele>359</ele>
        <time>2016-09-25T09:19:00.000Z</time>
      </trkpt>
      <trkpt lat="47.52211" lon="6.68457">
        <ele>359</ele>
        <time>2016-09-25T09:19:01.000Z</time>
      </trkpt>
      <trkpt lat="47.52212" lon="6.68464">
        <ele>359</ele>
        <time>2016-09-25T09:19:02.000Z</time>
      </trkpt>
      <trkpt lat="47.52214" lon="6.68471">
        <ele>359</ele>
        <time>2016-09-25T09:19:03.000Z</time>
      </trkpt>
      <trkpt lat="47.52216" lon="6.68479">
        <ele>359</ele>
        <time>2016-09-25T09:19:04.000Z</time>
      </trkpt>
      <trkpt lat="47.52217" lon="6.68486">
        <ele>359</ele>
        <time>2016-09-25T09:19:05.000Z</time>
      </trkpt>
      <trkpt lat="47.52219" lon="6.68493">
        <ele>359</ele>
        <time>2016-09-25T09:19:06.000Z</time>
      </trkpt>
      <trkpt lat="47.52221" lon="6.68499">
        <ele>359</ele>
        <time>2016-09-25T09:19:07.000Z</time>
      </trkpt>
      <trkpt lat="47.52222" lon="6.68505">
        <ele>360</ele>
        <time>2016-09-25T09:19:08.000Z</time>
      </trkpt>
      <trkpt lat="47.52224" lon="6.6851">
        <ele>360</ele>
        <time>2016-09-25T09:19:09.000Z</time>
      </trkpt>
      <trkpt lat="47.52225" lon="6.68515">
        <ele>360</ele>
        <time>2016-09-25T09:19:10.000Z</time>
      </trkpt>
      <trkpt lat="47.52227" lon="6.68521">
        <ele>360</ele>
        <time>2016-09-25T09:19:11.000Z</time>
      </trkpt>
      <trkpt lat="47.52229" lon="6.68525">
        <ele>360</ele>
        <time>2016-09-25T09:19:12.000Z</time>
      </trkpt>
      <trkpt lat="47.5223" lon="6.6853">
        <ele>360</ele>
        <time>2016-09-25T09:19:13.000Z</time>
      </trkpt>
      <trkpt lat="47.52232" lon="6.68535">
        <ele>360</ele>
        <time>2016-09-25T09:19:14.000Z</time>
      </trkpt>
      <trkpt lat="47.52234" lon="6.68538">
        <ele>360</ele>
        <time>2016-09-25T09:19:15.000Z</time>
      </trkpt>
      <trkpt lat="47.52237" lon="6.68542">
        <ele>360</ele>
        <time>2016-09-25T09:19:16.000Z</time>
      </trkpt>
      <trkpt lat="47.52239" lon="6.68547">
        <ele>360</ele>
        <time>2016-09-25T09:19:17.000Z</time>
      </trkpt>
      <trkpt lat="47.52241" lon="6.68551">
        <ele>361</ele>
        <time>2016-09-25T09:19:18.000Z</time>
      </trkpt>
      <trkpt lat="47.52244" lon="6.68555">
        <ele>361</ele>
        <time>2016-09-25T09:19:19.000Z</time>
      </trkpt>
      <trkpt lat="47.52246" lon="6.68559">
        <ele>361</ele>
        <time>2016-09-25T09:19:20.000Z</time>
      </trkpt>
      <trkpt lat="47.52249" lon="6.68562">
        <ele>361</ele>
        <time>2016-09-25T09:19:21.000Z</time>
      </trkpt>
      <trkpt lat="47.52251" lon="6.68565">
        <ele>364</ele>
        <time>2016-09-25T09:19:22.000Z</time>
      </trkpt>
      <trkpt lat="47.52253" lon="6.68567">
        <ele>364</ele>
        <time>2016-09-25T09:19:23.000Z</time>
      </trkpt>
      <trkpt lat="47.52256" lon="6.68569">
        <ele>364</ele>
        <time>2016-09-25T09:19:24.000Z</time>
      </trkpt>
      <trkpt lat="47.52258" lon="6.6857">
        <ele>364</ele>
        <time>2016-09-25T09:19:25.000Z</time>
      </trkpt>
      <trkpt lat="47.52261" lon="6.68571">
        <ele>364</ele>
        <time>2016-09-25T09:19:26.000Z</time>
      </trkpt>
      <trkpt lat="47.52263" lon="6.68572">
        <ele>364</ele>
        <time>2016-09-25T09:19:27.000Z</time>
      </trkpt>
      <trkpt lat="47.52267" lon="6.68573">
        <ele>365</ele>
        <time>2016-09-25T09:19:29.000Z</time>
      </trkpt>
      <trkpt lat="47.52271" lon="6.68574">
        <ele>365</ele>
        <time>2016-09-25T09:19:31.000Z</time>
      </trkpt>
      <trkpt lat="47.52273" lon="6.68574">
        <ele>365</ele>
        <time>2016-09-25T09:19:32.000Z</time>
      </trkpt>
      <trkpt lat="47.52276" lon="6.68575">
        <ele>365</ele>
        <time>2016-09-25T09:19:33.000Z</time>
      </trkpt>
      <trkpt lat="47.52279" lon="6.68575">
        <ele>365</ele>
        <time>2016-09-25T09:19:34.000Z</time>
      </trkpt>
      <trkpt lat="47.52281" lon="6.68575">
        <ele>365</ele>
        <time>2016-09-25T09:19:35.000Z</time>
      </trkpt>
      <trkpt lat="47.52283" lon="6.68575">
        <ele>366</ele>
        <time>2016-09-25T09:19:36.000Z</time>
      </trkpt>
      <trkpt lat="47.52286" lon="6.68575">
        <ele>366</ele>
        <time>2016-09-25T09:19:37.000Z</time>
      </trkpt>
      <trkpt lat="47.5229" lon="6.68575">
        <ele>366</ele>
        <time>2016-09-25T09:19:39.000Z</time>
      </trkpt>
      <trkpt lat="47.52292" lon="6.68575">
        <ele>366</ele>
        <time>2016-09-25T09:19:40.000Z</time>
      </trkpt>
      <trkpt lat="47.52296" lon="6.68574">
        <ele>366</ele>
        <time>2016-09-25T09:19:42.000Z</time>
      </trkpt>
      <trkpt lat="47.52298" lon="6.68573">
        <ele>367</ele>
        <time>2016-09-25T09:19:43.000Z</time>
      </trkpt>
      <trkpt lat="47.52302" lon="6.68573">
        <ele>367</ele>
        <time>2016-09-25T09:19:45.000Z</time>
      </trkpt>
      <trkpt lat="47.52305" lon="6.68572">
        <ele>367</ele>
        <time>2016-09-25T09:19:46.000Z</time>
      </trkpt>
      <trkpt lat="47.52307" lon="6.68572">
        <ele>367</ele>
        <time>2016-09-25T09:19:47.000Z</time>
      </trkpt>
      <trkpt lat="47.5231" lon="6.68571">
        <ele>368</ele>
        <time>2016-09-25T09:19:48.000Z</time>
      </trkpt>
      <trkpt lat="47.52312" lon="6.68572">
        <ele>368</ele>
        <time>2016-09-25T09:19:49.000Z</time>
      </trkpt>
      <trkpt lat="47.52315" lon="6.68573">
        <ele>368</ele>
        <time>2016-09-25T09:19:50.000Z</time>
      </trkpt>
      <trkpt lat="47.52317" lon="6.68574">
        <ele>368</ele>
        <time>2016-09-25T09:19:51.000Z</time>
      </trkpt>
      <trkpt lat="47.5232" lon="6.68574">
        <ele>369</ele>
        <time>2016-09-25T09:19:52.000Z</time>
      </trkpt>
      <trkpt lat="47.52322" lon="6.68573">
        <ele>369</ele>
        <time>2016-09-25T09:19:53.000Z</time>
      </trkpt>
      <trkpt lat="47.52325" lon="6.68572">
        <ele>369</ele>
        <time>2016-09-25T09:19:54.000Z</time>
      </trkpt>
      <trkpt lat="47.52328" lon="6.68571">
        <ele>369</ele>
        <time>2016-09-25T09:19:55.000Z</time>
      </trkpt>
      <trkpt lat="47.52331" lon="6.6857">
        <ele>369</ele>
        <time>2016-09-25T09:19:56.000Z</time>
      </trkpt>
      <trkpt lat="47.52334" lon="6.68569">
        <ele>372</ele>
        <time>2016-09-25T09:19:57.000Z</time>
      </trkpt>
      <trkpt lat="47.52336" lon="6.68568">
        <ele>372</ele>
        <time>2016-09-25T09:19:58.000Z</time>
      </trkpt>
      <trkpt lat="47.52339" lon="6.68568">
        <ele>372</ele>
        <time>2016-09-25T09:19:59.000Z</time>
      </trkpt>
      <trkpt lat="47.52342" lon="6.68568">
        <ele>372</ele>
        <time>2016-09-25T09:20:00.000Z</time>
      </trkpt>
      <trkpt lat="47.52346" lon="6.68568">
        <ele>372</ele>
        <time>2016-09-25T09:20:01.000Z</time>
      </trkpt>
      <trkpt lat="47.52349" lon="6.68568">
        <ele>372</ele>
        <time>2016-09-25T09:20:02.000Z</time>
      </trkpt>
      <trkpt lat="47.52351" lon="6.68569">
        <ele>372</ele>
        <time>2016-09-25T09:20:03.000Z</time>
      </trkpt>
      <trkpt lat="47.52353" lon="6.6857">
        <ele>372</ele>
        <time>2016-09-25T09:20:04.000Z</time>
      </trkpt>
      <trkpt lat="47.52355" lon="6.68572">
        <ele>372</ele>
        <time>2016-09-25T09:20:05.000Z</time>
      </trkpt>
      <trkpt lat="47.52357" lon="6.68574">
        <ele>372</ele>
        <time>2016-09-25T09:20:06.000Z</time>
      </trkpt>
      <trkpt lat="47.5236" lon="6.68579">
        <ele>372</ele>
        <time>2016-09-25T09:20:08.000Z</time>
      </trkpt>
      <trkpt lat="47.52361" lon="6.68581">
        <ele>372</ele>
        <time>2016-09-25T09:20:09.000Z</time>
      </trkpt>
      <trkpt lat="47.52362" lon="6.68586">
        <ele>372</ele>
        <time>2016-09-25T09:20:11.000Z</time>
      </trkpt>
      <trkpt lat="47.52363" lon="6.68589">
        <ele>372</ele>
        <time>2016-09-25T09:20:12.000Z</time>
      </trkpt>
      <trkpt lat="47.52361" lon="6.68594">
        <ele>372</ele>
        <time>2016-09-25T09:20:16.000Z</time>
      </trkpt>
      <trkpt lat="47.5236" lon="6.68595">
        <ele>372</ele>
        <time>2016-09-25T09:20:17.000Z</time>
      </trkpt>
      <trkpt lat="47.52356" lon="6.68596">
        <ele>372</ele>
        <time>2016-09-25T09:20:19.000Z</time>
      </trkpt>
      <trkpt lat="47.52351" lon="6.686">
        <ele>372</ele>
        <time>2016-09-25T09:20:20.000Z</time>
      </trkpt>
      <trkpt lat="47.52349" lon="6.68602">
        <ele>372</ele>
        <time>2016-09-25T09:20:21.000Z</time>
      </trkpt>
      <trkpt lat="47.52348" lon="6.68606">
        <ele>372</ele>
        <time>2016-09-25T09:20:22.000Z</time>
      </trkpt>
      <trkpt lat="47.52348" lon="6.6861">
        <ele>372</ele>
        <time>2016-09-25T09:20:23.000Z</time>
      </trkpt>
      <trkpt lat="47.52346" lon="6.68613">
        <ele>372</ele>
        <time>2016-09-25T09:20:24.000Z</time>
      </trkpt>
      <trkpt lat="47.52345" lon="6.68618">
        <ele>372</ele>
        <time>2016-09-25T09:20:25.000Z</time>
      </trkpt>
      <trkpt lat="47.52345" lon="6.68622">
        <ele>372</ele>
        <time>2016-09-25T09:20:26.000Z</time>
      </trkpt>
      <trkpt lat="47.52344" lon="6.68627">
        <ele>372</ele>
        <time>2016-09-25T09:20:27.000Z</time>
      </trkpt>
      <trkpt lat="47.52343" lon="6.68631">
        <ele>372</ele>
        <time>2016-09-25T09:20:28.000Z</time>
      </trkpt>
      <trkpt lat="47.52343" lon="6.68635">
        <ele>372</ele>
        <time>2016-09-25T09:20:29.000Z</time>
      </trkpt>
      <trkpt lat="47.52342" lon="6.6864">
        <ele>372</ele>
        <time>2016-09-25T09:20:30.000Z</time>
      </trkpt>
      <trkpt lat="47.52341" lon="6.68645">
        <ele>372</ele>
        <time>2016-09-25T09:20:31.000Z</time>
      </trkpt>
      <trkpt lat="47.5234" lon="6.68651">
        <ele>372</ele>
        <time>2016-09-25T09:20:32.000Z</time>
      </trkpt>
      <trkpt lat="47.52339" lon="6.68656">
        <ele>372</ele>
        <time>2016-09-25T09:20:33.000Z</time>
      </trkpt>
      <trkpt lat="47.52339" lon="6.68662">
        <ele>371</ele>
        <time>2016-09-25T09:20:34.000Z</time>
      </trkpt>
      <trkpt lat="47.52339" lon="6.68668">
        <ele>371</ele>
        <time>2016-09-25T09:20:35.000Z</time>
      </trkpt>
      <trkpt lat="47.5234" lon="6.68674">
        <ele>371</ele>
        <time>2016-09-25T09:20:36.000Z</time>
      </trkpt>
      <trkpt lat="47.52341" lon="6.68679">
        <ele>371</ele>
        <time>2016-09-25T09:20:37.000Z</time>
      </trkpt>
      <trkpt lat="47.52342" lon="6.68684">
        <ele>371</ele>
        <time>2016-09-25T09:20:38.000Z</time>
      </trkpt>
      <trkpt lat="47.52343" lon="6.68689">
        <ele>371</ele>
        <time>2016-09-25T09:20:39.000Z</time>
      </trkpt>
      <trkpt lat="47.52345" lon="6.68694">
        <ele>371</ele>
        <time>2016-09-25T09:20:40.000Z</time>
      </trkpt>
      <trkpt lat="47.52347" lon="6.687">
        <ele>371</ele>
        <time>2016-09-25T09:20:41.000Z</time>
      </trkpt>
      <trkpt lat="47.52349" lon="6.68705">
        <ele>371</ele>
        <time>2016-09-25T09:20:42.000Z</time>
      </trkpt>
      <trkpt lat="47.52351" lon="6.6871">
        <ele>371</ele>
        <time>2016-09-25T09:20:43.000Z</time>
      </trkpt>
      <trkpt lat="47.52353" lon="6.68715">
        <ele>371</ele>
        <time>2016-09-25T09:20:44.000Z</time>
      </trkpt>
      <trkpt lat="47.52355" lon="6.6872">
        <ele>371</ele>
        <time>2016-09-25T09:20:45.000Z</time>
      </trkpt>
      <trkpt lat="47.52357" lon="6.68725">
        <ele>371</ele>
        <time>2016-09-25T09:20:46.000Z</time>
      </trkpt>
      <trkpt lat="47.52359" lon="6.6873">
        <ele>371</ele>
        <time>2016-09-25T09:20:47.000Z</time>
      </trkpt>
      <trkpt lat="47.52361" lon="6.68735">
        <ele>371</ele>
        <time>2016-09-25T09:20:48.000Z</time>
      </trkpt>
      <trkpt lat="47.52363" lon="6.6874">
        <ele>371</ele>
        <time>2016-09-25T09:20:49.000Z</time>
      </trkpt>
      <trkpt lat="47.52365" lon="6.68745">
        <ele>371</ele>
        <time>2016-09-25T09:20:50.000Z</time>
      </trkpt>
      <trkpt lat="47.52366" lon="6.6875">
        <ele>371</ele>
        <time>2016-09-25T09:20:51.000Z</time>
      </trkpt>
      <trkpt lat="47.52367" lon="6.68755">
        <ele>371</ele>
        <time>2016-09-25T09:20:52.000Z</time>
      </trkpt>
      <trkpt lat="47.52368" lon="6.68761">
        <ele>371</ele>
        <time>2016-09-25T09:20:53.000Z</time>
      </trkpt>
      <trkpt lat="47.5237" lon="6.68766">
        <ele>371</ele>
        <time>2016-09-25T09:20:54.000Z</time>
      </trkpt>
      <trkpt lat="47.52371" lon="6.68771">
        <ele>371</ele>
        <time>2016-09-25T09:20:55.000Z</time>
      </trkpt>
      <trkpt lat="47.52374" lon="6.68777">
        <ele>371</ele>
        <time>2016-09-25T09:20:56.000Z</time>
      </trkpt>
      <trkpt lat="47.52376" lon="6.68782">
        <ele>371</ele>
        <time>2016-09-25T09:20:57.000Z</time>
      </trkpt>
      <trkpt lat="47.52378" lon="6.68787">
        <ele>371</ele>
        <time>2016-09-25T09:20:58.000Z</time>
      </trkpt>
      <trkpt lat="47.52381" lon="6.68792">
        <ele>371</ele>
        <time>2016-09-25T09:20:59.000Z</time>
      </trkpt>
      <trkpt lat="47.52383" lon="6.68798">
        <ele>371</ele>
        <time>2016-09-25T09:21:00.000Z</time>
      </trkpt>
      <trkpt lat="47.52386" lon="6.68803">
        <ele>371</ele>
        <time>2016-09-25T09:21:01.000Z</time>
      </trkpt>
      <trkpt lat="47.52388" lon="6.68808">
        <ele>371</ele>
        <time>2016-09-25T09:21:02.000Z</time>
      </trkpt>
      <trkpt lat="47.5239" lon="6.68813">
        <ele>371</ele>
        <time>2016-09-25T09:21:03.000Z</time>
      </trkpt>
      <trkpt lat="47.52392" lon="6.68817">
        <ele>371</ele>
        <time>2016-09-25T09:21:04.000Z</time>
      </trkpt>
      <trkpt lat="47.52393" lon="6.68822">
        <ele>371</ele>
        <time>2016-09-25T09:21:05.000Z</time>
      </trkpt>
      <trkpt lat="47.52394" lon="6.68825">
        <ele>370</ele>
        <time>2016-09-25T09:21:06.000Z</time>
      </trkpt>
      <trkpt lat="47.52395" lon="6.68829">
        <ele>370</ele>
        <time>2016-09-25T09:21:07.000Z</time>
      </trkpt>
      <trkpt lat="47.52397" lon="6.68834">
        <ele>370</ele>
        <time>2016-09-25T09:21:08.000Z</time>
      </trkpt>
      <trkpt lat="47.524" lon="6.68838">
        <ele>370</ele>
        <time>2016-09-25T09:21:09.000Z</time>
      </trkpt>
      <trkpt lat="47.52402" lon="6.68842">
        <ele>370</ele>
        <time>2016-09-25T09:21:10.000Z</time>
      </trkpt>
      <trkpt lat="47.52403" lon="6.68845">
        <ele>370</ele>
        <time>2016-09-25T09:21:11.000Z</time>
      </trkpt>
      <trkpt lat="47.52404" lon="6.68849">
        <ele>370</ele>
        <time>2016-09-25T09:21:12.000Z</time>
      </trkpt>
      <trkpt lat="47.52404" lon="6.68852">
        <ele>370</ele>
        <time>2016-09-25T09:21:13.000Z</time>
      </trkpt>
      <trkpt lat="47.52405" lon="6.68854">
        <ele>370</ele>
        <time>2016-09-25T09:21:14.000Z</time>
      </trkpt>
      <trkpt lat="47.52407" lon="6.68857">
        <ele>369</ele>
        <time>2016-09-25T09:21:15.000Z</time>
      </trkpt>
      <trkpt lat="47.5241" lon="6.68861">
        <ele>369</ele>
        <time>2016-09-25T09:21:16.000Z</time>
      </trkpt>
      <trkpt lat="47.52413" lon="6.68865">
        <ele>369</ele>
        <time>2016-09-25T09:21:17.000Z</time>
      </trkpt>
      <trkpt lat="47.52416" lon="6.68869">
        <ele>369</ele>
        <time>2016-09-25T09:21:18.000Z</time>
      </trkpt>
      <trkpt lat="47.52419" lon="6.68873">
        <ele>368</ele>
        <time>2016-09-25T09:21:19.000Z</time>
      </trkpt>
      <trkpt lat="47.52421" lon="6.68876">
        <ele>368</ele>
        <time>2016-09-25T09:21:20.000Z</time>
      </trkpt>
      <trkpt lat="47.52422" lon="6.68879">
        <ele>368</ele>
        <time>2016-09-25T09:21:21.000Z</time>
      </trkpt>
      <trkpt lat="47.52424" lon="6.68883">
        <ele>368</ele>
        <time>2016-09-25T09:21:22.000Z</time>
      </trkpt>
      <trkpt lat="47.52427" lon="6.68887">
        <ele>368</ele>
        <time>2016-09-25T09:21:23.000Z</time>
      </trkpt>
      <trkpt lat="47.5243" lon="6.68891">
        <ele>368</ele>
        <time>2016-09-25T09:21:24.000Z</time>
      </trkpt>
      <trkpt lat="47.52433" lon="6.68896">
        <ele>368</ele>
        <time>2016-09-25T09:21:25.000Z</time>
      </trkpt>
      <trkpt lat="47.52436" lon="6.68902">
        <ele>368</ele>
        <time>2016-09-25T09:21:26.000Z</time>
      </trkpt>
      <trkpt lat="47.52439" lon="6.68908">
        <ele>368</ele>
        <time>2016-09-25T09:21:27.000Z</time>
      </trkpt>
      <trkpt lat="47.52443" lon="6.68915">
        <ele>368</ele>
        <time>2016-09-25T09:21:28.000Z</time>
      </trkpt>
      <trkpt lat="47.52446" lon="6.68922">
        <ele>366</ele>
        <time>2016-09-25T09:21:29.000Z</time>
      </trkpt>
      <trkpt lat="47.5245" lon="6.68929">
        <ele>366</ele>
        <time>2016-09-25T09:21:30.000Z</time>
      </trkpt>
      <trkpt lat="47.52455" lon="6.68937">
        <ele>366</ele>
        <time>2016-09-25T09:21:31.000Z</time>
      </trkpt>
      <trkpt lat="47.52459" lon="6.68944">
        <ele>366</ele>
        <time>2016-09-25T09:21:32.000Z</time>
      </trkpt>
      <trkpt lat="47.52464" lon="6.68952">
        <ele>365</ele>
        <time>2016-09-25T09:21:33.000Z</time>
      </trkpt>
      <trkpt lat="47.52469" lon="6.68958">
        <ele>365</ele>
        <time>2016-09-25T09:21:34.000Z</time>
      </trkpt>
      <trkpt lat="47.52474" lon="6.68965">
        <ele>365</ele>
        <time>2016-09-25T09:21:35.000Z</time>
      </trkpt>
      <trkpt lat="47.52479" lon="6.68971">
        <ele>365</ele>
        <time>2016-09-25T09:21:36.000Z</time>
      </trkpt>
      <trkpt lat="47.52484" lon="6.68977">
        <ele>365</ele>
        <time>2016-09-25T09:21:37.000Z</time>
      </trkpt>
      <trkpt lat="47.52489" lon="6.68983">
        <ele>364</ele>
        <time>2016-09-25T09:21:38.000Z</time>
      </trkpt>
      <trkpt lat="47.52493" lon="6.68988">
        <ele>364</ele>
        <time>2016-09-25T09:21:39.000Z</time>
      </trkpt>
      <trkpt lat="47.52503" lon="6.68999">
        <ele>363</ele>
        <time>2016-09-25T09:21:40.000Z</time>
      </trkpt>
      <trkpt lat="47.52507" lon="6.69003">
        <ele>362</ele>
        <time>2016-09-25T09:21:41.000Z</time>
      </trkpt>
      <trkpt lat="47.5251" lon="6.69007">
        <ele>362</ele>
        <time>2016-09-25T09:21:42.000Z</time>
      </trkpt>
      <trkpt lat="47.52513" lon="6.69011">
        <ele>362</ele>
        <time>2016-09-25T09:21:43.000Z</time>
      </trkpt>
      <trkpt lat="47.52517" lon="6.69016">
        <ele>362</ele>
        <time>2016-09-25T09:21:44.000Z</time>
      </trkpt>
      <trkpt lat="47.52521" lon="6.6902">
        <ele>362</ele>
        <time>2016-09-25T09:21:45.000Z</time>
      </trkpt>
      <trkpt lat="47.52525" lon="6.69025">
        <ele>361</ele>
        <time>2016-09-25T09:21:46.000Z</time>
      </trkpt>
      <trkpt lat="47.52529" lon="6.69029">
        <ele>361</ele>
        <time>2016-09-25T09:21:47.000Z</time>
      </trkpt>
      <trkpt lat="47.52533" lon="6.69035">
        <ele>361</ele>
        <time>2016-09-25T09:21:48.000Z</time>
      </trkpt>
      <trkpt lat="47.52537" lon="6.69041">
        <ele>361</ele>
        <time>2016-09-25T09:21:49.000Z</time>
      </trkpt>
      <trkpt lat="47.52541" lon="6.69046">
        <ele>361</ele>
        <time>2016-09-25T09:21:50.000Z</time>
      </trkpt>
      <trkpt lat="47.52545" lon="6.69052">
        <ele>361</ele>
        <time>2016-09-25T09:21:51.000Z</time>
      </trkpt>
      <trkpt lat="47.52549" lon="6.69057">
        <ele>361</ele>
        <time>2016-09-25T09:21:52.000Z</time>
      </trkpt>
      <trkpt lat="47.52552" lon="6.69063">
        <ele>361</ele>
        <time>2016-09-25T09:21:53.000Z</time>
      </trkpt>
      <trkpt lat="47.52556" lon="6.6907">
        <ele>360</ele>
        <time>2016-09-25T09:21:54.000Z</time>
      </trkpt>
      <trkpt lat="47.52559" lon="6.69077">
        <ele>360</ele>
        <time>2016-09-25T09:21:55.000Z</time>
      </trkpt>
      <trkpt lat="47.52562" lon="6.69085">
        <ele>359</ele>
        <time>2016-09-25T09:21:56.000Z</time>
      </trkpt>
      <trkpt lat="47.52565" lon="6.69092">
        <ele>359</ele>
        <time>2016-09-25T09:21:57.000Z</time>
      </trkpt>
      <trkpt lat="47.52568" lon="6.69101">
        <ele>359</ele>
        <time>2016-09-25T09:21:58.000Z</time>
      </trkpt>
      <trkpt lat="47.5257" lon="6.69108">
        <ele>358</ele>
        <time>2016-09-25T09:21:59.000Z</time>
      </trkpt>
      <trkpt lat="47.52572" lon="6.69116">
        <ele>358</ele>
        <time>2016-09-25T09:22:00.000Z</time>
      </trkpt>
      <trkpt lat="47.52574" lon="6.69125">
        <ele>358</ele>
        <time>2016-09-25T09:22:01.000Z</time>
      </trkpt>
      <trkpt lat="47.52576" lon="6.69134">
        <ele>358</ele>
        <time>2016-09-25T09:22:02.000Z</time>
      </trkpt>
      <trkpt lat="47.52577" lon="6.69142">
        <ele>357</ele>
        <time>2016-09-25T09:22:03.000Z</time>
      </trkpt>
      <trkpt lat="47.52579" lon="6.69151">
        <ele>357</ele>
        <time>2016-09-25T09:22:04.000Z</time>
      </trkpt>
      <trkpt lat="47.5258" lon="6.69159">
        <ele>357</ele>
        <time>2016-09-25T09:22:05.000Z</time>
      </trkpt>
      <trkpt lat="47.52582" lon="6.69168">
        <ele>356</ele>
        <time>2016-09-25T09:22:06.000Z</time>
      </trkpt>
      <trkpt lat="47.52583" lon="6.69176">
        <ele>356</ele>
        <time>2016-09-25T09:22:07.000Z</time>
      </trkpt>
      <trkpt lat="47.52584" lon="6.69184">
        <ele>356</ele>
        <time>2016-09-25T09:22:08.000Z</time>
      </trkpt>
      <trkpt lat="47.52585" lon="6.69193">
        <ele>355</ele>
        <time>2016-09-25T09:22:09.000Z</time>
      </trkpt>
      <trkpt lat="47.52586" lon="6.69201">
        <ele>355</ele>
        <time>2016-09-25T09:22:10.000Z</time>
      </trkpt>
      <trkpt lat="47.52587" lon="6.6921">
        <ele>355</ele>
        <time>2016-09-25T09:22:11.000Z</time>
      </trkpt>
      <trkpt lat="47.52588" lon="6.69218">
        <ele>355</ele>
        <time>2016-09-25T09:22:12.000Z</time>
      </trkpt>
      <trkpt lat="47.52588" lon="6.69226">
        <ele>355</ele>
        <time>2016-09-25T09:22:13.000Z</time>
      </trkpt>
      <trkpt lat="47.5259" lon="6.69234">
        <ele>355</ele>
        <time>2016-09-25T09:22:14.000Z</time>
      </trkpt>
      <trkpt lat="47.52591" lon="6.69242">
        <ele>354</ele>
        <time>2016-09-25T09:22:15.000Z</time>
      </trkpt>
      <trkpt lat="47.52592" lon="6.6925">
        <ele>353</ele>
        <time>2016-09-25T09:22:16.000Z</time>
      </trkpt>
      <trkpt lat="47.52594" lon="6.69259">
        <ele>353</ele>
        <time>2016-09-25T09:22:17.000Z</time>
      </trkpt>
      <trkpt lat="47.52595" lon="6.69267">
        <ele>353</ele>
        <time>2016-09-25T09:22:18.000Z</time>
      </trkpt>
      <trkpt lat="47.52595" lon="6.69275">
        <ele>353</ele>
        <time>2016-09-25T09:22:19.000Z</time>
      </trkpt>
      <trkpt lat="47.52595" lon="6.69285">
        <ele>353</ele>
        <time>2016-09-25T09:22:20.000Z</time>
      </trkpt>
      <trkpt lat="47.52597" lon="6.69294">
        <ele>352</ele>
        <time>2016-09-25T09:22:21.000Z</time>
      </trkpt>
      <trkpt lat="47.52597" lon="6.69301">
        <ele>352</ele>
        <time>2016-09-25T09:22:22.000Z</time>
      </trkpt>
      <trkpt lat="47.52598" lon="6.69308">
        <ele>352</ele>
        <time>2016-09-25T09:22:23.000Z</time>
      </trkpt>
      <trkpt lat="47.52598" lon="6.69317">
        <ele>352</ele>
        <time>2016-09-25T09:22:24.000Z</time>
      </trkpt>
      <trkpt lat="47.52597" lon="6.69325">
        <ele>352</ele>
        <time>2016-09-25T09:22:25.000Z</time>
      </trkpt>
      <trkpt lat="47.52596" lon="6.69333">
        <ele>351</ele>
        <time>2016-09-25T09:22:26.000Z</time>
      </trkpt>
      <trkpt lat="47.52595" lon="6.69341">
        <ele>350</ele>
        <time>2016-09-25T09:22:27.000Z</time>
      </trkpt>
      <trkpt lat="47.52594" lon="6.69349">
        <ele>350</ele>
        <time>2016-09-25T09:22:28.000Z</time>
      </trkpt>
      <trkpt lat="47.52593" lon="6.69357">
        <ele>350</ele>
        <time>2016-09-25T09:22:29.000Z</time>
      </trkpt>
      <trkpt lat="47.52592" lon="6.69365">
        <ele>350</ele>
        <time>2016-09-25T09:22:30.000Z</time>
      </trkpt>
      <trkpt lat="47.52591" lon="6.69375">
        <ele>349</ele>
        <time>2016-09-25T09:22:31.000Z</time>
      </trkpt>
      <trkpt lat="47.5259" lon="6.69381">
        <ele>349</ele>
        <time>2016-09-25T09:22:32.000Z</time>
      </trkpt>
      <trkpt lat="47.52589" lon="6.6939">
        <ele>349</ele>
        <time>2016-09-25T09:22:33.000Z</time>
      </trkpt>
      <trkpt lat="47.5259" lon="6.69399">
        <ele>349</ele>
        <time>2016-09-25T09:22:34.000Z</time>
      </trkpt>
      <trkpt lat="47.52591" lon="6.69408">
        <ele>349</ele>
        <time>2016-09-25T09:22:35.000Z</time>
      </trkpt>
      <trkpt lat="47.52592" lon="6.69418">
        <ele>348</ele>
        <time>2016-09-25T09:22:36.000Z</time>
      </trkpt>
      <trkpt lat="47.52592" lon="6.69427">
        <ele>348</ele>
        <time>2016-09-25T09:22:37.000Z</time>
      </trkpt>
      <trkpt lat="47.52593" lon="6.69437">
        <ele>347</ele>
        <time>2016-09-25T09:22:38.000Z</time>
      </trkpt>
      <trkpt lat="47.52594" lon="6.69446">
        <ele>347</ele>
        <time>2016-09-25T09:22:39.000Z</time>
      </trkpt>
      <trkpt lat="47.52596" lon="6.69455">
        <ele>347</ele>
        <time>2016-09-25T09:22:40.000Z</time>
      </trkpt>
      <trkpt lat="47.52596" lon="6.69461">
        <ele>347</ele>
        <time>2016-09-25T09:22:41.000Z</time>
      </trkpt>
      <trkpt lat="47.52597" lon="6.69465">
        <ele>347</ele>
        <time>2016-09-25T09:22:42.000Z</time>
      </trkpt>
      <trkpt lat="47.52598" lon="6.69471">
        <ele>347</ele>
        <time>2016-09-25T09:22:43.000Z</time>
      </trkpt>
      <trkpt lat="47.52601" lon="6.69473">
        <ele>347</ele>
        <time>2016-09-25T09:22:44.000Z</time>
      </trkpt>
      <trkpt lat="47.52604" lon="6.69475">
        <ele>347</ele>
        <time>2016-09-25T09:22:45.000Z</time>
      </trkpt>
      <trkpt lat="47.52607" lon="6.69477">
        <ele>347</ele>
        <time>2016-09-25T09:22:46.000Z</time>
      </trkpt>
      <trkpt lat="47.52611" lon="6.69478">
        <ele>347</ele>
        <time>2016-09-25T09:22:47.000Z</time>
      </trkpt>
      <trkpt lat="47.52615" lon="6.6948">
        <ele>347</ele>
        <time>2016-09-25T09:22:48.000Z</time>
      </trkpt>
      <trkpt lat="47.52619" lon="6.69482">
        <ele>347</ele>
        <time>2016-09-25T09:22:49.000Z</time>
      </trkpt>
      <trkpt lat="47.52622" lon="6.69483">
        <ele>347</ele>
        <time>2016-09-25T09:22:50.000Z</time>
      </trkpt>
      <trkpt lat="47.52627" lon="6.69488">
        <ele>347</ele>
        <time>2016-09-25T09:22:51.000Z</time>
      </trkpt>
      <trkpt lat="47.52631" lon="6.69492">
        <ele>347</ele>
        <time>2016-09-25T09:22:52.000Z</time>
      </trkpt>
      <trkpt lat="47.52627" lon="6.69503">
        <ele>346</ele>
        <time>2016-09-25T09:22:53.000Z</time>
      </trkpt>
      <trkpt lat="47.52626" lon="6.69512">
        <ele>345</ele>
        <time>2016-09-25T09:22:54.000Z</time>
      </trkpt>
      <trkpt lat="47.52625" lon="6.6952">
        <ele>345</ele>
        <time>2016-09-25T09:22:55.000Z</time>
      </trkpt>
      <trkpt lat="47.52623" lon="6.69527">
        <ele>345</ele>
        <time>2016-09-25T09:22:56.000Z</time>
      </trkpt>
      <trkpt lat="47.52622" lon="6.69534">
        <ele>345</ele>
        <time>2016-09-25T09:22:57.000Z</time>
      </trkpt>
      <trkpt lat="47.52621" lon="6.69541">
        <ele>345</ele>
        <time>2016-09-25T09:22:58.000Z</time>
      </trkpt>
      <trkpt lat="47.52621" lon="6.69547">
        <ele>345</ele>
        <time>2016-09-25T09:22:59.000Z</time>
      </trkpt>
      <trkpt lat="47.5262" lon="6.69553">
        <ele>345</ele>
        <time>2016-09-25T09:23:00.000Z</time>
      </trkpt>
      <trkpt lat="47.52619" lon="6.69558">
        <ele>345</ele>
        <time>2016-09-25T09:23:01.000Z</time>
      </trkpt>
      <trkpt lat="47.52613" lon="6.69559">
        <ele>345</ele>
        <time>2016-09-25T09:23:02.000Z</time>
      </trkpt>
      <trkpt lat="47.52613" lon="6.69564">
        <ele>345</ele>
        <time>2016-09-25T09:23:03.000Z</time>
      </trkpt>
      <trkpt lat="47.52614" lon="6.69571">
        <ele>345</ele>
        <time>2016-09-25T09:23:04.000Z</time>
      </trkpt>
      <trkpt lat="47.52614" lon="6.69578">
        <ele>345</ele>
        <time>2016-09-25T09:23:05.000Z</time>
      </trkpt>
      <trkpt lat="47.52614" lon="6.69584">
        <ele>345</ele>
        <time>2016-09-25T09:23:06.000Z</time>
      </trkpt>
      <trkpt lat="47.52615" lon="6.69591">
        <ele>345</ele>
        <time>2016-09-25T09:23:07.000Z</time>
      </trkpt>
      <trkpt lat="47.52614" lon="6.69597">
        <ele>345</ele>
        <time>2016-09-25T09:23:08.000Z</time>
      </trkpt>
      <trkpt lat="47.52615" lon="6.69607">
        <ele>345</ele>
        <time>2016-09-25T09:23:09.000Z</time>
      </trkpt>
      <trkpt lat="47.52615" lon="6.69613">
        <ele>346</ele>
        <time>2016-09-25T09:23:10.000Z</time>
      </trkpt>
      <trkpt lat="47.52616" lon="6.6962">
        <ele>346</ele>
        <time>2016-09-25T09:23:11.000Z</time>
      </trkpt>
      <trkpt lat="47.52615" lon="6.69626">
        <ele>346</ele>
        <time>2016-09-25T09:23:12.000Z</time>
      </trkpt>
      <trkpt lat="47.52614" lon="6.69631">
        <ele>346</ele>
        <time>2016-09-25T09:23:13.000Z</time>
      </trkpt>
      <trkpt lat="47.52615" lon="6.69637">
        <ele>346</ele>
        <time>2016-09-25T09:23:14.000Z</time>
      </trkpt>
      <trkpt lat="47.52614" lon="6.69641">
        <ele>346</ele>
        <time>2016-09-25T09:23:15.000Z</time>
      </trkpt>
      <trkpt lat="47.52615" lon="6.69648">
        <ele>346</ele>
        <time>2016-09-25T09:23:16.000Z</time>
      </trkpt>
      <trkpt lat="47.52612" lon="6.69653">
        <ele>346</ele>
        <time>2016-09-25T09:23:17.000Z</time>
      </trkpt>
      <trkpt lat="47.52612" lon="6.6966">
        <ele>346</ele>
        <time>2016-09-25T09:23:18.000Z</time>
      </trkpt>
      <trkpt lat="47.52611" lon="6.69667">
        <ele>348</ele>
        <time>2016-09-25T09:23:19.000Z</time>
      </trkpt>
      <trkpt lat="47.52611" lon="6.69673">
        <ele>348</ele>
        <time>2016-09-25T09:23:20.000Z</time>
      </trkpt>
      <trkpt lat="47.52612" lon="6.6968">
        <ele>349</ele>
        <time>2016-09-25T09:23:21.000Z</time>
      </trkpt>
      <trkpt lat="47.52613" lon="6.69686">
        <ele>349</ele>
        <time>2016-09-25T09:23:22.000Z</time>
      </trkpt>
      <trkpt lat="47.52612" lon="6.69692">
        <ele>349</ele>
        <time>2016-09-25T09:23:23.000Z</time>
      </trkpt>
      <trkpt lat="47.52611" lon="6.69698">
        <ele>349</ele>
        <time>2016-09-25T09:23:24.000Z</time>
      </trkpt>
      <trkpt lat="47.52612" lon="6.69704">
        <ele>350</ele>
        <time>2016-09-25T09:23:25.000Z</time>
      </trkpt>
      <trkpt lat="47.52613" lon="6.69711">
        <ele>350</ele>
        <time>2016-09-25T09:23:26.000Z</time>
      </trkpt>
      <trkpt lat="47.52614" lon="6.69717">
        <ele>350</ele>
        <time>2016-09-25T09:23:27.000Z</time>
      </trkpt>
      <trkpt lat="47.52616" lon="6.69722">
        <ele>350</ele>
        <time>2016-09-25T09:23:28.000Z</time>
      </trkpt>
      <trkpt lat="47.52618" lon="6.69727">
        <ele>350</ele>
        <time>2016-09-25T09:23:29.000Z</time>
      </trkpt>
      <trkpt lat="47.52625" lon="6.69732">
        <ele>350</ele>
        <time>2016-09-25T09:23:30.000Z</time>
      </trkpt>
      <trkpt lat="47.5263" lon="6.69737">
        <ele>351</ele>
        <time>2016-09-25T09:23:31.000Z</time>
      </trkpt>
      <trkpt lat="47.52634" lon="6.69738">
        <ele>351</ele>
        <time>2016-09-25T09:23:32.000Z</time>
      </trkpt>
      <trkpt lat="47.52638" lon="6.6974">
        <ele>351</ele>
        <time>2016-09-25T09:23:33.000Z</time>
      </trkpt>
      <trkpt lat="47.52643" lon="6.69742">
        <ele>351</ele>
        <time>2016-09-25T09:23:34.000Z</time>
      </trkpt>
      <trkpt lat="47.52647" lon="6.69744">
        <ele>351</ele>
        <time>2016-09-25T09:23:35.000Z</time>
      </trkpt>
      <trkpt lat="47.52652" lon="6.69747">
        <ele>351</ele>
        <time>2016-09-25T09:23:36.000Z</time>
      </trkpt>
      <trkpt lat="47.52656" lon="6.69748">
        <ele>351</ele>
        <time>2016-09-25T09:23:37.000Z</time>
      </trkpt>
      <trkpt lat="47.5266" lon="6.69749">
        <ele>352</ele>
        <time>2016-09-25T09:23:38.000Z</time>
      </trkpt>
      <trkpt lat="47.52665" lon="6.69752">
        <ele>352</ele>
        <time>2016-09-25T09:23:39.000Z</time>
      </trkpt>
      <trkpt lat="47.5267" lon="6.69754">
        <ele>351</ele>
        <time>2016-09-25T09:23:40.000Z</time>
      </trkpt>
      <trkpt lat="47.52675" lon="6.69755">
        <ele>351</ele>
        <time>2016-09-25T09:23:41.000Z</time>
      </trkpt>
      <trkpt lat="47.52679" lon="6.69759">
        <ele>351</ele>
        <time>2016-09-25T09:23:42.000Z</time>
      </trkpt>
      <trkpt lat="47.52679" lon="6.69765">
        <ele>350</ele>
        <time>2016-09-25T09:23:43.000Z</time>
      </trkpt>
      <trkpt lat="47.52682" lon="6.6977">
        <ele>350</ele>
        <time>2016-09-25T09:23:44.000Z</time>
      </trkpt>
      <trkpt lat="47.52684" lon="6.69776">
        <ele>350</ele>
        <time>2016-09-25T09:23:45.000Z</time>
      </trkpt>
      <trkpt lat="47.52688" lon="6.69783">
        <ele>349</ele>
        <time>2016-09-25T09:23:46.000Z</time>
      </trkpt>
      <trkpt lat="47.52691" lon="6.6979">
        <ele>349</ele>
        <time>2016-09-25T09:23:47.000Z</time>
      </trkpt>
      <trkpt lat="47.52694" lon="6.69797">
        <ele>349</ele>
        <time>2016-09-25T09:23:48.000Z</time>
      </trkpt>
      <trkpt lat="47.52697" lon="6.69804">
        <ele>349</ele>
        <time>2016-09-25T09:23:49.000Z</time>
      </trkpt>
      <trkpt lat="47.527" lon="6.69812">
        <ele>349</ele>
        <time>2016-09-25T09:23:50.000Z</time>
      </trkpt>
      <trkpt lat="47.52703" lon="6.6982">
        <ele>348</ele>
        <time>2016-09-25T09:23:51.000Z</time>
      </trkpt>
      <trkpt lat="47.52705" lon="6.69828">
        <ele>348</ele>
        <time>2016-09-25T09:23:52.000Z</time>
      </trkpt>
      <trkpt lat="47.52707" lon="6.69837">
        <ele>346</ele>
        <time>2016-09-25T09:23:53.000Z</time>
      </trkpt>
      <trkpt lat="47.52711" lon="6.69843">
        <ele>346</ele>
        <time>2016-09-25T09:23:54.000Z</time>
      </trkpt>
      <trkpt lat="47.52713" lon="6.6985">
        <ele>346</ele>
        <time>2016-09-25T09:23:55.000Z</time>
      </trkpt>
      <trkpt lat="47.52714" lon="6.69856">
        <ele>346</ele>
        <time>2016-09-25T09:23:56.000Z</time>
      </trkpt>
      <trkpt lat="47.52717" lon="6.69866">
        <ele>346</ele>
        <time>2016-09-25T09:23:57.000Z</time>
      </trkpt>
      <trkpt lat="47.52719" lon="6.69874">
        <ele>346</ele>
        <time>2016-09-25T09:23:58.000Z</time>
      </trkpt>
      <trkpt lat="47.52721" lon="6.69883">
        <ele>345</ele>
        <time>2016-09-25T09:23:59.000Z</time>
      </trkpt>
      <trkpt lat="47.52721" lon="6.69889">
        <ele>345</ele>
        <time>2016-09-25T09:24:00.000Z</time>
      </trkpt>
      <trkpt lat="47.52722" lon="6.69897">
        <ele>345</ele>
        <time>2016-09-25T09:24:01.000Z</time>
      </trkpt>
      <trkpt lat="47.52725" lon="6.69908">
        <ele>345</ele>
        <time>2016-09-25T09:24:02.000Z</time>
      </trkpt>
      <trkpt lat="47.52725" lon="6.69917">
        <ele>344</ele>
        <time>2016-09-25T09:24:03.000Z</time>
      </trkpt>
      <trkpt lat="47.52728" lon="6.69926">
        <ele>344</ele>
        <time>2016-09-25T09:24:04.000Z</time>
      </trkpt>
      <trkpt lat="47.52729" lon="6.69934">
        <ele>344</ele>
        <time>2016-09-25T09:24:05.000Z</time>
      </trkpt>
      <trkpt lat="47.5273" lon="6.69942">
        <ele>344</ele>
        <time>2016-09-25T09:24:06.000Z</time>
      </trkpt>
      <trkpt lat="47.52732" lon="6.69952">
        <ele>344</ele>
        <time>2016-09-25T09:24:07.000Z</time>
      </trkpt>
      <trkpt lat="47.52733" lon="6.6996">
        <ele>344</ele>
        <time>2016-09-25T09:24:08.000Z</time>
      </trkpt>
      <trkpt lat="47.52735" lon="6.6997">
        <ele>344</ele>
        <time>2016-09-25T09:24:09.000Z</time>
      </trkpt>
      <trkpt lat="47.52737" lon="6.69978">
        <ele>344</ele>
        <time>2016-09-25T09:24:10.000Z</time>
      </trkpt>
      <trkpt lat="47.52738" lon="6.69987">
        <ele>344</ele>
        <time>2016-09-25T09:24:11.000Z</time>
      </trkpt>
      <trkpt lat="47.5274" lon="6.69995">
        <ele>343</ele>
        <time>2016-09-25T09:24:12.000Z</time>
      </trkpt>
      <trkpt lat="47.52741" lon="6.70002">
        <ele>343</ele>
        <time>2016-09-25T09:24:13.000Z</time>
      </trkpt>
      <trkpt lat="47.52743" lon="6.70009">
        <ele>343</ele>
        <time>2016-09-25T09:24:14.000Z</time>
      </trkpt>
      <trkpt lat="47.52744" lon="6.70018">
        <ele>343</ele>
        <time>2016-09-25T09:24:15.000Z</time>
      </trkpt>
      <trkpt lat="47.52745" lon="6.70025">
        <ele>343</ele>
        <time>2016-09-25T09:24:16.000Z</time>
      </trkpt>
      <trkpt lat="47.52747" lon="6.70032">
        <ele>344</ele>
        <time>2016-09-25T09:24:17.000Z</time>
      </trkpt>
      <trkpt lat="47.52748" lon="6.7004">
        <ele>344</ele>
        <time>2016-09-25T09:24:18.000Z</time>
      </trkpt>
      <trkpt lat="47.5275" lon="6.70048">
        <ele>344</ele>
        <time>2016-09-25T09:24:19.000Z</time>
      </trkpt>
      <trkpt lat="47.52751" lon="6.70056">
        <ele>347</ele>
        <time>2016-09-25T09:24:20.000Z</time>
      </trkpt>
      <trkpt lat="47.52753" lon="6.70064">
        <ele>346</ele>
        <time>2016-09-25T09:24:21.000Z</time>
      </trkpt>
      <trkpt lat="47.52754" lon="6.70071">
        <ele>346</ele>
        <time>2016-09-25T09:24:22.000Z</time>
      </trkpt>
      <trkpt lat="47.52755" lon="6.70079">
        <ele>346</ele>
        <time>2016-09-25T09:24:23.000Z</time>
      </trkpt>
      <trkpt lat="47.52756" lon="6.70087">
        <ele>346</ele>
        <time>2016-09-25T09:24:24.000Z</time>
      </trkpt>
      <trkpt lat="47.52757" lon="6.70093">
        <ele>347</ele>
        <time>2016-09-25T09:24:25.000Z</time>
      </trkpt>
      <trkpt lat="47.52758" lon="6.70099">
        <ele>348</ele>
        <time>2016-09-25T09:24:26.000Z</time>
      </trkpt>
      <trkpt lat="47.52758" lon="6.70104">
        <ele>348</ele>
        <time>2016-09-25T09:24:27.000Z</time>
      </trkpt>
      <trkpt lat="47.52759" lon="6.70112">
        <ele>349</ele>
        <time>2016-09-25T09:24:28.000Z</time>
      </trkpt>
      <trkpt lat="47.52762" lon="6.70121">
        <ele>349</ele>
        <time>2016-09-25T09:24:29.000Z</time>
      </trkpt>
      <trkpt lat="47.52763" lon="6.70128">
        <ele>349</ele>
        <time>2016-09-25T09:24:30.000Z</time>
      </trkpt>
      <trkpt lat="47.52763" lon="6.70134">
        <ele>349</ele>
        <time>2016-09-25T09:24:31.000Z</time>
      </trkpt>
      <trkpt lat="47.52765" lon="6.70143">
        <ele>349</ele>
        <time>2016-09-25T09:24:32.000Z</time>
      </trkpt>
      <trkpt lat="47.52766" lon="6.70148">
        <ele>349</ele>
        <time>2016-09-25T09:24:33.000Z</time>
      </trkpt>
      <trkpt lat="47.52769" lon="6.70154">
        <ele>349</ele>
        <time>2016-09-25T09:24:34.000Z</time>
      </trkpt>
      <trkpt lat="47.52771" lon="6.70162">
        <ele>349</ele>
        <time>2016-09-25T09:24:35.000Z</time>
      </trkpt>
      <trkpt lat="47.52773" lon="6.7017">
        <ele>349</ele>
        <time>2016-09-25T09:24:36.000Z</time>
      </trkpt>
      <trkpt lat="47.52775" lon="6.70177">
        <ele>350</ele>
        <time>2016-09-25T09:24:37.000Z</time>
      </trkpt>
      <trkpt lat="47.52777" lon="6.70185">
        <ele>350</ele>
        <time>2016-09-25T09:24:38.000Z</time>
      </trkpt>
      <trkpt lat="47.52778" lon="6.70192">
        <ele>350</ele>
        <time>2016-09-25T09:24:39.000Z</time>
      </trkpt>
      <trkpt lat="47.52781" lon="6.70198">
        <ele>350</ele>
        <time>2016-09-25T09:24:40.000Z</time>
      </trkpt>
      <trkpt lat="47.52783" lon="6.70204">
        <ele>351</ele>
        <time>2016-09-25T09:24:41.000Z</time>
      </trkpt>
      <trkpt lat="47.52784" lon="6.70211">
        <ele>351</ele>
        <time>2016-09-25T09:24:42.000Z</time>
      </trkpt>
      <trkpt lat="47.52787" lon="6.70218">
        <ele>351</ele>
        <time>2016-09-25T09:24:43.000Z</time>
      </trkpt>
      <trkpt lat="47.52788" lon="6.70225">
        <ele>351</ele>
        <time>2016-09-25T09:24:44.000Z</time>
      </trkpt>
      <trkpt lat="47.52788" lon="6.70231">
        <ele>351</ele>
        <time>2016-09-25T09:24:45.000Z</time>
      </trkpt>
      <trkpt lat="47.52789" lon="6.70238">
        <ele>351</ele>
        <time>2016-09-25T09:24:46.000Z</time>
      </trkpt>
      <trkpt lat="47.5279" lon="6.70244">
        <ele>351</ele>
        <time>2016-09-25T09:24:47.000Z</time>
      </trkpt>
      <trkpt lat="47.52793" lon="6.70253">
        <ele>350</ele>
        <time>2016-09-25T09:24:48.000Z</time>
      </trkpt>
      <trkpt lat="47.52793" lon="6.70261">
        <ele>350</ele>
        <time>2016-09-25T09:24:49.000Z</time>
      </trkpt>
      <trkpt lat="47.52795" lon="6.70268">
        <ele>350</ele>
        <time>2016-09-25T09:24:50.000Z</time>
      </trkpt>
      <trkpt lat="47.52794" lon="6.70272">
        <ele>350</ele>
        <time>2016-09-25T09:24:51.000Z</time>
      </trkpt>
      <trkpt lat="47.52796" lon="6.70279">
        <ele>350</ele>
        <time>2016-09-25T09:24:52.000Z</time>
      </trkpt>
      <trkpt lat="47.528" lon="6.70286">
        <ele>350</ele>
        <time>2016-09-25T09:24:53.000Z</time>
      </trkpt>
      <trkpt lat="47.528" lon="6.70294">
        <ele>350</ele>
        <time>2016-09-25T09:24:54.000Z</time>
      </trkpt>
      <trkpt lat="47.52803" lon="6.70305">
        <ele>349</ele>
        <time>2016-09-25T09:24:55.000Z</time>
      </trkpt>
      <trkpt lat="47.52804" lon="6.70313">
        <ele>349</ele>
        <time>2016-09-25T09:24:56.000Z</time>
      </trkpt>
      <trkpt lat="47.52806" lon="6.70321">
        <ele>349</ele>
        <time>2016-09-25T09:24:57.000Z</time>
      </trkpt>
      <trkpt lat="47.52807" lon="6.70329">
        <ele>349</ele>
        <time>2016-09-25T09:24:58.000Z</time>
      </trkpt>
      <trkpt lat="47.52808" lon="6.70337">
        <ele>347</ele>
        <time>2016-09-25T09:24:59.000Z</time>
      </trkpt>
      <trkpt lat="47.52808" lon="6.70344">
        <ele>347</ele>
        <time>2016-09-25T09:25:00.000Z</time>
      </trkpt>
      <trkpt lat="47.52808" lon="6.70353">
        <ele>347</ele>
        <time>2016-09-25T09:25:01.000Z</time>
      </trkpt>
      <trkpt lat="47.52808" lon="6.7036">
        <ele>347</ele>
        <time>2016-09-25T09:25:02.000Z</time>
      </trkpt>
      <trkpt lat="47.52809" lon="6.70368">
        <ele>346</ele>
        <time>2016-09-25T09:25:03.000Z</time>
      </trkpt>
      <trkpt lat="47.52812" lon="6.70378">
        <ele>346</ele>
        <time>2016-09-25T09:25:04.000Z</time>
      </trkpt>
      <trkpt lat="47.52812" lon="6.70385">
        <ele>346</ele>
        <time>2016-09-25T09:25:05.000Z</time>
      </trkpt>
      <trkpt lat="47.52812" lon="6.7039">
        <ele>346</ele>
        <time>2016-09-25T09:25:06.000Z</time>
      </trkpt>
      <trkpt lat="47.52815" lon="6.70399">
        <ele>346</ele>
        <time>2016-09-25T09:25:07.000Z</time>
      </trkpt>
      <trkpt lat="47.52814" lon="6.70405">
        <ele>346</ele>
        <time>2016-09-25T09:25:08.000Z</time>
      </trkpt>
      <trkpt lat="47.52813" lon="6.70409">
        <ele>346</ele>
        <time>2016-09-25T09:25:09.000Z</time>
      </trkpt>
      <trkpt lat="47.52813" lon="6.70416">
        <ele>346</ele>
        <time>2016-09-25T09:25:10.000Z</time>
      </trkpt>
      <trkpt lat="47.52813" lon="6.70423">
        <ele>346</ele>
        <time>2016-09-25T09:25:11.000Z</time>
      </trkpt>
      <trkpt lat="47.52814" lon="6.70429">
        <ele>346</ele>
        <time>2016-09-25T09:25:12.000Z</time>
      </trkpt>
      <trkpt lat="47.52814" lon="6.70434">
        <ele>346</ele>
        <time>2016-09-25T09:25:13.000Z</time>
      </trkpt>
      <trkpt lat="47.52818" lon="6.70441">
        <ele>346</ele>
        <time>2016-09-25T09:25:14.000Z</time>
      </trkpt>
      <trkpt lat="47.5282" lon="6.70446">
        <ele>346</ele>
        <time>2016-09-25T09:25:15.000Z</time>
      </trkpt>
      <trkpt lat="47.52823" lon="6.70454">
        <ele>346</ele>
        <time>2016-09-25T09:25:16.000Z</time>
      </trkpt>
      <trkpt lat="47.52823" lon="6.7046">
        <ele>346</ele>
        <time>2016-09-25T09:25:17.000Z</time>
      </trkpt>
      <trkpt lat="47.52825" lon="6.70464">
        <ele>346</ele>
        <time>2016-09-25T09:25:18.000Z</time>
      </trkpt>
      <trkpt lat="47.52826" lon="6.70469">
        <ele>347</ele>
        <time>2016-09-25T09:25:19.000Z</time>
      </trkpt>
      <trkpt lat="47.52826" lon="6.70475">
        <ele>347</ele>
        <time>2016-09-25T09:25:20.000Z</time>
      </trkpt>
      <trkpt lat="47.52826" lon="6.70479">
        <ele>347</ele>
        <time>2016-09-25T09:25:21.000Z</time>
      </trkpt>
      <trkpt lat="47.52826" lon="6.70485">
        <ele>347</ele>
        <time>2016-09-25T09:25:22.000Z</time>
      </trkpt>
      <trkpt lat="47.52824" lon="6.70489">
        <ele>348</ele>
        <time>2016-09-25T09:25:23.000Z</time>
      </trkpt>
      <trkpt lat="47.52824" lon="6.70494">
        <ele>348</ele>
        <time>2016-09-25T09:25:24.000Z</time>
      </trkpt>
      <trkpt lat="47.52823" lon="6.705">
        <ele>349</ele>
        <time>2016-09-25T09:25:26.000Z</time>
      </trkpt>
      <trkpt lat="47.52822" lon="6.70503">
        <ele>349</ele>
        <time>2016-09-25T09:25:27.000Z</time>
      </trkpt>
      <trkpt lat="47.52821" lon="6.70507">
        <ele>349</ele>
        <time>2016-09-25T09:25:28.000Z</time>
      </trkpt>
      <trkpt lat="47.5282" lon="6.70511">
        <ele>348</ele>
        <time>2016-09-25T09:25:29.000Z</time>
      </trkpt>
      <trkpt lat="47.52819" lon="6.70515">
        <ele>348</ele>
        <time>2016-09-25T09:25:30.000Z</time>
      </trkpt>
      <trkpt lat="47.52819" lon="6.70518">
        <ele>348</ele>
        <time>2016-09-25T09:25:31.000Z</time>
      </trkpt>
      <trkpt lat="47.5282" lon="6.70523">
        <ele>348</ele>
        <time>2016-09-25T09:25:32.000Z</time>
      </trkpt>
      <trkpt lat="47.5282" lon="6.70528">
        <ele>348</ele>
        <time>2016-09-25T09:25:33.000Z</time>
      </trkpt>
      <trkpt lat="47.5282" lon="6.70531">
        <ele>348</ele>
        <time>2016-09-25T09:25:34.000Z</time>
      </trkpt>
      <trkpt lat="47.5282" lon="6.70535">
        <ele>348</ele>
        <time>2016-09-25T09:25:35.000Z</time>
      </trkpt>
      <trkpt lat="47.52817" lon="6.70539">
        <ele>348</ele>
        <time>2016-09-25T09:25:37.000Z</time>
      </trkpt>
      <trkpt lat="47.52816" lon="6.70539">
        <ele>348</ele>
        <time>2016-09-25T09:25:38.000Z</time>
      </trkpt>
      <trkpt lat="47.52814" lon="6.70539">
        <ele>348</ele>
        <time>2016-09-25T09:25:39.000Z</time>
      </trkpt>
      <trkpt lat="47.52811" lon="6.70538">
        <ele>348</ele>
        <time>2016-09-25T09:25:40.000Z</time>
      </trkpt>
      <trkpt lat="47.52809" lon="6.70536">
        <ele>348</ele>
        <time>2016-09-25T09:25:41.000Z</time>
      </trkpt>
      <trkpt lat="47.52806" lon="6.70535">
        <ele>348</ele>
        <time>2016-09-25T09:25:42.000Z</time>
      </trkpt>
      <trkpt lat="47.52803" lon="6.70535">
        <ele>348</ele>
        <time>2016-09-25T09:25:43.000Z</time>
      </trkpt>
      <trkpt lat="47.528" lon="6.70537">
        <ele>348</ele>
        <time>2016-09-25T09:25:44.000Z</time>
      </trkpt>
      <trkpt lat="47.52798" lon="6.70538">
        <ele>348</ele>
        <time>2016-09-25T09:25:45.000Z</time>
      </trkpt>
      <trkpt lat="47.52795" lon="6.70539">
        <ele>348</ele>
        <time>2016-09-25T09:25:46.000Z</time>
      </trkpt>
      <trkpt lat="47.52793" lon="6.70542">
        <ele>348</ele>
        <time>2016-09-25T09:25:47.000Z</time>
      </trkpt>
      <trkpt lat="47.52791" lon="6.70546">
        <ele>348</ele>
        <time>2016-09-25T09:25:48.000Z</time>
      </trkpt>
      <trkpt lat="47.52789" lon="6.70551">
        <ele>348</ele>
        <time>2016-09-25T09:25:49.000Z</time>
      </trkpt>
      <trkpt lat="47.52787" lon="6.70556">
        <ele>348</ele>
        <time>2016-09-25T09:25:50.000Z</time>
      </trkpt>
      <trkpt lat="47.52785" lon="6.7056">
        <ele>348</ele>
        <time>2016-09-25T09:25:51.000Z</time>
      </trkpt>
      <trkpt lat="47.52784" lon="6.70564">
        <ele>348</ele>
        <time>2016-09-25T09:25:52.000Z</time>
      </trkpt>
      <trkpt lat="47.52782" lon="6.70569">
        <ele>348</ele>
        <time>2016-09-25T09:25:53.000Z</time>
      </trkpt>
      <trkpt lat="47.5278" lon="6.70573">
        <ele>348</ele>
        <time>2016-09-25T09:25:54.000Z</time>
      </trkpt>
      <trkpt lat="47.52778" lon="6.70577">
        <ele>348</ele>
        <time>2016-09-25T09:25:55.000Z</time>
      </trkpt>
      <trkpt lat="47.52776" lon="6.7058">
        <ele>348</ele>
        <time>2016-09-25T09:25:56.000Z</time>
      </trkpt>
      <trkpt lat="47.52769" lon="6.70583">
        <ele>348</ele>
        <time>2016-09-25T09:25:57.000Z</time>
      </trkpt>
      <trkpt lat="47.52764" lon="6.70583">
        <ele>348</ele>
        <time>2016-09-25T09:25:58.000Z</time>
      </trkpt>
      <trkpt lat="47.52761" lon="6.70585">
        <ele>349</ele>
        <time>2016-09-25T09:25:59.000Z</time>
      </trkpt>
      <trkpt lat="47.52755" lon="6.70586">
        <ele>349</ele>
        <time>2016-09-25T09:26:00.000Z</time>
      </trkpt>
      <trkpt lat="47.52751" lon="6.70587">
        <ele>348</ele>
        <time>2016-09-25T09:26:01.000Z</time>
      </trkpt>
      <trkpt lat="47.52747" lon="6.70589">
        <ele>351</ele>
        <time>2016-09-25T09:26:02.000Z</time>
      </trkpt>
      <trkpt lat="47.52743" lon="6.70591">
        <ele>352</ele>
        <time>2016-09-25T09:26:03.000Z</time>
      </trkpt>
      <trkpt lat="47.5274" lon="6.70593">
        <ele>354</ele>
        <time>2016-09-25T09:26:04.000Z</time>
      </trkpt>
      <trkpt lat="47.52738" lon="6.70595">
        <ele>354</ele>
        <time>2016-09-25T09:26:05.000Z</time>
      </trkpt>
      <trkpt lat="47.52737" lon="6.70598">
        <ele>355</ele>
        <time>2016-09-25T09:26:06.000Z</time>
      </trkpt>
      <trkpt lat="47.52736" lon="6.70603">
        <ele>356</ele>
        <time>2016-09-25T09:26:07.000Z</time>
      </trkpt>
      <trkpt lat="47.52735" lon="6.70606">
        <ele>356</ele>
        <time>2016-09-25T09:26:08.000Z</time>
      </trkpt>
      <trkpt lat="47.52736" lon="6.70612">
        <ele>357</ele>
        <time>2016-09-25T09:26:09.000Z</time>
      </trkpt>
      <trkpt lat="47.52736" lon="6.70616">
        <ele>357</ele>
        <time>2016-09-25T09:26:10.000Z</time>
      </trkpt>
      <trkpt lat="47.52736" lon="6.70621">
        <ele>358</ele>
        <time>2016-09-25T09:26:11.000Z</time>
      </trkpt>
      <trkpt lat="47.52736" lon="6.70625">
        <ele>358</ele>
        <time>2016-09-25T09:26:12.000Z</time>
      </trkpt>
      <trkpt lat="47.52735" lon="6.7063">
        <ele>358</ele>
        <time>2016-09-25T09:26:13.000Z</time>
      </trkpt>
      <trkpt lat="47.52735" lon="6.70634">
        <ele>358</ele>
        <time>2016-09-25T09:26:14.000Z</time>
      </trkpt>
      <trkpt lat="47.52735" lon="6.7064">
        <ele>358</ele>
        <time>2016-09-25T09:26:15.000Z</time>
      </trkpt>
      <trkpt lat="47.52736" lon="6.70648">
        <ele>358</ele>
        <time>2016-09-25T09:26:16.000Z</time>
      </trkpt>
      <trkpt lat="47.52738" lon="6.70656">
        <ele>357</ele>
        <time>2016-09-25T09:26:17.000Z</time>
      </trkpt>
      <trkpt lat="47.52739" lon="6.70664">
        <ele>357</ele>
        <time>2016-09-25T09:26:18.000Z</time>
      </trkpt>
      <trkpt lat="47.5274" lon="6.70671">
        <ele>358</ele>
        <time>2016-09-25T09:26:19.000Z</time>
      </trkpt>
      <trkpt lat="47.52741" lon="6.70677">
        <ele>359</ele>
        <time>2016-09-25T09:26:20.000Z</time>
      </trkpt>
      <trkpt lat="47.52741" lon="6.70682">
        <ele>360</ele>
        <time>2016-09-25T09:26:21.000Z</time>
      </trkpt>
      <trkpt lat="47.52741" lon="6.70688">
        <ele>361</ele>
        <time>2016-09-25T09:26:22.000Z</time>
      </trkpt>
      <trkpt lat="47.52741" lon="6.70694">
        <ele>361</ele>
        <time>2016-09-25T09:26:23.000Z</time>
      </trkpt>
      <trkpt lat="47.52741" lon="6.707">
        <ele>362</ele>
        <time>2016-09-25T09:26:24.000Z</time>
      </trkpt>
      <trkpt lat="47.52741" lon="6.70706">
        <ele>362</ele>
        <time>2016-09-25T09:26:25.000Z</time>
      </trkpt>
      <trkpt lat="47.5274" lon="6.70711">
        <ele>362</ele>
        <time>2016-09-25T09:26:26.000Z</time>
      </trkpt>
      <trkpt lat="47.52739" lon="6.70716">
        <ele>362</ele>
        <time>2016-09-25T09:26:27.000Z</time>
      </trkpt>
      <trkpt lat="47.52738" lon="6.70722">
        <ele>362</ele>
        <time>2016-09-25T09:26:28.000Z</time>
      </trkpt>
      <trkpt lat="47.52737" lon="6.70727">
        <ele>362</ele>
        <time>2016-09-25T09:26:29.000Z</time>
      </trkpt>
      <trkpt lat="47.52735" lon="6.70733">
        <ele>362</ele>
        <time>2016-09-25T09:26:30.000Z</time>
      </trkpt>
      <trkpt lat="47.52734" lon="6.70738">
        <ele>362</ele>
        <time>2016-09-25T09:26:31.000Z</time>
      </trkpt>
      <trkpt lat="47.52732" lon="6.70744">
        <ele>362</ele>
        <time>2016-09-25T09:26:32.000Z</time>
      </trkpt>
      <trkpt lat="47.5273" lon="6.70749">
        <ele>362</ele>
        <time>2016-09-25T09:26:33.000Z</time>
      </trkpt>
      <trkpt lat="47.52728" lon="6.70754">
        <ele>363</ele>
        <time>2016-09-25T09:26:34.000Z</time>
      </trkpt>
      <trkpt lat="47.52725" lon="6.70759">
        <ele>363</ele>
        <time>2016-09-25T09:26:35.000Z</time>
      </trkpt>
      <trkpt lat="47.52722" lon="6.70765">
        <ele>364</ele>
        <time>2016-09-25T09:26:36.000Z</time>
      </trkpt>
      <trkpt lat="47.52718" lon="6.70771">
        <ele>365</ele>
        <time>2016-09-25T09:26:37.000Z</time>
      </trkpt>
      <trkpt lat="47.52714" lon="6.70777">
        <ele>365</ele>
        <time>2016-09-25T09:26:38.000Z</time>
      </trkpt>
      <trkpt lat="47.52723" lon="6.70824">
        <ele>362</ele>
        <time>2016-09-25T09:26:39.000Z</time>
      </trkpt>
      <trkpt lat="47.52728" lon="6.70838">
        <ele>360</ele>
        <time>2016-09-25T09:26:40.000Z</time>
      </trkpt>
      <trkpt lat="47.52733" lon="6.70847">
        <ele>359</ele>
        <time>2016-09-25T09:26:41.000Z</time>
      </trkpt>
      <trkpt lat="47.52731" lon="6.70852">
        <ele>360</ele>
        <time>2016-09-25T09:26:42.000Z</time>
      </trkpt>
      <trkpt lat="47.52731" lon="6.70859">
        <ele>360</ele>
        <time>2016-09-25T09:26:43.000Z</time>
      </trkpt>
      <trkpt lat="47.52733" lon="6.70868">
        <ele>360</ele>
        <time>2016-09-25T09:26:44.000Z</time>
      </trkpt>
      <trkpt lat="47.52728" lon="6.70874">
        <ele>361</ele>
        <time>2016-09-25T09:26:45.000Z</time>
      </trkpt>
      <trkpt lat="47.52726" lon="6.70881">
        <ele>361</ele>
        <time>2016-09-25T09:26:46.000Z</time>
      </trkpt>
      <trkpt lat="47.52725" lon="6.70887">
        <ele>361</ele>
        <time>2016-09-25T09:26:47.000Z</time>
      </trkpt>
      <trkpt lat="47.52726" lon="6.70895">
        <ele>360</ele>
        <time>2016-09-25T09:26:48.000Z</time>
      </trkpt>
      <trkpt lat="47.52725" lon="6.709">
        <ele>360</ele>
        <time>2016-09-25T09:26:49.000Z</time>
      </trkpt>
      <trkpt lat="47.52724" lon="6.70905">
        <ele>360</ele>
        <time>2016-09-25T09:26:50.000Z</time>
      </trkpt>
      <trkpt lat="47.52723" lon="6.7091">
        <ele>360</ele>
        <time>2016-09-25T09:26:51.000Z</time>
      </trkpt>
      <trkpt lat="47.52722" lon="6.70914">
        <ele>360</ele>
        <time>2016-09-25T09:26:52.000Z</time>
      </trkpt>
      <trkpt lat="47.52721" lon="6.7092">
        <ele>360</ele>
        <time>2016-09-25T09:26:53.000Z</time>
      </trkpt>
      <trkpt lat="47.52721" lon="6.70925">
        <ele>360</ele>
        <time>2016-09-25T09:26:54.000Z</time>
      </trkpt>
      <trkpt lat="47.52721" lon="6.70931">
        <ele>360</ele>
        <time>2016-09-25T09:26:55.000Z</time>
      </trkpt>
      <trkpt lat="47.52723" lon="6.70938">
        <ele>361</ele>
        <time>2016-09-25T09:26:56.000Z</time>
      </trkpt>
      <trkpt lat="47.52731" lon="6.70957">
        <ele>360</ele>
        <time>2016-09-25T09:26:57.000Z</time>
      </trkpt>
      <trkpt lat="47.52734" lon="6.70966">
        <ele>360</ele>
        <time>2016-09-25T09:26:58.000Z</time>
      </trkpt>
      <trkpt lat="47.52735" lon="6.70972">
        <ele>359</ele>
        <time>2016-09-25T09:26:59.000Z</time>
      </trkpt>
      <trkpt lat="47.52737" lon="6.70979">
        <ele>359</ele>
        <time>2016-09-25T09:27:00.000Z</time>
      </trkpt>
      <trkpt lat="47.52736" lon="6.70988">
        <ele>358</ele>
        <time>2016-09-25T09:27:01.000Z</time>
      </trkpt>
      <trkpt lat="47.52737" lon="6.70996">
        <ele>357</ele>
        <time>2016-09-25T09:27:02.000Z</time>
      </trkpt>
      <trkpt lat="47.52738" lon="6.71002">
        <ele>356</ele>
        <time>2016-09-25T09:27:03.000Z</time>
      </trkpt>
      <trkpt lat="47.52741" lon="6.71006">
        <ele>356</ele>
        <time>2016-09-25T09:27:04.000Z</time>
      </trkpt>
      <trkpt lat="47.52741" lon="6.71012">
        <ele>357</ele>
        <time>2016-09-25T09:27:05.000Z</time>
      </trkpt>
      <trkpt lat="47.52742" lon="6.71018">
        <ele>357</ele>
        <time>2016-09-25T09:27:06.000Z</time>
      </trkpt>
      <trkpt lat="47.52743" lon="6.71023">
        <ele>358</ele>
        <time>2016-09-25T09:27:07.000Z</time>
      </trkpt>
      <trkpt lat="47.52743" lon="6.71029">
        <ele>358</ele>
        <time>2016-09-25T09:27:08.000Z</time>
      </trkpt>
      <trkpt lat="47.52745" lon="6.71033">
        <ele>359</ele>
        <time>2016-09-25T09:27:09.000Z</time>
      </trkpt>
      <trkpt lat="47.52747" lon="6.71037">
        <ele>359</ele>
        <time>2016-09-25T09:27:10.000Z</time>
      </trkpt>
      <trkpt lat="47.5275" lon="6.71039">
        <ele>359</ele>
        <time>2016-09-25T09:27:11.000Z</time>
      </trkpt>
      <trkpt lat="47.52753" lon="6.71041">
        <ele>354</ele>
        <time>2016-09-25T09:27:12.000Z</time>
      </trkpt>
      <trkpt lat="47.52755" lon="6.71044">
        <ele>354</ele>
        <time>2016-09-25T09:27:13.000Z</time>
      </trkpt>
      <trkpt lat="47.52757" lon="6.71056">
        <ele>354</ele>
        <time>2016-09-25T09:27:14.000Z</time>
      </trkpt>
      <trkpt lat="47.52758" lon="6.71062">
        <ele>354</ele>
        <time>2016-09-25T09:27:15.000Z</time>
      </trkpt>
      <trkpt lat="47.52759" lon="6.71069">
        <ele>354</ele>
        <time>2016-09-25T09:27:16.000Z</time>
      </trkpt>
      <trkpt lat="47.5276" lon="6.71076">
        <ele>354</ele>
        <time>2016-09-25T09:27:17.000Z</time>
      </trkpt>
      <trkpt lat="47.52762" lon="6.71084">
        <ele>354</ele>
        <time>2016-09-25T09:27:18.000Z</time>
      </trkpt>
      <trkpt lat="47.52763" lon="6.71092">
        <ele>354</ele>
        <time>2016-09-25T09:27:19.000Z</time>
      </trkpt>
      <trkpt lat="47.52765" lon="6.71096">
        <ele>355</ele>
        <time>2016-09-25T09:27:20.000Z</time>
      </trkpt>
      <trkpt lat="47.52767" lon="6.71102">
        <ele>355</ele>
        <time>2016-09-25T09:27:21.000Z</time>
      </trkpt>
      <trkpt lat="47.52769" lon="6.71107">
        <ele>355</ele>
        <time>2016-09-25T09:27:22.000Z</time>
      </trkpt>
      <trkpt lat="47.5277" lon="6.71112">
        <ele>355</ele>
        <time>2016-09-25T09:27:23.000Z</time>
      </trkpt>
      <trkpt lat="47.52771" lon="6.71117">
        <ele>355</ele>
        <time>2016-09-25T09:27:24.000Z</time>
      </trkpt>
      <trkpt lat="47.52775" lon="6.71124">
        <ele>355</ele>
        <time>2016-09-25T09:27:25.000Z</time>
      </trkpt>
      <trkpt lat="47.52775" lon="6.71131">
        <ele>355</ele>
        <time>2016-09-25T09:27:26.000Z</time>
      </trkpt>
      <trkpt lat="47.52776" lon="6.71137">
        <ele>355</ele>
        <time>2016-09-25T09:27:27.000Z</time>
      </trkpt>
      <trkpt lat="47.52777" lon="6.71142">
        <ele>355</ele>
        <time>2016-09-25T09:27:28.000Z</time>
      </trkpt>
      <trkpt lat="47.52783" lon="6.71149">
        <ele>355</ele>
        <time>2016-09-25T09:27:29.000Z</time>
      </trkpt>
      <trkpt lat="47.52786" lon="6.71155">
        <ele>355</ele>
        <time>2016-09-25T09:27:30.000Z</time>
      </trkpt>
      <trkpt lat="47.52788" lon="6.71162">
        <ele>355</ele>
        <time>2016-09-25T09:27:31.000Z</time>
      </trkpt>
      <trkpt lat="47.52791" lon="6.7117">
        <ele>354</ele>
        <time>2016-09-25T09:27:32.000Z</time>
      </trkpt>
      <trkpt lat="47.52792" lon="6.71177">
        <ele>354</ele>
        <time>2016-09-25T09:27:33.000Z</time>
      </trkpt>
      <trkpt lat="47.52795" lon="6.71184">
        <ele>354</ele>
        <time>2016-09-25T09:27:34.000Z</time>
      </trkpt>
      <trkpt lat="47.52798" lon="6.7119">
        <ele>354</ele>
        <time>2016-09-25T09:27:35.000Z</time>
      </trkpt>
      <trkpt lat="47.52801" lon="6.71195">
        <ele>354</ele>
        <time>2016-09-25T09:27:36.000Z</time>
      </trkpt>
      <trkpt lat="47.52807" lon="6.71202">
        <ele>353</ele>
        <time>2016-09-25T09:27:37.000Z</time>
      </trkpt>
      <trkpt lat="47.52809" lon="6.71206">
        <ele>353</ele>
        <time>2016-09-25T09:27:38.000Z</time>
      </trkpt>
      <trkpt lat="47.52811" lon="6.71208">
        <ele>353</ele>
        <time>2016-09-25T09:27:39.000Z</time>
      </trkpt>
      <trkpt lat="47.52813" lon="6.71211">
        <ele>353</ele>
        <time>2016-09-25T09:27:40.000Z</time>
      </trkpt>
      <trkpt lat="47.52815" lon="6.71216">
        <ele>353</ele>
        <time>2016-09-25T09:27:41.000Z</time>
      </trkpt>
      <trkpt lat="47.5282" lon="6.71221">
        <ele>352</ele>
        <time>2016-09-25T09:27:42.000Z</time>
      </trkpt>
      <trkpt lat="47.52824" lon="6.71225">
        <ele>352</ele>
        <time>2016-09-25T09:27:43.000Z</time>
      </trkpt>
      <trkpt lat="47.52829" lon="6.71231">
        <ele>351</ele>
        <time>2016-09-25T09:27:44.000Z</time>
      </trkpt>
      <trkpt lat="47.52833" lon="6.71237">
        <ele>350</ele>
        <time>2016-09-25T09:27:45.000Z</time>
      </trkpt>
      <trkpt lat="47.52839" lon="6.71245">
        <ele>349</ele>
        <time>2016-09-25T09:27:46.000Z</time>
      </trkpt>
      <trkpt lat="47.52843" lon="6.7125">
        <ele>349</ele>
        <time>2016-09-25T09:27:47.000Z</time>
      </trkpt>
      <trkpt lat="47.52846" lon="6.71256">
        <ele>350</ele>
        <time>2016-09-25T09:27:48.000Z</time>
      </trkpt>
      <trkpt lat="47.52849" lon="6.71262">
        <ele>351</ele>
        <time>2016-09-25T09:27:49.000Z</time>
      </trkpt>
      <trkpt lat="47.52851" lon="6.71266">
        <ele>351</ele>
        <time>2016-09-25T09:27:50.000Z</time>
      </trkpt>
      <trkpt lat="47.52854" lon="6.71272">
        <ele>351</ele>
        <time>2016-09-25T09:27:51.000Z</time>
      </trkpt>
      <trkpt lat="47.52857" lon="6.71278">
        <ele>352</ele>
        <time>2016-09-25T09:27:52.000Z</time>
      </trkpt>
      <trkpt lat="47.52859" lon="6.71283">
        <ele>352</ele>
        <time>2016-09-25T09:27:53.000Z</time>
      </trkpt>
      <trkpt lat="47.52862" lon="6.71288">
        <ele>352</ele>
        <time>2016-09-25T09:27:54.000Z</time>
      </trkpt>
      <trkpt lat="47.52865" lon="6.71295">
        <ele>352</ele>
        <time>2016-09-25T09:27:55.000Z</time>
      </trkpt>
      <trkpt lat="47.5287" lon="6.71303">
        <ele>352</ele>
        <time>2016-09-25T09:27:56.000Z</time>
      </trkpt>
      <trkpt lat="47.52876" lon="6.7131">
        <ele>352</ele>
        <time>2016-09-25T09:27:57.000Z</time>
      </trkpt>
      <trkpt lat="47.5288" lon="6.71317">
        <ele>352</ele>
        <time>2016-09-25T09:27:58.000Z</time>
      </trkpt>
      <trkpt lat="47.52885" lon="6.71323">
        <ele>352</ele>
        <time>2016-09-25T09:27:59.000Z</time>
      </trkpt>
      <trkpt lat="47.52889" lon="6.71329">
        <ele>351</ele>
        <time>2016-09-25T09:28:00.000Z</time>
      </trkpt>
      <trkpt lat="47.52893" lon="6.71335">
        <ele>354</ele>
        <time>2016-09-25T09:28:01.000Z</time>
      </trkpt>
      <trkpt lat="47.52898" lon="6.7134">
        <ele>354</ele>
        <time>2016-09-25T09:28:02.000Z</time>
      </trkpt>
      <trkpt lat="47.52903" lon="6.71345">
        <ele>353</ele>
        <time>2016-09-25T09:28:03.000Z</time>
      </trkpt>
      <trkpt lat="47.52908" lon="6.71349">
        <ele>353</ele>
        <time>2016-09-25T09:28:04.000Z</time>
      </trkpt>
      <trkpt lat="47.52912" lon="6.71354">
        <ele>354</ele>
        <time>2016-09-25T09:28:05.000Z</time>
      </trkpt>
      <trkpt lat="47.52916" lon="6.71359">
        <ele>354</ele>
        <time>2016-09-25T09:28:06.000Z</time>
      </trkpt>
      <trkpt lat="47.5292" lon="6.71363">
        <ele>352</ele>
        <time>2016-09-25T09:28:07.000Z</time>
      </trkpt>
      <trkpt lat="47.52922" lon="6.71367">
        <ele>352</ele>
        <time>2016-09-25T09:28:08.000Z</time>
      </trkpt>
      <trkpt lat="47.52925" lon="6.71372">
        <ele>352</ele>
        <time>2016-09-25T09:28:09.000Z</time>
      </trkpt>
      <trkpt lat="47.5293" lon="6.71377">
        <ele>353</ele>
        <time>2016-09-25T09:28:10.000Z</time>
      </trkpt>
      <trkpt lat="47.52934" lon="6.71382">
        <ele>353</ele>
        <time>2016-09-25T09:28:11.000Z</time>
      </trkpt>
      <trkpt lat="47.52937" lon="6.71386">
        <ele>353</ele>
        <time>2016-09-25T09:28:12.000Z</time>
      </trkpt>
      <trkpt lat="47.52941" lon="6.71391">
        <ele>354</ele>
        <time>2016-09-25T09:28:13.000Z</time>
      </trkpt>
      <trkpt lat="47.52943" lon="6.71395">
        <ele>354</ele>
        <time>2016-09-25T09:28:14.000Z</time>
      </trkpt>
      <trkpt lat="47.52946" lon="6.71401">
        <ele>354</ele>
        <time>2016-09-25T09:28:15.000Z</time>
      </trkpt>
      <trkpt lat="47.5295" lon="6.71407">
        <ele>354</ele>
        <time>2016-09-25T09:28:16.000Z</time>
      </trkpt>
      <trkpt lat="47.52953" lon="6.71411">
        <ele>354</ele>
        <time>2016-09-25T09:28:17.000Z</time>
      </trkpt>
      <trkpt lat="47.52957" lon="6.71416">
        <ele>354</ele>
        <time>2016-09-25T09:28:18.000Z</time>
      </trkpt>
      <trkpt lat="47.52961" lon="6.71421">
        <ele>356</ele>
        <time>2016-09-25T09:28:19.000Z</time>
      </trkpt>
      <trkpt lat="47.52964" lon="6.71426">
        <ele>356</ele>
        <time>2016-09-25T09:28:20.000Z</time>
      </trkpt>
      <trkpt lat="47.52967" lon="6.71432">
        <ele>356</ele>
        <time>2016-09-25T09:28:21.000Z</time>
      </trkpt>
      <trkpt lat="47.5297" lon="6.71436">
        <ele>356</ele>
        <time>2016-09-25T09:28:22.000Z</time>
      </trkpt>
      <trkpt lat="47.52973" lon="6.7144">
        <ele>356</ele>
        <time>2016-09-25T09:28:23.000Z</time>
      </trkpt>
      <trkpt lat="47.52977" lon="6.71444">
        <ele>356</ele>
        <time>2016-09-25T09:28:24.000Z</time>
      </trkpt>
      <trkpt lat="47.52982" lon="6.71448">
        <ele>356</ele>
        <time>2016-09-25T09:28:25.000Z</time>
      </trkpt>
      <trkpt lat="47.52989" lon="6.71452">
        <ele>356</ele>
        <time>2016-09-25T09:28:26.000Z</time>
      </trkpt>
      <trkpt lat="47.52994" lon="6.71455">
        <ele>356</ele>
        <time>2016-09-25T09:28:27.000Z</time>
      </trkpt>
      <trkpt lat="47.52999" lon="6.71458">
        <ele>355</ele>
        <time>2016-09-25T09:28:28.000Z</time>
      </trkpt>
      <trkpt lat="47.53004" lon="6.7146">
        <ele>353</ele>
        <time>2016-09-25T09:28:29.000Z</time>
      </trkpt>
      <trkpt lat="47.53008" lon="6.71462">
        <ele>353</ele>
        <time>2016-09-25T09:28:30.000Z</time>
      </trkpt>
      <trkpt lat="47.53012" lon="6.71463">
        <ele>353</ele>
        <time>2016-09-25T09:28:31.000Z</time>
      </trkpt>
      <trkpt lat="47.53013" lon="6.71464">
        <ele>353</ele>
        <time>2016-09-25T09:28:32.000Z</time>
      </trkpt>
      <trkpt lat="47.53014" lon="6.7147">
        <ele>353</ele>
        <time>2016-09-25T09:28:36.000Z</time>
      </trkpt>
      <trkpt lat="47.53014" lon="6.71472">
        <ele>353</ele>
        <time>2016-09-25T09:28:37.000Z</time>
      </trkpt>
      <trkpt lat="47.53015" lon="6.71471">
        <ele>353</ele>
        <time>2016-09-25T09:28:44.000Z</time>
      </trkpt>
      <trkpt lat="47.53018" lon="6.71469">
        <ele>353</ele>
        <time>2016-09-25T09:28:45.000Z</time>
      </trkpt>
      <trkpt lat="47.53022" lon="6.71468">
        <ele>353</ele>
        <time>2016-09-25T09:28:46.000Z</time>
      </trkpt>
      <trkpt lat="47.53024" lon="6.71468">
        <ele>353</ele>
        <time>2016-09-25T09:28:47.000Z</time>
      </trkpt>
      <trkpt lat="47.53028" lon="6.71466">
        <ele>353</ele>
        <time>2016-09-25T09:28:49.000Z</time>
      </trkpt>
      <trkpt lat="47.53029" lon="6.71465">
        <ele>353</ele>
        <time>2016-09-25T09:28:50.000Z</time>
      </trkpt>
      <trkpt lat="47.53025" lon="6.71466">
        <ele>353</ele>
        <time>2016-09-25T09:29:04.000Z</time>
      </trkpt>
      <trkpt lat="47.53024" lon="6.71465">
        <ele>353</ele>
        <time>2016-09-25T09:29:05.000Z</time>
      </trkpt>
      <trkpt lat="47.53028" lon="6.71465">
        <ele>353</ele>
        <time>2016-09-25T09:29:14.000Z</time>
      </trkpt>
      <trkpt lat="47.5303" lon="6.71465">
        <ele>353</ele>
        <time>2016-09-25T09:29:15.000Z</time>
      </trkpt>
      <trkpt lat="47.53034" lon="6.71463">
        <ele>354</ele>
        <time>2016-09-25T09:29:18.000Z</time>
      </trkpt>
      <trkpt lat="47.53035" lon="6.71462">
        <ele>354</ele>
        <time>2016-09-25T09:29:19.000Z</time>
      </trkpt>
      <trkpt lat="47.53036" lon="6.71459">
        <ele>354</ele>
        <time>2016-09-25T09:29:20.000Z</time>
      </trkpt>
      <trkpt lat="47.53039" lon="6.71455">
        <ele>354</ele>
        <time>2016-09-25T09:29:21.000Z</time>
      </trkpt>
      <trkpt lat="47.53042" lon="6.71452">
        <ele>354</ele>
        <time>2016-09-25T09:29:22.000Z</time>
      </trkpt>
      <trkpt lat="47.53045" lon="6.71448">
        <ele>354</ele>
        <time>2016-09-25T09:29:23.000Z</time>
      </trkpt>
      <trkpt lat="47.53048" lon="6.71445">
        <ele>354</ele>
        <time>2016-09-25T09:29:24.000Z</time>
      </trkpt>
      <trkpt lat="47.53051" lon="6.71443">
        <ele>354</ele>
        <time>2016-09-25T09:29:25.000Z</time>
      </trkpt>
      <trkpt lat="47.53054" lon="6.71443">
        <ele>354</ele>
        <time>2016-09-25T09:29:26.000Z</time>
      </trkpt>
      <trkpt lat="47.53056" lon="6.71443">
        <ele>354</ele>
        <time>2016-09-25T09:29:27.000Z</time>
      </trkpt>
      <trkpt lat="47.53059" lon="6.71447">
        <ele>354</ele>
        <time>2016-09-25T09:29:29.000Z</time>
      </trkpt>
      <trkpt lat="47.53061" lon="6.71451">
        <ele>354</ele>
        <time>2016-09-25T09:29:30.000Z</time>
      </trkpt>
      <trkpt lat="47.53064" lon="6.71454">
        <ele>354</ele>
        <time>2016-09-25T09:29:31.000Z</time>
      </trkpt>
      <trkpt lat="47.53065" lon="6.71458">
        <ele>354</ele>
        <time>2016-09-25T09:29:32.000Z</time>
      </trkpt>
      <trkpt lat="47.53068" lon="6.71462">
        <ele>354</ele>
        <time>2016-09-25T09:29:34.000Z</time>
      </trkpt>
      <trkpt lat="47.53068" lon="6.71464">
        <ele>354</ele>
        <time>2016-09-25T09:29:35.000Z</time>
      </trkpt>
      <trkpt lat="47.5307" lon="6.71468">
        <ele>354</ele>
        <time>2016-09-25T09:29:37.000Z</time>
      </trkpt>
      <trkpt lat="47.53072" lon="6.7147">
        <ele>354</ele>
        <time>2016-09-25T09:29:38.000Z</time>
      </trkpt>
      <trkpt lat="47.53074" lon="6.71475">
        <ele>354</ele>
        <time>2016-09-25T09:29:40.000Z</time>
      </trkpt>
      <trkpt lat="47.53075" lon="6.71478">
        <ele>354</ele>
        <time>2016-09-25T09:29:41.000Z</time>
      </trkpt>
      <trkpt lat="47.53077" lon="6.71483">
        <ele>354</ele>
        <time>2016-09-25T09:29:43.000Z</time>
      </trkpt>
      <trkpt lat="47.53078" lon="6.71485">
        <ele>354</ele>
        <time>2016-09-25T09:29:44.000Z</time>
      </trkpt>
      <trkpt lat="47.53079" lon="6.71489">
        <ele>353</ele>
        <time>2016-09-25T09:29:46.000Z</time>
      </trkpt>
      <trkpt lat="47.53081" lon="6.71492">
        <ele>353</ele>
        <time>2016-09-25T09:29:47.000Z</time>
      </trkpt>
      <trkpt lat="47.53082" lon="6.71495">
        <ele>353</ele>
        <time>2016-09-25T09:29:48.000Z</time>
      </trkpt>
      <trkpt lat="47.53084" lon="6.71498">
        <ele>353</ele>
        <time>2016-09-25T09:29:49.000Z</time>
      </trkpt>
      <trkpt lat="47.53085" lon="6.71501">
        <ele>353</ele>
        <time>2016-09-25T09:29:50.000Z</time>
      </trkpt>
      <trkpt lat="47.53087" lon="6.71503">
        <ele>353</ele>
        <time>2016-09-25T09:29:51.000Z</time>
      </trkpt>
      <trkpt lat="47.53089" lon="6.71506">
        <ele>353</ele>
        <time>2016-09-25T09:29:52.000Z</time>
      </trkpt>
      <trkpt lat="47.5309" lon="6.71509">
        <ele>353</ele>
        <time>2016-09-25T09:29:53.000Z</time>
      </trkpt>
      <trkpt lat="47.53094" lon="6.71512">
        <ele>354</ele>
        <time>2016-09-25T09:29:56.000Z</time>
      </trkpt>
      <trkpt lat="47.53095" lon="6.71513">
        <ele>354</ele>
        <time>2016-09-25T09:29:57.000Z</time>
      </trkpt>
      <trkpt lat="47.53095" lon="6.71518">
        <ele>354</ele>
        <time>2016-09-25T09:30:00.000Z</time>
      </trkpt>
      <trkpt lat="47.53096" lon="6.71522">
        <ele>354</ele>
        <time>2016-09-25T09:30:01.000Z</time>
      </trkpt>
      <trkpt lat="47.53098" lon="6.71528">
        <ele>353</ele>
        <time>2016-09-25T09:30:06.000Z</time>
      </trkpt>
      <trkpt lat="47.53098" lon="6.71531">
        <ele>353</ele>
        <time>2016-09-25T09:30:07.000Z</time>
      </trkpt>
      <trkpt lat="47.53098" lon="6.71535">
        <ele>353</ele>
        <time>2016-09-25T09:30:08.000Z</time>
      </trkpt>
      <trkpt lat="47.53098" lon="6.71539">
        <ele>353</ele>
        <time>2016-09-25T09:30:09.000Z</time>
      </trkpt>
      <trkpt lat="47.53095" lon="6.71543">
        <ele>353</ele>
        <time>2016-09-25T09:30:11.000Z</time>
      </trkpt>
      <trkpt lat="47.53093" lon="6.71544">
        <ele>353</ele>
        <time>2016-09-25T09:30:12.000Z</time>
      </trkpt>
      <trkpt lat="47.5309" lon="6.71546">
        <ele>353</ele>
        <time>2016-09-25T09:30:13.000Z</time>
      </trkpt>
      <trkpt lat="47.5309" lon="6.7155">
        <ele>352</ele>
        <time>2016-09-25T09:30:14.000Z</time>
      </trkpt>
      <trkpt lat="47.5309" lon="6.71556">
        <ele>352</ele>
        <time>2016-09-25T09:30:15.000Z</time>
      </trkpt>
      <trkpt lat="47.53092" lon="6.71564">
        <ele>351</ele>
        <time>2016-09-25T09:30:16.000Z</time>
      </trkpt>
      <trkpt lat="47.53093" lon="6.71571">
        <ele>350</ele>
        <time>2016-09-25T09:30:17.000Z</time>
      </trkpt>
      <trkpt lat="47.53095" lon="6.71579">
        <ele>350</ele>
        <time>2016-09-25T09:30:18.000Z</time>
      </trkpt>
      <trkpt lat="47.53097" lon="6.71586">
        <ele>348</ele>
        <time>2016-09-25T09:30:19.000Z</time>
      </trkpt>
      <trkpt lat="47.53105" lon="6.71601">
        <ele>349</ele>
        <time>2016-09-25T09:30:20.000Z</time>
      </trkpt>
      <trkpt lat="47.53109" lon="6.71607">
        <ele>350</ele>
        <time>2016-09-25T09:30:21.000Z</time>
      </trkpt>
      <trkpt lat="47.53112" lon="6.71614">
        <ele>350</ele>
        <time>2016-09-25T09:30:22.000Z</time>
      </trkpt>
      <trkpt lat="47.53118" lon="6.71623">
        <ele>350</ele>
        <time>2016-09-25T09:30:23.000Z</time>
      </trkpt>
      <trkpt lat="47.53124" lon="6.71639">
        <ele>350</ele>
        <time>2016-09-25T09:30:24.000Z</time>
      </trkpt>
      <trkpt lat="47.53129" lon="6.71649">
        <ele>350</ele>
        <time>2016-09-25T09:30:25.000Z</time>
      </trkpt>
      <trkpt lat="47.53134" lon="6.71661">
        <ele>349</ele>
        <time>2016-09-25T09:30:26.000Z</time>
      </trkpt>
      <trkpt lat="47.53139" lon="6.7167">
        <ele>348</ele>
        <time>2016-09-25T09:30:27.000Z</time>
      </trkpt>
      <trkpt lat="47.53144" lon="6.7168">
        <ele>348</ele>
        <time>2016-09-25T09:30:28.000Z</time>
      </trkpt>
      <trkpt lat="47.53146" lon="6.71686">
        <ele>348</ele>
        <time>2016-09-25T09:30:29.000Z</time>
      </trkpt>
      <trkpt lat="47.53149" lon="6.71694">
        <ele>348</ele>
        <time>2016-09-25T09:30:30.000Z</time>
      </trkpt>
      <trkpt lat="47.53154" lon="6.71703">
        <ele>348</ele>
        <time>2016-09-25T09:30:31.000Z</time>
      </trkpt>
      <trkpt lat="47.5316" lon="6.7171">
        <ele>347</ele>
        <time>2016-09-25T09:30:32.000Z</time>
      </trkpt>
      <trkpt lat="47.53165" lon="6.71719">
        <ele>347</ele>
        <time>2016-09-25T09:30:33.000Z</time>
      </trkpt>
      <trkpt lat="47.53169" lon="6.71727">
        <ele>347</ele>
        <time>2016-09-25T09:30:34.000Z</time>
      </trkpt>
      <trkpt lat="47.53173" lon="6.71735">
        <ele>347</ele>
        <time>2016-09-25T09:30:35.000Z</time>
      </trkpt>
      <trkpt lat="47.53176" lon="6.71744">
        <ele>346</ele>
        <time>2016-09-25T09:30:36.000Z</time>
      </trkpt>
      <trkpt lat="47.53181" lon="6.71751">
        <ele>345</ele>
        <time>2016-09-25T09:30:37.000Z</time>
      </trkpt>
      <trkpt lat="47.53186" lon="6.71758">
        <ele>345</ele>
        <time>2016-09-25T09:30:38.000Z</time>
      </trkpt>
      <trkpt lat="47.53191" lon="6.71765">
        <ele>345</ele>
        <time>2016-09-25T09:30:39.000Z</time>
      </trkpt>
      <trkpt lat="47.53196" lon="6.7177">
        <ele>345</ele>
        <time>2016-09-25T09:30:40.000Z</time>
      </trkpt>
      <trkpt lat="47.53203" lon="6.71775">
        <ele>345</ele>
        <time>2016-09-25T09:30:41.000Z</time>
      </trkpt>
      <trkpt lat="47.53209" lon="6.7178">
        <ele>346</ele>
        <time>2016-09-25T09:30:42.000Z</time>
      </trkpt>
      <trkpt lat="47.53216" lon="6.71784">
        <ele>346</ele>
        <time>2016-09-25T09:30:43.000Z</time>
      </trkpt>
      <trkpt lat="47.53222" lon="6.71787">
        <ele>346</ele>
        <time>2016-09-25T09:30:44.000Z</time>
      </trkpt>
      <trkpt lat="47.53227" lon="6.71791">
        <ele>346</ele>
        <time>2016-09-25T09:30:45.000Z</time>
      </trkpt>
      <trkpt lat="47.53229" lon="6.71796">
        <ele>346</ele>
        <time>2016-09-25T09:30:46.000Z</time>
      </trkpt>
      <trkpt lat="47.53229" lon="6.71803">
        <ele>346</ele>
        <time>2016-09-25T09:30:47.000Z</time>
      </trkpt>
      <trkpt lat="47.53228" lon="6.71806">
        <ele>346</ele>
        <time>2016-09-25T09:30:48.000Z</time>
      </trkpt>
      <trkpt lat="47.53227" lon="6.71811">
        <ele>346</ele>
        <time>2016-09-25T09:30:49.000Z</time>
      </trkpt>
      <trkpt lat="47.53225" lon="6.71814">
        <ele>346</ele>
        <time>2016-09-25T09:30:50.000Z</time>
      </trkpt>
      <trkpt lat="47.53224" lon="6.71817">
        <ele>346</ele>
        <time>2016-09-25T09:30:51.000Z</time>
      </trkpt>
      <trkpt lat="47.53222" lon="6.71822">
        <ele>346</ele>
        <time>2016-09-25T09:30:52.000Z</time>
      </trkpt>
      <trkpt lat="47.5322" lon="6.71826">
        <ele>346</ele>
        <time>2016-09-25T09:30:53.000Z</time>
      </trkpt>
      <trkpt lat="47.53219" lon="6.71831">
        <ele>346</ele>
        <time>2016-09-25T09:30:54.000Z</time>
      </trkpt>
      <trkpt lat="47.53218" lon="6.71836">
        <ele>347</ele>
        <time>2016-09-25T09:30:55.000Z</time>
      </trkpt>
      <trkpt lat="47.53217" lon="6.7184">
        <ele>347</ele>
        <time>2016-09-25T09:30:56.000Z</time>
      </trkpt>
      <trkpt lat="47.53216" lon="6.71844">
        <ele>347</ele>
        <time>2016-09-25T09:30:57.000Z</time>
      </trkpt>
      <trkpt lat="47.53215" lon="6.71848">
        <ele>347</ele>
        <time>2016-09-25T09:30:58.000Z</time>
      </trkpt>
      <trkpt lat="47.53214" lon="6.71852">
        <ele>347</ele>
        <time>2016-09-25T09:30:59.000Z</time>
      </trkpt>
      <trkpt lat="47.53213" lon="6.71856">
        <ele>347</ele>
        <time>2016-09-25T09:31:00.000Z</time>
      </trkpt>
      <trkpt lat="47.53213" lon="6.7186">
        <ele>347</ele>
        <time>2016-09-25T09:31:01.000Z</time>
      </trkpt>
      <trkpt lat="47.53213" lon="6.71865">
        <ele>347</ele>
        <time>2016-09-25T09:31:02.000Z</time>
      </trkpt>
      <trkpt lat="47.53213" lon="6.7187">
        <ele>347</ele>
        <time>2016-09-25T09:31:03.000Z</time>
      </trkpt>
      <trkpt lat="47.53213" lon="6.71874">
        <ele>347</ele>
        <time>2016-09-25T09:31:04.000Z</time>
      </trkpt>
      <trkpt lat="47.53212" lon="6.71879">
        <ele>347</ele>
        <time>2016-09-25T09:31:05.000Z</time>
      </trkpt>
      <trkpt lat="47.53212" lon="6.71883">
        <ele>347</ele>
        <time>2016-09-25T09:31:06.000Z</time>
      </trkpt>
      <trkpt lat="47.53211" lon="6.71887">
        <ele>347</ele>
        <time>2016-09-25T09:31:07.000Z</time>
      </trkpt>
      <trkpt lat="47.53211" lon="6.71891">
        <ele>347</ele>
        <time>2016-09-25T09:31:08.000Z</time>
      </trkpt>
      <trkpt lat="47.53211" lon="6.71896">
        <ele>348</ele>
        <time>2016-09-25T09:31:09.000Z</time>
      </trkpt>
      <trkpt lat="47.53211" lon="6.719">
        <ele>348</ele>
        <time>2016-09-25T09:31:10.000Z</time>
      </trkpt>
      <trkpt lat="47.53213" lon="6.71905">
        <ele>348</ele>
        <time>2016-09-25T09:31:11.000Z</time>
      </trkpt>
      <trkpt lat="47.53215" lon="6.71909">
        <ele>348</ele>
        <time>2016-09-25T09:31:12.000Z</time>
      </trkpt>
      <trkpt lat="47.53218" lon="6.71912">
        <ele>348</ele>
        <time>2016-09-25T09:31:13.000Z</time>
      </trkpt>
      <trkpt lat="47.53221" lon="6.71914">
        <ele>349</ele>
        <time>2016-09-25T09:31:14.000Z</time>
      </trkpt>
      <trkpt lat="47.53225" lon="6.71916">
        <ele>349</ele>
        <time>2016-09-25T09:31:15.000Z</time>
      </trkpt>
      <trkpt lat="47.53229" lon="6.71918">
        <ele>350</ele>
        <time>2016-09-25T09:31:16.000Z</time>
      </trkpt>
      <trkpt lat="47.53232" lon="6.71918">
        <ele>351</ele>
        <time>2016-09-25T09:31:17.000Z</time>
      </trkpt>
      <trkpt lat="47.53235" lon="6.71918">
        <ele>351</ele>
        <time>2016-09-25T09:31:18.000Z</time>
      </trkpt>
      <trkpt lat="47.53239" lon="6.71918">
        <ele>351</ele>
        <time>2016-09-25T09:31:19.000Z</time>
      </trkpt>
      <trkpt lat="47.53242" lon="6.71917">
        <ele>351</ele>
        <time>2016-09-25T09:31:20.000Z</time>
      </trkpt>
      <trkpt lat="47.53244" lon="6.71917">
        <ele>351</ele>
        <time>2016-09-25T09:31:21.000Z</time>
      </trkpt>
      <trkpt lat="47.53247" lon="6.71918">
        <ele>352</ele>
        <time>2016-09-25T09:31:22.000Z</time>
      </trkpt>
      <trkpt lat="47.53249" lon="6.71918">
        <ele>352</ele>
        <time>2016-09-25T09:31:23.000Z</time>
      </trkpt>
      <trkpt lat="47.53252" lon="6.7192">
        <ele>352</ele>
        <time>2016-09-25T09:31:24.000Z</time>
      </trkpt>
      <trkpt lat="47.53254" lon="6.71921">
        <ele>353</ele>
        <time>2016-09-25T09:31:25.000Z</time>
      </trkpt>
      <trkpt lat="47.53256" lon="6.71923">
        <ele>353</ele>
        <time>2016-09-25T09:31:26.000Z</time>
      </trkpt>
      <trkpt lat="47.53258" lon="6.71925">
        <ele>353</ele>
        <time>2016-09-25T09:31:27.000Z</time>
      </trkpt>
      <trkpt lat="47.5326" lon="6.71927">
        <ele>354</ele>
        <time>2016-09-25T09:31:28.000Z</time>
      </trkpt>
      <trkpt lat="47.53262" lon="6.71928">
        <ele>354</ele>
        <time>2016-09-25T09:31:29.000Z</time>
      </trkpt>
      <trkpt lat="47.53264" lon="6.71929">
        <ele>354</ele>
        <time>2016-09-25T09:31:30.000Z</time>
      </trkpt>
      <trkpt lat="47.53267" lon="6.7193">
        <ele>354</ele>
        <time>2016-09-25T09:31:31.000Z</time>
      </trkpt>
      <trkpt lat="47.53271" lon="6.71932">
        <ele>355</ele>
        <time>2016-09-25T09:31:33.000Z</time>
      </trkpt>
      <trkpt lat="47.53272" lon="6.71933">
        <ele>355</ele>
        <time>2016-09-25T09:31:34.000Z</time>
      </trkpt>
      <trkpt lat="47.53276" lon="6.71935">
        <ele>355</ele>
        <time>2016-09-25T09:31:36.000Z</time>
      </trkpt>
      <trkpt lat="47.53278" lon="6.71937">
        <ele>355</ele>
        <time>2016-09-25T09:31:37.000Z</time>
      </trkpt>
      <trkpt lat="47.53282" lon="6.7194">
        <ele>355</ele>
        <time>2016-09-25T09:31:43.000Z</time>
      </trkpt>
      <trkpt lat="47.53283" lon="6.71942">
        <ele>355</ele>
        <time>2016-09-25T09:31:44.000Z</time>
      </trkpt>
      <trkpt lat="47.53284" lon="6.71948">
        <ele>355</ele>
        <time>2016-09-25T09:31:46.000Z</time>
      </trkpt>
      <trkpt lat="47.53284" lon="6.71953">
        <ele>355</ele>
        <time>2016-09-25T09:31:47.000Z</time>
      </trkpt>
      <trkpt lat="47.53284" lon="6.71957">
        <ele>355</ele>
        <time>2016-09-25T09:31:48.000Z</time>
      </trkpt>
      <trkpt lat="47.53284" lon="6.71963">
        <ele>355</ele>
        <time>2016-09-25T09:31:49.000Z</time>
      </trkpt>
      <trkpt lat="47.53284" lon="6.71968">
        <ele>355</ele>
        <time>2016-09-25T09:31:50.000Z</time>
      </trkpt>
      <trkpt lat="47.53283" lon="6.71975">
        <ele>355</ele>
        <time>2016-09-25T09:31:51.000Z</time>
      </trkpt>
      <trkpt lat="47.53283" lon="6.71981">
        <ele>355</ele>
        <time>2016-09-25T09:31:52.000Z</time>
      </trkpt>
      <trkpt lat="47.53284" lon="6.71987">
        <ele>355</ele>
        <time>2016-09-25T09:31:53.000Z</time>
      </trkpt>
      <trkpt lat="47.53285" lon="6.71993">
        <ele>356</ele>
        <time>2016-09-25T09:31:54.000Z</time>
      </trkpt>
      <trkpt lat="47.53287" lon="6.71997">
        <ele>356</ele>
        <time>2016-09-25T09:31:55.000Z</time>
      </trkpt>
      <trkpt lat="47.53289" lon="6.72002">
        <ele>356</ele>
        <time>2016-09-25T09:31:56.000Z</time>
      </trkpt>
      <trkpt lat="47.53292" lon="6.72007">
        <ele>356</ele>
        <time>2016-09-25T09:31:57.000Z</time>
      </trkpt>
      <trkpt lat="47.53296" lon="6.72011">
        <ele>356</ele>
        <time>2016-09-25T09:31:58.000Z</time>
      </trkpt>
      <trkpt lat="47.533" lon="6.72015">
        <ele>356</ele>
        <time>2016-09-25T09:31:59.000Z</time>
      </trkpt>
      <trkpt lat="47.53304" lon="6.72019">
        <ele>356</ele>
        <time>2016-09-25T09:32:00.000Z</time>
      </trkpt>
      <trkpt lat="47.53312" lon="6.72024">
        <ele>357</ele>
        <time>2016-09-25T09:32:01.000Z</time>
      </trkpt>
      <trkpt lat="47.53316" lon="6.72029">
        <ele>357</ele>
        <time>2016-09-25T09:32:02.000Z</time>
      </trkpt>
      <trkpt lat="47.5332" lon="6.72034">
        <ele>357</ele>
        <time>2016-09-25T09:32:03.000Z</time>
      </trkpt>
      <trkpt lat="47.53325" lon="6.72039">
        <ele>357</ele>
        <time>2016-09-25T09:32:04.000Z</time>
      </trkpt>
      <trkpt lat="47.5333" lon="6.72043">
        <ele>357</ele>
        <time>2016-09-25T09:32:05.000Z</time>
      </trkpt>
      <trkpt lat="47.53334" lon="6.72048">
        <ele>358</ele>
        <time>2016-09-25T09:32:06.000Z</time>
      </trkpt>
      <trkpt lat="47.53338" lon="6.72053">
        <ele>358</ele>
        <time>2016-09-25T09:32:07.000Z</time>
      </trkpt>
      <trkpt lat="47.53344" lon="6.72059">
        <ele>358</ele>
        <time>2016-09-25T09:32:08.000Z</time>
      </trkpt>
      <trkpt lat="47.53348" lon="6.72065">
        <ele>358</ele>
        <time>2016-09-25T09:32:09.000Z</time>
      </trkpt>
      <trkpt lat="47.53353" lon="6.72072">
        <ele>358</ele>
        <time>2016-09-25T09:32:10.000Z</time>
      </trkpt>
      <trkpt lat="47.53357" lon="6.72081">
        <ele>358</ele>
        <time>2016-09-25T09:32:11.000Z</time>
      </trkpt>
      <trkpt lat="47.5336" lon="6.72091">
        <ele>357</ele>
        <time>2016-09-25T09:32:12.000Z</time>
      </trkpt>
      <trkpt lat="47.5336" lon="6.72101">
        <ele>356</ele>
        <time>2016-09-25T09:32:13.000Z</time>
      </trkpt>
      <trkpt lat="47.53359" lon="6.72112">
        <ele>356</ele>
        <time>2016-09-25T09:32:14.000Z</time>
      </trkpt>
      <trkpt lat="47.53359" lon="6.72122">
        <ele>356</ele>
        <time>2016-09-25T09:32:15.000Z</time>
      </trkpt>
      <trkpt lat="47.53358" lon="6.72132">
        <ele>356</ele>
        <time>2016-09-25T09:32:16.000Z</time>
      </trkpt>
      <trkpt lat="47.53356" lon="6.72142">
        <ele>356</ele>
        <time>2016-09-25T09:32:17.000Z</time>
      </trkpt>
      <trkpt lat="47.53354" lon="6.7215">
        <ele>356</ele>
        <time>2016-09-25T09:32:18.000Z</time>
      </trkpt>
      <trkpt lat="47.53353" lon="6.72159">
        <ele>355</ele>
        <time>2016-09-25T09:32:19.000Z</time>
      </trkpt>
      <trkpt lat="47.53351" lon="6.72167">
        <ele>355</ele>
        <time>2016-09-25T09:32:20.000Z</time>
      </trkpt>
      <trkpt lat="47.53348" lon="6.72175">
        <ele>355</ele>
        <time>2016-09-25T09:32:21.000Z</time>
      </trkpt>
      <trkpt lat="47.53346" lon="6.72183">
        <ele>355</ele>
        <time>2016-09-25T09:32:22.000Z</time>
      </trkpt>
      <trkpt lat="47.53343" lon="6.7219">
        <ele>355</ele>
        <time>2016-09-25T09:32:23.000Z</time>
      </trkpt>
      <trkpt lat="47.53338" lon="6.72197">
        <ele>355</ele>
        <time>2016-09-25T09:32:24.000Z</time>
      </trkpt>
      <trkpt lat="47.53332" lon="6.72201">
        <ele>353</ele>
        <time>2016-09-25T09:32:25.000Z</time>
      </trkpt>
      <trkpt lat="47.53328" lon="6.72206">
        <ele>353</ele>
        <time>2016-09-25T09:32:26.000Z</time>
      </trkpt>
      <trkpt lat="47.53324" lon="6.72209">
        <ele>353</ele>
        <time>2016-09-25T09:32:27.000Z</time>
      </trkpt>
      <trkpt lat="47.53321" lon="6.72215">
        <ele>353</ele>
        <time>2016-09-25T09:32:28.000Z</time>
      </trkpt>
      <trkpt lat="47.53319" lon="6.72221">
        <ele>353</ele>
        <time>2016-09-25T09:32:29.000Z</time>
      </trkpt>
      <trkpt lat="47.53317" lon="6.72231">
        <ele>353</ele>
        <time>2016-09-25T09:32:30.000Z</time>
      </trkpt>
      <trkpt lat="47.53315" lon="6.72238">
        <ele>353</ele>
        <time>2016-09-25T09:32:31.000Z</time>
      </trkpt>
      <trkpt lat="47.53312" lon="6.72243">
        <ele>353</ele>
        <time>2016-09-25T09:32:32.000Z</time>
      </trkpt>
      <trkpt lat="47.5331" lon="6.7225">
        <ele>353</ele>
        <time>2016-09-25T09:32:33.000Z</time>
      </trkpt>
      <trkpt lat="47.53308" lon="6.72256">
        <ele>354</ele>
        <time>2016-09-25T09:32:34.000Z</time>
      </trkpt>
      <trkpt lat="47.53307" lon="6.72264">
        <ele>354</ele>
        <time>2016-09-25T09:32:35.000Z</time>
      </trkpt>
      <trkpt lat="47.53306" lon="6.72271">
        <ele>354</ele>
        <time>2016-09-25T09:32:36.000Z</time>
      </trkpt>
      <trkpt lat="47.53306" lon="6.72279">
        <ele>354</ele>
        <time>2016-09-25T09:32:37.000Z</time>
      </trkpt>
      <trkpt lat="47.53307" lon="6.72288">
        <ele>355</ele>
        <time>2016-09-25T09:32:38.000Z</time>
      </trkpt>
      <trkpt lat="47.53307" lon="6.72296">
        <ele>355</ele>
        <time>2016-09-25T09:32:39.000Z</time>
      </trkpt>
      <trkpt lat="47.53306" lon="6.72304">
        <ele>355</ele>
        <time>2016-09-25T09:32:40.000Z</time>
      </trkpt>
      <trkpt lat="47.53307" lon="6.72313">
        <ele>355</ele>
        <time>2016-09-25T09:32:41.000Z</time>
      </trkpt>
      <trkpt lat="47.53308" lon="6.72321">
        <ele>355</ele>
        <time>2016-09-25T09:32:42.000Z</time>
      </trkpt>
      <trkpt lat="47.53309" lon="6.72329">
        <ele>355</ele>
        <time>2016-09-25T09:32:43.000Z</time>
      </trkpt>
      <trkpt lat="47.5331" lon="6.72337">
        <ele>355</ele>
        <time>2016-09-25T09:32:44.000Z</time>
      </trkpt>
      <trkpt lat="47.53312" lon="6.72346">
        <ele>355</ele>
        <time>2016-09-25T09:32:45.000Z</time>
      </trkpt>
      <trkpt lat="47.53313" lon="6.72355">
        <ele>355</ele>
        <time>2016-09-25T09:32:46.000Z</time>
      </trkpt>
      <trkpt lat="47.53316" lon="6.72366">
        <ele>355</ele>
        <time>2016-09-25T09:32:47.000Z</time>
      </trkpt>
      <trkpt lat="47.53317" lon="6.72375">
        <ele>355</ele>
        <time>2016-09-25T09:32:48.000Z</time>
      </trkpt>
      <trkpt lat="47.53316" lon="6.72387">
        <ele>355</ele>
        <time>2016-09-25T09:32:49.000Z</time>
      </trkpt>
      <trkpt lat="47.53316" lon="6.72398">
        <ele>355</ele>
        <time>2016-09-25T09:32:50.000Z</time>
      </trkpt>
      <trkpt lat="47.53315" lon="6.72408">
        <ele>355</ele>
        <time>2016-09-25T09:32:51.000Z</time>
      </trkpt>
      <trkpt lat="47.53314" lon="6.72418">
        <ele>354</ele>
        <time>2016-09-25T09:32:52.000Z</time>
      </trkpt>
      <trkpt lat="47.53313" lon="6.72429">
        <ele>353</ele>
        <time>2016-09-25T09:32:53.000Z</time>
      </trkpt>
      <trkpt lat="47.53311" lon="6.7244">
        <ele>353</ele>
        <time>2016-09-25T09:32:54.000Z</time>
      </trkpt>
      <trkpt lat="47.5331" lon="6.72449">
        <ele>353</ele>
        <time>2016-09-25T09:32:55.000Z</time>
      </trkpt>
      <trkpt lat="47.53311" lon="6.72459">
        <ele>352</ele>
        <time>2016-09-25T09:32:56.000Z</time>
      </trkpt>
      <trkpt lat="47.53317" lon="6.7247">
        <ele>352</ele>
        <time>2016-09-25T09:32:57.000Z</time>
      </trkpt>
      <trkpt lat="47.53323" lon="6.7248">
        <ele>352</ele>
        <time>2016-09-25T09:32:58.000Z</time>
      </trkpt>
      <trkpt lat="47.53329" lon="6.72486">
        <ele>351</ele>
        <time>2016-09-25T09:32:59.000Z</time>
      </trkpt>
      <trkpt lat="47.53337" lon="6.72491">
        <ele>350</ele>
        <time>2016-09-25T09:33:00.000Z</time>
      </trkpt>
      <trkpt lat="47.53344" lon="6.72496">
        <ele>350</ele>
        <time>2016-09-25T09:33:01.000Z</time>
      </trkpt>
      <trkpt lat="47.53351" lon="6.72499">
        <ele>351</ele>
        <time>2016-09-25T09:33:02.000Z</time>
      </trkpt>
      <trkpt lat="47.53357" lon="6.725">
        <ele>351</ele>
        <time>2016-09-25T09:33:03.000Z</time>
      </trkpt>
      <trkpt lat="47.53365" lon="6.725">
        <ele>347</ele>
        <time>2016-09-25T09:33:04.000Z</time>
      </trkpt>
      <trkpt lat="47.53372" lon="6.72501">
        <ele>347</ele>
        <time>2016-09-25T09:33:05.000Z</time>
      </trkpt>
      <trkpt lat="47.53379" lon="6.72502">
        <ele>347</ele>
        <time>2016-09-25T09:33:06.000Z</time>
      </trkpt>
      <trkpt lat="47.53386" lon="6.72504">
        <ele>346</ele>
        <time>2016-09-25T09:33:07.000Z</time>
      </trkpt>
      <trkpt lat="47.53394" lon="6.72506">
        <ele>346</ele>
        <time>2016-09-25T09:33:08.000Z</time>
      </trkpt>
      <trkpt lat="47.53402" lon="6.7251">
        <ele>346</ele>
        <time>2016-09-25T09:33:09.000Z</time>
      </trkpt>
      <trkpt lat="47.53409" lon="6.72516">
        <ele>346</ele>
        <time>2016-09-25T09:33:10.000Z</time>
      </trkpt>
      <trkpt lat="47.53417" lon="6.72522">
        <ele>346</ele>
        <time>2016-09-25T09:33:11.000Z</time>
      </trkpt>
      <trkpt lat="47.53423" lon="6.72529">
        <ele>346</ele>
        <time>2016-09-25T09:33:12.000Z</time>
      </trkpt>
      <trkpt lat="47.53429" lon="6.72537">
        <ele>346</ele>
        <time>2016-09-25T09:33:13.000Z</time>
      </trkpt>
      <trkpt lat="47.53434" lon="6.72546">
        <ele>345</ele>
        <time>2016-09-25T09:33:14.000Z</time>
      </trkpt>
      <trkpt lat="47.53438" lon="6.72554">
        <ele>345</ele>
        <time>2016-09-25T09:33:15.000Z</time>
      </trkpt>
      <trkpt lat="47.53442" lon="6.72563">
        <ele>345</ele>
        <time>2016-09-25T09:33:16.000Z</time>
      </trkpt>
      <trkpt lat="47.53445" lon="6.72571">
        <ele>345</ele>
        <time>2016-09-25T09:33:17.000Z</time>
      </trkpt>
      <trkpt lat="47.53449" lon="6.72578">
        <ele>344</ele>
        <time>2016-09-25T09:33:18.000Z</time>
      </trkpt>
      <trkpt lat="47.53452" lon="6.72587">
        <ele>343</ele>
        <time>2016-09-25T09:33:19.000Z</time>
      </trkpt>
      <trkpt lat="47.53455" lon="6.72595">
        <ele>343</ele>
        <time>2016-09-25T09:33:20.000Z</time>
      </trkpt>
      <trkpt lat="47.53458" lon="6.72602">
        <ele>343</ele>
        <time>2016-09-25T09:33:21.000Z</time>
      </trkpt>
      <trkpt lat="47.53461" lon="6.72609">
        <ele>343</ele>
        <time>2016-09-25T09:33:22.000Z</time>
      </trkpt>
      <trkpt lat="47.53463" lon="6.72616">
        <ele>343</ele>
        <time>2016-09-25T09:33:23.000Z</time>
      </trkpt>
      <trkpt lat="47.53467" lon="6.72623">
        <ele>343</ele>
        <time>2016-09-25T09:33:24.000Z</time>
      </trkpt>
      <trkpt lat="47.53469" lon="6.72629">
        <ele>344</ele>
        <time>2016-09-25T09:33:25.000Z</time>
      </trkpt>
      <trkpt lat="47.53471" lon="6.72635">
        <ele>344</ele>
        <time>2016-09-25T09:33:26.000Z</time>
      </trkpt>
      <trkpt lat="47.53473" lon="6.7264">
        <ele>344</ele>
        <time>2016-09-25T09:33:27.000Z</time>
      </trkpt>
      <trkpt lat="47.53476" lon="6.72645">
        <ele>344</ele>
        <time>2016-09-25T09:33:28.000Z</time>
      </trkpt>
      <trkpt lat="47.53478" lon="6.7265">
        <ele>344</ele>
        <time>2016-09-25T09:33:29.000Z</time>
      </trkpt>
      <trkpt lat="47.5348" lon="6.72654">
        <ele>344</ele>
        <time>2016-09-25T09:33:30.000Z</time>
      </trkpt>
      <trkpt lat="47.53481" lon="6.72658">
        <ele>344</ele>
        <time>2016-09-25T09:33:31.000Z</time>
      </trkpt>
      <trkpt lat="47.53482" lon="6.72664">
        <ele>344</ele>
        <time>2016-09-25T09:33:32.000Z</time>
      </trkpt>
      <trkpt lat="47.53483" lon="6.72669">
        <ele>346</ele>
        <time>2016-09-25T09:33:33.000Z</time>
      </trkpt>
      <trkpt lat="47.53484" lon="6.72673">
        <ele>346</ele>
        <time>2016-09-25T09:33:34.000Z</time>
      </trkpt>
      <trkpt lat="47.53485" lon="6.72678">
        <ele>346</ele>
        <time>2016-09-25T09:33:35.000Z</time>
      </trkpt>
      <trkpt lat="47.53486" lon="6.72683">
        <ele>346</ele>
        <time>2016-09-25T09:33:36.000Z</time>
      </trkpt>
      <trkpt lat="47.53487" lon="6.72687">
        <ele>347</ele>
        <time>2016-09-25T09:33:37.000Z</time>
      </trkpt>
      <trkpt lat="47.53488" lon="6.72692">
        <ele>347</ele>
        <time>2016-09-25T09:33:38.000Z</time>
      </trkpt>
      <trkpt lat="47.5349" lon="6.72696">
        <ele>347</ele>
        <time>2016-09-25T09:33:39.000Z</time>
      </trkpt>
      <trkpt lat="47.53492" lon="6.727">
        <ele>347</ele>
        <time>2016-09-25T09:33:40.000Z</time>
      </trkpt>
      <trkpt lat="47.53493" lon="6.72705">
        <ele>347</ele>
        <time>2016-09-25T09:33:41.000Z</time>
      </trkpt>
      <trkpt lat="47.53494" lon="6.72709">
        <ele>348</ele>
        <time>2016-09-25T09:33:42.000Z</time>
      </trkpt>
      <trkpt lat="47.53494" lon="6.72714">
        <ele>348</ele>
        <time>2016-09-25T09:33:43.000Z</time>
      </trkpt>
      <trkpt lat="47.53495" lon="6.72718">
        <ele>348</ele>
        <time>2016-09-25T09:33:44.000Z</time>
      </trkpt>
      <trkpt lat="47.53494" lon="6.72723">
        <ele>348</ele>
        <time>2016-09-25T09:33:45.000Z</time>
      </trkpt>
      <trkpt lat="47.53494" lon="6.72727">
        <ele>349</ele>
        <time>2016-09-25T09:33:46.000Z</time>
      </trkpt>
      <trkpt lat="47.53494" lon="6.72731">
        <ele>349</ele>
        <time>2016-09-25T09:33:47.000Z</time>
      </trkpt>
      <trkpt lat="47.53495" lon="6.72735">
        <ele>349</ele>
        <time>2016-09-25T09:33:48.000Z</time>
      </trkpt>
      <trkpt lat="47.53495" lon="6.72738">
        <ele>350</ele>
        <time>2016-09-25T09:33:49.000Z</time>
      </trkpt>
      <trkpt lat="47.53496" lon="6.72742">
        <ele>350</ele>
        <time>2016-09-25T09:33:50.000Z</time>
      </trkpt>
      <trkpt lat="47.53497" lon="6.72746">
        <ele>350</ele>
        <time>2016-09-25T09:33:51.000Z</time>
      </trkpt>
      <trkpt lat="47.53497" lon="6.72751">
        <ele>351</ele>
        <time>2016-09-25T09:33:52.000Z</time>
      </trkpt>
      <trkpt lat="47.53498" lon="6.72755">
        <ele>351</ele>
        <time>2016-09-25T09:33:53.000Z</time>
      </trkpt>
      <trkpt lat="47.53498" lon="6.7276">
        <ele>352</ele>
        <time>2016-09-25T09:33:54.000Z</time>
      </trkpt>
      <trkpt lat="47.53498" lon="6.72764">
        <ele>352</ele>
        <time>2016-09-25T09:33:55.000Z</time>
      </trkpt>
      <trkpt lat="47.53498" lon="6.72768">
        <ele>352</ele>
        <time>2016-09-25T09:33:56.000Z</time>
      </trkpt>
      <trkpt lat="47.53498" lon="6.72774">
        <ele>352</ele>
        <time>2016-09-25T09:33:58.000Z</time>
      </trkpt>
      <trkpt lat="47.53498" lon="6.72777">
        <ele>352</ele>
        <time>2016-09-25T09:33:59.000Z</time>
      </trkpt>
      <trkpt lat="47.53499" lon="6.72783">
        <ele>353</ele>
        <time>2016-09-25T09:34:01.000Z</time>
      </trkpt>
      <trkpt lat="47.53499" lon="6.72786">
        <ele>353</ele>
        <time>2016-09-25T09:34:02.000Z</time>
      </trkpt>
      <trkpt lat="47.535" lon="6.72789">
        <ele>356</ele>
        <time>2016-09-25T09:34:03.000Z</time>
      </trkpt>
      <trkpt lat="47.53501" lon="6.72793">
        <ele>356</ele>
        <time>2016-09-25T09:34:04.000Z</time>
      </trkpt>
      <trkpt lat="47.53502" lon="6.72797">
        <ele>356</ele>
        <time>2016-09-25T09:34:05.000Z</time>
      </trkpt>
      <trkpt lat="47.53503" lon="6.72801">
        <ele>356</ele>
        <time>2016-09-25T09:34:06.000Z</time>
      </trkpt>
      <trkpt lat="47.53504" lon="6.72805">
        <ele>356</ele>
        <time>2016-09-25T09:34:07.000Z</time>
      </trkpt>
      <trkpt lat="47.53505" lon="6.7281">
        <ele>356</ele>
        <time>2016-09-25T09:34:08.000Z</time>
      </trkpt>
      <trkpt lat="47.53506" lon="6.72814">
        <ele>356</ele>
        <time>2016-09-25T09:34:09.000Z</time>
      </trkpt>
      <trkpt lat="47.53507" lon="6.72818">
        <ele>356</ele>
        <time>2016-09-25T09:34:10.000Z</time>
      </trkpt>
      <trkpt lat="47.53508" lon="6.72823">
        <ele>356</ele>
        <time>2016-09-25T09:34:11.000Z</time>
      </trkpt>
      <trkpt lat="47.53509" lon="6.72828">
        <ele>355</ele>
        <time>2016-09-25T09:34:12.000Z</time>
      </trkpt>
      <trkpt lat="47.5351" lon="6.72833">
        <ele>355</ele>
        <time>2016-09-25T09:34:13.000Z</time>
      </trkpt>
      <trkpt lat="47.53511" lon="6.72839">
        <ele>357</ele>
        <time>2016-09-25T09:34:14.000Z</time>
      </trkpt>
      <trkpt lat="47.53511" lon="6.72844">
        <ele>357</ele>
        <time>2016-09-25T09:34:15.000Z</time>
      </trkpt>
      <trkpt lat="47.53512" lon="6.72849">
        <ele>358</ele>
        <time>2016-09-25T09:34:16.000Z</time>
      </trkpt>
      <trkpt lat="47.53513" lon="6.72855">
        <ele>358</ele>
        <time>2016-09-25T09:34:17.000Z</time>
      </trkpt>
      <trkpt lat="47.53513" lon="6.7286">
        <ele>359</ele>
        <time>2016-09-25T09:34:18.000Z</time>
      </trkpt>
      <trkpt lat="47.53514" lon="6.72866">
        <ele>359</ele>
        <time>2016-09-25T09:34:19.000Z</time>
      </trkpt>
      <trkpt lat="47.53515" lon="6.72872">
        <ele>359</ele>
        <time>2016-09-25T09:34:20.000Z</time>
      </trkpt>
      <trkpt lat="47.53517" lon="6.72878">
        <ele>360</ele>
        <time>2016-09-25T09:34:21.000Z</time>
      </trkpt>
      <trkpt lat="47.53518" lon="6.72884">
        <ele>360</ele>
        <time>2016-09-25T09:34:22.000Z</time>
      </trkpt>
      <trkpt lat="47.53519" lon="6.7289">
        <ele>360</ele>
        <time>2016-09-25T09:34:23.000Z</time>
      </trkpt>
      <trkpt lat="47.53521" lon="6.72896">
        <ele>360</ele>
        <time>2016-09-25T09:34:24.000Z</time>
      </trkpt>
      <trkpt lat="47.53522" lon="6.72901">
        <ele>360</ele>
        <time>2016-09-25T09:34:25.000Z</time>
      </trkpt>
      <trkpt lat="47.53523" lon="6.72907">
        <ele>360</ele>
        <time>2016-09-25T09:34:26.000Z</time>
      </trkpt>
      <trkpt lat="47.53524" lon="6.72913">
        <ele>360</ele>
        <time>2016-09-25T09:34:27.000Z</time>
      </trkpt>
      <trkpt lat="47.53525" lon="6.72919">
        <ele>361</ele>
        <time>2016-09-25T09:34:28.000Z</time>
      </trkpt>
      <trkpt lat="47.53526" lon="6.72924">
        <ele>361</ele>
        <time>2016-09-25T09:34:29.000Z</time>
      </trkpt>
      <trkpt lat="47.53527" lon="6.7293">
        <ele>361</ele>
        <time>2016-09-25T09:34:30.000Z</time>
      </trkpt>
      <trkpt lat="47.53528" lon="6.72935">
        <ele>362</ele>
        <time>2016-09-25T09:34:31.000Z</time>
      </trkpt>
      <trkpt lat="47.53529" lon="6.72941">
        <ele>362</ele>
        <time>2016-09-25T09:34:32.000Z</time>
      </trkpt>
      <trkpt lat="47.53531" lon="6.72946">
        <ele>362</ele>
        <time>2016-09-25T09:34:33.000Z</time>
      </trkpt>
      <trkpt lat="47.53532" lon="6.72951">
        <ele>362</ele>
        <time>2016-09-25T09:34:34.000Z</time>
      </trkpt>
      <trkpt lat="47.53532" lon="6.72956">
        <ele>362</ele>
        <time>2016-09-25T09:34:35.000Z</time>
      </trkpt>
      <trkpt lat="47.53533" lon="6.72961">
        <ele>363</ele>
        <time>2016-09-25T09:34:36.000Z</time>
      </trkpt>
      <trkpt lat="47.53534" lon="6.72966">
        <ele>363</ele>
        <time>2016-09-25T09:34:37.000Z</time>
      </trkpt>
      <trkpt lat="47.53535" lon="6.72971">
        <ele>363</ele>
        <time>2016-09-25T09:34:38.000Z</time>
      </trkpt>
      <trkpt lat="47.53536" lon="6.72976">
        <ele>363</ele>
        <time>2016-09-25T09:34:39.000Z</time>
      </trkpt>
      <trkpt lat="47.53538" lon="6.72981">
        <ele>363</ele>
        <time>2016-09-25T09:34:40.000Z</time>
      </trkpt>
      <trkpt lat="47.53539" lon="6.72986">
        <ele>363</ele>
        <time>2016-09-25T09:34:41.000Z</time>
      </trkpt>
      <trkpt lat="47.53541" lon="6.7299">
        <ele>363</ele>
        <time>2016-09-25T09:34:42.000Z</time>
      </trkpt>
      <trkpt lat="47.53542" lon="6.72995">
        <ele>364</ele>
        <time>2016-09-25T09:34:43.000Z</time>
      </trkpt>
      <trkpt lat="47.53544" lon="6.73">
        <ele>364</ele>
        <time>2016-09-25T09:34:44.000Z</time>
      </trkpt>
      <trkpt lat="47.53546" lon="6.73005">
        <ele>365</ele>
        <time>2016-09-25T09:34:45.000Z</time>
      </trkpt>
      <trkpt lat="47.53547" lon="6.73009">
        <ele>365</ele>
        <time>2016-09-25T09:34:46.000Z</time>
      </trkpt>
      <trkpt lat="47.53548" lon="6.73014">
        <ele>365</ele>
        <time>2016-09-25T09:34:47.000Z</time>
      </trkpt>
      <trkpt lat="47.53548" lon="6.73019">
        <ele>365</ele>
        <time>2016-09-25T09:34:48.000Z</time>
      </trkpt>
      <trkpt lat="47.53549" lon="6.73024">
        <ele>365</ele>
        <time>2016-09-25T09:34:49.000Z</time>
      </trkpt>
      <trkpt lat="47.5355" lon="6.73029">
        <ele>366</ele>
        <time>2016-09-25T09:34:50.000Z</time>
      </trkpt>
      <trkpt lat="47.5355" lon="6.73034">
        <ele>366</ele>
        <time>2016-09-25T09:34:51.000Z</time>
      </trkpt>
      <trkpt lat="47.53551" lon="6.73039">
        <ele>366</ele>
        <time>2016-09-25T09:34:52.000Z</time>
      </trkpt>
      <trkpt lat="47.53551" lon="6.73043">
        <ele>366</ele>
        <time>2016-09-25T09:34:53.000Z</time>
      </trkpt>
      <trkpt lat="47.53551" lon="6.73048">
        <ele>366</ele>
        <time>2016-09-25T09:34:54.000Z</time>
      </trkpt>
      <trkpt lat="47.53551" lon="6.73053">
        <ele>366</ele>
        <time>2016-09-25T09:34:55.000Z</time>
      </trkpt>
      <trkpt lat="47.53552" lon="6.73058">
        <ele>366</ele>
        <time>2016-09-25T09:34:56.000Z</time>
      </trkpt>
      <trkpt lat="47.53553" lon="6.73063">
        <ele>366</ele>
        <time>2016-09-25T09:34:57.000Z</time>
      </trkpt>
      <trkpt lat="47.53553" lon="6.73068">
        <ele>366</ele>
        <time>2016-09-25T09:34:58.000Z</time>
      </trkpt>
      <trkpt lat="47.53553" lon="6.73073">
        <ele>366</ele>
        <time>2016-09-25T09:34:59.000Z</time>
      </trkpt>
      <trkpt lat="47.53554" lon="6.73078">
        <ele>367</ele>
        <time>2016-09-25T09:35:00.000Z</time>
      </trkpt>
      <trkpt lat="47.53554" lon="6.73083">
        <ele>367</ele>
        <time>2016-09-25T09:35:01.000Z</time>
      </trkpt>
      <trkpt lat="47.53555" lon="6.73088">
        <ele>368</ele>
        <time>2016-09-25T09:35:02.000Z</time>
      </trkpt>
      <trkpt lat="47.53555" lon="6.73095">
        <ele>368</ele>
        <time>2016-09-25T09:35:03.000Z</time>
      </trkpt>
      <trkpt lat="47.53556" lon="6.731">
        <ele>368</ele>
        <time>2016-09-25T09:35:04.000Z</time>
      </trkpt>
      <trkpt lat="47.53557" lon="6.73106">
        <ele>368</ele>
        <time>2016-09-25T09:35:05.000Z</time>
      </trkpt>
      <trkpt lat="47.53557" lon="6.7311">
        <ele>368</ele>
        <time>2016-09-25T09:35:06.000Z</time>
      </trkpt>
      <trkpt lat="47.53558" lon="6.73115">
        <ele>368</ele>
        <time>2016-09-25T09:35:07.000Z</time>
      </trkpt>
      <trkpt lat="47.53558" lon="6.73121">
        <ele>368</ele>
        <time>2016-09-25T09:35:08.000Z</time>
      </trkpt>
      <trkpt lat="47.53558" lon="6.73126">
        <ele>368</ele>
        <time>2016-09-25T09:35:09.000Z</time>
      </trkpt>
      <trkpt lat="47.53559" lon="6.73131">
        <ele>368</ele>
        <time>2016-09-25T09:35:10.000Z</time>
      </trkpt>
      <trkpt lat="47.53558" lon="6.73136">
        <ele>368</ele>
        <time>2016-09-25T09:35:11.000Z</time>
      </trkpt>
      <trkpt lat="47.53558" lon="6.7314">
        <ele>368</ele>
        <time>2016-09-25T09:35:12.000Z</time>
      </trkpt>
      <trkpt lat="47.53558" lon="6.73145">
        <ele>368</ele>
        <time>2016-09-25T09:35:13.000Z</time>
      </trkpt>
      <trkpt lat="47.53558" lon="6.7315">
        <ele>369</ele>
        <time>2016-09-25T09:35:14.000Z</time>
      </trkpt>
      <trkpt lat="47.53558" lon="6.73155">
        <ele>369</ele>
        <time>2016-09-25T09:35:15.000Z</time>
      </trkpt>
      <trkpt lat="47.53558" lon="6.7316">
        <ele>369</ele>
        <time>2016-09-25T09:35:16.000Z</time>
      </trkpt>
      <trkpt lat="47.53558" lon="6.73165">
        <ele>369</ele>
        <time>2016-09-25T09:35:17.000Z</time>
      </trkpt>
      <trkpt lat="47.53558" lon="6.7317">
        <ele>370</ele>
        <time>2016-09-25T09:35:18.000Z</time>
      </trkpt>
      <trkpt lat="47.53558" lon="6.73176">
        <ele>370</ele>
        <time>2016-09-25T09:35:19.000Z</time>
      </trkpt>
      <trkpt lat="47.53558" lon="6.73181">
        <ele>370</ele>
        <time>2016-09-25T09:35:20.000Z</time>
      </trkpt>
      <trkpt lat="47.53558" lon="6.73186">
        <ele>370</ele>
        <time>2016-09-25T09:35:21.000Z</time>
      </trkpt>
      <trkpt lat="47.53558" lon="6.73191">
        <ele>370</ele>
        <time>2016-09-25T09:35:22.000Z</time>
      </trkpt>
      <trkpt lat="47.53558" lon="6.73197">
        <ele>370</ele>
        <time>2016-09-25T09:35:23.000Z</time>
      </trkpt>
      <trkpt lat="47.53559" lon="6.73202">
        <ele>370</ele>
        <time>2016-09-25T09:35:24.000Z</time>
      </trkpt>
      <trkpt lat="47.53559" lon="6.73207">
        <ele>370</ele>
        <time>2016-09-25T09:35:25.000Z</time>
      </trkpt>
      <trkpt lat="47.53559" lon="6.73212">
        <ele>370</ele>
        <time>2016-09-25T09:35:26.000Z</time>
      </trkpt>
      <trkpt lat="47.53562" lon="6.73217">
        <ele>370</ele>
        <time>2016-09-25T09:35:27.000Z</time>
      </trkpt>
      <trkpt lat="47.53561" lon="6.73222">
        <ele>370</ele>
        <time>2016-09-25T09:35:28.000Z</time>
      </trkpt>
      <trkpt lat="47.53561" lon="6.73227">
        <ele>370</ele>
        <time>2016-09-25T09:35:29.000Z</time>
      </trkpt>
      <trkpt lat="47.53561" lon="6.73233">
        <ele>371</ele>
        <time>2016-09-25T09:35:30.000Z</time>
      </trkpt>
      <trkpt lat="47.53561" lon="6.73238">
        <ele>371</ele>
        <time>2016-09-25T09:35:31.000Z</time>
      </trkpt>
      <trkpt lat="47.53559" lon="6.73243">
        <ele>371</ele>
        <time>2016-09-25T09:35:32.000Z</time>
      </trkpt>
      <trkpt lat="47.53558" lon="6.73248">
        <ele>371</ele>
        <time>2016-09-25T09:35:33.000Z</time>
      </trkpt>
      <trkpt lat="47.5356" lon="6.73253">
        <ele>371</ele>
        <time>2016-09-25T09:35:34.000Z</time>
      </trkpt>
      <trkpt lat="47.5356" lon="6.73259">
        <ele>371</ele>
        <time>2016-09-25T09:35:35.000Z</time>
      </trkpt>
      <trkpt lat="47.5356" lon="6.73264">
        <ele>371</ele>
        <time>2016-09-25T09:35:36.000Z</time>
      </trkpt>
      <trkpt lat="47.53561" lon="6.7327">
        <ele>371</ele>
        <time>2016-09-25T09:35:37.000Z</time>
      </trkpt>
      <trkpt lat="47.53561" lon="6.73275">
        <ele>371</ele>
        <time>2016-09-25T09:35:38.000Z</time>
      </trkpt>
      <trkpt lat="47.53561" lon="6.7328">
        <ele>371</ele>
        <time>2016-09-25T09:35:39.000Z</time>
      </trkpt>
      <trkpt lat="47.53561" lon="6.73286">
        <ele>371</ele>
        <time>2016-09-25T09:35:40.000Z</time>
      </trkpt>
      <trkpt lat="47.53561" lon="6.73291">
        <ele>371</ele>
        <time>2016-09-25T09:35:41.000Z</time>
      </trkpt>
      <trkpt lat="47.53561" lon="6.73296">
        <ele>371</ele>
        <time>2016-09-25T09:35:42.000Z</time>
      </trkpt>
      <trkpt lat="47.53561" lon="6.73302">
        <ele>371</ele>
        <time>2016-09-25T09:35:43.000Z</time>
      </trkpt>
      <trkpt lat="47.53562" lon="6.73308">
        <ele>371</ele>
        <time>2016-09-25T09:35:44.000Z</time>
      </trkpt>
      <trkpt lat="47.53561" lon="6.73314">
        <ele>371</ele>
        <time>2016-09-25T09:35:45.000Z</time>
      </trkpt>
      <trkpt lat="47.53559" lon="6.7332">
        <ele>371</ele>
        <time>2016-09-25T09:35:46.000Z</time>
      </trkpt>
      <trkpt lat="47.53558" lon="6.73326">
        <ele>371</ele>
        <time>2016-09-25T09:35:47.000Z</time>
      </trkpt>
      <trkpt lat="47.53557" lon="6.73332">
        <ele>371</ele>
        <time>2016-09-25T09:35:48.000Z</time>
      </trkpt>
      <trkpt lat="47.53557" lon="6.73338">
        <ele>372</ele>
        <time>2016-09-25T09:35:49.000Z</time>
      </trkpt>
      <trkpt lat="47.53557" lon="6.73344">
        <ele>372</ele>
        <time>2016-09-25T09:35:50.000Z</time>
      </trkpt>
      <trkpt lat="47.53556" lon="6.7335">
        <ele>371</ele>
        <time>2016-09-25T09:35:51.000Z</time>
      </trkpt>
      <trkpt lat="47.53556" lon="6.73356">
        <ele>371</ele>
        <time>2016-09-25T09:35:52.000Z</time>
      </trkpt>
      <trkpt lat="47.53556" lon="6.73362">
        <ele>371</ele>
        <time>2016-09-25T09:35:53.000Z</time>
      </trkpt>
      <trkpt lat="47.53557" lon="6.73368">
        <ele>371</ele>
        <time>2016-09-25T09:35:54.000Z</time>
      </trkpt>
      <trkpt lat="47.53557" lon="6.73373">
        <ele>371</ele>
        <time>2016-09-25T09:35:55.000Z</time>
      </trkpt>
      <trkpt lat="47.53557" lon="6.73379">
        <ele>371</ele>
        <time>2016-09-25T09:35:56.000Z</time>
      </trkpt>
      <trkpt lat="47.53558" lon="6.73384">
        <ele>371</ele>
        <time>2016-09-25T09:35:57.000Z</time>
      </trkpt>
      <trkpt lat="47.53558" lon="6.73388">
        <ele>371</ele>
        <time>2016-09-25T09:35:58.000Z</time>
      </trkpt>
      <trkpt lat="47.53559" lon="6.73393">
        <ele>372</ele>
        <time>2016-09-25T09:35:59.000Z</time>
      </trkpt>
      <trkpt lat="47.53559" lon="6.73398">
        <ele>372</ele>
        <time>2016-09-25T09:36:00.000Z</time>
      </trkpt>
      <trkpt lat="47.53559" lon="6.73403">
        <ele>372</ele>
        <time>2016-09-25T09:36:01.000Z</time>
      </trkpt>
      <trkpt lat="47.53559" lon="6.73408">
        <ele>372</ele>
        <time>2016-09-25T09:36:02.000Z</time>
      </trkpt>
      <trkpt lat="47.53559" lon="6.73414">
        <ele>372</ele>
        <time>2016-09-25T09:36:03.000Z</time>
      </trkpt>
      <trkpt lat="47.5356" lon="6.7342">
        <ele>372</ele>
        <time>2016-09-25T09:36:04.000Z</time>
      </trkpt>
      <trkpt lat="47.53561" lon="6.73425">
        <ele>372</ele>
        <time>2016-09-25T09:36:05.000Z</time>
      </trkpt>
      <trkpt lat="47.53562" lon="6.73431">
        <ele>372</ele>
        <time>2016-09-25T09:36:06.000Z</time>
      </trkpt>
      <trkpt lat="47.53563" lon="6.73436">
        <ele>372</ele>
        <time>2016-09-25T09:36:07.000Z</time>
      </trkpt>
      <trkpt lat="47.53564" lon="6.73441">
        <ele>372</ele>
        <time>2016-09-25T09:36:08.000Z</time>
      </trkpt>
      <trkpt lat="47.53565" lon="6.73446">
        <ele>372</ele>
        <time>2016-09-25T09:36:09.000Z</time>
      </trkpt>
      <trkpt lat="47.53566" lon="6.73452">
        <ele>372</ele>
        <time>2016-09-25T09:36:10.000Z</time>
      </trkpt>
      <trkpt lat="47.53566" lon="6.73461">
        <ele>372</ele>
        <time>2016-09-25T09:36:11.000Z</time>
      </trkpt>
      <trkpt lat="47.53565" lon="6.73467">
        <ele>372</ele>
        <time>2016-09-25T09:36:12.000Z</time>
      </trkpt>
      <trkpt lat="47.53569" lon="6.7347">
        <ele>372</ele>
        <time>2016-09-25T09:36:13.000Z</time>
      </trkpt>
      <trkpt lat="47.53569" lon="6.73475">
        <ele>372</ele>
        <time>2016-09-25T09:36:14.000Z</time>
      </trkpt>
      <trkpt lat="47.53569" lon="6.7348">
        <ele>373</ele>
        <time>2016-09-25T09:36:15.000Z</time>
      </trkpt>
      <trkpt lat="47.5357" lon="6.73486">
        <ele>373</ele>
        <time>2016-09-25T09:36:16.000Z</time>
      </trkpt>
      <trkpt lat="47.53571" lon="6.73491">
        <ele>373</ele>
        <time>2016-09-25T09:36:17.000Z</time>
      </trkpt>
      <trkpt lat="47.53571" lon="6.73496">
        <ele>373</ele>
        <time>2016-09-25T09:36:18.000Z</time>
      </trkpt>
      <trkpt lat="47.53572" lon="6.73501">
        <ele>374</ele>
        <time>2016-09-25T09:36:18.999Z</time>
      </trkpt>
      <trkpt lat="47.53573" lon="6.73508">
        <ele>374</ele>
        <time>2016-09-25T09:36:20.000Z</time>
      </trkpt>
      <trkpt lat="47.53574" lon="6.73513">
        <ele>374</ele>
        <time>2016-09-25T09:36:21.000Z</time>
      </trkpt>
      <trkpt lat="47.53576" lon="6.73519">
        <ele>373</ele>
        <time>2016-09-25T09:36:22.000Z</time>
      </trkpt>
      <trkpt lat="47.53578" lon="6.73525">
        <ele>373</ele>
        <time>2016-09-25T09:36:23.000Z</time>
      </trkpt>
      <trkpt lat="47.53579" lon="6.7353">
        <ele>373</ele>
        <time>2016-09-25T09:36:24.000Z</time>
      </trkpt>
      <trkpt lat="47.53581" lon="6.73534">
        <ele>373</ele>
        <time>2016-09-25T09:36:25.000Z</time>
      </trkpt>
      <trkpt lat="47.53581" lon="6.73538">
        <ele>374</ele>
        <time>2016-09-25T09:36:26.000Z</time>
      </trkpt>
      <trkpt lat="47.53581" lon="6.73542">
        <ele>374</ele>
        <time>2016-09-25T09:36:27.000Z</time>
      </trkpt>
      <trkpt lat="47.5358" lon="6.73545">
        <ele>374</ele>
        <time>2016-09-25T09:36:28.000Z</time>
      </trkpt>
      <trkpt lat="47.53578" lon="6.73551">
        <ele>374</ele>
        <time>2016-09-25T09:36:30.000Z</time>
      </trkpt>
      <trkpt lat="47.53578" lon="6.73553">
        <ele>374</ele>
        <time>2016-09-25T09:36:31.000Z</time>
      </trkpt>
      <trkpt lat="47.53576" lon="6.73557">
        <ele>374</ele>
        <time>2016-09-25T09:36:33.000Z</time>
      </trkpt>
      <trkpt lat="47.53575" lon="6.73559">
        <ele>374</ele>
        <time>2016-09-25T09:36:34.000Z</time>
      </trkpt>
      <trkpt lat="47.53572" lon="6.73563">
        <ele>374</ele>
        <time>2016-09-25T09:36:36.000Z</time>
      </trkpt>
      <trkpt lat="47.53571" lon="6.73566">
        <ele>374</ele>
        <time>2016-09-25T09:36:37.000Z</time>
      </trkpt>
      <trkpt lat="47.5357" lon="6.7357">
        <ele>374</ele>
        <time>2016-09-25T09:36:38.000Z</time>
      </trkpt>
      <trkpt lat="47.5357" lon="6.73575">
        <ele>374</ele>
        <time>2016-09-25T09:36:39.000Z</time>
      </trkpt>
      <trkpt lat="47.5357" lon="6.7358">
        <ele>374</ele>
        <time>2016-09-25T09:36:40.000Z</time>
      </trkpt>
      <trkpt lat="47.53571" lon="6.73586">
        <ele>375</ele>
        <time>2016-09-25T09:36:41.000Z</time>
      </trkpt>
      <trkpt lat="47.53571" lon="6.7359">
        <ele>375</ele>
        <time>2016-09-25T09:36:42.000Z</time>
      </trkpt>
      <trkpt lat="47.53571" lon="6.73594">
        <ele>375</ele>
        <time>2016-09-25T09:36:43.000Z</time>
      </trkpt>
      <trkpt lat="47.53569" lon="6.73599">
        <ele>375</ele>
        <time>2016-09-25T09:36:45.000Z</time>
      </trkpt>
      <trkpt lat="47.53567" lon="6.736">
        <ele>375</ele>
        <time>2016-09-25T09:36:46.000Z</time>
      </trkpt>
      <trkpt lat="47.53565" lon="6.736">
        <ele>375</ele>
        <time>2016-09-25T09:36:47.000Z</time>
      </trkpt>
      <trkpt lat="47.53563" lon="6.73602">
        <ele>375</ele>
        <time>2016-09-25T09:36:48.000Z</time>
      </trkpt>
      <trkpt lat="47.5356" lon="6.73605">
        <ele>375</ele>
        <time>2016-09-25T09:36:49.000Z</time>
      </trkpt>
      <trkpt lat="47.53559" lon="6.7361">
        <ele>375</ele>
        <time>2016-09-25T09:36:50.000Z</time>
      </trkpt>
      <trkpt lat="47.53557" lon="6.73617">
        <ele>375</ele>
        <time>2016-09-25T09:36:51.000Z</time>
      </trkpt>
      <trkpt lat="47.53557" lon="6.73624">
        <ele>376</ele>
        <time>2016-09-25T09:36:52.000Z</time>
      </trkpt>
      <trkpt lat="47.53557" lon="6.73631">
        <ele>376</ele>
        <time>2016-09-25T09:36:53.000Z</time>
      </trkpt>
      <trkpt lat="47.53557" lon="6.73638">
        <ele>376</ele>
        <time>2016-09-25T09:36:54.000Z</time>
      </trkpt>
      <trkpt lat="47.53557" lon="6.73645">
        <ele>376</ele>
        <time>2016-09-25T09:36:55.000Z</time>
      </trkpt>
      <trkpt lat="47.53558" lon="6.73651">
        <ele>376</ele>
        <time>2016-09-25T09:36:56.000Z</time>
      </trkpt>
      <trkpt lat="47.53558" lon="6.73656">
        <ele>376</ele>
        <time>2016-09-25T09:36:57.000Z</time>
      </trkpt>
      <trkpt lat="47.53557" lon="6.73661">
        <ele>376</ele>
        <time>2016-09-25T09:36:58.000Z</time>
      </trkpt>
      <trkpt lat="47.53557" lon="6.73666">
        <ele>376</ele>
        <time>2016-09-25T09:36:59.000Z</time>
      </trkpt>
      <trkpt lat="47.53558" lon="6.73671">
        <ele>378</ele>
        <time>2016-09-25T09:37:00.000Z</time>
      </trkpt>
      <trkpt lat="47.53558" lon="6.73676">
        <ele>378</ele>
        <time>2016-09-25T09:37:01.000Z</time>
      </trkpt>
      <trkpt lat="47.53558" lon="6.73681">
        <ele>378</ele>
        <time>2016-09-25T09:37:02.000Z</time>
      </trkpt>
      <trkpt lat="47.53559" lon="6.73688">
        <ele>378</ele>
        <time>2016-09-25T09:37:03.000Z</time>
      </trkpt>
      <trkpt lat="47.5356" lon="6.73695">
        <ele>378</ele>
        <time>2016-09-25T09:37:04.000Z</time>
      </trkpt>
      <trkpt lat="47.5356" lon="6.73701">
        <ele>378</ele>
        <time>2016-09-25T09:37:05.000Z</time>
      </trkpt>
      <trkpt lat="47.53561" lon="6.73708">
        <ele>378</ele>
        <time>2016-09-25T09:37:06.000Z</time>
      </trkpt>
      <trkpt lat="47.53562" lon="6.73714">
        <ele>378</ele>
        <time>2016-09-25T09:37:07.000Z</time>
      </trkpt>
      <trkpt lat="47.53562" lon="6.73719">
        <ele>378</ele>
        <time>2016-09-25T09:37:08.000Z</time>
      </trkpt>
      <trkpt lat="47.53563" lon="6.73725">
        <ele>378</ele>
        <time>2016-09-25T09:37:09.000Z</time>
      </trkpt>
      <trkpt lat="47.53564" lon="6.7373">
        <ele>378</ele>
        <time>2016-09-25T09:37:10.000Z</time>
      </trkpt>
      <trkpt lat="47.53566" lon="6.73735">
        <ele>378</ele>
        <time>2016-09-25T09:37:11.000Z</time>
      </trkpt>
      <trkpt lat="47.53567" lon="6.73741">
        <ele>378</ele>
        <time>2016-09-25T09:37:12.000Z</time>
      </trkpt>
      <trkpt lat="47.53569" lon="6.73747">
        <ele>379</ele>
        <time>2016-09-25T09:37:13.000Z</time>
      </trkpt>
      <trkpt lat="47.5357" lon="6.73753">
        <ele>380</ele>
        <time>2016-09-25T09:37:14.000Z</time>
      </trkpt>
      <trkpt lat="47.53572" lon="6.73758">
        <ele>381</ele>
        <time>2016-09-25T09:37:15.000Z</time>
      </trkpt>
      <trkpt lat="47.53573" lon="6.73763">
        <ele>381</ele>
        <time>2016-09-25T09:37:16.000Z</time>
      </trkpt>
      <trkpt lat="47.53574" lon="6.73768">
        <ele>381</ele>
        <time>2016-09-25T09:37:17.000Z</time>
      </trkpt>
      <trkpt lat="47.53575" lon="6.73774">
        <ele>381</ele>
        <time>2016-09-25T09:37:18.000Z</time>
      </trkpt>
      <trkpt lat="47.53576" lon="6.73779">
        <ele>382</ele>
        <time>2016-09-25T09:37:19.000Z</time>
      </trkpt>
      <trkpt lat="47.53576" lon="6.73784">
        <ele>382</ele>
        <time>2016-09-25T09:37:20.000Z</time>
      </trkpt>
      <trkpt lat="47.53577" lon="6.73789">
        <ele>382</ele>
        <time>2016-09-25T09:37:21.000Z</time>
      </trkpt>
      <trkpt lat="47.53578" lon="6.73793">
        <ele>382</ele>
        <time>2016-09-25T09:37:22.000Z</time>
      </trkpt>
      <trkpt lat="47.53579" lon="6.73798">
        <ele>383</ele>
        <time>2016-09-25T09:37:23.000Z</time>
      </trkpt>
      <trkpt lat="47.53579" lon="6.73803">
        <ele>383</ele>
        <time>2016-09-25T09:37:24.000Z</time>
      </trkpt>
      <trkpt lat="47.5358" lon="6.73809">
        <ele>383</ele>
        <time>2016-09-25T09:37:25.000Z</time>
      </trkpt>
      <trkpt lat="47.53581" lon="6.73814">
        <ele>383</ele>
        <time>2016-09-25T09:37:26.000Z</time>
      </trkpt>
      <trkpt lat="47.53582" lon="6.7382">
        <ele>383</ele>
        <time>2016-09-25T09:37:27.000Z</time>
      </trkpt>
      <trkpt lat="47.53583" lon="6.73825">
        <ele>384</ele>
        <time>2016-09-25T09:37:28.000Z</time>
      </trkpt>
      <trkpt lat="47.53585" lon="6.7383">
        <ele>384</ele>
        <time>2016-09-25T09:37:29.000Z</time>
      </trkpt>
      <trkpt lat="47.53587" lon="6.73835">
        <ele>385</ele>
        <time>2016-09-25T09:37:30.000Z</time>
      </trkpt>
      <trkpt lat="47.5359" lon="6.7384">
        <ele>385</ele>
        <time>2016-09-25T09:37:31.000Z</time>
      </trkpt>
      <trkpt lat="47.53593" lon="6.73846">
        <ele>386</ele>
        <time>2016-09-25T09:37:32.000Z</time>
      </trkpt>
      <trkpt lat="47.53596" lon="6.73854">
        <ele>387</ele>
        <time>2016-09-25T09:37:33.000Z</time>
      </trkpt>
      <trkpt lat="47.53599" lon="6.73863">
        <ele>387</ele>
        <time>2016-09-25T09:37:34.000Z</time>
      </trkpt>
      <trkpt lat="47.53603" lon="6.73871">
        <ele>388</ele>
        <time>2016-09-25T09:37:35.000Z</time>
      </trkpt>
      <trkpt lat="47.53605" lon="6.73879">
        <ele>388</ele>
        <time>2016-09-25T09:37:36.000Z</time>
      </trkpt>
      <trkpt lat="47.53607" lon="6.73886">
        <ele>388</ele>
        <time>2016-09-25T09:37:37.000Z</time>
      </trkpt>
      <trkpt lat="47.53609" lon="6.73892">
        <ele>388</ele>
        <time>2016-09-25T09:37:38.000Z</time>
      </trkpt>
      <trkpt lat="47.53611" lon="6.73897">
        <ele>388</ele>
        <time>2016-09-25T09:37:39.000Z</time>
      </trkpt>
      <trkpt lat="47.53611" lon="6.73901">
        <ele>388</ele>
        <time>2016-09-25T09:37:40.000Z</time>
      </trkpt>
      <trkpt lat="47.53611" lon="6.73904">
        <ele>388</ele>
        <time>2016-09-25T09:37:41.000Z</time>
      </trkpt>
      <trkpt lat="47.53612" lon="6.73907">
        <ele>388</ele>
        <time>2016-09-25T09:37:42.000Z</time>
      </trkpt>
      <trkpt lat="47.53611" lon="6.73913">
        <ele>388</ele>
        <time>2016-09-25T09:37:45.000Z</time>
      </trkpt>
      <trkpt lat="47.53609" lon="6.73915">
        <ele>388</ele>
        <time>2016-09-25T09:37:46.000Z</time>
      </trkpt>
      <trkpt lat="47.53606" lon="6.73918">
        <ele>388</ele>
        <time>2016-09-25T09:37:48.000Z</time>
      </trkpt>
      <trkpt lat="47.53605" lon="6.73919">
        <ele>388</ele>
        <time>2016-09-25T09:37:49.000Z</time>
      </trkpt>
      <trkpt lat="47.53602" lon="6.73924">
        <ele>388</ele>
        <time>2016-09-25T09:37:52.000Z</time>
      </trkpt>
      <trkpt lat="47.53602" lon="6.73925">
        <ele>388</ele>
        <time>2016-09-25T09:37:53.000Z</time>
      </trkpt>
      <trkpt lat="47.53598" lon="6.73929">
        <ele>388</ele>
        <time>2016-09-25T09:37:56.000Z</time>
      </trkpt>
      <trkpt lat="47.53597" lon="6.73932">
        <ele>388</ele>
        <time>2016-09-25T09:37:57.000Z</time>
      </trkpt>
      <trkpt lat="47.53595" lon="6.73937">
        <ele>388</ele>
        <time>2016-09-25T09:37:59.000Z</time>
      </trkpt>
      <trkpt lat="47.53592" lon="6.7394">
        <ele>388</ele>
        <time>2016-09-25T09:38:00.000Z</time>
      </trkpt>
      <trkpt lat="47.5359" lon="6.73944">
        <ele>388</ele>
        <time>2016-09-25T09:38:02.000Z</time>
      </trkpt>
      <trkpt lat="47.53588" lon="6.73947">
        <ele>388</ele>
        <time>2016-09-25T09:38:03.000Z</time>
      </trkpt>
      <trkpt lat="47.53586" lon="6.73951">
        <ele>388</ele>
        <time>2016-09-25T09:38:05.000Z</time>
      </trkpt>
      <trkpt lat="47.53584" lon="6.73954">
        <ele>388</ele>
        <time>2016-09-25T09:38:06.000Z</time>
      </trkpt>
      <trkpt lat="47.53583" lon="6.73957">
        <ele>392</ele>
        <time>2016-09-25T09:38:07.000Z</time>
      </trkpt>
      <trkpt lat="47.53581" lon="6.73961">
        <ele>392</ele>
        <time>2016-09-25T09:38:08.000Z</time>
      </trkpt>
      <trkpt lat="47.53579" lon="6.73964">
        <ele>392</ele>
        <time>2016-09-25T09:38:09.000Z</time>
      </trkpt>
      <trkpt lat="47.53578" lon="6.73967">
        <ele>392</ele>
        <time>2016-09-25T09:38:10.000Z</time>
      </trkpt>
      <trkpt lat="47.53576" lon="6.7397">
        <ele>392</ele>
        <time>2016-09-25T09:38:11.000Z</time>
      </trkpt>
      <trkpt lat="47.53574" lon="6.73974">
        <ele>393</ele>
        <time>2016-09-25T09:38:12.000Z</time>
      </trkpt>
      <trkpt lat="47.53572" lon="6.73977">
        <ele>393</ele>
        <time>2016-09-25T09:38:13.000Z</time>
      </trkpt>
      <trkpt lat="47.5357" lon="6.7398">
        <ele>393</ele>
        <time>2016-09-25T09:38:14.000Z</time>
      </trkpt>
      <trkpt lat="47.53568" lon="6.73983">
        <ele>393</ele>
        <time>2016-09-25T09:38:15.000Z</time>
      </trkpt>
      <trkpt lat="47.53566" lon="6.73988">
        <ele>393</ele>
        <time>2016-09-25T09:38:16.000Z</time>
      </trkpt>
      <trkpt lat="47.53565" lon="6.73992">
        <ele>393</ele>
        <time>2016-09-25T09:38:17.000Z</time>
      </trkpt>
      <trkpt lat="47.53563" lon="6.73997">
        <ele>393</ele>
        <time>2016-09-25T09:38:18.000Z</time>
      </trkpt>
      <trkpt lat="47.53562" lon="6.74001">
        <ele>394</ele>
        <time>2016-09-25T09:38:19.000Z</time>
      </trkpt>
      <trkpt lat="47.53561" lon="6.74005">
        <ele>395</ele>
        <time>2016-09-25T09:38:20.000Z</time>
      </trkpt>
      <trkpt lat="47.53559" lon="6.74008">
        <ele>395</ele>
        <time>2016-09-25T09:38:21.000Z</time>
      </trkpt>
      <trkpt lat="47.53558" lon="6.74013">
        <ele>395</ele>
        <time>2016-09-25T09:38:22.000Z</time>
      </trkpt>
      <trkpt lat="47.53557" lon="6.74017">
        <ele>396</ele>
        <time>2016-09-25T09:38:23.000Z</time>
      </trkpt>
      <trkpt lat="47.53557" lon="6.74022">
        <ele>396</ele>
        <time>2016-09-25T09:38:24.000Z</time>
      </trkpt>
      <trkpt lat="47.53556" lon="6.74027">
        <ele>396</ele>
        <time>2016-09-25T09:38:25.000Z</time>
      </trkpt>
      <trkpt lat="47.53555" lon="6.74032">
        <ele>396</ele>
        <time>2016-09-25T09:38:26.000Z</time>
      </trkpt>
      <trkpt lat="47.53555" lon="6.74037">
        <ele>397</ele>
        <time>2016-09-25T09:38:27.000Z</time>
      </trkpt>
      <trkpt lat="47.53555" lon="6.74042">
        <ele>397</ele>
        <time>2016-09-25T09:38:28.000Z</time>
      </trkpt>
      <trkpt lat="47.53555" lon="6.74047">
        <ele>397</ele>
        <time>2016-09-25T09:38:29.000Z</time>
      </trkpt>
      <trkpt lat="47.53555" lon="6.74051">
        <ele>397</ele>
        <time>2016-09-25T09:38:30.000Z</time>
      </trkpt>
      <trkpt lat="47.53554" lon="6.74055">
        <ele>397</ele>
        <time>2016-09-25T09:38:31.000Z</time>
      </trkpt>
      <trkpt lat="47.53553" lon="6.74057">
        <ele>397</ele>
        <time>2016-09-25T09:38:32.000Z</time>
      </trkpt>
      <trkpt lat="47.53551" lon="6.74061">
        <ele>397</ele>
        <time>2016-09-25T09:38:34.000Z</time>
      </trkpt>
      <trkpt lat="47.5355" lon="6.74063">
        <ele>397</ele>
        <time>2016-09-25T09:38:35.000Z</time>
      </trkpt>
      <trkpt lat="47.5355" lon="6.74068">
        <ele>397</ele>
        <time>2016-09-25T09:38:37.000Z</time>
      </trkpt>
      <trkpt lat="47.5355" lon="6.74072">
        <ele>397</ele>
        <time>2016-09-25T09:38:38.000Z</time>
      </trkpt>
      <trkpt lat="47.5355" lon="6.74076">
        <ele>397</ele>
        <time>2016-09-25T09:38:39.000Z</time>
      </trkpt>
      <trkpt lat="47.5355" lon="6.74081">
        <ele>397</ele>
        <time>2016-09-25T09:38:40.000Z</time>
      </trkpt>
      <trkpt lat="47.5355" lon="6.74085">
        <ele>399</ele>
        <time>2016-09-25T09:38:41.000Z</time>
      </trkpt>
      <trkpt lat="47.53549" lon="6.74088">
        <ele>399</ele>
        <time>2016-09-25T09:38:42.000Z</time>
      </trkpt>
      <trkpt lat="47.53548" lon="6.74093">
        <ele>400</ele>
        <time>2016-09-25T09:38:44.000Z</time>
      </trkpt>
      <trkpt lat="47.53547" lon="6.74096">
        <ele>400</ele>
        <time>2016-09-25T09:38:45.000Z</time>
      </trkpt>
      <trkpt lat="47.53547" lon="6.74102">
        <ele>400</ele>
        <time>2016-09-25T09:38:47.000Z</time>
      </trkpt>
      <trkpt lat="47.53547" lon="6.74105">
        <ele>400</ele>
        <time>2016-09-25T09:38:48.000Z</time>
      </trkpt>
      <trkpt lat="47.53547" lon="6.74111">
        <ele>400</ele>
        <time>2016-09-25T09:38:50.000Z</time>
      </trkpt>
      <trkpt lat="47.53547" lon="6.74116">
        <ele>400</ele>
        <time>2016-09-25T09:38:51.000Z</time>
      </trkpt>
      <trkpt lat="47.53548" lon="6.7412">
        <ele>400</ele>
        <time>2016-09-25T09:38:52.000Z</time>
      </trkpt>
      <trkpt lat="47.53548" lon="6.74125">
        <ele>400</ele>
        <time>2016-09-25T09:38:53.000Z</time>
      </trkpt>
      <trkpt lat="47.53548" lon="6.74129">
        <ele>400</ele>
        <time>2016-09-25T09:38:54.000Z</time>
      </trkpt>
      <trkpt lat="47.53548" lon="6.74133">
        <ele>401</ele>
        <time>2016-09-25T09:38:55.000Z</time>
      </trkpt>
      <trkpt lat="47.53548" lon="6.74136">
        <ele>401</ele>
        <time>2016-09-25T09:38:56.000Z</time>
      </trkpt>
      <trkpt lat="47.53548" lon="6.7414">
        <ele>401</ele>
        <time>2016-09-25T09:38:57.000Z</time>
      </trkpt>
      <trkpt lat="47.53548" lon="6.74143">
        <ele>401</ele>
        <time>2016-09-25T09:38:58.000Z</time>
      </trkpt>
      <trkpt lat="47.53548" lon="6.74146">
        <ele>401</ele>
        <time>2016-09-25T09:38:59.000Z</time>
      </trkpt>
      <trkpt lat="47.53548" lon="6.74149">
        <ele>401</ele>
        <time>2016-09-25T09:39:00.000Z</time>
      </trkpt>
      <trkpt lat="47.53548" lon="6.74153">
        <ele>401</ele>
        <time>2016-09-25T09:39:01.000Z</time>
      </trkpt>
      <trkpt lat="47.53549" lon="6.74158">
        <ele>401</ele>
        <time>2016-09-25T09:39:02.000Z</time>
      </trkpt>
      <trkpt lat="47.5355" lon="6.74163">
        <ele>401</ele>
        <time>2016-09-25T09:39:03.000Z</time>
      </trkpt>
      <trkpt lat="47.53551" lon="6.74168">
        <ele>404</ele>
        <time>2016-09-25T09:39:04.000Z</time>
      </trkpt>
      <trkpt lat="47.53552" lon="6.74174">
        <ele>404</ele>
        <time>2016-09-25T09:39:05.000Z</time>
      </trkpt>
      <trkpt lat="47.53553" lon="6.74179">
        <ele>404</ele>
        <time>2016-09-25T09:39:06.000Z</time>
      </trkpt>
      <trkpt lat="47.53554" lon="6.74184">
        <ele>404</ele>
        <time>2016-09-25T09:39:07.000Z</time>
      </trkpt>
      <trkpt lat="47.53554" lon="6.7419">
        <ele>404</ele>
        <time>2016-09-25T09:39:08.000Z</time>
      </trkpt>
      <trkpt lat="47.53556" lon="6.74195">
        <ele>404</ele>
        <time>2016-09-25T09:39:09.000Z</time>
      </trkpt>
      <trkpt lat="47.53557" lon="6.74201">
        <ele>405</ele>
        <time>2016-09-25T09:39:10.000Z</time>
      </trkpt>
      <trkpt lat="47.53558" lon="6.74206">
        <ele>405</ele>
        <time>2016-09-25T09:39:11.000Z</time>
      </trkpt>
      <trkpt lat="47.53559" lon="6.74211">
        <ele>405</ele>
        <time>2016-09-25T09:39:12.000Z</time>
      </trkpt>
      <trkpt lat="47.53559" lon="6.74215">
        <ele>405</ele>
        <time>2016-09-25T09:39:13.000Z</time>
      </trkpt>
      <trkpt lat="47.5356" lon="6.7422">
        <ele>405</ele>
        <time>2016-09-25T09:39:14.000Z</time>
      </trkpt>
      <trkpt lat="47.53561" lon="6.74224">
        <ele>405</ele>
        <time>2016-09-25T09:39:15.000Z</time>
      </trkpt>
      <trkpt lat="47.53562" lon="6.74229">
        <ele>405</ele>
        <time>2016-09-25T09:39:16.000Z</time>
      </trkpt>
      <trkpt lat="47.53563" lon="6.74233">
        <ele>405</ele>
        <time>2016-09-25T09:39:17.000Z</time>
      </trkpt>
      <trkpt lat="47.53564" lon="6.74238">
        <ele>405</ele>
        <time>2016-09-25T09:39:18.000Z</time>
      </trkpt>
      <trkpt lat="47.53565" lon="6.74241">
        <ele>405</ele>
        <time>2016-09-25T09:39:19.000Z</time>
      </trkpt>
      <trkpt lat="47.53566" lon="6.74247">
        <ele>405</ele>
        <time>2016-09-25T09:39:21.000Z</time>
      </trkpt>
      <trkpt lat="47.53567" lon="6.7425">
        <ele>405</ele>
        <time>2016-09-25T09:39:22.000Z</time>
      </trkpt>
      <trkpt lat="47.53567" lon="6.74255">
        <ele>408</ele>
        <time>2016-09-25T09:39:24.000Z</time>
      </trkpt>
      <trkpt lat="47.53568" lon="6.74259">
        <ele>408</ele>
        <time>2016-09-25T09:39:25.000Z</time>
      </trkpt>
      <trkpt lat="47.53568" lon="6.74262">
        <ele>409</ele>
        <time>2016-09-25T09:39:26.000Z</time>
      </trkpt>
      <trkpt lat="47.53569" lon="6.74266">
        <ele>409</ele>
        <time>2016-09-25T09:39:27.000Z</time>
      </trkpt>
      <trkpt lat="47.5357" lon="6.7427">
        <ele>409</ele>
        <time>2016-09-25T09:39:28.000Z</time>
      </trkpt>
      <trkpt lat="47.5357" lon="6.74274">
        <ele>410</ele>
        <time>2016-09-25T09:39:29.000Z</time>
      </trkpt>
      <trkpt lat="47.53571" lon="6.74279">
        <ele>410</ele>
        <time>2016-09-25T09:39:30.000Z</time>
      </trkpt>
      <trkpt lat="47.53571" lon="6.74284">
        <ele>410</ele>
        <time>2016-09-25T09:39:31.000Z</time>
      </trkpt>
      <trkpt lat="47.53572" lon="6.74288">
        <ele>410</ele>
        <time>2016-09-25T09:39:32.000Z</time>
      </trkpt>
      <trkpt lat="47.53572" lon="6.74292">
        <ele>411</ele>
        <time>2016-09-25T09:39:33.000Z</time>
      </trkpt>
      <trkpt lat="47.53573" lon="6.74296">
        <ele>411</ele>
        <time>2016-09-25T09:39:34.000Z</time>
      </trkpt>
      <trkpt lat="47.53575" lon="6.743">
        <ele>411</ele>
        <time>2016-09-25T09:39:35.000Z</time>
      </trkpt>
      <trkpt lat="47.53576" lon="6.74303">
        <ele>411</ele>
        <time>2016-09-25T09:39:36.000Z</time>
      </trkpt>
      <trkpt lat="47.53576" lon="6.74307">
        <ele>411</ele>
        <time>2016-09-25T09:39:37.000Z</time>
      </trkpt>
      <trkpt lat="47.53576" lon="6.74311">
        <ele>411</ele>
        <time>2016-09-25T09:39:38.000Z</time>
      </trkpt>
      <trkpt lat="47.53577" lon="6.74315">
        <ele>411</ele>
        <time>2016-09-25T09:39:39.000Z</time>
      </trkpt>
      <trkpt lat="47.53577" lon="6.74318">
        <ele>411</ele>
        <time>2016-09-25T09:39:40.000Z</time>
      </trkpt>
      <trkpt lat="47.53578" lon="6.74322">
        <ele>410</ele>
        <time>2016-09-25T09:39:41.000Z</time>
      </trkpt>
      <trkpt lat="47.53579" lon="6.74326">
        <ele>410</ele>
        <time>2016-09-25T09:39:42.000Z</time>
      </trkpt>
      <trkpt lat="47.5358" lon="6.74329">
        <ele>410</ele>
        <time>2016-09-25T09:39:43.000Z</time>
      </trkpt>
      <trkpt lat="47.53581" lon="6.74333">
        <ele>409</ele>
        <time>2016-09-25T09:39:44.000Z</time>
      </trkpt>
      <trkpt lat="47.53582" lon="6.74336">
        <ele>410</ele>
        <time>2016-09-25T09:39:45.000Z</time>
      </trkpt>
      <trkpt lat="47.53583" lon="6.74342">
        <ele>412</ele>
        <time>2016-09-25T09:39:47.000Z</time>
      </trkpt>
      <trkpt lat="47.53584" lon="6.74345">
        <ele>409</ele>
        <time>2016-09-25T09:39:48.000Z</time>
      </trkpt>
      <trkpt lat="47.53585" lon="6.74351">
        <ele>409</ele>
        <time>2016-09-25T09:39:50.000Z</time>
      </trkpt>
      <trkpt lat="47.53585" lon="6.74354">
        <ele>409</ele>
        <time>2016-09-25T09:39:51.000Z</time>
      </trkpt>
      <trkpt lat="47.53586" lon="6.74359">
        <ele>409</ele>
        <time>2016-09-25T09:39:53.000Z</time>
      </trkpt>
      <trkpt lat="47.53586" lon="6.74362">
        <ele>410</ele>
        <time>2016-09-25T09:39:54.000Z</time>
      </trkpt>
      <trkpt lat="47.53586" lon="6.74366">
        <ele>410</ele>
        <time>2016-09-25T09:39:55.000Z</time>
      </trkpt>
      <trkpt lat="47.53587" lon="6.7437">
        <ele>410</ele>
        <time>2016-09-25T09:39:56.000Z</time>
      </trkpt>
      <trkpt lat="47.53588" lon="6.74373">
        <ele>410</ele>
        <time>2016-09-25T09:39:57.000Z</time>
      </trkpt>
      <trkpt lat="47.53589" lon="6.74376">
        <ele>410</ele>
        <time>2016-09-25T09:39:58.000Z</time>
      </trkpt>
      <trkpt lat="47.5359" lon="6.74382">
        <ele>410</ele>
        <time>2016-09-25T09:40:00.000Z</time>
      </trkpt>
      <trkpt lat="47.53591" lon="6.74384">
        <ele>411</ele>
        <time>2016-09-25T09:40:01.000Z</time>
      </trkpt>
      <trkpt lat="47.53592" lon="6.74389">
        <ele>411</ele>
        <time>2016-09-25T09:40:03.000Z</time>
      </trkpt>
      <trkpt lat="47.53593" lon="6.74392">
        <ele>411</ele>
        <time>2016-09-25T09:40:04.000Z</time>
      </trkpt>
      <trkpt lat="47.53594" lon="6.74395">
        <ele>411</ele>
        <time>2016-09-25T09:40:05.000Z</time>
      </trkpt>
      <trkpt lat="47.53595" lon="6.74398">
        <ele>412</ele>
        <time>2016-09-25T09:40:06.000Z</time>
      </trkpt>
      <trkpt lat="47.53597" lon="6.74404">
        <ele>412</ele>
        <time>2016-09-25T09:40:08.000Z</time>
      </trkpt>
      <trkpt lat="47.53597" lon="6.74406">
        <ele>412</ele>
        <time>2016-09-25T09:40:09.000Z</time>
      </trkpt>
      <trkpt lat="47.53598" lon="6.74411">
        <ele>413</ele>
        <time>2016-09-25T09:40:11.000Z</time>
      </trkpt>
      <trkpt lat="47.53598" lon="6.74414">
        <ele>413</ele>
        <time>2016-09-25T09:40:12.000Z</time>
      </trkpt>
      <trkpt lat="47.53599" lon="6.74419">
        <ele>415</ele>
        <time>2016-09-25T09:40:14.000Z</time>
      </trkpt>
      <trkpt lat="47.536" lon="6.74421">
        <ele>415</ele>
        <time>2016-09-25T09:40:15.000Z</time>
      </trkpt>
      <trkpt lat="47.53601" lon="6.74427">
        <ele>414</ele>
        <time>2016-09-25T09:40:17.000Z</time>
      </trkpt>
      <trkpt lat="47.53601" lon="6.74429">
        <ele>414</ele>
        <time>2016-09-25T09:40:18.000Z</time>
      </trkpt>
      <trkpt lat="47.53602" lon="6.74435">
        <ele>414</ele>
        <time>2016-09-25T09:40:20.000Z</time>
      </trkpt>
      <trkpt lat="47.53603" lon="6.74438">
        <ele>414</ele>
        <time>2016-09-25T09:40:21.000Z</time>
      </trkpt>
      <trkpt lat="47.53605" lon="6.74443">
        <ele>414</ele>
        <time>2016-09-25T09:40:23.000Z</time>
      </trkpt>
      <trkpt lat="47.53606" lon="6.74447">
        <ele>414</ele>
        <time>2016-09-25T09:40:24.000Z</time>
      </trkpt>
      <trkpt lat="47.53607" lon="6.7445">
        <ele>414</ele>
        <time>2016-09-25T09:40:25.000Z</time>
      </trkpt>
      <trkpt lat="47.53608" lon="6.74453">
        <ele>414</ele>
        <time>2016-09-25T09:40:26.000Z</time>
      </trkpt>
      <trkpt lat="47.5361" lon="6.74457">
        <ele>414</ele>
        <time>2016-09-25T09:40:27.000Z</time>
      </trkpt>
      <trkpt lat="47.53611" lon="6.7446">
        <ele>414</ele>
        <time>2016-09-25T09:40:28.000Z</time>
      </trkpt>
      <trkpt lat="47.53612" lon="6.74464">
        <ele>414</ele>
        <time>2016-09-25T09:40:29.000Z</time>
      </trkpt>
      <trkpt lat="47.53615" lon="6.74469">
        <ele>414</ele>
        <time>2016-09-25T09:40:31.000Z</time>
      </trkpt>
      <trkpt lat="47.53616" lon="6.74472">
        <ele>414</ele>
        <time>2016-09-25T09:40:32.000Z</time>
      </trkpt>
      <trkpt lat="47.53618" lon="6.74474">
        <ele>414</ele>
        <time>2016-09-25T09:40:33.000Z</time>
      </trkpt>
      <trkpt lat="47.5362" lon="6.7448">
        <ele>414</ele>
        <time>2016-09-25T09:40:38.000Z</time>
      </trkpt>
      <trkpt lat="47.53621" lon="6.74483">
        <ele>414</ele>
        <time>2016-09-25T09:40:39.000Z</time>
      </trkpt>
      <trkpt lat="47.53623" lon="6.74488">
        <ele>414</ele>
        <time>2016-09-25T09:40:41.000Z</time>
      </trkpt>
      <trkpt lat="47.53623" lon="6.74491">
        <ele>414</ele>
        <time>2016-09-25T09:40:42.000Z</time>
      </trkpt>
      <trkpt lat="47.53623" lon="6.74497">
        <ele>414</ele>
        <time>2016-09-25T09:40:44.000Z</time>
      </trkpt>
      <trkpt lat="47.53624" lon="6.745">
        <ele>414</ele>
        <time>2016-09-25T09:40:45.000Z</time>
      </trkpt>
      <trkpt lat="47.53625" lon="6.74505">
        <ele>418</ele>
        <time>2016-09-25T09:40:47.000Z</time>
      </trkpt>
      <trkpt lat="47.53626" lon="6.74508">
        <ele>418</ele>
        <time>2016-09-25T09:40:48.000Z</time>
      </trkpt>
      <trkpt lat="47.53627" lon="6.74513">
        <ele>418</ele>
        <time>2016-09-25T09:40:50.000Z</time>
      </trkpt>
      <trkpt lat="47.53627" lon="6.74515">
        <ele>418</ele>
        <time>2016-09-25T09:40:51.000Z</time>
      </trkpt>
      <trkpt lat="47.53627" lon="6.7452">
        <ele>418</ele>
        <time>2016-09-25T09:40:53.000Z</time>
      </trkpt>
      <trkpt lat="47.53628" lon="6.74522">
        <ele>418</ele>
        <time>2016-09-25T09:40:54.000Z</time>
      </trkpt>
      <trkpt lat="47.53629" lon="6.74528">
        <ele>418</ele>
        <time>2016-09-25T09:40:57.000Z</time>
      </trkpt>
      <trkpt lat="47.5363" lon="6.74531">
        <ele>418</ele>
        <time>2016-09-25T09:40:58.000Z</time>
      </trkpt>
      <trkpt lat="47.53632" lon="6.74536">
        <ele>418</ele>
        <time>2016-09-25T09:41:00.000Z</time>
      </trkpt>
      <trkpt lat="47.53633" lon="6.74539">
        <ele>418</ele>
        <time>2016-09-25T09:41:01.000Z</time>
      </trkpt>
      <trkpt lat="47.53635" lon="6.74545">
        <ele>418</ele>
        <time>2016-09-25T09:41:03.000Z</time>
      </trkpt>
      <trkpt lat="47.53635" lon="6.74548">
        <ele>418</ele>
        <time>2016-09-25T09:41:04.000Z</time>
      </trkpt>
      <trkpt lat="47.53635" lon="6.74553">
        <ele>418</ele>
        <time>2016-09-25T09:41:06.000Z</time>
      </trkpt>
      <trkpt lat="47.53636" lon="6.74556">
        <ele>418</ele>
        <time>2016-09-25T09:41:07.000Z</time>
      </trkpt>
      <trkpt lat="47.53637" lon="6.74562">
        <ele>419</ele>
        <time>2016-09-25T09:41:10.000Z</time>
      </trkpt>
      <trkpt lat="47.53636" lon="6.74564">
        <ele>419</ele>
        <time>2016-09-25T09:41:11.000Z</time>
      </trkpt>
      <trkpt lat="47.53636" lon="6.7457">
        <ele>419</ele>
        <time>2016-09-25T09:41:14.000Z</time>
      </trkpt>
      <trkpt lat="47.53636" lon="6.74572">
        <ele>419</ele>
        <time>2016-09-25T09:41:15.000Z</time>
      </trkpt>
      <trkpt lat="47.53636" lon="6.74578">
        <ele>419</ele>
        <time>2016-09-25T09:41:17.000Z</time>
      </trkpt>
      <trkpt lat="47.53637" lon="6.74581">
        <ele>419</ele>
        <time>2016-09-25T09:41:18.000Z</time>
      </trkpt>
      <trkpt lat="47.53637" lon="6.74585">
        <ele>423</ele>
        <time>2016-09-25T09:41:19.000Z</time>
      </trkpt>
      <trkpt lat="47.53637" lon="6.74589">
        <ele>423</ele>
        <time>2016-09-25T09:41:20.000Z</time>
      </trkpt>
      <trkpt lat="47.53637" lon="6.74595">
        <ele>423</ele>
        <time>2016-09-25T09:41:22.000Z</time>
      </trkpt>
      <trkpt lat="47.53637" lon="6.74597">
        <ele>423</ele>
        <time>2016-09-25T09:41:23.000Z</time>
      </trkpt>
      <trkpt lat="47.53637" lon="6.74604">
        <ele>423</ele>
        <time>2016-09-25T09:41:25.000Z</time>
      </trkpt>
      <trkpt lat="47.53638" lon="6.74608">
        <ele>424</ele>
        <time>2016-09-25T09:41:26.000Z</time>
      </trkpt>
      <trkpt lat="47.53638" lon="6.74612">
        <ele>424</ele>
        <time>2016-09-25T09:41:27.000Z</time>
      </trkpt>
      <trkpt lat="47.53639" lon="6.74616">
        <ele>424</ele>
        <time>2016-09-25T09:41:28.000Z</time>
      </trkpt>
      <trkpt lat="47.5364" lon="6.7462">
        <ele>424</ele>
        <time>2016-09-25T09:41:29.000Z</time>
      </trkpt>
      <trkpt lat="47.5364" lon="6.74623">
        <ele>424</ele>
        <time>2016-09-25T09:41:30.000Z</time>
      </trkpt>
      <trkpt lat="47.53641" lon="6.74626">
        <ele>424</ele>
        <time>2016-09-25T09:41:31.000Z</time>
      </trkpt>
      <trkpt lat="47.53641" lon="6.7463">
        <ele>424</ele>
        <time>2016-09-25T09:41:32.000Z</time>
      </trkpt>
      <trkpt lat="47.53642" lon="6.74636">
        <ele>424</ele>
        <time>2016-09-25T09:41:34.000Z</time>
      </trkpt>
      <trkpt lat="47.53642" lon="6.74638">
        <ele>424</ele>
        <time>2016-09-25T09:41:35.000Z</time>
      </trkpt>
      <trkpt lat="47.53643" lon="6.74643">
        <ele>424</ele>
        <time>2016-09-25T09:41:37.000Z</time>
      </trkpt>
      <trkpt lat="47.53643" lon="6.74646">
        <ele>424</ele>
        <time>2016-09-25T09:41:38.000Z</time>
      </trkpt>
      <trkpt lat="47.53644" lon="6.74651">
        <ele>424</ele>
        <time>2016-09-25T09:41:40.000Z</time>
      </trkpt>
      <trkpt lat="47.53644" lon="6.74653">
        <ele>424</ele>
        <time>2016-09-25T09:41:41.000Z</time>
      </trkpt>
      <trkpt lat="47.53643" lon="6.74657">
        <ele>424</ele>
        <time>2016-09-25T09:41:43.000Z</time>
      </trkpt>
      <trkpt lat="47.53643" lon="6.7466">
        <ele>424</ele>
        <time>2016-09-25T09:41:44.000Z</time>
      </trkpt>
      <trkpt lat="47.53643" lon="6.74666">
        <ele>424</ele>
        <time>2016-09-25T09:41:46.000Z</time>
      </trkpt>
      <trkpt lat="47.53642" lon="6.74669">
        <ele>428</ele>
        <time>2016-09-25T09:41:47.000Z</time>
      </trkpt>
      <trkpt lat="47.53641" lon="6.74673">
        <ele>428</ele>
        <time>2016-09-25T09:41:48.000Z</time>
      </trkpt>
      <trkpt lat="47.53641" lon="6.74676">
        <ele>429</ele>
        <time>2016-09-25T09:41:49.000Z</time>
      </trkpt>
      <trkpt lat="47.5364" lon="6.7468">
        <ele>429</ele>
        <time>2016-09-25T09:41:50.000Z</time>
      </trkpt>
      <trkpt lat="47.53639" lon="6.74684">
        <ele>429</ele>
        <time>2016-09-25T09:41:51.000Z</time>
      </trkpt>
      <trkpt lat="47.53638" lon="6.74688">
        <ele>430</ele>
        <time>2016-09-25T09:41:52.000Z</time>
      </trkpt>
      <trkpt lat="47.53638" lon="6.74692">
        <ele>430</ele>
        <time>2016-09-25T09:41:53.000Z</time>
      </trkpt>
      <trkpt lat="47.53638" lon="6.74696">
        <ele>430</ele>
        <time>2016-09-25T09:41:54.000Z</time>
      </trkpt>
      <trkpt lat="47.53638" lon="6.74699">
        <ele>431</ele>
        <time>2016-09-25T09:41:55.000Z</time>
      </trkpt>
      <trkpt lat="47.53638" lon="6.74704">
        <ele>431</ele>
        <time>2016-09-25T09:41:57.000Z</time>
      </trkpt>
      <trkpt lat="47.53638" lon="6.74707">
        <ele>431</ele>
        <time>2016-09-25T09:41:58.000Z</time>
      </trkpt>
      <trkpt lat="47.5364" lon="6.74712">
        <ele>431</ele>
        <time>2016-09-25T09:42:00.000Z</time>
      </trkpt>
      <trkpt lat="47.53641" lon="6.74714">
        <ele>431</ele>
        <time>2016-09-25T09:42:01.000Z</time>
      </trkpt>
      <trkpt lat="47.53641" lon="6.74719">
        <ele>431</ele>
        <time>2016-09-25T09:42:03.000Z</time>
      </trkpt>
      <trkpt lat="47.53641" lon="6.74722">
        <ele>431</ele>
        <time>2016-09-25T09:42:04.000Z</time>
      </trkpt>
      <trkpt lat="47.53641" lon="6.74726">
        <ele>431</ele>
        <time>2016-09-25T09:42:05.000Z</time>
      </trkpt>
      <trkpt lat="47.53642" lon="6.7473">
        <ele>431</ele>
        <time>2016-09-25T09:42:06.000Z</time>
      </trkpt>
      <trkpt lat="47.53642" lon="6.74734">
        <ele>431</ele>
        <time>2016-09-25T09:42:07.000Z</time>
      </trkpt>
      <trkpt lat="47.53642" lon="6.74737">
        <ele>431</ele>
        <time>2016-09-25T09:42:08.000Z</time>
      </trkpt>
      <trkpt lat="47.53642" lon="6.74743">
        <ele>431</ele>
        <time>2016-09-25T09:42:10.000Z</time>
      </trkpt>
      <trkpt lat="47.53642" lon="6.74745">
        <ele>431</ele>
        <time>2016-09-25T09:42:11.000Z</time>
      </trkpt>
      <trkpt lat="47.53643" lon="6.74752">
        <ele>434</ele>
        <time>2016-09-25T09:42:13.000Z</time>
      </trkpt>
      <trkpt lat="47.53643" lon="6.74756">
        <ele>434</ele>
        <time>2016-09-25T09:42:14.000Z</time>
      </trkpt>
      <trkpt lat="47.53644" lon="6.74759">
        <ele>434</ele>
        <time>2016-09-25T09:42:15.000Z</time>
      </trkpt>
      <trkpt lat="47.53645" lon="6.74763">
        <ele>434</ele>
        <time>2016-09-25T09:42:16.000Z</time>
      </trkpt>
      <trkpt lat="47.53645" lon="6.74766">
        <ele>434</ele>
        <time>2016-09-25T09:42:17.000Z</time>
      </trkpt>
      <trkpt lat="47.53645" lon="6.7477">
        <ele>434</ele>
        <time>2016-09-25T09:42:18.000Z</time>
      </trkpt>
      <trkpt lat="47.53646" lon="6.74773">
        <ele>434</ele>
        <time>2016-09-25T09:42:19.000Z</time>
      </trkpt>
      <trkpt lat="47.53646" lon="6.74777">
        <ele>434</ele>
        <time>2016-09-25T09:42:20.000Z</time>
      </trkpt>
      <trkpt lat="47.53647" lon="6.74781">
        <ele>435</ele>
        <time>2016-09-25T09:42:21.000Z</time>
      </trkpt>
      <trkpt lat="47.53647" lon="6.74785">
        <ele>435</ele>
        <time>2016-09-25T09:42:22.000Z</time>
      </trkpt>
      <trkpt lat="47.53648" lon="6.74789">
        <ele>435</ele>
        <time>2016-09-25T09:42:23.000Z</time>
      </trkpt>
      <trkpt lat="47.53649" lon="6.74793">
        <ele>435</ele>
        <time>2016-09-25T09:42:24.000Z</time>
      </trkpt>
      <trkpt lat="47.53649" lon="6.74798">
        <ele>435</ele>
        <time>2016-09-25T09:42:25.000Z</time>
      </trkpt>
      <trkpt lat="47.53649" lon="6.74802">
        <ele>435</ele>
        <time>2016-09-25T09:42:26.000Z</time>
      </trkpt>
      <trkpt lat="47.5365" lon="6.74806">
        <ele>435</ele>
        <time>2016-09-25T09:42:27.000Z</time>
      </trkpt>
      <trkpt lat="47.5365" lon="6.7481">
        <ele>435</ele>
        <time>2016-09-25T09:42:28.000Z</time>
      </trkpt>
      <trkpt lat="47.53651" lon="6.74814">
        <ele>435</ele>
        <time>2016-09-25T09:42:29.000Z</time>
      </trkpt>
      <trkpt lat="47.53651" lon="6.74818">
        <ele>435</ele>
        <time>2016-09-25T09:42:30.000Z</time>
      </trkpt>
      <trkpt lat="47.53652" lon="6.74821">
        <ele>434</ele>
        <time>2016-09-25T09:42:31.000Z</time>
      </trkpt>
      <trkpt lat="47.53653" lon="6.74826">
        <ele>434</ele>
        <time>2016-09-25T09:42:32.000Z</time>
      </trkpt>
      <trkpt lat="47.53654" lon="6.74831">
        <ele>434</ele>
        <time>2016-09-25T09:42:33.000Z</time>
      </trkpt>
      <trkpt lat="47.53655" lon="6.74836">
        <ele>435</ele>
        <time>2016-09-25T09:42:34.000Z</time>
      </trkpt>
      <trkpt lat="47.53655" lon="6.7484">
        <ele>435</ele>
        <time>2016-09-25T09:42:35.000Z</time>
      </trkpt>
      <trkpt lat="47.53656" lon="6.74844">
        <ele>435</ele>
        <time>2016-09-25T09:42:36.000Z</time>
      </trkpt>
      <trkpt lat="47.53657" lon="6.7485">
        <ele>436</ele>
        <time>2016-09-25T09:42:38.000Z</time>
      </trkpt>
      <trkpt lat="47.53658" lon="6.74852">
        <ele>436</ele>
        <time>2016-09-25T09:42:39.000Z</time>
      </trkpt>
      <trkpt lat="47.53659" lon="6.74858">
        <ele>437</ele>
        <time>2016-09-25T09:42:41.000Z</time>
      </trkpt>
      <trkpt lat="47.53661" lon="6.74861">
        <ele>437</ele>
        <time>2016-09-25T09:42:42.000Z</time>
      </trkpt>
      <trkpt lat="47.53662" lon="6.74864">
        <ele>437</ele>
        <time>2016-09-25T09:42:43.000Z</time>
      </trkpt>
      <trkpt lat="47.53663" lon="6.74867">
        <ele>437</ele>
        <time>2016-09-25T09:42:44.000Z</time>
      </trkpt>
      <trkpt lat="47.53664" lon="6.74871">
        <ele>437</ele>
        <time>2016-09-25T09:42:45.000Z</time>
      </trkpt>
      <trkpt lat="47.53665" lon="6.74875">
        <ele>438</ele>
        <time>2016-09-25T09:42:46.000Z</time>
      </trkpt>
      <trkpt lat="47.53666" lon="6.74879">
        <ele>438</ele>
        <time>2016-09-25T09:42:47.000Z</time>
      </trkpt>
      <trkpt lat="47.53668" lon="6.74884">
        <ele>434</ele>
        <time>2016-09-25T09:42:48.000Z</time>
      </trkpt>
      <trkpt lat="47.53668" lon="6.74889">
        <ele>435</ele>
        <time>2016-09-25T09:42:49.000Z</time>
      </trkpt>
      <trkpt lat="47.53669" lon="6.74893">
        <ele>435</ele>
        <time>2016-09-25T09:42:50.000Z</time>
      </trkpt>
      <trkpt lat="47.5367" lon="6.74898">
        <ele>435</ele>
        <time>2016-09-25T09:42:51.000Z</time>
      </trkpt>
      <trkpt lat="47.53671" lon="6.74903">
        <ele>436</ele>
        <time>2016-09-25T09:42:52.000Z</time>
      </trkpt>
      <trkpt lat="47.53672" lon="6.74909">
        <ele>436</ele>
        <time>2016-09-25T09:42:53.000Z</time>
      </trkpt>
      <trkpt lat="47.53675" lon="6.74915">
        <ele>437</ele>
        <time>2016-09-25T09:42:54.000Z</time>
      </trkpt>
      <trkpt lat="47.53677" lon="6.74921">
        <ele>437</ele>
        <time>2016-09-25T09:42:55.000Z</time>
      </trkpt>
      <trkpt lat="47.53679" lon="6.74926">
        <ele>437</ele>
        <time>2016-09-25T09:42:56.000Z</time>
      </trkpt>
      <trkpt lat="47.53681" lon="6.74931">
        <ele>437</ele>
        <time>2016-09-25T09:42:57.000Z</time>
      </trkpt>
      <trkpt lat="47.53682" lon="6.74936">
        <ele>437</ele>
        <time>2016-09-25T09:42:58.000Z</time>
      </trkpt>
      <trkpt lat="47.53684" lon="6.74941">
        <ele>437</ele>
        <time>2016-09-25T09:42:59.000Z</time>
      </trkpt>
      <trkpt lat="47.53685" lon="6.74946">
        <ele>437</ele>
        <time>2016-09-25T09:43:00.000Z</time>
      </trkpt>
      <trkpt lat="47.53686" lon="6.7495">
        <ele>437</ele>
        <time>2016-09-25T09:43:01.000Z</time>
      </trkpt>
      <trkpt lat="47.53687" lon="6.74958">
        <ele>437</ele>
        <time>2016-09-25T09:43:03.000Z</time>
      </trkpt>
      <trkpt lat="47.53687" lon="6.74962">
        <ele>437</ele>
        <time>2016-09-25T09:43:04.000Z</time>
      </trkpt>
      <trkpt lat="47.53688" lon="6.74966">
        <ele>437</ele>
        <time>2016-09-25T09:43:05.000Z</time>
      </trkpt>
      <trkpt lat="47.53689" lon="6.7497">
        <ele>437</ele>
        <time>2016-09-25T09:43:06.000Z</time>
      </trkpt>
      <trkpt lat="47.5369" lon="6.74974">
        <ele>437</ele>
        <time>2016-09-25T09:43:07.000Z</time>
      </trkpt>
      <trkpt lat="47.53691" lon="6.74977">
        <ele>437</ele>
        <time>2016-09-25T09:43:08.000Z</time>
      </trkpt>
      <trkpt lat="47.53692" lon="6.7498">
        <ele>437</ele>
        <time>2016-09-25T09:43:09.000Z</time>
      </trkpt>
      <trkpt lat="47.53694" lon="6.74986">
        <ele>437</ele>
        <time>2016-09-25T09:43:11.000Z</time>
      </trkpt>
      <trkpt lat="47.53695" lon="6.74989">
        <ele>437</ele>
        <time>2016-09-25T09:43:12.000Z</time>
      </trkpt>
      <trkpt lat="47.53696" lon="6.74992">
        <ele>437</ele>
        <time>2016-09-25T09:43:13.000Z</time>
      </trkpt>
      <trkpt lat="47.53697" lon="6.74996">
        <ele>437</ele>
        <time>2016-09-25T09:43:14.000Z</time>
      </trkpt>
      <trkpt lat="47.53698" lon="6.75">
        <ele>437</ele>
        <time>2016-09-25T09:43:15.000Z</time>
      </trkpt>
      <trkpt lat="47.53699" lon="6.75004">
        <ele>438</ele>
        <time>2016-09-25T09:43:16.000Z</time>
      </trkpt>
      <trkpt lat="47.537" lon="6.75007">
        <ele>438</ele>
        <time>2016-09-25T09:43:17.000Z</time>
      </trkpt>
      <trkpt lat="47.53701" lon="6.7501">
        <ele>438</ele>
        <time>2016-09-25T09:43:18.000Z</time>
      </trkpt>
      <trkpt lat="47.53702" lon="6.75016">
        <ele>438</ele>
        <time>2016-09-25T09:43:20.000Z</time>
      </trkpt>
      <trkpt lat="47.53703" lon="6.7502">
        <ele>438</ele>
        <time>2016-09-25T09:43:21.000Z</time>
      </trkpt>
      <trkpt lat="47.53704" lon="6.75024">
        <ele>437</ele>
        <time>2016-09-25T09:43:22.000Z</time>
      </trkpt>
      <trkpt lat="47.53705" lon="6.75028">
        <ele>437</ele>
        <time>2016-09-25T09:43:23.000Z</time>
      </trkpt>
      <trkpt lat="47.53706" lon="6.75032">
        <ele>437</ele>
        <time>2016-09-25T09:43:24.000Z</time>
      </trkpt>
      <trkpt lat="47.53707" lon="6.75036">
        <ele>437</ele>
        <time>2016-09-25T09:43:25.000Z</time>
      </trkpt>
      <trkpt lat="47.53708" lon="6.7504">
        <ele>437</ele>
        <time>2016-09-25T09:43:26.000Z</time>
      </trkpt>
      <trkpt lat="47.53709" lon="6.75044">
        <ele>437</ele>
        <time>2016-09-25T09:43:27.000Z</time>
      </trkpt>
      <trkpt lat="47.53711" lon="6.75049">
        <ele>437</ele>
        <time>2016-09-25T09:43:31.000Z</time>
      </trkpt>
      <trkpt lat="47.53712" lon="6.7505">
        <ele>437</ele>
        <time>2016-09-25T09:43:32.000Z</time>
      </trkpt>
      <trkpt lat="47.53708" lon="6.75054">
        <ele>437</ele>
        <time>2016-09-25T09:43:40.000Z</time>
      </trkpt>
      <trkpt lat="47.53707" lon="6.75054">
        <ele>437</ele>
        <time>2016-09-25T09:43:41.000Z</time>
      </trkpt>
      <trkpt lat="47.53706" lon="6.75059">
        <ele>437</ele>
        <time>2016-09-25T09:43:48.000Z</time>
      </trkpt>
      <trkpt lat="47.53705" lon="6.75061">
        <ele>437</ele>
        <time>2016-09-25T09:43:49.000Z</time>
      </trkpt>
      <trkpt lat="47.53702" lon="6.75065">
        <ele>438</ele>
        <time>2016-09-25T09:43:53.000Z</time>
      </trkpt>
      <trkpt lat="47.53701" lon="6.75065">
        <ele>438</ele>
        <time>2016-09-25T09:43:54.000Z</time>
      </trkpt>
      <trkpt lat="47.537" lon="6.7507">
        <ele>438</ele>
        <time>2016-09-25T09:44:01.000Z</time>
      </trkpt>
      <trkpt lat="47.53701" lon="6.75072">
        <ele>438</ele>
        <time>2016-09-25T09:44:02.000Z</time>
      </trkpt>
      <trkpt lat="47.53705" lon="6.75074">
        <ele>438</ele>
        <time>2016-09-25T09:44:04.000Z</time>
      </trkpt>
      <trkpt lat="47.53708" lon="6.75075">
        <ele>437</ele>
        <time>2016-09-25T09:44:05.000Z</time>
      </trkpt>
      <trkpt lat="47.53711" lon="6.75075">
        <ele>437</ele>
        <time>2016-09-25T09:44:06.000Z</time>
      </trkpt>
      <trkpt lat="47.53714" lon="6.75075">
        <ele>437</ele>
        <time>2016-09-25T09:44:07.000Z</time>
      </trkpt>
      <trkpt lat="47.53717" lon="6.75075">
        <ele>437</ele>
        <time>2016-09-25T09:44:08.000Z</time>
      </trkpt>
      <trkpt lat="47.5372" lon="6.75074">
        <ele>437</ele>
        <time>2016-09-25T09:44:09.000Z</time>
      </trkpt>
      <trkpt lat="47.53723" lon="6.75072">
        <ele>436</ele>
        <time>2016-09-25T09:44:10.000Z</time>
      </trkpt>
      <trkpt lat="47.53726" lon="6.75068">
        <ele>436</ele>
        <time>2016-09-25T09:44:11.000Z</time>
      </trkpt>
      <trkpt lat="47.53728" lon="6.75064">
        <ele>436</ele>
        <time>2016-09-25T09:44:12.000Z</time>
      </trkpt>
      <trkpt lat="47.53731" lon="6.7506">
        <ele>436</ele>
        <time>2016-09-25T09:44:13.000Z</time>
      </trkpt>
      <trkpt lat="47.53734" lon="6.75059">
        <ele>436</ele>
        <time>2016-09-25T09:44:14.000Z</time>
      </trkpt>
      <trkpt lat="47.53736" lon="6.7506">
        <ele>436</ele>
        <time>2016-09-25T09:44:15.000Z</time>
      </trkpt>
      <trkpt lat="47.53738" lon="6.75063">
        <ele>436</ele>
        <time>2016-09-25T09:44:16.000Z</time>
      </trkpt>
      <trkpt lat="47.53739" lon="6.75067">
        <ele>436</ele>
        <time>2016-09-25T09:44:17.000Z</time>
      </trkpt>
      <trkpt lat="47.53739" lon="6.75071">
        <ele>435</ele>
        <time>2016-09-25T09:44:18.000Z</time>
      </trkpt>
      <trkpt lat="47.53741" lon="6.75075">
        <ele>435</ele>
        <time>2016-09-25T09:44:19.000Z</time>
      </trkpt>
      <trkpt lat="47.53743" lon="6.75078">
        <ele>435</ele>
        <time>2016-09-25T09:44:20.000Z</time>
      </trkpt>
      <trkpt lat="47.53746" lon="6.75082">
        <ele>434</ele>
        <time>2016-09-25T09:44:21.000Z</time>
      </trkpt>
      <trkpt lat="47.5375" lon="6.75085">
        <ele>434</ele>
        <time>2016-09-25T09:44:22.000Z</time>
      </trkpt>
      <trkpt lat="47.53753" lon="6.75089">
        <ele>434</ele>
        <time>2016-09-25T09:44:23.000Z</time>
      </trkpt>
      <trkpt lat="47.53756" lon="6.75093">
        <ele>434</ele>
        <time>2016-09-25T09:44:24.000Z</time>
      </trkpt>
      <trkpt lat="47.53759" lon="6.75097">
        <ele>435</ele>
        <time>2016-09-25T09:44:25.000Z</time>
      </trkpt>
      <trkpt lat="47.53762" lon="6.751">
        <ele>435</ele>
        <time>2016-09-25T09:44:26.000Z</time>
      </trkpt>
      <trkpt lat="47.53764" lon="6.75104">
        <ele>435</ele>
        <time>2016-09-25T09:44:27.000Z</time>
      </trkpt>
      <trkpt lat="47.53766" lon="6.75108">
        <ele>435</ele>
        <time>2016-09-25T09:44:28.000Z</time>
      </trkpt>
      <trkpt lat="47.53768" lon="6.75111">
        <ele>435</ele>
        <time>2016-09-25T09:44:29.000Z</time>
      </trkpt>
      <trkpt lat="47.5377" lon="6.75115">
        <ele>435</ele>
        <time>2016-09-25T09:44:30.000Z</time>
      </trkpt>
      <trkpt lat="47.53771" lon="6.75118">
        <ele>435</ele>
        <time>2016-09-25T09:44:31.000Z</time>
      </trkpt>
      <trkpt lat="47.53774" lon="6.75124">
        <ele>435</ele>
        <time>2016-09-25T09:44:33.000Z</time>
      </trkpt>
      <trkpt lat="47.53775" lon="6.75126">
        <ele>435</ele>
        <time>2016-09-25T09:44:34.000Z</time>
      </trkpt>
      <trkpt lat="47.53778" lon="6.7513">
        <ele>435</ele>
        <time>2016-09-25T09:44:38.000Z</time>
      </trkpt>
      <trkpt lat="47.53779" lon="6.7513">
        <ele>435</ele>
        <time>2016-09-25T09:44:39.000Z</time>
      </trkpt>
      <trkpt lat="47.53781" lon="6.75134">
        <ele>435</ele>
        <time>2016-09-25T09:44:46.000Z</time>
      </trkpt>
      <trkpt lat="47.53782" lon="6.75135">
        <ele>435</ele>
        <time>2016-09-25T09:44:47.000Z</time>
      </trkpt>
      <trkpt lat="47.53784" lon="6.75138">
        <ele>435</ele>
        <time>2016-09-25T09:44:49.000Z</time>
      </trkpt>
      <trkpt lat="47.53784" lon="6.75141">
        <ele>435</ele>
        <time>2016-09-25T09:44:50.000Z</time>
      </trkpt>
      <trkpt lat="47.53786" lon="6.75144">
        <ele>435</ele>
        <time>2016-09-25T09:44:51.000Z</time>
      </trkpt>
      <trkpt lat="47.53787" lon="6.75148">
        <ele>435</ele>
        <time>2016-09-25T09:44:52.000Z</time>
      </trkpt>
      <trkpt lat="47.53789" lon="6.75152">
        <ele>435</ele>
        <time>2016-09-25T09:44:53.000Z</time>
      </trkpt>
      <trkpt lat="47.53792" lon="6.75157">
        <ele>435</ele>
        <time>2016-09-25T09:44:54.000Z</time>
      </trkpt>
      <trkpt lat="47.53795" lon="6.75161">
        <ele>435</ele>
        <time>2016-09-25T09:44:55.000Z</time>
      </trkpt>
      <trkpt lat="47.53797" lon="6.75165">
        <ele>435</ele>
        <time>2016-09-25T09:44:56.000Z</time>
      </trkpt>
      <trkpt lat="47.53799" lon="6.75169">
        <ele>436</ele>
        <time>2016-09-25T09:44:57.000Z</time>
      </trkpt>
      <trkpt lat="47.53802" lon="6.75173">
        <ele>436</ele>
        <time>2016-09-25T09:44:58.000Z</time>
      </trkpt>
      <trkpt lat="47.53805" lon="6.75177">
        <ele>436</ele>
        <time>2016-09-25T09:44:59.000Z</time>
      </trkpt>
      <trkpt lat="47.53813" lon="6.75183">
        <ele>436</ele>
        <time>2016-09-25T09:45:00.000Z</time>
      </trkpt>
      <trkpt lat="47.53816" lon="6.75188">
        <ele>436</ele>
        <time>2016-09-25T09:45:01.000Z</time>
      </trkpt>
      <trkpt lat="47.53821" lon="6.75193">
        <ele>436</ele>
        <time>2016-09-25T09:45:02.000Z</time>
      </trkpt>
      <trkpt lat="47.53823" lon="6.75197">
        <ele>436</ele>
        <time>2016-09-25T09:45:03.000Z</time>
      </trkpt>
      <trkpt lat="47.53824" lon="6.75202">
        <ele>436</ele>
        <time>2016-09-25T09:45:04.000Z</time>
      </trkpt>
      <trkpt lat="47.53826" lon="6.75209">
        <ele>436</ele>
        <time>2016-09-25T09:45:05.000Z</time>
      </trkpt>
      <trkpt lat="47.53828" lon="6.75215">
        <ele>436</ele>
        <time>2016-09-25T09:45:06.000Z</time>
      </trkpt>
      <trkpt lat="47.5383" lon="6.75219">
        <ele>436</ele>
        <time>2016-09-25T09:45:07.000Z</time>
      </trkpt>
      <trkpt lat="47.53832" lon="6.75224">
        <ele>436</ele>
        <time>2016-09-25T09:45:08.000Z</time>
      </trkpt>
      <trkpt lat="47.53834" lon="6.75229">
        <ele>436</ele>
        <time>2016-09-25T09:45:09.000Z</time>
      </trkpt>
      <trkpt lat="47.53837" lon="6.75234">
        <ele>436</ele>
        <time>2016-09-25T09:45:10.000Z</time>
      </trkpt>
      <trkpt lat="47.53839" lon="6.75238">
        <ele>436</ele>
        <time>2016-09-25T09:45:11.000Z</time>
      </trkpt>
      <trkpt lat="47.53841" lon="6.75242">
        <ele>436</ele>
        <time>2016-09-25T09:45:12.000Z</time>
      </trkpt>
      <trkpt lat="47.53842" lon="6.75246">
        <ele>436</ele>
        <time>2016-09-25T09:45:13.000Z</time>
      </trkpt>
      <trkpt lat="47.53844" lon="6.7525">
        <ele>436</ele>
        <time>2016-09-25T09:45:14.000Z</time>
      </trkpt>
      <trkpt lat="47.53845" lon="6.75254">
        <ele>436</ele>
        <time>2016-09-25T09:45:15.000Z</time>
      </trkpt>
      <trkpt lat="47.53846" lon="6.75258">
        <ele>436</ele>
        <time>2016-09-25T09:45:16.000Z</time>
      </trkpt>
      <trkpt lat="47.53847" lon="6.75261">
        <ele>436</ele>
        <time>2016-09-25T09:45:17.000Z</time>
      </trkpt>
      <trkpt lat="47.53848" lon="6.75264">
        <ele>437</ele>
        <time>2016-09-25T09:45:18.000Z</time>
      </trkpt>
      <trkpt lat="47.53848" lon="6.75267">
        <ele>437</ele>
        <time>2016-09-25T09:45:19.000Z</time>
      </trkpt>
      <trkpt lat="47.53849" lon="6.7527">
        <ele>437</ele>
        <time>2016-09-25T09:45:20.000Z</time>
      </trkpt>
      <trkpt lat="47.5385" lon="6.75273">
        <ele>437</ele>
        <time>2016-09-25T09:45:21.000Z</time>
      </trkpt>
      <trkpt lat="47.53852" lon="6.75277">
        <ele>437</ele>
        <time>2016-09-25T09:45:22.000Z</time>
      </trkpt>
      <trkpt lat="47.53854" lon="6.75281">
        <ele>437</ele>
        <time>2016-09-25T09:45:23.000Z</time>
      </trkpt>
      <trkpt lat="47.53856" lon="6.75285">
        <ele>437</ele>
        <time>2016-09-25T09:45:24.000Z</time>
      </trkpt>
      <trkpt lat="47.53859" lon="6.7529">
        <ele>437</ele>
        <time>2016-09-25T09:45:25.000Z</time>
      </trkpt>
      <trkpt lat="47.53861" lon="6.75295">
        <ele>437</ele>
        <time>2016-09-25T09:45:26.000Z</time>
      </trkpt>
      <trkpt lat="47.53864" lon="6.753">
        <ele>437</ele>
        <time>2016-09-25T09:45:27.000Z</time>
      </trkpt>
      <trkpt lat="47.53868" lon="6.75305">
        <ele>437</ele>
        <time>2016-09-25T09:45:28.000Z</time>
      </trkpt>
      <trkpt lat="47.53872" lon="6.7531">
        <ele>437</ele>
        <time>2016-09-25T09:45:29.000Z</time>
      </trkpt>
      <trkpt lat="47.53875" lon="6.75315">
        <ele>437</ele>
        <time>2016-09-25T09:45:30.000Z</time>
      </trkpt>
      <trkpt lat="47.53877" lon="6.75318">
        <ele>437</ele>
        <time>2016-09-25T09:45:31.000Z</time>
      </trkpt>
      <trkpt lat="47.53879" lon="6.75322">
        <ele>437</ele>
        <time>2016-09-25T09:45:32.000Z</time>
      </trkpt>
      <trkpt lat="47.5388" lon="6.75326">
        <ele>437</ele>
        <time>2016-09-25T09:45:33.000Z</time>
      </trkpt>
      <trkpt lat="47.53882" lon="6.7533">
        <ele>437</ele>
        <time>2016-09-25T09:45:34.000Z</time>
      </trkpt>
      <trkpt lat="47.53886" lon="6.75335">
        <ele>437</ele>
        <time>2016-09-25T09:45:35.000Z</time>
      </trkpt>
      <trkpt lat="47.53889" lon="6.7534">
        <ele>437</ele>
        <time>2016-09-25T09:45:36.000Z</time>
      </trkpt>
      <trkpt lat="47.53892" lon="6.75345">
        <ele>437</ele>
        <time>2016-09-25T09:45:37.000Z</time>
      </trkpt>
      <trkpt lat="47.53896" lon="6.7535">
        <ele>437</ele>
        <time>2016-09-25T09:45:38.000Z</time>
      </trkpt>
      <trkpt lat="47.539" lon="6.75355">
        <ele>437</ele>
        <time>2016-09-25T09:45:39.000Z</time>
      </trkpt>
      <trkpt lat="47.53905" lon="6.7536">
        <ele>437</ele>
        <time>2016-09-25T09:45:40.000Z</time>
      </trkpt>
      <trkpt lat="47.53908" lon="6.75365">
        <ele>437</ele>
        <time>2016-09-25T09:45:41.000Z</time>
      </trkpt>
      <trkpt lat="47.53911" lon="6.75371">
        <ele>437</ele>
        <time>2016-09-25T09:45:42.000Z</time>
      </trkpt>
      <trkpt lat="47.53914" lon="6.75376">
        <ele>437</ele>
        <time>2016-09-25T09:45:43.000Z</time>
      </trkpt>
      <trkpt lat="47.53916" lon="6.75381">
        <ele>437</ele>
        <time>2016-09-25T09:45:44.000Z</time>
      </trkpt>
      <trkpt lat="47.53918" lon="6.75386">
        <ele>439</ele>
        <time>2016-09-25T09:45:45.000Z</time>
      </trkpt>
      <trkpt lat="47.5392" lon="6.75391">
        <ele>439</ele>
        <time>2016-09-25T09:45:46.000Z</time>
      </trkpt>
      <trkpt lat="47.53921" lon="6.75397">
        <ele>439</ele>
        <time>2016-09-25T09:45:47.000Z</time>
      </trkpt>
      <trkpt lat="47.53922" lon="6.75402">
        <ele>439</ele>
        <time>2016-09-25T09:45:48.000Z</time>
      </trkpt>
      <trkpt lat="47.53923" lon="6.75406">
        <ele>439</ele>
        <time>2016-09-25T09:45:49.000Z</time>
      </trkpt>
      <trkpt lat="47.53925" lon="6.75411">
        <ele>438</ele>
        <time>2016-09-25T09:45:50.000Z</time>
      </trkpt>
      <trkpt lat="47.53927" lon="6.75415">
        <ele>438</ele>
        <time>2016-09-25T09:45:51.000Z</time>
      </trkpt>
      <trkpt lat="47.53929" lon="6.7542">
        <ele>439</ele>
        <time>2016-09-25T09:45:52.000Z</time>
      </trkpt>
      <trkpt lat="47.5393" lon="6.75424">
        <ele>439</ele>
        <time>2016-09-25T09:45:53.000Z</time>
      </trkpt>
      <trkpt lat="47.53932" lon="6.75429">
        <ele>439</ele>
        <time>2016-09-25T09:45:54.000Z</time>
      </trkpt>
      <trkpt lat="47.53934" lon="6.75432">
        <ele>439</ele>
        <time>2016-09-25T09:45:55.000Z</time>
      </trkpt>
      <trkpt lat="47.53936" lon="6.75436">
        <ele>440</ele>
        <time>2016-09-25T09:45:56.000Z</time>
      </trkpt>
      <trkpt lat="47.53938" lon="6.75439">
        <ele>440</ele>
        <time>2016-09-25T09:45:57.000Z</time>
      </trkpt>
      <trkpt lat="47.53942" lon="6.75441">
        <ele>440</ele>
        <time>2016-09-25T09:45:58.000Z</time>
      </trkpt>
      <trkpt lat="47.53946" lon="6.75443">
        <ele>440</ele>
        <time>2016-09-25T09:45:59.000Z</time>
      </trkpt>
      <trkpt lat="47.53949" lon="6.75444">
        <ele>440</ele>
        <time>2016-09-25T09:46:00.000Z</time>
      </trkpt>
      <trkpt lat="47.53953" lon="6.75445">
        <ele>441</ele>
        <time>2016-09-25T09:46:01.000Z</time>
      </trkpt>
      <trkpt lat="47.53957" lon="6.75446">
        <ele>441</ele>
        <time>2016-09-25T09:46:02.000Z</time>
      </trkpt>
      <trkpt lat="47.53961" lon="6.75447">
        <ele>441</ele>
        <time>2016-09-25T09:46:03.000Z</time>
      </trkpt>
      <trkpt lat="47.53965" lon="6.7545">
        <ele>441</ele>
        <time>2016-09-25T09:46:04.000Z</time>
      </trkpt>
      <trkpt lat="47.53968" lon="6.75453">
        <ele>441</ele>
        <time>2016-09-25T09:46:05.000Z</time>
      </trkpt>
      <trkpt lat="47.5397" lon="6.75456">
        <ele>441</ele>
        <time>2016-09-25T09:46:06.000Z</time>
      </trkpt>
      <trkpt lat="47.53972" lon="6.75459">
        <ele>441</ele>
        <time>2016-09-25T09:46:07.000Z</time>
      </trkpt>
      <trkpt lat="47.53973" lon="6.75464">
        <ele>441</ele>
        <time>2016-09-25T09:46:08.000Z</time>
      </trkpt>
      <trkpt lat="47.53975" lon="6.75468">
        <ele>441</ele>
        <time>2016-09-25T09:46:09.000Z</time>
      </trkpt>
      <trkpt lat="47.53978" lon="6.75472">
        <ele>441</ele>
        <time>2016-09-25T09:46:10.000Z</time>
      </trkpt>
      <trkpt lat="47.5398" lon="6.75477">
        <ele>441</ele>
        <time>2016-09-25T09:46:11.000Z</time>
      </trkpt>
      <trkpt lat="47.53983" lon="6.75481">
        <ele>441</ele>
        <time>2016-09-25T09:46:12.000Z</time>
      </trkpt>
      <trkpt lat="47.53985" lon="6.75484">
        <ele>441</ele>
        <time>2016-09-25T09:46:13.000Z</time>
      </trkpt>
      <trkpt lat="47.53988" lon="6.75488">
        <ele>441</ele>
        <time>2016-09-25T09:46:14.000Z</time>
      </trkpt>
      <trkpt lat="47.5399" lon="6.75492">
        <ele>442</ele>
        <time>2016-09-25T09:46:15.000Z</time>
      </trkpt>
      <trkpt lat="47.53992" lon="6.75497">
        <ele>442</ele>
        <time>2016-09-25T09:46:16.000Z</time>
      </trkpt>
      <trkpt lat="47.53994" lon="6.75501">
        <ele>441</ele>
        <time>2016-09-25T09:46:17.000Z</time>
      </trkpt>
      <trkpt lat="47.53995" lon="6.75505">
        <ele>441</ele>
        <time>2016-09-25T09:46:18.000Z</time>
      </trkpt>
      <trkpt lat="47.53996" lon="6.7551">
        <ele>441</ele>
        <time>2016-09-25T09:46:19.000Z</time>
      </trkpt>
      <trkpt lat="47.53998" lon="6.75514">
        <ele>441</ele>
        <time>2016-09-25T09:46:20.000Z</time>
      </trkpt>
      <trkpt lat="47.54" lon="6.75519">
        <ele>441</ele>
        <time>2016-09-25T09:46:21.000Z</time>
      </trkpt>
      <trkpt lat="47.54002" lon="6.75523">
        <ele>443</ele>
        <time>2016-09-25T09:46:22.000Z</time>
      </trkpt>
      <trkpt lat="47.54004" lon="6.75527">
        <ele>443</ele>
        <time>2016-09-25T09:46:23.000Z</time>
      </trkpt>
      <trkpt lat="47.54007" lon="6.75531">
        <ele>443</ele>
        <time>2016-09-25T09:46:24.000Z</time>
      </trkpt>
      <trkpt lat="47.5401" lon="6.75534">
        <ele>443</ele>
        <time>2016-09-25T09:46:25.000Z</time>
      </trkpt>
      <trkpt lat="47.54013" lon="6.75537">
        <ele>443</ele>
        <time>2016-09-25T09:46:26.000Z</time>
      </trkpt>
      <trkpt lat="47.54016" lon="6.7554">
        <ele>443</ele>
        <time>2016-09-25T09:46:27.000Z</time>
      </trkpt>
      <trkpt lat="47.54019" lon="6.75544">
        <ele>443</ele>
        <time>2016-09-25T09:46:28.000Z</time>
      </trkpt>
      <trkpt lat="47.54021" lon="6.75549">
        <ele>443</ele>
        <time>2016-09-25T09:46:29.000Z</time>
      </trkpt>
      <trkpt lat="47.54024" lon="6.75553">
        <ele>443</ele>
        <time>2016-09-25T09:46:30.000Z</time>
      </trkpt>
      <trkpt lat="47.54027" lon="6.75557">
        <ele>443</ele>
        <time>2016-09-25T09:46:31.000Z</time>
      </trkpt>
      <trkpt lat="47.54029" lon="6.75561">
        <ele>443</ele>
        <time>2016-09-25T09:46:32.000Z</time>
      </trkpt>
      <trkpt lat="47.54031" lon="6.75565">
        <ele>443</ele>
        <time>2016-09-25T09:46:33.000Z</time>
      </trkpt>
      <trkpt lat="47.54034" lon="6.75569">
        <ele>443</ele>
        <time>2016-09-25T09:46:34.000Z</time>
      </trkpt>
      <trkpt lat="47.54036" lon="6.75573">
        <ele>443</ele>
        <time>2016-09-25T09:46:35.000Z</time>
      </trkpt>
      <trkpt lat="47.54039" lon="6.75578">
        <ele>443</ele>
        <time>2016-09-25T09:46:36.000Z</time>
      </trkpt>
      <trkpt lat="47.54042" lon="6.75582">
        <ele>443</ele>
        <time>2016-09-25T09:46:37.000Z</time>
      </trkpt>
      <trkpt lat="47.54045" lon="6.75586">
        <ele>442</ele>
        <time>2016-09-25T09:46:38.000Z</time>
      </trkpt>
      <trkpt lat="47.54048" lon="6.75591">
        <ele>442</ele>
        <time>2016-09-25T09:46:39.000Z</time>
      </trkpt>
      <trkpt lat="47.54051" lon="6.75596">
        <ele>443</ele>
        <time>2016-09-25T09:46:40.000Z</time>
      </trkpt>
      <trkpt lat="47.54054" lon="6.756">
        <ele>443</ele>
        <time>2016-09-25T09:46:41.000Z</time>
      </trkpt>
      <trkpt lat="47.54057" lon="6.75605">
        <ele>443</ele>
        <time>2016-09-25T09:46:42.000Z</time>
      </trkpt>
      <trkpt lat="47.5406" lon="6.7561">
        <ele>443</ele>
        <time>2016-09-25T09:46:43.000Z</time>
      </trkpt>
      <trkpt lat="47.54062" lon="6.75615">
        <ele>443</ele>
        <time>2016-09-25T09:46:44.000Z</time>
      </trkpt>
      <trkpt lat="47.54064" lon="6.7562">
        <ele>443</ele>
        <time>2016-09-25T09:46:45.000Z</time>
      </trkpt>
      <trkpt lat="47.54067" lon="6.75625">
        <ele>443</ele>
        <time>2016-09-25T09:46:46.000Z</time>
      </trkpt>
      <trkpt lat="47.5407" lon="6.7563">
        <ele>443</ele>
        <time>2016-09-25T09:46:47.000Z</time>
      </trkpt>
      <trkpt lat="47.54072" lon="6.75635">
        <ele>443</ele>
        <time>2016-09-25T09:46:48.000Z</time>
      </trkpt>
      <trkpt lat="47.54075" lon="6.75639">
        <ele>443</ele>
        <time>2016-09-25T09:46:49.000Z</time>
      </trkpt>
      <trkpt lat="47.54078" lon="6.75644">
        <ele>443</ele>
        <time>2016-09-25T09:46:50.000Z</time>
      </trkpt>
      <trkpt lat="47.5408" lon="6.75648">
        <ele>444</ele>
        <time>2016-09-25T09:46:51.000Z</time>
      </trkpt>
      <trkpt lat="47.54082" lon="6.75653">
        <ele>444</ele>
        <time>2016-09-25T09:46:52.000Z</time>
      </trkpt>
      <trkpt lat="47.54085" lon="6.75658">
        <ele>446</ele>
        <time>2016-09-25T09:46:53.000Z</time>
      </trkpt>
      <trkpt lat="47.54087" lon="6.75663">
        <ele>446</ele>
        <time>2016-09-25T09:46:54.000Z</time>
      </trkpt>
      <trkpt lat="47.54089" lon="6.75668">
        <ele>445</ele>
        <time>2016-09-25T09:46:55.000Z</time>
      </trkpt>
      <trkpt lat="47.54091" lon="6.75673">
        <ele>445</ele>
        <time>2016-09-25T09:46:56.000Z</time>
      </trkpt>
      <trkpt lat="47.54093" lon="6.75677">
        <ele>445</ele>
        <time>2016-09-25T09:46:57.000Z</time>
      </trkpt>
      <trkpt lat="47.54095" lon="6.75682">
        <ele>446</ele>
        <time>2016-09-25T09:46:58.000Z</time>
      </trkpt>
      <trkpt lat="47.54097" lon="6.75688">
        <ele>446</ele>
        <time>2016-09-25T09:46:59.000Z</time>
      </trkpt>
      <trkpt lat="47.54099" lon="6.75693">
        <ele>446</ele>
        <time>2016-09-25T09:47:00.000Z</time>
      </trkpt>
      <trkpt lat="47.54101" lon="6.75697">
        <ele>446</ele>
        <time>2016-09-25T09:47:01.000Z</time>
      </trkpt>
      <trkpt lat="47.54102" lon="6.75702">
        <ele>446</ele>
        <time>2016-09-25T09:47:02.000Z</time>
      </trkpt>
      <trkpt lat="47.54104" lon="6.75706">
        <ele>445</ele>
        <time>2016-09-25T09:47:03.000Z</time>
      </trkpt>
      <trkpt lat="47.54106" lon="6.75709">
        <ele>445</ele>
        <time>2016-09-25T09:47:04.000Z</time>
      </trkpt>
      <trkpt lat="47.54108" lon="6.75713">
        <ele>445</ele>
        <time>2016-09-25T09:47:05.000Z</time>
      </trkpt>
      <trkpt lat="47.5411" lon="6.75718">
        <ele>445</ele>
        <time>2016-09-25T09:47:06.000Z</time>
      </trkpt>
      <trkpt lat="47.54113" lon="6.75722">
        <ele>445</ele>
        <time>2016-09-25T09:47:07.000Z</time>
      </trkpt>
      <trkpt lat="47.54115" lon="6.75727">
        <ele>445</ele>
        <time>2016-09-25T09:47:08.000Z</time>
      </trkpt>
      <trkpt lat="47.54117" lon="6.75732">
        <ele>445</ele>
        <time>2016-09-25T09:47:09.000Z</time>
      </trkpt>
      <trkpt lat="47.54119" lon="6.75737">
        <ele>445</ele>
        <time>2016-09-25T09:47:10.000Z</time>
      </trkpt>
      <trkpt lat="47.54122" lon="6.75742">
        <ele>445</ele>
        <time>2016-09-25T09:47:11.000Z</time>
      </trkpt>
      <trkpt lat="47.54124" lon="6.75748">
        <ele>446</ele>
        <time>2016-09-25T09:47:12.000Z</time>
      </trkpt>
      <trkpt lat="47.54128" lon="6.75756">
        <ele>443</ele>
        <time>2016-09-25T09:47:13.000Z</time>
      </trkpt>
      <trkpt lat="47.54131" lon="6.75763">
        <ele>444</ele>
        <time>2016-09-25T09:47:14.000Z</time>
      </trkpt>
      <trkpt lat="47.54134" lon="6.7577">
        <ele>444</ele>
        <time>2016-09-25T09:47:15.000Z</time>
      </trkpt>
      <trkpt lat="47.54137" lon="6.75776">
        <ele>444</ele>
        <time>2016-09-25T09:47:16.000Z</time>
      </trkpt>
      <trkpt lat="47.54139" lon="6.75782">
        <ele>443</ele>
        <time>2016-09-25T09:47:17.000Z</time>
      </trkpt>
      <trkpt lat="47.54141" lon="6.75788">
        <ele>443</ele>
        <time>2016-09-25T09:47:18.000Z</time>
      </trkpt>
      <trkpt lat="47.54143" lon="6.75794">
        <ele>443</ele>
        <time>2016-09-25T09:47:19.000Z</time>
      </trkpt>
      <trkpt lat="47.54144" lon="6.75799">
        <ele>443</ele>
        <time>2016-09-25T09:47:20.000Z</time>
      </trkpt>
      <trkpt lat="47.54143" lon="6.75804">
        <ele>443</ele>
        <time>2016-09-25T09:47:21.000Z</time>
      </trkpt>
      <trkpt lat="47.54141" lon="6.75808">
        <ele>443</ele>
        <time>2016-09-25T09:47:22.000Z</time>
      </trkpt>
      <trkpt lat="47.54138" lon="6.75811">
        <ele>443</ele>
        <time>2016-09-25T09:47:23.000Z</time>
      </trkpt>
      <trkpt lat="47.54137" lon="6.75814">
        <ele>442</ele>
        <time>2016-09-25T09:47:24.000Z</time>
      </trkpt>
      <trkpt lat="47.54136" lon="6.75819">
        <ele>442</ele>
        <time>2016-09-25T09:47:25.000Z</time>
      </trkpt>
      <trkpt lat="47.54135" lon="6.7582">
        <ele>442</ele>
        <time>2016-09-25T09:47:26.000Z</time>
      </trkpt>
      <trkpt lat="47.54133" lon="6.75824">
        <ele>442</ele>
        <time>2016-09-25T09:47:27.000Z</time>
      </trkpt>
      <trkpt lat="47.54132" lon="6.75827">
        <ele>442</ele>
        <time>2016-09-25T09:47:28.000Z</time>
      </trkpt>
      <trkpt lat="47.54133" lon="6.75844">
        <ele>440</ele>
        <time>2016-09-25T09:47:29.000Z</time>
      </trkpt>
      <trkpt lat="47.54131" lon="6.7585">
        <ele>440</ele>
        <time>2016-09-25T09:47:30.000Z</time>
      </trkpt>
      <trkpt lat="47.5413" lon="6.75856">
        <ele>439</ele>
        <time>2016-09-25T09:47:31.000Z</time>
      </trkpt>
      <trkpt lat="47.54128" lon="6.75861">
        <ele>439</ele>
        <time>2016-09-25T09:47:32.000Z</time>
      </trkpt>
      <trkpt lat="47.54126" lon="6.75866">
        <ele>439</ele>
        <time>2016-09-25T09:47:33.000Z</time>
      </trkpt>
      <trkpt lat="47.54127" lon="6.75869">
        <ele>439</ele>
        <time>2016-09-25T09:47:34.000Z</time>
      </trkpt>
      <trkpt lat="47.54126" lon="6.75872">
        <ele>439</ele>
        <time>2016-09-25T09:47:35.000Z</time>
      </trkpt>
      <trkpt lat="47.54126" lon="6.75877">
        <ele>439</ele>
        <time>2016-09-25T09:47:36.000Z</time>
      </trkpt>
      <trkpt lat="47.54124" lon="6.75881">
        <ele>439</ele>
        <time>2016-09-25T09:47:37.000Z</time>
      </trkpt>
      <trkpt lat="47.54122" lon="6.75884">
        <ele>439</ele>
        <time>2016-09-25T09:47:38.000Z</time>
      </trkpt>
      <trkpt lat="47.5412" lon="6.75887">
        <ele>439</ele>
        <time>2016-09-25T09:47:39.000Z</time>
      </trkpt>
      <trkpt lat="47.54119" lon="6.75892">
        <ele>439</ele>
        <time>2016-09-25T09:47:40.000Z</time>
      </trkpt>
      <trkpt lat="47.54117" lon="6.75896">
        <ele>439</ele>
        <time>2016-09-25T09:47:41.000Z</time>
      </trkpt>
      <trkpt lat="47.54115" lon="6.759">
        <ele>439</ele>
        <time>2016-09-25T09:47:42.000Z</time>
      </trkpt>
      <trkpt lat="47.54114" lon="6.75904">
        <ele>439</ele>
        <time>2016-09-25T09:47:43.000Z</time>
      </trkpt>
      <trkpt lat="47.54112" lon="6.75909">
        <ele>438</ele>
        <time>2016-09-25T09:47:44.000Z</time>
      </trkpt>
      <trkpt lat="47.54109" lon="6.75915">
        <ele>438</ele>
        <time>2016-09-25T09:47:45.000Z</time>
      </trkpt>
      <trkpt lat="47.54106" lon="6.75938">
        <ele>437</ele>
        <time>2016-09-25T09:47:46.000Z</time>
      </trkpt>
      <trkpt lat="47.54099" lon="6.7595">
        <ele>437</ele>
        <time>2016-09-25T09:47:47.000Z</time>
      </trkpt>
      <trkpt lat="47.54095" lon="6.75955">
        <ele>437</ele>
        <time>2016-09-25T09:47:48.000Z</time>
      </trkpt>
      <trkpt lat="47.54091" lon="6.75959">
        <ele>437</ele>
        <time>2016-09-25T09:47:49.000Z</time>
      </trkpt>
      <trkpt lat="47.54089" lon="6.75967">
        <ele>437</ele>
        <time>2016-09-25T09:47:50.000Z</time>
      </trkpt>
      <trkpt lat="47.54085" lon="6.7597">
        <ele>437</ele>
        <time>2016-09-25T09:47:51.000Z</time>
      </trkpt>
      <trkpt lat="47.54082" lon="6.75974">
        <ele>436</ele>
        <time>2016-09-25T09:47:52.000Z</time>
      </trkpt>
      <trkpt lat="47.54079" lon="6.75977">
        <ele>436</ele>
        <time>2016-09-25T09:47:53.000Z</time>
      </trkpt>
      <trkpt lat="47.54076" lon="6.7598">
        <ele>436</ele>
        <time>2016-09-25T09:47:54.000Z</time>
      </trkpt>
      <trkpt lat="47.54071" lon="6.75983">
        <ele>436</ele>
        <time>2016-09-25T09:47:55.000Z</time>
      </trkpt>
      <trkpt lat="47.54068" lon="6.75999">
        <ele>436</ele>
        <time>2016-09-25T09:47:56.000Z</time>
      </trkpt>
      <trkpt lat="47.54063" lon="6.76">
        <ele>437</ele>
        <time>2016-09-25T09:47:57.000Z</time>
      </trkpt>
      <trkpt lat="47.54061" lon="6.76002">
        <ele>436</ele>
        <time>2016-09-25T09:47:58.000Z</time>
      </trkpt>
      <trkpt lat="47.54057" lon="6.76004">
        <ele>436</ele>
        <time>2016-09-25T09:48:00.000Z</time>
      </trkpt>
      <trkpt lat="47.54056" lon="6.76007">
        <ele>436</ele>
        <time>2016-09-25T09:48:01.000Z</time>
      </trkpt>
      <trkpt lat="47.54056" lon="6.76011">
        <ele>436</ele>
        <time>2016-09-25T09:48:02.000Z</time>
      </trkpt>
      <trkpt lat="47.54056" lon="6.76016">
        <ele>436</ele>
        <time>2016-09-25T09:48:03.000Z</time>
      </trkpt>
      <trkpt lat="47.54056" lon="6.76022">
        <ele>436</ele>
        <time>2016-09-25T09:48:04.000Z</time>
      </trkpt>
      <trkpt lat="47.54056" lon="6.76026">
        <ele>436</ele>
        <time>2016-09-25T09:48:05.000Z</time>
      </trkpt>
      <trkpt lat="47.54054" lon="6.7603">
        <ele>436</ele>
        <time>2016-09-25T09:48:06.000Z</time>
      </trkpt>
      <trkpt lat="47.54052" lon="6.76034">
        <ele>436</ele>
        <time>2016-09-25T09:48:07.000Z</time>
      </trkpt>
      <trkpt lat="47.54051" lon="6.76039">
        <ele>436</ele>
        <time>2016-09-25T09:48:08.000Z</time>
      </trkpt>
      <trkpt lat="47.54051" lon="6.76045">
        <ele>436</ele>
        <time>2016-09-25T09:48:09.000Z</time>
      </trkpt>
      <trkpt lat="47.54052" lon="6.76052">
        <ele>436</ele>
        <time>2016-09-25T09:48:10.000Z</time>
      </trkpt>
      <trkpt lat="47.54052" lon="6.76058">
        <ele>436</ele>
        <time>2016-09-25T09:48:11.000Z</time>
      </trkpt>
      <trkpt lat="47.54058" lon="6.7609">
        <ele>436</ele>
        <time>2016-09-25T09:48:12.000Z</time>
      </trkpt>
      <trkpt lat="47.54058" lon="6.76097">
        <ele>436</ele>
        <time>2016-09-25T09:48:13.000Z</time>
      </trkpt>
      <trkpt lat="47.54055" lon="6.76104">
        <ele>436</ele>
        <time>2016-09-25T09:48:14.000Z</time>
      </trkpt>
      <trkpt lat="47.54052" lon="6.7611">
        <ele>436</ele>
        <time>2016-09-25T09:48:15.000Z</time>
      </trkpt>
      <trkpt lat="47.5405" lon="6.76114">
        <ele>436</ele>
        <time>2016-09-25T09:48:16.000Z</time>
      </trkpt>
      <trkpt lat="47.54047" lon="6.76118">
        <ele>436</ele>
        <time>2016-09-25T09:48:17.000Z</time>
      </trkpt>
      <trkpt lat="47.54046" lon="6.76125">
        <ele>436</ele>
        <time>2016-09-25T09:48:18.000Z</time>
      </trkpt>
      <trkpt lat="47.54046" lon="6.76133">
        <ele>436</ele>
        <time>2016-09-25T09:48:19.000Z</time>
      </trkpt>
      <trkpt lat="47.5405" lon="6.76161">
        <ele>436</ele>
        <time>2016-09-25T09:48:20.000Z</time>
      </trkpt>
      <trkpt lat="47.5405" lon="6.76166">
        <ele>436</ele>
        <time>2016-09-25T09:48:21.000Z</time>
      </trkpt>
      <trkpt lat="47.54049" lon="6.76173">
        <ele>436</ele>
        <time>2016-09-25T09:48:22.000Z</time>
      </trkpt>
      <trkpt lat="47.5405" lon="6.76183">
        <ele>436</ele>
        <time>2016-09-25T09:48:23.000Z</time>
      </trkpt>
      <trkpt lat="47.54049" lon="6.76191">
        <ele>436</ele>
        <time>2016-09-25T09:48:24.000Z</time>
      </trkpt>
      <trkpt lat="47.54048" lon="6.76198">
        <ele>436</ele>
        <time>2016-09-25T09:48:25.000Z</time>
      </trkpt>
      <trkpt lat="47.54049" lon="6.76207">
        <ele>436</ele>
        <time>2016-09-25T09:48:26.000Z</time>
      </trkpt>
      <trkpt lat="47.54049" lon="6.76214">
        <ele>436</ele>
        <time>2016-09-25T09:48:27.000Z</time>
      </trkpt>
      <trkpt lat="47.54049" lon="6.76238">
        <ele>435</ele>
        <time>2016-09-25T09:48:28.000Z</time>
      </trkpt>
      <trkpt lat="47.54047" lon="6.76246">
        <ele>435</ele>
        <time>2016-09-25T09:48:29.000Z</time>
      </trkpt>
      <trkpt lat="47.54045" lon="6.76252">
        <ele>435</ele>
        <time>2016-09-25T09:48:30.000Z</time>
      </trkpt>
      <trkpt lat="47.54039" lon="6.76263">
        <ele>435</ele>
        <time>2016-09-25T09:48:31.000Z</time>
      </trkpt>
      <trkpt lat="47.54033" lon="6.76269">
        <ele>435</ele>
        <time>2016-09-25T09:48:32.000Z</time>
      </trkpt>
      <trkpt lat="47.54028" lon="6.76274">
        <ele>435</ele>
        <time>2016-09-25T09:48:33.000Z</time>
      </trkpt>
      <trkpt lat="47.54021" lon="6.76281">
        <ele>435</ele>
        <time>2016-09-25T09:48:34.000Z</time>
      </trkpt>
      <trkpt lat="47.54016" lon="6.76286">
        <ele>435</ele>
        <time>2016-09-25T09:48:35.000Z</time>
      </trkpt>
      <trkpt lat="47.54012" lon="6.7629">
        <ele>435</ele>
        <time>2016-09-25T09:48:36.000Z</time>
      </trkpt>
      <trkpt lat="47.54009" lon="6.76294">
        <ele>436</ele>
        <time>2016-09-25T09:48:37.000Z</time>
      </trkpt>
      <trkpt lat="47.54007" lon="6.76314">
        <ele>436</ele>
        <time>2016-09-25T09:48:38.000Z</time>
      </trkpt>
      <trkpt lat="47.54004" lon="6.7632">
        <ele>436</ele>
        <time>2016-09-25T09:48:39.000Z</time>
      </trkpt>
      <trkpt lat="47.53997" lon="6.76331">
        <ele>436</ele>
        <time>2016-09-25T09:48:40.000Z</time>
      </trkpt>
      <trkpt lat="47.53996" lon="6.76339">
        <ele>437</ele>
        <time>2016-09-25T09:48:41.000Z</time>
      </trkpt>
      <trkpt lat="47.53993" lon="6.76344">
        <ele>436</ele>
        <time>2016-09-25T09:48:42.000Z</time>
      </trkpt>
      <trkpt lat="47.53997" lon="6.76366">
        <ele>436</ele>
        <time>2016-09-25T09:48:43.000Z</time>
      </trkpt>
      <trkpt lat="47.53994" lon="6.76374">
        <ele>436</ele>
        <time>2016-09-25T09:48:44.000Z</time>
      </trkpt>
      <trkpt lat="47.5399" lon="6.76377">
        <ele>436</ele>
        <time>2016-09-25T09:48:45.000Z</time>
      </trkpt>
      <trkpt lat="47.53986" lon="6.7638">
        <ele>436</ele>
        <time>2016-09-25T09:48:46.000Z</time>
      </trkpt>
      <trkpt lat="47.53981" lon="6.76384">
        <ele>436</ele>
        <time>2016-09-25T09:48:47.000Z</time>
      </trkpt>
      <trkpt lat="47.53975" lon="6.76391">
        <ele>436</ele>
        <time>2016-09-25T09:48:48.000Z</time>
      </trkpt>
      <trkpt lat="47.53968" lon="6.76397">
        <ele>436</ele>
        <time>2016-09-25T09:48:49.000Z</time>
      </trkpt>
      <trkpt lat="47.53964" lon="6.76404">
        <ele>435</ele>
        <time>2016-09-25T09:48:50.000Z</time>
      </trkpt>
      <trkpt lat="47.53953" lon="6.76397">
        <ele>435</ele>
        <time>2016-09-25T09:48:51.000Z</time>
      </trkpt>
      <trkpt lat="47.53947" lon="6.76399">
        <ele>435</ele>
        <time>2016-09-25T09:48:52.000Z</time>
      </trkpt>
      <trkpt lat="47.53942" lon="6.76401">
        <ele>435</ele>
        <time>2016-09-25T09:48:53.000Z</time>
      </trkpt>
      <trkpt lat="47.53948" lon="6.76423">
        <ele>435</ele>
        <time>2016-09-25T09:48:54.000Z</time>
      </trkpt>
      <trkpt lat="47.53946" lon="6.76428">
        <ele>435</ele>
        <time>2016-09-25T09:48:55.000Z</time>
      </trkpt>
      <trkpt lat="47.53942" lon="6.76431">
        <ele>435</ele>
        <time>2016-09-25T09:48:56.000Z</time>
      </trkpt>
      <trkpt lat="47.53937" lon="6.76436">
        <ele>435</ele>
        <time>2016-09-25T09:48:57.000Z</time>
      </trkpt>
      <trkpt lat="47.53934" lon="6.76442">
        <ele>435</ele>
        <time>2016-09-25T09:48:58.000Z</time>
      </trkpt>
      <trkpt lat="47.53922" lon="6.76433">
        <ele>435</ele>
        <time>2016-09-25T09:48:59.000Z</time>
      </trkpt>
      <trkpt lat="47.53935" lon="6.76476">
        <ele>435</ele>
        <time>2016-09-25T09:49:00.000Z</time>
      </trkpt>
      <trkpt lat="47.53931" lon="6.76481">
        <ele>435</ele>
        <time>2016-09-25T09:49:01.000Z</time>
      </trkpt>
      <trkpt lat="47.53937" lon="6.76496">
        <ele>435</ele>
        <time>2016-09-25T09:49:02.000Z</time>
      </trkpt>
      <trkpt lat="47.53935" lon="6.76499">
        <ele>435</ele>
        <time>2016-09-25T09:49:03.000Z</time>
      </trkpt>
      <trkpt lat="47.53934" lon="6.765">
        <ele>435</ele>
        <time>2016-09-25T09:49:04.000Z</time>
      </trkpt>
      <trkpt lat="47.53931" lon="6.76502">
        <ele>435</ele>
        <time>2016-09-25T09:49:05.000Z</time>
      </trkpt>
      <trkpt lat="47.53929" lon="6.76505">
        <ele>435</ele>
        <time>2016-09-25T09:49:06.000Z</time>
      </trkpt>
      <trkpt lat="47.53923" lon="6.76507">
        <ele>435</ele>
        <time>2016-09-25T09:49:07.000Z</time>
      </trkpt>
      <trkpt lat="47.5392" lon="6.76508">
        <ele>436</ele>
        <time>2016-09-25T09:49:08.000Z</time>
      </trkpt>
      <trkpt lat="47.53914" lon="6.76511">
        <ele>436</ele>
        <time>2016-09-25T09:49:09.000Z</time>
      </trkpt>
      <trkpt lat="47.5391" lon="6.76513">
        <ele>436</ele>
        <time>2016-09-25T09:49:10.000Z</time>
      </trkpt>
      <trkpt lat="47.53906" lon="6.76517">
        <ele>436</ele>
        <time>2016-09-25T09:49:11.000Z</time>
      </trkpt>
      <trkpt lat="47.53903" lon="6.7652">
        <ele>436</ele>
        <time>2016-09-25T09:49:12.000Z</time>
      </trkpt>
      <trkpt lat="47.539" lon="6.76522">
        <ele>436</ele>
        <time>2016-09-25T09:49:13.000Z</time>
      </trkpt>
      <trkpt lat="47.53897" lon="6.76525">
        <ele>436</ele>
        <time>2016-09-25T09:49:14.000Z</time>
      </trkpt>
      <trkpt lat="47.53895" lon="6.76531">
        <ele>436</ele>
        <time>2016-09-25T09:49:15.000Z</time>
      </trkpt>
      <trkpt lat="47.53894" lon="6.76535">
        <ele>436</ele>
        <time>2016-09-25T09:49:16.000Z</time>
      </trkpt>
      <trkpt lat="47.53893" lon="6.76539">
        <ele>436</ele>
        <time>2016-09-25T09:49:17.000Z</time>
      </trkpt>
      <trkpt lat="47.53893" lon="6.76542">
        <ele>437</ele>
        <time>2016-09-25T09:49:18.000Z</time>
      </trkpt>
      <trkpt lat="47.53891" lon="6.76545">
        <ele>437</ele>
        <time>2016-09-25T09:49:19.000Z</time>
      </trkpt>
      <trkpt lat="47.53889" lon="6.76549">
        <ele>437</ele>
        <time>2016-09-25T09:49:20.000Z</time>
      </trkpt>
      <trkpt lat="47.53888" lon="6.76554">
        <ele>437</ele>
        <time>2016-09-25T09:49:21.000Z</time>
      </trkpt>
      <trkpt lat="47.53886" lon="6.7656">
        <ele>437</ele>
        <time>2016-09-25T09:49:22.000Z</time>
      </trkpt>
      <trkpt lat="47.53884" lon="6.76567">
        <ele>437</ele>
        <time>2016-09-25T09:49:23.000Z</time>
      </trkpt>
      <trkpt lat="47.53881" lon="6.76573">
        <ele>437</ele>
        <time>2016-09-25T09:49:24.000Z</time>
      </trkpt>
      <trkpt lat="47.53878" lon="6.76578">
        <ele>437</ele>
        <time>2016-09-25T09:49:25.000Z</time>
      </trkpt>
      <trkpt lat="47.53875" lon="6.76583">
        <ele>437</ele>
        <time>2016-09-25T09:49:26.000Z</time>
      </trkpt>
      <trkpt lat="47.53872" lon="6.76587">
        <ele>436</ele>
        <time>2016-09-25T09:49:27.000Z</time>
      </trkpt>
      <trkpt lat="47.53869" lon="6.76591">
        <ele>436</ele>
        <time>2016-09-25T09:49:28.000Z</time>
      </trkpt>
      <trkpt lat="47.53866" lon="6.76595">
        <ele>436</ele>
        <time>2016-09-25T09:49:29.000Z</time>
      </trkpt>
      <trkpt lat="47.53862" lon="6.76598">
        <ele>436</ele>
        <time>2016-09-25T09:49:31.000Z</time>
      </trkpt>
      <trkpt lat="47.5386" lon="6.76599">
        <ele>436</ele>
        <time>2016-09-25T09:49:32.000Z</time>
      </trkpt>
      <trkpt lat="47.53856" lon="6.766">
        <ele>436</ele>
        <time>2016-09-25T09:49:34.000Z</time>
      </trkpt>
      <trkpt lat="47.53853" lon="6.76601">
        <ele>436</ele>
        <time>2016-09-25T09:49:35.000Z</time>
      </trkpt>
      <trkpt lat="47.53849" lon="6.76602">
        <ele>436</ele>
        <time>2016-09-25T09:49:36.000Z</time>
      </trkpt>
      <trkpt lat="47.53845" lon="6.76604">
        <ele>436</ele>
        <time>2016-09-25T09:49:37.000Z</time>
      </trkpt>
      <trkpt lat="47.5384" lon="6.76607">
        <ele>436</ele>
        <time>2016-09-25T09:49:38.000Z</time>
      </trkpt>
      <trkpt lat="47.53833" lon="6.76612">
        <ele>436</ele>
        <time>2016-09-25T09:49:39.000Z</time>
      </trkpt>
      <trkpt lat="47.53816" lon="6.76634">
        <ele>434</ele>
        <time>2016-09-25T09:49:40.000Z</time>
      </trkpt>
      <trkpt lat="47.53815" lon="6.76653">
        <ele>434</ele>
        <time>2016-09-25T09:49:41.000Z</time>
      </trkpt>
      <trkpt lat="47.53811" lon="6.76657">
        <ele>434</ele>
        <time>2016-09-25T09:49:42.000Z</time>
      </trkpt>
      <trkpt lat="47.53808" lon="6.76662">
        <ele>434</ele>
        <time>2016-09-25T09:49:43.000Z</time>
      </trkpt>
      <trkpt lat="47.53801" lon="6.76666">
        <ele>434</ele>
        <time>2016-09-25T09:49:44.000Z</time>
      </trkpt>
      <trkpt lat="47.53798" lon="6.76676">
        <ele>432</ele>
        <time>2016-09-25T09:49:45.000Z</time>
      </trkpt>
      <trkpt lat="47.53795" lon="6.76683">
        <ele>432</ele>
        <time>2016-09-25T09:49:46.000Z</time>
      </trkpt>
      <trkpt lat="47.53791" lon="6.76689">
        <ele>432</ele>
        <time>2016-09-25T09:49:47.000Z</time>
      </trkpt>
      <trkpt lat="47.53782" lon="6.76693">
        <ele>431</ele>
        <time>2016-09-25T09:49:48.000Z</time>
      </trkpt>
      <trkpt lat="47.53777" lon="6.76698">
        <ele>431</ele>
        <time>2016-09-25T09:49:49.000Z</time>
      </trkpt>
      <trkpt lat="47.53778" lon="6.76729">
        <ele>430</ele>
        <time>2016-09-25T09:49:50.000Z</time>
      </trkpt>
      <trkpt lat="47.53778" lon="6.76742">
        <ele>430</ele>
        <time>2016-09-25T09:49:51.000Z</time>
      </trkpt>
      <trkpt lat="47.53776" lon="6.76755">
        <ele>427</ele>
        <time>2016-09-25T09:49:52.000Z</time>
      </trkpt>
      <trkpt lat="47.53772" lon="6.76759">
        <ele>427</ele>
        <time>2016-09-25T09:49:53.000Z</time>
      </trkpt>
      <trkpt lat="47.53772" lon="6.76772">
        <ele>427</ele>
        <time>2016-09-25T09:49:54.000Z</time>
      </trkpt>
      <trkpt lat="47.53766" lon="6.76777">
        <ele>427</ele>
        <time>2016-09-25T09:49:55.000Z</time>
      </trkpt>
      <trkpt lat="47.53762" lon="6.76781">
        <ele>427</ele>
        <time>2016-09-25T09:49:56.000Z</time>
      </trkpt>
      <trkpt lat="47.53756" lon="6.76791">
        <ele>426</ele>
        <time>2016-09-25T09:49:57.000Z</time>
      </trkpt>
      <trkpt lat="47.53758" lon="6.76814">
        <ele>425</ele>
        <time>2016-09-25T09:49:58.000Z</time>
      </trkpt>
      <trkpt lat="47.53751" lon="6.76819">
        <ele>424</ele>
        <time>2016-09-25T09:49:59.000Z</time>
      </trkpt>
      <trkpt lat="47.53747" lon="6.7683">
        <ele>421</ele>
        <time>2016-09-25T09:50:00.000Z</time>
      </trkpt>
      <trkpt lat="47.53743" lon="6.76833">
        <ele>421</ele>
        <time>2016-09-25T09:50:01.000Z</time>
      </trkpt>
      <trkpt lat="47.53741" lon="6.76838">
        <ele>419</ele>
        <time>2016-09-25T09:50:02.000Z</time>
      </trkpt>
      <trkpt lat="47.53737" lon="6.76846">
        <ele>418</ele>
        <time>2016-09-25T09:50:03.000Z</time>
      </trkpt>
      <trkpt lat="47.5374" lon="6.76863">
        <ele>417</ele>
        <time>2016-09-25T09:50:04.000Z</time>
      </trkpt>
      <trkpt lat="47.53744" lon="6.76886">
        <ele>416</ele>
        <time>2016-09-25T09:50:05.000Z</time>
      </trkpt>
      <trkpt lat="47.53742" lon="6.76894">
        <ele>416</ele>
        <time>2016-09-25T09:50:06.000Z</time>
      </trkpt>
      <trkpt lat="47.53745" lon="6.76907">
        <ele>417</ele>
        <time>2016-09-25T09:50:07.000Z</time>
      </trkpt>
      <trkpt lat="47.53745" lon="6.7692">
        <ele>417</ele>
        <time>2016-09-25T09:50:08.000Z</time>
      </trkpt>
      <trkpt lat="47.53747" lon="6.76932">
        <ele>416</ele>
        <time>2016-09-25T09:50:09.000Z</time>
      </trkpt>
      <trkpt lat="47.53747" lon="6.76939">
        <ele>415</ele>
        <time>2016-09-25T09:50:10.000Z</time>
      </trkpt>
      <trkpt lat="47.53746" lon="6.76947">
        <ele>414</ele>
        <time>2016-09-25T09:50:11.000Z</time>
      </trkpt>
      <trkpt lat="47.53745" lon="6.76956">
        <ele>414</ele>
        <time>2016-09-25T09:50:12.000Z</time>
      </trkpt>
      <trkpt lat="47.53744" lon="6.76964">
        <ele>414</ele>
        <time>2016-09-25T09:50:13.000Z</time>
      </trkpt>
      <trkpt lat="47.53743" lon="6.76974">
        <ele>414</ele>
        <time>2016-09-25T09:50:14.000Z</time>
      </trkpt>
      <trkpt lat="47.53751" lon="6.77004">
        <ele>418</ele>
        <time>2016-09-25T09:50:15.000Z</time>
      </trkpt>
      <trkpt lat="47.5375" lon="6.77012">
        <ele>418</ele>
        <time>2016-09-25T09:50:16.000Z</time>
      </trkpt>
      <trkpt lat="47.53749" lon="6.77016">
        <ele>413</ele>
        <time>2016-09-25T09:50:17.000Z</time>
      </trkpt>
      <trkpt lat="47.53748" lon="6.7702">
        <ele>412</ele>
        <time>2016-09-25T09:50:18.000Z</time>
      </trkpt>
      <trkpt lat="47.53745" lon="6.77028">
        <ele>411</ele>
        <time>2016-09-25T09:50:19.000Z</time>
      </trkpt>
      <trkpt lat="47.53742" lon="6.77039">
        <ele>410</ele>
        <time>2016-09-25T09:50:20.000Z</time>
      </trkpt>
      <trkpt lat="47.53739" lon="6.77047">
        <ele>410</ele>
        <time>2016-09-25T09:50:21.000Z</time>
      </trkpt>
      <trkpt lat="47.53737" lon="6.77055">
        <ele>410</ele>
        <time>2016-09-25T09:50:22.000Z</time>
      </trkpt>
      <trkpt lat="47.5374" lon="6.77081">
        <ele>411</ele>
        <time>2016-09-25T09:50:23.000Z</time>
      </trkpt>
      <trkpt lat="47.53741" lon="6.77097">
        <ele>409</ele>
        <time>2016-09-25T09:50:24.000Z</time>
      </trkpt>
      <trkpt lat="47.53736" lon="6.77106">
        <ele>407</ele>
        <time>2016-09-25T09:50:25.000Z</time>
      </trkpt>
      <trkpt lat="47.5374" lon="6.77128">
        <ele>406</ele>
        <time>2016-09-25T09:50:26.000Z</time>
      </trkpt>
      <trkpt lat="47.53735" lon="6.77136">
        <ele>405</ele>
        <time>2016-09-25T09:50:27.000Z</time>
      </trkpt>
      <trkpt lat="47.53736" lon="6.77151">
        <ele>406</ele>
        <time>2016-09-25T09:50:28.000Z</time>
      </trkpt>
      <trkpt lat="47.53734" lon="6.77166">
        <ele>406</ele>
        <time>2016-09-25T09:50:29.000Z</time>
      </trkpt>
      <trkpt lat="47.53731" lon="6.77176">
        <ele>404</ele>
        <time>2016-09-25T09:50:30.000Z</time>
      </trkpt>
      <trkpt lat="47.53729" lon="6.77187">
        <ele>403</ele>
        <time>2016-09-25T09:50:31.000Z</time>
      </trkpt>
      <trkpt lat="47.53729" lon="6.77202">
        <ele>402</ele>
        <time>2016-09-25T09:50:32.000Z</time>
      </trkpt>
      <trkpt lat="47.53728" lon="6.77217">
        <ele>401</ele>
        <time>2016-09-25T09:50:33.000Z</time>
      </trkpt>
      <trkpt lat="47.53725" lon="6.77224">
        <ele>401</ele>
        <time>2016-09-25T09:50:34.000Z</time>
      </trkpt>
      <trkpt lat="47.53721" lon="6.77232">
        <ele>401</ele>
        <time>2016-09-25T09:50:35.000Z</time>
      </trkpt>
      <trkpt lat="47.53717" lon="6.77237">
        <ele>400</ele>
        <time>2016-09-25T09:50:36.000Z</time>
      </trkpt>
      <trkpt lat="47.53709" lon="6.77242">
        <ele>400</ele>
        <time>2016-09-25T09:50:37.000Z</time>
      </trkpt>
      <trkpt lat="47.53702" lon="6.77248">
        <ele>400</ele>
        <time>2016-09-25T09:50:38.000Z</time>
      </trkpt>
      <trkpt lat="47.53695" lon="6.77255">
        <ele>397</ele>
        <time>2016-09-25T09:50:39.000Z</time>
      </trkpt>
      <trkpt lat="47.53687" lon="6.77259">
        <ele>397</ele>
        <time>2016-09-25T09:50:40.000Z</time>
      </trkpt>
      <trkpt lat="47.53694" lon="6.77284">
        <ele>396</ele>
        <time>2016-09-25T09:50:41.000Z</time>
      </trkpt>
      <trkpt lat="47.53689" lon="6.77297">
        <ele>395</ele>
        <time>2016-09-25T09:50:42.000Z</time>
      </trkpt>
      <trkpt lat="47.53687" lon="6.77306">
        <ele>395</ele>
        <time>2016-09-25T09:50:43.000Z</time>
      </trkpt>
      <trkpt lat="47.53684" lon="6.77303">
        <ele>395</ele>
        <time>2016-09-25T09:50:47.000Z</time>
      </trkpt>
      <trkpt lat="47.5368" lon="6.773">
        <ele>395</ele>
        <time>2016-09-25T09:50:48.000Z</time>
      </trkpt>
      <trkpt lat="47.53678" lon="6.77295">
        <ele>395</ele>
        <time>2016-09-25T09:50:49.000Z</time>
      </trkpt>
      <trkpt lat="47.53677" lon="6.77289">
        <ele>395</ele>
        <time>2016-09-25T09:50:50.000Z</time>
      </trkpt>
      <trkpt lat="47.53673" lon="6.77282">
        <ele>396</ele>
        <time>2016-09-25T09:50:51.000Z</time>
      </trkpt>
      <trkpt lat="47.5367" lon="6.77276">
        <ele>396</ele>
        <time>2016-09-25T09:50:52.000Z</time>
      </trkpt>
      <trkpt lat="47.53662" lon="6.77275">
        <ele>392</ele>
        <time>2016-09-25T09:50:53.000Z</time>
      </trkpt>
      <trkpt lat="47.53658" lon="6.77273">
        <ele>392</ele>
        <time>2016-09-25T09:50:54.000Z</time>
      </trkpt>
      <trkpt lat="47.53652" lon="6.7727">
        <ele>392</ele>
        <time>2016-09-25T09:50:55.000Z</time>
      </trkpt>
      <trkpt lat="47.53645" lon="6.77269">
        <ele>391</ele>
        <time>2016-09-25T09:50:56.000Z</time>
      </trkpt>
      <trkpt lat="47.5364" lon="6.77268">
        <ele>391</ele>
        <time>2016-09-25T09:50:57.000Z</time>
      </trkpt>
      <trkpt lat="47.53638" lon="6.77265">
        <ele>391</ele>
        <time>2016-09-25T09:50:58.000Z</time>
      </trkpt>
      <trkpt lat="47.53637" lon="6.77262">
        <ele>391</ele>
        <time>2016-09-25T09:50:59.000Z</time>
      </trkpt>
      <trkpt lat="47.53621" lon="6.77258">
        <ele>389</ele>
        <time>2016-09-25T09:51:00.000Z</time>
      </trkpt>
      <trkpt lat="47.53605" lon="6.77259">
        <ele>388</ele>
        <time>2016-09-25T09:51:01.000Z</time>
      </trkpt>
      <trkpt lat="47.53601" lon="6.77258">
        <ele>388</ele>
        <time>2016-09-25T09:51:02.000Z</time>
      </trkpt>
      <trkpt lat="47.536" lon="6.77256">
        <ele>388</ele>
        <time>2016-09-25T09:51:03.000Z</time>
      </trkpt>
      <trkpt lat="47.53597" lon="6.77253">
        <ele>387</ele>
        <time>2016-09-25T09:51:04.000Z</time>
      </trkpt>
      <trkpt lat="47.53595" lon="6.7725">
        <ele>387</ele>
        <time>2016-09-25T09:51:05.000Z</time>
      </trkpt>
      <trkpt lat="47.53536" lon="6.77253">
        <ele>377</ele>
        <time>2016-09-25T09:51:06.000Z</time>
      </trkpt>
      <trkpt lat="47.53516" lon="6.77252">
        <ele>375</ele>
        <time>2016-09-25T09:51:07.000Z</time>
      </trkpt>
      <trkpt lat="47.53512" lon="6.77246">
        <ele>374</ele>
        <time>2016-09-25T09:51:08.000Z</time>
      </trkpt>
      <trkpt lat="47.53503" lon="6.77242">
        <ele>374</ele>
        <time>2016-09-25T09:51:09.000Z</time>
      </trkpt>
      <trkpt lat="47.535" lon="6.77237">
        <ele>371</ele>
        <time>2016-09-25T09:51:10.000Z</time>
      </trkpt>
      <trkpt lat="47.53497" lon="6.77231">
        <ele>370</ele>
        <time>2016-09-25T09:51:11.000Z</time>
      </trkpt>
      <trkpt lat="47.53494" lon="6.77227">
        <ele>370</ele>
        <time>2016-09-25T09:51:12.000Z</time>
      </trkpt>
      <trkpt lat="47.53488" lon="6.77223">
        <ele>370</ele>
        <time>2016-09-25T09:51:13.000Z</time>
      </trkpt>
      <trkpt lat="47.53479" lon="6.77219">
        <ele>369</ele>
        <time>2016-09-25T09:51:14.000Z</time>
      </trkpt>
      <trkpt lat="47.53462" lon="6.77214">
        <ele>369</ele>
        <time>2016-09-25T09:51:15.000Z</time>
      </trkpt>
      <trkpt lat="47.53447" lon="6.7721">
        <ele>368</ele>
        <time>2016-09-25T09:51:16.000Z</time>
      </trkpt>
      <trkpt lat="47.5344" lon="6.77209">
        <ele>368</ele>
        <time>2016-09-25T09:51:17.000Z</time>
      </trkpt>
      <trkpt lat="47.53431" lon="6.77206">
        <ele>368</ele>
        <time>2016-09-25T09:51:18.000Z</time>
      </trkpt>
      <trkpt lat="47.53397" lon="6.77208">
        <ele>365</ele>
        <time>2016-09-25T09:51:19.000Z</time>
      </trkpt>
      <trkpt lat="47.5338" lon="6.77209">
        <ele>365</ele>
        <time>2016-09-25T09:51:20.000Z</time>
      </trkpt>
      <trkpt lat="47.53365" lon="6.77211">
        <ele>365</ele>
        <time>2016-09-25T09:51:21.000Z</time>
      </trkpt>
      <trkpt lat="47.53355" lon="6.7721">
        <ele>365</ele>
        <time>2016-09-25T09:51:22.000Z</time>
      </trkpt>
      <trkpt lat="47.53348" lon="6.77207">
        <ele>365</ele>
        <time>2016-09-25T09:51:23.000Z</time>
      </trkpt>
      <trkpt lat="47.53337" lon="6.77206">
        <ele>365</ele>
        <time>2016-09-25T09:51:24.000Z</time>
      </trkpt>
      <trkpt lat="47.53328" lon="6.77205">
        <ele>366</ele>
        <time>2016-09-25T09:51:25.000Z</time>
      </trkpt>
      <trkpt lat="47.53321" lon="6.77206">
        <ele>366</ele>
        <time>2016-09-25T09:51:26.000Z</time>
      </trkpt>
      <trkpt lat="47.53313" lon="6.77208">
        <ele>367</ele>
        <time>2016-09-25T09:51:27.000Z</time>
      </trkpt>
      <trkpt lat="47.53311" lon="6.77208">
        <ele>367</ele>
        <time>2016-09-25T09:51:28.000Z</time>
      </trkpt>
      <trkpt lat="47.53307" lon="6.77205">
        <ele>367</ele>
        <time>2016-09-25T09:51:29.000Z</time>
      </trkpt>
      <trkpt lat="47.53303" lon="6.77204">
        <ele>367</ele>
        <time>2016-09-25T09:51:30.000Z</time>
      </trkpt>
      <trkpt lat="47.53298" lon="6.77203">
        <ele>367</ele>
        <time>2016-09-25T09:51:31.000Z</time>
      </trkpt>
      <trkpt lat="47.53294" lon="6.77201">
        <ele>367</ele>
        <time>2016-09-25T09:51:32.000Z</time>
      </trkpt>
      <trkpt lat="47.5329" lon="6.77202">
        <ele>367</ele>
        <time>2016-09-25T09:51:33.000Z</time>
      </trkpt>
      <trkpt lat="47.53286" lon="6.772">
        <ele>367</ele>
        <time>2016-09-25T09:51:35.000Z</time>
      </trkpt>
      <trkpt lat="47.53269" lon="6.77205">
        <ele>368</ele>
        <time>2016-09-25T09:51:36.000Z</time>
      </trkpt>
      <trkpt lat="47.53264" lon="6.77204">
        <ele>368</ele>
        <time>2016-09-25T09:51:37.000Z</time>
      </trkpt>
      <trkpt lat="47.53261" lon="6.77205">
        <ele>368</ele>
        <time>2016-09-25T09:51:38.000Z</time>
      </trkpt>
      <trkpt lat="47.53257" lon="6.77207">
        <ele>368</ele>
        <time>2016-09-25T09:51:39.000Z</time>
      </trkpt>
      <trkpt lat="47.53254" lon="6.77208">
        <ele>368</ele>
        <time>2016-09-25T09:51:40.000Z</time>
      </trkpt>
      <trkpt lat="47.53251" lon="6.77209">
        <ele>368</ele>
        <time>2016-09-25T09:51:41.000Z</time>
      </trkpt>
      <trkpt lat="47.53248" lon="6.77208">
        <ele>370</ele>
        <time>2016-09-25T09:51:42.000Z</time>
      </trkpt>
      <trkpt lat="47.53246" lon="6.77207">
        <ele>370</ele>
        <time>2016-09-25T09:51:43.000Z</time>
      </trkpt>
      <trkpt lat="47.53243" lon="6.77206">
        <ele>370</ele>
        <time>2016-09-25T09:51:44.000Z</time>
      </trkpt>
      <trkpt lat="47.53241" lon="6.77204">
        <ele>370</ele>
        <time>2016-09-25T09:51:45.000Z</time>
      </trkpt>
      <trkpt lat="47.53239" lon="6.77202">
        <ele>370</ele>
        <time>2016-09-25T09:51:46.000Z</time>
      </trkpt>
      <trkpt lat="47.53237" lon="6.77199">
        <ele>370</ele>
        <time>2016-09-25T09:51:48.000Z</time>
      </trkpt>
      <trkpt lat="47.53235" lon="6.77199">
        <ele>370</ele>
        <time>2016-09-25T09:51:49.000Z</time>
      </trkpt>
      <trkpt lat="47.53231" lon="6.772">
        <ele>370</ele>
        <time>2016-09-25T09:51:50.000Z</time>
      </trkpt>
      <trkpt lat="47.53228" lon="6.77201">
        <ele>370</ele>
        <time>2016-09-25T09:51:51.000Z</time>
      </trkpt>
      <trkpt lat="47.53224" lon="6.77204">
        <ele>370</ele>
        <time>2016-09-25T09:51:52.000Z</time>
      </trkpt>
      <trkpt lat="47.53221" lon="6.77205">
        <ele>370</ele>
        <time>2016-09-25T09:51:53.000Z</time>
      </trkpt>
      <trkpt lat="47.53217" lon="6.77207">
        <ele>370</ele>
        <time>2016-09-25T09:51:54.000Z</time>
      </trkpt>
      <trkpt lat="47.53212" lon="6.77208">
        <ele>370</ele>
        <time>2016-09-25T09:51:55.000Z</time>
      </trkpt>
      <trkpt lat="47.53208" lon="6.77209">
        <ele>370</ele>
        <time>2016-09-25T09:51:56.000Z</time>
      </trkpt>
      <trkpt lat="47.53205" lon="6.7721">
        <ele>370</ele>
        <time>2016-09-25T09:51:57.000Z</time>
      </trkpt>
      <trkpt lat="47.53202" lon="6.7721">
        <ele>370</ele>
        <time>2016-09-25T09:51:58.000Z</time>
      </trkpt>
      <trkpt lat="47.53199" lon="6.77211">
        <ele>370</ele>
        <time>2016-09-25T09:51:59.000Z</time>
      </trkpt>
      <trkpt lat="47.53195" lon="6.77211">
        <ele>370</ele>
        <time>2016-09-25T09:52:00.000Z</time>
      </trkpt>
      <trkpt lat="47.53189" lon="6.7721">
        <ele>370</ele>
        <time>2016-09-25T09:52:01.000Z</time>
      </trkpt>
      <trkpt lat="47.53167" lon="6.7721">
        <ele>370</ele>
        <time>2016-09-25T09:52:02.000Z</time>
      </trkpt>
      <trkpt lat="47.53163" lon="6.77209">
        <ele>371</ele>
        <time>2016-09-25T09:52:03.000Z</time>
      </trkpt>
      <trkpt lat="47.53159" lon="6.77209">
        <ele>371</ele>
        <time>2016-09-25T09:52:04.000Z</time>
      </trkpt>
      <trkpt lat="47.53155" lon="6.77208">
        <ele>371</ele>
        <time>2016-09-25T09:52:05.000Z</time>
      </trkpt>
      <trkpt lat="47.53151" lon="6.77208">
        <ele>371</ele>
        <time>2016-09-25T09:52:06.000Z</time>
      </trkpt>
      <trkpt lat="47.53148" lon="6.77207">
        <ele>371</ele>
        <time>2016-09-25T09:52:07.000Z</time>
      </trkpt>
      <trkpt lat="47.53145" lon="6.77207">
        <ele>371</ele>
        <time>2016-09-25T09:52:08.000Z</time>
      </trkpt>
      <trkpt lat="47.53143" lon="6.77207">
        <ele>371</ele>
        <time>2016-09-25T09:52:09.000Z</time>
      </trkpt>
      <trkpt lat="47.5314" lon="6.77208">
        <ele>371</ele>
        <time>2016-09-25T09:52:10.000Z</time>
      </trkpt>
      <trkpt lat="47.53137" lon="6.77208">
        <ele>371</ele>
        <time>2016-09-25T09:52:11.000Z</time>
      </trkpt>
      <trkpt lat="47.53133" lon="6.77208">
        <ele>371</ele>
        <time>2016-09-25T09:52:12.000Z</time>
      </trkpt>
      <trkpt lat="47.53129" lon="6.77208">
        <ele>371</ele>
        <time>2016-09-25T09:52:13.000Z</time>
      </trkpt>
      <trkpt lat="47.53123" lon="6.77208">
        <ele>371</ele>
        <time>2016-09-25T09:52:14.000Z</time>
      </trkpt>
      <trkpt lat="47.53117" lon="6.77208">
        <ele>371</ele>
        <time>2016-09-25T09:52:15.000Z</time>
      </trkpt>
      <trkpt lat="47.53111" lon="6.77208">
        <ele>371</ele>
        <time>2016-09-25T09:52:16.000Z</time>
      </trkpt>
      <trkpt lat="47.53105" lon="6.77208">
        <ele>371</ele>
        <time>2016-09-25T09:52:17.000Z</time>
      </trkpt>
      <trkpt lat="47.53099" lon="6.77208">
        <ele>371</ele>
        <time>2016-09-25T09:52:18.000Z</time>
      </trkpt>
      <trkpt lat="47.53094" lon="6.77208">
        <ele>371</ele>
        <time>2016-09-25T09:52:19.000Z</time>
      </trkpt>
      <trkpt lat="47.53089" lon="6.77209">
        <ele>371</ele>
        <time>2016-09-25T09:52:20.000Z</time>
      </trkpt>
      <trkpt lat="47.53083" lon="6.77208">
        <ele>371</ele>
        <time>2016-09-25T09:52:21.000Z</time>
      </trkpt>
      <trkpt lat="47.53065" lon="6.77211">
        <ele>371</ele>
        <time>2016-09-25T09:52:22.000Z</time>
      </trkpt>
      <trkpt lat="47.53056" lon="6.77212">
        <ele>371</ele>
        <time>2016-09-25T09:52:23.000Z</time>
      </trkpt>
      <trkpt lat="47.53048" lon="6.77213">
        <ele>371</ele>
        <time>2016-09-25T09:52:24.000Z</time>
      </trkpt>
      <trkpt lat="47.53045" lon="6.77214">
        <ele>371</ele>
        <time>2016-09-25T09:52:25.000Z</time>
      </trkpt>
      <trkpt lat="47.53042" lon="6.77211">
        <ele>371</ele>
        <time>2016-09-25T09:52:26.000Z</time>
      </trkpt>
      <trkpt lat="47.53039" lon="6.77209">
        <ele>372</ele>
        <time>2016-09-25T09:52:27.000Z</time>
      </trkpt>
      <trkpt lat="47.53035" lon="6.7721">
        <ele>372</ele>
        <time>2016-09-25T09:52:28.000Z</time>
      </trkpt>
      <trkpt lat="47.53032" lon="6.77207">
        <ele>372</ele>
        <time>2016-09-25T09:52:29.000Z</time>
      </trkpt>
      <trkpt lat="47.53025" lon="6.77208">
        <ele>372</ele>
        <time>2016-09-25T09:52:30.000Z</time>
      </trkpt>
      <trkpt lat="47.53021" lon="6.7721">
        <ele>372</ele>
        <time>2016-09-25T09:52:32.000Z</time>
      </trkpt>
      <trkpt lat="47.5302" lon="6.7721">
        <ele>372</ele>
        <time>2016-09-25T09:52:33.000Z</time>
      </trkpt>
      <trkpt lat="47.53018" lon="6.77209">
        <ele>372</ele>
        <time>2016-09-25T09:52:35.000Z</time>
      </trkpt>
      <trkpt lat="47.53016" lon="6.77209">
        <ele>372</ele>
        <time>2016-09-25T09:52:36.000Z</time>
      </trkpt>
      <trkpt lat="47.53013" lon="6.7721">
        <ele>372</ele>
        <time>2016-09-25T09:52:37.000Z</time>
      </trkpt>
      <trkpt lat="47.53011" lon="6.77211">
        <ele>372</ele>
        <time>2016-09-25T09:52:38.000Z</time>
      </trkpt>
      <trkpt lat="47.53008" lon="6.77212">
        <ele>372</ele>
        <time>2016-09-25T09:52:39.000Z</time>
      </trkpt>
      <trkpt lat="47.53004" lon="6.77213">
        <ele>372</ele>
        <time>2016-09-25T09:52:40.000Z</time>
      </trkpt>
      <trkpt lat="47.53001" lon="6.77213">
        <ele>372</ele>
        <time>2016-09-25T09:52:41.000Z</time>
      </trkpt>
      <trkpt lat="47.52996" lon="6.77213">
        <ele>373</ele>
        <time>2016-09-25T09:52:42.000Z</time>
      </trkpt>
      <trkpt lat="47.52992" lon="6.77214">
        <ele>373</ele>
        <time>2016-09-25T09:52:43.000Z</time>
      </trkpt>
      <trkpt lat="47.52988" lon="6.77214">
        <ele>373</ele>
        <time>2016-09-25T09:52:44.000Z</time>
      </trkpt>
      <trkpt lat="47.52983" lon="6.77215">
        <ele>373</ele>
        <time>2016-09-25T09:52:45.000Z</time>
      </trkpt>
      <trkpt lat="47.52979" lon="6.77216">
        <ele>373</ele>
        <time>2016-09-25T09:52:46.000Z</time>
      </trkpt>
      <trkpt lat="47.52975" lon="6.77216">
        <ele>373</ele>
        <time>2016-09-25T09:52:47.000Z</time>
      </trkpt>
      <trkpt lat="47.52974" lon="6.7722">
        <ele>373</ele>
        <time>2016-09-25T09:52:53.000Z</time>
      </trkpt>
      <trkpt lat="47.52971" lon="6.7722">
        <ele>373</ele>
        <time>2016-09-25T09:52:54.000Z</time>
      </trkpt>
      <trkpt lat="47.52966" lon="6.77221">
        <ele>373</ele>
        <time>2016-09-25T09:52:55.000Z</time>
      </trkpt>
      <trkpt lat="47.52961" lon="6.77221">
        <ele>374</ele>
        <time>2016-09-25T09:52:56.000Z</time>
      </trkpt>
      <trkpt lat="47.52956" lon="6.77221">
        <ele>374</ele>
        <time>2016-09-25T09:52:57.000Z</time>
      </trkpt>
      <trkpt lat="47.52935" lon="6.77223">
        <ele>374</ele>
        <time>2016-09-25T09:52:58.000Z</time>
      </trkpt>
      <trkpt lat="47.52932" lon="6.77221">
        <ele>374</ele>
        <time>2016-09-25T09:52:59.000Z</time>
      </trkpt>
      <trkpt lat="47.5293" lon="6.7722">
        <ele>374</ele>
        <time>2016-09-25T09:53:00.000Z</time>
      </trkpt>
      <trkpt lat="47.52926" lon="6.7722">
        <ele>374</ele>
        <time>2016-09-25T09:53:01.000Z</time>
      </trkpt>
      <trkpt lat="47.52923" lon="6.77219">
        <ele>374</ele>
        <time>2016-09-25T09:53:02.000Z</time>
      </trkpt>
      <trkpt lat="47.52919" lon="6.77219">
        <ele>374</ele>
        <time>2016-09-25T09:53:03.000Z</time>
      </trkpt>
      <trkpt lat="47.52916" lon="6.77219">
        <ele>376</ele>
        <time>2016-09-25T09:53:04.000Z</time>
      </trkpt>
      <trkpt lat="47.52913" lon="6.77218">
        <ele>376</ele>
        <time>2016-09-25T09:53:05.000Z</time>
      </trkpt>
      <trkpt lat="47.5291" lon="6.77218">
        <ele>376</ele>
        <time>2016-09-25T09:53:06.000Z</time>
      </trkpt>
      <trkpt lat="47.52906" lon="6.77217">
        <ele>376</ele>
        <time>2016-09-25T09:53:08.000Z</time>
      </trkpt>
      <trkpt lat="47.52904" lon="6.77217">
        <ele>376</ele>
        <time>2016-09-25T09:53:09.000Z</time>
      </trkpt>
      <trkpt lat="47.52901" lon="6.77217">
        <ele>376</ele>
        <time>2016-09-25T09:53:11.000Z</time>
      </trkpt>
      <trkpt lat="47.52897" lon="6.77217">
        <ele>376</ele>
        <time>2016-09-25T09:53:12.000Z</time>
      </trkpt>
      <trkpt lat="47.52892" lon="6.77217">
        <ele>376</ele>
        <time>2016-09-25T09:53:13.000Z</time>
      </trkpt>
      <trkpt lat="47.52887" lon="6.77217">
        <ele>376</ele>
        <time>2016-09-25T09:53:14.000Z</time>
      </trkpt>
      <trkpt lat="47.52883" lon="6.77218">
        <ele>377</ele>
        <time>2016-09-25T09:53:15.000Z</time>
      </trkpt>
      <trkpt lat="47.5288" lon="6.77218">
        <ele>377</ele>
        <time>2016-09-25T09:53:16.000Z</time>
      </trkpt>
      <trkpt lat="47.52876" lon="6.77217">
        <ele>377</ele>
        <time>2016-09-25T09:53:19.000Z</time>
      </trkpt>
      <trkpt lat="47.52875" lon="6.77218">
        <ele>377</ele>
        <time>2016-09-25T09:53:20.000Z</time>
      </trkpt>
      <trkpt lat="47.5287" lon="6.77219">
        <ele>377</ele>
        <time>2016-09-25T09:53:23.000Z</time>
      </trkpt>
      <trkpt lat="47.52869" lon="6.77219">
        <ele>377</ele>
        <time>2016-09-25T09:53:24.000Z</time>
      </trkpt>
      <trkpt lat="47.52866" lon="6.7722">
        <ele>377</ele>
        <time>2016-09-25T09:53:26.000Z</time>
      </trkpt>
      <trkpt lat="47.52864" lon="6.7722">
        <ele>377</ele>
        <time>2016-09-25T09:53:27.000Z</time>
      </trkpt>
      <trkpt lat="47.52861" lon="6.7722">
        <ele>377</ele>
        <time>2016-09-25T09:53:28.000Z</time>
      </trkpt>
      <trkpt lat="47.52859" lon="6.77221">
        <ele>377</ele>
        <time>2016-09-25T09:53:29.000Z</time>
      </trkpt>
      <trkpt lat="47.52856" lon="6.7722">
        <ele>377</ele>
        <time>2016-09-25T09:53:31.000Z</time>
      </trkpt>
      <trkpt lat="47.52854" lon="6.7722">
        <ele>377</ele>
        <time>2016-09-25T09:53:32.000Z</time>
      </trkpt>
      <trkpt lat="47.52852" lon="6.7722">
        <ele>377</ele>
        <time>2016-09-25T09:53:33.000Z</time>
      </trkpt>
      <trkpt lat="47.52849" lon="6.77221">
        <ele>378</ele>
        <time>2016-09-25T09:53:34.000Z</time>
      </trkpt>
      <trkpt lat="47.52845" lon="6.77221">
        <ele>378</ele>
        <time>2016-09-25T09:53:35.000Z</time>
      </trkpt>
      <trkpt lat="47.52842" lon="6.77221">
        <ele>378</ele>
        <time>2016-09-25T09:53:36.000Z</time>
      </trkpt>
      <trkpt lat="47.52838" lon="6.77222">
        <ele>378</ele>
        <time>2016-09-25T09:53:37.000Z</time>
      </trkpt>
      <trkpt lat="47.52834" lon="6.77222">
        <ele>378</ele>
        <time>2016-09-25T09:53:38.000Z</time>
      </trkpt>
      <trkpt lat="47.5283" lon="6.77222">
        <ele>380</ele>
        <time>2016-09-25T09:53:39.000Z</time>
      </trkpt>
      <trkpt lat="47.52826" lon="6.77222">
        <ele>380</ele>
        <time>2016-09-25T09:53:40.000Z</time>
      </trkpt>
      <trkpt lat="47.52822" lon="6.77222">
        <ele>380</ele>
        <time>2016-09-25T09:53:41.000Z</time>
      </trkpt>
      <trkpt lat="47.52818" lon="6.77222">
        <ele>380</ele>
        <time>2016-09-25T09:53:42.000Z</time>
      </trkpt>
      <trkpt lat="47.52815" lon="6.77222">
        <ele>380</ele>
        <time>2016-09-25T09:53:43.000Z</time>
      </trkpt>
      <trkpt lat="47.52812" lon="6.77222">
        <ele>380</ele>
        <time>2016-09-25T09:53:44.000Z</time>
      </trkpt>
      <trkpt lat="47.52808" lon="6.77222">
        <ele>380</ele>
        <time>2016-09-25T09:53:45.000Z</time>
      </trkpt>
      <trkpt lat="47.52804" lon="6.77223">
        <ele>380</ele>
        <time>2016-09-25T09:53:46.000Z</time>
      </trkpt>
      <trkpt lat="47.528" lon="6.77223">
        <ele>380</ele>
        <time>2016-09-25T09:53:47.000Z</time>
      </trkpt>
      <trkpt lat="47.52796" lon="6.77222">
        <ele>380</ele>
        <time>2016-09-25T09:53:48.000Z</time>
      </trkpt>
      <trkpt lat="47.52793" lon="6.77221">
        <ele>380</ele>
        <time>2016-09-25T09:53:49.000Z</time>
      </trkpt>
      <trkpt lat="47.52789" lon="6.7722">
        <ele>381</ele>
        <time>2016-09-25T09:53:50.000Z</time>
      </trkpt>
      <trkpt lat="47.52785" lon="6.77219">
        <ele>381</ele>
        <time>2016-09-25T09:53:51.000Z</time>
      </trkpt>
      <trkpt lat="47.52782" lon="6.77219">
        <ele>381</ele>
        <time>2016-09-25T09:53:52.000Z</time>
      </trkpt>
      <trkpt lat="47.52779" lon="6.77218">
        <ele>381</ele>
        <time>2016-09-25T09:53:53.000Z</time>
      </trkpt>
      <trkpt lat="47.52776" lon="6.77219">
        <ele>381</ele>
        <time>2016-09-25T09:53:54.000Z</time>
      </trkpt>
      <trkpt lat="47.52773" lon="6.7722">
        <ele>381</ele>
        <time>2016-09-25T09:53:56.000Z</time>
      </trkpt>
      <trkpt lat="47.52771" lon="6.77222">
        <ele>381</ele>
        <time>2016-09-25T09:53:57.000Z</time>
      </trkpt>
      <trkpt lat="47.52768" lon="6.77222">
        <ele>381</ele>
        <time>2016-09-25T09:53:58.000Z</time>
      </trkpt>
      <trkpt lat="47.52765" lon="6.77223">
        <ele>381</ele>
        <time>2016-09-25T09:53:59.000Z</time>
      </trkpt>
      <trkpt lat="47.52762" lon="6.77224">
        <ele>381</ele>
        <time>2016-09-25T09:54:00.000Z</time>
      </trkpt>
      <trkpt lat="47.52757" lon="6.77224">
        <ele>382</ele>
        <time>2016-09-25T09:54:01.000Z</time>
      </trkpt>
      <trkpt lat="47.52753" lon="6.77224">
        <ele>382</ele>
        <time>2016-09-25T09:54:02.000Z</time>
      </trkpt>
      <trkpt lat="47.52749" lon="6.77225">
        <ele>384</ele>
        <time>2016-09-25T09:54:03.000Z</time>
      </trkpt>
      <trkpt lat="47.52746" lon="6.77225">
        <ele>384</ele>
        <time>2016-09-25T09:54:04.000Z</time>
      </trkpt>
      <trkpt lat="47.52742" lon="6.77224">
        <ele>384</ele>
        <time>2016-09-25T09:54:05.000Z</time>
      </trkpt>
      <trkpt lat="47.52738" lon="6.77224">
        <ele>384</ele>
        <time>2016-09-25T09:54:06.000Z</time>
      </trkpt>
      <trkpt lat="47.52734" lon="6.77224">
        <ele>384</ele>
        <time>2016-09-25T09:54:07.000Z</time>
      </trkpt>
      <trkpt lat="47.5273" lon="6.77225">
        <ele>384</ele>
        <time>2016-09-25T09:54:08.000Z</time>
      </trkpt>
      <trkpt lat="47.52725" lon="6.77226">
        <ele>384</ele>
        <time>2016-09-25T09:54:09.000Z</time>
      </trkpt>
      <trkpt lat="47.52702" lon="6.77237">
        <ele>385</ele>
        <time>2016-09-25T09:54:10.000Z</time>
      </trkpt>
      <trkpt lat="47.52695" lon="6.77238">
        <ele>385</ele>
        <time>2016-09-25T09:54:11.000Z</time>
      </trkpt>
      <trkpt lat="47.52688" lon="6.7724">
        <ele>385</ele>
        <time>2016-09-25T09:54:12.000Z</time>
      </trkpt>
      <trkpt lat="47.52682" lon="6.77242">
        <ele>385</ele>
        <time>2016-09-25T09:54:13.000Z</time>
      </trkpt>
      <trkpt lat="47.52676" lon="6.77243">
        <ele>385</ele>
        <time>2016-09-25T09:54:14.000Z</time>
      </trkpt>
      <trkpt lat="47.52671" lon="6.77245">
        <ele>386</ele>
        <time>2016-09-25T09:54:15.000Z</time>
      </trkpt>
      <trkpt lat="47.52666" lon="6.77247">
        <ele>386</ele>
        <time>2016-09-25T09:54:16.000Z</time>
      </trkpt>
      <trkpt lat="47.52662" lon="6.7725">
        <ele>386</ele>
        <time>2016-09-25T09:54:17.000Z</time>
      </trkpt>
      <trkpt lat="47.52658" lon="6.77253">
        <ele>387</ele>
        <time>2016-09-25T09:54:18.000Z</time>
      </trkpt>
      <trkpt lat="47.52655" lon="6.77255">
        <ele>387</ele>
        <time>2016-09-25T09:54:19.000Z</time>
      </trkpt>
      <trkpt lat="47.52652" lon="6.77258">
        <ele>387</ele>
        <time>2016-09-25T09:54:20.000Z</time>
      </trkpt>
      <trkpt lat="47.5265" lon="6.7726">
        <ele>387</ele>
        <time>2016-09-25T09:54:21.000Z</time>
      </trkpt>
      <trkpt lat="47.52646" lon="6.77264">
        <ele>387</ele>
        <time>2016-09-25T09:54:23.000Z</time>
      </trkpt>
      <trkpt lat="47.52644" lon="6.77266">
        <ele>387</ele>
        <time>2016-09-25T09:54:24.000Z</time>
      </trkpt>
      <trkpt lat="47.52642" lon="6.77268">
        <ele>387</ele>
        <time>2016-09-25T09:54:25.000Z</time>
      </trkpt>
      <trkpt lat="47.52639" lon="6.7727">
        <ele>387</ele>
        <time>2016-09-25T09:54:26.000Z</time>
      </trkpt>
      <trkpt lat="47.52636" lon="6.77272">
        <ele>387</ele>
        <time>2016-09-25T09:54:27.000Z</time>
      </trkpt>
      <trkpt lat="47.52631" lon="6.77274">
        <ele>387</ele>
        <time>2016-09-25T09:54:28.000Z</time>
      </trkpt>
      <trkpt lat="47.52626" lon="6.77276">
        <ele>387</ele>
        <time>2016-09-25T09:54:29.000Z</time>
      </trkpt>
      <trkpt lat="47.52602" lon="6.77282">
        <ele>387</ele>
        <time>2016-09-25T09:54:30.000Z</time>
      </trkpt>
      <trkpt lat="47.52599" lon="6.77285">
        <ele>387</ele>
        <time>2016-09-25T09:54:31.000Z</time>
      </trkpt>
      <trkpt lat="47.52595" lon="6.77287">
        <ele>387</ele>
        <time>2016-09-25T09:54:32.000Z</time>
      </trkpt>
      <trkpt lat="47.52592" lon="6.77293">
        <ele>387</ele>
        <time>2016-09-25T09:54:33.000Z</time>
      </trkpt>
      <trkpt lat="47.52575" lon="6.77304">
        <ele>385</ele>
        <time>2016-09-25T09:54:34.000Z</time>
      </trkpt>
      <trkpt lat="47.52573" lon="6.77314">
        <ele>385</ele>
        <time>2016-09-25T09:54:35.000Z</time>
      </trkpt>
      <trkpt lat="47.52565" lon="6.77316">
        <ele>385</ele>
        <time>2016-09-25T09:54:36.000Z</time>
      </trkpt>
      <trkpt lat="47.52554" lon="6.77316">
        <ele>385</ele>
        <time>2016-09-25T09:54:37.000Z</time>
      </trkpt>
      <trkpt lat="47.52546" lon="6.77319">
        <ele>385</ele>
        <time>2016-09-25T09:54:38.000Z</time>
      </trkpt>
      <trkpt lat="47.52538" lon="6.77321">
        <ele>385</ele>
        <time>2016-09-25T09:54:39.000Z</time>
      </trkpt>
      <trkpt lat="47.52531" lon="6.77326">
        <ele>385</ele>
        <time>2016-09-25T09:54:40.000Z</time>
      </trkpt>
      <trkpt lat="47.52525" lon="6.7733">
        <ele>385</ele>
        <time>2016-09-25T09:54:41.000Z</time>
      </trkpt>
      <trkpt lat="47.5252" lon="6.77332">
        <ele>385</ele>
        <time>2016-09-25T09:54:42.000Z</time>
      </trkpt>
      <trkpt lat="47.52516" lon="6.77336">
        <ele>387</ele>
        <time>2016-09-25T09:54:43.000Z</time>
      </trkpt>
      <trkpt lat="47.52512" lon="6.7734">
        <ele>386</ele>
        <time>2016-09-25T09:54:44.000Z</time>
      </trkpt>
      <trkpt lat="47.5251" lon="6.77343">
        <ele>386</ele>
        <time>2016-09-25T09:54:45.000Z</time>
      </trkpt>
      <trkpt lat="47.52506" lon="6.77345">
        <ele>386</ele>
        <time>2016-09-25T09:54:46.000Z</time>
      </trkpt>
      <trkpt lat="47.52505" lon="6.77347">
        <ele>387</ele>
        <time>2016-09-25T09:54:47.000Z</time>
      </trkpt>
      <trkpt lat="47.52503" lon="6.7735">
        <ele>387</ele>
        <time>2016-09-25T09:54:48.000Z</time>
      </trkpt>
      <trkpt lat="47.525" lon="6.77353">
        <ele>388</ele>
        <time>2016-09-25T09:54:49.000Z</time>
      </trkpt>
      <trkpt lat="47.52496" lon="6.77358">
        <ele>388</ele>
        <time>2016-09-25T09:54:50.000Z</time>
      </trkpt>
      <trkpt lat="47.52492" lon="6.77358">
        <ele>389</ele>
        <time>2016-09-25T09:54:51.000Z</time>
      </trkpt>
      <trkpt lat="47.52488" lon="6.77356">
        <ele>389</ele>
        <time>2016-09-25T09:54:52.000Z</time>
      </trkpt>
      <trkpt lat="47.52487" lon="6.77364">
        <ele>389</ele>
        <time>2016-09-25T09:54:53.000Z</time>
      </trkpt>
      <trkpt lat="47.52484" lon="6.77365">
        <ele>389</ele>
        <time>2016-09-25T09:54:54.000Z</time>
      </trkpt>
      <trkpt lat="47.52482" lon="6.77369">
        <ele>390</ele>
        <time>2016-09-25T09:54:55.000Z</time>
      </trkpt>
      <trkpt lat="47.5248" lon="6.77373">
        <ele>390</ele>
        <time>2016-09-25T09:54:57.000Z</time>
      </trkpt>
      <trkpt lat="47.52479" lon="6.77375">
        <ele>390</ele>
        <time>2016-09-25T09:54:58.000Z</time>
      </trkpt>
      <trkpt lat="47.52479" lon="6.77374">
        <ele>390</ele>
        <time>2016-09-25T09:55:00.000Z</time>
      </trkpt>
      <trkpt lat="47.52473" lon="6.77377">
        <ele>390</ele>
        <time>2016-09-25T09:55:01.000Z</time>
      </trkpt>
      <trkpt lat="47.5247" lon="6.77378">
        <ele>390</ele>
        <time>2016-09-25T09:55:03.000Z</time>
      </trkpt>
      <trkpt lat="47.52468" lon="6.77378">
        <ele>390</ele>
        <time>2016-09-25T09:55:04.000Z</time>
      </trkpt>
      <trkpt lat="47.52465" lon="6.77379">
        <ele>390</ele>
        <time>2016-09-25T09:55:05.000Z</time>
      </trkpt>
      <trkpt lat="47.52462" lon="6.77381">
        <ele>390</ele>
        <time>2016-09-25T09:55:06.000Z</time>
      </trkpt>
      <trkpt lat="47.52457" lon="6.77383">
        <ele>390</ele>
        <time>2016-09-25T09:55:07.000Z</time>
      </trkpt>
      <trkpt lat="47.52453" lon="6.77386">
        <ele>391</ele>
        <time>2016-09-25T09:55:08.000Z</time>
      </trkpt>
      <trkpt lat="47.52449" lon="6.77389">
        <ele>391</ele>
        <time>2016-09-25T09:55:09.000Z</time>
      </trkpt>
      <trkpt lat="47.52445" lon="6.77391">
        <ele>391</ele>
        <time>2016-09-25T09:55:10.000Z</time>
      </trkpt>
      <trkpt lat="47.52442" lon="6.77393">
        <ele>391</ele>
        <time>2016-09-25T09:55:11.000Z</time>
      </trkpt>
      <trkpt lat="47.52439" lon="6.77396">
        <ele>391</ele>
        <time>2016-09-25T09:55:12.000Z</time>
      </trkpt>
      <trkpt lat="47.52436" lon="6.77399">
        <ele>391</ele>
        <time>2016-09-25T09:55:13.000Z</time>
      </trkpt>
      <trkpt lat="47.52434" lon="6.77402">
        <ele>391</ele>
        <time>2016-09-25T09:55:14.000Z</time>
      </trkpt>
      <trkpt lat="47.52432" lon="6.77404">
        <ele>392</ele>
        <time>2016-09-25T09:55:15.000Z</time>
      </trkpt>
      <trkpt lat="47.52431" lon="6.77409">
        <ele>392</ele>
        <time>2016-09-25T09:55:17.000Z</time>
      </trkpt>
      <trkpt lat="47.5243" lon="6.77412">
        <ele>392</ele>
        <time>2016-09-25T09:55:18.000Z</time>
      </trkpt>
      <trkpt lat="47.52428" lon="6.77416">
        <ele>392</ele>
        <time>2016-09-25T09:55:19.000Z</time>
      </trkpt>
      <trkpt lat="47.52426" lon="6.7742">
        <ele>393</ele>
        <time>2016-09-25T09:55:20.000Z</time>
      </trkpt>
      <trkpt lat="47.52424" lon="6.77424">
        <ele>393</ele>
        <time>2016-09-25T09:55:21.000Z</time>
      </trkpt>
      <trkpt lat="47.52421" lon="6.77428">
        <ele>393</ele>
        <time>2016-09-25T09:55:22.000Z</time>
      </trkpt>
      <trkpt lat="47.52418" lon="6.77431">
        <ele>393</ele>
        <time>2016-09-25T09:55:23.000Z</time>
      </trkpt>
      <trkpt lat="47.52415" lon="6.77434">
        <ele>392</ele>
        <time>2016-09-25T09:55:24.000Z</time>
      </trkpt>
      <trkpt lat="47.52412" lon="6.77438">
        <ele>392</ele>
        <time>2016-09-25T09:55:25.000Z</time>
      </trkpt>
      <trkpt lat="47.52408" lon="6.77441">
        <ele>392</ele>
        <time>2016-09-25T09:55:26.000Z</time>
      </trkpt>
      <trkpt lat="47.52404" lon="6.77444">
        <ele>392</ele>
        <time>2016-09-25T09:55:27.000Z</time>
      </trkpt>
      <trkpt lat="47.524" lon="6.77448">
        <ele>392</ele>
        <time>2016-09-25T09:55:28.000Z</time>
      </trkpt>
      <trkpt lat="47.52396" lon="6.77451">
        <ele>392</ele>
        <time>2016-09-25T09:55:29.000Z</time>
      </trkpt>
      <trkpt lat="47.52393" lon="6.77454">
        <ele>391</ele>
        <time>2016-09-25T09:55:30.000Z</time>
      </trkpt>
      <trkpt lat="47.52389" lon="6.77457">
        <ele>391</ele>
        <time>2016-09-25T09:55:31.000Z</time>
      </trkpt>
      <trkpt lat="47.52386" lon="6.7746">
        <ele>391</ele>
        <time>2016-09-25T09:55:32.000Z</time>
      </trkpt>
      <trkpt lat="47.52383" lon="6.77463">
        <ele>391</ele>
        <time>2016-09-25T09:55:33.000Z</time>
      </trkpt>
      <trkpt lat="47.5238" lon="6.77465">
        <ele>391</ele>
        <time>2016-09-25T09:55:34.000Z</time>
      </trkpt>
      <trkpt lat="47.52377" lon="6.77468">
        <ele>391</ele>
        <time>2016-09-25T09:55:35.000Z</time>
      </trkpt>
      <trkpt lat="47.52374" lon="6.77471">
        <ele>391</ele>
        <time>2016-09-25T09:55:36.000Z</time>
      </trkpt>
      <trkpt lat="47.52371" lon="6.77474">
        <ele>391</ele>
        <time>2016-09-25T09:55:37.000Z</time>
      </trkpt>
      <trkpt lat="47.52368" lon="6.77477">
        <ele>391</ele>
        <time>2016-09-25T09:55:38.000Z</time>
      </trkpt>
      <trkpt lat="47.52365" lon="6.77481">
        <ele>391</ele>
        <time>2016-09-25T09:55:39.000Z</time>
      </trkpt>
      <trkpt lat="47.52362" lon="6.77484">
        <ele>391</ele>
        <time>2016-09-25T09:55:40.000Z</time>
      </trkpt>
      <trkpt lat="47.52358" lon="6.77487">
        <ele>391</ele>
        <time>2016-09-25T09:55:41.000Z</time>
      </trkpt>
      <trkpt lat="47.52355" lon="6.7749">
        <ele>390</ele>
        <time>2016-09-25T09:55:42.000Z</time>
      </trkpt>
      <trkpt lat="47.52351" lon="6.77493">
        <ele>390</ele>
        <time>2016-09-25T09:55:43.000Z</time>
      </trkpt>
      <trkpt lat="47.52347" lon="6.77496">
        <ele>390</ele>
        <time>2016-09-25T09:55:44.000Z</time>
      </trkpt>
      <trkpt lat="47.52344" lon="6.77499">
        <ele>390</ele>
        <time>2016-09-25T09:55:45.000Z</time>
      </trkpt>
      <trkpt lat="47.5234" lon="6.77502">
        <ele>389</ele>
        <time>2016-09-25T09:55:46.000Z</time>
      </trkpt>
      <trkpt lat="47.52336" lon="6.77505">
        <ele>389</ele>
        <time>2016-09-25T09:55:47.000Z</time>
      </trkpt>
      <trkpt lat="47.52333" lon="6.77508">
        <ele>388</ele>
        <time>2016-09-25T09:55:48.000Z</time>
      </trkpt>
      <trkpt lat="47.52329" lon="6.77511">
        <ele>388</ele>
        <time>2016-09-25T09:55:49.000Z</time>
      </trkpt>
      <trkpt lat="47.52325" lon="6.77514">
        <ele>388</ele>
        <time>2016-09-25T09:55:50.000Z</time>
      </trkpt>
      <trkpt lat="47.52322" lon="6.77517">
        <ele>388</ele>
        <time>2016-09-25T09:55:51.000Z</time>
      </trkpt>
      <trkpt lat="47.52318" lon="6.7752">
        <ele>388</ele>
        <time>2016-09-25T09:55:52.000Z</time>
      </trkpt>
      <trkpt lat="47.52314" lon="6.77523">
        <ele>388</ele>
        <time>2016-09-25T09:55:53.000Z</time>
      </trkpt>
      <trkpt lat="47.52309" lon="6.77528">
        <ele>388</ele>
        <time>2016-09-25T09:55:54.000Z</time>
      </trkpt>
      <trkpt lat="47.52305" lon="6.77532">
        <ele>387</ele>
        <time>2016-09-25T09:55:55.000Z</time>
      </trkpt>
      <trkpt lat="47.52301" lon="6.77535">
        <ele>387</ele>
        <time>2016-09-25T09:55:56.000Z</time>
      </trkpt>
      <trkpt lat="47.52296" lon="6.77537">
        <ele>387</ele>
        <time>2016-09-25T09:55:57.000Z</time>
      </trkpt>
      <trkpt lat="47.52291" lon="6.7754">
        <ele>387</ele>
        <time>2016-09-25T09:55:58.000Z</time>
      </trkpt>
      <trkpt lat="47.52287" lon="6.77543">
        <ele>387</ele>
        <time>2016-09-25T09:55:59.000Z</time>
      </trkpt>
      <trkpt lat="47.52283" lon="6.77546">
        <ele>387</ele>
        <time>2016-09-25T09:56:00.000Z</time>
      </trkpt>
      <trkpt lat="47.52279" lon="6.77548">
        <ele>387</ele>
        <time>2016-09-25T09:56:01.000Z</time>
      </trkpt>
      <trkpt lat="47.52275" lon="6.77551">
        <ele>387</ele>
        <time>2016-09-25T09:56:02.000Z</time>
      </trkpt>
      <trkpt lat="47.52271" lon="6.77553">
        <ele>387</ele>
        <time>2016-09-25T09:56:03.000Z</time>
      </trkpt>
      <trkpt lat="47.52267" lon="6.77555">
        <ele>387</ele>
        <time>2016-09-25T09:56:04.000Z</time>
      </trkpt>
      <trkpt lat="47.52263" lon="6.77558">
        <ele>387</ele>
        <time>2016-09-25T09:56:05.000Z</time>
      </trkpt>
      <trkpt lat="47.52259" lon="6.7756">
        <ele>387</ele>
        <time>2016-09-25T09:56:06.000Z</time>
      </trkpt>
      <trkpt lat="47.52255" lon="6.77563">
        <ele>387</ele>
        <time>2016-09-25T09:56:07.000Z</time>
      </trkpt>
      <trkpt lat="47.52251" lon="6.77565">
        <ele>387</ele>
        <time>2016-09-25T09:56:08.000Z</time>
      </trkpt>
      <trkpt lat="47.52247" lon="6.77567">
        <ele>387</ele>
        <time>2016-09-25T09:56:09.000Z</time>
      </trkpt>
      <trkpt lat="47.52243" lon="6.7757">
        <ele>387</ele>
        <time>2016-09-25T09:56:10.000Z</time>
      </trkpt>
      <trkpt lat="47.52239" lon="6.77573">
        <ele>387</ele>
        <time>2016-09-25T09:56:11.000Z</time>
      </trkpt>
      <trkpt lat="47.52235" lon="6.77576">
        <ele>387</ele>
        <time>2016-09-25T09:56:12.000Z</time>
      </trkpt>
      <trkpt lat="47.52231" lon="6.77578">
        <ele>387</ele>
        <time>2016-09-25T09:56:13.000Z</time>
      </trkpt>
      <trkpt lat="47.52227" lon="6.77581">
        <ele>387</ele>
        <time>2016-09-25T09:56:14.000Z</time>
      </trkpt>
      <trkpt lat="47.52223" lon="6.77583">
        <ele>386</ele>
        <time>2016-09-25T09:56:15.000Z</time>
      </trkpt>
      <trkpt lat="47.52219" lon="6.77586">
        <ele>386</ele>
        <time>2016-09-25T09:56:16.000Z</time>
      </trkpt>
      <trkpt lat="47.52215" lon="6.77589">
        <ele>387</ele>
        <time>2016-09-25T09:56:17.000Z</time>
      </trkpt>
      <trkpt lat="47.52211" lon="6.77591">
        <ele>387</ele>
        <time>2016-09-25T09:56:18.000Z</time>
      </trkpt>
      <trkpt lat="47.52207" lon="6.77594">
        <ele>387</ele>
        <time>2016-09-25T09:56:19.000Z</time>
      </trkpt>
      <trkpt lat="47.52204" lon="6.77597">
        <ele>387</ele>
        <time>2016-09-25T09:56:20.000Z</time>
      </trkpt>
      <trkpt lat="47.52201" lon="6.77599">
        <ele>387</ele>
        <time>2016-09-25T09:56:21.000Z</time>
      </trkpt>
      <trkpt lat="47.52197" lon="6.77602">
        <ele>387</ele>
        <time>2016-09-25T09:56:22.000Z</time>
      </trkpt>
      <trkpt lat="47.52193" lon="6.77604">
        <ele>387</ele>
        <time>2016-09-25T09:56:23.000Z</time>
      </trkpt>
      <trkpt lat="47.5219" lon="6.77607">
        <ele>387</ele>
        <time>2016-09-25T09:56:24.000Z</time>
      </trkpt>
      <trkpt lat="47.52186" lon="6.7761">
        <ele>387</ele>
        <time>2016-09-25T09:56:25.000Z</time>
      </trkpt>
      <trkpt lat="47.52182" lon="6.77612">
        <ele>387</ele>
        <time>2016-09-25T09:56:26.000Z</time>
      </trkpt>
      <trkpt lat="47.52179" lon="6.77615">
        <ele>387</ele>
        <time>2016-09-25T09:56:27.000Z</time>
      </trkpt>
      <trkpt lat="47.52175" lon="6.77617">
        <ele>387</ele>
        <time>2016-09-25T09:56:28.000Z</time>
      </trkpt>
      <trkpt lat="47.52172" lon="6.7762">
        <ele>387</ele>
        <time>2016-09-25T09:56:29.000Z</time>
      </trkpt>
      <trkpt lat="47.52169" lon="6.77622">
        <ele>387</ele>
        <time>2016-09-25T09:56:30.000Z</time>
      </trkpt>
      <trkpt lat="47.52165" lon="6.77625">
        <ele>390</ele>
        <time>2016-09-25T09:56:31.000Z</time>
      </trkpt>
      <trkpt lat="47.52162" lon="6.77627">
        <ele>390</ele>
        <time>2016-09-25T09:56:32.000Z</time>
      </trkpt>
      <trkpt lat="47.52159" lon="6.7763">
        <ele>390</ele>
        <time>2016-09-25T09:56:33.000Z</time>
      </trkpt>
      <trkpt lat="47.52155" lon="6.77632">
        <ele>390</ele>
        <time>2016-09-25T09:56:34.000Z</time>
      </trkpt>
      <trkpt lat="47.52152" lon="6.77634">
        <ele>390</ele>
        <time>2016-09-25T09:56:35.000Z</time>
      </trkpt>
      <trkpt lat="47.52149" lon="6.77636">
        <ele>390</ele>
        <time>2016-09-25T09:56:36.000Z</time>
      </trkpt>
      <trkpt lat="47.52146" lon="6.77638">
        <ele>390</ele>
        <time>2016-09-25T09:56:37.000Z</time>
      </trkpt>
      <trkpt lat="47.52143" lon="6.7764">
        <ele>390</ele>
        <time>2016-09-25T09:56:38.000Z</time>
      </trkpt>
      <trkpt lat="47.5214" lon="6.77642">
        <ele>390</ele>
        <time>2016-09-25T09:56:39.000Z</time>
      </trkpt>
      <trkpt lat="47.52137" lon="6.77644">
        <ele>390</ele>
        <time>2016-09-25T09:56:40.000Z</time>
      </trkpt>
      <trkpt lat="47.52133" lon="6.77646">
        <ele>390</ele>
        <time>2016-09-25T09:56:41.000Z</time>
      </trkpt>
      <trkpt lat="47.5213" lon="6.77648">
        <ele>390</ele>
        <time>2016-09-25T09:56:42.000Z</time>
      </trkpt>
      <trkpt lat="47.52127" lon="6.77649">
        <ele>391</ele>
        <time>2016-09-25T09:56:43.000Z</time>
      </trkpt>
      <trkpt lat="47.52124" lon="6.77651">
        <ele>391</ele>
        <time>2016-09-25T09:56:44.000Z</time>
      </trkpt>
      <trkpt lat="47.52121" lon="6.77653">
        <ele>391</ele>
        <time>2016-09-25T09:56:45.000Z</time>
      </trkpt>
      <trkpt lat="47.52119" lon="6.77655">
        <ele>391</ele>
        <time>2016-09-25T09:56:46.000Z</time>
      </trkpt>
      <trkpt lat="47.52116" lon="6.77656">
        <ele>391</ele>
        <time>2016-09-25T09:56:47.000Z</time>
      </trkpt>
      <trkpt lat="47.52114" lon="6.77658">
        <ele>391</ele>
        <time>2016-09-25T09:56:48.000Z</time>
      </trkpt>
      <trkpt lat="47.52112" lon="6.7766">
        <ele>391</ele>
        <time>2016-09-25T09:56:49.000Z</time>
      </trkpt>
      <trkpt lat="47.5211" lon="6.77661">
        <ele>391</ele>
        <time>2016-09-25T09:56:50.000Z</time>
      </trkpt>
      <trkpt lat="47.52108" lon="6.77662">
        <ele>391</ele>
        <time>2016-09-25T09:56:51.000Z</time>
      </trkpt>
      <trkpt lat="47.52106" lon="6.77664">
        <ele>391</ele>
        <time>2016-09-25T09:56:52.000Z</time>
      </trkpt>
      <trkpt lat="47.52104" lon="6.77665">
        <ele>392</ele>
        <time>2016-09-25T09:56:53.000Z</time>
      </trkpt>
      <trkpt lat="47.52102" lon="6.77666">
        <ele>392</ele>
        <time>2016-09-25T09:56:54.000Z</time>
      </trkpt>
      <trkpt lat="47.521" lon="6.77668">
        <ele>392</ele>
        <time>2016-09-25T09:56:55.000Z</time>
      </trkpt>
      <trkpt lat="47.52096" lon="6.7767">
        <ele>392</ele>
        <time>2016-09-25T09:56:57.000Z</time>
      </trkpt>
      <trkpt lat="47.52094" lon="6.7767">
        <ele>392</ele>
        <time>2016-09-25T09:56:58.000Z</time>
      </trkpt>
      <trkpt lat="47.52093" lon="6.77664">
        <ele>392</ele>
        <time>2016-09-25T09:57:00.000Z</time>
      </trkpt>
      <trkpt lat="47.52093" lon="6.77659">
        <ele>392</ele>
        <time>2016-09-25T09:57:01.000Z</time>
      </trkpt>
      <trkpt lat="47.52093" lon="6.77654">
        <ele>392</ele>
        <time>2016-09-25T09:57:02.000Z</time>
      </trkpt>
      <trkpt lat="47.52094" lon="6.77649">
        <ele>392</ele>
        <time>2016-09-25T09:57:03.000Z</time>
      </trkpt>
      <trkpt lat="47.52094" lon="6.77644">
        <ele>391</ele>
        <time>2016-09-25T09:57:04.000Z</time>
      </trkpt>
      <trkpt lat="47.52094" lon="6.77639">
        <ele>391</ele>
        <time>2016-09-25T09:57:05.000Z</time>
      </trkpt>
      <trkpt lat="47.52094" lon="6.77633">
        <ele>391</ele>
        <time>2016-09-25T09:57:06.000Z</time>
      </trkpt>
      <trkpt lat="47.52094" lon="6.77628">
        <ele>391</ele>
        <time>2016-09-25T09:57:07.000Z</time>
      </trkpt>
      <trkpt lat="47.52094" lon="6.77623">
        <ele>391</ele>
        <time>2016-09-25T09:57:08.000Z</time>
      </trkpt>
      <trkpt lat="47.52094" lon="6.77617">
        <ele>391</ele>
        <time>2016-09-25T09:57:09.000Z</time>
      </trkpt>
      <trkpt lat="47.52095" lon="6.77612">
        <ele>391</ele>
        <time>2016-09-25T09:57:10.000Z</time>
      </trkpt>
      <trkpt lat="47.52095" lon="6.77606">
        <ele>391</ele>
        <time>2016-09-25T09:57:11.000Z</time>
      </trkpt>
      <trkpt lat="47.52095" lon="6.77601">
        <ele>391</ele>
        <time>2016-09-25T09:57:12.000Z</time>
      </trkpt>
      <trkpt lat="47.52095" lon="6.77596">
        <ele>391</ele>
        <time>2016-09-25T09:57:13.000Z</time>
      </trkpt>
      <trkpt lat="47.52095" lon="6.77592">
        <ele>391</ele>
        <time>2016-09-25T09:57:14.000Z</time>
      </trkpt>
      <trkpt lat="47.52095" lon="6.77587">
        <ele>391</ele>
        <time>2016-09-25T09:57:15.000Z</time>
      </trkpt>
      <trkpt lat="47.52096" lon="6.77582">
        <ele>391</ele>
        <time>2016-09-25T09:57:16.000Z</time>
      </trkpt>
      <trkpt lat="47.52096" lon="6.77577">
        <ele>391</ele>
        <time>2016-09-25T09:57:17.000Z</time>
      </trkpt>
      <trkpt lat="47.52096" lon="6.77572">
        <ele>390</ele>
        <time>2016-09-25T09:57:18.000Z</time>
      </trkpt>
      <trkpt lat="47.52095" lon="6.77566">
        <ele>390</ele>
        <time>2016-09-25T09:57:19.000Z</time>
      </trkpt>
      <trkpt lat="47.52095" lon="6.77561">
        <ele>390</ele>
        <time>2016-09-25T09:57:20.000Z</time>
      </trkpt>
      <trkpt lat="47.52093" lon="6.77556">
        <ele>390</ele>
        <time>2016-09-25T09:57:21.000Z</time>
      </trkpt>
      <trkpt lat="47.52091" lon="6.77552">
        <ele>390</ele>
        <time>2016-09-25T09:57:22.000Z</time>
      </trkpt>
      <trkpt lat="47.52089" lon="6.77549">
        <ele>390</ele>
        <time>2016-09-25T09:57:23.000Z</time>
      </trkpt>
      <trkpt lat="47.52086" lon="6.77547">
        <ele>390</ele>
        <time>2016-09-25T09:57:24.000Z</time>
      </trkpt>
      <trkpt lat="47.52082" lon="6.77545">
        <ele>391</ele>
        <time>2016-09-25T09:57:25.000Z</time>
      </trkpt>
      <trkpt lat="47.52079" lon="6.77544">
        <ele>391</ele>
        <time>2016-09-25T09:57:26.000Z</time>
      </trkpt>
      <trkpt lat="47.52075" lon="6.77543">
        <ele>391</ele>
        <time>2016-09-25T09:57:27.000Z</time>
      </trkpt>
      <trkpt lat="47.52071" lon="6.77542">
        <ele>391</ele>
        <time>2016-09-25T09:57:28.000Z</time>
      </trkpt>
      <trkpt lat="47.52068" lon="6.77541">
        <ele>390</ele>
        <time>2016-09-25T09:57:29.000Z</time>
      </trkpt>
      <trkpt lat="47.52064" lon="6.7754">
        <ele>390</ele>
        <time>2016-09-25T09:57:30.000Z</time>
      </trkpt>
      <trkpt lat="47.5206" lon="6.7754">
        <ele>390</ele>
        <time>2016-09-25T09:57:31.000Z</time>
      </trkpt>
      <trkpt lat="47.52056" lon="6.77539">
        <ele>390</ele>
        <time>2016-09-25T09:57:32.000Z</time>
      </trkpt>
      <trkpt lat="47.52053" lon="6.77539">
        <ele>390</ele>
        <time>2016-09-25T09:57:33.000Z</time>
      </trkpt>
      <trkpt lat="47.52049" lon="6.77539">
        <ele>390</ele>
        <time>2016-09-25T09:57:34.000Z</time>
      </trkpt>
      <trkpt lat="47.52045" lon="6.77539">
        <ele>390</ele>
        <time>2016-09-25T09:57:35.000Z</time>
      </trkpt>
      <trkpt lat="47.52042" lon="6.77538">
        <ele>390</ele>
        <time>2016-09-25T09:57:36.000Z</time>
      </trkpt>
      <trkpt lat="47.52038" lon="6.77538">
        <ele>390</ele>
        <time>2016-09-25T09:57:37.000Z</time>
      </trkpt>
      <trkpt lat="47.52034" lon="6.77537">
        <ele>390</ele>
        <time>2016-09-25T09:57:38.000Z</time>
      </trkpt>
      <trkpt lat="47.5203" lon="6.77536">
        <ele>390</ele>
        <time>2016-09-25T09:57:39.000Z</time>
      </trkpt>
      <trkpt lat="47.52026" lon="6.77536">
        <ele>390</ele>
        <time>2016-09-25T09:57:40.000Z</time>
      </trkpt>
      <trkpt lat="47.52022" lon="6.77535">
        <ele>390</ele>
        <time>2016-09-25T09:57:41.000Z</time>
      </trkpt>
      <trkpt lat="47.52018" lon="6.77534">
        <ele>390</ele>
        <time>2016-09-25T09:57:41.998Z</time>
      </trkpt>
      <trkpt lat="47.52011" lon="6.77534">
        <ele>390</ele>
        <time>2016-09-25T09:57:43.000Z</time>
      </trkpt>
      <trkpt lat="47.52007" lon="6.77532">
        <ele>390</ele>
        <time>2016-09-25T09:57:44.000Z</time>
      </trkpt>
      <trkpt lat="47.52002" lon="6.77531">
        <ele>390</ele>
        <time>2016-09-25T09:57:45.000Z</time>
      </trkpt>
      <trkpt lat="47.51997" lon="6.77531">
        <ele>390</ele>
        <time>2016-09-25T09:57:46.000Z</time>
      </trkpt>
      <trkpt lat="47.51992" lon="6.7753">
        <ele>390</ele>
        <time>2016-09-25T09:57:47.000Z</time>
      </trkpt>
      <trkpt lat="47.51988" lon="6.77528">
        <ele>390</ele>
        <time>2016-09-25T09:57:48.000Z</time>
      </trkpt>
      <trkpt lat="47.51983" lon="6.77527">
        <ele>390</ele>
        <time>2016-09-25T09:57:49.000Z</time>
      </trkpt>
      <trkpt lat="47.51979" lon="6.77526">
        <ele>390</ele>
        <time>2016-09-25T09:57:50.000Z</time>
      </trkpt>
      <trkpt lat="47.51975" lon="6.77525">
        <ele>390</ele>
        <time>2016-09-25T09:57:51.000Z</time>
      </trkpt>
      <trkpt lat="47.5197" lon="6.77525">
        <ele>390</ele>
        <time>2016-09-25T09:57:52.000Z</time>
      </trkpt>
      <trkpt lat="47.51966" lon="6.77525">
        <ele>390</ele>
        <time>2016-09-25T09:57:53.000Z</time>
      </trkpt>
      <trkpt lat="47.51962" lon="6.77523">
        <ele>390</ele>
        <time>2016-09-25T09:57:54.000Z</time>
      </trkpt>
      <trkpt lat="47.51958" lon="6.77522">
        <ele>390</ele>
        <time>2016-09-25T09:57:55.000Z</time>
      </trkpt>
      <trkpt lat="47.51955" lon="6.77521">
        <ele>390</ele>
        <time>2016-09-25T09:57:56.000Z</time>
      </trkpt>
      <trkpt lat="47.51951" lon="6.77521">
        <ele>390</ele>
        <time>2016-09-25T09:57:57.000Z</time>
      </trkpt>
      <trkpt lat="47.51948" lon="6.77521">
        <ele>390</ele>
        <time>2016-09-25T09:57:58.000Z</time>
      </trkpt>
      <trkpt lat="47.51944" lon="6.7752">
        <ele>389</ele>
        <time>2016-09-25T09:57:59.000Z</time>
      </trkpt>
      <trkpt lat="47.51941" lon="6.7752">
        <ele>389</ele>
        <time>2016-09-25T09:58:00.000Z</time>
      </trkpt>
      <trkpt lat="47.51937" lon="6.77519">
        <ele>389</ele>
        <time>2016-09-25T09:58:01.000Z</time>
      </trkpt>
      <trkpt lat="47.51934" lon="6.77518">
        <ele>389</ele>
        <time>2016-09-25T09:58:02.000Z</time>
      </trkpt>
      <trkpt lat="47.5193" lon="6.77518">
        <ele>389</ele>
        <time>2016-09-25T09:58:03.000Z</time>
      </trkpt>
      <trkpt lat="47.51926" lon="6.77517">
        <ele>389</ele>
        <time>2016-09-25T09:58:04.000Z</time>
      </trkpt>
      <trkpt lat="47.51922" lon="6.77516">
        <ele>389</ele>
        <time>2016-09-25T09:58:05.000Z</time>
      </trkpt>
      <trkpt lat="47.51918" lon="6.77515">
        <ele>389</ele>
        <time>2016-09-25T09:58:06.000Z</time>
      </trkpt>
      <trkpt lat="47.51914" lon="6.77514">
        <ele>388</ele>
        <time>2016-09-25T09:58:07.000Z</time>
      </trkpt>
      <trkpt lat="47.5191" lon="6.77513">
        <ele>388</ele>
        <time>2016-09-25T09:58:08.000Z</time>
      </trkpt>
      <trkpt lat="47.51904" lon="6.77512">
        <ele>388</ele>
        <time>2016-09-25T09:58:09.000Z</time>
      </trkpt>
      <trkpt lat="47.519" lon="6.77511">
        <ele>388</ele>
        <time>2016-09-25T09:58:10.000Z</time>
      </trkpt>
      <trkpt lat="47.51895" lon="6.77509">
        <ele>388</ele>
        <time>2016-09-25T09:58:11.000Z</time>
      </trkpt>
      <trkpt lat="47.51891" lon="6.77508">
        <ele>388</ele>
        <time>2016-09-25T09:58:12.000Z</time>
      </trkpt>
      <trkpt lat="47.51886" lon="6.77507">
        <ele>388</ele>
        <time>2016-09-25T09:58:13.000Z</time>
      </trkpt>
      <trkpt lat="47.51882" lon="6.77506">
        <ele>388</ele>
        <time>2016-09-25T09:58:14.000Z</time>
      </trkpt>
      <trkpt lat="47.51877" lon="6.77505">
        <ele>388</ele>
        <time>2016-09-25T09:58:15.000Z</time>
      </trkpt>
      <trkpt lat="47.51872" lon="6.77504">
        <ele>388</ele>
        <time>2016-09-25T09:58:16.000Z</time>
      </trkpt>
      <trkpt lat="47.51867" lon="6.77503">
        <ele>388</ele>
        <time>2016-09-25T09:58:17.000Z</time>
      </trkpt>
      <trkpt lat="47.51862" lon="6.77503">
        <ele>388</ele>
        <time>2016-09-25T09:58:18.000Z</time>
      </trkpt>
      <trkpt lat="47.51857" lon="6.77503">
        <ele>388</ele>
        <time>2016-09-25T09:58:19.000Z</time>
      </trkpt>
      <trkpt lat="47.51852" lon="6.77504">
        <ele>388</ele>
        <time>2016-09-25T09:58:20.000Z</time>
      </trkpt>
      <trkpt lat="47.51847" lon="6.77504">
        <ele>388</ele>
        <time>2016-09-25T09:58:21.000Z</time>
      </trkpt>
      <trkpt lat="47.51842" lon="6.77503">
        <ele>388</ele>
        <time>2016-09-25T09:58:22.000Z</time>
      </trkpt>
      <trkpt lat="47.51837" lon="6.77503">
        <ele>387</ele>
        <time>2016-09-25T09:58:23.000Z</time>
      </trkpt>
      <trkpt lat="47.51832" lon="6.77501">
        <ele>387</ele>
        <time>2016-09-25T09:58:24.000Z</time>
      </trkpt>
      <trkpt lat="47.51829" lon="6.775">
        <ele>387</ele>
        <time>2016-09-25T09:58:24.999Z</time>
      </trkpt>
      <trkpt lat="47.51824" lon="6.77499">
        <ele>387</ele>
        <time>2016-09-25T09:58:26.000Z</time>
      </trkpt>
      <trkpt lat="47.5182" lon="6.77499">
        <ele>387</ele>
        <time>2016-09-25T09:58:26.999Z</time>
      </trkpt>
      <trkpt lat="47.51818" lon="6.77498">
        <ele>387</ele>
        <time>2016-09-25T09:58:28.000Z</time>
      </trkpt>
      <trkpt lat="47.51814" lon="6.77497">
        <ele>388</ele>
        <time>2016-09-25T09:58:29.000Z</time>
      </trkpt>
      <trkpt lat="47.51811" lon="6.77496">
        <ele>388</ele>
        <time>2016-09-25T09:58:30.001Z</time>
      </trkpt>
      <trkpt lat="47.51808" lon="6.77494">
        <ele>388</ele>
        <time>2016-09-25T09:58:31.000Z</time>
      </trkpt>
      <trkpt lat="47.51806" lon="6.77492">
        <ele>388</ele>
        <time>2016-09-25T09:58:32.000Z</time>
      </trkpt>
      <trkpt lat="47.51806" lon="6.77487">
        <ele>388</ele>
        <time>2016-09-25T09:58:35.000Z</time>
      </trkpt>
      <trkpt lat="47.51807" lon="6.77485">
        <ele>388</ele>
        <time>2016-09-25T09:58:36.000Z</time>
      </trkpt>
      <trkpt lat="47.51805" lon="6.7748">
        <ele>388</ele>
        <time>2016-09-25T10:00:22.000Z</time>
      </trkpt>
      <trkpt lat="47.51804" lon="6.7748">
        <ele>388</ele>
        <time>2016-09-25T10:00:23.000Z</time>
      </trkpt>
      <trkpt lat="47.51802" lon="6.77477">
        <ele>388</ele>
        <time>2016-09-25T10:03:59.000Z</time>
      </trkpt>
    </trkseg>
  </trk>
</gpx>